<?xml version="1.0" encoding="UTF-8" standalone="no" ?>
<gpx xmlns="http://www.topografix.com/GPX/1/1" xmlns:xsi="http://www.w3.org/2001/XMLSchema-instance" xsi:schemaLocation="http://www.topografix.com/GPX/1/1 http://www.topografix.com/GPX/1/1/gpx.xsd" version="1.1" creator="VisuGPX - https://www.visugpx.com">
  <metadata>
    <name>CCC 4 Cuiseaux France 153 2500</name>
    <desc><![CDATA[Randonnée au départ de Cuiseaux France]]></desc>
  </metadata>
  <trk>
    <name><![CDATA[5870774-Boucle balanod]]></name>
    <trkseg>
      <trkpt lat="46.49557" lon="5.38792">
        <ele>278.5</ele>
        <time>2019-04-29T11:13:01Z</time>
      </trkpt>
      <trkpt lat="46.49451" lon="5.38774">
        <ele>280</ele>
        <time>2019-04-29T11:22:01Z</time>
      </trkpt>
      <trkpt lat="46.49399" lon="5.38766">
        <ele>281</ele>
        <time>2019-04-29T11:23:01Z</time>
      </trkpt>
      <trkpt lat="46.49342" lon="5.38748">
        <ele>280</ele>
        <time>2019-04-29T11:24:01Z</time>
      </trkpt>
      <trkpt lat="46.49255" lon="5.38716">
        <ele>279</ele>
        <time>2019-04-29T11:25:01Z</time>
      </trkpt>
      <trkpt lat="46.49225" lon="5.38695">
        <ele>277</ele>
        <time>2019-04-29T11:26:01Z</time>
      </trkpt>
      <trkpt lat="46.49216" lon="5.38679">
        <ele>277</ele>
        <time>2019-04-29T11:27:01Z</time>
      </trkpt>
      <trkpt lat="46.49208" lon="5.38646">
        <ele>275</ele>
        <time>2019-04-29T11:28:01Z</time>
      </trkpt>
      <trkpt lat="46.49207" lon="5.38608">
        <ele>274</ele>
        <time>2019-04-29T11:29:01Z</time>
      </trkpt>
      <trkpt lat="46.49189" lon="5.38595">
        <ele>273</ele>
        <time>2019-04-29T11:30:01Z</time>
      </trkpt>
      <trkpt lat="46.4917" lon="5.38534">
        <ele>270.6</ele>
        <time>2019-04-29T11:31:01Z</time>
      </trkpt>
      <trkpt lat="46.49153" lon="5.38539">
        <ele>269</ele>
        <time>2019-04-29T11:32:01Z</time>
      </trkpt>
      <trkpt lat="46.49128" lon="5.38521">
        <ele>269</ele>
        <time>2019-04-29T11:33:01Z</time>
      </trkpt>
      <trkpt lat="46.49086" lon="5.38515">
        <ele>268</ele>
        <time>2019-04-29T11:34:01Z</time>
      </trkpt>
      <trkpt lat="46.49046" lon="5.38509">
        <ele>269</ele>
        <time>2019-04-29T11:35:01Z</time>
      </trkpt>
      <trkpt lat="46.49006" lon="5.38494">
        <ele>268</ele>
        <time>2019-04-29T11:36:01Z</time>
      </trkpt>
      <trkpt lat="46.48972" lon="5.38477">
        <ele>270</ele>
        <time>2019-04-29T11:37:01Z</time>
      </trkpt>
      <trkpt lat="46.48952" lon="5.38444">
        <ele>270</ele>
        <time>2019-04-29T11:38:01Z</time>
      </trkpt>
      <trkpt lat="46.48941" lon="5.38396">
        <ele>268</ele>
        <time>2019-04-29T11:39:01Z</time>
      </trkpt>
      <trkpt lat="46.48921" lon="5.38361">
        <ele>268</ele>
        <time>2019-04-29T11:40:01Z</time>
      </trkpt>
      <trkpt lat="46.48864" lon="5.38327">
        <ele>274</ele>
        <time>2019-04-29T11:41:01Z</time>
      </trkpt>
      <trkpt lat="46.4883" lon="5.38299">
        <ele>282</ele>
        <time>2019-04-29T11:42:01Z</time>
      </trkpt>
      <trkpt lat="46.48796" lon="5.38277">
        <ele>283</ele>
        <time>2019-04-29T11:43:01Z</time>
      </trkpt>
      <trkpt lat="46.48757" lon="5.38239">
        <ele>284</ele>
        <time>2019-04-29T11:44:01Z</time>
      </trkpt>
      <trkpt lat="46.4871" lon="5.38184">
        <ele>290.8</ele>
        <time>2019-04-29T11:45:01Z</time>
      </trkpt>
      <trkpt lat="46.48667" lon="5.38141">
        <ele>295</ele>
        <time>2019-04-29T11:46:01Z</time>
      </trkpt>
      <trkpt lat="46.48625" lon="5.38108">
        <ele>296</ele>
        <time>2019-04-29T11:47:01Z</time>
      </trkpt>
      <trkpt lat="46.48573" lon="5.38079">
        <ele>297</ele>
        <time>2019-04-29T11:48:01Z</time>
      </trkpt>
      <trkpt lat="46.4854" lon="5.38078">
        <ele>296</ele>
        <time>2019-04-29T11:49:01Z</time>
      </trkpt>
      <trkpt lat="46.48518" lon="5.38088">
        <ele>302</ele>
        <time>2019-04-29T11:50:01Z</time>
      </trkpt>
      <trkpt lat="46.48492" lon="5.38112">
        <ele>303</ele>
        <time>2019-04-29T11:51:01Z</time>
      </trkpt>
      <trkpt lat="46.48445" lon="5.38157">
        <ele>305</ele>
        <time>2019-04-29T11:52:01Z</time>
      </trkpt>
      <trkpt lat="46.48422" lon="5.38174">
        <ele>308</ele>
        <time>2019-04-29T11:53:01Z</time>
      </trkpt>
      <trkpt lat="46.48403" lon="5.38172">
        <ele>308</ele>
        <time>2019-04-29T11:54:01Z</time>
      </trkpt>
      <trkpt lat="46.4836" lon="5.38149">
        <ele>307</ele>
        <time>2019-04-29T11:55:01Z</time>
      </trkpt>
      <trkpt lat="46.48332" lon="5.38125">
        <ele>305.1</ele>
        <time>2019-04-29T11:56:01Z</time>
      </trkpt>
      <trkpt lat="46.48321" lon="5.38092">
        <ele>305</ele>
        <time>2019-04-29T11:57:01Z</time>
      </trkpt>
      <trkpt lat="46.48317" lon="5.38041">
        <ele>303</ele>
        <time>2019-04-29T11:58:01Z</time>
      </trkpt>
      <trkpt lat="46.48274" lon="5.37938">
        <ele>299</ele>
        <time>2019-04-29T11:59:01Z</time>
      </trkpt>
      <trkpt lat="46.48231" lon="5.37825">
        <ele>293</ele>
        <time>2019-04-29T12:00:01Z</time>
      </trkpt>
      <trkpt lat="46.48237" lon="5.37701">
        <ele>294</ele>
        <time>2019-04-29T12:01:01Z</time>
      </trkpt>
      <trkpt lat="46.48245" lon="5.37627">
        <ele>293.5</ele>
        <time>2019-04-29T12:02:01Z</time>
      </trkpt>
      <trkpt lat="46.48258" lon="5.37587">
        <ele>292</ele>
        <time>2019-04-29T12:03:01Z</time>
      </trkpt>
      <trkpt lat="46.48311" lon="5.37492">
        <ele>286</ele>
        <time>2019-04-29T12:04:01Z</time>
      </trkpt>
      <trkpt lat="46.48322" lon="5.37446">
        <ele>285</ele>
        <time>2019-04-29T12:05:01Z</time>
      </trkpt>
      <trkpt lat="46.48317" lon="5.37393">
        <ele>281</ele>
        <time>2019-04-29T12:06:01Z</time>
      </trkpt>
      <trkpt lat="46.48259" lon="5.37226">
        <ele>273</ele>
        <time>2019-04-29T12:07:01Z</time>
      </trkpt>
      <trkpt lat="46.48265" lon="5.37173">
        <ele>273</ele>
        <time>2019-04-29T12:08:01Z</time>
      </trkpt>
      <trkpt lat="46.48289" lon="5.37102">
        <ele>269</ele>
        <time>2019-04-29T12:09:01Z</time>
      </trkpt>
      <trkpt lat="46.48298" lon="5.37039">
        <ele>267.2</ele>
        <time>2019-04-29T12:10:01Z</time>
      </trkpt>
      <trkpt lat="46.48295" lon="5.36954">
        <ele>264</ele>
        <time>2019-04-29T12:11:01Z</time>
      </trkpt>
      <trkpt lat="46.48292" lon="5.36898">
        <ele>260</ele>
        <time>2019-04-29T12:12:01Z</time>
      </trkpt>
      <trkpt lat="46.48278" lon="5.36861">
        <ele>258.5</ele>
        <time>2019-04-29T12:13:01Z</time>
      </trkpt>
      <trkpt lat="46.48257" lon="5.36826">
        <ele>255</ele>
        <time>2019-04-29T12:14:01Z</time>
      </trkpt>
      <trkpt lat="46.48102" lon="5.36693">
        <ele>249</ele>
        <time>2019-04-29T12:15:01Z</time>
      </trkpt>
      <trkpt lat="46.4819" lon="5.36596">
        <ele>247</ele>
        <time>2019-04-29T12:16:01Z</time>
      </trkpt>
      <trkpt lat="46.48192" lon="5.36565">
        <ele>244</ele>
        <time>2019-04-29T12:17:01Z</time>
      </trkpt>
      <trkpt lat="46.48204" lon="5.36551">
        <ele>243</ele>
        <time>2019-04-29T12:18:01Z</time>
      </trkpt>
      <trkpt lat="46.48224" lon="5.36558">
        <ele>243</ele>
        <time>2019-04-29T12:19:01Z</time>
      </trkpt>
      <trkpt lat="46.48396" lon="5.36373">
        <ele>237</ele>
        <time>2019-04-29T12:20:01Z</time>
      </trkpt>
      <trkpt lat="46.48424" lon="5.36355">
        <ele>237</ele>
        <time>2019-04-29T12:21:01Z</time>
      </trkpt>
      <trkpt lat="46.48611" lon="5.36322">
        <ele>232</ele>
        <time>2019-04-29T12:22:01Z</time>
      </trkpt>
      <trkpt lat="46.48624" lon="5.36308">
        <ele>232</ele>
        <time>2019-04-29T12:23:01Z</time>
      </trkpt>
      <trkpt lat="46.48637" lon="5.36245">
        <ele>229</ele>
        <time>2019-04-29T12:24:01Z</time>
      </trkpt>
      <trkpt lat="46.48644" lon="5.36144">
        <ele>229</ele>
        <time>2019-04-29T12:25:01Z</time>
      </trkpt>
      <trkpt lat="46.48669" lon="5.3603">
        <ele>230</ele>
        <time>2019-04-29T12:26:01Z</time>
      </trkpt>
      <trkpt lat="46.48685" lon="5.35926">
        <ele>231.7</ele>
        <time>2019-04-29T12:27:01Z</time>
      </trkpt>
      <trkpt lat="46.48646" lon="5.3595">
        <ele>236</ele>
        <time>2019-04-29T12:28:01Z</time>
      </trkpt>
      <trkpt lat="46.48629" lon="5.35945">
        <ele>237</ele>
        <time>2019-04-29T12:29:01Z</time>
      </trkpt>
      <trkpt lat="46.48602" lon="5.3593">
        <ele>239</ele>
        <time>2019-04-29T12:30:01Z</time>
      </trkpt>
      <trkpt lat="46.48568" lon="5.35909">
        <ele>242</ele>
        <time>2019-04-29T12:31:01Z</time>
      </trkpt>
      <trkpt lat="46.4854" lon="5.35897">
        <ele>243</ele>
        <time>2019-04-29T12:32:01Z</time>
      </trkpt>
      <trkpt lat="46.48494" lon="5.35889">
        <ele>247</ele>
        <time>2019-04-29T12:33:01Z</time>
      </trkpt>
      <trkpt lat="46.48462" lon="5.35895">
        <ele>247</ele>
        <time>2019-04-29T12:34:01Z</time>
      </trkpt>
      <trkpt lat="46.48429" lon="5.35921">
        <ele>252</ele>
        <time>2019-04-29T12:35:01Z</time>
      </trkpt>
      <trkpt lat="46.48405" lon="5.35932">
        <ele>253</ele>
        <time>2019-04-29T12:36:01Z</time>
      </trkpt>
      <trkpt lat="46.48282" lon="5.35912">
        <ele>254</ele>
        <time>2019-04-29T12:37:01Z</time>
      </trkpt>
      <trkpt lat="46.48241" lon="5.35851">
        <ele>253.3</ele>
        <time>2019-04-29T12:38:01Z</time>
      </trkpt>
      <trkpt lat="46.48197" lon="5.35809">
        <ele>251</ele>
        <time>2019-04-29T12:39:01Z</time>
      </trkpt>
      <trkpt lat="46.48152" lon="5.35758">
        <ele>254</ele>
        <time>2019-04-29T12:40:01Z</time>
      </trkpt>
      <trkpt lat="46.48099" lon="5.35712">
        <ele>253</ele>
        <time>2019-04-29T12:41:01Z</time>
      </trkpt>
      <trkpt lat="46.48067" lon="5.35695">
        <ele>254</ele>
        <time>2019-04-29T12:42:01Z</time>
      </trkpt>
      <trkpt lat="46.48042" lon="5.35695">
        <ele>255</ele>
        <time>2019-04-29T12:43:01Z</time>
      </trkpt>
      <trkpt lat="46.48021" lon="5.35701">
        <ele>255.4</ele>
        <time>2019-04-29T12:44:01Z</time>
      </trkpt>
      <trkpt lat="46.47988" lon="5.35714">
        <ele>257</ele>
        <time>2019-04-29T12:45:01Z</time>
      </trkpt>
      <trkpt lat="46.47966" lon="5.35712">
        <ele>257</ele>
        <time>2019-04-29T12:46:01Z</time>
      </trkpt>
      <trkpt lat="46.4792" lon="5.35699">
        <ele>257</ele>
        <time>2019-04-29T12:47:01Z</time>
      </trkpt>
      <trkpt lat="46.47878" lon="5.35688">
        <ele>260</ele>
        <time>2019-04-29T12:48:01Z</time>
      </trkpt>
      <trkpt lat="46.47799" lon="5.35665">
        <ele>262</ele>
        <time>2019-04-29T12:49:01Z</time>
      </trkpt>
      <trkpt lat="46.47768" lon="5.35656">
        <ele>262</ele>
        <time>2019-04-29T12:50:01Z</time>
      </trkpt>
      <trkpt lat="46.47737" lon="5.35655">
        <ele>261.6</ele>
        <time>2019-04-29T12:51:01Z</time>
      </trkpt>
      <trkpt lat="46.47714" lon="5.35679">
        <ele>263</ele>
        <time>2019-04-29T12:52:01Z</time>
      </trkpt>
      <trkpt lat="46.47672" lon="5.35757">
        <ele>264</ele>
        <time>2019-04-29T12:53:01Z</time>
      </trkpt>
      <trkpt lat="46.47615" lon="5.35836">
        <ele>274</ele>
        <time>2019-04-29T12:54:01Z</time>
      </trkpt>
      <trkpt lat="46.4759" lon="5.35838">
        <ele>274</ele>
        <time>2019-04-29T12:55:01Z</time>
      </trkpt>
      <trkpt lat="46.47551" lon="5.35826">
        <ele>271</ele>
        <time>2019-04-29T12:56:01Z</time>
      </trkpt>
      <trkpt lat="46.47527" lon="5.35825">
        <ele>272</ele>
        <time>2019-04-29T12:57:01Z</time>
      </trkpt>
      <trkpt lat="46.47512" lon="5.3583">
        <ele>272.7</ele>
        <time>2019-04-29T12:58:01Z</time>
      </trkpt>
      <trkpt lat="46.47433" lon="5.35744">
        <ele>272</ele>
        <time>2019-04-29T12:59:01Z</time>
      </trkpt>
      <trkpt lat="46.47353" lon="5.35652">
        <ele>272.4</ele>
        <time>2019-04-29T13:00:01Z</time>
      </trkpt>
      <trkpt lat="46.47308" lon="5.35621">
        <ele>274</ele>
        <time>2019-04-29T13:01:01Z</time>
      </trkpt>
      <trkpt lat="46.47196" lon="5.35566">
        <ele>274</ele>
        <time>2019-04-29T13:02:01Z</time>
      </trkpt>
      <trkpt lat="46.47166" lon="5.35559">
        <ele>276</ele>
        <time>2019-04-29T13:03:01Z</time>
      </trkpt>
      <trkpt lat="46.47135" lon="5.35542">
        <ele>275</ele>
        <time>2019-04-29T13:04:01Z</time>
      </trkpt>
      <trkpt lat="46.47089" lon="5.35508">
        <ele>273</ele>
        <time>2019-04-29T13:05:01Z</time>
      </trkpt>
      <trkpt lat="46.47055" lon="5.35488">
        <ele>269</ele>
        <time>2019-04-29T13:06:01Z</time>
      </trkpt>
      <trkpt lat="46.46998" lon="5.35467">
        <ele>269</ele>
        <time>2019-04-29T13:07:01Z</time>
      </trkpt>
      <trkpt lat="46.46934" lon="5.35456">
        <ele>269</ele>
        <time>2019-04-29T13:08:01Z</time>
      </trkpt>
      <trkpt lat="46.46893" lon="5.35447">
        <ele>269</ele>
        <time>2019-04-29T13:09:01Z</time>
      </trkpt>
      <trkpt lat="46.46819" lon="5.35415">
        <ele>264.9</ele>
        <time>2019-04-29T13:10:01Z</time>
      </trkpt>
      <trkpt lat="46.46807" lon="5.35408">
        <ele>264</ele>
        <time>2019-04-29T13:11:01Z</time>
      </trkpt>
      <trkpt lat="46.46799" lon="5.35383">
        <ele>263</ele>
        <time>2019-04-29T13:12:01Z</time>
      </trkpt>
      <trkpt lat="46.4676" lon="5.35441">
        <ele>263</ele>
        <time>2019-04-29T13:13:01Z</time>
      </trkpt>
      <trkpt lat="46.46721" lon="5.35507">
        <ele>255</ele>
        <time>2019-04-29T13:14:01Z</time>
      </trkpt>
      <trkpt lat="46.46716" lon="5.35479">
        <ele>255</ele>
        <time>2019-04-29T13:15:01Z</time>
      </trkpt>
      <trkpt lat="46.46687" lon="5.35405">
        <ele>253.4</ele>
        <time>2019-04-29T13:16:01Z</time>
      </trkpt>
      <trkpt lat="46.4667" lon="5.35369">
        <ele>253.9</ele>
        <time>2019-04-29T13:17:01Z</time>
      </trkpt>
      <trkpt lat="46.46659" lon="5.35332">
        <ele>251</ele>
        <time>2019-04-29T13:18:01Z</time>
      </trkpt>
      <trkpt lat="46.4666" lon="5.35295">
        <ele>250</ele>
        <time>2019-04-29T13:19:01Z</time>
      </trkpt>
      <trkpt lat="46.46664" lon="5.35252">
        <ele>249</ele>
        <time>2019-04-29T13:20:01Z</time>
      </trkpt>
      <trkpt lat="46.46603" lon="5.35149">
        <ele>243.4</ele>
        <time>2019-04-29T13:21:01Z</time>
      </trkpt>
      <trkpt lat="46.46579" lon="5.35123">
        <ele>245</ele>
        <time>2019-04-29T13:22:01Z</time>
      </trkpt>
      <trkpt lat="46.46557" lon="5.35087">
        <ele>245</ele>
        <time>2019-04-29T13:23:01Z</time>
      </trkpt>
      <trkpt lat="46.46538" lon="5.35057">
        <ele>241</ele>
        <time>2019-04-29T13:24:01Z</time>
      </trkpt>
      <trkpt lat="46.46517" lon="5.35034">
        <ele>240</ele>
        <time>2019-04-29T13:25:01Z</time>
      </trkpt>
      <trkpt lat="46.46482" lon="5.35003">
        <ele>239</ele>
        <time>2019-04-29T13:26:01Z</time>
      </trkpt>
      <trkpt lat="46.46431" lon="5.34978">
        <ele>237</ele>
        <time>2019-04-29T13:27:01Z</time>
      </trkpt>
      <trkpt lat="46.46416" lon="5.34943">
        <ele>238</ele>
        <time>2019-04-29T13:28:01Z</time>
      </trkpt>
      <trkpt lat="46.464" lon="5.34897">
        <ele>240</ele>
        <time>2019-04-29T13:29:01Z</time>
      </trkpt>
      <trkpt lat="46.46369" lon="5.34795">
        <ele>246.5</ele>
        <time>2019-04-29T13:30:01Z</time>
      </trkpt>
      <trkpt lat="46.46358" lon="5.34763">
        <ele>248</ele>
        <time>2019-04-29T13:31:01Z</time>
      </trkpt>
      <trkpt lat="46.46342" lon="5.34743">
        <ele>251</ele>
        <time>2019-04-29T13:32:01Z</time>
      </trkpt>
      <trkpt lat="46.46306" lon="5.34719">
        <ele>252</ele>
        <time>2019-04-29T13:33:01Z</time>
      </trkpt>
      <trkpt lat="46.46274" lon="5.34708">
        <ele>253</ele>
        <time>2019-04-29T13:34:01Z</time>
      </trkpt>
      <trkpt lat="46.46206" lon="5.34677">
        <ele>254</ele>
        <time>2019-04-29T13:35:01Z</time>
      </trkpt>
      <trkpt lat="46.46169" lon="5.34661">
        <ele>258</ele>
        <time>2019-04-29T13:36:01Z</time>
      </trkpt>
      <trkpt lat="46.46132" lon="5.34639">
        <ele>260</ele>
        <time>2019-04-29T13:37:01Z</time>
      </trkpt>
      <trkpt lat="46.46094" lon="5.34628">
        <ele>260</ele>
        <time>2019-04-29T13:38:01Z</time>
      </trkpt>
      <trkpt lat="46.46046" lon="5.34625">
        <ele>257.1</ele>
        <time>2019-04-29T13:39:01Z</time>
      </trkpt>
      <trkpt lat="46.45951" lon="5.34607">
        <ele>254</ele>
        <time>2019-04-29T13:40:01Z</time>
      </trkpt>
      <trkpt lat="46.45907" lon="5.34593">
        <ele>254</ele>
        <time>2019-04-29T13:41:01Z</time>
      </trkpt>
      <trkpt lat="46.45882" lon="5.346">
        <ele>255</ele>
        <time>2019-04-29T13:42:01Z</time>
      </trkpt>
      <trkpt lat="46.45868" lon="5.34608">
        <ele>255</ele>
        <time>2019-04-29T13:43:01Z</time>
      </trkpt>
      <trkpt lat="46.45854" lon="5.34613">
        <ele>255</ele>
        <time>2019-04-29T13:44:01Z</time>
      </trkpt>
      <trkpt lat="46.45762" lon="5.34579">
        <ele>256</ele>
        <time>2019-04-29T13:45:01Z</time>
      </trkpt>
      <trkpt lat="46.45726" lon="5.34566">
        <ele>257</ele>
        <time>2019-04-29T13:46:01Z</time>
      </trkpt>
      <trkpt lat="46.45699" lon="5.34569">
        <ele>258</ele>
        <time>2019-04-29T13:47:01Z</time>
      </trkpt>
      <trkpt lat="46.45672" lon="5.34603">
        <ele>259.2</ele>
        <time>2019-04-29T13:48:01Z</time>
      </trkpt>
      <trkpt lat="46.4559" lon="5.34524">
        <ele>259</ele>
        <time>2019-04-29T13:49:01Z</time>
      </trkpt>
      <trkpt lat="46.45587" lon="5.34497">
        <ele>258</ele>
        <time>2019-04-29T13:50:01Z</time>
      </trkpt>
      <trkpt lat="46.45592" lon="5.34455">
        <ele>258</ele>
        <time>2019-04-29T13:51:01Z</time>
      </trkpt>
      <trkpt lat="46.45596" lon="5.34433">
        <ele>258</ele>
        <time>2019-04-29T13:52:01Z</time>
      </trkpt>
      <trkpt lat="46.45599" lon="5.34402">
        <ele>257</ele>
        <time>2019-04-29T13:53:01Z</time>
      </trkpt>
      <trkpt lat="46.45595" lon="5.34368">
        <ele>256</ele>
        <time>2019-04-29T13:54:01Z</time>
      </trkpt>
      <trkpt lat="46.45589" lon="5.34343">
        <ele>257</ele>
        <time>2019-04-29T13:55:01Z</time>
      </trkpt>
      <trkpt lat="46.45577" lon="5.34289">
        <ele>256</ele>
        <time>2019-04-29T13:56:01Z</time>
      </trkpt>
      <trkpt lat="46.45568" lon="5.34229">
        <ele>254.4</ele>
        <time>2019-04-29T13:57:01Z</time>
      </trkpt>
      <trkpt lat="46.45569" lon="5.34061">
        <ele>255</ele>
        <time>2019-04-29T13:58:01Z</time>
      </trkpt>
      <trkpt lat="46.45566" lon="5.34024">
        <ele>254</ele>
        <time>2019-04-29T13:59:01Z</time>
      </trkpt>
      <trkpt lat="46.4555" lon="5.33999">
        <ele>254</ele>
        <time>2019-04-29T14:00:01Z</time>
      </trkpt>
      <trkpt lat="46.45534" lon="5.33972">
        <ele>254.1</ele>
        <time>2019-04-29T14:01:01Z</time>
      </trkpt>
      <trkpt lat="46.45503" lon="5.34006">
        <ele>255</ele>
        <time>2019-04-29T14:02:01Z</time>
      </trkpt>
      <trkpt lat="46.45474" lon="5.34027">
        <ele>256</ele>
        <time>2019-04-29T14:03:01Z</time>
      </trkpt>
      <trkpt lat="46.45437" lon="5.3404">
        <ele>257</ele>
        <time>2019-04-29T14:04:01Z</time>
      </trkpt>
      <trkpt lat="46.45336" lon="5.34063">
        <ele>260.5</ele>
        <time>2019-04-29T14:05:01Z</time>
      </trkpt>
      <trkpt lat="46.45051" lon="5.34122">
        <ele>255</ele>
        <time>2019-04-29T14:06:01Z</time>
      </trkpt>
      <trkpt lat="46.45014" lon="5.34119">
        <ele>254</ele>
        <time>2019-04-29T14:07:01Z</time>
      </trkpt>
      <trkpt lat="46.44978" lon="5.34113">
        <ele>251</ele>
        <time>2019-04-29T14:08:01Z</time>
      </trkpt>
      <trkpt lat="46.4492" lon="5.34096">
        <ele>249</ele>
        <time>2019-04-29T14:09:01Z</time>
      </trkpt>
      <trkpt lat="46.44877" lon="5.34088">
        <ele>246</ele>
        <time>2019-04-29T14:10:01Z</time>
      </trkpt>
      <trkpt lat="46.44856" lon="5.34092">
        <ele>245</ele>
        <time>2019-04-29T14:11:01Z</time>
      </trkpt>
      <trkpt lat="46.44835" lon="5.34105">
        <ele>245.1</ele>
        <time>2019-04-29T14:12:01Z</time>
      </trkpt>
      <trkpt lat="46.44798" lon="5.34145">
        <ele>244</ele>
        <time>2019-04-29T14:13:01Z</time>
      </trkpt>
      <trkpt lat="46.44792" lon="5.34171">
        <ele>242</ele>
        <time>2019-04-29T14:14:01Z</time>
      </trkpt>
      <trkpt lat="46.44779" lon="5.34199">
        <ele>242</ele>
        <time>2019-04-29T14:15:01Z</time>
      </trkpt>
      <trkpt lat="46.44761" lon="5.34235">
        <ele>240</ele>
        <time>2019-04-29T14:16:01Z</time>
      </trkpt>
      <trkpt lat="46.44743" lon="5.3426">
        <ele>238</ele>
        <time>2019-04-29T14:17:01Z</time>
      </trkpt>
      <trkpt lat="46.44724" lon="5.34275">
        <ele>237.1</ele>
        <time>2019-04-29T14:18:01Z</time>
      </trkpt>
      <trkpt lat="46.44704" lon="5.34279">
        <ele>237</ele>
        <time>2019-04-29T14:19:01Z</time>
      </trkpt>
      <trkpt lat="46.44681" lon="5.34279">
        <ele>237</ele>
        <time>2019-04-29T14:20:01Z</time>
      </trkpt>
      <trkpt lat="46.44667" lon="5.34289">
        <ele>236.2</ele>
        <time>2019-04-29T14:21:01Z</time>
      </trkpt>
      <trkpt lat="46.44656" lon="5.34312">
        <ele>233.4</ele>
        <time>2019-04-29T14:22:01Z</time>
      </trkpt>
      <trkpt lat="46.44612" lon="5.34276">
        <ele>233</ele>
        <time>2019-04-29T14:23:01Z</time>
      </trkpt>
      <trkpt lat="46.44589" lon="5.34261">
        <ele>231.9</ele>
        <time>2019-04-29T14:24:01Z</time>
      </trkpt>
      <trkpt lat="46.44574" lon="5.3425">
        <ele>231</ele>
        <time>2019-04-29T14:25:01Z</time>
      </trkpt>
      <trkpt lat="46.44559" lon="5.34244">
        <ele>230</ele>
        <time>2019-04-29T14:26:01Z</time>
      </trkpt>
      <trkpt lat="46.44546" lon="5.34243">
        <ele>230.4</ele>
        <time>2019-04-29T14:27:01Z</time>
      </trkpt>
      <trkpt lat="46.44534" lon="5.34238">
        <ele>230</ele>
        <time>2019-04-29T14:28:01Z</time>
      </trkpt>
      <trkpt lat="46.44513" lon="5.34236">
        <ele>229</ele>
        <time>2019-04-29T14:29:01Z</time>
      </trkpt>
      <trkpt lat="46.44483" lon="5.34236">
        <ele>229</ele>
        <time>2019-04-29T14:30:01Z</time>
      </trkpt>
      <trkpt lat="46.44463" lon="5.34237">
        <ele>230</ele>
        <time>2019-04-29T14:31:01Z</time>
      </trkpt>
      <trkpt lat="46.44459" lon="5.34238">
        <ele>230</ele>
        <time>2019-04-29T14:32:01Z</time>
      </trkpt>
      <trkpt lat="46.44455" lon="5.34238">
        <ele>230</ele>
        <time>2019-04-29T14:33:01Z</time>
      </trkpt>
      <trkpt lat="46.44446" lon="5.3424">
        <ele>230</ele>
        <time>2019-04-29T14:34:01Z</time>
      </trkpt>
      <trkpt lat="46.44438" lon="5.34242">
        <ele>231</ele>
        <time>2019-04-29T14:35:01Z</time>
      </trkpt>
      <trkpt lat="46.44432" lon="5.34247">
        <ele>231</ele>
        <time>2019-04-29T14:36:01Z</time>
      </trkpt>
      <trkpt lat="46.44423" lon="5.34249">
        <ele>232</ele>
        <time>2019-04-29T14:37:01Z</time>
      </trkpt>
      <trkpt lat="46.44374" lon="5.34262">
        <ele>234</ele>
        <time>2019-04-29T14:38:01Z</time>
      </trkpt>
      <trkpt lat="46.44359" lon="5.34265">
        <ele>235</ele>
        <time>2019-04-29T14:39:01Z</time>
      </trkpt>
      <trkpt lat="46.44348" lon="5.34267">
        <ele>235</ele>
        <time>2019-04-29T14:40:01Z</time>
      </trkpt>
      <trkpt lat="46.44337" lon="5.34269">
        <ele>236</ele>
        <time>2019-04-29T14:41:01Z</time>
      </trkpt>
      <trkpt lat="46.44323" lon="5.3427">
        <ele>236</ele>
        <time>2019-04-29T14:42:01Z</time>
      </trkpt>
      <trkpt lat="46.44296" lon="5.34271">
        <ele>236</ele>
        <time>2019-04-29T14:43:01Z</time>
      </trkpt>
      <trkpt lat="46.4429" lon="5.3427">
        <ele>236</ele>
        <time>2019-04-29T14:44:01Z</time>
      </trkpt>
      <trkpt lat="46.44258" lon="5.34269">
        <ele>236</ele>
        <time>2019-04-29T14:45:01Z</time>
      </trkpt>
      <trkpt lat="46.44226" lon="5.34266">
        <ele>236</ele>
        <time>2019-04-29T14:46:01Z</time>
      </trkpt>
      <trkpt lat="46.44218" lon="5.34266">
        <ele>237</ele>
        <time>2019-04-29T14:47:01Z</time>
      </trkpt>
      <trkpt lat="46.44141" lon="5.34268">
        <ele>240</ele>
        <time>2019-04-29T14:48:01Z</time>
      </trkpt>
      <trkpt lat="46.44091" lon="5.34268">
        <ele>244</ele>
        <time>2019-04-29T14:49:01Z</time>
      </trkpt>
      <trkpt lat="46.44063" lon="5.34267">
        <ele>245</ele>
        <time>2019-04-29T14:50:01Z</time>
      </trkpt>
      <trkpt lat="46.44023" lon="5.3427">
        <ele>245</ele>
        <time>2019-04-29T14:51:01Z</time>
      </trkpt>
      <trkpt lat="46.44013" lon="5.34272">
        <ele>245</ele>
        <time>2019-04-29T14:52:01Z</time>
      </trkpt>
      <trkpt lat="46.44002" lon="5.34275">
        <ele>245</ele>
        <time>2019-04-29T14:53:01Z</time>
      </trkpt>
      <trkpt lat="46.43987" lon="5.34279">
        <ele>246</ele>
        <time>2019-04-29T14:54:01Z</time>
      </trkpt>
      <trkpt lat="46.43976" lon="5.34288">
        <ele>247</ele>
        <time>2019-04-29T14:55:01Z</time>
      </trkpt>
      <trkpt lat="46.43956" lon="5.34307">
        <ele>249</ele>
        <time>2019-04-29T14:56:01Z</time>
      </trkpt>
      <trkpt lat="46.43936" lon="5.34325">
        <ele>251</ele>
        <time>2019-04-29T14:57:01Z</time>
      </trkpt>
      <trkpt lat="46.43916" lon="5.34344">
        <ele>254</ele>
        <time>2019-04-29T14:58:01Z</time>
      </trkpt>
      <trkpt lat="46.43896" lon="5.34361">
        <ele>255</ele>
        <time>2019-04-29T14:59:01Z</time>
      </trkpt>
      <trkpt lat="46.43881" lon="5.34372">
        <ele>256</ele>
        <time>2019-04-29T15:00:01Z</time>
      </trkpt>
      <trkpt lat="46.43877" lon="5.34374">
        <ele>256</ele>
        <time>2019-04-29T15:01:01Z</time>
      </trkpt>
      <trkpt lat="46.43867" lon="5.34379">
        <ele>256</ele>
        <time>2019-04-29T15:02:01Z</time>
      </trkpt>
      <trkpt lat="46.43858" lon="5.34381">
        <ele>256</ele>
        <time>2019-04-29T15:03:01Z</time>
      </trkpt>
      <trkpt lat="46.43847" lon="5.34383">
        <ele>256</ele>
        <time>2019-04-29T15:04:01Z</time>
      </trkpt>
      <trkpt lat="46.43834" lon="5.34385">
        <ele>257</ele>
        <time>2019-04-29T15:05:01Z</time>
      </trkpt>
      <trkpt lat="46.43818" lon="5.34388">
        <ele>256</ele>
        <time>2019-04-29T15:06:01Z</time>
      </trkpt>
      <trkpt lat="46.43796" lon="5.34392">
        <ele>256</ele>
        <time>2019-04-29T15:07:01Z</time>
      </trkpt>
      <trkpt lat="46.43755" lon="5.34398">
        <ele>256</ele>
        <time>2019-04-29T15:08:01Z</time>
      </trkpt>
      <trkpt lat="46.4374" lon="5.34401">
        <ele>256</ele>
        <time>2019-04-29T15:09:01Z</time>
      </trkpt>
      <trkpt lat="46.43718" lon="5.34409">
        <ele>256</ele>
        <time>2019-04-29T15:10:01Z</time>
      </trkpt>
      <trkpt lat="46.43694" lon="5.34417">
        <ele>256</ele>
        <time>2019-04-29T15:11:01Z</time>
      </trkpt>
      <trkpt lat="46.43689" lon="5.34418">
        <ele>256</ele>
        <time>2019-04-29T15:12:01Z</time>
      </trkpt>
      <trkpt lat="46.43683" lon="5.3442">
        <ele>256</ele>
        <time>2019-04-29T15:13:01Z</time>
      </trkpt>
      <trkpt lat="46.43678" lon="5.34421">
        <ele>256</ele>
        <time>2019-04-29T15:14:01Z</time>
      </trkpt>
      <trkpt lat="46.43665" lon="5.34425">
        <ele>256</ele>
        <time>2019-04-29T15:15:01Z</time>
      </trkpt>
      <trkpt lat="46.43646" lon="5.34431">
        <ele>255</ele>
        <time>2019-04-29T15:16:01Z</time>
      </trkpt>
      <trkpt lat="46.43638" lon="5.34433">
        <ele>255</ele>
        <time>2019-04-29T15:17:01Z</time>
      </trkpt>
      <trkpt lat="46.43631" lon="5.34435">
        <ele>255</ele>
        <time>2019-04-29T15:18:01Z</time>
      </trkpt>
      <trkpt lat="46.43624" lon="5.34439">
        <ele>254</ele>
        <time>2019-04-29T15:19:01Z</time>
      </trkpt>
      <trkpt lat="46.43612" lon="5.34446">
        <ele>254</ele>
        <time>2019-04-29T15:20:01Z</time>
      </trkpt>
      <trkpt lat="46.43605" lon="5.3445">
        <ele>253</ele>
        <time>2019-04-29T15:21:01Z</time>
      </trkpt>
      <trkpt lat="46.43598" lon="5.34454">
        <ele>253</ele>
        <time>2019-04-29T15:22:01Z</time>
      </trkpt>
      <trkpt lat="46.43592" lon="5.34457">
        <ele>253</ele>
        <time>2019-04-29T15:23:01Z</time>
      </trkpt>
      <trkpt lat="46.43586" lon="5.34459">
        <ele>252</ele>
        <time>2019-04-29T15:24:01Z</time>
      </trkpt>
      <trkpt lat="46.43579" lon="5.34461">
        <ele>252</ele>
        <time>2019-04-29T15:25:01Z</time>
      </trkpt>
      <trkpt lat="46.43572" lon="5.34462">
        <ele>251</ele>
        <time>2019-04-29T15:26:01Z</time>
      </trkpt>
      <trkpt lat="46.4357" lon="5.34462">
        <ele>251</ele>
        <time>2019-04-29T15:27:01Z</time>
      </trkpt>
      <trkpt lat="46.43567" lon="5.34463">
        <ele>251</ele>
        <time>2019-04-29T15:28:01Z</time>
      </trkpt>
      <trkpt lat="46.43565" lon="5.34463">
        <ele>251</ele>
        <time>2019-04-29T15:29:01Z</time>
      </trkpt>
      <trkpt lat="46.43563" lon="5.34462">
        <ele>251</ele>
        <time>2019-04-29T15:30:01Z</time>
      </trkpt>
      <trkpt lat="46.43559" lon="5.3446">
        <ele>251</ele>
        <time>2019-04-29T15:31:01Z</time>
      </trkpt>
      <trkpt lat="46.43551" lon="5.34467">
        <ele>250</ele>
        <time>2019-04-29T15:32:01Z</time>
      </trkpt>
      <trkpt lat="46.43548" lon="5.34469">
        <ele>250</ele>
        <time>2019-04-29T15:33:01Z</time>
      </trkpt>
      <trkpt lat="46.43535" lon="5.34482">
        <ele>249</ele>
        <time>2019-04-29T15:34:01Z</time>
      </trkpt>
      <trkpt lat="46.43521" lon="5.34496">
        <ele>248</ele>
        <time>2019-04-29T15:35:01Z</time>
      </trkpt>
      <trkpt lat="46.43509" lon="5.34509">
        <ele>247</ele>
        <time>2019-04-29T15:36:01Z</time>
      </trkpt>
      <trkpt lat="46.435" lon="5.34519">
        <ele>247</ele>
        <time>2019-04-29T15:37:01Z</time>
      </trkpt>
      <trkpt lat="46.43491" lon="5.34528">
        <ele>248</ele>
        <time>2019-04-29T15:38:01Z</time>
      </trkpt>
      <trkpt lat="46.43485" lon="5.34534">
        <ele>248</ele>
        <time>2019-04-29T15:39:01Z</time>
      </trkpt>
      <trkpt lat="46.43485" lon="5.34534">
        <ele>248</ele>
        <time>2019-04-29T15:40:01Z</time>
      </trkpt>
      <trkpt lat="46.43476" lon="5.34544">
        <ele>249</ele>
        <time>2019-04-29T15:41:01Z</time>
      </trkpt>
      <trkpt lat="46.43469" lon="5.34551">
        <ele>249</ele>
        <time>2019-04-29T15:42:01Z</time>
      </trkpt>
      <trkpt lat="46.43457" lon="5.34558">
        <ele>250</ele>
        <time>2019-04-29T15:43:01Z</time>
      </trkpt>
      <trkpt lat="46.43449" lon="5.34561">
        <ele>251</ele>
        <time>2019-04-29T15:44:01Z</time>
      </trkpt>
      <trkpt lat="46.4344" lon="5.3456">
        <ele>252</ele>
        <time>2019-04-29T15:45:01Z</time>
      </trkpt>
      <trkpt lat="46.43422" lon="5.34553">
        <ele>253</ele>
        <time>2019-04-29T15:46:01Z</time>
      </trkpt>
      <trkpt lat="46.43417" lon="5.34551">
        <ele>254</ele>
        <time>2019-04-29T15:47:01Z</time>
      </trkpt>
      <trkpt lat="46.43403" lon="5.34545">
        <ele>255</ele>
        <time>2019-04-29T15:48:01Z</time>
      </trkpt>
      <trkpt lat="46.43387" lon="5.34537">
        <ele>257</ele>
        <time>2019-04-29T15:49:01Z</time>
      </trkpt>
      <trkpt lat="46.43378" lon="5.34533">
        <ele>257</ele>
        <time>2019-04-29T15:50:01Z</time>
      </trkpt>
      <trkpt lat="46.43349" lon="5.3452">
        <ele>261</ele>
        <time>2019-04-29T15:51:01Z</time>
      </trkpt>
      <trkpt lat="46.43335" lon="5.34514">
        <ele>262</ele>
        <time>2019-04-29T15:52:01Z</time>
      </trkpt>
      <trkpt lat="46.43321" lon="5.34511">
        <ele>262</ele>
        <time>2019-04-29T15:53:01Z</time>
      </trkpt>
      <trkpt lat="46.43307" lon="5.3451">
        <ele>262</ele>
        <time>2019-04-29T15:54:01Z</time>
      </trkpt>
      <trkpt lat="46.4329" lon="5.34511">
        <ele>262</ele>
        <time>2019-04-29T15:55:01Z</time>
      </trkpt>
      <trkpt lat="46.43276" lon="5.34517">
        <ele>261</ele>
        <time>2019-04-29T15:56:01Z</time>
      </trkpt>
      <trkpt lat="46.4326" lon="5.34527">
        <ele>261</ele>
        <time>2019-04-29T15:57:01Z</time>
      </trkpt>
      <trkpt lat="46.43247" lon="5.34535">
        <ele>261</ele>
        <time>2019-04-29T15:58:01Z</time>
      </trkpt>
      <trkpt lat="46.43231" lon="5.3455">
        <ele>261</ele>
        <time>2019-04-29T15:59:01Z</time>
      </trkpt>
      <trkpt lat="46.43211" lon="5.34569">
        <ele>262</ele>
        <time>2019-04-29T16:00:01Z</time>
      </trkpt>
      <trkpt lat="46.43178" lon="5.34602">
        <ele>262</ele>
        <time>2019-04-29T16:01:01Z</time>
      </trkpt>
      <trkpt lat="46.43151" lon="5.34628">
        <ele>263</ele>
        <time>2019-04-29T16:02:01Z</time>
      </trkpt>
      <trkpt lat="46.43143" lon="5.34637">
        <ele>264</ele>
        <time>2019-04-29T16:03:01Z</time>
      </trkpt>
      <trkpt lat="46.43136" lon="5.34643">
        <ele>264</ele>
        <time>2019-04-29T16:04:01Z</time>
      </trkpt>
      <trkpt lat="46.43118" lon="5.34665">
        <ele>266</ele>
        <time>2019-04-29T16:05:01Z</time>
      </trkpt>
      <trkpt lat="46.4311" lon="5.34673">
        <ele>266</ele>
        <time>2019-04-29T16:06:01Z</time>
      </trkpt>
      <trkpt lat="46.43092" lon="5.3469">
        <ele>266</ele>
        <time>2019-04-29T16:07:01Z</time>
      </trkpt>
      <trkpt lat="46.43081" lon="5.347">
        <ele>267</ele>
        <time>2019-04-29T16:08:01Z</time>
      </trkpt>
      <trkpt lat="46.43069" lon="5.3471">
        <ele>267</ele>
        <time>2019-04-29T16:09:01Z</time>
      </trkpt>
      <trkpt lat="46.43062" lon="5.34714">
        <ele>267</ele>
        <time>2019-04-29T16:10:01Z</time>
      </trkpt>
      <trkpt lat="46.43057" lon="5.34717">
        <ele>267</ele>
        <time>2019-04-29T16:11:01Z</time>
      </trkpt>
      <trkpt lat="46.43043" lon="5.34723">
        <ele>267</ele>
        <time>2019-04-29T16:12:01Z</time>
      </trkpt>
      <trkpt lat="46.4303" lon="5.34729">
        <ele>267</ele>
        <time>2019-04-29T16:13:01Z</time>
      </trkpt>
      <trkpt lat="46.43023" lon="5.34732">
        <ele>267</ele>
        <time>2019-04-29T16:14:01Z</time>
      </trkpt>
      <trkpt lat="46.4301" lon="5.34736">
        <ele>268</ele>
        <time>2019-04-29T16:15:01Z</time>
      </trkpt>
      <trkpt lat="46.42989" lon="5.34743">
        <ele>268</ele>
        <time>2019-04-29T16:16:01Z</time>
      </trkpt>
      <trkpt lat="46.42963" lon="5.34751">
        <ele>269</ele>
        <time>2019-04-29T16:17:01Z</time>
      </trkpt>
      <trkpt lat="46.42942" lon="5.34758">
        <ele>270</ele>
        <time>2019-04-29T16:18:01Z</time>
      </trkpt>
      <trkpt lat="46.42925" lon="5.34762">
        <ele>271</ele>
        <time>2019-04-29T16:19:01Z</time>
      </trkpt>
      <trkpt lat="46.42908" lon="5.34767">
        <ele>272</ele>
        <time>2019-04-29T16:20:01Z</time>
      </trkpt>
      <trkpt lat="46.42883" lon="5.34774">
        <ele>275</ele>
        <time>2019-04-29T16:21:01Z</time>
      </trkpt>
      <trkpt lat="46.42866" lon="5.34779">
        <ele>276</ele>
        <time>2019-04-29T16:22:01Z</time>
      </trkpt>
      <trkpt lat="46.42847" lon="5.34786">
        <ele>278</ele>
        <time>2019-04-29T16:23:01Z</time>
      </trkpt>
      <trkpt lat="46.42831" lon="5.34792">
        <ele>279</ele>
        <time>2019-04-29T16:24:01Z</time>
      </trkpt>
      <trkpt lat="46.42816" lon="5.34796">
        <ele>280</ele>
        <time>2019-04-29T16:25:01Z</time>
      </trkpt>
      <trkpt lat="46.42786" lon="5.34805">
        <ele>280</ele>
        <time>2019-04-29T16:26:01Z</time>
      </trkpt>
      <trkpt lat="46.42766" lon="5.34812">
        <ele>280</ele>
        <time>2019-04-29T16:27:01Z</time>
      </trkpt>
      <trkpt lat="46.42738" lon="5.3482">
        <ele>281</ele>
        <time>2019-04-29T16:28:01Z</time>
      </trkpt>
      <trkpt lat="46.42713" lon="5.34828">
        <ele>283</ele>
        <time>2019-04-29T16:29:01Z</time>
      </trkpt>
      <trkpt lat="46.42688" lon="5.34836">
        <ele>285</ele>
        <time>2019-04-29T16:30:01Z</time>
      </trkpt>
      <trkpt lat="46.42661" lon="5.34844">
        <ele>287</ele>
        <time>2019-04-29T16:31:01Z</time>
      </trkpt>
      <trkpt lat="46.42634" lon="5.34852">
        <ele>288</ele>
        <time>2019-04-29T16:32:01Z</time>
      </trkpt>
      <trkpt lat="46.42633" lon="5.34853">
        <ele>288</ele>
        <time>2019-04-29T16:33:01Z</time>
      </trkpt>
      <trkpt lat="46.42605" lon="5.34861">
        <ele>289</ele>
        <time>2019-04-29T16:34:01Z</time>
      </trkpt>
      <trkpt lat="46.42583" lon="5.34869">
        <ele>291</ele>
        <time>2019-04-29T16:35:01Z</time>
      </trkpt>
      <trkpt lat="46.42563" lon="5.34876">
        <ele>291</ele>
        <time>2019-04-29T16:36:01Z</time>
      </trkpt>
      <trkpt lat="46.42543" lon="5.3488">
        <ele>291</ele>
        <time>2019-04-29T16:37:01Z</time>
      </trkpt>
      <trkpt lat="46.42542" lon="5.34881">
        <ele>292</ele>
        <time>2019-04-29T16:38:01Z</time>
      </trkpt>
      <trkpt lat="46.42534" lon="5.34883">
        <ele>292</ele>
        <time>2019-04-29T16:39:01Z</time>
      </trkpt>
      <trkpt lat="46.42516" lon="5.34889">
        <ele>292</ele>
        <time>2019-04-29T16:40:01Z</time>
      </trkpt>
      <trkpt lat="46.42507" lon="5.34891">
        <ele>292</ele>
        <time>2019-04-29T16:41:01Z</time>
      </trkpt>
      <trkpt lat="46.42491" lon="5.34897">
        <ele>292</ele>
        <time>2019-04-29T16:42:01Z</time>
      </trkpt>
      <trkpt lat="46.4247" lon="5.34904">
        <ele>292</ele>
        <time>2019-04-29T16:43:01Z</time>
      </trkpt>
      <trkpt lat="46.42453" lon="5.34909">
        <ele>291</ele>
        <time>2019-04-29T16:44:01Z</time>
      </trkpt>
      <trkpt lat="46.42432" lon="5.34916">
        <ele>291</ele>
        <time>2019-04-29T16:45:01Z</time>
      </trkpt>
      <trkpt lat="46.4242" lon="5.34919">
        <ele>290</ele>
        <time>2019-04-29T16:46:01Z</time>
      </trkpt>
      <trkpt lat="46.4241" lon="5.34922">
        <ele>290</ele>
        <time>2019-04-29T16:47:01Z</time>
      </trkpt>
      <trkpt lat="46.42394" lon="5.34928">
        <ele>289</ele>
        <time>2019-04-29T16:48:01Z</time>
      </trkpt>
      <trkpt lat="46.42377" lon="5.34934">
        <ele>289</ele>
        <time>2019-04-29T16:49:01Z</time>
      </trkpt>
      <trkpt lat="46.42363" lon="5.34941">
        <ele>289</ele>
        <time>2019-04-29T16:50:01Z</time>
      </trkpt>
      <trkpt lat="46.42339" lon="5.34948">
        <ele>289</ele>
        <time>2019-04-29T16:51:01Z</time>
      </trkpt>
      <trkpt lat="46.42339" lon="5.34948">
        <ele>289</ele>
        <time>2019-04-29T16:52:01Z</time>
      </trkpt>
      <trkpt lat="46.42341" lon="5.34963">
        <ele>289</ele>
        <time>2019-04-29T16:53:01Z</time>
      </trkpt>
      <trkpt lat="46.4234" lon="5.34971">
        <ele>289</ele>
        <time>2019-04-29T16:54:01Z</time>
      </trkpt>
      <trkpt lat="46.42337" lon="5.34992">
        <ele>290</ele>
        <time>2019-04-29T16:55:01Z</time>
      </trkpt>
      <trkpt lat="46.42335" lon="5.35006">
        <ele>290</ele>
        <time>2019-04-29T16:56:01Z</time>
      </trkpt>
      <trkpt lat="46.42332" lon="5.35027">
        <ele>291</ele>
        <time>2019-04-29T16:57:01Z</time>
      </trkpt>
      <trkpt lat="46.42331" lon="5.35033">
        <ele>292</ele>
        <time>2019-04-29T16:58:01Z</time>
      </trkpt>
      <trkpt lat="46.4233" lon="5.35043">
        <ele>292</ele>
        <time>2019-04-29T16:59:01Z</time>
      </trkpt>
      <trkpt lat="46.42329" lon="5.35054">
        <ele>293</ele>
        <time>2019-04-29T17:00:01Z</time>
      </trkpt>
      <trkpt lat="46.42327" lon="5.35066">
        <ele>293</ele>
        <time>2019-04-29T17:01:01Z</time>
      </trkpt>
      <trkpt lat="46.42312" lon="5.35155">
        <ele>298</ele>
        <time>2019-04-29T17:02:01Z</time>
      </trkpt>
      <trkpt lat="46.42307" lon="5.35192">
        <ele>299</ele>
        <time>2019-04-29T17:03:01Z</time>
      </trkpt>
      <trkpt lat="46.42305" lon="5.352">
        <ele>299</ele>
        <time>2019-04-29T17:04:01Z</time>
      </trkpt>
      <trkpt lat="46.42302" lon="5.3522">
        <ele>299</ele>
        <time>2019-04-29T17:05:01Z</time>
      </trkpt>
      <trkpt lat="46.42296" lon="5.35253">
        <ele>300</ele>
        <time>2019-04-29T17:06:01Z</time>
      </trkpt>
      <trkpt lat="46.4229" lon="5.3529">
        <ele>301</ele>
        <time>2019-04-29T17:07:01Z</time>
      </trkpt>
      <trkpt lat="46.42284" lon="5.35328">
        <ele>302</ele>
        <time>2019-04-29T17:08:01Z</time>
      </trkpt>
      <trkpt lat="46.4228" lon="5.35365">
        <ele>303</ele>
        <time>2019-04-29T17:09:01Z</time>
      </trkpt>
      <trkpt lat="46.42277" lon="5.35384">
        <ele>303</ele>
        <time>2019-04-29T17:10:01Z</time>
      </trkpt>
      <trkpt lat="46.42273" lon="5.35408">
        <ele>304</ele>
        <time>2019-04-29T17:11:01Z</time>
      </trkpt>
      <trkpt lat="46.42268" lon="5.35428">
        <ele>304</ele>
        <time>2019-04-29T17:12:01Z</time>
      </trkpt>
      <trkpt lat="46.42264" lon="5.3544">
        <ele>305</ele>
        <time>2019-04-29T17:13:01Z</time>
      </trkpt>
      <trkpt lat="46.42258" lon="5.35465">
        <ele>305</ele>
        <time>2019-04-29T17:14:01Z</time>
      </trkpt>
      <trkpt lat="46.42254" lon="5.35482">
        <ele>306</ele>
        <time>2019-04-29T17:15:01Z</time>
      </trkpt>
      <trkpt lat="46.42252" lon="5.35496">
        <ele>306</ele>
        <time>2019-04-29T17:16:01Z</time>
      </trkpt>
      <trkpt lat="46.42253" lon="5.35507">
        <ele>306</ele>
        <time>2019-04-29T17:17:01Z</time>
      </trkpt>
      <trkpt lat="46.42257" lon="5.35528">
        <ele>307</ele>
        <time>2019-04-29T17:18:01Z</time>
      </trkpt>
      <trkpt lat="46.4226" lon="5.35537">
        <ele>307</ele>
        <time>2019-04-29T17:19:01Z</time>
      </trkpt>
      <trkpt lat="46.42263" lon="5.35545">
        <ele>307</ele>
        <time>2019-04-29T17:20:01Z</time>
      </trkpt>
      <trkpt lat="46.42275" lon="5.35565">
        <ele>308</ele>
        <time>2019-04-29T17:21:01Z</time>
      </trkpt>
      <trkpt lat="46.42294" lon="5.35588">
        <ele>309</ele>
        <time>2019-04-29T17:22:01Z</time>
      </trkpt>
      <trkpt lat="46.42298" lon="5.35593">
        <ele>309</ele>
        <time>2019-04-29T17:23:01Z</time>
      </trkpt>
      <trkpt lat="46.42321" lon="5.3562">
        <ele>311</ele>
        <time>2019-04-29T17:24:01Z</time>
      </trkpt>
      <trkpt lat="46.4234" lon="5.35643">
        <ele>312</ele>
        <time>2019-04-29T17:25:01Z</time>
      </trkpt>
      <trkpt lat="46.42375" lon="5.35686">
        <ele>316</ele>
        <time>2019-04-29T17:26:01Z</time>
      </trkpt>
      <trkpt lat="46.42382" lon="5.35696">
        <ele>316</ele>
        <time>2019-04-29T17:27:01Z</time>
      </trkpt>
      <trkpt lat="46.42392" lon="5.35714">
        <ele>318</ele>
        <time>2019-04-29T17:28:01Z</time>
      </trkpt>
      <trkpt lat="46.42399" lon="5.35731">
        <ele>320</ele>
        <time>2019-04-29T17:29:01Z</time>
      </trkpt>
      <trkpt lat="46.42403" lon="5.35744">
        <ele>321</ele>
        <time>2019-04-29T17:30:01Z</time>
      </trkpt>
      <trkpt lat="46.42406" lon="5.3576">
        <ele>322</ele>
        <time>2019-04-29T17:31:01Z</time>
      </trkpt>
      <trkpt lat="46.42408" lon="5.35776">
        <ele>322</ele>
        <time>2019-04-29T17:32:01Z</time>
      </trkpt>
      <trkpt lat="46.42409" lon="5.35794">
        <ele>323</ele>
        <time>2019-04-29T17:33:01Z</time>
      </trkpt>
      <trkpt lat="46.42408" lon="5.35804">
        <ele>323</ele>
        <time>2019-04-29T17:34:01Z</time>
      </trkpt>
      <trkpt lat="46.42407" lon="5.35823">
        <ele>324</ele>
        <time>2019-04-29T17:35:01Z</time>
      </trkpt>
      <trkpt lat="46.42408" lon="5.35839">
        <ele>324</ele>
        <time>2019-04-29T17:36:01Z</time>
      </trkpt>
      <trkpt lat="46.42411" lon="5.3586">
        <ele>326</ele>
        <time>2019-04-29T17:37:01Z</time>
      </trkpt>
      <trkpt lat="46.42416" lon="5.35879">
        <ele>327</ele>
        <time>2019-04-29T17:38:01Z</time>
      </trkpt>
      <trkpt lat="46.42421" lon="5.35896">
        <ele>329</ele>
        <time>2019-04-29T17:39:01Z</time>
      </trkpt>
      <trkpt lat="46.4243" lon="5.35921">
        <ele>331</ele>
        <time>2019-04-29T17:40:01Z</time>
      </trkpt>
      <trkpt lat="46.42437" lon="5.35942">
        <ele>333</ele>
        <time>2019-04-29T17:41:01Z</time>
      </trkpt>
      <trkpt lat="46.42445" lon="5.35965">
        <ele>335</ele>
        <time>2019-04-29T17:42:01Z</time>
      </trkpt>
      <trkpt lat="46.4245" lon="5.35991">
        <ele>337</ele>
        <time>2019-04-29T17:43:01Z</time>
      </trkpt>
      <trkpt lat="46.42454" lon="5.36015">
        <ele>338</ele>
        <time>2019-04-29T17:44:01Z</time>
      </trkpt>
      <trkpt lat="46.42458" lon="5.36042">
        <ele>340</ele>
        <time>2019-04-29T17:45:01Z</time>
      </trkpt>
      <trkpt lat="46.42462" lon="5.36054">
        <ele>341</ele>
        <time>2019-04-29T17:46:01Z</time>
      </trkpt>
      <trkpt lat="46.42468" lon="5.36065">
        <ele>342</ele>
        <time>2019-04-29T17:47:01Z</time>
      </trkpt>
      <trkpt lat="46.42473" lon="5.36072">
        <ele>343</ele>
        <time>2019-04-29T17:48:01Z</time>
      </trkpt>
      <trkpt lat="46.42481" lon="5.36076">
        <ele>345</ele>
        <time>2019-04-29T17:49:01Z</time>
      </trkpt>
      <trkpt lat="46.42488" lon="5.36077">
        <ele>346</ele>
        <time>2019-04-29T17:50:01Z</time>
      </trkpt>
      <trkpt lat="46.42494" lon="5.36075">
        <ele>347</ele>
        <time>2019-04-29T17:51:01Z</time>
      </trkpt>
      <trkpt lat="46.42501" lon="5.3607">
        <ele>347</ele>
        <time>2019-04-29T17:52:01Z</time>
      </trkpt>
      <trkpt lat="46.42507" lon="5.36064">
        <ele>348</ele>
        <time>2019-04-29T17:53:01Z</time>
      </trkpt>
      <trkpt lat="46.42514" lon="5.36053">
        <ele>348</ele>
        <time>2019-04-29T17:54:01Z</time>
      </trkpt>
      <trkpt lat="46.42519" lon="5.36042">
        <ele>348</ele>
        <time>2019-04-29T17:55:01Z</time>
      </trkpt>
      <trkpt lat="46.42526" lon="5.36028">
        <ele>348</ele>
        <time>2019-04-29T17:56:01Z</time>
      </trkpt>
      <trkpt lat="46.42534" lon="5.36014">
        <ele>348</ele>
        <time>2019-04-29T17:57:01Z</time>
      </trkpt>
      <trkpt lat="46.42544" lon="5.36">
        <ele>348</ele>
        <time>2019-04-29T17:58:01Z</time>
      </trkpt>
      <trkpt lat="46.42552" lon="5.35992">
        <ele>349</ele>
        <time>2019-04-29T17:59:01Z</time>
      </trkpt>
      <trkpt lat="46.42559" lon="5.35986">
        <ele>349</ele>
        <time>2019-04-29T18:00:01Z</time>
      </trkpt>
      <trkpt lat="46.42566" lon="5.35983">
        <ele>349</ele>
        <time>2019-04-29T18:01:01Z</time>
      </trkpt>
      <trkpt lat="46.42574" lon="5.3598">
        <ele>350</ele>
        <time>2019-04-29T18:02:01Z</time>
      </trkpt>
      <trkpt lat="46.42581" lon="5.35981">
        <ele>350</ele>
        <time>2019-04-29T18:03:01Z</time>
      </trkpt>
      <trkpt lat="46.42591" lon="5.35981">
        <ele>351</ele>
        <time>2019-04-29T18:04:01Z</time>
      </trkpt>
      <trkpt lat="46.42599" lon="5.35981">
        <ele>351</ele>
        <time>2019-04-29T18:05:01Z</time>
      </trkpt>
      <trkpt lat="46.42615" lon="5.35982">
        <ele>352</ele>
        <time>2019-04-29T18:06:01Z</time>
      </trkpt>
      <trkpt lat="46.42626" lon="5.35982">
        <ele>352</ele>
        <time>2019-04-29T18:07:01Z</time>
      </trkpt>
      <trkpt lat="46.4263" lon="5.35982">
        <ele>352</ele>
        <time>2019-04-29T18:08:01Z</time>
      </trkpt>
      <trkpt lat="46.42638" lon="5.35983">
        <ele>353</ele>
        <time>2019-04-29T18:09:01Z</time>
      </trkpt>
      <trkpt lat="46.42652" lon="5.35986">
        <ele>353</ele>
        <time>2019-04-29T18:10:01Z</time>
      </trkpt>
      <trkpt lat="46.42666" lon="5.35991">
        <ele>354</ele>
        <time>2019-04-29T18:11:01Z</time>
      </trkpt>
      <trkpt lat="46.4268" lon="5.35998">
        <ele>355</ele>
        <time>2019-04-29T18:12:01Z</time>
      </trkpt>
      <trkpt lat="46.42695" lon="5.36006">
        <ele>356</ele>
        <time>2019-04-29T18:13:01Z</time>
      </trkpt>
      <trkpt lat="46.4271" lon="5.36016">
        <ele>357</ele>
        <time>2019-04-29T18:14:01Z</time>
      </trkpt>
      <trkpt lat="46.42724" lon="5.36025">
        <ele>358</ele>
        <time>2019-04-29T18:15:01Z</time>
      </trkpt>
      <trkpt lat="46.42748" lon="5.36042">
        <ele>360</ele>
        <time>2019-04-29T18:16:01Z</time>
      </trkpt>
      <trkpt lat="46.42765" lon="5.36056">
        <ele>361</ele>
        <time>2019-04-29T18:17:01Z</time>
      </trkpt>
      <trkpt lat="46.42784" lon="5.3607">
        <ele>362</ele>
        <time>2019-04-29T18:18:01Z</time>
      </trkpt>
      <trkpt lat="46.42806" lon="5.36088">
        <ele>362</ele>
        <time>2019-04-29T18:19:01Z</time>
      </trkpt>
      <trkpt lat="46.4283" lon="5.36109">
        <ele>364</ele>
        <time>2019-04-29T18:20:01Z</time>
      </trkpt>
      <trkpt lat="46.42857" lon="5.36135">
        <ele>365</ele>
        <time>2019-04-29T18:21:01Z</time>
      </trkpt>
      <trkpt lat="46.42869" lon="5.36147">
        <ele>366</ele>
        <time>2019-04-29T18:22:01Z</time>
      </trkpt>
      <trkpt lat="46.42882" lon="5.36162">
        <ele>366</ele>
        <time>2019-04-29T18:23:01Z</time>
      </trkpt>
      <trkpt lat="46.42891" lon="5.36172">
        <ele>367</ele>
        <time>2019-04-29T18:24:01Z</time>
      </trkpt>
      <trkpt lat="46.42899" lon="5.36185">
        <ele>367</ele>
        <time>2019-04-29T18:25:01Z</time>
      </trkpt>
      <trkpt lat="46.42904" lon="5.36196">
        <ele>368</ele>
        <time>2019-04-29T18:26:01Z</time>
      </trkpt>
      <trkpt lat="46.42908" lon="5.3621">
        <ele>369</ele>
        <time>2019-04-29T18:27:01Z</time>
      </trkpt>
      <trkpt lat="46.4291" lon="5.36225">
        <ele>370</ele>
        <time>2019-04-29T18:28:01Z</time>
      </trkpt>
      <trkpt lat="46.42914" lon="5.36271">
        <ele>373</ele>
        <time>2019-04-29T18:29:01Z</time>
      </trkpt>
      <trkpt lat="46.42916" lon="5.36294">
        <ele>375</ele>
        <time>2019-04-29T18:30:01Z</time>
      </trkpt>
      <trkpt lat="46.42917" lon="5.36315">
        <ele>376</ele>
        <time>2019-04-29T18:31:01Z</time>
      </trkpt>
      <trkpt lat="46.42919" lon="5.36332">
        <ele>377</ele>
        <time>2019-04-29T18:32:01Z</time>
      </trkpt>
      <trkpt lat="46.42921" lon="5.36341">
        <ele>377</ele>
        <time>2019-04-29T18:33:01Z</time>
      </trkpt>
      <trkpt lat="46.42925" lon="5.36353">
        <ele>377</ele>
        <time>2019-04-29T18:34:01Z</time>
      </trkpt>
      <trkpt lat="46.42931" lon="5.36367">
        <ele>378</ele>
        <time>2019-04-29T18:35:01Z</time>
      </trkpt>
      <trkpt lat="46.42941" lon="5.36384">
        <ele>378</ele>
        <time>2019-04-29T18:36:01Z</time>
      </trkpt>
      <trkpt lat="46.42952" lon="5.36397">
        <ele>379</ele>
        <time>2019-04-29T18:37:01Z</time>
      </trkpt>
      <trkpt lat="46.42964" lon="5.36407">
        <ele>380</ele>
        <time>2019-04-29T18:38:01Z</time>
      </trkpt>
      <trkpt lat="46.42977" lon="5.3641">
        <ele>381</ele>
        <time>2019-04-29T18:39:01Z</time>
      </trkpt>
      <trkpt lat="46.42987" lon="5.36413">
        <ele>382</ele>
        <time>2019-04-29T18:40:01Z</time>
      </trkpt>
      <trkpt lat="46.43007" lon="5.36416">
        <ele>383</ele>
        <time>2019-04-29T18:41:01Z</time>
      </trkpt>
      <trkpt lat="46.43014" lon="5.36416">
        <ele>384</ele>
        <time>2019-04-29T18:42:01Z</time>
      </trkpt>
      <trkpt lat="46.43024" lon="5.36417">
        <ele>384</ele>
        <time>2019-04-29T18:43:01Z</time>
      </trkpt>
      <trkpt lat="46.43043" lon="5.3642">
        <ele>385</ele>
        <time>2019-04-29T18:44:01Z</time>
      </trkpt>
      <trkpt lat="46.43058" lon="5.36425">
        <ele>386</ele>
        <time>2019-04-29T18:45:01Z</time>
      </trkpt>
      <trkpt lat="46.43064" lon="5.36426">
        <ele>387</ele>
        <time>2019-04-29T18:46:01Z</time>
      </trkpt>
      <trkpt lat="46.43082" lon="5.36431">
        <ele>387</ele>
        <time>2019-04-29T18:47:01Z</time>
      </trkpt>
      <trkpt lat="46.43093" lon="5.36437">
        <ele>385</ele>
        <time>2019-04-29T18:48:01Z</time>
      </trkpt>
      <trkpt lat="46.43097" lon="5.3644">
        <ele>385</ele>
        <time>2019-04-29T18:49:01Z</time>
      </trkpt>
      <trkpt lat="46.43101" lon="5.36443">
        <ele>384</ele>
        <time>2019-04-29T18:50:01Z</time>
      </trkpt>
      <trkpt lat="46.43103" lon="5.36448">
        <ele>383</ele>
        <time>2019-04-29T18:51:01Z</time>
      </trkpt>
      <trkpt lat="46.43106" lon="5.36454">
        <ele>383</ele>
        <time>2019-04-29T18:52:01Z</time>
      </trkpt>
      <trkpt lat="46.43108" lon="5.36461">
        <ele>383</ele>
        <time>2019-04-29T18:53:01Z</time>
      </trkpt>
      <trkpt lat="46.4311" lon="5.36471">
        <ele>383</ele>
        <time>2019-04-29T18:54:01Z</time>
      </trkpt>
      <trkpt lat="46.43111" lon="5.36478">
        <ele>383</ele>
        <time>2019-04-29T18:55:01Z</time>
      </trkpt>
      <trkpt lat="46.43112" lon="5.3649">
        <ele>383</ele>
        <time>2019-04-29T18:56:01Z</time>
      </trkpt>
      <trkpt lat="46.43111" lon="5.36502">
        <ele>384</ele>
        <time>2019-04-29T18:57:01Z</time>
      </trkpt>
      <trkpt lat="46.43107" lon="5.36516">
        <ele>386</ele>
        <time>2019-04-29T18:58:01Z</time>
      </trkpt>
      <trkpt lat="46.431" lon="5.36539">
        <ele>390</ele>
        <time>2019-04-29T18:59:01Z</time>
      </trkpt>
      <trkpt lat="46.43098" lon="5.36559">
        <ele>393</ele>
        <time>2019-04-29T19:00:01Z</time>
      </trkpt>
      <trkpt lat="46.43098" lon="5.36576">
        <ele>395</ele>
        <time>2019-04-29T19:01:01Z</time>
      </trkpt>
      <trkpt lat="46.43101" lon="5.3659">
        <ele>396</ele>
        <time>2019-04-29T19:02:01Z</time>
      </trkpt>
      <trkpt lat="46.43107" lon="5.36602">
        <ele>397</ele>
        <time>2019-04-29T19:03:01Z</time>
      </trkpt>
      <trkpt lat="46.43114" lon="5.36611">
        <ele>397</ele>
        <time>2019-04-29T19:04:01Z</time>
      </trkpt>
      <trkpt lat="46.43124" lon="5.36624">
        <ele>397</ele>
        <time>2019-04-29T19:05:01Z</time>
      </trkpt>
      <trkpt lat="46.43137" lon="5.36636">
        <ele>397</ele>
        <time>2019-04-29T19:06:01Z</time>
      </trkpt>
      <trkpt lat="46.43148" lon="5.36646">
        <ele>397</ele>
        <time>2019-04-29T19:07:01Z</time>
      </trkpt>
      <trkpt lat="46.43159" lon="5.36657">
        <ele>397</ele>
        <time>2019-04-29T19:08:01Z</time>
      </trkpt>
      <trkpt lat="46.43167" lon="5.3667">
        <ele>398</ele>
        <time>2019-04-29T19:09:01Z</time>
      </trkpt>
      <trkpt lat="46.43169" lon="5.36676">
        <ele>398</ele>
        <time>2019-04-29T19:10:01Z</time>
      </trkpt>
      <trkpt lat="46.43171" lon="5.36685">
        <ele>398</ele>
        <time>2019-04-29T19:11:01Z</time>
      </trkpt>
      <trkpt lat="46.43174" lon="5.36698">
        <ele>398</ele>
        <time>2019-04-29T19:12:01Z</time>
      </trkpt>
      <trkpt lat="46.43175" lon="5.36711">
        <ele>399</ele>
        <time>2019-04-29T19:13:01Z</time>
      </trkpt>
      <trkpt lat="46.43174" lon="5.36722">
        <ele>400</ele>
        <time>2019-04-29T19:14:01Z</time>
      </trkpt>
      <trkpt lat="46.43171" lon="5.36735">
        <ele>401</ele>
        <time>2019-04-29T19:15:01Z</time>
      </trkpt>
      <trkpt lat="46.43166" lon="5.36754">
        <ele>404</ele>
        <time>2019-04-29T19:16:01Z</time>
      </trkpt>
      <trkpt lat="46.43164" lon="5.36762">
        <ele>405</ele>
        <time>2019-04-29T19:17:01Z</time>
      </trkpt>
      <trkpt lat="46.43163" lon="5.36769">
        <ele>406</ele>
        <time>2019-04-29T19:18:01Z</time>
      </trkpt>
      <trkpt lat="46.43163" lon="5.36776">
        <ele>407</ele>
        <time>2019-04-29T19:19:01Z</time>
      </trkpt>
      <trkpt lat="46.43163" lon="5.36783">
        <ele>408</ele>
        <time>2019-04-29T19:20:01Z</time>
      </trkpt>
      <trkpt lat="46.43164" lon="5.36789">
        <ele>408</ele>
        <time>2019-04-29T19:21:01Z</time>
      </trkpt>
      <trkpt lat="46.43165" lon="5.36794">
        <ele>409</ele>
        <time>2019-04-29T19:22:01Z</time>
      </trkpt>
      <trkpt lat="46.43168" lon="5.36799">
        <ele>409</ele>
        <time>2019-04-29T19:23:01Z</time>
      </trkpt>
      <trkpt lat="46.43171" lon="5.36806">
        <ele>409</ele>
        <time>2019-04-29T19:24:01Z</time>
      </trkpt>
      <trkpt lat="46.43178" lon="5.36814">
        <ele>409</ele>
        <time>2019-04-29T19:25:01Z</time>
      </trkpt>
      <trkpt lat="46.43189" lon="5.36826">
        <ele>409</ele>
        <time>2019-04-29T19:26:01Z</time>
      </trkpt>
      <trkpt lat="46.43204" lon="5.36839">
        <ele>409</ele>
        <time>2019-04-29T19:27:01Z</time>
      </trkpt>
      <trkpt lat="46.43223" lon="5.36857">
        <ele>411</ele>
        <time>2019-04-29T19:28:01Z</time>
      </trkpt>
      <trkpt lat="46.43232" lon="5.36863">
        <ele>411</ele>
        <time>2019-04-29T19:29:01Z</time>
      </trkpt>
      <trkpt lat="46.43245" lon="5.36869">
        <ele>410</ele>
        <time>2019-04-29T19:30:01Z</time>
      </trkpt>
      <trkpt lat="46.4326" lon="5.36875">
        <ele>410</ele>
        <time>2019-04-29T19:31:01Z</time>
      </trkpt>
      <trkpt lat="46.4328" lon="5.36881">
        <ele>410</ele>
        <time>2019-04-29T19:32:01Z</time>
      </trkpt>
      <trkpt lat="46.43299" lon="5.3689">
        <ele>410</ele>
        <time>2019-04-29T19:33:01Z</time>
      </trkpt>
      <trkpt lat="46.43312" lon="5.36897">
        <ele>410</ele>
        <time>2019-04-29T19:34:01Z</time>
      </trkpt>
      <trkpt lat="46.43317" lon="5.36901">
        <ele>410</ele>
        <time>2019-04-29T19:35:01Z</time>
      </trkpt>
      <trkpt lat="46.43321" lon="5.36905">
        <ele>410</ele>
        <time>2019-04-29T19:36:01Z</time>
      </trkpt>
      <trkpt lat="46.43323" lon="5.36908">
        <ele>410</ele>
        <time>2019-04-29T19:37:01Z</time>
      </trkpt>
      <trkpt lat="46.43325" lon="5.36912">
        <ele>410</ele>
        <time>2019-04-29T19:38:01Z</time>
      </trkpt>
      <trkpt lat="46.43326" lon="5.36915">
        <ele>411</ele>
        <time>2019-04-29T19:39:01Z</time>
      </trkpt>
      <trkpt lat="46.43327" lon="5.36919">
        <ele>411</ele>
        <time>2019-04-29T19:40:01Z</time>
      </trkpt>
      <trkpt lat="46.43327" lon="5.36924">
        <ele>412</ele>
        <time>2019-04-29T19:41:01Z</time>
      </trkpt>
      <trkpt lat="46.43326" lon="5.36928">
        <ele>412</ele>
        <time>2019-04-29T19:42:01Z</time>
      </trkpt>
      <trkpt lat="46.43325" lon="5.36931">
        <ele>413</ele>
        <time>2019-04-29T19:43:01Z</time>
      </trkpt>
      <trkpt lat="46.43323" lon="5.36936">
        <ele>414</ele>
        <time>2019-04-29T19:44:01Z</time>
      </trkpt>
      <trkpt lat="46.43318" lon="5.36939">
        <ele>415</ele>
        <time>2019-04-29T19:45:01Z</time>
      </trkpt>
      <trkpt lat="46.43315" lon="5.3694">
        <ele>416</ele>
        <time>2019-04-29T19:46:01Z</time>
      </trkpt>
      <trkpt lat="46.4331" lon="5.36941">
        <ele>416</ele>
        <time>2019-04-29T19:47:01Z</time>
      </trkpt>
      <trkpt lat="46.43299" lon="5.36941">
        <ele>418</ele>
        <time>2019-04-29T19:48:01Z</time>
      </trkpt>
      <trkpt lat="46.43272" lon="5.36936">
        <ele>421</ele>
        <time>2019-04-29T19:49:01Z</time>
      </trkpt>
      <trkpt lat="46.43233" lon="5.36923">
        <ele>424</ele>
        <time>2019-04-29T19:50:01Z</time>
      </trkpt>
      <trkpt lat="46.43208" lon="5.36914">
        <ele>425</ele>
        <time>2019-04-29T19:51:01Z</time>
      </trkpt>
      <trkpt lat="46.4318" lon="5.36906">
        <ele>428</ele>
        <time>2019-04-29T19:52:01Z</time>
      </trkpt>
      <trkpt lat="46.43165" lon="5.36897">
        <ele>428</ele>
        <time>2019-04-29T19:53:01Z</time>
      </trkpt>
      <trkpt lat="46.43153" lon="5.3689">
        <ele>428</ele>
        <time>2019-04-29T19:54:01Z</time>
      </trkpt>
      <trkpt lat="46.4314" lon="5.36882">
        <ele>429</ele>
        <time>2019-04-29T19:55:01Z</time>
      </trkpt>
      <trkpt lat="46.43132" lon="5.36876">
        <ele>429</ele>
        <time>2019-04-29T19:56:01Z</time>
      </trkpt>
      <trkpt lat="46.43123" lon="5.36864">
        <ele>428</ele>
        <time>2019-04-29T19:57:01Z</time>
      </trkpt>
      <trkpt lat="46.43114" lon="5.36853">
        <ele>427</ele>
        <time>2019-04-29T19:58:01Z</time>
      </trkpt>
      <trkpt lat="46.43103" lon="5.36842">
        <ele>428</ele>
        <time>2019-04-29T19:59:01Z</time>
      </trkpt>
      <trkpt lat="46.43094" lon="5.36835">
        <ele>428</ele>
        <time>2019-04-29T20:00:01Z</time>
      </trkpt>
      <trkpt lat="46.43084" lon="5.3683">
        <ele>429</ele>
        <time>2019-04-29T20:01:01Z</time>
      </trkpt>
      <trkpt lat="46.43073" lon="5.36826">
        <ele>429</ele>
        <time>2019-04-29T20:02:01Z</time>
      </trkpt>
      <trkpt lat="46.43061" lon="5.36824">
        <ele>429</ele>
        <time>2019-04-29T20:03:01Z</time>
      </trkpt>
      <trkpt lat="46.4305" lon="5.36825">
        <ele>430</ele>
        <time>2019-04-29T20:04:01Z</time>
      </trkpt>
      <trkpt lat="46.43039" lon="5.36825">
        <ele>430</ele>
        <time>2019-04-29T20:05:01Z</time>
      </trkpt>
      <trkpt lat="46.43027" lon="5.36826">
        <ele>431</ele>
        <time>2019-04-29T20:06:01Z</time>
      </trkpt>
      <trkpt lat="46.43013" lon="5.36829">
        <ele>432</ele>
        <time>2019-04-29T20:07:01Z</time>
      </trkpt>
      <trkpt lat="46.43" lon="5.36832">
        <ele>434</ele>
        <time>2019-04-29T20:08:01Z</time>
      </trkpt>
      <trkpt lat="46.42988" lon="5.36835">
        <ele>435</ele>
        <time>2019-04-29T20:09:01Z</time>
      </trkpt>
      <trkpt lat="46.42975" lon="5.36838">
        <ele>436</ele>
        <time>2019-04-29T20:10:01Z</time>
      </trkpt>
      <trkpt lat="46.42961" lon="5.3684">
        <ele>438</ele>
        <time>2019-04-29T20:11:01Z</time>
      </trkpt>
      <trkpt lat="46.42919" lon="5.36845">
        <ele>441</ele>
        <time>2019-04-29T20:12:01Z</time>
      </trkpt>
      <trkpt lat="46.42905" lon="5.36848">
        <ele>441</ele>
        <time>2019-04-29T20:13:01Z</time>
      </trkpt>
      <trkpt lat="46.42887" lon="5.36854">
        <ele>441</ele>
        <time>2019-04-29T20:14:01Z</time>
      </trkpt>
      <trkpt lat="46.4287" lon="5.3686">
        <ele>442</ele>
        <time>2019-04-29T20:15:01Z</time>
      </trkpt>
      <trkpt lat="46.42853" lon="5.36867">
        <ele>443</ele>
        <time>2019-04-29T20:16:01Z</time>
      </trkpt>
      <trkpt lat="46.42832" lon="5.36874">
        <ele>444</ele>
        <time>2019-04-29T20:17:01Z</time>
      </trkpt>
      <trkpt lat="46.42812" lon="5.36878">
        <ele>445</ele>
        <time>2019-04-29T20:18:01Z</time>
      </trkpt>
      <trkpt lat="46.42798" lon="5.3688">
        <ele>445</ele>
        <time>2019-04-29T20:19:01Z</time>
      </trkpt>
      <trkpt lat="46.42776" lon="5.36885">
        <ele>446</ele>
        <time>2019-04-29T20:20:01Z</time>
      </trkpt>
      <trkpt lat="46.42763" lon="5.36889">
        <ele>447</ele>
        <time>2019-04-29T20:21:01Z</time>
      </trkpt>
      <trkpt lat="46.4275" lon="5.36895">
        <ele>449</ele>
        <time>2019-04-29T20:22:01Z</time>
      </trkpt>
      <trkpt lat="46.42738" lon="5.36901">
        <ele>449</ele>
        <time>2019-04-29T20:23:01Z</time>
      </trkpt>
      <trkpt lat="46.42719" lon="5.36911">
        <ele>449</ele>
        <time>2019-04-29T20:24:01Z</time>
      </trkpt>
      <trkpt lat="46.42705" lon="5.36918">
        <ele>449</ele>
        <time>2019-04-29T20:25:01Z</time>
      </trkpt>
      <trkpt lat="46.4269" lon="5.36926">
        <ele>449</ele>
        <time>2019-04-29T20:26:01Z</time>
      </trkpt>
      <trkpt lat="46.42682" lon="5.36937">
        <ele>450</ele>
        <time>2019-04-29T20:27:01Z</time>
      </trkpt>
      <trkpt lat="46.4268" lon="5.36948">
        <ele>451</ele>
        <time>2019-04-29T20:28:01Z</time>
      </trkpt>
      <trkpt lat="46.42682" lon="5.36957">
        <ele>453</ele>
        <time>2019-04-29T20:29:01Z</time>
      </trkpt>
      <trkpt lat="46.42682" lon="5.36959">
        <ele>454</ele>
        <time>2019-04-29T20:30:01Z</time>
      </trkpt>
      <trkpt lat="46.42687" lon="5.36967">
        <ele>456</ele>
        <time>2019-04-29T20:31:01Z</time>
      </trkpt>
      <trkpt lat="46.42693" lon="5.36971">
        <ele>458</ele>
        <time>2019-04-29T20:32:01Z</time>
      </trkpt>
      <trkpt lat="46.427" lon="5.36969">
        <ele>459</ele>
        <time>2019-04-29T20:33:01Z</time>
      </trkpt>
      <trkpt lat="46.42708" lon="5.36962">
        <ele>458</ele>
        <time>2019-04-29T20:34:01Z</time>
      </trkpt>
      <trkpt lat="46.42714" lon="5.36956">
        <ele>458</ele>
        <time>2019-04-29T20:35:01Z</time>
      </trkpt>
      <trkpt lat="46.42722" lon="5.3695">
        <ele>458</ele>
        <time>2019-04-29T20:36:01Z</time>
      </trkpt>
      <trkpt lat="46.42734" lon="5.36944">
        <ele>459</ele>
        <time>2019-04-29T20:37:01Z</time>
      </trkpt>
      <trkpt lat="46.42747" lon="5.36941">
        <ele>460</ele>
        <time>2019-04-29T20:38:01Z</time>
      </trkpt>
      <trkpt lat="46.42765" lon="5.36937">
        <ele>459</ele>
        <time>2019-04-29T20:39:01Z</time>
      </trkpt>
      <trkpt lat="46.42781" lon="5.36934">
        <ele>459</ele>
        <time>2019-04-29T20:40:01Z</time>
      </trkpt>
      <trkpt lat="46.42796" lon="5.36935">
        <ele>459</ele>
        <time>2019-04-29T20:41:01Z</time>
      </trkpt>
      <trkpt lat="46.42811" lon="5.36938">
        <ele>460</ele>
        <time>2019-04-29T20:42:01Z</time>
      </trkpt>
      <trkpt lat="46.42825" lon="5.36941">
        <ele>461</ele>
        <time>2019-04-29T20:43:01Z</time>
      </trkpt>
      <trkpt lat="46.42841" lon="5.36947">
        <ele>462</ele>
        <time>2019-04-29T20:44:01Z</time>
      </trkpt>
      <trkpt lat="46.42868" lon="5.36957">
        <ele>464</ele>
        <time>2019-04-29T20:45:01Z</time>
      </trkpt>
      <trkpt lat="46.4289" lon="5.36965">
        <ele>465</ele>
        <time>2019-04-29T20:46:01Z</time>
      </trkpt>
      <trkpt lat="46.42903" lon="5.36968">
        <ele>465</ele>
        <time>2019-04-29T20:47:01Z</time>
      </trkpt>
      <trkpt lat="46.42916" lon="5.36973">
        <ele>465</ele>
        <time>2019-04-29T20:48:01Z</time>
      </trkpt>
      <trkpt lat="46.42937" lon="5.36981">
        <ele>465</ele>
        <time>2019-04-29T20:49:01Z</time>
      </trkpt>
      <trkpt lat="46.42955" lon="5.36989">
        <ele>466</ele>
        <time>2019-04-29T20:50:01Z</time>
      </trkpt>
      <trkpt lat="46.42967" lon="5.36995">
        <ele>466</ele>
        <time>2019-04-29T20:51:01Z</time>
      </trkpt>
      <trkpt lat="46.42984" lon="5.37005">
        <ele>467</ele>
        <time>2019-04-29T20:52:01Z</time>
      </trkpt>
      <trkpt lat="46.43" lon="5.37016">
        <ele>468</ele>
        <time>2019-04-29T20:53:01Z</time>
      </trkpt>
      <trkpt lat="46.43016" lon="5.37027">
        <ele>469</ele>
        <time>2019-04-29T20:54:01Z</time>
      </trkpt>
      <trkpt lat="46.43031" lon="5.37038">
        <ele>471</ele>
        <time>2019-04-29T20:55:01Z</time>
      </trkpt>
      <trkpt lat="46.4304" lon="5.37046">
        <ele>472</ele>
        <time>2019-04-29T20:56:01Z</time>
      </trkpt>
      <trkpt lat="46.43052" lon="5.37058">
        <ele>473</ele>
        <time>2019-04-29T20:57:01Z</time>
      </trkpt>
      <trkpt lat="46.43068" lon="5.37076">
        <ele>476</ele>
        <time>2019-04-29T20:58:01Z</time>
      </trkpt>
      <trkpt lat="46.43083" lon="5.37094">
        <ele>479</ele>
        <time>2019-04-29T20:59:01Z</time>
      </trkpt>
      <trkpt lat="46.43096" lon="5.37109">
        <ele>482</ele>
        <time>2019-04-29T21:00:01Z</time>
      </trkpt>
      <trkpt lat="46.43108" lon="5.37123">
        <ele>484</ele>
        <time>2019-04-29T21:01:01Z</time>
      </trkpt>
      <trkpt lat="46.43123" lon="5.3714">
        <ele>486</ele>
        <time>2019-04-29T21:02:01Z</time>
      </trkpt>
      <trkpt lat="46.43145" lon="5.37164">
        <ele>488</ele>
        <time>2019-04-29T21:03:01Z</time>
      </trkpt>
      <trkpt lat="46.4316" lon="5.37178">
        <ele>490</ele>
        <time>2019-04-29T21:04:01Z</time>
      </trkpt>
      <trkpt lat="46.43173" lon="5.37185">
        <ele>490</ele>
        <time>2019-04-29T21:05:01Z</time>
      </trkpt>
      <trkpt lat="46.43186" lon="5.37192">
        <ele>490</ele>
        <time>2019-04-29T21:06:01Z</time>
      </trkpt>
      <trkpt lat="46.43198" lon="5.37199">
        <ele>490</ele>
        <time>2019-04-29T21:07:01Z</time>
      </trkpt>
      <trkpt lat="46.43209" lon="5.37206">
        <ele>490</ele>
        <time>2019-04-29T21:08:01Z</time>
      </trkpt>
      <trkpt lat="46.43221" lon="5.37213">
        <ele>490</ele>
        <time>2019-04-29T21:09:01Z</time>
      </trkpt>
      <trkpt lat="46.43234" lon="5.37224">
        <ele>490</ele>
        <time>2019-04-29T21:10:01Z</time>
      </trkpt>
      <trkpt lat="46.43244" lon="5.37236">
        <ele>491</ele>
        <time>2019-04-29T21:11:01Z</time>
      </trkpt>
      <trkpt lat="46.43256" lon="5.37251">
        <ele>492</ele>
        <time>2019-04-29T21:12:01Z</time>
      </trkpt>
      <trkpt lat="46.43267" lon="5.37267">
        <ele>493</ele>
        <time>2019-04-29T21:13:01Z</time>
      </trkpt>
      <trkpt lat="46.43289" lon="5.37305">
        <ele>498</ele>
        <time>2019-04-29T21:14:01Z</time>
      </trkpt>
      <trkpt lat="46.43294" lon="5.37314">
        <ele>499</ele>
        <time>2019-04-29T21:15:01Z</time>
      </trkpt>
      <trkpt lat="46.43309" lon="5.3735">
        <ele>504</ele>
        <time>2019-04-29T21:16:01Z</time>
      </trkpt>
      <trkpt lat="46.43314" lon="5.37362">
        <ele>506</ele>
        <time>2019-04-29T21:17:01Z</time>
      </trkpt>
      <trkpt lat="46.43321" lon="5.37368">
        <ele>506</ele>
        <time>2019-04-29T21:18:01Z</time>
      </trkpt>
      <trkpt lat="46.43324" lon="5.37369">
        <ele>506</ele>
        <time>2019-04-29T21:19:01Z</time>
      </trkpt>
      <trkpt lat="46.43326" lon="5.37371">
        <ele>506</ele>
        <time>2019-04-29T21:20:01Z</time>
      </trkpt>
      <trkpt lat="46.43328" lon="5.37371">
        <ele>506</ele>
        <time>2019-04-29T21:21:01Z</time>
      </trkpt>
      <trkpt lat="46.4333" lon="5.3737">
        <ele>505</ele>
        <time>2019-04-29T21:22:01Z</time>
      </trkpt>
      <trkpt lat="46.4334" lon="5.37366">
        <ele>504</ele>
        <time>2019-04-29T21:23:01Z</time>
      </trkpt>
      <trkpt lat="46.43353" lon="5.37362">
        <ele>504</ele>
        <time>2019-04-29T21:24:01Z</time>
      </trkpt>
      <trkpt lat="46.43369" lon="5.37357">
        <ele>504</ele>
        <time>2019-04-29T21:25:01Z</time>
      </trkpt>
      <trkpt lat="46.43385" lon="5.37352">
        <ele>504</ele>
        <time>2019-04-29T21:26:01Z</time>
      </trkpt>
      <trkpt lat="46.43418" lon="5.37337">
        <ele>501</ele>
        <time>2019-04-29T21:27:01Z</time>
      </trkpt>
      <trkpt lat="46.43454" lon="5.37323">
        <ele>500</ele>
        <time>2019-04-29T21:28:01Z</time>
      </trkpt>
      <trkpt lat="46.43466" lon="5.3732">
        <ele>501</ele>
        <time>2019-04-29T21:29:01Z</time>
      </trkpt>
      <trkpt lat="46.43486" lon="5.37322">
        <ele>504</ele>
        <time>2019-04-29T21:30:01Z</time>
      </trkpt>
      <trkpt lat="46.43499" lon="5.37324">
        <ele>507</ele>
        <time>2019-04-29T21:31:01Z</time>
      </trkpt>
      <trkpt lat="46.43511" lon="5.37325">
        <ele>508</ele>
        <time>2019-04-29T21:32:01Z</time>
      </trkpt>
      <trkpt lat="46.43531" lon="5.37328">
        <ele>509</ele>
        <time>2019-04-29T21:33:01Z</time>
      </trkpt>
      <trkpt lat="46.43543" lon="5.37328">
        <ele>509</ele>
        <time>2019-04-29T21:34:01Z</time>
      </trkpt>
      <trkpt lat="46.4356" lon="5.37329">
        <ele>509</ele>
        <time>2019-04-29T21:35:01Z</time>
      </trkpt>
      <trkpt lat="46.43608" lon="5.3733">
        <ele>509</ele>
        <time>2019-04-29T21:36:01Z</time>
      </trkpt>
      <trkpt lat="46.43624" lon="5.37333">
        <ele>509</ele>
        <time>2019-04-29T21:37:01Z</time>
      </trkpt>
      <trkpt lat="46.43637" lon="5.37337">
        <ele>510</ele>
        <time>2019-04-29T21:38:01Z</time>
      </trkpt>
      <trkpt lat="46.43655" lon="5.37346">
        <ele>512</ele>
        <time>2019-04-29T21:39:01Z</time>
      </trkpt>
      <trkpt lat="46.43669" lon="5.37352">
        <ele>513</ele>
        <time>2019-04-29T21:40:01Z</time>
      </trkpt>
      <trkpt lat="46.43696" lon="5.37365">
        <ele>515</ele>
        <time>2019-04-29T21:41:01Z</time>
      </trkpt>
      <trkpt lat="46.43737" lon="5.37383">
        <ele>516</ele>
        <time>2019-04-29T21:42:01Z</time>
      </trkpt>
      <trkpt lat="46.43753" lon="5.37392">
        <ele>517</ele>
        <time>2019-04-29T21:43:01Z</time>
      </trkpt>
      <trkpt lat="46.43777" lon="5.3741">
        <ele>518</ele>
        <time>2019-04-29T21:44:01Z</time>
      </trkpt>
      <trkpt lat="46.43797" lon="5.3743">
        <ele>520</ele>
        <time>2019-04-29T21:45:01Z</time>
      </trkpt>
      <trkpt lat="46.43811" lon="5.37447">
        <ele>521</ele>
        <time>2019-04-29T21:46:01Z</time>
      </trkpt>
      <trkpt lat="46.43826" lon="5.37465">
        <ele>523</ele>
        <time>2019-04-29T21:47:01Z</time>
      </trkpt>
      <trkpt lat="46.43849" lon="5.37496">
        <ele>527</ele>
        <time>2019-04-29T21:48:01Z</time>
      </trkpt>
      <trkpt lat="46.43863" lon="5.37511">
        <ele>527</ele>
        <time>2019-04-29T21:49:01Z</time>
      </trkpt>
      <trkpt lat="46.4386" lon="5.37517">
        <ele>529</ele>
        <time>2019-04-29T21:50:01Z</time>
      </trkpt>
      <trkpt lat="46.4386" lon="5.3752">
        <ele>529</ele>
        <time>2019-04-29T21:51:01Z</time>
      </trkpt>
      <trkpt lat="46.4386" lon="5.37521">
        <ele>529</ele>
        <time>2019-04-29T21:52:01Z</time>
      </trkpt>
      <trkpt lat="46.43861" lon="5.37524">
        <ele>530</ele>
        <time>2019-04-29T21:53:01Z</time>
      </trkpt>
      <trkpt lat="46.43863" lon="5.37526">
        <ele>530</ele>
        <time>2019-04-29T21:54:01Z</time>
      </trkpt>
      <trkpt lat="46.43875" lon="5.37536">
        <ele>529</ele>
        <time>2019-04-29T21:55:01Z</time>
      </trkpt>
      <trkpt lat="46.43889" lon="5.37547">
        <ele>529</ele>
        <time>2019-04-29T21:56:01Z</time>
      </trkpt>
      <trkpt lat="46.43911" lon="5.37571">
        <ele>530</ele>
        <time>2019-04-29T21:57:01Z</time>
      </trkpt>
      <trkpt lat="46.43928" lon="5.37585">
        <ele>531</ele>
        <time>2019-04-29T21:58:01Z</time>
      </trkpt>
      <trkpt lat="46.43944" lon="5.37602">
        <ele>533</ele>
        <time>2019-04-29T21:59:01Z</time>
      </trkpt>
      <trkpt lat="46.43964" lon="5.37619">
        <ele>535</ele>
        <time>2019-04-29T22:00:01Z</time>
      </trkpt>
      <trkpt lat="46.43989" lon="5.37629">
        <ele>535</ele>
        <time>2019-04-29T22:01:01Z</time>
      </trkpt>
      <trkpt lat="46.44002" lon="5.37633">
        <ele>534</ele>
        <time>2019-04-29T22:02:01Z</time>
      </trkpt>
      <trkpt lat="46.44024" lon="5.37652">
        <ele>536</ele>
        <time>2019-04-29T22:03:01Z</time>
      </trkpt>
      <trkpt lat="46.44045" lon="5.37675">
        <ele>537</ele>
        <time>2019-04-29T22:04:01Z</time>
      </trkpt>
      <trkpt lat="46.44064" lon="5.37703">
        <ele>538</ele>
        <time>2019-04-29T22:05:01Z</time>
      </trkpt>
      <trkpt lat="46.44071" lon="5.37717">
        <ele>539</ele>
        <time>2019-04-29T22:06:01Z</time>
      </trkpt>
      <trkpt lat="46.44074" lon="5.37729">
        <ele>540</ele>
        <time>2019-04-29T22:07:01Z</time>
      </trkpt>
      <trkpt lat="46.44077" lon="5.37745">
        <ele>542</ele>
        <time>2019-04-29T22:08:01Z</time>
      </trkpt>
      <trkpt lat="46.4408" lon="5.37772">
        <ele>544</ele>
        <time>2019-04-29T22:09:01Z</time>
      </trkpt>
      <trkpt lat="46.4408" lon="5.37799">
        <ele>546</ele>
        <time>2019-04-29T22:10:01Z</time>
      </trkpt>
      <trkpt lat="46.44079" lon="5.37823">
        <ele>548</ele>
        <time>2019-04-29T22:11:01Z</time>
      </trkpt>
      <trkpt lat="46.44079" lon="5.37845">
        <ele>549</ele>
        <time>2019-04-29T22:12:01Z</time>
      </trkpt>
      <trkpt lat="46.44075" lon="5.3787">
        <ele>549</ele>
        <time>2019-04-29T22:13:01Z</time>
      </trkpt>
      <trkpt lat="46.44071" lon="5.37895">
        <ele>549</ele>
        <time>2019-04-29T22:14:01Z</time>
      </trkpt>
      <trkpt lat="46.44064" lon="5.37922">
        <ele>548</ele>
        <time>2019-04-29T22:15:01Z</time>
      </trkpt>
      <trkpt lat="46.44057" lon="5.37953">
        <ele>546</ele>
        <time>2019-04-29T22:16:01Z</time>
      </trkpt>
      <trkpt lat="46.4405" lon="5.37988">
        <ele>545</ele>
        <time>2019-04-29T22:17:01Z</time>
      </trkpt>
      <trkpt lat="46.44049" lon="5.37997">
        <ele>545</ele>
        <time>2019-04-29T22:18:01Z</time>
      </trkpt>
      <trkpt lat="46.44047" lon="5.3803">
        <ele>542</ele>
        <time>2019-04-29T22:19:01Z</time>
      </trkpt>
      <trkpt lat="46.44047" lon="5.38062">
        <ele>539</ele>
        <time>2019-04-29T22:20:01Z</time>
      </trkpt>
      <trkpt lat="46.44047" lon="5.38079">
        <ele>538</ele>
        <time>2019-04-29T22:21:01Z</time>
      </trkpt>
      <trkpt lat="46.44045" lon="5.38105">
        <ele>536</ele>
        <time>2019-04-29T22:22:01Z</time>
      </trkpt>
      <trkpt lat="46.44044" lon="5.38118">
        <ele>535</ele>
        <time>2019-04-29T22:23:01Z</time>
      </trkpt>
      <trkpt lat="46.44016" lon="5.38254">
        <ele>527</ele>
        <time>2019-04-29T22:24:01Z</time>
      </trkpt>
      <trkpt lat="46.44002" lon="5.38323">
        <ele>527</ele>
        <time>2019-04-29T22:25:01Z</time>
      </trkpt>
      <trkpt lat="46.43991" lon="5.38368">
        <ele>526</ele>
        <time>2019-04-29T22:26:01Z</time>
      </trkpt>
      <trkpt lat="46.43985" lon="5.38393">
        <ele>526</ele>
        <time>2019-04-29T22:27:01Z</time>
      </trkpt>
      <trkpt lat="46.43974" lon="5.38436">
        <ele>526</ele>
        <time>2019-04-29T22:28:01Z</time>
      </trkpt>
      <trkpt lat="46.43962" lon="5.38477">
        <ele>527</ele>
        <time>2019-04-29T22:29:01Z</time>
      </trkpt>
      <trkpt lat="46.43943" lon="5.38538">
        <ele>528</ele>
        <time>2019-04-29T22:30:01Z</time>
      </trkpt>
      <trkpt lat="46.43939" lon="5.38557">
        <ele>528</ele>
        <time>2019-04-29T22:31:01Z</time>
      </trkpt>
      <trkpt lat="46.43928" lon="5.38593">
        <ele>528</ele>
        <time>2019-04-29T22:32:01Z</time>
      </trkpt>
      <trkpt lat="46.43912" lon="5.38649">
        <ele>528</ele>
        <time>2019-04-29T22:33:01Z</time>
      </trkpt>
      <trkpt lat="46.439" lon="5.3869">
        <ele>530</ele>
        <time>2019-04-29T22:34:01Z</time>
      </trkpt>
      <trkpt lat="46.43887" lon="5.38733">
        <ele>533</ele>
        <time>2019-04-29T22:35:01Z</time>
      </trkpt>
      <trkpt lat="46.43872" lon="5.38782">
        <ele>536</ele>
        <time>2019-04-29T22:36:01Z</time>
      </trkpt>
      <trkpt lat="46.43858" lon="5.38826">
        <ele>539</ele>
        <time>2019-04-29T22:37:01Z</time>
      </trkpt>
      <trkpt lat="46.4385" lon="5.38849">
        <ele>540</ele>
        <time>2019-04-29T22:38:01Z</time>
      </trkpt>
      <trkpt lat="46.43844" lon="5.38868">
        <ele>541</ele>
        <time>2019-04-29T22:39:01Z</time>
      </trkpt>
      <trkpt lat="46.43841" lon="5.38878">
        <ele>541</ele>
        <time>2019-04-29T22:40:01Z</time>
      </trkpt>
      <trkpt lat="46.43829" lon="5.38913">
        <ele>542</ele>
        <time>2019-04-29T22:41:01Z</time>
      </trkpt>
      <trkpt lat="46.43819" lon="5.38942">
        <ele>542</ele>
        <time>2019-04-29T22:42:01Z</time>
      </trkpt>
      <trkpt lat="46.43811" lon="5.3896">
        <ele>542</ele>
        <time>2019-04-29T22:43:01Z</time>
      </trkpt>
      <trkpt lat="46.43803" lon="5.38973">
        <ele>541</ele>
        <time>2019-04-29T22:44:01Z</time>
      </trkpt>
      <trkpt lat="46.43789" lon="5.38993">
        <ele>540</ele>
        <time>2019-04-29T22:45:01Z</time>
      </trkpt>
      <trkpt lat="46.43785" lon="5.38999">
        <ele>540</ele>
        <time>2019-04-29T22:46:01Z</time>
      </trkpt>
      <trkpt lat="46.43783" lon="5.39003">
        <ele>540</ele>
        <time>2019-04-29T22:47:01Z</time>
      </trkpt>
      <trkpt lat="46.43782" lon="5.39004">
        <ele>540</ele>
        <time>2019-04-29T22:48:01Z</time>
      </trkpt>
      <trkpt lat="46.43762" lon="5.39028">
        <ele>538</ele>
        <time>2019-04-29T22:49:01Z</time>
      </trkpt>
      <trkpt lat="46.43749" lon="5.39047">
        <ele>536</ele>
        <time>2019-04-29T22:50:01Z</time>
      </trkpt>
      <trkpt lat="46.4373" lon="5.39076">
        <ele>533</ele>
        <time>2019-04-29T22:51:01Z</time>
      </trkpt>
      <trkpt lat="46.43714" lon="5.39102">
        <ele>532</ele>
        <time>2019-04-29T22:52:01Z</time>
      </trkpt>
      <trkpt lat="46.43699" lon="5.39128">
        <ele>530</ele>
        <time>2019-04-29T22:53:01Z</time>
      </trkpt>
      <trkpt lat="46.43673" lon="5.39171">
        <ele>526</ele>
        <time>2019-04-29T22:54:01Z</time>
      </trkpt>
      <trkpt lat="46.43656" lon="5.39194">
        <ele>524</ele>
        <time>2019-04-29T22:55:01Z</time>
      </trkpt>
      <trkpt lat="46.43646" lon="5.39206">
        <ele>524</ele>
        <time>2019-04-29T22:56:01Z</time>
      </trkpt>
      <trkpt lat="46.4362" lon="5.39233">
        <ele>523</ele>
        <time>2019-04-29T22:57:01Z</time>
      </trkpt>
      <trkpt lat="46.43609" lon="5.39245">
        <ele>523</ele>
        <time>2019-04-29T22:58:01Z</time>
      </trkpt>
      <trkpt lat="46.43601" lon="5.39251">
        <ele>523</ele>
        <time>2019-04-29T22:59:01Z</time>
      </trkpt>
      <trkpt lat="46.43601" lon="5.39252">
        <ele>523</ele>
        <time>2019-04-29T23:00:01Z</time>
      </trkpt>
      <trkpt lat="46.43596" lon="5.39255">
        <ele>523</ele>
        <time>2019-04-29T23:01:01Z</time>
      </trkpt>
      <trkpt lat="46.43591" lon="5.39259">
        <ele>523</ele>
        <time>2019-04-29T23:02:01Z</time>
      </trkpt>
      <trkpt lat="46.43582" lon="5.39263">
        <ele>523</ele>
        <time>2019-04-29T23:03:01Z</time>
      </trkpt>
      <trkpt lat="46.43574" lon="5.39266">
        <ele>521</ele>
        <time>2019-04-29T23:04:01Z</time>
      </trkpt>
      <trkpt lat="46.43566" lon="5.39267">
        <ele>521</ele>
        <time>2019-04-29T23:05:01Z</time>
      </trkpt>
      <trkpt lat="46.43556" lon="5.39267">
        <ele>520</ele>
        <time>2019-04-29T23:06:01Z</time>
      </trkpt>
      <trkpt lat="46.43551" lon="5.39267">
        <ele>519</ele>
        <time>2019-04-29T23:07:01Z</time>
      </trkpt>
      <trkpt lat="46.43542" lon="5.39267">
        <ele>518</ele>
        <time>2019-04-29T23:08:01Z</time>
      </trkpt>
      <trkpt lat="46.43538" lon="5.39266">
        <ele>518</ele>
        <time>2019-04-29T23:09:01Z</time>
      </trkpt>
      <trkpt lat="46.43533" lon="5.39264">
        <ele>517</ele>
        <time>2019-04-29T23:10:01Z</time>
      </trkpt>
      <trkpt lat="46.43518" lon="5.39258">
        <ele>516</ele>
        <time>2019-04-29T23:11:01Z</time>
      </trkpt>
      <trkpt lat="46.43503" lon="5.3925">
        <ele>515</ele>
        <time>2019-04-29T23:12:01Z</time>
      </trkpt>
      <trkpt lat="46.43489" lon="5.39241">
        <ele>515</ele>
        <time>2019-04-29T23:13:01Z</time>
      </trkpt>
      <trkpt lat="46.43473" lon="5.39232">
        <ele>514</ele>
        <time>2019-04-29T23:14:01Z</time>
      </trkpt>
      <trkpt lat="46.43451" lon="5.39217">
        <ele>513</ele>
        <time>2019-04-29T23:15:01Z</time>
      </trkpt>
      <trkpt lat="46.43441" lon="5.39209">
        <ele>513</ele>
        <time>2019-04-29T23:16:01Z</time>
      </trkpt>
      <trkpt lat="46.43433" lon="5.39204">
        <ele>513</ele>
        <time>2019-04-29T23:17:01Z</time>
      </trkpt>
      <trkpt lat="46.43424" lon="5.39199">
        <ele>512</ele>
        <time>2019-04-29T23:18:01Z</time>
      </trkpt>
      <trkpt lat="46.43416" lon="5.39197">
        <ele>512</ele>
        <time>2019-04-29T23:19:01Z</time>
      </trkpt>
      <trkpt lat="46.43404" lon="5.39195">
        <ele>513</ele>
        <time>2019-04-29T23:20:01Z</time>
      </trkpt>
      <trkpt lat="46.43394" lon="5.39197">
        <ele>514</ele>
        <time>2019-04-29T23:21:01Z</time>
      </trkpt>
      <trkpt lat="46.43384" lon="5.39201">
        <ele>515</ele>
        <time>2019-04-29T23:22:01Z</time>
      </trkpt>
      <trkpt lat="46.43377" lon="5.39208">
        <ele>515</ele>
        <time>2019-04-29T23:23:01Z</time>
      </trkpt>
      <trkpt lat="46.4337" lon="5.39216">
        <ele>514</ele>
        <time>2019-04-29T23:24:01Z</time>
      </trkpt>
      <trkpt lat="46.43364" lon="5.39228">
        <ele>513</ele>
        <time>2019-04-29T23:25:01Z</time>
      </trkpt>
      <trkpt lat="46.43359" lon="5.39238">
        <ele>512</ele>
        <time>2019-04-29T23:26:01Z</time>
      </trkpt>
      <trkpt lat="46.43352" lon="5.39248">
        <ele>511</ele>
        <time>2019-04-29T23:27:01Z</time>
      </trkpt>
      <trkpt lat="46.43342" lon="5.39258">
        <ele>510</ele>
        <time>2019-04-29T23:28:01Z</time>
      </trkpt>
      <trkpt lat="46.43334" lon="5.39265">
        <ele>509</ele>
        <time>2019-04-29T23:29:01Z</time>
      </trkpt>
      <trkpt lat="46.43329" lon="5.39269">
        <ele>509</ele>
        <time>2019-04-29T23:30:01Z</time>
      </trkpt>
      <trkpt lat="46.43323" lon="5.39276">
        <ele>508</ele>
        <time>2019-04-29T23:31:01Z</time>
      </trkpt>
      <trkpt lat="46.43316" lon="5.39285">
        <ele>507</ele>
        <time>2019-04-29T23:32:01Z</time>
      </trkpt>
      <trkpt lat="46.43309" lon="5.39298">
        <ele>505</ele>
        <time>2019-04-29T23:33:01Z</time>
      </trkpt>
      <trkpt lat="46.43304" lon="5.39307">
        <ele>504</ele>
        <time>2019-04-29T23:34:01Z</time>
      </trkpt>
      <trkpt lat="46.43298" lon="5.39319">
        <ele>503</ele>
        <time>2019-04-29T23:35:01Z</time>
      </trkpt>
      <trkpt lat="46.43293" lon="5.39329">
        <ele>502</ele>
        <time>2019-04-29T23:36:01Z</time>
      </trkpt>
      <trkpt lat="46.43289" lon="5.39337">
        <ele>501</ele>
        <time>2019-04-29T23:37:01Z</time>
      </trkpt>
      <trkpt lat="46.43282" lon="5.39346">
        <ele>501</ele>
        <time>2019-04-29T23:38:01Z</time>
      </trkpt>
      <trkpt lat="46.43277" lon="5.39352">
        <ele>501</ele>
        <time>2019-04-29T23:39:01Z</time>
      </trkpt>
      <trkpt lat="46.4327" lon="5.39358">
        <ele>501</ele>
        <time>2019-04-29T23:40:01Z</time>
      </trkpt>
      <trkpt lat="46.43262" lon="5.39364">
        <ele>501</ele>
        <time>2019-04-29T23:41:01Z</time>
      </trkpt>
      <trkpt lat="46.43252" lon="5.39367">
        <ele>501</ele>
        <time>2019-04-29T23:42:01Z</time>
      </trkpt>
      <trkpt lat="46.43241" lon="5.39368">
        <ele>500</ele>
        <time>2019-04-29T23:43:01Z</time>
      </trkpt>
      <trkpt lat="46.43229" lon="5.39366">
        <ele>499</ele>
        <time>2019-04-29T23:44:01Z</time>
      </trkpt>
      <trkpt lat="46.43217" lon="5.39362">
        <ele>498</ele>
        <time>2019-04-29T23:45:01Z</time>
      </trkpt>
      <trkpt lat="46.43208" lon="5.39354">
        <ele>498</ele>
        <time>2019-04-29T23:46:01Z</time>
      </trkpt>
      <trkpt lat="46.43196" lon="5.39341">
        <ele>498</ele>
        <time>2019-04-29T23:47:01Z</time>
      </trkpt>
      <trkpt lat="46.43186" lon="5.39324">
        <ele>498</ele>
        <time>2019-04-29T23:48:01Z</time>
      </trkpt>
      <trkpt lat="46.43177" lon="5.39306">
        <ele>498</ele>
        <time>2019-04-29T23:49:01Z</time>
      </trkpt>
      <trkpt lat="46.43168" lon="5.39286">
        <ele>499</ele>
        <time>2019-04-29T23:50:01Z</time>
      </trkpt>
      <trkpt lat="46.43161" lon="5.39272">
        <ele>500</ele>
        <time>2019-04-29T23:51:01Z</time>
      </trkpt>
      <trkpt lat="46.43154" lon="5.39262">
        <ele>501</ele>
        <time>2019-04-29T23:52:01Z</time>
      </trkpt>
      <trkpt lat="46.43148" lon="5.39257">
        <ele>502</ele>
        <time>2019-04-29T23:53:01Z</time>
      </trkpt>
      <trkpt lat="46.43143" lon="5.39255">
        <ele>502</ele>
        <time>2019-04-29T23:54:01Z</time>
      </trkpt>
      <trkpt lat="46.43139" lon="5.39253">
        <ele>503</ele>
        <time>2019-04-29T23:55:01Z</time>
      </trkpt>
      <trkpt lat="46.43133" lon="5.39256">
        <ele>503</ele>
        <time>2019-04-29T23:56:01Z</time>
      </trkpt>
      <trkpt lat="46.43124" lon="5.39261">
        <ele>503</ele>
        <time>2019-04-29T23:57:01Z</time>
      </trkpt>
      <trkpt lat="46.4312" lon="5.3927">
        <ele>503</ele>
        <time>2019-04-29T23:58:01Z</time>
      </trkpt>
      <trkpt lat="46.43114" lon="5.39283">
        <ele>502</ele>
        <time>2019-04-29T23:59:01Z</time>
      </trkpt>
      <trkpt lat="46.43109" lon="5.39301">
        <ele>500</ele>
        <time>2019-04-30T00:00:01Z</time>
      </trkpt>
      <trkpt lat="46.43102" lon="5.39324">
        <ele>498</ele>
        <time>2019-04-30T00:01:01Z</time>
      </trkpt>
      <trkpt lat="46.43097" lon="5.39336">
        <ele>497</ele>
        <time>2019-04-30T00:02:01Z</time>
      </trkpt>
      <trkpt lat="46.43091" lon="5.39345">
        <ele>496</ele>
        <time>2019-04-30T00:03:01Z</time>
      </trkpt>
      <trkpt lat="46.43084" lon="5.39356">
        <ele>495</ele>
        <time>2019-04-30T00:04:01Z</time>
      </trkpt>
      <trkpt lat="46.43078" lon="5.39367">
        <ele>494</ele>
        <time>2019-04-30T00:05:01Z</time>
      </trkpt>
      <trkpt lat="46.43072" lon="5.39382">
        <ele>493</ele>
        <time>2019-04-30T00:06:01Z</time>
      </trkpt>
      <trkpt lat="46.43066" lon="5.39402">
        <ele>492</ele>
        <time>2019-04-30T00:07:01Z</time>
      </trkpt>
      <trkpt lat="46.4306" lon="5.39428">
        <ele>489</ele>
        <time>2019-04-30T00:08:01Z</time>
      </trkpt>
      <trkpt lat="46.43056" lon="5.39441">
        <ele>489</ele>
        <time>2019-04-30T00:09:01Z</time>
      </trkpt>
      <trkpt lat="46.43052" lon="5.39456">
        <ele>488</ele>
        <time>2019-04-30T00:10:01Z</time>
      </trkpt>
      <trkpt lat="46.43047" lon="5.39467">
        <ele>487</ele>
        <time>2019-04-30T00:11:01Z</time>
      </trkpt>
      <trkpt lat="46.43041" lon="5.3948">
        <ele>486</ele>
        <time>2019-04-30T00:12:01Z</time>
      </trkpt>
      <trkpt lat="46.43035" lon="5.3949">
        <ele>486</ele>
        <time>2019-04-30T00:13:01Z</time>
      </trkpt>
      <trkpt lat="46.43026" lon="5.39499">
        <ele>485</ele>
        <time>2019-04-30T00:14:01Z</time>
      </trkpt>
      <trkpt lat="46.43015" lon="5.39508">
        <ele>485</ele>
        <time>2019-04-30T00:15:01Z</time>
      </trkpt>
      <trkpt lat="46.43006" lon="5.39511">
        <ele>485</ele>
        <time>2019-04-30T00:16:01Z</time>
      </trkpt>
      <trkpt lat="46.42987" lon="5.39513">
        <ele>486</ele>
        <time>2019-04-30T00:17:01Z</time>
      </trkpt>
      <trkpt lat="46.4297" lon="5.39513">
        <ele>486</ele>
        <time>2019-04-30T00:18:01Z</time>
      </trkpt>
      <trkpt lat="46.42935" lon="5.39513">
        <ele>487</ele>
        <time>2019-04-30T00:19:01Z</time>
      </trkpt>
      <trkpt lat="46.42919" lon="5.39512">
        <ele>487</ele>
        <time>2019-04-30T00:20:01Z</time>
      </trkpt>
      <trkpt lat="46.42906" lon="5.39511">
        <ele>486</ele>
        <time>2019-04-30T00:21:01Z</time>
      </trkpt>
      <trkpt lat="46.42891" lon="5.39509">
        <ele>485</ele>
        <time>2019-04-30T00:22:01Z</time>
      </trkpt>
      <trkpt lat="46.42878" lon="5.39508">
        <ele>484</ele>
        <time>2019-04-30T00:23:01Z</time>
      </trkpt>
      <trkpt lat="46.4287" lon="5.39505">
        <ele>484</ele>
        <time>2019-04-30T00:24:01Z</time>
      </trkpt>
      <trkpt lat="46.42855" lon="5.39495">
        <ele>483</ele>
        <time>2019-04-30T00:25:01Z</time>
      </trkpt>
      <trkpt lat="46.42835" lon="5.39483">
        <ele>482</ele>
        <time>2019-04-30T00:26:01Z</time>
      </trkpt>
      <trkpt lat="46.42813" lon="5.39468">
        <ele>480</ele>
        <time>2019-04-30T00:27:01Z</time>
      </trkpt>
      <trkpt lat="46.42789" lon="5.39452">
        <ele>479</ele>
        <time>2019-04-30T00:28:01Z</time>
      </trkpt>
      <trkpt lat="46.42778" lon="5.39446">
        <ele>478</ele>
        <time>2019-04-30T00:29:01Z</time>
      </trkpt>
      <trkpt lat="46.42768" lon="5.39442">
        <ele>477</ele>
        <time>2019-04-30T00:30:01Z</time>
      </trkpt>
      <trkpt lat="46.42754" lon="5.39438">
        <ele>475</ele>
        <time>2019-04-30T00:31:01Z</time>
      </trkpt>
      <trkpt lat="46.42739" lon="5.39434">
        <ele>475</ele>
        <time>2019-04-30T00:32:01Z</time>
      </trkpt>
      <trkpt lat="46.42726" lon="5.39432">
        <ele>474</ele>
        <time>2019-04-30T00:33:01Z</time>
      </trkpt>
      <trkpt lat="46.4271" lon="5.39431">
        <ele>473</ele>
        <time>2019-04-30T00:34:01Z</time>
      </trkpt>
      <trkpt lat="46.42696" lon="5.3943">
        <ele>472</ele>
        <time>2019-04-30T00:35:01Z</time>
      </trkpt>
      <trkpt lat="46.42688" lon="5.3943">
        <ele>472</ele>
        <time>2019-04-30T00:36:01Z</time>
      </trkpt>
      <trkpt lat="46.42684" lon="5.3943">
        <ele>472</ele>
        <time>2019-04-30T00:37:01Z</time>
      </trkpt>
      <trkpt lat="46.42674" lon="5.39432">
        <ele>471</ele>
        <time>2019-04-30T00:38:01Z</time>
      </trkpt>
      <trkpt lat="46.42659" lon="5.39434">
        <ele>470</ele>
        <time>2019-04-30T00:39:01Z</time>
      </trkpt>
      <trkpt lat="46.42648" lon="5.39437">
        <ele>470</ele>
        <time>2019-04-30T00:40:01Z</time>
      </trkpt>
      <trkpt lat="46.42628" lon="5.39442">
        <ele>469</ele>
        <time>2019-04-30T00:41:01Z</time>
      </trkpt>
      <trkpt lat="46.4261" lon="5.39448">
        <ele>469</ele>
        <time>2019-04-30T00:42:01Z</time>
      </trkpt>
      <trkpt lat="46.42593" lon="5.39455">
        <ele>468</ele>
        <time>2019-04-30T00:43:01Z</time>
      </trkpt>
      <trkpt lat="46.42559" lon="5.3947">
        <ele>468</ele>
        <time>2019-04-30T00:44:01Z</time>
      </trkpt>
      <trkpt lat="46.42523" lon="5.39484">
        <ele>468</ele>
        <time>2019-04-30T00:45:01Z</time>
      </trkpt>
      <trkpt lat="46.42492" lon="5.39498">
        <ele>468</ele>
        <time>2019-04-30T00:46:01Z</time>
      </trkpt>
      <trkpt lat="46.42479" lon="5.39504">
        <ele>468</ele>
        <time>2019-04-30T00:47:01Z</time>
      </trkpt>
      <trkpt lat="46.42464" lon="5.3951">
        <ele>468</ele>
        <time>2019-04-30T00:48:01Z</time>
      </trkpt>
      <trkpt lat="46.42432" lon="5.39524">
        <ele>467</ele>
        <time>2019-04-30T00:49:01Z</time>
      </trkpt>
      <trkpt lat="46.42411" lon="5.39532">
        <ele>467</ele>
        <time>2019-04-30T00:50:01Z</time>
      </trkpt>
      <trkpt lat="46.4239" lon="5.39542">
        <ele>465</ele>
        <time>2019-04-30T00:51:01Z</time>
      </trkpt>
      <trkpt lat="46.4238" lon="5.39546">
        <ele>465</ele>
        <time>2019-04-30T00:52:01Z</time>
      </trkpt>
      <trkpt lat="46.42371" lon="5.39551">
        <ele>464</ele>
        <time>2019-04-30T00:53:01Z</time>
      </trkpt>
      <trkpt lat="46.42363" lon="5.3956">
        <ele>464</ele>
        <time>2019-04-30T00:54:01Z</time>
      </trkpt>
      <trkpt lat="46.42359" lon="5.39567">
        <ele>463</ele>
        <time>2019-04-30T00:55:01Z</time>
      </trkpt>
      <trkpt lat="46.42356" lon="5.39575">
        <ele>463</ele>
        <time>2019-04-30T00:56:01Z</time>
      </trkpt>
      <trkpt lat="46.42355" lon="5.39579">
        <ele>463</ele>
        <time>2019-04-30T00:57:01Z</time>
      </trkpt>
      <trkpt lat="46.42354" lon="5.39586">
        <ele>463</ele>
        <time>2019-04-30T00:58:01Z</time>
      </trkpt>
      <trkpt lat="46.42353" lon="5.39595">
        <ele>463</ele>
        <time>2019-04-30T00:59:01Z</time>
      </trkpt>
      <trkpt lat="46.42354" lon="5.39603">
        <ele>463</ele>
        <time>2019-04-30T01:00:01Z</time>
      </trkpt>
      <trkpt lat="46.42355" lon="5.39617">
        <ele>462</ele>
        <time>2019-04-30T01:01:01Z</time>
      </trkpt>
      <trkpt lat="46.42358" lon="5.39628">
        <ele>462</ele>
        <time>2019-04-30T01:02:01Z</time>
      </trkpt>
      <trkpt lat="46.42363" lon="5.39641">
        <ele>462</ele>
        <time>2019-04-30T01:03:01Z</time>
      </trkpt>
      <trkpt lat="46.4237" lon="5.39656">
        <ele>462</ele>
        <time>2019-04-30T01:04:01Z</time>
      </trkpt>
      <trkpt lat="46.4238" lon="5.39672">
        <ele>462</ele>
        <time>2019-04-30T01:05:01Z</time>
      </trkpt>
      <trkpt lat="46.42383" lon="5.39678">
        <ele>462</ele>
        <time>2019-04-30T01:06:01Z</time>
      </trkpt>
      <trkpt lat="46.42387" lon="5.39686">
        <ele>462</ele>
        <time>2019-04-30T01:07:01Z</time>
      </trkpt>
      <trkpt lat="46.42392" lon="5.397">
        <ele>461</ele>
        <time>2019-04-30T01:08:01Z</time>
      </trkpt>
      <trkpt lat="46.42396" lon="5.39711">
        <ele>461</ele>
        <time>2019-04-30T01:09:01Z</time>
      </trkpt>
      <trkpt lat="46.42399" lon="5.39721">
        <ele>461</ele>
        <time>2019-04-30T01:10:01Z</time>
      </trkpt>
      <trkpt lat="46.42399" lon="5.39732">
        <ele>460</ele>
        <time>2019-04-30T01:11:01Z</time>
      </trkpt>
      <trkpt lat="46.42398" lon="5.39744">
        <ele>459</ele>
        <time>2019-04-30T01:12:01Z</time>
      </trkpt>
      <trkpt lat="46.42397" lon="5.39769">
        <ele>458</ele>
        <time>2019-04-30T01:13:01Z</time>
      </trkpt>
      <trkpt lat="46.42396" lon="5.39796">
        <ele>457</ele>
        <time>2019-04-30T01:14:01Z</time>
      </trkpt>
      <trkpt lat="46.42396" lon="5.39803">
        <ele>456</ele>
        <time>2019-04-30T01:15:01Z</time>
      </trkpt>
      <trkpt lat="46.42396" lon="5.39814">
        <ele>456</ele>
        <time>2019-04-30T01:16:01Z</time>
      </trkpt>
      <trkpt lat="46.42395" lon="5.39831">
        <ele>455</ele>
        <time>2019-04-30T01:17:01Z</time>
      </trkpt>
      <trkpt lat="46.42394" lon="5.39862">
        <ele>454</ele>
        <time>2019-04-30T01:18:01Z</time>
      </trkpt>
      <trkpt lat="46.42393" lon="5.39896">
        <ele>454</ele>
        <time>2019-04-30T01:19:01Z</time>
      </trkpt>
      <trkpt lat="46.42392" lon="5.39935">
        <ele>453</ele>
        <time>2019-04-30T01:20:01Z</time>
      </trkpt>
      <trkpt lat="46.42392" lon="5.3997">
        <ele>453</ele>
        <time>2019-04-30T01:21:01Z</time>
      </trkpt>
      <trkpt lat="46.42391" lon="5.39998">
        <ele>453</ele>
        <time>2019-04-30T01:22:01Z</time>
      </trkpt>
      <trkpt lat="46.4239" lon="5.40037">
        <ele>455</ele>
        <time>2019-04-30T01:23:01Z</time>
      </trkpt>
      <trkpt lat="46.42388" lon="5.4007">
        <ele>456</ele>
        <time>2019-04-30T01:24:01Z</time>
      </trkpt>
      <trkpt lat="46.42387" lon="5.40102">
        <ele>457</ele>
        <time>2019-04-30T01:25:01Z</time>
      </trkpt>
      <trkpt lat="46.42387" lon="5.40122">
        <ele>458</ele>
        <time>2019-04-30T01:26:01Z</time>
      </trkpt>
      <trkpt lat="46.42386" lon="5.4015">
        <ele>458</ele>
        <time>2019-04-30T01:27:01Z</time>
      </trkpt>
      <trkpt lat="46.42386" lon="5.40181">
        <ele>459</ele>
        <time>2019-04-30T01:28:01Z</time>
      </trkpt>
      <trkpt lat="46.42384" lon="5.40221">
        <ele>460</ele>
        <time>2019-04-30T01:29:01Z</time>
      </trkpt>
      <trkpt lat="46.42384" lon="5.40238">
        <ele>461</ele>
        <time>2019-04-30T01:30:01Z</time>
      </trkpt>
      <trkpt lat="46.42385" lon="5.40254">
        <ele>461</ele>
        <time>2019-04-30T01:31:01Z</time>
      </trkpt>
      <trkpt lat="46.42387" lon="5.40265">
        <ele>462</ele>
        <time>2019-04-30T01:32:01Z</time>
      </trkpt>
      <trkpt lat="46.42389" lon="5.40275">
        <ele>463</ele>
        <time>2019-04-30T01:33:01Z</time>
      </trkpt>
      <trkpt lat="46.42393" lon="5.40288">
        <ele>464</ele>
        <time>2019-04-30T01:34:01Z</time>
      </trkpt>
      <trkpt lat="46.42399" lon="5.40299">
        <ele>465</ele>
        <time>2019-04-30T01:35:01Z</time>
      </trkpt>
      <trkpt lat="46.42406" lon="5.40309">
        <ele>466</ele>
        <time>2019-04-30T01:36:01Z</time>
      </trkpt>
      <trkpt lat="46.42416" lon="5.4032">
        <ele>467</ele>
        <time>2019-04-30T01:37:01Z</time>
      </trkpt>
      <trkpt lat="46.42433" lon="5.40335">
        <ele>469</ele>
        <time>2019-04-30T01:38:01Z</time>
      </trkpt>
      <trkpt lat="46.42448" lon="5.40346">
        <ele>470</ele>
        <time>2019-04-30T01:39:01Z</time>
      </trkpt>
      <trkpt lat="46.4246" lon="5.40355">
        <ele>471</ele>
        <time>2019-04-30T01:40:01Z</time>
      </trkpt>
      <trkpt lat="46.42469" lon="5.40363">
        <ele>473</ele>
        <time>2019-04-30T01:41:01Z</time>
      </trkpt>
      <trkpt lat="46.42479" lon="5.40373">
        <ele>474</ele>
        <time>2019-04-30T01:42:01Z</time>
      </trkpt>
      <trkpt lat="46.42484" lon="5.40383">
        <ele>475</ele>
        <time>2019-04-30T01:43:01Z</time>
      </trkpt>
      <trkpt lat="46.42487" lon="5.40389">
        <ele>476</ele>
        <time>2019-04-30T01:44:01Z</time>
      </trkpt>
      <trkpt lat="46.4249" lon="5.404">
        <ele>477</ele>
        <time>2019-04-30T01:45:01Z</time>
      </trkpt>
      <trkpt lat="46.42491" lon="5.40411">
        <ele>478</ele>
        <time>2019-04-30T01:46:01Z</time>
      </trkpt>
      <trkpt lat="46.42491" lon="5.40421">
        <ele>480</ele>
        <time>2019-04-30T01:47:01Z</time>
      </trkpt>
      <trkpt lat="46.42491" lon="5.40434">
        <ele>482</ele>
        <time>2019-04-30T01:48:01Z</time>
      </trkpt>
      <trkpt lat="46.42488" lon="5.40449">
        <ele>485</ele>
        <time>2019-04-30T01:49:01Z</time>
      </trkpt>
      <trkpt lat="46.42482" lon="5.40467">
        <ele>487</ele>
        <time>2019-04-30T01:50:01Z</time>
      </trkpt>
      <trkpt lat="46.42469" lon="5.4049">
        <ele>488</ele>
        <time>2019-04-30T01:51:01Z</time>
      </trkpt>
      <trkpt lat="46.42458" lon="5.40505">
        <ele>489</ele>
        <time>2019-04-30T01:52:01Z</time>
      </trkpt>
      <trkpt lat="46.42443" lon="5.40521">
        <ele>490</ele>
        <time>2019-04-30T01:53:01Z</time>
      </trkpt>
      <trkpt lat="46.4242" lon="5.40544">
        <ele>491</ele>
        <time>2019-04-30T01:54:01Z</time>
      </trkpt>
      <trkpt lat="46.424" lon="5.40564">
        <ele>493</ele>
        <time>2019-04-30T01:55:01Z</time>
      </trkpt>
      <trkpt lat="46.42377" lon="5.40584">
        <ele>493</ele>
        <time>2019-04-30T01:56:01Z</time>
      </trkpt>
      <trkpt lat="46.42358" lon="5.40599">
        <ele>494</ele>
        <time>2019-04-30T01:57:01Z</time>
      </trkpt>
      <trkpt lat="46.42337" lon="5.40616">
        <ele>494</ele>
        <time>2019-04-30T01:58:01Z</time>
      </trkpt>
      <trkpt lat="46.42321" lon="5.40629">
        <ele>495</ele>
        <time>2019-04-30T01:59:01Z</time>
      </trkpt>
      <trkpt lat="46.4231" lon="5.40639">
        <ele>495</ele>
        <time>2019-04-30T02:00:01Z</time>
      </trkpt>
      <trkpt lat="46.42303" lon="5.40647">
        <ele>496</ele>
        <time>2019-04-30T02:01:01Z</time>
      </trkpt>
      <trkpt lat="46.42288" lon="5.40666">
        <ele>499</ele>
        <time>2019-04-30T02:02:01Z</time>
      </trkpt>
      <trkpt lat="46.42277" lon="5.40678">
        <ele>499</ele>
        <time>2019-04-30T02:03:01Z</time>
      </trkpt>
      <trkpt lat="46.42258" lon="5.40693">
        <ele>499</ele>
        <time>2019-04-30T02:04:01Z</time>
      </trkpt>
      <trkpt lat="46.42237" lon="5.4071">
        <ele>500</ele>
        <time>2019-04-30T02:05:01Z</time>
      </trkpt>
      <trkpt lat="46.4221" lon="5.4073">
        <ele>502</ele>
        <time>2019-04-30T02:06:01Z</time>
      </trkpt>
      <trkpt lat="46.42197" lon="5.40744">
        <ele>504</ele>
        <time>2019-04-30T02:07:01Z</time>
      </trkpt>
      <trkpt lat="46.42183" lon="5.40761">
        <ele>506</ele>
        <time>2019-04-30T02:08:01Z</time>
      </trkpt>
      <trkpt lat="46.42168" lon="5.40777">
        <ele>507</ele>
        <time>2019-04-30T02:09:01Z</time>
      </trkpt>
      <trkpt lat="46.42151" lon="5.40784">
        <ele>508</ele>
        <time>2019-04-30T02:10:01Z</time>
      </trkpt>
      <trkpt lat="46.42136" lon="5.40786">
        <ele>508</ele>
        <time>2019-04-30T02:11:01Z</time>
      </trkpt>
      <trkpt lat="46.42125" lon="5.40788">
        <ele>508</ele>
        <time>2019-04-30T02:12:01Z</time>
      </trkpt>
      <trkpt lat="46.42087" lon="5.40791">
        <ele>507</ele>
        <time>2019-04-30T02:13:01Z</time>
      </trkpt>
      <trkpt lat="46.42059" lon="5.40803">
        <ele>508</ele>
        <time>2019-04-30T02:14:01Z</time>
      </trkpt>
      <trkpt lat="46.42035" lon="5.40833">
        <ele>511</ele>
        <time>2019-04-30T02:15:01Z</time>
      </trkpt>
      <trkpt lat="46.42027" lon="5.40851">
        <ele>511</ele>
        <time>2019-04-30T02:16:01Z</time>
      </trkpt>
      <trkpt lat="46.42022" lon="5.40874">
        <ele>511</ele>
        <time>2019-04-30T02:17:01Z</time>
      </trkpt>
      <trkpt lat="46.4202" lon="5.40898">
        <ele>512</ele>
        <time>2019-04-30T02:18:01Z</time>
      </trkpt>
      <trkpt lat="46.4202" lon="5.40919">
        <ele>512</ele>
        <time>2019-04-30T02:19:01Z</time>
      </trkpt>
      <trkpt lat="46.42018" lon="5.40936">
        <ele>512</ele>
        <time>2019-04-30T02:20:01Z</time>
      </trkpt>
      <trkpt lat="46.42016" lon="5.40944">
        <ele>512</ele>
        <time>2019-04-30T02:21:01Z</time>
      </trkpt>
      <trkpt lat="46.42013" lon="5.40954">
        <ele>511</ele>
        <time>2019-04-30T02:22:01Z</time>
      </trkpt>
      <trkpt lat="46.42008" lon="5.40965">
        <ele>511</ele>
        <time>2019-04-30T02:23:01Z</time>
      </trkpt>
      <trkpt lat="46.42005" lon="5.40973">
        <ele>511</ele>
        <time>2019-04-30T02:24:01Z</time>
      </trkpt>
      <trkpt lat="46.41988" lon="5.40993">
        <ele>510</ele>
        <time>2019-04-30T02:25:01Z</time>
      </trkpt>
      <trkpt lat="46.41975" lon="5.41006">
        <ele>509</ele>
        <time>2019-04-30T02:26:01Z</time>
      </trkpt>
      <trkpt lat="46.41964" lon="5.41021">
        <ele>509</ele>
        <time>2019-04-30T02:27:01Z</time>
      </trkpt>
      <trkpt lat="46.41956" lon="5.41033">
        <ele>509</ele>
        <time>2019-04-30T02:28:01Z</time>
      </trkpt>
      <trkpt lat="46.4195" lon="5.41049">
        <ele>509</ele>
        <time>2019-04-30T02:29:01Z</time>
      </trkpt>
      <trkpt lat="46.41946" lon="5.41064">
        <ele>509</ele>
        <time>2019-04-30T02:30:01Z</time>
      </trkpt>
      <trkpt lat="46.41945" lon="5.41079">
        <ele>509</ele>
        <time>2019-04-30T02:31:01Z</time>
      </trkpt>
      <trkpt lat="46.41945" lon="5.41102">
        <ele>509</ele>
        <time>2019-04-30T02:32:01Z</time>
      </trkpt>
      <trkpt lat="46.41948" lon="5.41169">
        <ele>507</ele>
        <time>2019-04-30T02:33:01Z</time>
      </trkpt>
      <trkpt lat="46.41951" lon="5.41232">
        <ele>506</ele>
        <time>2019-04-30T02:34:01Z</time>
      </trkpt>
      <trkpt lat="46.41959" lon="5.41296">
        <ele>504</ele>
        <time>2019-04-30T02:35:01Z</time>
      </trkpt>
      <trkpt lat="46.41962" lon="5.41328">
        <ele>504</ele>
        <time>2019-04-30T02:36:01Z</time>
      </trkpt>
      <trkpt lat="46.41966" lon="5.41348">
        <ele>502</ele>
        <time>2019-04-30T02:37:01Z</time>
      </trkpt>
      <trkpt lat="46.41969" lon="5.41361">
        <ele>500</ele>
        <time>2019-04-30T02:38:01Z</time>
      </trkpt>
      <trkpt lat="46.4198" lon="5.41378">
        <ele>497</ele>
        <time>2019-04-30T02:39:01Z</time>
      </trkpt>
      <trkpt lat="46.41993" lon="5.41389">
        <ele>494</ele>
        <time>2019-04-30T02:40:01Z</time>
      </trkpt>
      <trkpt lat="46.42013" lon="5.414">
        <ele>494</ele>
        <time>2019-04-30T02:41:01Z</time>
      </trkpt>
      <trkpt lat="46.42041" lon="5.4141">
        <ele>495</ele>
        <time>2019-04-30T02:42:01Z</time>
      </trkpt>
      <trkpt lat="46.42065" lon="5.41421">
        <ele>495</ele>
        <time>2019-04-30T02:43:01Z</time>
      </trkpt>
      <trkpt lat="46.4211" lon="5.41441">
        <ele>494</ele>
        <time>2019-04-30T02:44:01Z</time>
      </trkpt>
      <trkpt lat="46.4215" lon="5.41459">
        <ele>493</ele>
        <time>2019-04-30T02:45:01Z</time>
      </trkpt>
      <trkpt lat="46.42174" lon="5.4147">
        <ele>491</ele>
        <time>2019-04-30T02:46:01Z</time>
      </trkpt>
      <trkpt lat="46.4219" lon="5.41475">
        <ele>490</ele>
        <time>2019-04-30T02:47:01Z</time>
      </trkpt>
      <trkpt lat="46.42209" lon="5.41477">
        <ele>490</ele>
        <time>2019-04-30T02:48:01Z</time>
      </trkpt>
      <trkpt lat="46.42222" lon="5.41477">
        <ele>491</ele>
        <time>2019-04-30T02:49:01Z</time>
      </trkpt>
      <trkpt lat="46.42243" lon="5.41479">
        <ele>491</ele>
        <time>2019-04-30T02:50:01Z</time>
      </trkpt>
      <trkpt lat="46.4227" lon="5.41485">
        <ele>489</ele>
        <time>2019-04-30T02:51:01Z</time>
      </trkpt>
      <trkpt lat="46.42289" lon="5.4149">
        <ele>488</ele>
        <time>2019-04-30T02:52:01Z</time>
      </trkpt>
      <trkpt lat="46.42308" lon="5.41499">
        <ele>485</ele>
        <time>2019-04-30T02:53:01Z</time>
      </trkpt>
      <trkpt lat="46.42328" lon="5.41507">
        <ele>483</ele>
        <time>2019-04-30T02:54:01Z</time>
      </trkpt>
      <trkpt lat="46.42344" lon="5.41516">
        <ele>482</ele>
        <time>2019-04-30T02:55:01Z</time>
      </trkpt>
      <trkpt lat="46.42362" lon="5.41525">
        <ele>482</ele>
        <time>2019-04-30T02:56:01Z</time>
      </trkpt>
      <trkpt lat="46.42377" lon="5.41532">
        <ele>481</ele>
        <time>2019-04-30T02:57:01Z</time>
      </trkpt>
      <trkpt lat="46.42387" lon="5.41537">
        <ele>481</ele>
        <time>2019-04-30T02:58:01Z</time>
      </trkpt>
      <trkpt lat="46.42403" lon="5.41542">
        <ele>480</ele>
        <time>2019-04-30T02:59:01Z</time>
      </trkpt>
      <trkpt lat="46.42417" lon="5.41546">
        <ele>480</ele>
        <time>2019-04-30T03:00:01Z</time>
      </trkpt>
      <trkpt lat="46.42436" lon="5.41553">
        <ele>479</ele>
        <time>2019-04-30T03:01:01Z</time>
      </trkpt>
      <trkpt lat="46.42454" lon="5.41561">
        <ele>478</ele>
        <time>2019-04-30T03:02:01Z</time>
      </trkpt>
      <trkpt lat="46.42471" lon="5.41571">
        <ele>477</ele>
        <time>2019-04-30T03:03:01Z</time>
      </trkpt>
      <trkpt lat="46.42478" lon="5.41575">
        <ele>476</ele>
        <time>2019-04-30T03:04:01Z</time>
      </trkpt>
      <trkpt lat="46.42492" lon="5.41577">
        <ele>477</ele>
        <time>2019-04-30T03:05:01Z</time>
      </trkpt>
      <trkpt lat="46.42502" lon="5.41578">
        <ele>477</ele>
        <time>2019-04-30T03:06:01Z</time>
      </trkpt>
      <trkpt lat="46.42516" lon="5.41579">
        <ele>477</ele>
        <time>2019-04-30T03:07:01Z</time>
      </trkpt>
      <trkpt lat="46.42529" lon="5.41581">
        <ele>477</ele>
        <time>2019-04-30T03:08:01Z</time>
      </trkpt>
      <trkpt lat="46.42542" lon="5.41583">
        <ele>477</ele>
        <time>2019-04-30T03:09:01Z</time>
      </trkpt>
      <trkpt lat="46.42554" lon="5.41586">
        <ele>477</ele>
        <time>2019-04-30T03:10:01Z</time>
      </trkpt>
      <trkpt lat="46.42568" lon="5.4159">
        <ele>477</ele>
        <time>2019-04-30T03:11:01Z</time>
      </trkpt>
      <trkpt lat="46.42586" lon="5.41595">
        <ele>476</ele>
        <time>2019-04-30T03:12:01Z</time>
      </trkpt>
      <trkpt lat="46.42598" lon="5.41599">
        <ele>475</ele>
        <time>2019-04-30T03:13:01Z</time>
      </trkpt>
      <trkpt lat="46.42615" lon="5.41603">
        <ele>474</ele>
        <time>2019-04-30T03:14:01Z</time>
      </trkpt>
      <trkpt lat="46.42624" lon="5.41606">
        <ele>473</ele>
        <time>2019-04-30T03:15:01Z</time>
      </trkpt>
      <trkpt lat="46.42627" lon="5.41606">
        <ele>473</ele>
        <time>2019-04-30T03:16:01Z</time>
      </trkpt>
      <trkpt lat="46.4264" lon="5.4161">
        <ele>472</ele>
        <time>2019-04-30T03:17:01Z</time>
      </trkpt>
      <trkpt lat="46.4265" lon="5.41613">
        <ele>471</ele>
        <time>2019-04-30T03:18:01Z</time>
      </trkpt>
      <trkpt lat="46.42655" lon="5.41617">
        <ele>471</ele>
        <time>2019-04-30T03:19:01Z</time>
      </trkpt>
      <trkpt lat="46.42658" lon="5.41621">
        <ele>470</ele>
        <time>2019-04-30T03:20:01Z</time>
      </trkpt>
      <trkpt lat="46.42667" lon="5.4163">
        <ele>469</ele>
        <time>2019-04-30T03:21:01Z</time>
      </trkpt>
      <trkpt lat="46.42678" lon="5.41635">
        <ele>469</ele>
        <time>2019-04-30T03:22:01Z</time>
      </trkpt>
      <trkpt lat="46.42686" lon="5.41637">
        <ele>468</ele>
        <time>2019-04-30T03:23:01Z</time>
      </trkpt>
      <trkpt lat="46.42695" lon="5.41638">
        <ele>468</ele>
        <time>2019-04-30T03:24:01Z</time>
      </trkpt>
      <trkpt lat="46.42705" lon="5.4164">
        <ele>468</ele>
        <time>2019-04-30T03:25:01Z</time>
      </trkpt>
      <trkpt lat="46.42708" lon="5.41642">
        <ele>468</ele>
        <time>2019-04-30T03:26:01Z</time>
      </trkpt>
      <trkpt lat="46.42711" lon="5.41645">
        <ele>468</ele>
        <time>2019-04-30T03:27:01Z</time>
      </trkpt>
      <trkpt lat="46.42713" lon="5.41648">
        <ele>468</ele>
        <time>2019-04-30T03:28:01Z</time>
      </trkpt>
      <trkpt lat="46.42715" lon="5.41653">
        <ele>467</ele>
        <time>2019-04-30T03:29:01Z</time>
      </trkpt>
      <trkpt lat="46.42715" lon="5.41657">
        <ele>467</ele>
        <time>2019-04-30T03:30:01Z</time>
      </trkpt>
      <trkpt lat="46.42714" lon="5.41668">
        <ele>465</ele>
        <time>2019-04-30T03:31:01Z</time>
      </trkpt>
      <trkpt lat="46.42713" lon="5.4167">
        <ele>465</ele>
        <time>2019-04-30T03:32:01Z</time>
      </trkpt>
      <trkpt lat="46.42711" lon="5.41673">
        <ele>465</ele>
        <time>2019-04-30T03:33:01Z</time>
      </trkpt>
      <trkpt lat="46.427" lon="5.41684">
        <ele>464</ele>
        <time>2019-04-30T03:34:01Z</time>
      </trkpt>
      <trkpt lat="46.42692" lon="5.41693">
        <ele>464</ele>
        <time>2019-04-30T03:35:01Z</time>
      </trkpt>
      <trkpt lat="46.42684" lon="5.41702">
        <ele>463</ele>
        <time>2019-04-30T03:36:01Z</time>
      </trkpt>
      <trkpt lat="46.42654" lon="5.41736">
        <ele>460</ele>
        <time>2019-04-30T03:37:01Z</time>
      </trkpt>
      <trkpt lat="46.4264" lon="5.4175">
        <ele>460</ele>
        <time>2019-04-30T03:38:01Z</time>
      </trkpt>
      <trkpt lat="46.42621" lon="5.41773">
        <ele>457</ele>
        <time>2019-04-30T03:39:01Z</time>
      </trkpt>
      <trkpt lat="46.42611" lon="5.41782">
        <ele>456</ele>
        <time>2019-04-30T03:40:01Z</time>
      </trkpt>
      <trkpt lat="46.42607" lon="5.41786">
        <ele>456</ele>
        <time>2019-04-30T03:41:01Z</time>
      </trkpt>
      <trkpt lat="46.42597" lon="5.41792">
        <ele>455</ele>
        <time>2019-04-30T03:42:01Z</time>
      </trkpt>
      <trkpt lat="46.42588" lon="5.41794">
        <ele>455</ele>
        <time>2019-04-30T03:43:01Z</time>
      </trkpt>
      <trkpt lat="46.4258" lon="5.41794">
        <ele>454</ele>
        <time>2019-04-30T03:44:01Z</time>
      </trkpt>
      <trkpt lat="46.42572" lon="5.41791">
        <ele>454</ele>
        <time>2019-04-30T03:45:01Z</time>
      </trkpt>
      <trkpt lat="46.42548" lon="5.41778">
        <ele>455</ele>
        <time>2019-04-30T03:46:01Z</time>
      </trkpt>
      <trkpt lat="46.42538" lon="5.41773">
        <ele>455</ele>
        <time>2019-04-30T03:47:01Z</time>
      </trkpt>
      <trkpt lat="46.4253" lon="5.4177">
        <ele>455</ele>
        <time>2019-04-30T03:48:01Z</time>
      </trkpt>
      <trkpt lat="46.42519" lon="5.41768">
        <ele>454</ele>
        <time>2019-04-30T03:49:01Z</time>
      </trkpt>
      <trkpt lat="46.4251" lon="5.41769">
        <ele>453</ele>
        <time>2019-04-30T03:50:01Z</time>
      </trkpt>
      <trkpt lat="46.4249" lon="5.41774">
        <ele>452</ele>
        <time>2019-04-30T03:51:01Z</time>
      </trkpt>
      <trkpt lat="46.42467" lon="5.41784">
        <ele>450</ele>
        <time>2019-04-30T03:52:01Z</time>
      </trkpt>
      <trkpt lat="46.42443" lon="5.41795">
        <ele>448</ele>
        <time>2019-04-30T03:53:01Z</time>
      </trkpt>
      <trkpt lat="46.42425" lon="5.41799">
        <ele>447</ele>
        <time>2019-04-30T03:54:01Z</time>
      </trkpt>
      <trkpt lat="46.42405" lon="5.418">
        <ele>445</ele>
        <time>2019-04-30T03:55:01Z</time>
      </trkpt>
      <trkpt lat="46.42391" lon="5.41798">
        <ele>445</ele>
        <time>2019-04-30T03:56:01Z</time>
      </trkpt>
      <trkpt lat="46.42375" lon="5.41795">
        <ele>444</ele>
        <time>2019-04-30T03:57:01Z</time>
      </trkpt>
      <trkpt lat="46.42339" lon="5.41786">
        <ele>444</ele>
        <time>2019-04-30T03:58:01Z</time>
      </trkpt>
      <trkpt lat="46.42319" lon="5.41779">
        <ele>443</ele>
        <time>2019-04-30T03:59:01Z</time>
      </trkpt>
      <trkpt lat="46.42299" lon="5.41771">
        <ele>442</ele>
        <time>2019-04-30T04:00:01Z</time>
      </trkpt>
      <trkpt lat="46.42272" lon="5.41756">
        <ele>441</ele>
        <time>2019-04-30T04:01:01Z</time>
      </trkpt>
      <trkpt lat="46.42251" lon="5.41743">
        <ele>441</ele>
        <time>2019-04-30T04:02:01Z</time>
      </trkpt>
      <trkpt lat="46.42225" lon="5.41727">
        <ele>440</ele>
        <time>2019-04-30T04:03:01Z</time>
      </trkpt>
      <trkpt lat="46.42193" lon="5.41705">
        <ele>438</ele>
        <time>2019-04-30T04:04:01Z</time>
      </trkpt>
      <trkpt lat="46.4216" lon="5.41684">
        <ele>436</ele>
        <time>2019-04-30T04:05:01Z</time>
      </trkpt>
      <trkpt lat="46.42134" lon="5.41669">
        <ele>435</ele>
        <time>2019-04-30T04:06:01Z</time>
      </trkpt>
      <trkpt lat="46.42123" lon="5.41665">
        <ele>434</ele>
        <time>2019-04-30T04:07:01Z</time>
      </trkpt>
      <trkpt lat="46.42111" lon="5.41663">
        <ele>433</ele>
        <time>2019-04-30T04:08:01Z</time>
      </trkpt>
      <trkpt lat="46.42098" lon="5.41664">
        <ele>431</ele>
        <time>2019-04-30T04:09:01Z</time>
      </trkpt>
      <trkpt lat="46.42085" lon="5.41663">
        <ele>430</ele>
        <time>2019-04-30T04:10:01Z</time>
      </trkpt>
      <trkpt lat="46.42071" lon="5.41662">
        <ele>430</ele>
        <time>2019-04-30T04:11:01Z</time>
      </trkpt>
      <trkpt lat="46.42058" lon="5.41658">
        <ele>431</ele>
        <time>2019-04-30T04:12:01Z</time>
      </trkpt>
      <trkpt lat="46.42036" lon="5.41651">
        <ele>431</ele>
        <time>2019-04-30T04:13:01Z</time>
      </trkpt>
      <trkpt lat="46.42022" lon="5.41649">
        <ele>431</ele>
        <time>2019-04-30T04:14:01Z</time>
      </trkpt>
      <trkpt lat="46.42011" lon="5.41652">
        <ele>431</ele>
        <time>2019-04-30T04:15:01Z</time>
      </trkpt>
      <trkpt lat="46.42003" lon="5.41661">
        <ele>429</ele>
        <time>2019-04-30T04:16:01Z</time>
      </trkpt>
      <trkpt lat="46.41998" lon="5.41673">
        <ele>428</ele>
        <time>2019-04-30T04:17:01Z</time>
      </trkpt>
      <trkpt lat="46.41995" lon="5.41684">
        <ele>428</ele>
        <time>2019-04-30T04:18:01Z</time>
      </trkpt>
      <trkpt lat="46.41995" lon="5.41696">
        <ele>428</ele>
        <time>2019-04-30T04:19:01Z</time>
      </trkpt>
      <trkpt lat="46.41998" lon="5.41705">
        <ele>428</ele>
        <time>2019-04-30T04:20:01Z</time>
      </trkpt>
      <trkpt lat="46.42005" lon="5.41718">
        <ele>427</ele>
        <time>2019-04-30T04:21:01Z</time>
      </trkpt>
      <trkpt lat="46.4203" lon="5.41759">
        <ele>425</ele>
        <time>2019-04-30T04:22:01Z</time>
      </trkpt>
      <trkpt lat="46.42041" lon="5.41787">
        <ele>424</ele>
        <time>2019-04-30T04:23:01Z</time>
      </trkpt>
      <trkpt lat="46.42048" lon="5.41807">
        <ele>423</ele>
        <time>2019-04-30T04:24:01Z</time>
      </trkpt>
      <trkpt lat="46.42056" lon="5.41833">
        <ele>422</ele>
        <time>2019-04-30T04:25:01Z</time>
      </trkpt>
      <trkpt lat="46.42061" lon="5.41858">
        <ele>420</ele>
        <time>2019-04-30T04:26:01Z</time>
      </trkpt>
      <trkpt lat="46.42065" lon="5.41887">
        <ele>419</ele>
        <time>2019-04-30T04:27:01Z</time>
      </trkpt>
      <trkpt lat="46.42066" lon="5.41912">
        <ele>418</ele>
        <time>2019-04-30T04:28:01Z</time>
      </trkpt>
      <trkpt lat="46.42066" lon="5.41939">
        <ele>417</ele>
        <time>2019-04-30T04:29:01Z</time>
      </trkpt>
      <trkpt lat="46.42066" lon="5.41964">
        <ele>416</ele>
        <time>2019-04-30T04:30:01Z</time>
      </trkpt>
      <trkpt lat="46.42066" lon="5.41982">
        <ele>416</ele>
        <time>2019-04-30T04:31:01Z</time>
      </trkpt>
      <trkpt lat="46.42067" lon="5.41994">
        <ele>415</ele>
        <time>2019-04-30T04:32:01Z</time>
      </trkpt>
      <trkpt lat="46.42073" lon="5.42008">
        <ele>415</ele>
        <time>2019-04-30T04:33:01Z</time>
      </trkpt>
      <trkpt lat="46.42086" lon="5.42036">
        <ele>414</ele>
        <time>2019-04-30T04:34:01Z</time>
      </trkpt>
      <trkpt lat="46.42102" lon="5.42065">
        <ele>413</ele>
        <time>2019-04-30T04:35:01Z</time>
      </trkpt>
      <trkpt lat="46.42124" lon="5.42106">
        <ele>411</ele>
        <time>2019-04-30T04:36:01Z</time>
      </trkpt>
      <trkpt lat="46.42149" lon="5.4215">
        <ele>408</ele>
        <time>2019-04-30T04:37:01Z</time>
      </trkpt>
      <trkpt lat="46.42166" lon="5.42177">
        <ele>407</ele>
        <time>2019-04-30T04:38:01Z</time>
      </trkpt>
      <trkpt lat="46.42179" lon="5.42204">
        <ele>406</ele>
        <time>2019-04-30T04:39:01Z</time>
      </trkpt>
      <trkpt lat="46.42195" lon="5.42236">
        <ele>404</ele>
        <time>2019-04-30T04:40:01Z</time>
      </trkpt>
      <trkpt lat="46.42204" lon="5.42262">
        <ele>403</ele>
        <time>2019-04-30T04:41:01Z</time>
      </trkpt>
      <trkpt lat="46.42207" lon="5.42282">
        <ele>402</ele>
        <time>2019-04-30T04:42:01Z</time>
      </trkpt>
      <trkpt lat="46.42206" lon="5.42298">
        <ele>402</ele>
        <time>2019-04-30T04:43:01Z</time>
      </trkpt>
      <trkpt lat="46.42199" lon="5.42322">
        <ele>402</ele>
        <time>2019-04-30T04:44:01Z</time>
      </trkpt>
      <trkpt lat="46.4219" lon="5.42346">
        <ele>402</ele>
        <time>2019-04-30T04:45:01Z</time>
      </trkpt>
      <trkpt lat="46.42173" lon="5.42383">
        <ele>402</ele>
        <time>2019-04-30T04:46:01Z</time>
      </trkpt>
      <trkpt lat="46.4216" lon="5.42411">
        <ele>401</ele>
        <time>2019-04-30T04:47:01Z</time>
      </trkpt>
      <trkpt lat="46.42148" lon="5.4243">
        <ele>400</ele>
        <time>2019-04-30T04:48:01Z</time>
      </trkpt>
      <trkpt lat="46.42131" lon="5.42453">
        <ele>399</ele>
        <time>2019-04-30T04:49:01Z</time>
      </trkpt>
      <trkpt lat="46.42115" lon="5.42474">
        <ele>397</ele>
        <time>2019-04-30T04:50:01Z</time>
      </trkpt>
      <trkpt lat="46.42103" lon="5.42494">
        <ele>396</ele>
        <time>2019-04-30T04:51:01Z</time>
      </trkpt>
      <trkpt lat="46.42087" lon="5.42521">
        <ele>394</ele>
        <time>2019-04-30T04:52:01Z</time>
      </trkpt>
      <trkpt lat="46.42071" lon="5.42551">
        <ele>394</ele>
        <time>2019-04-30T04:53:01Z</time>
      </trkpt>
      <trkpt lat="46.42046" lon="5.42601">
        <ele>394</ele>
        <time>2019-04-30T04:54:01Z</time>
      </trkpt>
      <trkpt lat="46.42015" lon="5.42662">
        <ele>392</ele>
        <time>2019-04-30T04:55:01Z</time>
      </trkpt>
      <trkpt lat="46.41995" lon="5.42697">
        <ele>391</ele>
        <time>2019-04-30T04:56:01Z</time>
      </trkpt>
      <trkpt lat="46.4198" lon="5.42726">
        <ele>391</ele>
        <time>2019-04-30T04:57:01Z</time>
      </trkpt>
      <trkpt lat="46.41979" lon="5.42729">
        <ele>391</ele>
        <time>2019-04-30T04:58:01Z</time>
      </trkpt>
      <trkpt lat="46.41954" lon="5.42773">
        <ele>389</ele>
        <time>2019-04-30T04:59:01Z</time>
      </trkpt>
      <trkpt lat="46.41937" lon="5.42797">
        <ele>389</ele>
        <time>2019-04-30T05:00:01Z</time>
      </trkpt>
      <trkpt lat="46.4192" lon="5.4282">
        <ele>388</ele>
        <time>2019-04-30T05:01:01Z</time>
      </trkpt>
      <trkpt lat="46.41885" lon="5.42867">
        <ele>384</ele>
        <time>2019-04-30T05:02:01Z</time>
      </trkpt>
      <trkpt lat="46.41862" lon="5.42898">
        <ele>381</ele>
        <time>2019-04-30T05:03:01Z</time>
      </trkpt>
      <trkpt lat="46.41838" lon="5.42929">
        <ele>379</ele>
        <time>2019-04-30T05:04:01Z</time>
      </trkpt>
      <trkpt lat="46.4181" lon="5.4297">
        <ele>378</ele>
        <time>2019-04-30T05:05:01Z</time>
      </trkpt>
      <trkpt lat="46.41779" lon="5.43014">
        <ele>375</ele>
        <time>2019-04-30T05:06:01Z</time>
      </trkpt>
      <trkpt lat="46.41743" lon="5.43066">
        <ele>372</ele>
        <time>2019-04-30T05:07:01Z</time>
      </trkpt>
      <trkpt lat="46.41715" lon="5.43106">
        <ele>372</ele>
        <time>2019-04-30T05:08:01Z</time>
      </trkpt>
      <trkpt lat="46.4171" lon="5.43112">
        <ele>372</ele>
        <time>2019-04-30T05:09:01Z</time>
      </trkpt>
      <trkpt lat="46.41706" lon="5.43119">
        <ele>372</ele>
        <time>2019-04-30T05:10:01Z</time>
      </trkpt>
      <trkpt lat="46.417" lon="5.43126">
        <ele>373</ele>
        <time>2019-04-30T05:11:01Z</time>
      </trkpt>
      <trkpt lat="46.41685" lon="5.43146">
        <ele>373</ele>
        <time>2019-04-30T05:12:01Z</time>
      </trkpt>
      <trkpt lat="46.41677" lon="5.43154">
        <ele>373</ele>
        <time>2019-04-30T05:13:01Z</time>
      </trkpt>
      <trkpt lat="46.41656" lon="5.43166">
        <ele>373</ele>
        <time>2019-04-30T05:14:01Z</time>
      </trkpt>
      <trkpt lat="46.41631" lon="5.43177">
        <ele>375</ele>
        <time>2019-04-30T05:15:01Z</time>
      </trkpt>
      <trkpt lat="46.41606" lon="5.43184">
        <ele>376</ele>
        <time>2019-04-30T05:16:01Z</time>
      </trkpt>
      <trkpt lat="46.41575" lon="5.43191">
        <ele>377</ele>
        <time>2019-04-30T05:17:01Z</time>
      </trkpt>
      <trkpt lat="46.41535" lon="5.432">
        <ele>379</ele>
        <time>2019-04-30T05:18:01Z</time>
      </trkpt>
      <trkpt lat="46.41508" lon="5.43206">
        <ele>380</ele>
        <time>2019-04-30T05:19:01Z</time>
      </trkpt>
      <trkpt lat="46.41482" lon="5.4321">
        <ele>380</ele>
        <time>2019-04-30T05:20:01Z</time>
      </trkpt>
      <trkpt lat="46.41458" lon="5.43213">
        <ele>380</ele>
        <time>2019-04-30T05:21:01Z</time>
      </trkpt>
      <trkpt lat="46.41416" lon="5.43217">
        <ele>380</ele>
        <time>2019-04-30T05:22:01Z</time>
      </trkpt>
      <trkpt lat="46.41387" lon="5.43221">
        <ele>380</ele>
        <time>2019-04-30T05:23:01Z</time>
      </trkpt>
      <trkpt lat="46.41363" lon="5.43225">
        <ele>379</ele>
        <time>2019-04-30T05:24:01Z</time>
      </trkpt>
      <trkpt lat="46.41342" lon="5.4323">
        <ele>378</ele>
        <time>2019-04-30T05:25:01Z</time>
      </trkpt>
      <trkpt lat="46.41331" lon="5.43235">
        <ele>378</ele>
        <time>2019-04-30T05:26:01Z</time>
      </trkpt>
      <trkpt lat="46.41318" lon="5.43244">
        <ele>378</ele>
        <time>2019-04-30T05:27:01Z</time>
      </trkpt>
      <trkpt lat="46.41305" lon="5.43258">
        <ele>378</ele>
        <time>2019-04-30T05:28:01Z</time>
      </trkpt>
      <trkpt lat="46.41295" lon="5.43274">
        <ele>378</ele>
        <time>2019-04-30T05:29:01Z</time>
      </trkpt>
      <trkpt lat="46.41284" lon="5.43298">
        <ele>379</ele>
        <time>2019-04-30T05:30:01Z</time>
      </trkpt>
      <trkpt lat="46.41272" lon="5.43331">
        <ele>379</ele>
        <time>2019-04-30T05:31:01Z</time>
      </trkpt>
      <trkpt lat="46.41259" lon="5.43371">
        <ele>376</ele>
        <time>2019-04-30T05:32:01Z</time>
      </trkpt>
      <trkpt lat="46.4125" lon="5.4339">
        <ele>374</ele>
        <time>2019-04-30T05:33:01Z</time>
      </trkpt>
      <trkpt lat="46.41242" lon="5.43405">
        <ele>374</ele>
        <time>2019-04-30T05:34:01Z</time>
      </trkpt>
      <trkpt lat="46.41232" lon="5.43421">
        <ele>373</ele>
        <time>2019-04-30T05:35:01Z</time>
      </trkpt>
      <trkpt lat="46.41225" lon="5.4343">
        <ele>373</ele>
        <time>2019-04-30T05:36:01Z</time>
      </trkpt>
      <trkpt lat="46.41218" lon="5.4344">
        <ele>373</ele>
        <time>2019-04-30T05:37:01Z</time>
      </trkpt>
      <trkpt lat="46.41202" lon="5.43456">
        <ele>373</ele>
        <time>2019-04-30T05:38:01Z</time>
      </trkpt>
      <trkpt lat="46.41152" lon="5.4349">
        <ele>373</ele>
        <time>2019-04-30T05:39:01Z</time>
      </trkpt>
      <trkpt lat="46.41035" lon="5.43569">
        <ele>376</ele>
        <time>2019-04-30T05:40:01Z</time>
      </trkpt>
      <trkpt lat="46.4099" lon="5.43601">
        <ele>379</ele>
        <time>2019-04-30T05:41:01Z</time>
      </trkpt>
      <trkpt lat="46.40967" lon="5.43618">
        <ele>381</ele>
        <time>2019-04-30T05:42:01Z</time>
      </trkpt>
      <trkpt lat="46.40949" lon="5.43628">
        <ele>381</ele>
        <time>2019-04-30T05:43:01Z</time>
      </trkpt>
      <trkpt lat="46.4093" lon="5.43638">
        <ele>380</ele>
        <time>2019-04-30T05:44:01Z</time>
      </trkpt>
      <trkpt lat="46.40915" lon="5.43645">
        <ele>379</ele>
        <time>2019-04-30T05:45:01Z</time>
      </trkpt>
      <trkpt lat="46.40862" lon="5.43662">
        <ele>379</ele>
        <time>2019-04-30T05:46:01Z</time>
      </trkpt>
      <trkpt lat="46.40848" lon="5.43667">
        <ele>378</ele>
        <time>2019-04-30T05:47:01Z</time>
      </trkpt>
      <trkpt lat="46.40822" lon="5.43677">
        <ele>381</ele>
        <time>2019-04-30T05:48:01Z</time>
      </trkpt>
      <trkpt lat="46.40792" lon="5.43684">
        <ele>383</ele>
        <time>2019-04-30T05:49:01Z</time>
      </trkpt>
      <trkpt lat="46.40771" lon="5.43685">
        <ele>382</ele>
        <time>2019-04-30T05:50:01Z</time>
      </trkpt>
      <trkpt lat="46.40757" lon="5.43685">
        <ele>382</ele>
        <time>2019-04-30T05:51:01Z</time>
      </trkpt>
      <trkpt lat="46.40738" lon="5.43683">
        <ele>382</ele>
        <time>2019-04-30T05:52:01Z</time>
      </trkpt>
      <trkpt lat="46.40696" lon="5.43676">
        <ele>380</ele>
        <time>2019-04-30T05:53:01Z</time>
      </trkpt>
      <trkpt lat="46.40677" lon="5.43673">
        <ele>379</ele>
        <time>2019-04-30T05:54:01Z</time>
      </trkpt>
      <trkpt lat="46.40663" lon="5.43672">
        <ele>378</ele>
        <time>2019-04-30T05:55:01Z</time>
      </trkpt>
      <trkpt lat="46.4058" lon="5.43679">
        <ele>377</ele>
        <time>2019-04-30T05:56:01Z</time>
      </trkpt>
      <trkpt lat="46.40559" lon="5.43681">
        <ele>377</ele>
        <time>2019-04-30T05:57:01Z</time>
      </trkpt>
      <trkpt lat="46.40537" lon="5.43687">
        <ele>378</ele>
        <time>2019-04-30T05:58:01Z</time>
      </trkpt>
      <trkpt lat="46.40517" lon="5.43697">
        <ele>379</ele>
        <time>2019-04-30T05:59:01Z</time>
      </trkpt>
      <trkpt lat="46.40505" lon="5.43705">
        <ele>380</ele>
        <time>2019-04-30T06:00:01Z</time>
      </trkpt>
      <trkpt lat="46.4049" lon="5.43719">
        <ele>381</ele>
        <time>2019-04-30T06:01:01Z</time>
      </trkpt>
      <trkpt lat="46.40401" lon="5.43834">
        <ele>382</ele>
        <time>2019-04-30T06:02:01Z</time>
      </trkpt>
      <trkpt lat="46.40347" lon="5.43907">
        <ele>377</ele>
        <time>2019-04-30T06:03:01Z</time>
      </trkpt>
      <trkpt lat="46.40332" lon="5.43927">
        <ele>374</ele>
        <time>2019-04-30T06:04:01Z</time>
      </trkpt>
      <trkpt lat="46.40305" lon="5.43964">
        <ele>376</ele>
        <time>2019-04-30T06:05:01Z</time>
      </trkpt>
      <trkpt lat="46.40283" lon="5.43994">
        <ele>374</ele>
        <time>2019-04-30T06:06:01Z</time>
      </trkpt>
      <trkpt lat="46.4025" lon="5.44033">
        <ele>372</ele>
        <time>2019-04-30T06:07:01Z</time>
      </trkpt>
      <trkpt lat="46.40235" lon="5.44052">
        <ele>374</ele>
        <time>2019-04-30T06:08:01Z</time>
      </trkpt>
      <trkpt lat="46.40229" lon="5.44064">
        <ele>374</ele>
        <time>2019-04-30T06:09:01Z</time>
      </trkpt>
      <trkpt lat="46.40226" lon="5.44078">
        <ele>374</ele>
        <time>2019-04-30T06:10:01Z</time>
      </trkpt>
      <trkpt lat="46.40224" lon="5.44094">
        <ele>374</ele>
        <time>2019-04-30T06:11:01Z</time>
      </trkpt>
      <trkpt lat="46.40221" lon="5.44114">
        <ele>373</ele>
        <time>2019-04-30T06:12:01Z</time>
      </trkpt>
      <trkpt lat="46.40221" lon="5.44138">
        <ele>372</ele>
        <time>2019-04-30T06:13:01Z</time>
      </trkpt>
      <trkpt lat="46.40222" lon="5.44164">
        <ele>371</ele>
        <time>2019-04-30T06:14:01Z</time>
      </trkpt>
      <trkpt lat="46.40226" lon="5.44188">
        <ele>370</ele>
        <time>2019-04-30T06:15:01Z</time>
      </trkpt>
      <trkpt lat="46.40231" lon="5.4422">
        <ele>367</ele>
        <time>2019-04-30T06:16:01Z</time>
      </trkpt>
      <trkpt lat="46.40236" lon="5.44254">
        <ele>365</ele>
        <time>2019-04-30T06:17:01Z</time>
      </trkpt>
      <trkpt lat="46.40238" lon="5.44281">
        <ele>365</ele>
        <time>2019-04-30T06:18:01Z</time>
      </trkpt>
      <trkpt lat="46.40239" lon="5.44302">
        <ele>364</ele>
        <time>2019-04-30T06:19:01Z</time>
      </trkpt>
      <trkpt lat="46.40238" lon="5.44324">
        <ele>364</ele>
        <time>2019-04-30T06:20:01Z</time>
      </trkpt>
      <trkpt lat="46.40236" lon="5.4434">
        <ele>363</ele>
        <time>2019-04-30T06:21:01Z</time>
      </trkpt>
      <trkpt lat="46.40233" lon="5.4435">
        <ele>363</ele>
        <time>2019-04-30T06:22:01Z</time>
      </trkpt>
      <trkpt lat="46.40225" lon="5.44367">
        <ele>362</ele>
        <time>2019-04-30T06:23:01Z</time>
      </trkpt>
      <trkpt lat="46.4021" lon="5.44388">
        <ele>361</ele>
        <time>2019-04-30T06:24:01Z</time>
      </trkpt>
      <trkpt lat="46.40192" lon="5.44414">
        <ele>360</ele>
        <time>2019-04-30T06:25:01Z</time>
      </trkpt>
      <trkpt lat="46.40173" lon="5.44434">
        <ele>360</ele>
        <time>2019-04-30T06:26:01Z</time>
      </trkpt>
      <trkpt lat="46.40155" lon="5.44451">
        <ele>359</ele>
        <time>2019-04-30T06:27:01Z</time>
      </trkpt>
      <trkpt lat="46.40137" lon="5.44469">
        <ele>359</ele>
        <time>2019-04-30T06:28:01Z</time>
      </trkpt>
      <trkpt lat="46.40117" lon="5.44488">
        <ele>359</ele>
        <time>2019-04-30T06:29:01Z</time>
      </trkpt>
      <trkpt lat="46.40098" lon="5.44503">
        <ele>359</ele>
        <time>2019-04-30T06:30:01Z</time>
      </trkpt>
      <trkpt lat="46.40084" lon="5.44514">
        <ele>359</ele>
        <time>2019-04-30T06:31:01Z</time>
      </trkpt>
      <trkpt lat="46.40063" lon="5.44528">
        <ele>359</ele>
        <time>2019-04-30T06:32:01Z</time>
      </trkpt>
      <trkpt lat="46.40042" lon="5.44542">
        <ele>359</ele>
        <time>2019-04-30T06:33:01Z</time>
      </trkpt>
      <trkpt lat="46.40015" lon="5.44557">
        <ele>359</ele>
        <time>2019-04-30T06:34:01Z</time>
      </trkpt>
      <trkpt lat="46.3999" lon="5.44572">
        <ele>359</ele>
        <time>2019-04-30T06:35:01Z</time>
      </trkpt>
      <trkpt lat="46.39964" lon="5.44588">
        <ele>359</ele>
        <time>2019-04-30T06:36:01Z</time>
      </trkpt>
      <trkpt lat="46.39946" lon="5.44598">
        <ele>358</ele>
        <time>2019-04-30T06:37:01Z</time>
      </trkpt>
      <trkpt lat="46.39937" lon="5.44605">
        <ele>358</ele>
        <time>2019-04-30T06:38:01Z</time>
      </trkpt>
      <trkpt lat="46.39923" lon="5.44617">
        <ele>358</ele>
        <time>2019-04-30T06:39:01Z</time>
      </trkpt>
      <trkpt lat="46.39908" lon="5.44635">
        <ele>358</ele>
        <time>2019-04-30T06:40:01Z</time>
      </trkpt>
      <trkpt lat="46.39903" lon="5.44643">
        <ele>358</ele>
        <time>2019-04-30T06:41:01Z</time>
      </trkpt>
      <trkpt lat="46.39895" lon="5.44658">
        <ele>358</ele>
        <time>2019-04-30T06:42:01Z</time>
      </trkpt>
      <trkpt lat="46.39886" lon="5.44675">
        <ele>358</ele>
        <time>2019-04-30T06:43:01Z</time>
      </trkpt>
      <trkpt lat="46.39867" lon="5.44706">
        <ele>357</ele>
        <time>2019-04-30T06:44:01Z</time>
      </trkpt>
      <trkpt lat="46.39843" lon="5.44748">
        <ele>357</ele>
        <time>2019-04-30T06:45:01Z</time>
      </trkpt>
      <trkpt lat="46.39819" lon="5.44786">
        <ele>358</ele>
        <time>2019-04-30T06:46:01Z</time>
      </trkpt>
      <trkpt lat="46.39798" lon="5.44819">
        <ele>358</ele>
        <time>2019-04-30T06:47:01Z</time>
      </trkpt>
      <trkpt lat="46.39786" lon="5.44837">
        <ele>358</ele>
        <time>2019-04-30T06:48:01Z</time>
      </trkpt>
      <trkpt lat="46.39772" lon="5.44861">
        <ele>357</ele>
        <time>2019-04-30T06:49:01Z</time>
      </trkpt>
      <trkpt lat="46.39741" lon="5.44905">
        <ele>354</ele>
        <time>2019-04-30T06:50:01Z</time>
      </trkpt>
      <trkpt lat="46.39725" lon="5.44929">
        <ele>353</ele>
        <time>2019-04-30T06:51:01Z</time>
      </trkpt>
      <trkpt lat="46.39714" lon="5.44946">
        <ele>353</ele>
        <time>2019-04-30T06:52:01Z</time>
      </trkpt>
      <trkpt lat="46.39709" lon="5.44957">
        <ele>353</ele>
        <time>2019-04-30T06:53:01Z</time>
      </trkpt>
      <trkpt lat="46.39702" lon="5.44977">
        <ele>352</ele>
        <time>2019-04-30T06:54:01Z</time>
      </trkpt>
      <trkpt lat="46.39694" lon="5.45">
        <ele>352</ele>
        <time>2019-04-30T06:55:01Z</time>
      </trkpt>
      <trkpt lat="46.3967" lon="5.4507">
        <ele>352</ele>
        <time>2019-04-30T06:56:01Z</time>
      </trkpt>
      <trkpt lat="46.39664" lon="5.45089">
        <ele>352</ele>
        <time>2019-04-30T06:57:01Z</time>
      </trkpt>
      <trkpt lat="46.39657" lon="5.45105">
        <ele>354</ele>
        <time>2019-04-30T06:58:01Z</time>
      </trkpt>
      <trkpt lat="46.39653" lon="5.45117">
        <ele>354</ele>
        <time>2019-04-30T06:59:01Z</time>
      </trkpt>
      <trkpt lat="46.39648" lon="5.45128">
        <ele>355</ele>
        <time>2019-04-30T07:00:01Z</time>
      </trkpt>
      <trkpt lat="46.39633" lon="5.45172">
        <ele>361</ele>
        <time>2019-04-30T07:01:01Z</time>
      </trkpt>
      <trkpt lat="46.39633" lon="5.45172">
        <ele>361</ele>
        <time>2019-04-30T07:02:01Z</time>
      </trkpt>
      <trkpt lat="46.39625" lon="5.45171">
        <ele>361</ele>
        <time>2019-04-30T07:03:01Z</time>
      </trkpt>
      <trkpt lat="46.3962" lon="5.4517">
        <ele>361</ele>
        <time>2019-04-30T07:04:01Z</time>
      </trkpt>
      <trkpt lat="46.39606" lon="5.45169">
        <ele>361</ele>
        <time>2019-04-30T07:05:01Z</time>
      </trkpt>
      <trkpt lat="46.39588" lon="5.45166">
        <ele>362</ele>
        <time>2019-04-30T07:06:01Z</time>
      </trkpt>
      <trkpt lat="46.39569" lon="5.45165">
        <ele>362</ele>
        <time>2019-04-30T07:07:01Z</time>
      </trkpt>
      <trkpt lat="46.3956" lon="5.45167">
        <ele>362</ele>
        <time>2019-04-30T07:08:01Z</time>
      </trkpt>
      <trkpt lat="46.39553" lon="5.45169">
        <ele>363</ele>
        <time>2019-04-30T07:09:01Z</time>
      </trkpt>
      <trkpt lat="46.3954" lon="5.45177">
        <ele>365</ele>
        <time>2019-04-30T07:10:01Z</time>
      </trkpt>
      <trkpt lat="46.39529" lon="5.45184">
        <ele>367</ele>
        <time>2019-04-30T07:11:01Z</time>
      </trkpt>
      <trkpt lat="46.39489" lon="5.45202">
        <ele>370</ele>
        <time>2019-04-30T07:12:01Z</time>
      </trkpt>
      <trkpt lat="46.39453" lon="5.45218">
        <ele>373</ele>
        <time>2019-04-30T07:13:01Z</time>
      </trkpt>
      <trkpt lat="46.39417" lon="5.45235">
        <ele>376</ele>
        <time>2019-04-30T07:14:01Z</time>
      </trkpt>
      <trkpt lat="46.394" lon="5.45246">
        <ele>378</ele>
        <time>2019-04-30T07:15:01Z</time>
      </trkpt>
      <trkpt lat="46.39398" lon="5.45248">
        <ele>378</ele>
        <time>2019-04-30T07:16:01Z</time>
      </trkpt>
      <trkpt lat="46.39398" lon="5.45252">
        <ele>379</ele>
        <time>2019-04-30T07:17:01Z</time>
      </trkpt>
      <trkpt lat="46.39398" lon="5.45255">
        <ele>380</ele>
        <time>2019-04-30T07:18:01Z</time>
      </trkpt>
      <trkpt lat="46.39398" lon="5.45255">
        <ele>380</ele>
        <time>2019-04-30T07:19:01Z</time>
      </trkpt>
      <trkpt lat="46.39384" lon="5.45261">
        <ele>380</ele>
        <time>2019-04-30T07:20:01Z</time>
      </trkpt>
      <trkpt lat="46.39374" lon="5.45266">
        <ele>381</ele>
        <time>2019-04-30T07:21:01Z</time>
      </trkpt>
      <trkpt lat="46.3936" lon="5.45272">
        <ele>382</ele>
        <time>2019-04-30T07:22:01Z</time>
      </trkpt>
      <trkpt lat="46.39338" lon="5.45284">
        <ele>383</ele>
        <time>2019-04-30T07:23:01Z</time>
      </trkpt>
      <trkpt lat="46.3933" lon="5.45286">
        <ele>383</ele>
        <time>2019-04-30T07:24:01Z</time>
      </trkpt>
      <trkpt lat="46.39326" lon="5.45288">
        <ele>383</ele>
        <time>2019-04-30T07:25:01Z</time>
      </trkpt>
      <trkpt lat="46.39316" lon="5.45291">
        <ele>384</ele>
        <time>2019-04-30T07:26:01Z</time>
      </trkpt>
      <trkpt lat="46.39295" lon="5.45297">
        <ele>385</ele>
        <time>2019-04-30T07:27:01Z</time>
      </trkpt>
      <trkpt lat="46.39295" lon="5.45297">
        <ele>385</ele>
        <time>2019-04-30T07:28:01Z</time>
      </trkpt>
      <trkpt lat="46.393" lon="5.45304">
        <ele>386</ele>
        <time>2019-04-30T07:29:01Z</time>
      </trkpt>
      <trkpt lat="46.39315" lon="5.45318">
        <ele>388</ele>
        <time>2019-04-30T07:30:01Z</time>
      </trkpt>
      <trkpt lat="46.39341" lon="5.4534">
        <ele>390</ele>
        <time>2019-04-30T07:31:01Z</time>
      </trkpt>
      <trkpt lat="46.39367" lon="5.45358">
        <ele>392</ele>
        <time>2019-04-30T07:32:01Z</time>
      </trkpt>
      <trkpt lat="46.39374" lon="5.45363">
        <ele>392</ele>
        <time>2019-04-30T07:33:01Z</time>
      </trkpt>
      <trkpt lat="46.39379" lon="5.45367">
        <ele>392</ele>
        <time>2019-04-30T07:34:01Z</time>
      </trkpt>
      <trkpt lat="46.39385" lon="5.45378">
        <ele>392</ele>
        <time>2019-04-30T07:35:01Z</time>
      </trkpt>
      <trkpt lat="46.39386" lon="5.45386">
        <ele>393</ele>
        <time>2019-04-30T07:36:01Z</time>
      </trkpt>
      <trkpt lat="46.39388" lon="5.454">
        <ele>393</ele>
        <time>2019-04-30T07:37:01Z</time>
      </trkpt>
      <trkpt lat="46.39389" lon="5.45409">
        <ele>393</ele>
        <time>2019-04-30T07:38:01Z</time>
      </trkpt>
      <trkpt lat="46.3939" lon="5.45417">
        <ele>393</ele>
        <time>2019-04-30T07:39:01Z</time>
      </trkpt>
      <trkpt lat="46.39389" lon="5.45431">
        <ele>392</ele>
        <time>2019-04-30T07:40:01Z</time>
      </trkpt>
      <trkpt lat="46.39387" lon="5.45444">
        <ele>392</ele>
        <time>2019-04-30T07:41:01Z</time>
      </trkpt>
      <trkpt lat="46.3938" lon="5.45454">
        <ele>391</ele>
        <time>2019-04-30T07:42:01Z</time>
      </trkpt>
      <trkpt lat="46.39372" lon="5.45462">
        <ele>391</ele>
        <time>2019-04-30T07:43:01Z</time>
      </trkpt>
      <trkpt lat="46.39362" lon="5.45476">
        <ele>391</ele>
        <time>2019-04-30T07:44:01Z</time>
      </trkpt>
      <trkpt lat="46.39353" lon="5.45489">
        <ele>391</ele>
        <time>2019-04-30T07:45:01Z</time>
      </trkpt>
      <trkpt lat="46.39345" lon="5.45504">
        <ele>390</ele>
        <time>2019-04-30T07:46:01Z</time>
      </trkpt>
      <trkpt lat="46.39338" lon="5.45523">
        <ele>389</ele>
        <time>2019-04-30T07:47:01Z</time>
      </trkpt>
      <trkpt lat="46.39332" lon="5.45547">
        <ele>387</ele>
        <time>2019-04-30T07:48:01Z</time>
      </trkpt>
      <trkpt lat="46.39331" lon="5.45563">
        <ele>385</ele>
        <time>2019-04-30T07:49:01Z</time>
      </trkpt>
      <trkpt lat="46.39329" lon="5.45588">
        <ele>383</ele>
        <time>2019-04-30T07:50:01Z</time>
      </trkpt>
      <trkpt lat="46.39325" lon="5.45627">
        <ele>381</ele>
        <time>2019-04-30T07:51:01Z</time>
      </trkpt>
      <trkpt lat="46.39322" lon="5.45669">
        <ele>378</ele>
        <time>2019-04-30T07:52:01Z</time>
      </trkpt>
      <trkpt lat="46.39322" lon="5.45694">
        <ele>378</ele>
        <time>2019-04-30T07:53:01Z</time>
      </trkpt>
      <trkpt lat="46.39326" lon="5.45713">
        <ele>379</ele>
        <time>2019-04-30T07:54:01Z</time>
      </trkpt>
      <trkpt lat="46.39328" lon="5.45721">
        <ele>379</ele>
        <time>2019-04-30T07:55:01Z</time>
      </trkpt>
      <trkpt lat="46.39337" lon="5.45741">
        <ele>379</ele>
        <time>2019-04-30T07:56:01Z</time>
      </trkpt>
      <trkpt lat="46.3935" lon="5.45759">
        <ele>380</ele>
        <time>2019-04-30T07:57:01Z</time>
      </trkpt>
      <trkpt lat="46.39365" lon="5.45779">
        <ele>381</ele>
        <time>2019-04-30T07:58:01Z</time>
      </trkpt>
      <trkpt lat="46.39384" lon="5.45803">
        <ele>383</ele>
        <time>2019-04-30T07:59:01Z</time>
      </trkpt>
      <trkpt lat="46.39403" lon="5.4583">
        <ele>386</ele>
        <time>2019-04-30T08:00:01Z</time>
      </trkpt>
      <trkpt lat="46.39421" lon="5.45855">
        <ele>388</ele>
        <time>2019-04-30T08:01:01Z</time>
      </trkpt>
      <trkpt lat="46.39434" lon="5.45873">
        <ele>391</ele>
        <time>2019-04-30T08:02:01Z</time>
      </trkpt>
      <trkpt lat="46.3944" lon="5.45885">
        <ele>392</ele>
        <time>2019-04-30T08:03:01Z</time>
      </trkpt>
      <trkpt lat="46.39444" lon="5.45892">
        <ele>393</ele>
        <time>2019-04-30T08:04:01Z</time>
      </trkpt>
      <trkpt lat="46.39454" lon="5.45919">
        <ele>396</ele>
        <time>2019-04-30T08:05:01Z</time>
      </trkpt>
      <trkpt lat="46.3946" lon="5.45942">
        <ele>397</ele>
        <time>2019-04-30T08:06:01Z</time>
      </trkpt>
      <trkpt lat="46.39463" lon="5.45966">
        <ele>399</ele>
        <time>2019-04-30T08:07:01Z</time>
      </trkpt>
      <trkpt lat="46.39466" lon="5.45993">
        <ele>400</ele>
        <time>2019-04-30T08:08:01Z</time>
      </trkpt>
      <trkpt lat="46.39467" lon="5.46025">
        <ele>400</ele>
        <time>2019-04-30T08:09:01Z</time>
      </trkpt>
      <trkpt lat="46.39466" lon="5.46055">
        <ele>400</ele>
        <time>2019-04-30T08:10:01Z</time>
      </trkpt>
      <trkpt lat="46.39464" lon="5.46078">
        <ele>400</ele>
        <time>2019-04-30T08:11:01Z</time>
      </trkpt>
      <trkpt lat="46.3946" lon="5.46109">
        <ele>401</ele>
        <time>2019-04-30T08:12:01Z</time>
      </trkpt>
      <trkpt lat="46.39454" lon="5.4614">
        <ele>401</ele>
        <time>2019-04-30T08:13:01Z</time>
      </trkpt>
      <trkpt lat="46.3945" lon="5.46172">
        <ele>402</ele>
        <time>2019-04-30T08:14:01Z</time>
      </trkpt>
      <trkpt lat="46.39444" lon="5.46214">
        <ele>403</ele>
        <time>2019-04-30T08:15:01Z</time>
      </trkpt>
      <trkpt lat="46.3944" lon="5.46248">
        <ele>403</ele>
        <time>2019-04-30T08:16:01Z</time>
      </trkpt>
      <trkpt lat="46.39438" lon="5.46272">
        <ele>403</ele>
        <time>2019-04-30T08:17:01Z</time>
      </trkpt>
      <trkpt lat="46.39438" lon="5.46293">
        <ele>403</ele>
        <time>2019-04-30T08:18:01Z</time>
      </trkpt>
      <trkpt lat="46.39439" lon="5.46306">
        <ele>403</ele>
        <time>2019-04-30T08:19:01Z</time>
      </trkpt>
      <trkpt lat="46.39442" lon="5.46325">
        <ele>403</ele>
        <time>2019-04-30T08:20:01Z</time>
      </trkpt>
      <trkpt lat="46.39449" lon="5.46343">
        <ele>404</ele>
        <time>2019-04-30T08:21:01Z</time>
      </trkpt>
      <trkpt lat="46.39455" lon="5.46359">
        <ele>404</ele>
        <time>2019-04-30T08:22:01Z</time>
      </trkpt>
      <trkpt lat="46.39466" lon="5.46381">
        <ele>404</ele>
        <time>2019-04-30T08:23:01Z</time>
      </trkpt>
      <trkpt lat="46.39482" lon="5.46413">
        <ele>405</ele>
        <time>2019-04-30T08:24:01Z</time>
      </trkpt>
      <trkpt lat="46.3949" lon="5.46428">
        <ele>406</ele>
        <time>2019-04-30T08:25:01Z</time>
      </trkpt>
      <trkpt lat="46.39507" lon="5.46453">
        <ele>407</ele>
        <time>2019-04-30T08:26:01Z</time>
      </trkpt>
      <trkpt lat="46.39516" lon="5.46464">
        <ele>407</ele>
        <time>2019-04-30T08:27:01Z</time>
      </trkpt>
      <trkpt lat="46.39532" lon="5.46484">
        <ele>409</ele>
        <time>2019-04-30T08:28:01Z</time>
      </trkpt>
      <trkpt lat="46.39546" lon="5.465">
        <ele>410</ele>
        <time>2019-04-30T08:29:01Z</time>
      </trkpt>
      <trkpt lat="46.39559" lon="5.46513">
        <ele>411</ele>
        <time>2019-04-30T08:30:01Z</time>
      </trkpt>
      <trkpt lat="46.39564" lon="5.4652">
        <ele>412</ele>
        <time>2019-04-30T08:31:01Z</time>
      </trkpt>
      <trkpt lat="46.39576" lon="5.46533">
        <ele>414</ele>
        <time>2019-04-30T08:32:01Z</time>
      </trkpt>
      <trkpt lat="46.39579" lon="5.46536">
        <ele>414</ele>
        <time>2019-04-30T08:33:01Z</time>
      </trkpt>
      <trkpt lat="46.39591" lon="5.4655">
        <ele>415</ele>
        <time>2019-04-30T08:34:01Z</time>
      </trkpt>
      <trkpt lat="46.39613" lon="5.46573">
        <ele>416</ele>
        <time>2019-04-30T08:35:01Z</time>
      </trkpt>
      <trkpt lat="46.39629" lon="5.46591">
        <ele>418</ele>
        <time>2019-04-30T08:36:01Z</time>
      </trkpt>
      <trkpt lat="46.39643" lon="5.46608">
        <ele>419</ele>
        <time>2019-04-30T08:37:01Z</time>
      </trkpt>
      <trkpt lat="46.39651" lon="5.4662">
        <ele>421</ele>
        <time>2019-04-30T08:38:01Z</time>
      </trkpt>
      <trkpt lat="46.39658" lon="5.46634">
        <ele>422</ele>
        <time>2019-04-30T08:39:01Z</time>
      </trkpt>
      <trkpt lat="46.39665" lon="5.46649">
        <ele>423</ele>
        <time>2019-04-30T08:40:01Z</time>
      </trkpt>
      <trkpt lat="46.39683" lon="5.46693">
        <ele>426</ele>
        <time>2019-04-30T08:41:01Z</time>
      </trkpt>
      <trkpt lat="46.39692" lon="5.46716">
        <ele>428</ele>
        <time>2019-04-30T08:42:01Z</time>
      </trkpt>
      <trkpt lat="46.39701" lon="5.46743">
        <ele>429</ele>
        <time>2019-04-30T08:43:01Z</time>
      </trkpt>
      <trkpt lat="46.39707" lon="5.46765">
        <ele>430</ele>
        <time>2019-04-30T08:44:01Z</time>
      </trkpt>
      <trkpt lat="46.39713" lon="5.46792">
        <ele>430</ele>
        <time>2019-04-30T08:45:01Z</time>
      </trkpt>
      <trkpt lat="46.39719" lon="5.46819">
        <ele>430</ele>
        <time>2019-04-30T08:46:01Z</time>
      </trkpt>
      <trkpt lat="46.39725" lon="5.46849">
        <ele>430</ele>
        <time>2019-04-30T08:47:01Z</time>
      </trkpt>
      <trkpt lat="46.39732" lon="5.46877">
        <ele>430</ele>
        <time>2019-04-30T08:48:01Z</time>
      </trkpt>
      <trkpt lat="46.3974" lon="5.46908">
        <ele>430</ele>
        <time>2019-04-30T08:49:01Z</time>
      </trkpt>
      <trkpt lat="46.39748" lon="5.46946">
        <ele>431</ele>
        <time>2019-04-30T08:50:01Z</time>
      </trkpt>
      <trkpt lat="46.39762" lon="5.47002">
        <ele>433</ele>
        <time>2019-04-30T08:51:01Z</time>
      </trkpt>
      <trkpt lat="46.39781" lon="5.47074">
        <ele>435</ele>
        <time>2019-04-30T08:52:01Z</time>
      </trkpt>
      <trkpt lat="46.39799" lon="5.47143">
        <ele>438</ele>
        <time>2019-04-30T08:53:01Z</time>
      </trkpt>
      <trkpt lat="46.39809" lon="5.47181">
        <ele>440</ele>
        <time>2019-04-30T08:54:01Z</time>
      </trkpt>
      <trkpt lat="46.39815" lon="5.47204">
        <ele>442</ele>
        <time>2019-04-30T08:55:01Z</time>
      </trkpt>
      <trkpt lat="46.39815" lon="5.47204">
        <ele>442</ele>
        <time>2019-04-30T08:56:01Z</time>
      </trkpt>
      <trkpt lat="46.3982" lon="5.47191">
        <ele>441</ele>
        <time>2019-04-30T08:57:01Z</time>
      </trkpt>
      <trkpt lat="46.39838" lon="5.47151">
        <ele>440</ele>
        <time>2019-04-30T08:58:01Z</time>
      </trkpt>
      <trkpt lat="46.39845" lon="5.47133">
        <ele>439</ele>
        <time>2019-04-30T08:59:01Z</time>
      </trkpt>
      <trkpt lat="46.3985" lon="5.47121">
        <ele>438</ele>
        <time>2019-04-30T09:00:01Z</time>
      </trkpt>
      <trkpt lat="46.39856" lon="5.4711">
        <ele>437</ele>
        <time>2019-04-30T09:01:01Z</time>
      </trkpt>
      <trkpt lat="46.39863" lon="5.47104">
        <ele>437</ele>
        <time>2019-04-30T09:02:01Z</time>
      </trkpt>
      <trkpt lat="46.39871" lon="5.47099">
        <ele>437</ele>
        <time>2019-04-30T09:03:01Z</time>
      </trkpt>
      <trkpt lat="46.39903" lon="5.47087">
        <ele>437</ele>
        <time>2019-04-30T09:04:01Z</time>
      </trkpt>
      <trkpt lat="46.39915" lon="5.47082">
        <ele>437</ele>
        <time>2019-04-30T09:05:01Z</time>
      </trkpt>
      <trkpt lat="46.39933" lon="5.47076">
        <ele>437</ele>
        <time>2019-04-30T09:06:01Z</time>
      </trkpt>
      <trkpt lat="46.39948" lon="5.4707">
        <ele>437</ele>
        <time>2019-04-30T09:07:01Z</time>
      </trkpt>
      <trkpt lat="46.39961" lon="5.47063">
        <ele>437</ele>
        <time>2019-04-30T09:08:01Z</time>
      </trkpt>
      <trkpt lat="46.3998" lon="5.47058">
        <ele>437</ele>
        <time>2019-04-30T09:09:01Z</time>
      </trkpt>
      <trkpt lat="46.39987" lon="5.47052">
        <ele>437</ele>
        <time>2019-04-30T09:10:01Z</time>
      </trkpt>
      <trkpt lat="46.3999" lon="5.47046">
        <ele>437</ele>
        <time>2019-04-30T09:11:01Z</time>
      </trkpt>
      <trkpt lat="46.39994" lon="5.47035">
        <ele>436</ele>
        <time>2019-04-30T09:12:01Z</time>
      </trkpt>
      <trkpt lat="46.39993" lon="5.47018">
        <ele>436</ele>
        <time>2019-04-30T09:13:01Z</time>
      </trkpt>
      <trkpt lat="46.39992" lon="5.46984">
        <ele>437</ele>
        <time>2019-04-30T09:14:01Z</time>
      </trkpt>
      <trkpt lat="46.39989" lon="5.46944">
        <ele>438</ele>
        <time>2019-04-30T09:15:01Z</time>
      </trkpt>
      <trkpt lat="46.3998" lon="5.46904">
        <ele>440</ele>
        <time>2019-04-30T09:16:01Z</time>
      </trkpt>
      <trkpt lat="46.39977" lon="5.46885">
        <ele>441</ele>
        <time>2019-04-30T09:17:01Z</time>
      </trkpt>
      <trkpt lat="46.39976" lon="5.46869">
        <ele>442</ele>
        <time>2019-04-30T09:18:01Z</time>
      </trkpt>
      <trkpt lat="46.39978" lon="5.46847">
        <ele>444</ele>
        <time>2019-04-30T09:19:01Z</time>
      </trkpt>
      <trkpt lat="46.39983" lon="5.4683">
        <ele>445</ele>
        <time>2019-04-30T09:20:01Z</time>
      </trkpt>
      <trkpt lat="46.39985" lon="5.46815">
        <ele>445</ele>
        <time>2019-04-30T09:21:01Z</time>
      </trkpt>
      <trkpt lat="46.39982" lon="5.46784">
        <ele>445</ele>
        <time>2019-04-30T09:22:01Z</time>
      </trkpt>
      <trkpt lat="46.39982" lon="5.46764">
        <ele>446</ele>
        <time>2019-04-30T09:23:01Z</time>
      </trkpt>
      <trkpt lat="46.39986" lon="5.46749">
        <ele>446</ele>
        <time>2019-04-30T09:24:01Z</time>
      </trkpt>
      <trkpt lat="46.39997" lon="5.46718">
        <ele>444</ele>
        <time>2019-04-30T09:25:01Z</time>
      </trkpt>
      <trkpt lat="46.40007" lon="5.467">
        <ele>442</ele>
        <time>2019-04-30T09:26:01Z</time>
      </trkpt>
      <trkpt lat="46.4001" lon="5.46684">
        <ele>441</ele>
        <time>2019-04-30T09:27:01Z</time>
      </trkpt>
      <trkpt lat="46.40013" lon="5.46668">
        <ele>440</ele>
        <time>2019-04-30T09:28:01Z</time>
      </trkpt>
      <trkpt lat="46.40012" lon="5.46649">
        <ele>439</ele>
        <time>2019-04-30T09:29:01Z</time>
      </trkpt>
      <trkpt lat="46.40011" lon="5.46631">
        <ele>438</ele>
        <time>2019-04-30T09:30:01Z</time>
      </trkpt>
      <trkpt lat="46.40005" lon="5.4661">
        <ele>437</ele>
        <time>2019-04-30T09:31:01Z</time>
      </trkpt>
      <trkpt lat="46.4" lon="5.46588">
        <ele>436</ele>
        <time>2019-04-30T09:32:01Z</time>
      </trkpt>
      <trkpt lat="46.39996" lon="5.46565">
        <ele>435</ele>
        <time>2019-04-30T09:33:01Z</time>
      </trkpt>
      <trkpt lat="46.39995" lon="5.46546">
        <ele>434</ele>
        <time>2019-04-30T09:34:01Z</time>
      </trkpt>
      <trkpt lat="46.39994" lon="5.46528">
        <ele>434</ele>
        <time>2019-04-30T09:35:01Z</time>
      </trkpt>
      <trkpt lat="46.39994" lon="5.46518">
        <ele>433</ele>
        <time>2019-04-30T09:36:01Z</time>
      </trkpt>
      <trkpt lat="46.39988" lon="5.46504">
        <ele>433</ele>
        <time>2019-04-30T09:37:01Z</time>
      </trkpt>
      <trkpt lat="46.39981" lon="5.4649">
        <ele>431</ele>
        <time>2019-04-30T09:38:01Z</time>
      </trkpt>
      <trkpt lat="46.39972" lon="5.46483">
        <ele>430</ele>
        <time>2019-04-30T09:39:01Z</time>
      </trkpt>
      <trkpt lat="46.3996" lon="5.46478">
        <ele>429</ele>
        <time>2019-04-30T09:40:01Z</time>
      </trkpt>
      <trkpt lat="46.39939" lon="5.46471">
        <ele>428</ele>
        <time>2019-04-30T09:41:01Z</time>
      </trkpt>
      <trkpt lat="46.3992" lon="5.46462">
        <ele>426</ele>
        <time>2019-04-30T09:42:01Z</time>
      </trkpt>
      <trkpt lat="46.39904" lon="5.46451">
        <ele>425</ele>
        <time>2019-04-30T09:43:01Z</time>
      </trkpt>
      <trkpt lat="46.39888" lon="5.46436">
        <ele>422</ele>
        <time>2019-04-30T09:44:01Z</time>
      </trkpt>
      <trkpt lat="46.3988" lon="5.46432">
        <ele>422</ele>
        <time>2019-04-30T09:45:01Z</time>
      </trkpt>
      <trkpt lat="46.39873" lon="5.46427">
        <ele>421</ele>
        <time>2019-04-30T09:46:01Z</time>
      </trkpt>
      <trkpt lat="46.39863" lon="5.46419">
        <ele>420</ele>
        <time>2019-04-30T09:47:01Z</time>
      </trkpt>
      <trkpt lat="46.3986" lon="5.46411">
        <ele>419</ele>
        <time>2019-04-30T09:48:01Z</time>
      </trkpt>
      <trkpt lat="46.39858" lon="5.464">
        <ele>418</ele>
        <time>2019-04-30T09:49:01Z</time>
      </trkpt>
      <trkpt lat="46.3986" lon="5.46387">
        <ele>418</ele>
        <time>2019-04-30T09:50:01Z</time>
      </trkpt>
      <trkpt lat="46.39867" lon="5.46373">
        <ele>417</ele>
        <time>2019-04-30T09:51:01Z</time>
      </trkpt>
      <trkpt lat="46.3988" lon="5.46348">
        <ele>416</ele>
        <time>2019-04-30T09:52:01Z</time>
      </trkpt>
      <trkpt lat="46.39887" lon="5.4633">
        <ele>415</ele>
        <time>2019-04-30T09:53:01Z</time>
      </trkpt>
      <trkpt lat="46.3989" lon="5.46306">
        <ele>413</ele>
        <time>2019-04-30T09:54:01Z</time>
      </trkpt>
      <trkpt lat="46.39896" lon="5.46268">
        <ele>409</ele>
        <time>2019-04-30T09:55:01Z</time>
      </trkpt>
      <trkpt lat="46.39904" lon="5.46239">
        <ele>407</ele>
        <time>2019-04-30T09:56:01Z</time>
      </trkpt>
      <trkpt lat="46.39914" lon="5.46217">
        <ele>406</ele>
        <time>2019-04-30T09:57:01Z</time>
      </trkpt>
      <trkpt lat="46.3992" lon="5.46201">
        <ele>405</ele>
        <time>2019-04-30T09:58:01Z</time>
      </trkpt>
      <trkpt lat="46.39921" lon="5.46189">
        <ele>404</ele>
        <time>2019-04-30T09:59:01Z</time>
      </trkpt>
      <trkpt lat="46.39926" lon="5.46147">
        <ele>402</ele>
        <time>2019-04-30T10:00:01Z</time>
      </trkpt>
      <trkpt lat="46.39929" lon="5.46127">
        <ele>401</ele>
        <time>2019-04-30T10:01:01Z</time>
      </trkpt>
      <trkpt lat="46.39929" lon="5.46103">
        <ele>400</ele>
        <time>2019-04-30T10:02:01Z</time>
      </trkpt>
      <trkpt lat="46.39929" lon="5.46085">
        <ele>399</ele>
        <time>2019-04-30T10:03:01Z</time>
      </trkpt>
      <trkpt lat="46.39928" lon="5.4606">
        <ele>399</ele>
        <time>2019-04-30T10:04:01Z</time>
      </trkpt>
      <trkpt lat="46.39929" lon="5.46045">
        <ele>399</ele>
        <time>2019-04-30T10:05:01Z</time>
      </trkpt>
      <trkpt lat="46.39934" lon="5.46024">
        <ele>399</ele>
        <time>2019-04-30T10:06:01Z</time>
      </trkpt>
      <trkpt lat="46.3994" lon="5.46012">
        <ele>399</ele>
        <time>2019-04-30T10:07:01Z</time>
      </trkpt>
      <trkpt lat="46.3995" lon="5.46001">
        <ele>399</ele>
        <time>2019-04-30T10:08:01Z</time>
      </trkpt>
      <trkpt lat="46.39961" lon="5.45994">
        <ele>399</ele>
        <time>2019-04-30T10:09:01Z</time>
      </trkpt>
      <trkpt lat="46.39972" lon="5.45989">
        <ele>400</ele>
        <time>2019-04-30T10:10:01Z</time>
      </trkpt>
      <trkpt lat="46.39989" lon="5.45986">
        <ele>400</ele>
        <time>2019-04-30T10:11:01Z</time>
      </trkpt>
      <trkpt lat="46.40007" lon="5.45985">
        <ele>400</ele>
        <time>2019-04-30T10:12:01Z</time>
      </trkpt>
      <trkpt lat="46.40025" lon="5.45985">
        <ele>399</ele>
        <time>2019-04-30T10:13:01Z</time>
      </trkpt>
      <trkpt lat="46.40038" lon="5.45982">
        <ele>398</ele>
        <time>2019-04-30T10:14:01Z</time>
      </trkpt>
      <trkpt lat="46.40046" lon="5.45977">
        <ele>398</ele>
        <time>2019-04-30T10:15:01Z</time>
      </trkpt>
      <trkpt lat="46.40049" lon="5.45969">
        <ele>397</ele>
        <time>2019-04-30T10:16:01Z</time>
      </trkpt>
      <trkpt lat="46.40052" lon="5.45961">
        <ele>397</ele>
        <time>2019-04-30T10:17:01Z</time>
      </trkpt>
      <trkpt lat="46.40048" lon="5.45939">
        <ele>396</ele>
        <time>2019-04-30T10:18:01Z</time>
      </trkpt>
      <trkpt lat="46.40043" lon="5.45917">
        <ele>396</ele>
        <time>2019-04-30T10:19:01Z</time>
      </trkpt>
      <trkpt lat="46.40034" lon="5.45891">
        <ele>392</ele>
        <time>2019-04-30T10:20:01Z</time>
      </trkpt>
      <trkpt lat="46.40022" lon="5.45875">
        <ele>390</ele>
        <time>2019-04-30T10:21:01Z</time>
      </trkpt>
      <trkpt lat="46.4001" lon="5.45864">
        <ele>389</ele>
        <time>2019-04-30T10:22:01Z</time>
      </trkpt>
      <trkpt lat="46.39994" lon="5.4585">
        <ele>388</ele>
        <time>2019-04-30T10:23:01Z</time>
      </trkpt>
      <trkpt lat="46.3998" lon="5.45842">
        <ele>386</ele>
        <time>2019-04-30T10:24:01Z</time>
      </trkpt>
      <trkpt lat="46.39959" lon="5.45837">
        <ele>386</ele>
        <time>2019-04-30T10:25:01Z</time>
      </trkpt>
      <trkpt lat="46.39928" lon="5.45828">
        <ele>384</ele>
        <time>2019-04-30T10:26:01Z</time>
      </trkpt>
      <trkpt lat="46.39887" lon="5.45814">
        <ele>381</ele>
        <time>2019-04-30T10:27:01Z</time>
      </trkpt>
      <trkpt lat="46.39871" lon="5.45808">
        <ele>380</ele>
        <time>2019-04-30T10:28:01Z</time>
      </trkpt>
      <trkpt lat="46.39843" lon="5.458">
        <ele>378</ele>
        <time>2019-04-30T10:29:01Z</time>
      </trkpt>
      <trkpt lat="46.3982" lon="5.45795">
        <ele>378</ele>
        <time>2019-04-30T10:30:01Z</time>
      </trkpt>
      <trkpt lat="46.3978" lon="5.45785">
        <ele>377</ele>
        <time>2019-04-30T10:31:01Z</time>
      </trkpt>
      <trkpt lat="46.39772" lon="5.45782">
        <ele>376</ele>
        <time>2019-04-30T10:32:01Z</time>
      </trkpt>
      <trkpt lat="46.39757" lon="5.45771">
        <ele>375</ele>
        <time>2019-04-30T10:33:01Z</time>
      </trkpt>
      <trkpt lat="46.39749" lon="5.45758">
        <ele>373</ele>
        <time>2019-04-30T10:34:01Z</time>
      </trkpt>
      <trkpt lat="46.39749" lon="5.45758">
        <ele>373</ele>
        <time>2019-04-30T10:35:01Z</time>
      </trkpt>
      <trkpt lat="46.39743" lon="5.4576">
        <ele>373</ele>
        <time>2019-04-30T10:36:01Z</time>
      </trkpt>
      <trkpt lat="46.39725" lon="5.45765">
        <ele>374</ele>
        <time>2019-04-30T10:37:01Z</time>
      </trkpt>
      <trkpt lat="46.3971" lon="5.45768">
        <ele>375</ele>
        <time>2019-04-30T10:38:01Z</time>
      </trkpt>
      <trkpt lat="46.39686" lon="5.45775">
        <ele>376</ele>
        <time>2019-04-30T10:39:01Z</time>
      </trkpt>
      <trkpt lat="46.39665" lon="5.45782">
        <ele>377</ele>
        <time>2019-04-30T10:40:01Z</time>
      </trkpt>
      <trkpt lat="46.39648" lon="5.45787">
        <ele>378</ele>
        <time>2019-04-30T10:41:01Z</time>
      </trkpt>
      <trkpt lat="46.39634" lon="5.45789">
        <ele>379</ele>
        <time>2019-04-30T10:42:01Z</time>
      </trkpt>
      <trkpt lat="46.39618" lon="5.4579">
        <ele>380</ele>
        <time>2019-04-30T10:43:01Z</time>
      </trkpt>
      <trkpt lat="46.39598" lon="5.4579">
        <ele>381</ele>
        <time>2019-04-30T10:44:01Z</time>
      </trkpt>
      <trkpt lat="46.39579" lon="5.45789">
        <ele>381</ele>
        <time>2019-04-30T10:45:01Z</time>
      </trkpt>
      <trkpt lat="46.39562" lon="5.45788">
        <ele>382</ele>
        <time>2019-04-30T10:46:01Z</time>
      </trkpt>
      <trkpt lat="46.39546" lon="5.45785">
        <ele>382</ele>
        <time>2019-04-30T10:47:01Z</time>
      </trkpt>
      <trkpt lat="46.39536" lon="5.45781">
        <ele>382</ele>
        <time>2019-04-30T10:48:01Z</time>
      </trkpt>
      <trkpt lat="46.39523" lon="5.45773">
        <ele>381</ele>
        <time>2019-04-30T10:49:01Z</time>
      </trkpt>
      <trkpt lat="46.39509" lon="5.45766">
        <ele>381</ele>
        <time>2019-04-30T10:50:01Z</time>
      </trkpt>
      <trkpt lat="46.39497" lon="5.45762">
        <ele>381</ele>
        <time>2019-04-30T10:51:01Z</time>
      </trkpt>
      <trkpt lat="46.39478" lon="5.45756">
        <ele>379</ele>
        <time>2019-04-30T10:52:01Z</time>
      </trkpt>
      <trkpt lat="46.39436" lon="5.45746">
        <ele>378</ele>
        <time>2019-04-30T10:53:01Z</time>
      </trkpt>
      <trkpt lat="46.39402" lon="5.45739">
        <ele>378</ele>
        <time>2019-04-30T10:54:01Z</time>
      </trkpt>
      <trkpt lat="46.39381" lon="5.45735">
        <ele>378</ele>
        <time>2019-04-30T10:55:01Z</time>
      </trkpt>
      <trkpt lat="46.39363" lon="5.45733">
        <ele>378</ele>
        <time>2019-04-30T10:56:01Z</time>
      </trkpt>
      <trkpt lat="46.39352" lon="5.45731">
        <ele>378</ele>
        <time>2019-04-30T10:57:01Z</time>
      </trkpt>
      <trkpt lat="46.39341" lon="5.45728">
        <ele>379</ele>
        <time>2019-04-30T10:58:01Z</time>
      </trkpt>
      <trkpt lat="46.39334" lon="5.45724">
        <ele>379</ele>
        <time>2019-04-30T10:59:01Z</time>
      </trkpt>
      <trkpt lat="46.39328" lon="5.45721">
        <ele>379</ele>
        <time>2019-04-30T11:00:01Z</time>
      </trkpt>
      <trkpt lat="46.39328" lon="5.45721">
        <ele>379</ele>
        <time>2019-04-30T11:01:01Z</time>
      </trkpt>
      <trkpt lat="46.39337" lon="5.45741">
        <ele>379</ele>
        <time>2019-04-30T11:02:01Z</time>
      </trkpt>
      <trkpt lat="46.3935" lon="5.45759">
        <ele>380</ele>
        <time>2019-04-30T11:03:01Z</time>
      </trkpt>
      <trkpt lat="46.39365" lon="5.45779">
        <ele>381</ele>
        <time>2019-04-30T11:04:01Z</time>
      </trkpt>
      <trkpt lat="46.39384" lon="5.45803">
        <ele>383</ele>
        <time>2019-04-30T11:05:01Z</time>
      </trkpt>
      <trkpt lat="46.39403" lon="5.4583">
        <ele>386</ele>
        <time>2019-04-30T11:06:01Z</time>
      </trkpt>
      <trkpt lat="46.39421" lon="5.45855">
        <ele>388</ele>
        <time>2019-04-30T11:07:01Z</time>
      </trkpt>
      <trkpt lat="46.39434" lon="5.45873">
        <ele>391</ele>
        <time>2019-04-30T11:08:01Z</time>
      </trkpt>
      <trkpt lat="46.3944" lon="5.45885">
        <ele>392</ele>
        <time>2019-04-30T11:09:01Z</time>
      </trkpt>
      <trkpt lat="46.39444" lon="5.45892">
        <ele>393</ele>
        <time>2019-04-30T11:10:01Z</time>
      </trkpt>
      <trkpt lat="46.39454" lon="5.45919">
        <ele>396</ele>
        <time>2019-04-30T11:11:01Z</time>
      </trkpt>
      <trkpt lat="46.3946" lon="5.45942">
        <ele>397</ele>
        <time>2019-04-30T11:12:01Z</time>
      </trkpt>
      <trkpt lat="46.39463" lon="5.45966">
        <ele>399</ele>
        <time>2019-04-30T11:13:01Z</time>
      </trkpt>
      <trkpt lat="46.39466" lon="5.45993">
        <ele>400</ele>
        <time>2019-04-30T11:14:01Z</time>
      </trkpt>
      <trkpt lat="46.39467" lon="5.46025">
        <ele>400</ele>
        <time>2019-04-30T11:15:01Z</time>
      </trkpt>
      <trkpt lat="46.39466" lon="5.46055">
        <ele>400</ele>
        <time>2019-04-30T11:16:01Z</time>
      </trkpt>
      <trkpt lat="46.39464" lon="5.46078">
        <ele>400</ele>
        <time>2019-04-30T11:17:01Z</time>
      </trkpt>
      <trkpt lat="46.3946" lon="5.46109">
        <ele>401</ele>
        <time>2019-04-30T11:18:01Z</time>
      </trkpt>
      <trkpt lat="46.39454" lon="5.4614">
        <ele>401</ele>
        <time>2019-04-30T11:19:01Z</time>
      </trkpt>
      <trkpt lat="46.3945" lon="5.46172">
        <ele>402</ele>
        <time>2019-04-30T11:20:01Z</time>
      </trkpt>
      <trkpt lat="46.39444" lon="5.46214">
        <ele>403</ele>
        <time>2019-04-30T11:21:01Z</time>
      </trkpt>
      <trkpt lat="46.3944" lon="5.46248">
        <ele>403</ele>
        <time>2019-04-30T11:22:01Z</time>
      </trkpt>
      <trkpt lat="46.39438" lon="5.46272">
        <ele>403</ele>
        <time>2019-04-30T11:23:01Z</time>
      </trkpt>
      <trkpt lat="46.39438" lon="5.46293">
        <ele>403</ele>
        <time>2019-04-30T11:24:01Z</time>
      </trkpt>
      <trkpt lat="46.39439" lon="5.46306">
        <ele>403</ele>
        <time>2019-04-30T11:25:01Z</time>
      </trkpt>
      <trkpt lat="46.39442" lon="5.46325">
        <ele>403</ele>
        <time>2019-04-30T11:26:01Z</time>
      </trkpt>
      <trkpt lat="46.39449" lon="5.46343">
        <ele>404</ele>
        <time>2019-04-30T11:27:01Z</time>
      </trkpt>
      <trkpt lat="46.39455" lon="5.46359">
        <ele>404</ele>
        <time>2019-04-30T11:28:01Z</time>
      </trkpt>
      <trkpt lat="46.39466" lon="5.46381">
        <ele>404</ele>
        <time>2019-04-30T11:29:01Z</time>
      </trkpt>
      <trkpt lat="46.39482" lon="5.46413">
        <ele>405</ele>
        <time>2019-04-30T11:30:01Z</time>
      </trkpt>
      <trkpt lat="46.3949" lon="5.46428">
        <ele>406</ele>
        <time>2019-04-30T11:31:01Z</time>
      </trkpt>
      <trkpt lat="46.39507" lon="5.46453">
        <ele>407</ele>
        <time>2019-04-30T11:32:01Z</time>
      </trkpt>
      <trkpt lat="46.39516" lon="5.46464">
        <ele>407</ele>
        <time>2019-04-30T11:33:01Z</time>
      </trkpt>
      <trkpt lat="46.39532" lon="5.46484">
        <ele>409</ele>
        <time>2019-04-30T11:34:01Z</time>
      </trkpt>
      <trkpt lat="46.39546" lon="5.465">
        <ele>410</ele>
        <time>2019-04-30T11:35:01Z</time>
      </trkpt>
      <trkpt lat="46.39559" lon="5.46513">
        <ele>411</ele>
        <time>2019-04-30T11:36:01Z</time>
      </trkpt>
      <trkpt lat="46.39564" lon="5.4652">
        <ele>412</ele>
        <time>2019-04-30T11:37:01Z</time>
      </trkpt>
      <trkpt lat="46.39576" lon="5.46533">
        <ele>414</ele>
        <time>2019-04-30T11:38:01Z</time>
      </trkpt>
      <trkpt lat="46.39579" lon="5.46536">
        <ele>414</ele>
        <time>2019-04-30T11:39:01Z</time>
      </trkpt>
      <trkpt lat="46.39591" lon="5.4655">
        <ele>415</ele>
        <time>2019-04-30T11:40:01Z</time>
      </trkpt>
      <trkpt lat="46.39613" lon="5.46573">
        <ele>416</ele>
        <time>2019-04-30T11:41:01Z</time>
      </trkpt>
      <trkpt lat="46.39629" lon="5.46591">
        <ele>418</ele>
        <time>2019-04-30T11:42:01Z</time>
      </trkpt>
      <trkpt lat="46.39643" lon="5.46608">
        <ele>419</ele>
        <time>2019-04-30T11:43:01Z</time>
      </trkpt>
      <trkpt lat="46.39651" lon="5.4662">
        <ele>421</ele>
        <time>2019-04-30T11:44:01Z</time>
      </trkpt>
      <trkpt lat="46.39658" lon="5.46634">
        <ele>422</ele>
        <time>2019-04-30T11:45:01Z</time>
      </trkpt>
      <trkpt lat="46.39665" lon="5.46649">
        <ele>423</ele>
        <time>2019-04-30T11:46:01Z</time>
      </trkpt>
      <trkpt lat="46.39683" lon="5.46693">
        <ele>426</ele>
        <time>2019-04-30T11:47:01Z</time>
      </trkpt>
      <trkpt lat="46.39692" lon="5.46716">
        <ele>428</ele>
        <time>2019-04-30T11:48:01Z</time>
      </trkpt>
      <trkpt lat="46.39701" lon="5.46743">
        <ele>429</ele>
        <time>2019-04-30T11:49:01Z</time>
      </trkpt>
      <trkpt lat="46.39707" lon="5.46765">
        <ele>430</ele>
        <time>2019-04-30T11:50:01Z</time>
      </trkpt>
      <trkpt lat="46.39713" lon="5.46792">
        <ele>430</ele>
        <time>2019-04-30T11:51:01Z</time>
      </trkpt>
      <trkpt lat="46.39719" lon="5.46819">
        <ele>430</ele>
        <time>2019-04-30T11:52:01Z</time>
      </trkpt>
      <trkpt lat="46.39725" lon="5.46849">
        <ele>430</ele>
        <time>2019-04-30T11:53:01Z</time>
      </trkpt>
      <trkpt lat="46.39732" lon="5.46877">
        <ele>430</ele>
        <time>2019-04-30T11:54:01Z</time>
      </trkpt>
      <trkpt lat="46.3974" lon="5.46908">
        <ele>430</ele>
        <time>2019-04-30T11:55:01Z</time>
      </trkpt>
      <trkpt lat="46.39748" lon="5.46946">
        <ele>431</ele>
        <time>2019-04-30T11:56:01Z</time>
      </trkpt>
      <trkpt lat="46.39762" lon="5.47002">
        <ele>433</ele>
        <time>2019-04-30T11:57:01Z</time>
      </trkpt>
      <trkpt lat="46.39781" lon="5.47074">
        <ele>435</ele>
        <time>2019-04-30T11:58:01Z</time>
      </trkpt>
      <trkpt lat="46.39799" lon="5.47143">
        <ele>438</ele>
        <time>2019-04-30T11:59:01Z</time>
      </trkpt>
      <trkpt lat="46.39809" lon="5.47181">
        <ele>440</ele>
        <time>2019-04-30T12:00:01Z</time>
      </trkpt>
      <trkpt lat="46.39815" lon="5.47204">
        <ele>442</ele>
        <time>2019-04-30T12:01:01Z</time>
      </trkpt>
      <trkpt lat="46.39836" lon="5.47274">
        <ele>446</ele>
        <time>2019-04-30T12:02:01Z</time>
      </trkpt>
      <trkpt lat="46.39849" lon="5.47309">
        <ele>447</ele>
        <time>2019-04-30T12:03:01Z</time>
      </trkpt>
      <trkpt lat="46.39857" lon="5.47334">
        <ele>448</ele>
        <time>2019-04-30T12:04:01Z</time>
      </trkpt>
      <trkpt lat="46.39866" lon="5.47358">
        <ele>449</ele>
        <time>2019-04-30T12:05:01Z</time>
      </trkpt>
      <trkpt lat="46.39876" lon="5.47386">
        <ele>450</ele>
        <time>2019-04-30T12:06:01Z</time>
      </trkpt>
      <trkpt lat="46.39887" lon="5.47414">
        <ele>451</ele>
        <time>2019-04-30T12:07:01Z</time>
      </trkpt>
      <trkpt lat="46.39894" lon="5.47435">
        <ele>452</ele>
        <time>2019-04-30T12:08:01Z</time>
      </trkpt>
      <trkpt lat="46.39907" lon="5.47468">
        <ele>454</ele>
        <time>2019-04-30T12:09:01Z</time>
      </trkpt>
      <trkpt lat="46.39916" lon="5.47493">
        <ele>456</ele>
        <time>2019-04-30T12:10:01Z</time>
      </trkpt>
      <trkpt lat="46.39917" lon="5.47498">
        <ele>457</ele>
        <time>2019-04-30T12:11:01Z</time>
      </trkpt>
      <trkpt lat="46.39927" lon="5.47522">
        <ele>458</ele>
        <time>2019-04-30T12:12:01Z</time>
      </trkpt>
      <trkpt lat="46.39931" lon="5.47531">
        <ele>458</ele>
        <time>2019-04-30T12:13:01Z</time>
      </trkpt>
      <trkpt lat="46.39937" lon="5.47547">
        <ele>459</ele>
        <time>2019-04-30T12:14:01Z</time>
      </trkpt>
      <trkpt lat="46.39944" lon="5.47557">
        <ele>460</ele>
        <time>2019-04-30T12:15:01Z</time>
      </trkpt>
      <trkpt lat="46.3995" lon="5.47565">
        <ele>460</ele>
        <time>2019-04-30T12:16:01Z</time>
      </trkpt>
      <trkpt lat="46.39958" lon="5.47573">
        <ele>460</ele>
        <time>2019-04-30T12:17:01Z</time>
      </trkpt>
      <trkpt lat="46.3998" lon="5.47598">
        <ele>461</ele>
        <time>2019-04-30T12:18:01Z</time>
      </trkpt>
      <trkpt lat="46.39997" lon="5.47617">
        <ele>462</ele>
        <time>2019-04-30T12:19:01Z</time>
      </trkpt>
      <trkpt lat="46.40008" lon="5.4763">
        <ele>462</ele>
        <time>2019-04-30T12:20:01Z</time>
      </trkpt>
      <trkpt lat="46.40018" lon="5.47646">
        <ele>463</ele>
        <time>2019-04-30T12:21:01Z</time>
      </trkpt>
      <trkpt lat="46.40023" lon="5.4766">
        <ele>464</ele>
        <time>2019-04-30T12:22:01Z</time>
      </trkpt>
      <trkpt lat="46.40027" lon="5.47672">
        <ele>464</ele>
        <time>2019-04-30T12:23:01Z</time>
      </trkpt>
      <trkpt lat="46.40028" lon="5.47686">
        <ele>465</ele>
        <time>2019-04-30T12:24:01Z</time>
      </trkpt>
      <trkpt lat="46.40026" lon="5.47697">
        <ele>467</ele>
        <time>2019-04-30T12:25:01Z</time>
      </trkpt>
      <trkpt lat="46.40023" lon="5.47705">
        <ele>468</ele>
        <time>2019-04-30T12:26:01Z</time>
      </trkpt>
      <trkpt lat="46.40018" lon="5.4771">
        <ele>469</ele>
        <time>2019-04-30T12:27:01Z</time>
      </trkpt>
      <trkpt lat="46.40012" lon="5.47714">
        <ele>470</ele>
        <time>2019-04-30T12:28:01Z</time>
      </trkpt>
      <trkpt lat="46.39998" lon="5.47712">
        <ele>472</ele>
        <time>2019-04-30T12:29:01Z</time>
      </trkpt>
      <trkpt lat="46.39976" lon="5.47707">
        <ele>472</ele>
        <time>2019-04-30T12:30:01Z</time>
      </trkpt>
      <trkpt lat="46.39956" lon="5.47703">
        <ele>473</ele>
        <time>2019-04-30T12:31:01Z</time>
      </trkpt>
      <trkpt lat="46.39941" lon="5.47699">
        <ele>474</ele>
        <time>2019-04-30T12:32:01Z</time>
      </trkpt>
      <trkpt lat="46.39921" lon="5.47696">
        <ele>475</ele>
        <time>2019-04-30T12:33:01Z</time>
      </trkpt>
      <trkpt lat="46.39908" lon="5.47698">
        <ele>475</ele>
        <time>2019-04-30T12:34:01Z</time>
      </trkpt>
      <trkpt lat="46.39895" lon="5.47704">
        <ele>475</ele>
        <time>2019-04-30T12:35:01Z</time>
      </trkpt>
      <trkpt lat="46.39885" lon="5.47712">
        <ele>475</ele>
        <time>2019-04-30T12:36:01Z</time>
      </trkpt>
      <trkpt lat="46.39874" lon="5.47724">
        <ele>476</ele>
        <time>2019-04-30T12:37:01Z</time>
      </trkpt>
      <trkpt lat="46.39853" lon="5.47751">
        <ele>478</ele>
        <time>2019-04-30T12:38:01Z</time>
      </trkpt>
      <trkpt lat="46.39824" lon="5.47788">
        <ele>480</ele>
        <time>2019-04-30T12:39:01Z</time>
      </trkpt>
      <trkpt lat="46.39799" lon="5.47821">
        <ele>484</ele>
        <time>2019-04-30T12:40:01Z</time>
      </trkpt>
      <trkpt lat="46.39784" lon="5.47841">
        <ele>485</ele>
        <time>2019-04-30T12:41:01Z</time>
      </trkpt>
      <trkpt lat="46.39777" lon="5.4785">
        <ele>485</ele>
        <time>2019-04-30T12:42:01Z</time>
      </trkpt>
      <trkpt lat="46.39771" lon="5.47857">
        <ele>485</ele>
        <time>2019-04-30T12:43:01Z</time>
      </trkpt>
      <trkpt lat="46.39764" lon="5.47861">
        <ele>486</ele>
        <time>2019-04-30T12:44:01Z</time>
      </trkpt>
      <trkpt lat="46.39759" lon="5.47863">
        <ele>486</ele>
        <time>2019-04-30T12:45:01Z</time>
      </trkpt>
      <trkpt lat="46.39752" lon="5.47866">
        <ele>486</ele>
        <time>2019-04-30T12:46:01Z</time>
      </trkpt>
      <trkpt lat="46.39745" lon="5.47867">
        <ele>486</ele>
        <time>2019-04-30T12:47:01Z</time>
      </trkpt>
      <trkpt lat="46.39722" lon="5.47869">
        <ele>487</ele>
        <time>2019-04-30T12:48:01Z</time>
      </trkpt>
      <trkpt lat="46.39697" lon="5.47869">
        <ele>487</ele>
        <time>2019-04-30T12:49:01Z</time>
      </trkpt>
      <trkpt lat="46.39664" lon="5.47871">
        <ele>487</ele>
        <time>2019-04-30T12:50:01Z</time>
      </trkpt>
      <trkpt lat="46.3963" lon="5.47873">
        <ele>487</ele>
        <time>2019-04-30T12:51:01Z</time>
      </trkpt>
      <trkpt lat="46.39614" lon="5.47876">
        <ele>486</ele>
        <time>2019-04-30T12:52:01Z</time>
      </trkpt>
      <trkpt lat="46.39598" lon="5.47879">
        <ele>486</ele>
        <time>2019-04-30T12:53:01Z</time>
      </trkpt>
      <trkpt lat="46.3959" lon="5.47882">
        <ele>486</ele>
        <time>2019-04-30T12:54:01Z</time>
      </trkpt>
      <trkpt lat="46.39581" lon="5.47891">
        <ele>486</ele>
        <time>2019-04-30T12:55:01Z</time>
      </trkpt>
      <trkpt lat="46.39577" lon="5.479">
        <ele>486</ele>
        <time>2019-04-30T12:56:01Z</time>
      </trkpt>
      <trkpt lat="46.39573" lon="5.47908">
        <ele>486</ele>
        <time>2019-04-30T12:57:01Z</time>
      </trkpt>
      <trkpt lat="46.39571" lon="5.47927">
        <ele>486</ele>
        <time>2019-04-30T12:58:01Z</time>
      </trkpt>
      <trkpt lat="46.3957" lon="5.47968">
        <ele>484</ele>
        <time>2019-04-30T12:59:01Z</time>
      </trkpt>
      <trkpt lat="46.39567" lon="5.47992">
        <ele>483</ele>
        <time>2019-04-30T13:00:01Z</time>
      </trkpt>
      <trkpt lat="46.39562" lon="5.48025">
        <ele>481</ele>
        <time>2019-04-30T13:01:01Z</time>
      </trkpt>
      <trkpt lat="46.39557" lon="5.48058">
        <ele>479</ele>
        <time>2019-04-30T13:02:01Z</time>
      </trkpt>
      <trkpt lat="46.39547" lon="5.48117">
        <ele>476</ele>
        <time>2019-04-30T13:03:01Z</time>
      </trkpt>
      <trkpt lat="46.39536" lon="5.48157">
        <ele>474</ele>
        <time>2019-04-30T13:04:01Z</time>
      </trkpt>
      <trkpt lat="46.39527" lon="5.48181">
        <ele>473</ele>
        <time>2019-04-30T13:05:01Z</time>
      </trkpt>
      <trkpt lat="46.39519" lon="5.48195">
        <ele>473</ele>
        <time>2019-04-30T13:06:01Z</time>
      </trkpt>
      <trkpt lat="46.39508" lon="5.48206">
        <ele>473</ele>
        <time>2019-04-30T13:07:01Z</time>
      </trkpt>
      <trkpt lat="46.39501" lon="5.48213">
        <ele>474</ele>
        <time>2019-04-30T13:08:01Z</time>
      </trkpt>
      <trkpt lat="46.39475" lon="5.48236">
        <ele>473</ele>
        <time>2019-04-30T13:09:01Z</time>
      </trkpt>
      <trkpt lat="46.39465" lon="5.48244">
        <ele>472</ele>
        <time>2019-04-30T13:10:01Z</time>
      </trkpt>
      <trkpt lat="46.39454" lon="5.48253">
        <ele>472</ele>
        <time>2019-04-30T13:11:01Z</time>
      </trkpt>
      <trkpt lat="46.39418" lon="5.48286">
        <ele>470</ele>
        <time>2019-04-30T13:12:01Z</time>
      </trkpt>
      <trkpt lat="46.39402" lon="5.483">
        <ele>469</ele>
        <time>2019-04-30T13:13:01Z</time>
      </trkpt>
      <trkpt lat="46.39392" lon="5.48308">
        <ele>468</ele>
        <time>2019-04-30T13:14:01Z</time>
      </trkpt>
      <trkpt lat="46.39356" lon="5.4834">
        <ele>464</ele>
        <time>2019-04-30T13:15:01Z</time>
      </trkpt>
      <trkpt lat="46.39333" lon="5.4836">
        <ele>462</ele>
        <time>2019-04-30T13:16:01Z</time>
      </trkpt>
      <trkpt lat="46.39323" lon="5.48369">
        <ele>462</ele>
        <time>2019-04-30T13:17:01Z</time>
      </trkpt>
      <trkpt lat="46.39312" lon="5.48382">
        <ele>461</ele>
        <time>2019-04-30T13:18:01Z</time>
      </trkpt>
      <trkpt lat="46.39298" lon="5.48402">
        <ele>460</ele>
        <time>2019-04-30T13:19:01Z</time>
      </trkpt>
      <trkpt lat="46.39284" lon="5.48425">
        <ele>459</ele>
        <time>2019-04-30T13:20:01Z</time>
      </trkpt>
      <trkpt lat="46.39274" lon="5.48443">
        <ele>459</ele>
        <time>2019-04-30T13:21:01Z</time>
      </trkpt>
      <trkpt lat="46.39251" lon="5.48489">
        <ele>461</ele>
        <time>2019-04-30T13:22:01Z</time>
      </trkpt>
      <trkpt lat="46.39227" lon="5.48537">
        <ele>462</ele>
        <time>2019-04-30T13:23:01Z</time>
      </trkpt>
      <trkpt lat="46.3921" lon="5.48571">
        <ele>463</ele>
        <time>2019-04-30T13:24:01Z</time>
      </trkpt>
      <trkpt lat="46.392" lon="5.4859">
        <ele>464</ele>
        <time>2019-04-30T13:25:01Z</time>
      </trkpt>
      <trkpt lat="46.39175" lon="5.48637">
        <ele>467</ele>
        <time>2019-04-30T13:26:01Z</time>
      </trkpt>
      <trkpt lat="46.39161" lon="5.48668">
        <ele>468</ele>
        <time>2019-04-30T13:27:01Z</time>
      </trkpt>
      <trkpt lat="46.3915" lon="5.48691">
        <ele>469</ele>
        <time>2019-04-30T13:28:01Z</time>
      </trkpt>
      <trkpt lat="46.39141" lon="5.48704">
        <ele>470</ele>
        <time>2019-04-30T13:29:01Z</time>
      </trkpt>
      <trkpt lat="46.39138" lon="5.48707">
        <ele>470</ele>
        <time>2019-04-30T13:30:01Z</time>
      </trkpt>
      <trkpt lat="46.39133" lon="5.48712">
        <ele>471</ele>
        <time>2019-04-30T13:31:01Z</time>
      </trkpt>
      <trkpt lat="46.39123" lon="5.48718">
        <ele>471</ele>
        <time>2019-04-30T13:32:01Z</time>
      </trkpt>
      <trkpt lat="46.39109" lon="5.48722">
        <ele>472</ele>
        <time>2019-04-30T13:33:01Z</time>
      </trkpt>
      <trkpt lat="46.3908" lon="5.48726">
        <ele>474</ele>
        <time>2019-04-30T13:34:01Z</time>
      </trkpt>
      <trkpt lat="46.39067" lon="5.48728">
        <ele>475</ele>
        <time>2019-04-30T13:35:01Z</time>
      </trkpt>
      <trkpt lat="46.39058" lon="5.4873">
        <ele>475</ele>
        <time>2019-04-30T13:36:01Z</time>
      </trkpt>
      <trkpt lat="46.3905" lon="5.48734">
        <ele>476</ele>
        <time>2019-04-30T13:37:01Z</time>
      </trkpt>
      <trkpt lat="46.3904" lon="5.48742">
        <ele>477</ele>
        <time>2019-04-30T13:38:01Z</time>
      </trkpt>
      <trkpt lat="46.3903" lon="5.4875">
        <ele>477</ele>
        <time>2019-04-30T13:39:01Z</time>
      </trkpt>
      <trkpt lat="46.39011" lon="5.48764">
        <ele>478</ele>
        <time>2019-04-30T13:40:01Z</time>
      </trkpt>
      <trkpt lat="46.38997" lon="5.48777">
        <ele>478</ele>
        <time>2019-04-30T13:41:01Z</time>
      </trkpt>
      <trkpt lat="46.38981" lon="5.48797">
        <ele>478</ele>
        <time>2019-04-30T13:42:01Z</time>
      </trkpt>
      <trkpt lat="46.38975" lon="5.48804">
        <ele>478</ele>
        <time>2019-04-30T13:43:01Z</time>
      </trkpt>
      <trkpt lat="46.38958" lon="5.48827">
        <ele>478</ele>
        <time>2019-04-30T13:44:01Z</time>
      </trkpt>
      <trkpt lat="46.38948" lon="5.48839">
        <ele>478</ele>
        <time>2019-04-30T13:45:01Z</time>
      </trkpt>
      <trkpt lat="46.38933" lon="5.48856">
        <ele>477</ele>
        <time>2019-04-30T13:46:01Z</time>
      </trkpt>
      <trkpt lat="46.38911" lon="5.48876">
        <ele>477</ele>
        <time>2019-04-30T13:47:01Z</time>
      </trkpt>
      <trkpt lat="46.38892" lon="5.48891">
        <ele>476</ele>
        <time>2019-04-30T13:48:01Z</time>
      </trkpt>
      <trkpt lat="46.38869" lon="5.48911">
        <ele>474</ele>
        <time>2019-04-30T13:49:01Z</time>
      </trkpt>
      <trkpt lat="46.38848" lon="5.48929">
        <ele>474</ele>
        <time>2019-04-30T13:50:01Z</time>
      </trkpt>
      <trkpt lat="46.38827" lon="5.48947">
        <ele>475</ele>
        <time>2019-04-30T13:51:01Z</time>
      </trkpt>
      <trkpt lat="46.38821" lon="5.48953">
        <ele>475</ele>
        <time>2019-04-30T13:52:01Z</time>
      </trkpt>
      <trkpt lat="46.38783" lon="5.48984">
        <ele>478</ele>
        <time>2019-04-30T13:53:01Z</time>
      </trkpt>
      <trkpt lat="46.38749" lon="5.4901">
        <ele>480</ele>
        <time>2019-04-30T13:54:01Z</time>
      </trkpt>
      <trkpt lat="46.38737" lon="5.49019">
        <ele>481</ele>
        <time>2019-04-30T13:55:01Z</time>
      </trkpt>
      <trkpt lat="46.38725" lon="5.49028">
        <ele>482</ele>
        <time>2019-04-30T13:56:01Z</time>
      </trkpt>
      <trkpt lat="46.38712" lon="5.49037">
        <ele>483</ele>
        <time>2019-04-30T13:57:01Z</time>
      </trkpt>
      <trkpt lat="46.38691" lon="5.49052">
        <ele>485</ele>
        <time>2019-04-30T13:58:01Z</time>
      </trkpt>
      <trkpt lat="46.38679" lon="5.49062">
        <ele>486</ele>
        <time>2019-04-30T13:59:01Z</time>
      </trkpt>
      <trkpt lat="46.38671" lon="5.49068">
        <ele>486</ele>
        <time>2019-04-30T14:00:01Z</time>
      </trkpt>
      <trkpt lat="46.3866" lon="5.49078">
        <ele>487</ele>
        <time>2019-04-30T14:01:01Z</time>
      </trkpt>
      <trkpt lat="46.38638" lon="5.49102">
        <ele>489</ele>
        <time>2019-04-30T14:02:01Z</time>
      </trkpt>
      <trkpt lat="46.3862" lon="5.49122">
        <ele>491</ele>
        <time>2019-04-30T14:03:01Z</time>
      </trkpt>
      <trkpt lat="46.386" lon="5.49145">
        <ele>494</ele>
        <time>2019-04-30T14:04:01Z</time>
      </trkpt>
      <trkpt lat="46.38588" lon="5.49157">
        <ele>495</ele>
        <time>2019-04-30T14:05:01Z</time>
      </trkpt>
      <trkpt lat="46.38576" lon="5.49165">
        <ele>496</ele>
        <time>2019-04-30T14:06:01Z</time>
      </trkpt>
      <trkpt lat="46.38562" lon="5.49175">
        <ele>496</ele>
        <time>2019-04-30T14:07:01Z</time>
      </trkpt>
      <trkpt lat="46.38546" lon="5.49184">
        <ele>497</ele>
        <time>2019-04-30T14:08:01Z</time>
      </trkpt>
      <trkpt lat="46.38529" lon="5.49194">
        <ele>498</ele>
        <time>2019-04-30T14:09:01Z</time>
      </trkpt>
      <trkpt lat="46.3852" lon="5.49199">
        <ele>498</ele>
        <time>2019-04-30T14:10:01Z</time>
      </trkpt>
      <trkpt lat="46.38511" lon="5.49208">
        <ele>499</ele>
        <time>2019-04-30T14:11:01Z</time>
      </trkpt>
      <trkpt lat="46.38501" lon="5.49218">
        <ele>500</ele>
        <time>2019-04-30T14:12:01Z</time>
      </trkpt>
      <trkpt lat="46.38481" lon="5.49236">
        <ele>502</ele>
        <time>2019-04-30T14:13:01Z</time>
      </trkpt>
      <trkpt lat="46.38463" lon="5.49249">
        <ele>503</ele>
        <time>2019-04-30T14:14:01Z</time>
      </trkpt>
      <trkpt lat="46.38439" lon="5.4926">
        <ele>505</ele>
        <time>2019-04-30T14:15:01Z</time>
      </trkpt>
      <trkpt lat="46.38395" lon="5.49269">
        <ele>506</ele>
        <time>2019-04-30T14:16:01Z</time>
      </trkpt>
      <trkpt lat="46.38374" lon="5.49272">
        <ele>507</ele>
        <time>2019-04-30T14:17:01Z</time>
      </trkpt>
      <trkpt lat="46.38366" lon="5.49273">
        <ele>507</ele>
        <time>2019-04-30T14:18:01Z</time>
      </trkpt>
      <trkpt lat="46.38359" lon="5.49276">
        <ele>508</ele>
        <time>2019-04-30T14:19:01Z</time>
      </trkpt>
      <trkpt lat="46.38355" lon="5.49279">
        <ele>509</ele>
        <time>2019-04-30T14:20:01Z</time>
      </trkpt>
      <trkpt lat="46.38352" lon="5.49283">
        <ele>510</ele>
        <time>2019-04-30T14:21:01Z</time>
      </trkpt>
      <trkpt lat="46.38351" lon="5.49289">
        <ele>512</ele>
        <time>2019-04-30T14:22:01Z</time>
      </trkpt>
      <trkpt lat="46.38351" lon="5.49293">
        <ele>513</ele>
        <time>2019-04-30T14:23:01Z</time>
      </trkpt>
      <trkpt lat="46.38352" lon="5.49299">
        <ele>515</ele>
        <time>2019-04-30T14:24:01Z</time>
      </trkpt>
      <trkpt lat="46.38355" lon="5.49303">
        <ele>517</ele>
        <time>2019-04-30T14:25:01Z</time>
      </trkpt>
      <trkpt lat="46.3836" lon="5.49307">
        <ele>518</ele>
        <time>2019-04-30T14:26:01Z</time>
      </trkpt>
      <trkpt lat="46.3837" lon="5.49307">
        <ele>518</ele>
        <time>2019-04-30T14:27:01Z</time>
      </trkpt>
      <trkpt lat="46.38381" lon="5.49306">
        <ele>517</ele>
        <time>2019-04-30T14:28:01Z</time>
      </trkpt>
      <trkpt lat="46.38395" lon="5.49303">
        <ele>516</ele>
        <time>2019-04-30T14:29:01Z</time>
      </trkpt>
      <trkpt lat="46.38418" lon="5.493">
        <ele>515</ele>
        <time>2019-04-30T14:30:01Z</time>
      </trkpt>
      <trkpt lat="46.38441" lon="5.49299">
        <ele>515</ele>
        <time>2019-04-30T14:31:01Z</time>
      </trkpt>
      <trkpt lat="46.38456" lon="5.49298">
        <ele>515</ele>
        <time>2019-04-30T14:32:01Z</time>
      </trkpt>
      <trkpt lat="46.38476" lon="5.49296">
        <ele>515</ele>
        <time>2019-04-30T14:33:01Z</time>
      </trkpt>
      <trkpt lat="46.385" lon="5.49294">
        <ele>515</ele>
        <time>2019-04-30T14:34:01Z</time>
      </trkpt>
      <trkpt lat="46.38524" lon="5.49293">
        <ele>514</ele>
        <time>2019-04-30T14:35:01Z</time>
      </trkpt>
      <trkpt lat="46.38535" lon="5.49293">
        <ele>514</ele>
        <time>2019-04-30T14:36:01Z</time>
      </trkpt>
      <trkpt lat="46.3855" lon="5.49294">
        <ele>514</ele>
        <time>2019-04-30T14:37:01Z</time>
      </trkpt>
      <trkpt lat="46.38562" lon="5.49297">
        <ele>515</ele>
        <time>2019-04-30T14:38:01Z</time>
      </trkpt>
      <trkpt lat="46.38575" lon="5.49301">
        <ele>515</ele>
        <time>2019-04-30T14:39:01Z</time>
      </trkpt>
      <trkpt lat="46.38586" lon="5.49306">
        <ele>516</ele>
        <time>2019-04-30T14:40:01Z</time>
      </trkpt>
      <trkpt lat="46.38599" lon="5.49314">
        <ele>516</ele>
        <time>2019-04-30T14:41:01Z</time>
      </trkpt>
      <trkpt lat="46.38613" lon="5.49326">
        <ele>517</ele>
        <time>2019-04-30T14:42:01Z</time>
      </trkpt>
      <trkpt lat="46.38628" lon="5.49339">
        <ele>519</ele>
        <time>2019-04-30T14:43:01Z</time>
      </trkpt>
      <trkpt lat="46.38648" lon="5.49356">
        <ele>521</ele>
        <time>2019-04-30T14:44:01Z</time>
      </trkpt>
      <trkpt lat="46.38661" lon="5.49366">
        <ele>523</ele>
        <time>2019-04-30T14:45:01Z</time>
      </trkpt>
      <trkpt lat="46.38681" lon="5.4938">
        <ele>524</ele>
        <time>2019-04-30T14:46:01Z</time>
      </trkpt>
      <trkpt lat="46.38704" lon="5.49396">
        <ele>524</ele>
        <time>2019-04-30T14:47:01Z</time>
      </trkpt>
      <trkpt lat="46.38713" lon="5.49401">
        <ele>524</ele>
        <time>2019-04-30T14:48:01Z</time>
      </trkpt>
      <trkpt lat="46.38721" lon="5.49407">
        <ele>524</ele>
        <time>2019-04-30T14:49:01Z</time>
      </trkpt>
      <trkpt lat="46.38728" lon="5.49412">
        <ele>524</ele>
        <time>2019-04-30T14:50:01Z</time>
      </trkpt>
      <trkpt lat="46.38739" lon="5.49421">
        <ele>525</ele>
        <time>2019-04-30T14:51:01Z</time>
      </trkpt>
      <trkpt lat="46.38747" lon="5.49428">
        <ele>526</ele>
        <time>2019-04-30T14:52:01Z</time>
      </trkpt>
      <trkpt lat="46.38755" lon="5.49437">
        <ele>527</ele>
        <time>2019-04-30T14:53:01Z</time>
      </trkpt>
      <trkpt lat="46.38778" lon="5.49465">
        <ele>534</ele>
        <time>2019-04-30T14:54:01Z</time>
      </trkpt>
      <trkpt lat="46.38784" lon="5.49473">
        <ele>536</ele>
        <time>2019-04-30T14:55:01Z</time>
      </trkpt>
      <trkpt lat="46.38791" lon="5.4948">
        <ele>537</ele>
        <time>2019-04-30T14:56:01Z</time>
      </trkpt>
      <trkpt lat="46.38798" lon="5.49485">
        <ele>538</ele>
        <time>2019-04-30T14:57:01Z</time>
      </trkpt>
      <trkpt lat="46.38807" lon="5.49489">
        <ele>539</ele>
        <time>2019-04-30T14:58:01Z</time>
      </trkpt>
      <trkpt lat="46.38813" lon="5.49491">
        <ele>539</ele>
        <time>2019-04-30T14:59:01Z</time>
      </trkpt>
      <trkpt lat="46.38829" lon="5.49494">
        <ele>539</ele>
        <time>2019-04-30T15:00:01Z</time>
      </trkpt>
      <trkpt lat="46.3885" lon="5.49496">
        <ele>540</ele>
        <time>2019-04-30T15:01:01Z</time>
      </trkpt>
      <trkpt lat="46.38885" lon="5.49498">
        <ele>541</ele>
        <time>2019-04-30T15:02:01Z</time>
      </trkpt>
      <trkpt lat="46.38909" lon="5.495">
        <ele>542</ele>
        <time>2019-04-30T15:03:01Z</time>
      </trkpt>
      <trkpt lat="46.38966" lon="5.49509">
        <ele>545</ele>
        <time>2019-04-30T15:04:01Z</time>
      </trkpt>
      <trkpt lat="46.39008" lon="5.4952">
        <ele>548</ele>
        <time>2019-04-30T15:05:01Z</time>
      </trkpt>
      <trkpt lat="46.39038" lon="5.49531">
        <ele>550</ele>
        <time>2019-04-30T15:06:01Z</time>
      </trkpt>
      <trkpt lat="46.39069" lon="5.49545">
        <ele>552</ele>
        <time>2019-04-30T15:07:01Z</time>
      </trkpt>
      <trkpt lat="46.39085" lon="5.49554">
        <ele>554</ele>
        <time>2019-04-30T15:08:01Z</time>
      </trkpt>
      <trkpt lat="46.39103" lon="5.49565">
        <ele>554</ele>
        <time>2019-04-30T15:09:01Z</time>
      </trkpt>
      <trkpt lat="46.39115" lon="5.49573">
        <ele>554</ele>
        <time>2019-04-30T15:10:01Z</time>
      </trkpt>
      <trkpt lat="46.39128" lon="5.49582">
        <ele>555</ele>
        <time>2019-04-30T15:11:01Z</time>
      </trkpt>
      <trkpt lat="46.39145" lon="5.49598">
        <ele>557</ele>
        <time>2019-04-30T15:12:01Z</time>
      </trkpt>
      <trkpt lat="46.39166" lon="5.4962">
        <ele>559</ele>
        <time>2019-04-30T15:13:01Z</time>
      </trkpt>
      <trkpt lat="46.39176" lon="5.49632">
        <ele>559</ele>
        <time>2019-04-30T15:14:01Z</time>
      </trkpt>
      <trkpt lat="46.39184" lon="5.49643">
        <ele>559</ele>
        <time>2019-04-30T15:15:01Z</time>
      </trkpt>
      <trkpt lat="46.39191" lon="5.49654">
        <ele>559</ele>
        <time>2019-04-30T15:16:01Z</time>
      </trkpt>
      <trkpt lat="46.39196" lon="5.49663">
        <ele>559</ele>
        <time>2019-04-30T15:17:01Z</time>
      </trkpt>
      <trkpt lat="46.39199" lon="5.49673">
        <ele>560</ele>
        <time>2019-04-30T15:18:01Z</time>
      </trkpt>
      <trkpt lat="46.39205" lon="5.497">
        <ele>561</ele>
        <time>2019-04-30T15:19:01Z</time>
      </trkpt>
      <trkpt lat="46.39208" lon="5.49726">
        <ele>563</ele>
        <time>2019-04-30T15:20:01Z</time>
      </trkpt>
      <trkpt lat="46.3921" lon="5.49738">
        <ele>564</ele>
        <time>2019-04-30T15:21:01Z</time>
      </trkpt>
      <trkpt lat="46.39211" lon="5.49757">
        <ele>565</ele>
        <time>2019-04-30T15:22:01Z</time>
      </trkpt>
      <trkpt lat="46.3921" lon="5.49788">
        <ele>568</ele>
        <time>2019-04-30T15:23:01Z</time>
      </trkpt>
      <trkpt lat="46.3921" lon="5.49818">
        <ele>570</ele>
        <time>2019-04-30T15:24:01Z</time>
      </trkpt>
      <trkpt lat="46.3921" lon="5.4985">
        <ele>572</ele>
        <time>2019-04-30T15:25:01Z</time>
      </trkpt>
      <trkpt lat="46.39209" lon="5.49873">
        <ele>574</ele>
        <time>2019-04-30T15:26:01Z</time>
      </trkpt>
      <trkpt lat="46.39208" lon="5.49897">
        <ele>576</ele>
        <time>2019-04-30T15:27:01Z</time>
      </trkpt>
      <trkpt lat="46.39205" lon="5.49929">
        <ele>580</ele>
        <time>2019-04-30T15:28:01Z</time>
      </trkpt>
      <trkpt lat="46.39205" lon="5.49951">
        <ele>580</ele>
        <time>2019-04-30T15:29:01Z</time>
      </trkpt>
      <trkpt lat="46.39204" lon="5.49969">
        <ele>581</ele>
        <time>2019-04-30T15:30:01Z</time>
      </trkpt>
      <trkpt lat="46.39205" lon="5.49985">
        <ele>581</ele>
        <time>2019-04-30T15:31:01Z</time>
      </trkpt>
      <trkpt lat="46.39207" lon="5.50002">
        <ele>581</ele>
        <time>2019-04-30T15:32:01Z</time>
      </trkpt>
      <trkpt lat="46.3921" lon="5.50018">
        <ele>580</ele>
        <time>2019-04-30T15:33:01Z</time>
      </trkpt>
      <trkpt lat="46.39212" lon="5.50031">
        <ele>579</ele>
        <time>2019-04-30T15:34:01Z</time>
      </trkpt>
      <trkpt lat="46.39213" lon="5.50047">
        <ele>579</ele>
        <time>2019-04-30T15:35:01Z</time>
      </trkpt>
      <trkpt lat="46.39213" lon="5.50063">
        <ele>579</ele>
        <time>2019-04-30T15:36:01Z</time>
      </trkpt>
      <trkpt lat="46.39213" lon="5.50066">
        <ele>579</ele>
        <time>2019-04-30T15:37:01Z</time>
      </trkpt>
      <trkpt lat="46.39212" lon="5.50102">
        <ele>580</ele>
        <time>2019-04-30T15:38:01Z</time>
      </trkpt>
      <trkpt lat="46.39212" lon="5.50135">
        <ele>582</ele>
        <time>2019-04-30T15:39:01Z</time>
      </trkpt>
      <trkpt lat="46.39215" lon="5.5016">
        <ele>582</ele>
        <time>2019-04-30T15:40:01Z</time>
      </trkpt>
      <trkpt lat="46.3922" lon="5.50185">
        <ele>583</ele>
        <time>2019-04-30T15:41:01Z</time>
      </trkpt>
      <trkpt lat="46.39227" lon="5.50201">
        <ele>584</ele>
        <time>2019-04-30T15:42:01Z</time>
      </trkpt>
      <trkpt lat="46.39237" lon="5.50221">
        <ele>585</ele>
        <time>2019-04-30T15:43:01Z</time>
      </trkpt>
      <trkpt lat="46.39247" lon="5.50234">
        <ele>586</ele>
        <time>2019-04-30T15:44:01Z</time>
      </trkpt>
      <trkpt lat="46.39255" lon="5.50241">
        <ele>586</ele>
        <time>2019-04-30T15:45:01Z</time>
      </trkpt>
      <trkpt lat="46.39268" lon="5.50254">
        <ele>587</ele>
        <time>2019-04-30T15:46:01Z</time>
      </trkpt>
      <trkpt lat="46.39283" lon="5.50268">
        <ele>586</ele>
        <time>2019-04-30T15:47:01Z</time>
      </trkpt>
      <trkpt lat="46.39296" lon="5.50279">
        <ele>586</ele>
        <time>2019-04-30T15:48:01Z</time>
      </trkpt>
      <trkpt lat="46.39309" lon="5.5029">
        <ele>585</ele>
        <time>2019-04-30T15:49:01Z</time>
      </trkpt>
      <trkpt lat="46.39321" lon="5.50301">
        <ele>586</ele>
        <time>2019-04-30T15:50:01Z</time>
      </trkpt>
      <trkpt lat="46.39327" lon="5.50308">
        <ele>586</ele>
        <time>2019-04-30T15:51:01Z</time>
      </trkpt>
      <trkpt lat="46.39331" lon="5.50316">
        <ele>587</ele>
        <time>2019-04-30T15:52:01Z</time>
      </trkpt>
      <trkpt lat="46.39332" lon="5.50325">
        <ele>588</ele>
        <time>2019-04-30T15:53:01Z</time>
      </trkpt>
      <trkpt lat="46.39333" lon="5.5034">
        <ele>589</ele>
        <time>2019-04-30T15:54:01Z</time>
      </trkpt>
      <trkpt lat="46.39329" lon="5.50366">
        <ele>590</ele>
        <time>2019-04-30T15:55:01Z</time>
      </trkpt>
      <trkpt lat="46.39325" lon="5.50377">
        <ele>590</ele>
        <time>2019-04-30T15:56:01Z</time>
      </trkpt>
      <trkpt lat="46.39316" lon="5.50402">
        <ele>591</ele>
        <time>2019-04-30T15:57:01Z</time>
      </trkpt>
      <trkpt lat="46.39306" lon="5.50425">
        <ele>591</ele>
        <time>2019-04-30T15:58:01Z</time>
      </trkpt>
      <trkpt lat="46.39299" lon="5.50442">
        <ele>590</ele>
        <time>2019-04-30T15:59:01Z</time>
      </trkpt>
      <trkpt lat="46.39294" lon="5.50451">
        <ele>590</ele>
        <time>2019-04-30T16:00:01Z</time>
      </trkpt>
      <trkpt lat="46.3929" lon="5.50457">
        <ele>590</ele>
        <time>2019-04-30T16:01:01Z</time>
      </trkpt>
      <trkpt lat="46.39286" lon="5.50462">
        <ele>590</ele>
        <time>2019-04-30T16:02:01Z</time>
      </trkpt>
      <trkpt lat="46.39282" lon="5.50466">
        <ele>590</ele>
        <time>2019-04-30T16:03:01Z</time>
      </trkpt>
      <trkpt lat="46.39276" lon="5.5047">
        <ele>590</ele>
        <time>2019-04-30T16:04:01Z</time>
      </trkpt>
      <trkpt lat="46.39272" lon="5.50471">
        <ele>590</ele>
        <time>2019-04-30T16:05:01Z</time>
      </trkpt>
      <trkpt lat="46.39268" lon="5.50472">
        <ele>590</ele>
        <time>2019-04-30T16:06:01Z</time>
      </trkpt>
      <trkpt lat="46.39264" lon="5.50473">
        <ele>590</ele>
        <time>2019-04-30T16:07:01Z</time>
      </trkpt>
      <trkpt lat="46.39259" lon="5.50473">
        <ele>590</ele>
        <time>2019-04-30T16:08:01Z</time>
      </trkpt>
      <trkpt lat="46.3925" lon="5.50474">
        <ele>590</ele>
        <time>2019-04-30T16:09:01Z</time>
      </trkpt>
      <trkpt lat="46.39246" lon="5.50475">
        <ele>590</ele>
        <time>2019-04-30T16:10:01Z</time>
      </trkpt>
      <trkpt lat="46.39229" lon="5.50474">
        <ele>590</ele>
        <time>2019-04-30T16:11:01Z</time>
      </trkpt>
      <trkpt lat="46.39217" lon="5.50472">
        <ele>589</ele>
        <time>2019-04-30T16:12:01Z</time>
      </trkpt>
      <trkpt lat="46.39208" lon="5.50468">
        <ele>589</ele>
        <time>2019-04-30T16:13:01Z</time>
      </trkpt>
      <trkpt lat="46.39206" lon="5.50467">
        <ele>589</ele>
        <time>2019-04-30T16:14:01Z</time>
      </trkpt>
      <trkpt lat="46.39187" lon="5.50452">
        <ele>589</ele>
        <time>2019-04-30T16:15:01Z</time>
      </trkpt>
      <trkpt lat="46.39178" lon="5.50446">
        <ele>590</ele>
        <time>2019-04-30T16:16:01Z</time>
      </trkpt>
      <trkpt lat="46.39173" lon="5.50444">
        <ele>590</ele>
        <time>2019-04-30T16:17:01Z</time>
      </trkpt>
      <trkpt lat="46.39168" lon="5.50442">
        <ele>590</ele>
        <time>2019-04-30T16:18:01Z</time>
      </trkpt>
      <trkpt lat="46.39163" lon="5.50441">
        <ele>589</ele>
        <time>2019-04-30T16:19:01Z</time>
      </trkpt>
      <trkpt lat="46.39157" lon="5.50441">
        <ele>589</ele>
        <time>2019-04-30T16:20:01Z</time>
      </trkpt>
      <trkpt lat="46.39145" lon="5.50444">
        <ele>589</ele>
        <time>2019-04-30T16:21:01Z</time>
      </trkpt>
      <trkpt lat="46.39142" lon="5.50445">
        <ele>588</ele>
        <time>2019-04-30T16:22:01Z</time>
      </trkpt>
      <trkpt lat="46.39135" lon="5.5045">
        <ele>588</ele>
        <time>2019-04-30T16:23:01Z</time>
      </trkpt>
      <trkpt lat="46.39118" lon="5.50464">
        <ele>587</ele>
        <time>2019-04-30T16:24:01Z</time>
      </trkpt>
      <trkpt lat="46.39104" lon="5.50478">
        <ele>586</ele>
        <time>2019-04-30T16:25:01Z</time>
      </trkpt>
      <trkpt lat="46.39098" lon="5.50485">
        <ele>586</ele>
        <time>2019-04-30T16:26:01Z</time>
      </trkpt>
      <trkpt lat="46.39087" lon="5.50501">
        <ele>585</ele>
        <time>2019-04-30T16:27:01Z</time>
      </trkpt>
      <trkpt lat="46.39075" lon="5.50526">
        <ele>585</ele>
        <time>2019-04-30T16:28:01Z</time>
      </trkpt>
      <trkpt lat="46.39065" lon="5.50547">
        <ele>584</ele>
        <time>2019-04-30T16:29:01Z</time>
      </trkpt>
      <trkpt lat="46.39057" lon="5.50572">
        <ele>584</ele>
        <time>2019-04-30T16:30:01Z</time>
      </trkpt>
      <trkpt lat="46.39049" lon="5.50597">
        <ele>584</ele>
        <time>2019-04-30T16:31:01Z</time>
      </trkpt>
      <trkpt lat="46.39042" lon="5.50619">
        <ele>584</ele>
        <time>2019-04-30T16:32:01Z</time>
      </trkpt>
      <trkpt lat="46.39035" lon="5.50637">
        <ele>584</ele>
        <time>2019-04-30T16:33:01Z</time>
      </trkpt>
      <trkpt lat="46.39021" lon="5.50665">
        <ele>585</ele>
        <time>2019-04-30T16:34:01Z</time>
      </trkpt>
      <trkpt lat="46.39008" lon="5.50689">
        <ele>585</ele>
        <time>2019-04-30T16:35:01Z</time>
      </trkpt>
      <trkpt lat="46.3899" lon="5.50712">
        <ele>586</ele>
        <time>2019-04-30T16:36:01Z</time>
      </trkpt>
      <trkpt lat="46.3898" lon="5.50727">
        <ele>586</ele>
        <time>2019-04-30T16:37:01Z</time>
      </trkpt>
      <trkpt lat="46.3897" lon="5.50742">
        <ele>586</ele>
        <time>2019-04-30T16:38:01Z</time>
      </trkpt>
      <trkpt lat="46.38963" lon="5.50757">
        <ele>586</ele>
        <time>2019-04-30T16:39:01Z</time>
      </trkpt>
      <trkpt lat="46.38955" lon="5.50775">
        <ele>586</ele>
        <time>2019-04-30T16:40:01Z</time>
      </trkpt>
      <trkpt lat="46.38949" lon="5.5079">
        <ele>586</ele>
        <time>2019-04-30T16:41:01Z</time>
      </trkpt>
      <trkpt lat="46.38945" lon="5.5081">
        <ele>586</ele>
        <time>2019-04-30T16:42:01Z</time>
      </trkpt>
      <trkpt lat="46.38942" lon="5.50825">
        <ele>587</ele>
        <time>2019-04-30T16:43:01Z</time>
      </trkpt>
      <trkpt lat="46.38937" lon="5.50849">
        <ele>587</ele>
        <time>2019-04-30T16:44:01Z</time>
      </trkpt>
      <trkpt lat="46.3893" lon="5.50887">
        <ele>589</ele>
        <time>2019-04-30T16:45:01Z</time>
      </trkpt>
      <trkpt lat="46.38923" lon="5.50928">
        <ele>590</ele>
        <time>2019-04-30T16:46:01Z</time>
      </trkpt>
      <trkpt lat="46.38919" lon="5.50956">
        <ele>590</ele>
        <time>2019-04-30T16:47:01Z</time>
      </trkpt>
      <trkpt lat="46.38916" lon="5.50982">
        <ele>589</ele>
        <time>2019-04-30T16:48:01Z</time>
      </trkpt>
      <trkpt lat="46.38914" lon="5.51">
        <ele>589</ele>
        <time>2019-04-30T16:49:01Z</time>
      </trkpt>
      <trkpt lat="46.38912" lon="5.51019">
        <ele>588</ele>
        <time>2019-04-30T16:50:01Z</time>
      </trkpt>
      <trkpt lat="46.38908" lon="5.51052">
        <ele>587</ele>
        <time>2019-04-30T16:51:01Z</time>
      </trkpt>
      <trkpt lat="46.38905" lon="5.51074">
        <ele>586</ele>
        <time>2019-04-30T16:52:01Z</time>
      </trkpt>
      <trkpt lat="46.38901" lon="5.51114">
        <ele>585</ele>
        <time>2019-04-30T16:53:01Z</time>
      </trkpt>
      <trkpt lat="46.38898" lon="5.5115">
        <ele>583</ele>
        <time>2019-04-30T16:54:01Z</time>
      </trkpt>
      <trkpt lat="46.38896" lon="5.51178">
        <ele>583</ele>
        <time>2019-04-30T16:55:01Z</time>
      </trkpt>
      <trkpt lat="46.38893" lon="5.51209">
        <ele>584</ele>
        <time>2019-04-30T16:56:01Z</time>
      </trkpt>
      <trkpt lat="46.3889" lon="5.51237">
        <ele>585</ele>
        <time>2019-04-30T16:57:01Z</time>
      </trkpt>
      <trkpt lat="46.38886" lon="5.51263">
        <ele>586</ele>
        <time>2019-04-30T16:58:01Z</time>
      </trkpt>
      <trkpt lat="46.38881" lon="5.51288">
        <ele>586</ele>
        <time>2019-04-30T16:59:01Z</time>
      </trkpt>
      <trkpt lat="46.38873" lon="5.51305">
        <ele>586</ele>
        <time>2019-04-30T17:00:01Z</time>
      </trkpt>
      <trkpt lat="46.38865" lon="5.51316">
        <ele>587</ele>
        <time>2019-04-30T17:01:01Z</time>
      </trkpt>
      <trkpt lat="46.38852" lon="5.51327">
        <ele>587</ele>
        <time>2019-04-30T17:02:01Z</time>
      </trkpt>
      <trkpt lat="46.3884" lon="5.5133">
        <ele>587</ele>
        <time>2019-04-30T17:03:01Z</time>
      </trkpt>
      <trkpt lat="46.38834" lon="5.51332">
        <ele>587</ele>
        <time>2019-04-30T17:04:01Z</time>
      </trkpt>
      <trkpt lat="46.38824" lon="5.51333">
        <ele>587</ele>
        <time>2019-04-30T17:05:01Z</time>
      </trkpt>
      <trkpt lat="46.38812" lon="5.51334">
        <ele>587</ele>
        <time>2019-04-30T17:06:01Z</time>
      </trkpt>
      <trkpt lat="46.38796" lon="5.5134">
        <ele>587</ele>
        <time>2019-04-30T17:07:01Z</time>
      </trkpt>
      <trkpt lat="46.38793" lon="5.51341">
        <ele>587</ele>
        <time>2019-04-30T17:08:01Z</time>
      </trkpt>
      <trkpt lat="46.38785" lon="5.51347">
        <ele>587</ele>
        <time>2019-04-30T17:09:01Z</time>
      </trkpt>
      <trkpt lat="46.3878" lon="5.51352">
        <ele>587</ele>
        <time>2019-04-30T17:10:01Z</time>
      </trkpt>
      <trkpt lat="46.38767" lon="5.5137">
        <ele>586</ele>
        <time>2019-04-30T17:11:01Z</time>
      </trkpt>
      <trkpt lat="46.38756" lon="5.51389">
        <ele>585</ele>
        <time>2019-04-30T17:12:01Z</time>
      </trkpt>
      <trkpt lat="46.3875" lon="5.51404">
        <ele>584</ele>
        <time>2019-04-30T17:13:01Z</time>
      </trkpt>
      <trkpt lat="46.38744" lon="5.51415">
        <ele>584</ele>
        <time>2019-04-30T17:14:01Z</time>
      </trkpt>
      <trkpt lat="46.38737" lon="5.51426">
        <ele>583</ele>
        <time>2019-04-30T17:15:01Z</time>
      </trkpt>
      <trkpt lat="46.38726" lon="5.51439">
        <ele>582</ele>
        <time>2019-04-30T17:16:01Z</time>
      </trkpt>
      <trkpt lat="46.38712" lon="5.51451">
        <ele>581</ele>
        <time>2019-04-30T17:17:01Z</time>
      </trkpt>
      <trkpt lat="46.38706" lon="5.51454">
        <ele>581</ele>
        <time>2019-04-30T17:18:01Z</time>
      </trkpt>
      <trkpt lat="46.38697" lon="5.51459">
        <ele>581</ele>
        <time>2019-04-30T17:19:01Z</time>
      </trkpt>
      <trkpt lat="46.38682" lon="5.51468">
        <ele>580</ele>
        <time>2019-04-30T17:20:01Z</time>
      </trkpt>
      <trkpt lat="46.38669" lon="5.51474">
        <ele>580</ele>
        <time>2019-04-30T17:21:01Z</time>
      </trkpt>
      <trkpt lat="46.38654" lon="5.51483">
        <ele>579</ele>
        <time>2019-04-30T17:22:01Z</time>
      </trkpt>
      <trkpt lat="46.38636" lon="5.51494">
        <ele>577</ele>
        <time>2019-04-30T17:23:01Z</time>
      </trkpt>
      <trkpt lat="46.38597" lon="5.5152">
        <ele>575</ele>
        <time>2019-04-30T17:24:01Z</time>
      </trkpt>
      <trkpt lat="46.38587" lon="5.51527">
        <ele>575</ele>
        <time>2019-04-30T17:25:01Z</time>
      </trkpt>
      <trkpt lat="46.38579" lon="5.51533">
        <ele>575</ele>
        <time>2019-04-30T17:26:01Z</time>
      </trkpt>
      <trkpt lat="46.38574" lon="5.51538">
        <ele>575</ele>
        <time>2019-04-30T17:27:01Z</time>
      </trkpt>
      <trkpt lat="46.38572" lon="5.51542">
        <ele>575</ele>
        <time>2019-04-30T17:28:01Z</time>
      </trkpt>
      <trkpt lat="46.38569" lon="5.51546">
        <ele>575</ele>
        <time>2019-04-30T17:29:01Z</time>
      </trkpt>
      <trkpt lat="46.38567" lon="5.51555">
        <ele>574</ele>
        <time>2019-04-30T17:30:01Z</time>
      </trkpt>
      <trkpt lat="46.38566" lon="5.51567">
        <ele>574</ele>
        <time>2019-04-30T17:31:01Z</time>
      </trkpt>
      <trkpt lat="46.38568" lon="5.51576">
        <ele>574</ele>
        <time>2019-04-30T17:32:01Z</time>
      </trkpt>
      <trkpt lat="46.38572" lon="5.51589">
        <ele>573</ele>
        <time>2019-04-30T17:33:01Z</time>
      </trkpt>
      <trkpt lat="46.38578" lon="5.51598">
        <ele>573</ele>
        <time>2019-04-30T17:34:01Z</time>
      </trkpt>
      <trkpt lat="46.38587" lon="5.51609">
        <ele>573</ele>
        <time>2019-04-30T17:35:01Z</time>
      </trkpt>
      <trkpt lat="46.38593" lon="5.51617">
        <ele>572</ele>
        <time>2019-04-30T17:36:01Z</time>
      </trkpt>
      <trkpt lat="46.38616" lon="5.51644">
        <ele>571</ele>
        <time>2019-04-30T17:37:01Z</time>
      </trkpt>
      <trkpt lat="46.3863" lon="5.51659">
        <ele>570</ele>
        <time>2019-04-30T17:38:01Z</time>
      </trkpt>
      <trkpt lat="46.3864" lon="5.51672">
        <ele>570</ele>
        <time>2019-04-30T17:39:01Z</time>
      </trkpt>
      <trkpt lat="46.38648" lon="5.51687">
        <ele>569</ele>
        <time>2019-04-30T17:40:01Z</time>
      </trkpt>
      <trkpt lat="46.38654" lon="5.51704">
        <ele>569</ele>
        <time>2019-04-30T17:41:01Z</time>
      </trkpt>
      <trkpt lat="46.3866" lon="5.51732">
        <ele>569</ele>
        <time>2019-04-30T17:42:01Z</time>
      </trkpt>
      <trkpt lat="46.38666" lon="5.51766">
        <ele>568</ele>
        <time>2019-04-30T17:43:01Z</time>
      </trkpt>
      <trkpt lat="46.38668" lon="5.51792">
        <ele>567</ele>
        <time>2019-04-30T17:44:01Z</time>
      </trkpt>
      <trkpt lat="46.38669" lon="5.51822">
        <ele>566</ele>
        <time>2019-04-30T17:45:01Z</time>
      </trkpt>
      <trkpt lat="46.38668" lon="5.51851">
        <ele>565</ele>
        <time>2019-04-30T17:46:01Z</time>
      </trkpt>
      <trkpt lat="46.38666" lon="5.51877">
        <ele>566</ele>
        <time>2019-04-30T17:47:01Z</time>
      </trkpt>
      <trkpt lat="46.38661" lon="5.51904">
        <ele>566</ele>
        <time>2019-04-30T17:48:01Z</time>
      </trkpt>
      <trkpt lat="46.38654" lon="5.51926">
        <ele>566</ele>
        <time>2019-04-30T17:49:01Z</time>
      </trkpt>
      <trkpt lat="46.38652" lon="5.51932">
        <ele>566</ele>
        <time>2019-04-30T17:50:01Z</time>
      </trkpt>
      <trkpt lat="46.38649" lon="5.51939">
        <ele>566</ele>
        <time>2019-04-30T17:51:01Z</time>
      </trkpt>
      <trkpt lat="46.38644" lon="5.5195">
        <ele>566</ele>
        <time>2019-04-30T17:52:01Z</time>
      </trkpt>
      <trkpt lat="46.38634" lon="5.51971">
        <ele>566</ele>
        <time>2019-04-30T17:53:01Z</time>
      </trkpt>
      <trkpt lat="46.3862" lon="5.51993">
        <ele>566</ele>
        <time>2019-04-30T17:54:01Z</time>
      </trkpt>
      <trkpt lat="46.38605" lon="5.52016">
        <ele>566</ele>
        <time>2019-04-30T17:55:01Z</time>
      </trkpt>
      <trkpt lat="46.3859" lon="5.52037">
        <ele>566</ele>
        <time>2019-04-30T17:56:01Z</time>
      </trkpt>
      <trkpt lat="46.38584" lon="5.52046">
        <ele>566</ele>
        <time>2019-04-30T17:57:01Z</time>
      </trkpt>
      <trkpt lat="46.38573" lon="5.52062">
        <ele>566</ele>
        <time>2019-04-30T17:58:01Z</time>
      </trkpt>
      <trkpt lat="46.38567" lon="5.52073">
        <ele>567</ele>
        <time>2019-04-30T17:59:01Z</time>
      </trkpt>
      <trkpt lat="46.38565" lon="5.52075">
        <ele>567</ele>
        <time>2019-04-30T18:00:01Z</time>
      </trkpt>
      <trkpt lat="46.38545" lon="5.52099">
        <ele>565</ele>
        <time>2019-04-30T18:01:01Z</time>
      </trkpt>
      <trkpt lat="46.38537" lon="5.52104">
        <ele>564</ele>
        <time>2019-04-30T18:02:01Z</time>
      </trkpt>
      <trkpt lat="46.38523" lon="5.5211">
        <ele>563</ele>
        <time>2019-04-30T18:03:01Z</time>
      </trkpt>
      <trkpt lat="46.38508" lon="5.52112">
        <ele>563</ele>
        <time>2019-04-30T18:04:01Z</time>
      </trkpt>
      <trkpt lat="46.38479" lon="5.52113">
        <ele>564</ele>
        <time>2019-04-30T18:05:01Z</time>
      </trkpt>
      <trkpt lat="46.38468" lon="5.52114">
        <ele>563</ele>
        <time>2019-04-30T18:06:01Z</time>
      </trkpt>
      <trkpt lat="46.38439" lon="5.52114">
        <ele>564</ele>
        <time>2019-04-30T18:07:01Z</time>
      </trkpt>
      <trkpt lat="46.38417" lon="5.52114">
        <ele>564</ele>
        <time>2019-04-30T18:08:01Z</time>
      </trkpt>
      <trkpt lat="46.38391" lon="5.52115">
        <ele>562</ele>
        <time>2019-04-30T18:09:01Z</time>
      </trkpt>
      <trkpt lat="46.38369" lon="5.52116">
        <ele>561</ele>
        <time>2019-04-30T18:10:01Z</time>
      </trkpt>
      <trkpt lat="46.38348" lon="5.5212">
        <ele>559</ele>
        <time>2019-04-30T18:11:01Z</time>
      </trkpt>
      <trkpt lat="46.38335" lon="5.52122">
        <ele>557</ele>
        <time>2019-04-30T18:12:01Z</time>
      </trkpt>
      <trkpt lat="46.38311" lon="5.52127">
        <ele>556</ele>
        <time>2019-04-30T18:13:01Z</time>
      </trkpt>
      <trkpt lat="46.38178" lon="5.52151">
        <ele>547</ele>
        <time>2019-04-30T18:14:01Z</time>
      </trkpt>
      <trkpt lat="46.38157" lon="5.52155">
        <ele>545</ele>
        <time>2019-04-30T18:15:01Z</time>
      </trkpt>
      <trkpt lat="46.38123" lon="5.52161">
        <ele>543</ele>
        <time>2019-04-30T18:16:01Z</time>
      </trkpt>
      <trkpt lat="46.38097" lon="5.52165">
        <ele>542</ele>
        <time>2019-04-30T18:17:01Z</time>
      </trkpt>
      <trkpt lat="46.38077" lon="5.52169">
        <ele>541</ele>
        <time>2019-04-30T18:18:01Z</time>
      </trkpt>
      <trkpt lat="46.38065" lon="5.52173">
        <ele>541</ele>
        <time>2019-04-30T18:19:01Z</time>
      </trkpt>
      <trkpt lat="46.38059" lon="5.52175">
        <ele>541</ele>
        <time>2019-04-30T18:20:01Z</time>
      </trkpt>
      <trkpt lat="46.38051" lon="5.52179">
        <ele>541</ele>
        <time>2019-04-30T18:21:01Z</time>
      </trkpt>
      <trkpt lat="46.38044" lon="5.52184">
        <ele>540</ele>
        <time>2019-04-30T18:22:01Z</time>
      </trkpt>
      <trkpt lat="46.38039" lon="5.52188">
        <ele>540</ele>
        <time>2019-04-30T18:23:01Z</time>
      </trkpt>
      <trkpt lat="46.38036" lon="5.52193">
        <ele>540</ele>
        <time>2019-04-30T18:24:01Z</time>
      </trkpt>
      <trkpt lat="46.38033" lon="5.52198">
        <ele>539</ele>
        <time>2019-04-30T18:25:01Z</time>
      </trkpt>
      <trkpt lat="46.3803" lon="5.52205">
        <ele>539</ele>
        <time>2019-04-30T18:26:01Z</time>
      </trkpt>
      <trkpt lat="46.38029" lon="5.52211">
        <ele>538</ele>
        <time>2019-04-30T18:27:01Z</time>
      </trkpt>
      <trkpt lat="46.38029" lon="5.52218">
        <ele>538</ele>
        <time>2019-04-30T18:28:01Z</time>
      </trkpt>
      <trkpt lat="46.38029" lon="5.52225">
        <ele>537</ele>
        <time>2019-04-30T18:29:01Z</time>
      </trkpt>
      <trkpt lat="46.3803" lon="5.52233">
        <ele>536</ele>
        <time>2019-04-30T18:30:01Z</time>
      </trkpt>
      <trkpt lat="46.38032" lon="5.52241">
        <ele>535</ele>
        <time>2019-04-30T18:31:01Z</time>
      </trkpt>
      <trkpt lat="46.38035" lon="5.52249">
        <ele>534</ele>
        <time>2019-04-30T18:32:01Z</time>
      </trkpt>
      <trkpt lat="46.38037" lon="5.52254">
        <ele>535</ele>
        <time>2019-04-30T18:33:01Z</time>
      </trkpt>
      <trkpt lat="46.38042" lon="5.52262">
        <ele>535</ele>
        <time>2019-04-30T18:34:01Z</time>
      </trkpt>
      <trkpt lat="46.38049" lon="5.52272">
        <ele>536</ele>
        <time>2019-04-30T18:35:01Z</time>
      </trkpt>
      <trkpt lat="46.38056" lon="5.52281">
        <ele>536</ele>
        <time>2019-04-30T18:36:01Z</time>
      </trkpt>
      <trkpt lat="46.38062" lon="5.52286">
        <ele>536</ele>
        <time>2019-04-30T18:37:01Z</time>
      </trkpt>
      <trkpt lat="46.38068" lon="5.52291">
        <ele>536</ele>
        <time>2019-04-30T18:38:01Z</time>
      </trkpt>
      <trkpt lat="46.38082" lon="5.523">
        <ele>536</ele>
        <time>2019-04-30T18:39:01Z</time>
      </trkpt>
      <trkpt lat="46.38092" lon="5.52305">
        <ele>535</ele>
        <time>2019-04-30T18:40:01Z</time>
      </trkpt>
      <trkpt lat="46.38103" lon="5.52309">
        <ele>535</ele>
        <time>2019-04-30T18:41:01Z</time>
      </trkpt>
      <trkpt lat="46.38124" lon="5.52317">
        <ele>533</ele>
        <time>2019-04-30T18:42:01Z</time>
      </trkpt>
      <trkpt lat="46.38136" lon="5.52321">
        <ele>532</ele>
        <time>2019-04-30T18:43:01Z</time>
      </trkpt>
      <trkpt lat="46.38148" lon="5.52327">
        <ele>532</ele>
        <time>2019-04-30T18:44:01Z</time>
      </trkpt>
      <trkpt lat="46.38159" lon="5.52332">
        <ele>531</ele>
        <time>2019-04-30T18:45:01Z</time>
      </trkpt>
      <trkpt lat="46.38179" lon="5.5234">
        <ele>530</ele>
        <time>2019-04-30T18:46:01Z</time>
      </trkpt>
      <trkpt lat="46.38201" lon="5.52349">
        <ele>530</ele>
        <time>2019-04-30T18:47:01Z</time>
      </trkpt>
      <trkpt lat="46.38216" lon="5.52355">
        <ele>529</ele>
        <time>2019-04-30T18:48:01Z</time>
      </trkpt>
      <trkpt lat="46.38247" lon="5.52364">
        <ele>528</ele>
        <time>2019-04-30T18:49:01Z</time>
      </trkpt>
      <trkpt lat="46.38261" lon="5.52368">
        <ele>527</ele>
        <time>2019-04-30T18:50:01Z</time>
      </trkpt>
      <trkpt lat="46.38305" lon="5.52377">
        <ele>525</ele>
        <time>2019-04-30T18:51:01Z</time>
      </trkpt>
      <trkpt lat="46.38328" lon="5.52382">
        <ele>523</ele>
        <time>2019-04-30T18:52:01Z</time>
      </trkpt>
      <trkpt lat="46.38352" lon="5.52389">
        <ele>522</ele>
        <time>2019-04-30T18:53:01Z</time>
      </trkpt>
      <trkpt lat="46.3836" lon="5.52391">
        <ele>521</ele>
        <time>2019-04-30T18:54:01Z</time>
      </trkpt>
      <trkpt lat="46.38378" lon="5.52394">
        <ele>520</ele>
        <time>2019-04-30T18:55:01Z</time>
      </trkpt>
      <trkpt lat="46.38396" lon="5.52398">
        <ele>519</ele>
        <time>2019-04-30T18:56:01Z</time>
      </trkpt>
      <trkpt lat="46.38401" lon="5.524">
        <ele>519</ele>
        <time>2019-04-30T18:57:01Z</time>
      </trkpt>
      <trkpt lat="46.38408" lon="5.52401">
        <ele>518</ele>
        <time>2019-04-30T18:58:01Z</time>
      </trkpt>
      <trkpt lat="46.38432" lon="5.52409">
        <ele>517</ele>
        <time>2019-04-30T18:59:01Z</time>
      </trkpt>
      <trkpt lat="46.38457" lon="5.52416">
        <ele>515</ele>
        <time>2019-04-30T19:00:01Z</time>
      </trkpt>
      <trkpt lat="46.38485" lon="5.52425">
        <ele>513</ele>
        <time>2019-04-30T19:01:01Z</time>
      </trkpt>
      <trkpt lat="46.38518" lon="5.52436">
        <ele>512</ele>
        <time>2019-04-30T19:02:01Z</time>
      </trkpt>
      <trkpt lat="46.38546" lon="5.52446">
        <ele>511</ele>
        <time>2019-04-30T19:03:01Z</time>
      </trkpt>
      <trkpt lat="46.38558" lon="5.5245">
        <ele>510</ele>
        <time>2019-04-30T19:04:01Z</time>
      </trkpt>
      <trkpt lat="46.38574" lon="5.52455">
        <ele>510</ele>
        <time>2019-04-30T19:05:01Z</time>
      </trkpt>
      <trkpt lat="46.38586" lon="5.52459">
        <ele>509</ele>
        <time>2019-04-30T19:06:01Z</time>
      </trkpt>
      <trkpt lat="46.38618" lon="5.52476">
        <ele>508</ele>
        <time>2019-04-30T19:07:01Z</time>
      </trkpt>
      <trkpt lat="46.38649" lon="5.52492">
        <ele>506</ele>
        <time>2019-04-30T19:08:01Z</time>
      </trkpt>
      <trkpt lat="46.38681" lon="5.52509">
        <ele>505</ele>
        <time>2019-04-30T19:09:01Z</time>
      </trkpt>
      <trkpt lat="46.38712" lon="5.52527">
        <ele>505</ele>
        <time>2019-04-30T19:10:01Z</time>
      </trkpt>
      <trkpt lat="46.3874" lon="5.52545">
        <ele>504</ele>
        <time>2019-04-30T19:11:01Z</time>
      </trkpt>
      <trkpt lat="46.38764" lon="5.52561">
        <ele>504</ele>
        <time>2019-04-30T19:12:01Z</time>
      </trkpt>
      <trkpt lat="46.38787" lon="5.52576">
        <ele>503</ele>
        <time>2019-04-30T19:13:01Z</time>
      </trkpt>
      <trkpt lat="46.38809" lon="5.52592">
        <ele>503</ele>
        <time>2019-04-30T19:14:01Z</time>
      </trkpt>
      <trkpt lat="46.38832" lon="5.52607">
        <ele>502</ele>
        <time>2019-04-30T19:15:01Z</time>
      </trkpt>
      <trkpt lat="46.38854" lon="5.52622">
        <ele>502</ele>
        <time>2019-04-30T19:16:01Z</time>
      </trkpt>
      <trkpt lat="46.38872" lon="5.52637">
        <ele>501</ele>
        <time>2019-04-30T19:17:01Z</time>
      </trkpt>
      <trkpt lat="46.3889" lon="5.52655">
        <ele>501</ele>
        <time>2019-04-30T19:18:01Z</time>
      </trkpt>
      <trkpt lat="46.38902" lon="5.5267">
        <ele>501</ele>
        <time>2019-04-30T19:19:01Z</time>
      </trkpt>
      <trkpt lat="46.38917" lon="5.52689">
        <ele>500</ele>
        <time>2019-04-30T19:20:01Z</time>
      </trkpt>
      <trkpt lat="46.38939" lon="5.52715">
        <ele>499</ele>
        <time>2019-04-30T19:21:01Z</time>
      </trkpt>
      <trkpt lat="46.38956" lon="5.52735">
        <ele>499</ele>
        <time>2019-04-30T19:22:01Z</time>
      </trkpt>
      <trkpt lat="46.38975" lon="5.52756">
        <ele>497</ele>
        <time>2019-04-30T19:23:01Z</time>
      </trkpt>
      <trkpt lat="46.38993" lon="5.52775">
        <ele>496</ele>
        <time>2019-04-30T19:24:01Z</time>
      </trkpt>
      <trkpt lat="46.39007" lon="5.52791">
        <ele>495</ele>
        <time>2019-04-30T19:25:01Z</time>
      </trkpt>
      <trkpt lat="46.39027" lon="5.52815">
        <ele>495</ele>
        <time>2019-04-30T19:26:01Z</time>
      </trkpt>
      <trkpt lat="46.3905" lon="5.5284">
        <ele>494</ele>
        <time>2019-04-30T19:27:01Z</time>
      </trkpt>
      <trkpt lat="46.39058" lon="5.52848">
        <ele>493</ele>
        <time>2019-04-30T19:28:01Z</time>
      </trkpt>
      <trkpt lat="46.39081" lon="5.52877">
        <ele>493</ele>
        <time>2019-04-30T19:29:01Z</time>
      </trkpt>
      <trkpt lat="46.39091" lon="5.52893">
        <ele>492</ele>
        <time>2019-04-30T19:30:01Z</time>
      </trkpt>
      <trkpt lat="46.39113" lon="5.52943">
        <ele>491</ele>
        <time>2019-04-30T19:31:01Z</time>
      </trkpt>
      <trkpt lat="46.3913" lon="5.52987">
        <ele>490</ele>
        <time>2019-04-30T19:32:01Z</time>
      </trkpt>
      <trkpt lat="46.39134" lon="5.53">
        <ele>490</ele>
        <time>2019-04-30T19:33:01Z</time>
      </trkpt>
      <trkpt lat="46.39138" lon="5.53016">
        <ele>490</ele>
        <time>2019-04-30T19:34:01Z</time>
      </trkpt>
      <trkpt lat="46.39139" lon="5.53031">
        <ele>490</ele>
        <time>2019-04-30T19:35:01Z</time>
      </trkpt>
      <trkpt lat="46.39139" lon="5.53044">
        <ele>490</ele>
        <time>2019-04-30T19:36:01Z</time>
      </trkpt>
      <trkpt lat="46.39138" lon="5.53051">
        <ele>490</ele>
        <time>2019-04-30T19:37:01Z</time>
      </trkpt>
      <trkpt lat="46.39137" lon="5.53056">
        <ele>490</ele>
        <time>2019-04-30T19:38:01Z</time>
      </trkpt>
      <trkpt lat="46.39134" lon="5.53066">
        <ele>490</ele>
        <time>2019-04-30T19:39:01Z</time>
      </trkpt>
      <trkpt lat="46.39129" lon="5.53081">
        <ele>489</ele>
        <time>2019-04-30T19:40:01Z</time>
      </trkpt>
      <trkpt lat="46.39124" lon="5.5309">
        <ele>489</ele>
        <time>2019-04-30T19:41:01Z</time>
      </trkpt>
      <trkpt lat="46.39115" lon="5.53104">
        <ele>489</ele>
        <time>2019-04-30T19:42:01Z</time>
      </trkpt>
      <trkpt lat="46.39099" lon="5.53125">
        <ele>488</ele>
        <time>2019-04-30T19:43:01Z</time>
      </trkpt>
      <trkpt lat="46.39067" lon="5.53171">
        <ele>486</ele>
        <time>2019-04-30T19:44:01Z</time>
      </trkpt>
      <trkpt lat="46.39051" lon="5.53194">
        <ele>486</ele>
        <time>2019-04-30T19:45:01Z</time>
      </trkpt>
      <trkpt lat="46.39038" lon="5.53213">
        <ele>485</ele>
        <time>2019-04-30T19:46:01Z</time>
      </trkpt>
      <trkpt lat="46.3902" lon="5.53237">
        <ele>485</ele>
        <time>2019-04-30T19:47:01Z</time>
      </trkpt>
      <trkpt lat="46.39008" lon="5.53254">
        <ele>484</ele>
        <time>2019-04-30T19:48:01Z</time>
      </trkpt>
      <trkpt lat="46.38997" lon="5.53268">
        <ele>483</ele>
        <time>2019-04-30T19:49:01Z</time>
      </trkpt>
      <trkpt lat="46.38984" lon="5.53281">
        <ele>483</ele>
        <time>2019-04-30T19:50:01Z</time>
      </trkpt>
      <trkpt lat="46.38974" lon="5.5329">
        <ele>482</ele>
        <time>2019-04-30T19:51:01Z</time>
      </trkpt>
      <trkpt lat="46.38966" lon="5.53297">
        <ele>482</ele>
        <time>2019-04-30T19:52:01Z</time>
      </trkpt>
      <trkpt lat="46.38956" lon="5.53304">
        <ele>482</ele>
        <time>2019-04-30T19:53:01Z</time>
      </trkpt>
      <trkpt lat="46.38936" lon="5.53317">
        <ele>481</ele>
        <time>2019-04-30T19:54:01Z</time>
      </trkpt>
      <trkpt lat="46.38921" lon="5.53327">
        <ele>480</ele>
        <time>2019-04-30T19:55:01Z</time>
      </trkpt>
      <trkpt lat="46.38893" lon="5.53343">
        <ele>478</ele>
        <time>2019-04-30T19:56:01Z</time>
      </trkpt>
      <trkpt lat="46.38874" lon="5.53356">
        <ele>477</ele>
        <time>2019-04-30T19:57:01Z</time>
      </trkpt>
      <trkpt lat="46.38863" lon="5.53364">
        <ele>476</ele>
        <time>2019-04-30T19:58:01Z</time>
      </trkpt>
      <trkpt lat="46.38856" lon="5.53371">
        <ele>475</ele>
        <time>2019-04-30T19:59:01Z</time>
      </trkpt>
      <trkpt lat="46.38849" lon="5.53384">
        <ele>474</ele>
        <time>2019-04-30T20:00:01Z</time>
      </trkpt>
      <trkpt lat="46.38846" lon="5.53399">
        <ele>473</ele>
        <time>2019-04-30T20:01:01Z</time>
      </trkpt>
      <trkpt lat="46.38846" lon="5.53411">
        <ele>473</ele>
        <time>2019-04-30T20:02:01Z</time>
      </trkpt>
      <trkpt lat="46.38847" lon="5.53421">
        <ele>472</ele>
        <time>2019-04-30T20:03:01Z</time>
      </trkpt>
      <trkpt lat="46.3885" lon="5.53427">
        <ele>472</ele>
        <time>2019-04-30T20:04:01Z</time>
      </trkpt>
      <trkpt lat="46.38853" lon="5.53433">
        <ele>471</ele>
        <time>2019-04-30T20:05:01Z</time>
      </trkpt>
      <trkpt lat="46.38866" lon="5.53445">
        <ele>471</ele>
        <time>2019-04-30T20:06:01Z</time>
      </trkpt>
      <trkpt lat="46.38872" lon="5.53452">
        <ele>471</ele>
        <time>2019-04-30T20:07:01Z</time>
      </trkpt>
      <trkpt lat="46.3889" lon="5.53466">
        <ele>470</ele>
        <time>2019-04-30T20:08:01Z</time>
      </trkpt>
      <trkpt lat="46.38917" lon="5.53483">
        <ele>469</ele>
        <time>2019-04-30T20:09:01Z</time>
      </trkpt>
      <trkpt lat="46.38922" lon="5.53484">
        <ele>470</ele>
        <time>2019-04-30T20:10:01Z</time>
      </trkpt>
      <trkpt lat="46.38943" lon="5.53489">
        <ele>470</ele>
        <time>2019-04-30T20:11:01Z</time>
      </trkpt>
      <trkpt lat="46.38951" lon="5.53492">
        <ele>470</ele>
        <time>2019-04-30T20:12:01Z</time>
      </trkpt>
      <trkpt lat="46.38961" lon="5.53496">
        <ele>470</ele>
        <time>2019-04-30T20:13:01Z</time>
      </trkpt>
      <trkpt lat="46.3897" lon="5.53501">
        <ele>470</ele>
        <time>2019-04-30T20:14:01Z</time>
      </trkpt>
      <trkpt lat="46.38991" lon="5.53512">
        <ele>469</ele>
        <time>2019-04-30T20:15:01Z</time>
      </trkpt>
      <trkpt lat="46.39014" lon="5.53522">
        <ele>468</ele>
        <time>2019-04-30T20:16:01Z</time>
      </trkpt>
      <trkpt lat="46.39039" lon="5.53531">
        <ele>469</ele>
        <time>2019-04-30T20:17:01Z</time>
      </trkpt>
      <trkpt lat="46.39057" lon="5.53541">
        <ele>468</ele>
        <time>2019-04-30T20:18:01Z</time>
      </trkpt>
      <trkpt lat="46.39075" lon="5.53552">
        <ele>467</ele>
        <time>2019-04-30T20:19:01Z</time>
      </trkpt>
      <trkpt lat="46.3909" lon="5.53563">
        <ele>467</ele>
        <time>2019-04-30T20:20:01Z</time>
      </trkpt>
      <trkpt lat="46.39107" lon="5.53574">
        <ele>466</ele>
        <time>2019-04-30T20:21:01Z</time>
      </trkpt>
      <trkpt lat="46.39123" lon="5.53587">
        <ele>465</ele>
        <time>2019-04-30T20:22:01Z</time>
      </trkpt>
      <trkpt lat="46.39135" lon="5.53597">
        <ele>464</ele>
        <time>2019-04-30T20:23:01Z</time>
      </trkpt>
      <trkpt lat="46.3915" lon="5.53606">
        <ele>463</ele>
        <time>2019-04-30T20:24:01Z</time>
      </trkpt>
      <trkpt lat="46.39158" lon="5.53608">
        <ele>463</ele>
        <time>2019-04-30T20:25:01Z</time>
      </trkpt>
      <trkpt lat="46.39176" lon="5.53615">
        <ele>462</ele>
        <time>2019-04-30T20:26:01Z</time>
      </trkpt>
      <trkpt lat="46.39185" lon="5.53618">
        <ele>462</ele>
        <time>2019-04-30T20:27:01Z</time>
      </trkpt>
      <trkpt lat="46.39207" lon="5.53627">
        <ele>460</ele>
        <time>2019-04-30T20:28:01Z</time>
      </trkpt>
      <trkpt lat="46.39225" lon="5.53635">
        <ele>459</ele>
        <time>2019-04-30T20:29:01Z</time>
      </trkpt>
      <trkpt lat="46.39248" lon="5.53647">
        <ele>457</ele>
        <time>2019-04-30T20:30:01Z</time>
      </trkpt>
      <trkpt lat="46.39272" lon="5.5366">
        <ele>455</ele>
        <time>2019-04-30T20:31:01Z</time>
      </trkpt>
      <trkpt lat="46.39292" lon="5.53672">
        <ele>453</ele>
        <time>2019-04-30T20:32:01Z</time>
      </trkpt>
      <trkpt lat="46.39309" lon="5.53682">
        <ele>452</ele>
        <time>2019-04-30T20:33:01Z</time>
      </trkpt>
      <trkpt lat="46.39334" lon="5.53701">
        <ele>450</ele>
        <time>2019-04-30T20:34:01Z</time>
      </trkpt>
      <trkpt lat="46.3935" lon="5.53715">
        <ele>448</ele>
        <time>2019-04-30T20:35:01Z</time>
      </trkpt>
      <trkpt lat="46.39381" lon="5.53737">
        <ele>444</ele>
        <time>2019-04-30T20:36:01Z</time>
      </trkpt>
      <trkpt lat="46.394" lon="5.5375">
        <ele>441</ele>
        <time>2019-04-30T20:37:01Z</time>
      </trkpt>
      <trkpt lat="46.39418" lon="5.5376">
        <ele>440</ele>
        <time>2019-04-30T20:38:01Z</time>
      </trkpt>
      <trkpt lat="46.39444" lon="5.53776">
        <ele>440</ele>
        <time>2019-04-30T20:39:01Z</time>
      </trkpt>
      <trkpt lat="46.39452" lon="5.53782">
        <ele>439</ele>
        <time>2019-04-30T20:40:01Z</time>
      </trkpt>
      <trkpt lat="46.39464" lon="5.5379">
        <ele>439</ele>
        <time>2019-04-30T20:41:01Z</time>
      </trkpt>
      <trkpt lat="46.39476" lon="5.53803">
        <ele>439</ele>
        <time>2019-04-30T20:42:01Z</time>
      </trkpt>
      <trkpt lat="46.39478" lon="5.53805">
        <ele>439</ele>
        <time>2019-04-30T20:43:01Z</time>
      </trkpt>
      <trkpt lat="46.39492" lon="5.53825">
        <ele>437</ele>
        <time>2019-04-30T20:44:01Z</time>
      </trkpt>
      <trkpt lat="46.39499" lon="5.53839">
        <ele>437</ele>
        <time>2019-04-30T20:45:01Z</time>
      </trkpt>
      <trkpt lat="46.39506" lon="5.53858">
        <ele>436</ele>
        <time>2019-04-30T20:46:01Z</time>
      </trkpt>
      <trkpt lat="46.3951" lon="5.53875">
        <ele>436</ele>
        <time>2019-04-30T20:47:01Z</time>
      </trkpt>
      <trkpt lat="46.39513" lon="5.53889">
        <ele>436</ele>
        <time>2019-04-30T20:48:01Z</time>
      </trkpt>
      <trkpt lat="46.39514" lon="5.53906">
        <ele>435</ele>
        <time>2019-04-30T20:49:01Z</time>
      </trkpt>
      <trkpt lat="46.39515" lon="5.53918">
        <ele>435</ele>
        <time>2019-04-30T20:50:01Z</time>
      </trkpt>
      <trkpt lat="46.39514" lon="5.53928">
        <ele>434</ele>
        <time>2019-04-30T20:51:01Z</time>
      </trkpt>
      <trkpt lat="46.39512" lon="5.53948">
        <ele>433</ele>
        <time>2019-04-30T20:52:01Z</time>
      </trkpt>
      <trkpt lat="46.39511" lon="5.53963">
        <ele>433</ele>
        <time>2019-04-30T20:53:01Z</time>
      </trkpt>
      <trkpt lat="46.3951" lon="5.53966">
        <ele>432</ele>
        <time>2019-04-30T20:54:01Z</time>
      </trkpt>
      <trkpt lat="46.3951" lon="5.53977">
        <ele>432</ele>
        <time>2019-04-30T20:55:01Z</time>
      </trkpt>
      <trkpt lat="46.39513" lon="5.5399">
        <ele>432</ele>
        <time>2019-04-30T20:56:01Z</time>
      </trkpt>
      <trkpt lat="46.39524" lon="5.54028">
        <ele>429</ele>
        <time>2019-04-30T20:57:01Z</time>
      </trkpt>
      <trkpt lat="46.39526" lon="5.54034">
        <ele>429</ele>
        <time>2019-04-30T20:58:01Z</time>
      </trkpt>
      <trkpt lat="46.39534" lon="5.54057">
        <ele>427</ele>
        <time>2019-04-30T20:59:01Z</time>
      </trkpt>
      <trkpt lat="46.39547" lon="5.54089">
        <ele>425</ele>
        <time>2019-04-30T21:00:01Z</time>
      </trkpt>
      <trkpt lat="46.39561" lon="5.54127">
        <ele>423</ele>
        <time>2019-04-30T21:01:01Z</time>
      </trkpt>
      <trkpt lat="46.39577" lon="5.54172">
        <ele>421</ele>
        <time>2019-04-30T21:02:01Z</time>
      </trkpt>
      <trkpt lat="46.39585" lon="5.54194">
        <ele>419</ele>
        <time>2019-04-30T21:03:01Z</time>
      </trkpt>
      <trkpt lat="46.39594" lon="5.54217">
        <ele>418</ele>
        <time>2019-04-30T21:04:01Z</time>
      </trkpt>
      <trkpt lat="46.39604" lon="5.54238">
        <ele>417</ele>
        <time>2019-04-30T21:05:01Z</time>
      </trkpt>
      <trkpt lat="46.39611" lon="5.5425">
        <ele>416</ele>
        <time>2019-04-30T21:06:01Z</time>
      </trkpt>
      <trkpt lat="46.39621" lon="5.54262">
        <ele>417</ele>
        <time>2019-04-30T21:07:01Z</time>
      </trkpt>
      <trkpt lat="46.39632" lon="5.54276">
        <ele>417</ele>
        <time>2019-04-30T21:08:01Z</time>
      </trkpt>
      <trkpt lat="46.39648" lon="5.54293">
        <ele>417</ele>
        <time>2019-04-30T21:09:01Z</time>
      </trkpt>
      <trkpt lat="46.39655" lon="5.54304">
        <ele>417</ele>
        <time>2019-04-30T21:10:01Z</time>
      </trkpt>
      <trkpt lat="46.39657" lon="5.54312">
        <ele>416</ele>
        <time>2019-04-30T21:11:01Z</time>
      </trkpt>
      <trkpt lat="46.39658" lon="5.5432">
        <ele>416</ele>
        <time>2019-04-30T21:12:01Z</time>
      </trkpt>
      <trkpt lat="46.39656" lon="5.54326">
        <ele>415</ele>
        <time>2019-04-30T21:13:01Z</time>
      </trkpt>
      <trkpt lat="46.39652" lon="5.54335">
        <ele>414</ele>
        <time>2019-04-30T21:14:01Z</time>
      </trkpt>
      <trkpt lat="46.39646" lon="5.54341">
        <ele>413</ele>
        <time>2019-04-30T21:15:01Z</time>
      </trkpt>
      <trkpt lat="46.39636" lon="5.54343">
        <ele>412</ele>
        <time>2019-04-30T21:16:01Z</time>
      </trkpt>
      <trkpt lat="46.39624" lon="5.54343">
        <ele>411</ele>
        <time>2019-04-30T21:17:01Z</time>
      </trkpt>
      <trkpt lat="46.39601" lon="5.5434">
        <ele>409</ele>
        <time>2019-04-30T21:18:01Z</time>
      </trkpt>
      <trkpt lat="46.39584" lon="5.54337">
        <ele>408</ele>
        <time>2019-04-30T21:19:01Z</time>
      </trkpt>
      <trkpt lat="46.39563" lon="5.54332">
        <ele>407</ele>
        <time>2019-04-30T21:20:01Z</time>
      </trkpt>
      <trkpt lat="46.39546" lon="5.54327">
        <ele>407</ele>
        <time>2019-04-30T21:21:01Z</time>
      </trkpt>
      <trkpt lat="46.39531" lon="5.54322">
        <ele>407</ele>
        <time>2019-04-30T21:22:01Z</time>
      </trkpt>
      <trkpt lat="46.39507" lon="5.54313">
        <ele>406</ele>
        <time>2019-04-30T21:23:01Z</time>
      </trkpt>
      <trkpt lat="46.39482" lon="5.543">
        <ele>405</ele>
        <time>2019-04-30T21:24:01Z</time>
      </trkpt>
      <trkpt lat="46.39457" lon="5.54287">
        <ele>404</ele>
        <time>2019-04-30T21:25:01Z</time>
      </trkpt>
      <trkpt lat="46.39446" lon="5.54281">
        <ele>404</ele>
        <time>2019-04-30T21:26:01Z</time>
      </trkpt>
      <trkpt lat="46.39428" lon="5.54271">
        <ele>403</ele>
        <time>2019-04-30T21:27:01Z</time>
      </trkpt>
      <trkpt lat="46.39426" lon="5.5427">
        <ele>403</ele>
        <time>2019-04-30T21:28:01Z</time>
      </trkpt>
      <trkpt lat="46.3941" lon="5.54262">
        <ele>402</ele>
        <time>2019-04-30T21:29:01Z</time>
      </trkpt>
      <trkpt lat="46.39394" lon="5.54253">
        <ele>403</ele>
        <time>2019-04-30T21:30:01Z</time>
      </trkpt>
      <trkpt lat="46.39384" lon="5.5425">
        <ele>402</ele>
        <time>2019-04-30T21:31:01Z</time>
      </trkpt>
      <trkpt lat="46.39376" lon="5.54252">
        <ele>402</ele>
        <time>2019-04-30T21:32:01Z</time>
      </trkpt>
      <trkpt lat="46.39369" lon="5.54263">
        <ele>400</ele>
        <time>2019-04-30T21:33:01Z</time>
      </trkpt>
      <trkpt lat="46.39367" lon="5.5427">
        <ele>399</ele>
        <time>2019-04-30T21:34:01Z</time>
      </trkpt>
      <trkpt lat="46.39366" lon="5.54272">
        <ele>398</ele>
        <time>2019-04-30T21:35:01Z</time>
      </trkpt>
      <trkpt lat="46.39366" lon="5.54281">
        <ele>397</ele>
        <time>2019-04-30T21:36:01Z</time>
      </trkpt>
      <trkpt lat="46.39371" lon="5.54295">
        <ele>396</ele>
        <time>2019-04-30T21:37:01Z</time>
      </trkpt>
      <trkpt lat="46.39379" lon="5.54308">
        <ele>395</ele>
        <time>2019-04-30T21:38:01Z</time>
      </trkpt>
      <trkpt lat="46.39388" lon="5.54319">
        <ele>394</ele>
        <time>2019-04-30T21:39:01Z</time>
      </trkpt>
      <trkpt lat="46.39406" lon="5.54344">
        <ele>393</ele>
        <time>2019-04-30T21:40:01Z</time>
      </trkpt>
      <trkpt lat="46.39422" lon="5.54368">
        <ele>391</ele>
        <time>2019-04-30T21:41:01Z</time>
      </trkpt>
      <trkpt lat="46.39444" lon="5.54399">
        <ele>389</ele>
        <time>2019-04-30T21:42:01Z</time>
      </trkpt>
      <trkpt lat="46.39465" lon="5.54431">
        <ele>389</ele>
        <time>2019-04-30T21:43:01Z</time>
      </trkpt>
      <trkpt lat="46.3947" lon="5.54439">
        <ele>389</ele>
        <time>2019-04-30T21:44:01Z</time>
      </trkpt>
      <trkpt lat="46.39484" lon="5.54462">
        <ele>389</ele>
        <time>2019-04-30T21:45:01Z</time>
      </trkpt>
      <trkpt lat="46.39498" lon="5.54485">
        <ele>389</ele>
        <time>2019-04-30T21:46:01Z</time>
      </trkpt>
      <trkpt lat="46.39512" lon="5.54511">
        <ele>388</ele>
        <time>2019-04-30T21:47:01Z</time>
      </trkpt>
      <trkpt lat="46.39522" lon="5.54537">
        <ele>386</ele>
        <time>2019-04-30T21:48:01Z</time>
      </trkpt>
      <trkpt lat="46.39528" lon="5.54557">
        <ele>385</ele>
        <time>2019-04-30T21:49:01Z</time>
      </trkpt>
      <trkpt lat="46.39535" lon="5.54586">
        <ele>383</ele>
        <time>2019-04-30T21:50:01Z</time>
      </trkpt>
      <trkpt lat="46.39541" lon="5.54611">
        <ele>381</ele>
        <time>2019-04-30T21:51:01Z</time>
      </trkpt>
      <trkpt lat="46.39545" lon="5.54626">
        <ele>379</ele>
        <time>2019-04-30T21:52:01Z</time>
      </trkpt>
      <trkpt lat="46.39555" lon="5.54648">
        <ele>378</ele>
        <time>2019-04-30T21:53:01Z</time>
      </trkpt>
      <trkpt lat="46.39564" lon="5.54664">
        <ele>378</ele>
        <time>2019-04-30T21:54:01Z</time>
      </trkpt>
      <trkpt lat="46.39573" lon="5.54678">
        <ele>378</ele>
        <time>2019-04-30T21:55:01Z</time>
      </trkpt>
      <trkpt lat="46.39586" lon="5.54693">
        <ele>378</ele>
        <time>2019-04-30T21:56:01Z</time>
      </trkpt>
      <trkpt lat="46.39596" lon="5.54701">
        <ele>377</ele>
        <time>2019-04-30T21:57:01Z</time>
      </trkpt>
      <trkpt lat="46.39615" lon="5.54715">
        <ele>377</ele>
        <time>2019-04-30T21:58:01Z</time>
      </trkpt>
      <trkpt lat="46.39632" lon="5.54726">
        <ele>377</ele>
        <time>2019-04-30T21:59:01Z</time>
      </trkpt>
      <trkpt lat="46.39643" lon="5.54732">
        <ele>377</ele>
        <time>2019-04-30T22:00:01Z</time>
      </trkpt>
      <trkpt lat="46.39667" lon="5.54739">
        <ele>379</ele>
        <time>2019-04-30T22:01:01Z</time>
      </trkpt>
      <trkpt lat="46.39679" lon="5.54742">
        <ele>379</ele>
        <time>2019-04-30T22:02:01Z</time>
      </trkpt>
      <trkpt lat="46.39695" lon="5.54747">
        <ele>379</ele>
        <time>2019-04-30T22:03:01Z</time>
      </trkpt>
      <trkpt lat="46.39705" lon="5.5475">
        <ele>379</ele>
        <time>2019-04-30T22:04:01Z</time>
      </trkpt>
      <trkpt lat="46.39719" lon="5.54754">
        <ele>379</ele>
        <time>2019-04-30T22:05:01Z</time>
      </trkpt>
      <trkpt lat="46.39734" lon="5.54755">
        <ele>380</ele>
        <time>2019-04-30T22:06:01Z</time>
      </trkpt>
      <trkpt lat="46.39739" lon="5.54754">
        <ele>380</ele>
        <time>2019-04-30T22:07:01Z</time>
      </trkpt>
      <trkpt lat="46.39749" lon="5.54753">
        <ele>381</ele>
        <time>2019-04-30T22:08:01Z</time>
      </trkpt>
      <trkpt lat="46.39756" lon="5.54753">
        <ele>381</ele>
        <time>2019-04-30T22:09:01Z</time>
      </trkpt>
      <trkpt lat="46.39761" lon="5.54758">
        <ele>380</ele>
        <time>2019-04-30T22:10:01Z</time>
      </trkpt>
      <trkpt lat="46.39764" lon="5.54765">
        <ele>378</ele>
        <time>2019-04-30T22:11:01Z</time>
      </trkpt>
      <trkpt lat="46.39764" lon="5.54775">
        <ele>375</ele>
        <time>2019-04-30T22:12:01Z</time>
      </trkpt>
      <trkpt lat="46.3976" lon="5.54784">
        <ele>373</ele>
        <time>2019-04-30T22:13:01Z</time>
      </trkpt>
      <trkpt lat="46.39754" lon="5.54788">
        <ele>372</ele>
        <time>2019-04-30T22:14:01Z</time>
      </trkpt>
      <trkpt lat="46.39745" lon="5.54789">
        <ele>371</ele>
        <time>2019-04-30T22:15:01Z</time>
      </trkpt>
      <trkpt lat="46.39729" lon="5.54787">
        <ele>371</ele>
        <time>2019-04-30T22:16:01Z</time>
      </trkpt>
      <trkpt lat="46.39703" lon="5.54784">
        <ele>371</ele>
        <time>2019-04-30T22:17:01Z</time>
      </trkpt>
      <trkpt lat="46.39687" lon="5.54782">
        <ele>371</ele>
        <time>2019-04-30T22:18:01Z</time>
      </trkpt>
      <trkpt lat="46.39677" lon="5.54783">
        <ele>370</ele>
        <time>2019-04-30T22:19:01Z</time>
      </trkpt>
      <trkpt lat="46.39672" lon="5.54783">
        <ele>370</ele>
        <time>2019-04-30T22:20:01Z</time>
      </trkpt>
      <trkpt lat="46.3965" lon="5.54786">
        <ele>367</ele>
        <time>2019-04-30T22:21:01Z</time>
      </trkpt>
      <trkpt lat="46.3963" lon="5.5479">
        <ele>364</ele>
        <time>2019-04-30T22:22:01Z</time>
      </trkpt>
      <trkpt lat="46.39609" lon="5.54793">
        <ele>362</ele>
        <time>2019-04-30T22:23:01Z</time>
      </trkpt>
      <trkpt lat="46.39593" lon="5.54796">
        <ele>360</ele>
        <time>2019-04-30T22:24:01Z</time>
      </trkpt>
      <trkpt lat="46.39579" lon="5.548">
        <ele>358</ele>
        <time>2019-04-30T22:25:01Z</time>
      </trkpt>
      <trkpt lat="46.39566" lon="5.54802">
        <ele>356</ele>
        <time>2019-04-30T22:26:01Z</time>
      </trkpt>
      <trkpt lat="46.39552" lon="5.54802">
        <ele>355</ele>
        <time>2019-04-30T22:27:01Z</time>
      </trkpt>
      <trkpt lat="46.39537" lon="5.548">
        <ele>354</ele>
        <time>2019-04-30T22:28:01Z</time>
      </trkpt>
      <trkpt lat="46.39526" lon="5.54795">
        <ele>354</ele>
        <time>2019-04-30T22:29:01Z</time>
      </trkpt>
      <trkpt lat="46.39516" lon="5.54787">
        <ele>354</ele>
        <time>2019-04-30T22:30:01Z</time>
      </trkpt>
      <trkpt lat="46.395" lon="5.54775">
        <ele>354</ele>
        <time>2019-04-30T22:31:01Z</time>
      </trkpt>
      <trkpt lat="46.39487" lon="5.54762">
        <ele>354</ele>
        <time>2019-04-30T22:32:01Z</time>
      </trkpt>
      <trkpt lat="46.39476" lon="5.54748">
        <ele>353</ele>
        <time>2019-04-30T22:33:01Z</time>
      </trkpt>
      <trkpt lat="46.39463" lon="5.54732">
        <ele>352</ele>
        <time>2019-04-30T22:34:01Z</time>
      </trkpt>
      <trkpt lat="46.39451" lon="5.54719">
        <ele>351</ele>
        <time>2019-04-30T22:35:01Z</time>
      </trkpt>
      <trkpt lat="46.39438" lon="5.54705">
        <ele>350</ele>
        <time>2019-04-30T22:36:01Z</time>
      </trkpt>
      <trkpt lat="46.39429" lon="5.54696">
        <ele>349</ele>
        <time>2019-04-30T22:37:01Z</time>
      </trkpt>
      <trkpt lat="46.39419" lon="5.54694">
        <ele>347</ele>
        <time>2019-04-30T22:38:01Z</time>
      </trkpt>
      <trkpt lat="46.39412" lon="5.54697">
        <ele>346</ele>
        <time>2019-04-30T22:39:01Z</time>
      </trkpt>
      <trkpt lat="46.39409" lon="5.547">
        <ele>346</ele>
        <time>2019-04-30T22:40:01Z</time>
      </trkpt>
      <trkpt lat="46.39408" lon="5.54703">
        <ele>346</ele>
        <time>2019-04-30T22:41:01Z</time>
      </trkpt>
      <trkpt lat="46.39404" lon="5.54711">
        <ele>345</ele>
        <time>2019-04-30T22:42:01Z</time>
      </trkpt>
      <trkpt lat="46.39401" lon="5.54722">
        <ele>345</ele>
        <time>2019-04-30T22:43:01Z</time>
      </trkpt>
      <trkpt lat="46.39399" lon="5.5474">
        <ele>344</ele>
        <time>2019-04-30T22:44:01Z</time>
      </trkpt>
      <trkpt lat="46.39396" lon="5.54758">
        <ele>344</ele>
        <time>2019-04-30T22:45:01Z</time>
      </trkpt>
      <trkpt lat="46.39393" lon="5.54779">
        <ele>343</ele>
        <time>2019-04-30T22:46:01Z</time>
      </trkpt>
      <trkpt lat="46.39388" lon="5.54798">
        <ele>343</ele>
        <time>2019-04-30T22:47:01Z</time>
      </trkpt>
      <trkpt lat="46.39379" lon="5.54816">
        <ele>343</ele>
        <time>2019-04-30T22:48:01Z</time>
      </trkpt>
      <trkpt lat="46.39369" lon="5.54833">
        <ele>344</ele>
        <time>2019-04-30T22:49:01Z</time>
      </trkpt>
      <trkpt lat="46.39362" lon="5.54844">
        <ele>345</ele>
        <time>2019-04-30T22:50:01Z</time>
      </trkpt>
      <trkpt lat="46.39353" lon="5.54859">
        <ele>348</ele>
        <time>2019-04-30T22:51:01Z</time>
      </trkpt>
      <trkpt lat="46.39341" lon="5.54878">
        <ele>351</ele>
        <time>2019-04-30T22:52:01Z</time>
      </trkpt>
      <trkpt lat="46.39339" lon="5.54884">
        <ele>353</ele>
        <time>2019-04-30T22:53:01Z</time>
      </trkpt>
      <trkpt lat="46.39338" lon="5.54888">
        <ele>353</ele>
        <time>2019-04-30T22:54:01Z</time>
      </trkpt>
      <trkpt lat="46.39338" lon="5.54894">
        <ele>354</ele>
        <time>2019-04-30T22:55:01Z</time>
      </trkpt>
      <trkpt lat="46.39338" lon="5.54898">
        <ele>355</ele>
        <time>2019-04-30T22:56:01Z</time>
      </trkpt>
      <trkpt lat="46.39346" lon="5.54915">
        <ele>355</ele>
        <time>2019-04-30T22:57:01Z</time>
      </trkpt>
      <trkpt lat="46.39362" lon="5.54943">
        <ele>358</ele>
        <time>2019-04-30T22:58:01Z</time>
      </trkpt>
      <trkpt lat="46.39381" lon="5.54971">
        <ele>358</ele>
        <time>2019-04-30T22:59:01Z</time>
      </trkpt>
      <trkpt lat="46.39402" lon="5.54995">
        <ele>354</ele>
        <time>2019-04-30T23:00:01Z</time>
      </trkpt>
      <trkpt lat="46.39408" lon="5.55005">
        <ele>354</ele>
        <time>2019-04-30T23:01:01Z</time>
      </trkpt>
      <trkpt lat="46.39423" lon="5.55025">
        <ele>357</ele>
        <time>2019-04-30T23:02:01Z</time>
      </trkpt>
      <trkpt lat="46.39432" lon="5.55034">
        <ele>358</ele>
        <time>2019-04-30T23:03:01Z</time>
      </trkpt>
      <trkpt lat="46.39453" lon="5.55054">
        <ele>360</ele>
        <time>2019-04-30T23:04:01Z</time>
      </trkpt>
      <trkpt lat="46.39477" lon="5.55077">
        <ele>361</ele>
        <time>2019-04-30T23:05:01Z</time>
      </trkpt>
      <trkpt lat="46.39494" lon="5.55091">
        <ele>361</ele>
        <time>2019-04-30T23:06:01Z</time>
      </trkpt>
      <trkpt lat="46.39509" lon="5.55102">
        <ele>362</ele>
        <time>2019-04-30T23:07:01Z</time>
      </trkpt>
      <trkpt lat="46.39526" lon="5.55114">
        <ele>363</ele>
        <time>2019-04-30T23:08:01Z</time>
      </trkpt>
      <trkpt lat="46.39545" lon="5.55129">
        <ele>365</ele>
        <time>2019-04-30T23:09:01Z</time>
      </trkpt>
      <trkpt lat="46.39561" lon="5.55146">
        <ele>366</ele>
        <time>2019-04-30T23:10:01Z</time>
      </trkpt>
      <trkpt lat="46.39576" lon="5.55164">
        <ele>367</ele>
        <time>2019-04-30T23:11:01Z</time>
      </trkpt>
      <trkpt lat="46.39599" lon="5.5519">
        <ele>370</ele>
        <time>2019-04-30T23:12:01Z</time>
      </trkpt>
      <trkpt lat="46.39606" lon="5.55198">
        <ele>371</ele>
        <time>2019-04-30T23:13:01Z</time>
      </trkpt>
      <trkpt lat="46.39615" lon="5.55205">
        <ele>372</ele>
        <time>2019-04-30T23:14:01Z</time>
      </trkpt>
      <trkpt lat="46.39623" lon="5.5521">
        <ele>373</ele>
        <time>2019-04-30T23:15:01Z</time>
      </trkpt>
      <trkpt lat="46.39642" lon="5.55217">
        <ele>373</ele>
        <time>2019-04-30T23:16:01Z</time>
      </trkpt>
      <trkpt lat="46.39665" lon="5.55223">
        <ele>373</ele>
        <time>2019-04-30T23:17:01Z</time>
      </trkpt>
      <trkpt lat="46.39683" lon="5.55228">
        <ele>376</ele>
        <time>2019-04-30T23:18:01Z</time>
      </trkpt>
      <trkpt lat="46.39695" lon="5.55232">
        <ele>378</ele>
        <time>2019-04-30T23:19:01Z</time>
      </trkpt>
      <trkpt lat="46.39707" lon="5.55233">
        <ele>379</ele>
        <time>2019-04-30T23:20:01Z</time>
      </trkpt>
      <trkpt lat="46.39714" lon="5.55231">
        <ele>380</ele>
        <time>2019-04-30T23:21:01Z</time>
      </trkpt>
      <trkpt lat="46.39722" lon="5.55228">
        <ele>380</ele>
        <time>2019-04-30T23:22:01Z</time>
      </trkpt>
      <trkpt lat="46.39729" lon="5.55221">
        <ele>380</ele>
        <time>2019-04-30T23:23:01Z</time>
      </trkpt>
      <trkpt lat="46.39737" lon="5.55211">
        <ele>379</ele>
        <time>2019-04-30T23:24:01Z</time>
      </trkpt>
      <trkpt lat="46.39744" lon="5.55201">
        <ele>377</ele>
        <time>2019-04-30T23:25:01Z</time>
      </trkpt>
      <trkpt lat="46.39753" lon="5.55189">
        <ele>376</ele>
        <time>2019-04-30T23:26:01Z</time>
      </trkpt>
      <trkpt lat="46.39762" lon="5.55181">
        <ele>375</ele>
        <time>2019-04-30T23:27:01Z</time>
      </trkpt>
      <trkpt lat="46.39771" lon="5.55176">
        <ele>375</ele>
        <time>2019-04-30T23:28:01Z</time>
      </trkpt>
      <trkpt lat="46.39778" lon="5.55175">
        <ele>375</ele>
        <time>2019-04-30T23:29:01Z</time>
      </trkpt>
      <trkpt lat="46.39788" lon="5.55176">
        <ele>376</ele>
        <time>2019-04-30T23:30:01Z</time>
      </trkpt>
      <trkpt lat="46.39797" lon="5.55175">
        <ele>377</ele>
        <time>2019-04-30T23:31:01Z</time>
      </trkpt>
      <trkpt lat="46.39804" lon="5.55176">
        <ele>377</ele>
        <time>2019-04-30T23:32:01Z</time>
      </trkpt>
      <trkpt lat="46.39814" lon="5.55178">
        <ele>378</ele>
        <time>2019-04-30T23:33:01Z</time>
      </trkpt>
      <trkpt lat="46.39822" lon="5.55176">
        <ele>379</ele>
        <time>2019-04-30T23:34:01Z</time>
      </trkpt>
      <trkpt lat="46.39833" lon="5.55173">
        <ele>379</ele>
        <time>2019-04-30T23:35:01Z</time>
      </trkpt>
      <trkpt lat="46.39849" lon="5.55171">
        <ele>379</ele>
        <time>2019-04-30T23:36:01Z</time>
      </trkpt>
      <trkpt lat="46.39868" lon="5.55169">
        <ele>379</ele>
        <time>2019-04-30T23:37:01Z</time>
      </trkpt>
      <trkpt lat="46.39888" lon="5.55169">
        <ele>380</ele>
        <time>2019-04-30T23:38:01Z</time>
      </trkpt>
      <trkpt lat="46.39912" lon="5.55171">
        <ele>381</ele>
        <time>2019-04-30T23:39:01Z</time>
      </trkpt>
      <trkpt lat="46.3993" lon="5.55173">
        <ele>380</ele>
        <time>2019-04-30T23:40:01Z</time>
      </trkpt>
      <trkpt lat="46.3994" lon="5.55177">
        <ele>379</ele>
        <time>2019-04-30T23:41:01Z</time>
      </trkpt>
      <trkpt lat="46.39956" lon="5.55185">
        <ele>379</ele>
        <time>2019-04-30T23:42:01Z</time>
      </trkpt>
      <trkpt lat="46.39972" lon="5.55196">
        <ele>380</ele>
        <time>2019-04-30T23:43:01Z</time>
      </trkpt>
      <trkpt lat="46.39988" lon="5.55209">
        <ele>381</ele>
        <time>2019-04-30T23:44:01Z</time>
      </trkpt>
      <trkpt lat="46.39993" lon="5.55217">
        <ele>382</ele>
        <time>2019-04-30T23:45:01Z</time>
      </trkpt>
      <trkpt lat="46.39994" lon="5.55226">
        <ele>384</ele>
        <time>2019-04-30T23:46:01Z</time>
      </trkpt>
      <trkpt lat="46.39992" lon="5.55232">
        <ele>385</ele>
        <time>2019-04-30T23:47:01Z</time>
      </trkpt>
      <trkpt lat="46.39987" lon="5.55235">
        <ele>386</ele>
        <time>2019-04-30T23:48:01Z</time>
      </trkpt>
      <trkpt lat="46.39985" lon="5.55235">
        <ele>386</ele>
        <time>2019-04-30T23:49:01Z</time>
      </trkpt>
      <trkpt lat="46.39981" lon="5.55234">
        <ele>386</ele>
        <time>2019-04-30T23:50:01Z</time>
      </trkpt>
      <trkpt lat="46.39975" lon="5.55232">
        <ele>386</ele>
        <time>2019-04-30T23:51:01Z</time>
      </trkpt>
      <trkpt lat="46.3997" lon="5.55228">
        <ele>386</ele>
        <time>2019-04-30T23:52:01Z</time>
      </trkpt>
      <trkpt lat="46.39961" lon="5.55223">
        <ele>386</ele>
        <time>2019-04-30T23:53:01Z</time>
      </trkpt>
      <trkpt lat="46.39949" lon="5.5522">
        <ele>386</ele>
        <time>2019-04-30T23:54:01Z</time>
      </trkpt>
      <trkpt lat="46.39937" lon="5.55219">
        <ele>387</ele>
        <time>2019-04-30T23:55:01Z</time>
      </trkpt>
      <trkpt lat="46.39925" lon="5.55221">
        <ele>388</ele>
        <time>2019-04-30T23:56:01Z</time>
      </trkpt>
      <trkpt lat="46.39913" lon="5.55229">
        <ele>390</ele>
        <time>2019-04-30T23:57:01Z</time>
      </trkpt>
      <trkpt lat="46.39904" lon="5.5524">
        <ele>391</ele>
        <time>2019-04-30T23:58:01Z</time>
      </trkpt>
      <trkpt lat="46.39895" lon="5.55252">
        <ele>393</ele>
        <time>2019-04-30T23:59:01Z</time>
      </trkpt>
      <trkpt lat="46.39885" lon="5.55271">
        <ele>393</ele>
        <time>2019-05-01T00:00:01Z</time>
      </trkpt>
      <trkpt lat="46.39873" lon="5.5529">
        <ele>393</ele>
        <time>2019-05-01T00:01:01Z</time>
      </trkpt>
      <trkpt lat="46.39856" lon="5.55319">
        <ele>394</ele>
        <time>2019-05-01T00:02:01Z</time>
      </trkpt>
      <trkpt lat="46.39837" lon="5.55351">
        <ele>394</ele>
        <time>2019-05-01T00:03:01Z</time>
      </trkpt>
      <trkpt lat="46.39814" lon="5.55388">
        <ele>395</ele>
        <time>2019-05-01T00:04:01Z</time>
      </trkpt>
      <trkpt lat="46.39798" lon="5.55415">
        <ele>396</ele>
        <time>2019-05-01T00:05:01Z</time>
      </trkpt>
      <trkpt lat="46.39776" lon="5.5545">
        <ele>397</ele>
        <time>2019-05-01T00:06:01Z</time>
      </trkpt>
      <trkpt lat="46.39752" lon="5.55489">
        <ele>399</ele>
        <time>2019-05-01T00:07:01Z</time>
      </trkpt>
      <trkpt lat="46.3973" lon="5.55525">
        <ele>402</ele>
        <time>2019-05-01T00:08:01Z</time>
      </trkpt>
      <trkpt lat="46.39712" lon="5.55555">
        <ele>403</ele>
        <time>2019-05-01T00:09:01Z</time>
      </trkpt>
      <trkpt lat="46.39695" lon="5.55584">
        <ele>406</ele>
        <time>2019-05-01T00:10:01Z</time>
      </trkpt>
      <trkpt lat="46.39685" lon="5.55604">
        <ele>406</ele>
        <time>2019-05-01T00:11:01Z</time>
      </trkpt>
      <trkpt lat="46.39667" lon="5.55639">
        <ele>408</ele>
        <time>2019-05-01T00:12:01Z</time>
      </trkpt>
      <trkpt lat="46.39662" lon="5.55654">
        <ele>408</ele>
        <time>2019-05-01T00:13:01Z</time>
      </trkpt>
      <trkpt lat="46.39653" lon="5.55684">
        <ele>408</ele>
        <time>2019-05-01T00:14:01Z</time>
      </trkpt>
      <trkpt lat="46.39641" lon="5.55725">
        <ele>409</ele>
        <time>2019-05-01T00:15:01Z</time>
      </trkpt>
      <trkpt lat="46.39632" lon="5.55754">
        <ele>410</ele>
        <time>2019-05-01T00:16:01Z</time>
      </trkpt>
      <trkpt lat="46.39626" lon="5.55774">
        <ele>411</ele>
        <time>2019-05-01T00:17:01Z</time>
      </trkpt>
      <trkpt lat="46.39619" lon="5.55791">
        <ele>412</ele>
        <time>2019-05-01T00:18:01Z</time>
      </trkpt>
      <trkpt lat="46.39612" lon="5.55806">
        <ele>412</ele>
        <time>2019-05-01T00:19:01Z</time>
      </trkpt>
      <trkpt lat="46.396" lon="5.55822">
        <ele>413</ele>
        <time>2019-05-01T00:20:01Z</time>
      </trkpt>
      <trkpt lat="46.39589" lon="5.55836">
        <ele>414</ele>
        <time>2019-05-01T00:21:01Z</time>
      </trkpt>
      <trkpt lat="46.39569" lon="5.5586">
        <ele>414</ele>
        <time>2019-05-01T00:22:01Z</time>
      </trkpt>
      <trkpt lat="46.39545" lon="5.55889">
        <ele>415</ele>
        <time>2019-05-01T00:23:01Z</time>
      </trkpt>
      <trkpt lat="46.39526" lon="5.55911">
        <ele>415</ele>
        <time>2019-05-01T00:24:01Z</time>
      </trkpt>
      <trkpt lat="46.39508" lon="5.55934">
        <ele>415</ele>
        <time>2019-05-01T00:25:01Z</time>
      </trkpt>
      <trkpt lat="46.39489" lon="5.55959">
        <ele>416</ele>
        <time>2019-05-01T00:26:01Z</time>
      </trkpt>
      <trkpt lat="46.39471" lon="5.5599">
        <ele>417</ele>
        <time>2019-05-01T00:27:01Z</time>
      </trkpt>
      <trkpt lat="46.39452" lon="5.56027">
        <ele>420</ele>
        <time>2019-05-01T00:28:01Z</time>
      </trkpt>
      <trkpt lat="46.39436" lon="5.56059">
        <ele>422</ele>
        <time>2019-05-01T00:29:01Z</time>
      </trkpt>
      <trkpt lat="46.39365" lon="5.56206">
        <ele>433</ele>
        <time>2019-05-01T00:30:01Z</time>
      </trkpt>
      <trkpt lat="46.39348" lon="5.56237">
        <ele>434</ele>
        <time>2019-05-01T00:31:01Z</time>
      </trkpt>
      <trkpt lat="46.39339" lon="5.56252">
        <ele>435</ele>
        <time>2019-05-01T00:32:01Z</time>
      </trkpt>
      <trkpt lat="46.39318" lon="5.56283">
        <ele>437</ele>
        <time>2019-05-01T00:33:01Z</time>
      </trkpt>
      <trkpt lat="46.39311" lon="5.56301">
        <ele>437</ele>
        <time>2019-05-01T00:34:01Z</time>
      </trkpt>
      <trkpt lat="46.39307" lon="5.5632">
        <ele>438</ele>
        <time>2019-05-01T00:35:01Z</time>
      </trkpt>
      <trkpt lat="46.39305" lon="5.56341">
        <ele>438</ele>
        <time>2019-05-01T00:36:01Z</time>
      </trkpt>
      <trkpt lat="46.39304" lon="5.56378">
        <ele>440</ele>
        <time>2019-05-01T00:37:01Z</time>
      </trkpt>
      <trkpt lat="46.39304" lon="5.5641">
        <ele>441</ele>
        <time>2019-05-01T00:38:01Z</time>
      </trkpt>
      <trkpt lat="46.39303" lon="5.56421">
        <ele>442</ele>
        <time>2019-05-01T00:39:01Z</time>
      </trkpt>
      <trkpt lat="46.39303" lon="5.56431">
        <ele>442</ele>
        <time>2019-05-01T00:40:01Z</time>
      </trkpt>
      <trkpt lat="46.39303" lon="5.56431">
        <ele>442</ele>
        <time>2019-05-01T00:41:01Z</time>
      </trkpt>
      <trkpt lat="46.39309" lon="5.56434">
        <ele>443</ele>
        <time>2019-05-01T00:42:01Z</time>
      </trkpt>
      <trkpt lat="46.39315" lon="5.56439">
        <ele>443</ele>
        <time>2019-05-01T00:43:01Z</time>
      </trkpt>
      <trkpt lat="46.39317" lon="5.56441">
        <ele>443</ele>
        <time>2019-05-01T00:44:01Z</time>
      </trkpt>
      <trkpt lat="46.39324" lon="5.56449">
        <ele>444</ele>
        <time>2019-05-01T00:45:01Z</time>
      </trkpt>
      <trkpt lat="46.39332" lon="5.5646">
        <ele>445</ele>
        <time>2019-05-01T00:46:01Z</time>
      </trkpt>
      <trkpt lat="46.39335" lon="5.56464">
        <ele>445</ele>
        <time>2019-05-01T00:47:01Z</time>
      </trkpt>
      <trkpt lat="46.39347" lon="5.5648">
        <ele>445</ele>
        <time>2019-05-01T00:48:01Z</time>
      </trkpt>
      <trkpt lat="46.39361" lon="5.56503">
        <ele>446</ele>
        <time>2019-05-01T00:49:01Z</time>
      </trkpt>
      <trkpt lat="46.39369" lon="5.56524">
        <ele>446</ele>
        <time>2019-05-01T00:50:01Z</time>
      </trkpt>
      <trkpt lat="46.39371" lon="5.56535">
        <ele>447</ele>
        <time>2019-05-01T00:51:01Z</time>
      </trkpt>
      <trkpt lat="46.39371" lon="5.56551">
        <ele>448</ele>
        <time>2019-05-01T00:52:01Z</time>
      </trkpt>
      <trkpt lat="46.39374" lon="5.56556">
        <ele>448</ele>
        <time>2019-05-01T00:53:01Z</time>
      </trkpt>
      <trkpt lat="46.39374" lon="5.56562">
        <ele>448</ele>
        <time>2019-05-01T00:54:01Z</time>
      </trkpt>
      <trkpt lat="46.39372" lon="5.56573">
        <ele>449</ele>
        <time>2019-05-01T00:55:01Z</time>
      </trkpt>
      <trkpt lat="46.39365" lon="5.56585">
        <ele>450</ele>
        <time>2019-05-01T00:56:01Z</time>
      </trkpt>
      <trkpt lat="46.39359" lon="5.56596">
        <ele>451</ele>
        <time>2019-05-01T00:57:01Z</time>
      </trkpt>
      <trkpt lat="46.39351" lon="5.56618">
        <ele>452</ele>
        <time>2019-05-01T00:58:01Z</time>
      </trkpt>
      <trkpt lat="46.39347" lon="5.5663">
        <ele>452</ele>
        <time>2019-05-01T00:59:01Z</time>
      </trkpt>
      <trkpt lat="46.39345" lon="5.56638">
        <ele>453</ele>
        <time>2019-05-01T01:00:01Z</time>
      </trkpt>
      <trkpt lat="46.39345" lon="5.56659">
        <ele>453</ele>
        <time>2019-05-01T01:01:01Z</time>
      </trkpt>
      <trkpt lat="46.39344" lon="5.56667">
        <ele>453</ele>
        <time>2019-05-01T01:02:01Z</time>
      </trkpt>
      <trkpt lat="46.39339" lon="5.56688">
        <ele>454</ele>
        <time>2019-05-01T01:03:01Z</time>
      </trkpt>
      <trkpt lat="46.39329" lon="5.5672">
        <ele>455</ele>
        <time>2019-05-01T01:04:01Z</time>
      </trkpt>
      <trkpt lat="46.39328" lon="5.56723">
        <ele>455</ele>
        <time>2019-05-01T01:05:01Z</time>
      </trkpt>
      <trkpt lat="46.39328" lon="5.56726">
        <ele>455</ele>
        <time>2019-05-01T01:06:01Z</time>
      </trkpt>
      <trkpt lat="46.39328" lon="5.56728">
        <ele>455</ele>
        <time>2019-05-01T01:07:01Z</time>
      </trkpt>
      <trkpt lat="46.39329" lon="5.56731">
        <ele>455</ele>
        <time>2019-05-01T01:08:01Z</time>
      </trkpt>
      <trkpt lat="46.39329" lon="5.56734">
        <ele>455</ele>
        <time>2019-05-01T01:09:01Z</time>
      </trkpt>
      <trkpt lat="46.3933" lon="5.56735">
        <ele>456</ele>
        <time>2019-05-01T01:10:01Z</time>
      </trkpt>
      <trkpt lat="46.39332" lon="5.56737">
        <ele>456</ele>
        <time>2019-05-01T01:11:01Z</time>
      </trkpt>
      <trkpt lat="46.39348" lon="5.56751">
        <ele>455</ele>
        <time>2019-05-01T01:12:01Z</time>
      </trkpt>
      <trkpt lat="46.39364" lon="5.56766">
        <ele>455</ele>
        <time>2019-05-01T01:13:01Z</time>
      </trkpt>
      <trkpt lat="46.39376" lon="5.56776">
        <ele>454</ele>
        <time>2019-05-01T01:14:01Z</time>
      </trkpt>
      <trkpt lat="46.39376" lon="5.56776">
        <ele>454</ele>
        <time>2019-05-01T01:15:01Z</time>
      </trkpt>
      <trkpt lat="46.39367" lon="5.56797">
        <ele>455</ele>
        <time>2019-05-01T01:16:01Z</time>
      </trkpt>
      <trkpt lat="46.3936" lon="5.56808">
        <ele>455</ele>
        <time>2019-05-01T01:17:01Z</time>
      </trkpt>
      <trkpt lat="46.39351" lon="5.5682">
        <ele>455</ele>
        <time>2019-05-01T01:18:01Z</time>
      </trkpt>
      <trkpt lat="46.39345" lon="5.56828">
        <ele>455</ele>
        <time>2019-05-01T01:19:01Z</time>
      </trkpt>
      <trkpt lat="46.3934" lon="5.5683">
        <ele>455</ele>
        <time>2019-05-01T01:20:01Z</time>
      </trkpt>
      <trkpt lat="46.39335" lon="5.56832">
        <ele>455</ele>
        <time>2019-05-01T01:21:01Z</time>
      </trkpt>
      <trkpt lat="46.39331" lon="5.56832">
        <ele>455</ele>
        <time>2019-05-01T01:22:01Z</time>
      </trkpt>
      <trkpt lat="46.39323" lon="5.5683">
        <ele>455</ele>
        <time>2019-05-01T01:23:01Z</time>
      </trkpt>
      <trkpt lat="46.39319" lon="5.56827">
        <ele>455</ele>
        <time>2019-05-01T01:24:01Z</time>
      </trkpt>
      <trkpt lat="46.39315" lon="5.56823">
        <ele>455</ele>
        <time>2019-05-01T01:25:01Z</time>
      </trkpt>
      <trkpt lat="46.39315" lon="5.56823">
        <ele>455</ele>
        <time>2019-05-01T01:26:01Z</time>
      </trkpt>
      <trkpt lat="46.39309" lon="5.56836">
        <ele>455</ele>
        <time>2019-05-01T01:27:01Z</time>
      </trkpt>
      <trkpt lat="46.39301" lon="5.56846">
        <ele>455</ele>
        <time>2019-05-01T01:28:01Z</time>
      </trkpt>
      <trkpt lat="46.39287" lon="5.56864">
        <ele>455</ele>
        <time>2019-05-01T01:29:01Z</time>
      </trkpt>
      <trkpt lat="46.39274" lon="5.56878">
        <ele>455</ele>
        <time>2019-05-01T01:30:01Z</time>
      </trkpt>
      <trkpt lat="46.3927" lon="5.56883">
        <ele>455</ele>
        <time>2019-05-01T01:31:01Z</time>
      </trkpt>
      <trkpt lat="46.39259" lon="5.56894">
        <ele>455</ele>
        <time>2019-05-01T01:32:01Z</time>
      </trkpt>
      <trkpt lat="46.39259" lon="5.56894">
        <ele>455</ele>
        <time>2019-05-01T01:33:01Z</time>
      </trkpt>
      <trkpt lat="46.39257" lon="5.56896">
        <ele>455</ele>
        <time>2019-05-01T01:34:01Z</time>
      </trkpt>
      <trkpt lat="46.39256" lon="5.56898">
        <ele>455</ele>
        <time>2019-05-01T01:35:01Z</time>
      </trkpt>
      <trkpt lat="46.3924" lon="5.56904">
        <ele>455</ele>
        <time>2019-05-01T01:36:01Z</time>
      </trkpt>
      <trkpt lat="46.39227" lon="5.5691">
        <ele>455</ele>
        <time>2019-05-01T01:37:01Z</time>
      </trkpt>
      <trkpt lat="46.39219" lon="5.56914">
        <ele>456</ele>
        <time>2019-05-01T01:38:01Z</time>
      </trkpt>
      <trkpt lat="46.39215" lon="5.56915">
        <ele>456</ele>
        <time>2019-05-01T01:39:01Z</time>
      </trkpt>
      <trkpt lat="46.39213" lon="5.56919">
        <ele>456</ele>
        <time>2019-05-01T01:40:01Z</time>
      </trkpt>
      <trkpt lat="46.39207" lon="5.56933">
        <ele>457</ele>
        <time>2019-05-01T01:41:01Z</time>
      </trkpt>
      <trkpt lat="46.39197" lon="5.56953">
        <ele>458</ele>
        <time>2019-05-01T01:42:01Z</time>
      </trkpt>
      <trkpt lat="46.39189" lon="5.56972">
        <ele>459</ele>
        <time>2019-05-01T01:43:01Z</time>
      </trkpt>
      <trkpt lat="46.39185" lon="5.56989">
        <ele>460</ele>
        <time>2019-05-01T01:44:01Z</time>
      </trkpt>
      <trkpt lat="46.39183" lon="5.57008">
        <ele>461</ele>
        <time>2019-05-01T01:45:01Z</time>
      </trkpt>
      <trkpt lat="46.39177" lon="5.57039">
        <ele>463</ele>
        <time>2019-05-01T01:46:01Z</time>
      </trkpt>
      <trkpt lat="46.39175" lon="5.5705">
        <ele>463</ele>
        <time>2019-05-01T01:47:01Z</time>
      </trkpt>
      <trkpt lat="46.39168" lon="5.57071">
        <ele>464</ele>
        <time>2019-05-01T01:48:01Z</time>
      </trkpt>
      <trkpt lat="46.39163" lon="5.57082">
        <ele>465</ele>
        <time>2019-05-01T01:49:01Z</time>
      </trkpt>
      <trkpt lat="46.39156" lon="5.57098">
        <ele>466</ele>
        <time>2019-05-01T01:50:01Z</time>
      </trkpt>
      <trkpt lat="46.39147" lon="5.57115">
        <ele>468</ele>
        <time>2019-05-01T01:51:01Z</time>
      </trkpt>
      <trkpt lat="46.39132" lon="5.57148">
        <ele>470</ele>
        <time>2019-05-01T01:52:01Z</time>
      </trkpt>
      <trkpt lat="46.39119" lon="5.57179">
        <ele>471</ele>
        <time>2019-05-01T01:53:01Z</time>
      </trkpt>
      <trkpt lat="46.39114" lon="5.57193">
        <ele>472</ele>
        <time>2019-05-01T01:54:01Z</time>
      </trkpt>
      <trkpt lat="46.39101" lon="5.57229">
        <ele>474</ele>
        <time>2019-05-01T01:55:01Z</time>
      </trkpt>
      <trkpt lat="46.39091" lon="5.57261">
        <ele>475</ele>
        <time>2019-05-01T01:56:01Z</time>
      </trkpt>
      <trkpt lat="46.39083" lon="5.57294">
        <ele>476</ele>
        <time>2019-05-01T01:57:01Z</time>
      </trkpt>
      <trkpt lat="46.39078" lon="5.57316">
        <ele>477</ele>
        <time>2019-05-01T01:58:01Z</time>
      </trkpt>
      <trkpt lat="46.39074" lon="5.57337">
        <ele>478</ele>
        <time>2019-05-01T01:59:01Z</time>
      </trkpt>
      <trkpt lat="46.39068" lon="5.57366">
        <ele>480</ele>
        <time>2019-05-01T02:00:01Z</time>
      </trkpt>
      <trkpt lat="46.39065" lon="5.57384">
        <ele>482</ele>
        <time>2019-05-01T02:01:01Z</time>
      </trkpt>
      <trkpt lat="46.39063" lon="5.57396">
        <ele>483</ele>
        <time>2019-05-01T02:02:01Z</time>
      </trkpt>
      <trkpt lat="46.39061" lon="5.57415">
        <ele>485</ele>
        <time>2019-05-01T02:03:01Z</time>
      </trkpt>
      <trkpt lat="46.39062" lon="5.57426">
        <ele>486</ele>
        <time>2019-05-01T02:04:01Z</time>
      </trkpt>
      <trkpt lat="46.39066" lon="5.57439">
        <ele>486</ele>
        <time>2019-05-01T02:05:01Z</time>
      </trkpt>
      <trkpt lat="46.39075" lon="5.57452">
        <ele>487</ele>
        <time>2019-05-01T02:06:01Z</time>
      </trkpt>
      <trkpt lat="46.39088" lon="5.57462">
        <ele>487</ele>
        <time>2019-05-01T02:07:01Z</time>
      </trkpt>
      <trkpt lat="46.39105" lon="5.57476">
        <ele>487</ele>
        <time>2019-05-01T02:08:01Z</time>
      </trkpt>
      <trkpt lat="46.39119" lon="5.57486">
        <ele>487</ele>
        <time>2019-05-01T02:09:01Z</time>
      </trkpt>
      <trkpt lat="46.39134" lon="5.57499">
        <ele>486</ele>
        <time>2019-05-01T02:10:01Z</time>
      </trkpt>
      <trkpt lat="46.39149" lon="5.57512">
        <ele>487</ele>
        <time>2019-05-01T02:11:01Z</time>
      </trkpt>
      <trkpt lat="46.39195" lon="5.57558">
        <ele>491</ele>
        <time>2019-05-01T02:12:01Z</time>
      </trkpt>
      <trkpt lat="46.39214" lon="5.57573">
        <ele>492</ele>
        <time>2019-05-01T02:13:01Z</time>
      </trkpt>
      <trkpt lat="46.39223" lon="5.5758">
        <ele>493</ele>
        <time>2019-05-01T02:14:01Z</time>
      </trkpt>
      <trkpt lat="46.39232" lon="5.57586">
        <ele>493</ele>
        <time>2019-05-01T02:15:01Z</time>
      </trkpt>
      <trkpt lat="46.39242" lon="5.57594">
        <ele>494</ele>
        <time>2019-05-01T02:16:01Z</time>
      </trkpt>
      <trkpt lat="46.3926" lon="5.57614">
        <ele>496</ele>
        <time>2019-05-01T02:17:01Z</time>
      </trkpt>
      <trkpt lat="46.39262" lon="5.57616">
        <ele>496</ele>
        <time>2019-05-01T02:18:01Z</time>
      </trkpt>
      <trkpt lat="46.3927" lon="5.57628">
        <ele>497</ele>
        <time>2019-05-01T02:19:01Z</time>
      </trkpt>
      <trkpt lat="46.39279" lon="5.57643">
        <ele>498</ele>
        <time>2019-05-01T02:20:01Z</time>
      </trkpt>
      <trkpt lat="46.39282" lon="5.57656">
        <ele>499</ele>
        <time>2019-05-01T02:21:01Z</time>
      </trkpt>
      <trkpt lat="46.39284" lon="5.5767">
        <ele>501</ele>
        <time>2019-05-01T02:22:01Z</time>
      </trkpt>
      <trkpt lat="46.39282" lon="5.57682">
        <ele>502</ele>
        <time>2019-05-01T02:23:01Z</time>
      </trkpt>
      <trkpt lat="46.3928" lon="5.57689">
        <ele>503</ele>
        <time>2019-05-01T02:24:01Z</time>
      </trkpt>
      <trkpt lat="46.39276" lon="5.57695">
        <ele>503</ele>
        <time>2019-05-01T02:25:01Z</time>
      </trkpt>
      <trkpt lat="46.39267" lon="5.57701">
        <ele>505</ele>
        <time>2019-05-01T02:26:01Z</time>
      </trkpt>
      <trkpt lat="46.39255" lon="5.57702">
        <ele>506</ele>
        <time>2019-05-01T02:27:01Z</time>
      </trkpt>
      <trkpt lat="46.39245" lon="5.57703">
        <ele>507</ele>
        <time>2019-05-01T02:28:01Z</time>
      </trkpt>
      <trkpt lat="46.39238" lon="5.57704">
        <ele>507</ele>
        <time>2019-05-01T02:29:01Z</time>
      </trkpt>
      <trkpt lat="46.39232" lon="5.57704">
        <ele>507</ele>
        <time>2019-05-01T02:30:01Z</time>
      </trkpt>
      <trkpt lat="46.39228" lon="5.57705">
        <ele>507</ele>
        <time>2019-05-01T02:31:01Z</time>
      </trkpt>
      <trkpt lat="46.39214" lon="5.57709">
        <ele>508</ele>
        <time>2019-05-01T02:32:01Z</time>
      </trkpt>
      <trkpt lat="46.39207" lon="5.57714">
        <ele>509</ele>
        <time>2019-05-01T02:33:01Z</time>
      </trkpt>
      <trkpt lat="46.39195" lon="5.57722">
        <ele>510</ele>
        <time>2019-05-01T02:34:01Z</time>
      </trkpt>
      <trkpt lat="46.39183" lon="5.57731">
        <ele>511</ele>
        <time>2019-05-01T02:35:01Z</time>
      </trkpt>
      <trkpt lat="46.39169" lon="5.57741">
        <ele>512</ele>
        <time>2019-05-01T02:36:01Z</time>
      </trkpt>
      <trkpt lat="46.39154" lon="5.57749">
        <ele>513</ele>
        <time>2019-05-01T02:37:01Z</time>
      </trkpt>
      <trkpt lat="46.39136" lon="5.57755">
        <ele>513</ele>
        <time>2019-05-01T02:38:01Z</time>
      </trkpt>
      <trkpt lat="46.39117" lon="5.57763">
        <ele>514</ele>
        <time>2019-05-01T02:39:01Z</time>
      </trkpt>
      <trkpt lat="46.3909" lon="5.57772">
        <ele>516</ele>
        <time>2019-05-01T02:40:01Z</time>
      </trkpt>
      <trkpt lat="46.39057" lon="5.57781">
        <ele>516</ele>
        <time>2019-05-01T02:41:01Z</time>
      </trkpt>
      <trkpt lat="46.39044" lon="5.57784">
        <ele>516</ele>
        <time>2019-05-01T02:42:01Z</time>
      </trkpt>
      <trkpt lat="46.39037" lon="5.57788">
        <ele>517</ele>
        <time>2019-05-01T02:43:01Z</time>
      </trkpt>
      <trkpt lat="46.39036" lon="5.5779">
        <ele>517</ele>
        <time>2019-05-01T02:44:01Z</time>
      </trkpt>
      <trkpt lat="46.39035" lon="5.57792">
        <ele>517</ele>
        <time>2019-05-01T02:45:01Z</time>
      </trkpt>
      <trkpt lat="46.39034" lon="5.57794">
        <ele>517</ele>
        <time>2019-05-01T02:46:01Z</time>
      </trkpt>
      <trkpt lat="46.39033" lon="5.57795">
        <ele>518</ele>
        <time>2019-05-01T02:47:01Z</time>
      </trkpt>
      <trkpt lat="46.39033" lon="5.57798">
        <ele>518</ele>
        <time>2019-05-01T02:48:01Z</time>
      </trkpt>
      <trkpt lat="46.39033" lon="5.57803">
        <ele>519</ele>
        <time>2019-05-01T02:49:01Z</time>
      </trkpt>
      <trkpt lat="46.39035" lon="5.57807">
        <ele>520</ele>
        <time>2019-05-01T02:50:01Z</time>
      </trkpt>
      <trkpt lat="46.39037" lon="5.57809">
        <ele>520</ele>
        <time>2019-05-01T02:51:01Z</time>
      </trkpt>
      <trkpt lat="46.39039" lon="5.5781">
        <ele>520</ele>
        <time>2019-05-01T02:52:01Z</time>
      </trkpt>
      <trkpt lat="46.39041" lon="5.57811">
        <ele>520</ele>
        <time>2019-05-01T02:53:01Z</time>
      </trkpt>
      <trkpt lat="46.39042" lon="5.57811">
        <ele>520</ele>
        <time>2019-05-01T02:54:01Z</time>
      </trkpt>
      <trkpt lat="46.3906" lon="5.57805">
        <ele>520</ele>
        <time>2019-05-01T02:55:01Z</time>
      </trkpt>
      <trkpt lat="46.39069" lon="5.57805">
        <ele>520</ele>
        <time>2019-05-01T02:56:01Z</time>
      </trkpt>
      <trkpt lat="46.39076" lon="5.57806">
        <ele>521</ele>
        <time>2019-05-01T02:57:01Z</time>
      </trkpt>
      <trkpt lat="46.39088" lon="5.57809">
        <ele>521</ele>
        <time>2019-05-01T02:58:01Z</time>
      </trkpt>
      <trkpt lat="46.39117" lon="5.57822">
        <ele>524</ele>
        <time>2019-05-01T02:59:01Z</time>
      </trkpt>
      <trkpt lat="46.39127" lon="5.57827">
        <ele>525</ele>
        <time>2019-05-01T03:00:01Z</time>
      </trkpt>
      <trkpt lat="46.39166" lon="5.57847">
        <ele>529</ele>
        <time>2019-05-01T03:01:01Z</time>
      </trkpt>
      <trkpt lat="46.39182" lon="5.57857">
        <ele>529</ele>
        <time>2019-05-01T03:02:01Z</time>
      </trkpt>
      <trkpt lat="46.39202" lon="5.57875">
        <ele>531</ele>
        <time>2019-05-01T03:03:01Z</time>
      </trkpt>
      <trkpt lat="46.39221" lon="5.57894">
        <ele>533</ele>
        <time>2019-05-01T03:04:01Z</time>
      </trkpt>
      <trkpt lat="46.39235" lon="5.5791">
        <ele>534</ele>
        <time>2019-05-01T03:05:01Z</time>
      </trkpt>
      <trkpt lat="46.39239" lon="5.57915">
        <ele>535</ele>
        <time>2019-05-01T03:06:01Z</time>
      </trkpt>
      <trkpt lat="46.39244" lon="5.57921">
        <ele>535</ele>
        <time>2019-05-01T03:07:01Z</time>
      </trkpt>
      <trkpt lat="46.39248" lon="5.57929">
        <ele>535</ele>
        <time>2019-05-01T03:08:01Z</time>
      </trkpt>
      <trkpt lat="46.39251" lon="5.57939">
        <ele>536</ele>
        <time>2019-05-01T03:09:01Z</time>
      </trkpt>
      <trkpt lat="46.39251" lon="5.57951">
        <ele>537</ele>
        <time>2019-05-01T03:10:01Z</time>
      </trkpt>
      <trkpt lat="46.39249" lon="5.57975">
        <ele>539</ele>
        <time>2019-05-01T03:11:01Z</time>
      </trkpt>
      <trkpt lat="46.39247" lon="5.58002">
        <ele>542</ele>
        <time>2019-05-01T03:12:01Z</time>
      </trkpt>
      <trkpt lat="46.39245" lon="5.58017">
        <ele>543</ele>
        <time>2019-05-01T03:13:01Z</time>
      </trkpt>
      <trkpt lat="46.39243" lon="5.58041">
        <ele>546</ele>
        <time>2019-05-01T03:14:01Z</time>
      </trkpt>
      <trkpt lat="46.39243" lon="5.58062">
        <ele>547</ele>
        <time>2019-05-01T03:15:01Z</time>
      </trkpt>
      <trkpt lat="46.39245" lon="5.58074">
        <ele>548</ele>
        <time>2019-05-01T03:16:01Z</time>
      </trkpt>
      <trkpt lat="46.39248" lon="5.58082">
        <ele>548</ele>
        <time>2019-05-01T03:17:01Z</time>
      </trkpt>
      <trkpt lat="46.39253" lon="5.58089">
        <ele>548</ele>
        <time>2019-05-01T03:18:01Z</time>
      </trkpt>
      <trkpt lat="46.39264" lon="5.58096">
        <ele>548</ele>
        <time>2019-05-01T03:19:01Z</time>
      </trkpt>
      <trkpt lat="46.39273" lon="5.58099">
        <ele>547</ele>
        <time>2019-05-01T03:20:01Z</time>
      </trkpt>
      <trkpt lat="46.39284" lon="5.58105">
        <ele>547</ele>
        <time>2019-05-01T03:21:01Z</time>
      </trkpt>
      <trkpt lat="46.3929" lon="5.58113">
        <ele>547</ele>
        <time>2019-05-01T03:22:01Z</time>
      </trkpt>
      <trkpt lat="46.39297" lon="5.58126">
        <ele>547</ele>
        <time>2019-05-01T03:23:01Z</time>
      </trkpt>
      <trkpt lat="46.39304" lon="5.58144">
        <ele>548</ele>
        <time>2019-05-01T03:24:01Z</time>
      </trkpt>
      <trkpt lat="46.39314" lon="5.58166">
        <ele>549</ele>
        <time>2019-05-01T03:25:01Z</time>
      </trkpt>
      <trkpt lat="46.39327" lon="5.5819">
        <ele>551</ele>
        <time>2019-05-01T03:26:01Z</time>
      </trkpt>
      <trkpt lat="46.39343" lon="5.58214">
        <ele>553</ele>
        <time>2019-05-01T03:27:01Z</time>
      </trkpt>
      <trkpt lat="46.39357" lon="5.58233">
        <ele>554</ele>
        <time>2019-05-01T03:28:01Z</time>
      </trkpt>
      <trkpt lat="46.39382" lon="5.58265">
        <ele>556</ele>
        <time>2019-05-01T03:29:01Z</time>
      </trkpt>
      <trkpt lat="46.39418" lon="5.58307">
        <ele>559</ele>
        <time>2019-05-01T03:30:01Z</time>
      </trkpt>
      <trkpt lat="46.39433" lon="5.58324">
        <ele>560</ele>
        <time>2019-05-01T03:31:01Z</time>
      </trkpt>
      <trkpt lat="46.39456" lon="5.58351">
        <ele>563</ele>
        <time>2019-05-01T03:32:01Z</time>
      </trkpt>
      <trkpt lat="46.39473" lon="5.58368">
        <ele>564</ele>
        <time>2019-05-01T03:33:01Z</time>
      </trkpt>
      <trkpt lat="46.39484" lon="5.58376">
        <ele>564</ele>
        <time>2019-05-01T03:34:01Z</time>
      </trkpt>
      <trkpt lat="46.39493" lon="5.5838">
        <ele>564</ele>
        <time>2019-05-01T03:35:01Z</time>
      </trkpt>
      <trkpt lat="46.39502" lon="5.58387">
        <ele>565</ele>
        <time>2019-05-01T03:36:01Z</time>
      </trkpt>
      <trkpt lat="46.39509" lon="5.58396">
        <ele>566</ele>
        <time>2019-05-01T03:37:01Z</time>
      </trkpt>
      <trkpt lat="46.39511" lon="5.58404">
        <ele>567</ele>
        <time>2019-05-01T03:38:01Z</time>
      </trkpt>
      <trkpt lat="46.39511" lon="5.58412">
        <ele>568</ele>
        <time>2019-05-01T03:39:01Z</time>
      </trkpt>
      <trkpt lat="46.3951" lon="5.58426">
        <ele>571</ele>
        <time>2019-05-01T03:40:01Z</time>
      </trkpt>
      <trkpt lat="46.39505" lon="5.58437">
        <ele>573</ele>
        <time>2019-05-01T03:41:01Z</time>
      </trkpt>
      <trkpt lat="46.39495" lon="5.58449">
        <ele>575</ele>
        <time>2019-05-01T03:42:01Z</time>
      </trkpt>
      <trkpt lat="46.39486" lon="5.58456">
        <ele>577</ele>
        <time>2019-05-01T03:43:01Z</time>
      </trkpt>
      <trkpt lat="46.39478" lon="5.58459">
        <ele>577</ele>
        <time>2019-05-01T03:44:01Z</time>
      </trkpt>
      <trkpt lat="46.39471" lon="5.58459">
        <ele>578</ele>
        <time>2019-05-01T03:45:01Z</time>
      </trkpt>
      <trkpt lat="46.39464" lon="5.58457">
        <ele>578</ele>
        <time>2019-05-01T03:46:01Z</time>
      </trkpt>
      <trkpt lat="46.39458" lon="5.58453">
        <ele>578</ele>
        <time>2019-05-01T03:47:01Z</time>
      </trkpt>
      <trkpt lat="46.39452" lon="5.58449">
        <ele>578</ele>
        <time>2019-05-01T03:48:01Z</time>
      </trkpt>
      <trkpt lat="46.39426" lon="5.58427">
        <ele>577</ele>
        <time>2019-05-01T03:49:01Z</time>
      </trkpt>
      <trkpt lat="46.39417" lon="5.58418">
        <ele>577</ele>
        <time>2019-05-01T03:50:01Z</time>
      </trkpt>
      <trkpt lat="46.39411" lon="5.5841">
        <ele>576</ele>
        <time>2019-05-01T03:51:01Z</time>
      </trkpt>
      <trkpt lat="46.39406" lon="5.584">
        <ele>575</ele>
        <time>2019-05-01T03:52:01Z</time>
      </trkpt>
      <trkpt lat="46.39403" lon="5.58392">
        <ele>574</ele>
        <time>2019-05-01T03:53:01Z</time>
      </trkpt>
      <trkpt lat="46.394" lon="5.58386">
        <ele>573</ele>
        <time>2019-05-01T03:54:01Z</time>
      </trkpt>
      <trkpt lat="46.39397" lon="5.58382">
        <ele>573</ele>
        <time>2019-05-01T03:55:01Z</time>
      </trkpt>
      <trkpt lat="46.39394" lon="5.58379">
        <ele>573</ele>
        <time>2019-05-01T03:56:01Z</time>
      </trkpt>
      <trkpt lat="46.3939" lon="5.58377">
        <ele>573</ele>
        <time>2019-05-01T03:57:01Z</time>
      </trkpt>
      <trkpt lat="46.39386" lon="5.58375">
        <ele>573</ele>
        <time>2019-05-01T03:58:01Z</time>
      </trkpt>
      <trkpt lat="46.39381" lon="5.58375">
        <ele>573</ele>
        <time>2019-05-01T03:59:01Z</time>
      </trkpt>
      <trkpt lat="46.39377" lon="5.58376">
        <ele>574</ele>
        <time>2019-05-01T04:00:01Z</time>
      </trkpt>
      <trkpt lat="46.39373" lon="5.58379">
        <ele>574</ele>
        <time>2019-05-01T04:01:01Z</time>
      </trkpt>
      <trkpt lat="46.39369" lon="5.58383">
        <ele>575</ele>
        <time>2019-05-01T04:02:01Z</time>
      </trkpt>
      <trkpt lat="46.39367" lon="5.58387">
        <ele>576</ele>
        <time>2019-05-01T04:03:01Z</time>
      </trkpt>
      <trkpt lat="46.39366" lon="5.58392">
        <ele>577</ele>
        <time>2019-05-01T04:04:01Z</time>
      </trkpt>
      <trkpt lat="46.39365" lon="5.58397">
        <ele>577</ele>
        <time>2019-05-01T04:05:01Z</time>
      </trkpt>
      <trkpt lat="46.39365" lon="5.58403">
        <ele>578</ele>
        <time>2019-05-01T04:06:01Z</time>
      </trkpt>
      <trkpt lat="46.39366" lon="5.58409">
        <ele>579</ele>
        <time>2019-05-01T04:07:01Z</time>
      </trkpt>
      <trkpt lat="46.39368" lon="5.58415">
        <ele>580</ele>
        <time>2019-05-01T04:08:01Z</time>
      </trkpt>
      <trkpt lat="46.39371" lon="5.58422">
        <ele>580</ele>
        <time>2019-05-01T04:09:01Z</time>
      </trkpt>
      <trkpt lat="46.39379" lon="5.58438">
        <ele>581</ele>
        <time>2019-05-01T04:10:01Z</time>
      </trkpt>
      <trkpt lat="46.39386" lon="5.58457">
        <ele>583</ele>
        <time>2019-05-01T04:11:01Z</time>
      </trkpt>
      <trkpt lat="46.39391" lon="5.58469">
        <ele>583</ele>
        <time>2019-05-01T04:12:01Z</time>
      </trkpt>
      <trkpt lat="46.39393" lon="5.58485">
        <ele>585</ele>
        <time>2019-05-01T04:13:01Z</time>
      </trkpt>
      <trkpt lat="46.39394" lon="5.58493">
        <ele>585</ele>
        <time>2019-05-01T04:14:01Z</time>
      </trkpt>
      <trkpt lat="46.39395" lon="5.58567">
        <ele>592</ele>
        <time>2019-05-01T04:15:01Z</time>
      </trkpt>
      <trkpt lat="46.39397" lon="5.58609">
        <ele>595</ele>
        <time>2019-05-01T04:16:01Z</time>
      </trkpt>
      <trkpt lat="46.39399" lon="5.58641">
        <ele>596</ele>
        <time>2019-05-01T04:17:01Z</time>
      </trkpt>
      <trkpt lat="46.39399" lon="5.58653">
        <ele>596</ele>
        <time>2019-05-01T04:18:01Z</time>
      </trkpt>
      <trkpt lat="46.394" lon="5.58692">
        <ele>598</ele>
        <time>2019-05-01T04:19:01Z</time>
      </trkpt>
      <trkpt lat="46.39402" lon="5.58714">
        <ele>598</ele>
        <time>2019-05-01T04:20:01Z</time>
      </trkpt>
      <trkpt lat="46.39402" lon="5.58736">
        <ele>599</ele>
        <time>2019-05-01T04:21:01Z</time>
      </trkpt>
      <trkpt lat="46.39402" lon="5.58753">
        <ele>600</ele>
        <time>2019-05-01T04:22:01Z</time>
      </trkpt>
      <trkpt lat="46.39401" lon="5.58768">
        <ele>602</ele>
        <time>2019-05-01T04:23:01Z</time>
      </trkpt>
      <trkpt lat="46.39399" lon="5.58774">
        <ele>603</ele>
        <time>2019-05-01T04:24:01Z</time>
      </trkpt>
      <trkpt lat="46.39397" lon="5.58781">
        <ele>603</ele>
        <time>2019-05-01T04:25:01Z</time>
      </trkpt>
      <trkpt lat="46.39393" lon="5.58789">
        <ele>604</ele>
        <time>2019-05-01T04:26:01Z</time>
      </trkpt>
      <trkpt lat="46.39387" lon="5.58798">
        <ele>605</ele>
        <time>2019-05-01T04:27:01Z</time>
      </trkpt>
      <trkpt lat="46.39378" lon="5.58809">
        <ele>606</ele>
        <time>2019-05-01T04:28:01Z</time>
      </trkpt>
      <trkpt lat="46.39366" lon="5.58821">
        <ele>606</ele>
        <time>2019-05-01T04:29:01Z</time>
      </trkpt>
      <trkpt lat="46.39349" lon="5.58836">
        <ele>606</ele>
        <time>2019-05-01T04:30:01Z</time>
      </trkpt>
      <trkpt lat="46.39326" lon="5.58855">
        <ele>606</ele>
        <time>2019-05-01T04:31:01Z</time>
      </trkpt>
      <trkpt lat="46.39294" lon="5.58883">
        <ele>607</ele>
        <time>2019-05-01T04:32:01Z</time>
      </trkpt>
      <trkpt lat="46.39288" lon="5.58888">
        <ele>607</ele>
        <time>2019-05-01T04:33:01Z</time>
      </trkpt>
      <trkpt lat="46.39282" lon="5.58894">
        <ele>607</ele>
        <time>2019-05-01T04:34:01Z</time>
      </trkpt>
      <trkpt lat="46.39277" lon="5.58902">
        <ele>608</ele>
        <time>2019-05-01T04:35:01Z</time>
      </trkpt>
      <trkpt lat="46.39273" lon="5.58912">
        <ele>608</ele>
        <time>2019-05-01T04:36:01Z</time>
      </trkpt>
      <trkpt lat="46.39269" lon="5.58925">
        <ele>608</ele>
        <time>2019-05-01T04:37:01Z</time>
      </trkpt>
      <trkpt lat="46.39267" lon="5.58938">
        <ele>609</ele>
        <time>2019-05-01T04:38:01Z</time>
      </trkpt>
      <trkpt lat="46.39266" lon="5.58952">
        <ele>609</ele>
        <time>2019-05-01T04:39:01Z</time>
      </trkpt>
      <trkpt lat="46.39264" lon="5.5897">
        <ele>610</ele>
        <time>2019-05-01T04:40:01Z</time>
      </trkpt>
      <trkpt lat="46.39262" lon="5.5899">
        <ele>611</ele>
        <time>2019-05-01T04:41:01Z</time>
      </trkpt>
      <trkpt lat="46.3926" lon="5.58999">
        <ele>611</ele>
        <time>2019-05-01T04:42:01Z</time>
      </trkpt>
      <trkpt lat="46.39257" lon="5.59008">
        <ele>612</ele>
        <time>2019-05-01T04:43:01Z</time>
      </trkpt>
      <trkpt lat="46.39255" lon="5.59015">
        <ele>613</ele>
        <time>2019-05-01T04:44:01Z</time>
      </trkpt>
      <trkpt lat="46.39252" lon="5.5902">
        <ele>613</ele>
        <time>2019-05-01T04:45:01Z</time>
      </trkpt>
      <trkpt lat="46.39246" lon="5.59026">
        <ele>614</ele>
        <time>2019-05-01T04:46:01Z</time>
      </trkpt>
      <trkpt lat="46.39236" lon="5.59033">
        <ele>616</ele>
        <time>2019-05-01T04:47:01Z</time>
      </trkpt>
      <trkpt lat="46.39227" lon="5.59038">
        <ele>616</ele>
        <time>2019-05-01T04:48:01Z</time>
      </trkpt>
      <trkpt lat="46.39221" lon="5.59045">
        <ele>617</ele>
        <time>2019-05-01T04:49:01Z</time>
      </trkpt>
      <trkpt lat="46.39211" lon="5.59058">
        <ele>619</ele>
        <time>2019-05-01T04:50:01Z</time>
      </trkpt>
      <trkpt lat="46.39205" lon="5.59069">
        <ele>620</ele>
        <time>2019-05-01T04:51:01Z</time>
      </trkpt>
      <trkpt lat="46.39198" lon="5.59078">
        <ele>621</ele>
        <time>2019-05-01T04:52:01Z</time>
      </trkpt>
      <trkpt lat="46.39191" lon="5.59083">
        <ele>621</ele>
        <time>2019-05-01T04:53:01Z</time>
      </trkpt>
      <trkpt lat="46.39185" lon="5.59085">
        <ele>621</ele>
        <time>2019-05-01T04:54:01Z</time>
      </trkpt>
      <trkpt lat="46.39177" lon="5.59086">
        <ele>621</ele>
        <time>2019-05-01T04:55:01Z</time>
      </trkpt>
      <trkpt lat="46.39159" lon="5.59087">
        <ele>621</ele>
        <time>2019-05-01T04:56:01Z</time>
      </trkpt>
      <trkpt lat="46.39142" lon="5.59087">
        <ele>621</ele>
        <time>2019-05-01T04:57:01Z</time>
      </trkpt>
      <trkpt lat="46.39129" lon="5.59088">
        <ele>622</ele>
        <time>2019-05-01T04:58:01Z</time>
      </trkpt>
      <trkpt lat="46.39116" lon="5.59095">
        <ele>622</ele>
        <time>2019-05-01T04:59:01Z</time>
      </trkpt>
      <trkpt lat="46.39106" lon="5.59101">
        <ele>623</ele>
        <time>2019-05-01T05:00:01Z</time>
      </trkpt>
      <trkpt lat="46.39093" lon="5.59115">
        <ele>624</ele>
        <time>2019-05-01T05:01:01Z</time>
      </trkpt>
      <trkpt lat="46.39085" lon="5.59124">
        <ele>625</ele>
        <time>2019-05-01T05:02:01Z</time>
      </trkpt>
      <trkpt lat="46.39081" lon="5.59128">
        <ele>625</ele>
        <time>2019-05-01T05:03:01Z</time>
      </trkpt>
      <trkpt lat="46.39078" lon="5.59136">
        <ele>626</ele>
        <time>2019-05-01T05:04:01Z</time>
      </trkpt>
      <trkpt lat="46.39077" lon="5.59143">
        <ele>626</ele>
        <time>2019-05-01T05:05:01Z</time>
      </trkpt>
      <trkpt lat="46.39075" lon="5.59152">
        <ele>627</ele>
        <time>2019-05-01T05:06:01Z</time>
      </trkpt>
      <trkpt lat="46.39076" lon="5.59159">
        <ele>627</ele>
        <time>2019-05-01T05:07:01Z</time>
      </trkpt>
      <trkpt lat="46.39078" lon="5.59166">
        <ele>627</ele>
        <time>2019-05-01T05:08:01Z</time>
      </trkpt>
      <trkpt lat="46.3908" lon="5.59173">
        <ele>627</ele>
        <time>2019-05-01T05:09:01Z</time>
      </trkpt>
      <trkpt lat="46.39087" lon="5.59181">
        <ele>627</ele>
        <time>2019-05-01T05:10:01Z</time>
      </trkpt>
      <trkpt lat="46.39095" lon="5.59187">
        <ele>628</ele>
        <time>2019-05-01T05:11:01Z</time>
      </trkpt>
      <trkpt lat="46.39104" lon="5.59192">
        <ele>628</ele>
        <time>2019-05-01T05:12:01Z</time>
      </trkpt>
      <trkpt lat="46.39115" lon="5.59197">
        <ele>628</ele>
        <time>2019-05-01T05:13:01Z</time>
      </trkpt>
      <trkpt lat="46.39127" lon="5.59202">
        <ele>628</ele>
        <time>2019-05-01T05:14:01Z</time>
      </trkpt>
      <trkpt lat="46.39138" lon="5.59207">
        <ele>628</ele>
        <time>2019-05-01T05:15:01Z</time>
      </trkpt>
      <trkpt lat="46.39153" lon="5.59214">
        <ele>628</ele>
        <time>2019-05-01T05:16:01Z</time>
      </trkpt>
      <trkpt lat="46.39161" lon="5.59218">
        <ele>628</ele>
        <time>2019-05-01T05:17:01Z</time>
      </trkpt>
      <trkpt lat="46.39174" lon="5.59227">
        <ele>630</ele>
        <time>2019-05-01T05:18:01Z</time>
      </trkpt>
      <trkpt lat="46.39188" lon="5.59239">
        <ele>631</ele>
        <time>2019-05-01T05:19:01Z</time>
      </trkpt>
      <trkpt lat="46.3921" lon="5.59256">
        <ele>634</ele>
        <time>2019-05-01T05:20:01Z</time>
      </trkpt>
      <trkpt lat="46.39237" lon="5.59277">
        <ele>636</ele>
        <time>2019-05-01T05:21:01Z</time>
      </trkpt>
      <trkpt lat="46.39267" lon="5.59301">
        <ele>637</ele>
        <time>2019-05-01T05:22:01Z</time>
      </trkpt>
      <trkpt lat="46.39302" lon="5.59328">
        <ele>637</ele>
        <time>2019-05-01T05:23:01Z</time>
      </trkpt>
      <trkpt lat="46.39356" lon="5.59372">
        <ele>636</ele>
        <time>2019-05-01T05:24:01Z</time>
      </trkpt>
      <trkpt lat="46.39365" lon="5.59382">
        <ele>635</ele>
        <time>2019-05-01T05:25:01Z</time>
      </trkpt>
      <trkpt lat="46.3937" lon="5.59389">
        <ele>634</ele>
        <time>2019-05-01T05:26:01Z</time>
      </trkpt>
      <trkpt lat="46.39373" lon="5.59397">
        <ele>634</ele>
        <time>2019-05-01T05:27:01Z</time>
      </trkpt>
      <trkpt lat="46.39375" lon="5.59404">
        <ele>634</ele>
        <time>2019-05-01T05:28:01Z</time>
      </trkpt>
      <trkpt lat="46.39375" lon="5.59409">
        <ele>634</ele>
        <time>2019-05-01T05:29:01Z</time>
      </trkpt>
      <trkpt lat="46.39375" lon="5.59417">
        <ele>634</ele>
        <time>2019-05-01T05:30:01Z</time>
      </trkpt>
      <trkpt lat="46.39373" lon="5.59424">
        <ele>634</ele>
        <time>2019-05-01T05:31:01Z</time>
      </trkpt>
      <trkpt lat="46.3937" lon="5.59434">
        <ele>635</ele>
        <time>2019-05-01T05:32:01Z</time>
      </trkpt>
      <trkpt lat="46.39363" lon="5.59444">
        <ele>636</ele>
        <time>2019-05-01T05:33:01Z</time>
      </trkpt>
      <trkpt lat="46.3936" lon="5.59447">
        <ele>636</ele>
        <time>2019-05-01T05:34:01Z</time>
      </trkpt>
      <trkpt lat="46.39352" lon="5.59454">
        <ele>637</ele>
        <time>2019-05-01T05:35:01Z</time>
      </trkpt>
      <trkpt lat="46.39334" lon="5.59461">
        <ele>639</ele>
        <time>2019-05-01T05:36:01Z</time>
      </trkpt>
      <trkpt lat="46.39321" lon="5.59463">
        <ele>640</ele>
        <time>2019-05-01T05:37:01Z</time>
      </trkpt>
      <trkpt lat="46.39307" lon="5.59463">
        <ele>641</ele>
        <time>2019-05-01T05:38:01Z</time>
      </trkpt>
      <trkpt lat="46.3929" lon="5.59458">
        <ele>642</ele>
        <time>2019-05-01T05:39:01Z</time>
      </trkpt>
      <trkpt lat="46.39278" lon="5.59452">
        <ele>643</ele>
        <time>2019-05-01T05:40:01Z</time>
      </trkpt>
      <trkpt lat="46.39262" lon="5.59437">
        <ele>642</ele>
        <time>2019-05-01T05:41:01Z</time>
      </trkpt>
      <trkpt lat="46.39247" lon="5.59428">
        <ele>642</ele>
        <time>2019-05-01T05:42:01Z</time>
      </trkpt>
      <trkpt lat="46.39237" lon="5.59428">
        <ele>642</ele>
        <time>2019-05-01T05:43:01Z</time>
      </trkpt>
      <trkpt lat="46.3923" lon="5.59428">
        <ele>642</ele>
        <time>2019-05-01T05:44:01Z</time>
      </trkpt>
      <trkpt lat="46.39224" lon="5.59429">
        <ele>642</ele>
        <time>2019-05-01T05:45:01Z</time>
      </trkpt>
      <trkpt lat="46.3921" lon="5.59438">
        <ele>643</ele>
        <time>2019-05-01T05:46:01Z</time>
      </trkpt>
      <trkpt lat="46.39201" lon="5.59445">
        <ele>643</ele>
        <time>2019-05-01T05:47:01Z</time>
      </trkpt>
      <trkpt lat="46.39194" lon="5.59454">
        <ele>644</ele>
        <time>2019-05-01T05:48:01Z</time>
      </trkpt>
      <trkpt lat="46.3919" lon="5.59461">
        <ele>645</ele>
        <time>2019-05-01T05:49:01Z</time>
      </trkpt>
      <trkpt lat="46.39187" lon="5.59473">
        <ele>647</ele>
        <time>2019-05-01T05:50:01Z</time>
      </trkpt>
      <trkpt lat="46.39184" lon="5.59484">
        <ele>648</ele>
        <time>2019-05-01T05:51:01Z</time>
      </trkpt>
      <trkpt lat="46.39179" lon="5.59492">
        <ele>649</ele>
        <time>2019-05-01T05:52:01Z</time>
      </trkpt>
      <trkpt lat="46.39175" lon="5.59498">
        <ele>650</ele>
        <time>2019-05-01T05:53:01Z</time>
      </trkpt>
      <trkpt lat="46.39169" lon="5.59504">
        <ele>651</ele>
        <time>2019-05-01T05:54:01Z</time>
      </trkpt>
      <trkpt lat="46.39157" lon="5.59512">
        <ele>651</ele>
        <time>2019-05-01T05:55:01Z</time>
      </trkpt>
      <trkpt lat="46.39141" lon="5.5952">
        <ele>652</ele>
        <time>2019-05-01T05:56:01Z</time>
      </trkpt>
      <trkpt lat="46.39123" lon="5.59529">
        <ele>653</ele>
        <time>2019-05-01T05:57:01Z</time>
      </trkpt>
      <trkpt lat="46.39116" lon="5.59534">
        <ele>653</ele>
        <time>2019-05-01T05:58:01Z</time>
      </trkpt>
      <trkpt lat="46.3911" lon="5.59543">
        <ele>655</ele>
        <time>2019-05-01T05:59:01Z</time>
      </trkpt>
      <trkpt lat="46.39106" lon="5.59551">
        <ele>656</ele>
        <time>2019-05-01T06:00:01Z</time>
      </trkpt>
      <trkpt lat="46.39102" lon="5.59567">
        <ele>658</ele>
        <time>2019-05-01T06:01:01Z</time>
      </trkpt>
      <trkpt lat="46.39099" lon="5.59585">
        <ele>661</ele>
        <time>2019-05-01T06:02:01Z</time>
      </trkpt>
      <trkpt lat="46.39098" lon="5.59603">
        <ele>662</ele>
        <time>2019-05-01T06:03:01Z</time>
      </trkpt>
      <trkpt lat="46.39096" lon="5.5962">
        <ele>664</ele>
        <time>2019-05-01T06:04:01Z</time>
      </trkpt>
      <trkpt lat="46.39096" lon="5.59626">
        <ele>664</ele>
        <time>2019-05-01T06:05:01Z</time>
      </trkpt>
      <trkpt lat="46.39094" lon="5.59642">
        <ele>665</ele>
        <time>2019-05-01T06:06:01Z</time>
      </trkpt>
      <trkpt lat="46.39094" lon="5.59656">
        <ele>666</ele>
        <time>2019-05-01T06:07:01Z</time>
      </trkpt>
      <trkpt lat="46.39094" lon="5.59665">
        <ele>667</ele>
        <time>2019-05-01T06:08:01Z</time>
      </trkpt>
      <trkpt lat="46.39094" lon="5.59671">
        <ele>667</ele>
        <time>2019-05-01T06:09:01Z</time>
      </trkpt>
      <trkpt lat="46.39095" lon="5.59677">
        <ele>667</ele>
        <time>2019-05-01T06:10:01Z</time>
      </trkpt>
      <trkpt lat="46.39097" lon="5.59687">
        <ele>667</ele>
        <time>2019-05-01T06:11:01Z</time>
      </trkpt>
      <trkpt lat="46.39103" lon="5.59716">
        <ele>667</ele>
        <time>2019-05-01T06:12:01Z</time>
      </trkpt>
      <trkpt lat="46.39108" lon="5.59749">
        <ele>667</ele>
        <time>2019-05-01T06:13:01Z</time>
      </trkpt>
      <trkpt lat="46.39112" lon="5.59776">
        <ele>666</ele>
        <time>2019-05-01T06:14:01Z</time>
      </trkpt>
      <trkpt lat="46.39116" lon="5.59793">
        <ele>665</ele>
        <time>2019-05-01T06:15:01Z</time>
      </trkpt>
      <trkpt lat="46.39124" lon="5.59823">
        <ele>663</ele>
        <time>2019-05-01T06:16:01Z</time>
      </trkpt>
      <trkpt lat="46.39127" lon="5.59836">
        <ele>663</ele>
        <time>2019-05-01T06:17:01Z</time>
      </trkpt>
      <trkpt lat="46.39131" lon="5.5986">
        <ele>662</ele>
        <time>2019-05-01T06:18:01Z</time>
      </trkpt>
      <trkpt lat="46.39132" lon="5.59872">
        <ele>662</ele>
        <time>2019-05-01T06:19:01Z</time>
      </trkpt>
      <trkpt lat="46.39132" lon="5.59884">
        <ele>662</ele>
        <time>2019-05-01T06:20:01Z</time>
      </trkpt>
      <trkpt lat="46.39133" lon="5.59952">
        <ele>662</ele>
        <time>2019-05-01T06:21:01Z</time>
      </trkpt>
      <trkpt lat="46.39135" lon="5.59991">
        <ele>663</ele>
        <time>2019-05-01T06:22:01Z</time>
      </trkpt>
      <trkpt lat="46.39136" lon="5.60017">
        <ele>663</ele>
        <time>2019-05-01T06:23:01Z</time>
      </trkpt>
      <trkpt lat="46.39137" lon="5.60034">
        <ele>664</ele>
        <time>2019-05-01T06:24:01Z</time>
      </trkpt>
      <trkpt lat="46.39141" lon="5.60058">
        <ele>665</ele>
        <time>2019-05-01T06:25:01Z</time>
      </trkpt>
      <trkpt lat="46.39147" lon="5.60078">
        <ele>667</ele>
        <time>2019-05-01T06:26:01Z</time>
      </trkpt>
      <trkpt lat="46.39152" lon="5.60092">
        <ele>668</ele>
        <time>2019-05-01T06:27:01Z</time>
      </trkpt>
      <trkpt lat="46.39161" lon="5.60112">
        <ele>668</ele>
        <time>2019-05-01T06:28:01Z</time>
      </trkpt>
      <trkpt lat="46.39165" lon="5.60123">
        <ele>668</ele>
        <time>2019-05-01T06:29:01Z</time>
      </trkpt>
      <trkpt lat="46.39175" lon="5.60144">
        <ele>669</ele>
        <time>2019-05-01T06:30:01Z</time>
      </trkpt>
      <trkpt lat="46.39181" lon="5.60155">
        <ele>669</ele>
        <time>2019-05-01T06:31:01Z</time>
      </trkpt>
      <trkpt lat="46.39194" lon="5.60176">
        <ele>671</ele>
        <time>2019-05-01T06:32:01Z</time>
      </trkpt>
      <trkpt lat="46.39205" lon="5.60191">
        <ele>671</ele>
        <time>2019-05-01T06:33:01Z</time>
      </trkpt>
      <trkpt lat="46.39218" lon="5.60204">
        <ele>673</ele>
        <time>2019-05-01T06:34:01Z</time>
      </trkpt>
      <trkpt lat="46.39227" lon="5.60211">
        <ele>674</ele>
        <time>2019-05-01T06:35:01Z</time>
      </trkpt>
      <trkpt lat="46.39238" lon="5.60221">
        <ele>676</ele>
        <time>2019-05-01T06:36:01Z</time>
      </trkpt>
      <trkpt lat="46.3925" lon="5.60233">
        <ele>677</ele>
        <time>2019-05-01T06:37:01Z</time>
      </trkpt>
      <trkpt lat="46.39259" lon="5.60244">
        <ele>678</ele>
        <time>2019-05-01T06:38:01Z</time>
      </trkpt>
      <trkpt lat="46.39267" lon="5.60253">
        <ele>679</ele>
        <time>2019-05-01T06:39:01Z</time>
      </trkpt>
      <trkpt lat="46.39284" lon="5.60269">
        <ele>681</ele>
        <time>2019-05-01T06:40:01Z</time>
      </trkpt>
      <trkpt lat="46.39293" lon="5.60279">
        <ele>682</ele>
        <time>2019-05-01T06:41:01Z</time>
      </trkpt>
      <trkpt lat="46.39304" lon="5.603">
        <ele>681</ele>
        <time>2019-05-01T06:42:01Z</time>
      </trkpt>
      <trkpt lat="46.39312" lon="5.60316">
        <ele>681</ele>
        <time>2019-05-01T06:43:01Z</time>
      </trkpt>
      <trkpt lat="46.3932" lon="5.60329">
        <ele>681</ele>
        <time>2019-05-01T06:44:01Z</time>
      </trkpt>
      <trkpt lat="46.39327" lon="5.60338">
        <ele>681</ele>
        <time>2019-05-01T06:45:01Z</time>
      </trkpt>
      <trkpt lat="46.39332" lon="5.60341">
        <ele>682</ele>
        <time>2019-05-01T06:46:01Z</time>
      </trkpt>
      <trkpt lat="46.39347" lon="5.60343">
        <ele>685</ele>
        <time>2019-05-01T06:47:01Z</time>
      </trkpt>
      <trkpt lat="46.39362" lon="5.60346">
        <ele>688</ele>
        <time>2019-05-01T06:48:01Z</time>
      </trkpt>
      <trkpt lat="46.39365" lon="5.60346">
        <ele>689</ele>
        <time>2019-05-01T06:49:01Z</time>
      </trkpt>
      <trkpt lat="46.39367" lon="5.60347">
        <ele>689</ele>
        <time>2019-05-01T06:50:01Z</time>
      </trkpt>
      <trkpt lat="46.39374" lon="5.60352">
        <ele>690</ele>
        <time>2019-05-01T06:51:01Z</time>
      </trkpt>
      <trkpt lat="46.39384" lon="5.60362">
        <ele>691</ele>
        <time>2019-05-01T06:52:01Z</time>
      </trkpt>
      <trkpt lat="46.39401" lon="5.60381">
        <ele>693</ele>
        <time>2019-05-01T06:53:01Z</time>
      </trkpt>
      <trkpt lat="46.39417" lon="5.60398">
        <ele>695</ele>
        <time>2019-05-01T06:54:01Z</time>
      </trkpt>
      <trkpt lat="46.39439" lon="5.60416">
        <ele>697</ele>
        <time>2019-05-01T06:55:01Z</time>
      </trkpt>
      <trkpt lat="46.39451" lon="5.60426">
        <ele>698</ele>
        <time>2019-05-01T06:56:01Z</time>
      </trkpt>
      <trkpt lat="46.39461" lon="5.60431">
        <ele>699</ele>
        <time>2019-05-01T06:57:01Z</time>
      </trkpt>
      <trkpt lat="46.39478" lon="5.60444">
        <ele>700</ele>
        <time>2019-05-01T06:58:01Z</time>
      </trkpt>
      <trkpt lat="46.39491" lon="5.60458">
        <ele>701</ele>
        <time>2019-05-01T06:59:01Z</time>
      </trkpt>
      <trkpt lat="46.39509" lon="5.60479">
        <ele>702</ele>
        <time>2019-05-01T07:00:01Z</time>
      </trkpt>
      <trkpt lat="46.39531" lon="5.60503">
        <ele>705</ele>
        <time>2019-05-01T07:01:01Z</time>
      </trkpt>
      <trkpt lat="46.39537" lon="5.60509">
        <ele>706</ele>
        <time>2019-05-01T07:02:01Z</time>
      </trkpt>
      <trkpt lat="46.39558" lon="5.60533">
        <ele>709</ele>
        <time>2019-05-01T07:03:01Z</time>
      </trkpt>
      <trkpt lat="46.39587" lon="5.6057">
        <ele>711</ele>
        <time>2019-05-01T07:04:01Z</time>
      </trkpt>
      <trkpt lat="46.39592" lon="5.60578">
        <ele>711</ele>
        <time>2019-05-01T07:05:01Z</time>
      </trkpt>
      <trkpt lat="46.39597" lon="5.60586">
        <ele>711</ele>
        <time>2019-05-01T07:06:01Z</time>
      </trkpt>
      <trkpt lat="46.39604" lon="5.60602">
        <ele>713</ele>
        <time>2019-05-01T07:07:01Z</time>
      </trkpt>
      <trkpt lat="46.39611" lon="5.60617">
        <ele>714</ele>
        <time>2019-05-01T07:08:01Z</time>
      </trkpt>
      <trkpt lat="46.39618" lon="5.60633">
        <ele>715</ele>
        <time>2019-05-01T07:09:01Z</time>
      </trkpt>
      <trkpt lat="46.39626" lon="5.6065">
        <ele>715</ele>
        <time>2019-05-01T07:10:01Z</time>
      </trkpt>
      <trkpt lat="46.39639" lon="5.6068">
        <ele>714</ele>
        <time>2019-05-01T07:11:01Z</time>
      </trkpt>
      <trkpt lat="46.3965" lon="5.60702">
        <ele>714</ele>
        <time>2019-05-01T07:12:01Z</time>
      </trkpt>
      <trkpt lat="46.39661" lon="5.60722">
        <ele>714</ele>
        <time>2019-05-01T07:13:01Z</time>
      </trkpt>
      <trkpt lat="46.39669" lon="5.60737">
        <ele>713</ele>
        <time>2019-05-01T07:14:01Z</time>
      </trkpt>
      <trkpt lat="46.39675" lon="5.60752">
        <ele>713</ele>
        <time>2019-05-01T07:15:01Z</time>
      </trkpt>
      <trkpt lat="46.39679" lon="5.60761">
        <ele>713</ele>
        <time>2019-05-01T07:16:01Z</time>
      </trkpt>
      <trkpt lat="46.39686" lon="5.60789">
        <ele>714</ele>
        <time>2019-05-01T07:17:01Z</time>
      </trkpt>
      <trkpt lat="46.39691" lon="5.60816">
        <ele>714</ele>
        <time>2019-05-01T07:18:01Z</time>
      </trkpt>
      <trkpt lat="46.39693" lon="5.60834">
        <ele>714</ele>
        <time>2019-05-01T07:19:01Z</time>
      </trkpt>
      <trkpt lat="46.39694" lon="5.60849">
        <ele>716</ele>
        <time>2019-05-01T07:20:01Z</time>
      </trkpt>
      <trkpt lat="46.39694" lon="5.60851">
        <ele>716</ele>
        <time>2019-05-01T07:21:01Z</time>
      </trkpt>
      <trkpt lat="46.39693" lon="5.60856">
        <ele>717</ele>
        <time>2019-05-01T07:22:01Z</time>
      </trkpt>
      <trkpt lat="46.39691" lon="5.60859">
        <ele>717</ele>
        <time>2019-05-01T07:23:01Z</time>
      </trkpt>
      <trkpt lat="46.39688" lon="5.60861">
        <ele>718</ele>
        <time>2019-05-01T07:24:01Z</time>
      </trkpt>
      <trkpt lat="46.39685" lon="5.60862">
        <ele>718</ele>
        <time>2019-05-01T07:25:01Z</time>
      </trkpt>
      <trkpt lat="46.39683" lon="5.60861">
        <ele>718</ele>
        <time>2019-05-01T07:26:01Z</time>
      </trkpt>
      <trkpt lat="46.39681" lon="5.60859">
        <ele>718</ele>
        <time>2019-05-01T07:27:01Z</time>
      </trkpt>
      <trkpt lat="46.39676" lon="5.60854">
        <ele>718</ele>
        <time>2019-05-01T07:28:01Z</time>
      </trkpt>
      <trkpt lat="46.39667" lon="5.6084">
        <ele>718</ele>
        <time>2019-05-01T07:29:01Z</time>
      </trkpt>
      <trkpt lat="46.39658" lon="5.6083">
        <ele>718</ele>
        <time>2019-05-01T07:30:01Z</time>
      </trkpt>
      <trkpt lat="46.39649" lon="5.60825">
        <ele>718</ele>
        <time>2019-05-01T07:31:01Z</time>
      </trkpt>
      <trkpt lat="46.39644" lon="5.60822">
        <ele>719</ele>
        <time>2019-05-01T07:32:01Z</time>
      </trkpt>
      <trkpt lat="46.39632" lon="5.6082">
        <ele>720</ele>
        <time>2019-05-01T07:33:01Z</time>
      </trkpt>
      <trkpt lat="46.3962" lon="5.60818">
        <ele>721</ele>
        <time>2019-05-01T07:34:01Z</time>
      </trkpt>
      <trkpt lat="46.39613" lon="5.60817">
        <ele>722</ele>
        <time>2019-05-01T07:35:01Z</time>
      </trkpt>
      <trkpt lat="46.39607" lon="5.6082">
        <ele>722</ele>
        <time>2019-05-01T07:36:01Z</time>
      </trkpt>
      <trkpt lat="46.39591" lon="5.6083">
        <ele>724</ele>
        <time>2019-05-01T07:37:01Z</time>
      </trkpt>
      <trkpt lat="46.39586" lon="5.60833">
        <ele>725</ele>
        <time>2019-05-01T07:38:01Z</time>
      </trkpt>
      <trkpt lat="46.39579" lon="5.60835">
        <ele>725</ele>
        <time>2019-05-01T07:39:01Z</time>
      </trkpt>
      <trkpt lat="46.39574" lon="5.60836">
        <ele>725</ele>
        <time>2019-05-01T07:40:01Z</time>
      </trkpt>
      <trkpt lat="46.39569" lon="5.60836">
        <ele>726</ele>
        <time>2019-05-01T07:41:01Z</time>
      </trkpt>
      <trkpt lat="46.39562" lon="5.60833">
        <ele>725</ele>
        <time>2019-05-01T07:42:01Z</time>
      </trkpt>
      <trkpt lat="46.39551" lon="5.60828">
        <ele>725</ele>
        <time>2019-05-01T07:43:01Z</time>
      </trkpt>
      <trkpt lat="46.39542" lon="5.60823">
        <ele>725</ele>
        <time>2019-05-01T07:44:01Z</time>
      </trkpt>
      <trkpt lat="46.39528" lon="5.60812">
        <ele>725</ele>
        <time>2019-05-01T07:45:01Z</time>
      </trkpt>
      <trkpt lat="46.39513" lon="5.60799">
        <ele>725</ele>
        <time>2019-05-01T07:46:01Z</time>
      </trkpt>
      <trkpt lat="46.39503" lon="5.6079">
        <ele>725</ele>
        <time>2019-05-01T07:47:01Z</time>
      </trkpt>
      <trkpt lat="46.39497" lon="5.60785">
        <ele>725</ele>
        <time>2019-05-01T07:48:01Z</time>
      </trkpt>
      <trkpt lat="46.39484" lon="5.60776">
        <ele>725</ele>
        <time>2019-05-01T07:49:01Z</time>
      </trkpt>
      <trkpt lat="46.39471" lon="5.6077">
        <ele>725</ele>
        <time>2019-05-01T07:50:01Z</time>
      </trkpt>
      <trkpt lat="46.39463" lon="5.60768">
        <ele>725</ele>
        <time>2019-05-01T07:51:01Z</time>
      </trkpt>
      <trkpt lat="46.39449" lon="5.60763">
        <ele>725</ele>
        <time>2019-05-01T07:52:01Z</time>
      </trkpt>
      <trkpt lat="46.3944" lon="5.60762">
        <ele>725</ele>
        <time>2019-05-01T07:53:01Z</time>
      </trkpt>
      <trkpt lat="46.39434" lon="5.60763">
        <ele>725</ele>
        <time>2019-05-01T07:54:01Z</time>
      </trkpt>
      <trkpt lat="46.39429" lon="5.60766">
        <ele>725</ele>
        <time>2019-05-01T07:55:01Z</time>
      </trkpt>
      <trkpt lat="46.39424" lon="5.60773">
        <ele>726</ele>
        <time>2019-05-01T07:56:01Z</time>
      </trkpt>
      <trkpt lat="46.39423" lon="5.60778">
        <ele>726</ele>
        <time>2019-05-01T07:57:01Z</time>
      </trkpt>
      <trkpt lat="46.39422" lon="5.60783">
        <ele>726</ele>
        <time>2019-05-01T07:58:01Z</time>
      </trkpt>
      <trkpt lat="46.39423" lon="5.60794">
        <ele>727</ele>
        <time>2019-05-01T07:59:01Z</time>
      </trkpt>
      <trkpt lat="46.39427" lon="5.60801">
        <ele>727</ele>
        <time>2019-05-01T08:00:01Z</time>
      </trkpt>
      <trkpt lat="46.39432" lon="5.60806">
        <ele>728</ele>
        <time>2019-05-01T08:01:01Z</time>
      </trkpt>
      <trkpt lat="46.39438" lon="5.60811">
        <ele>728</ele>
        <time>2019-05-01T08:02:01Z</time>
      </trkpt>
      <trkpt lat="46.39446" lon="5.60815">
        <ele>728</ele>
        <time>2019-05-01T08:03:01Z</time>
      </trkpt>
      <trkpt lat="46.3946" lon="5.6082">
        <ele>727</ele>
        <time>2019-05-01T08:04:01Z</time>
      </trkpt>
      <trkpt lat="46.3948" lon="5.60828">
        <ele>727</ele>
        <time>2019-05-01T08:05:01Z</time>
      </trkpt>
      <trkpt lat="46.39493" lon="5.60834">
        <ele>726</ele>
        <time>2019-05-01T08:06:01Z</time>
      </trkpt>
      <trkpt lat="46.39501" lon="5.6084">
        <ele>727</ele>
        <time>2019-05-01T08:07:01Z</time>
      </trkpt>
      <trkpt lat="46.39507" lon="5.60847">
        <ele>728</ele>
        <time>2019-05-01T08:08:01Z</time>
      </trkpt>
      <trkpt lat="46.39511" lon="5.60853">
        <ele>729</ele>
        <time>2019-05-01T08:09:01Z</time>
      </trkpt>
      <trkpt lat="46.39516" lon="5.60867">
        <ele>731</ele>
        <time>2019-05-01T08:10:01Z</time>
      </trkpt>
      <trkpt lat="46.39521" lon="5.60887">
        <ele>734</ele>
        <time>2019-05-01T08:11:01Z</time>
      </trkpt>
      <trkpt lat="46.39524" lon="5.60902">
        <ele>736</ele>
        <time>2019-05-01T08:12:01Z</time>
      </trkpt>
      <trkpt lat="46.39524" lon="5.6091">
        <ele>738</ele>
        <time>2019-05-01T08:13:01Z</time>
      </trkpt>
      <trkpt lat="46.39522" lon="5.60919">
        <ele>739</ele>
        <time>2019-05-01T08:14:01Z</time>
      </trkpt>
      <trkpt lat="46.39519" lon="5.60925">
        <ele>740</ele>
        <time>2019-05-01T08:15:01Z</time>
      </trkpt>
      <trkpt lat="46.39514" lon="5.60928">
        <ele>741</ele>
        <time>2019-05-01T08:16:01Z</time>
      </trkpt>
      <trkpt lat="46.39507" lon="5.60929">
        <ele>742</ele>
        <time>2019-05-01T08:17:01Z</time>
      </trkpt>
      <trkpt lat="46.39494" lon="5.60928">
        <ele>742</ele>
        <time>2019-05-01T08:18:01Z</time>
      </trkpt>
      <trkpt lat="46.39481" lon="5.60925">
        <ele>741</ele>
        <time>2019-05-01T08:19:01Z</time>
      </trkpt>
      <trkpt lat="46.39443" lon="5.60918">
        <ele>740</ele>
        <time>2019-05-01T08:20:01Z</time>
      </trkpt>
      <trkpt lat="46.39436" lon="5.60917">
        <ele>740</ele>
        <time>2019-05-01T08:21:01Z</time>
      </trkpt>
      <trkpt lat="46.39427" lon="5.6092">
        <ele>740</ele>
        <time>2019-05-01T08:22:01Z</time>
      </trkpt>
      <trkpt lat="46.39418" lon="5.60925">
        <ele>741</ele>
        <time>2019-05-01T08:23:01Z</time>
      </trkpt>
      <trkpt lat="46.39413" lon="5.6093">
        <ele>742</ele>
        <time>2019-05-01T08:24:01Z</time>
      </trkpt>
      <trkpt lat="46.39409" lon="5.60939">
        <ele>743</ele>
        <time>2019-05-01T08:25:01Z</time>
      </trkpt>
      <trkpt lat="46.39404" lon="5.6095">
        <ele>744</ele>
        <time>2019-05-01T08:26:01Z</time>
      </trkpt>
      <trkpt lat="46.394" lon="5.60959">
        <ele>745</ele>
        <time>2019-05-01T08:27:01Z</time>
      </trkpt>
      <trkpt lat="46.39394" lon="5.60966">
        <ele>746</ele>
        <time>2019-05-01T08:28:01Z</time>
      </trkpt>
      <trkpt lat="46.39389" lon="5.6097">
        <ele>746</ele>
        <time>2019-05-01T08:29:01Z</time>
      </trkpt>
      <trkpt lat="46.39384" lon="5.60971">
        <ele>746</ele>
        <time>2019-05-01T08:30:01Z</time>
      </trkpt>
      <trkpt lat="46.3937" lon="5.60972">
        <ele>746</ele>
        <time>2019-05-01T08:31:01Z</time>
      </trkpt>
      <trkpt lat="46.3936" lon="5.60973">
        <ele>746</ele>
        <time>2019-05-01T08:32:01Z</time>
      </trkpt>
      <trkpt lat="46.39353" lon="5.60976">
        <ele>746</ele>
        <time>2019-05-01T08:33:01Z</time>
      </trkpt>
      <trkpt lat="46.39347" lon="5.60979">
        <ele>746</ele>
        <time>2019-05-01T08:34:01Z</time>
      </trkpt>
      <trkpt lat="46.3934" lon="5.60984">
        <ele>746</ele>
        <time>2019-05-01T08:35:01Z</time>
      </trkpt>
      <trkpt lat="46.39333" lon="5.60992">
        <ele>746</ele>
        <time>2019-05-01T08:36:01Z</time>
      </trkpt>
      <trkpt lat="46.39326" lon="5.61005">
        <ele>745</ele>
        <time>2019-05-01T08:37:01Z</time>
      </trkpt>
      <trkpt lat="46.39322" lon="5.61016">
        <ele>745</ele>
        <time>2019-05-01T08:38:01Z</time>
      </trkpt>
      <trkpt lat="46.39318" lon="5.61028">
        <ele>744</ele>
        <time>2019-05-01T08:39:01Z</time>
      </trkpt>
      <trkpt lat="46.39317" lon="5.61034">
        <ele>743</ele>
        <time>2019-05-01T08:40:01Z</time>
      </trkpt>
      <trkpt lat="46.39316" lon="5.61045">
        <ele>743</ele>
        <time>2019-05-01T08:41:01Z</time>
      </trkpt>
      <trkpt lat="46.39316" lon="5.61056">
        <ele>742</ele>
        <time>2019-05-01T08:42:01Z</time>
      </trkpt>
      <trkpt lat="46.39317" lon="5.61072">
        <ele>742</ele>
        <time>2019-05-01T08:43:01Z</time>
      </trkpt>
      <trkpt lat="46.39321" lon="5.61086">
        <ele>741</ele>
        <time>2019-05-01T08:44:01Z</time>
      </trkpt>
      <trkpt lat="46.39329" lon="5.61104">
        <ele>741</ele>
        <time>2019-05-01T08:45:01Z</time>
      </trkpt>
      <trkpt lat="46.39338" lon="5.61122">
        <ele>741</ele>
        <time>2019-05-01T08:46:01Z</time>
      </trkpt>
      <trkpt lat="46.39349" lon="5.61144">
        <ele>741</ele>
        <time>2019-05-01T08:47:01Z</time>
      </trkpt>
      <trkpt lat="46.3936" lon="5.61163">
        <ele>741</ele>
        <time>2019-05-01T08:48:01Z</time>
      </trkpt>
      <trkpt lat="46.39379" lon="5.61202">
        <ele>740</ele>
        <time>2019-05-01T08:49:01Z</time>
      </trkpt>
      <trkpt lat="46.39394" lon="5.61232">
        <ele>739</ele>
        <time>2019-05-01T08:50:01Z</time>
      </trkpt>
      <trkpt lat="46.39402" lon="5.61249">
        <ele>738</ele>
        <time>2019-05-01T08:51:01Z</time>
      </trkpt>
      <trkpt lat="46.39407" lon="5.61258">
        <ele>738</ele>
        <time>2019-05-01T08:52:01Z</time>
      </trkpt>
      <trkpt lat="46.39417" lon="5.61277">
        <ele>737</ele>
        <time>2019-05-01T08:53:01Z</time>
      </trkpt>
      <trkpt lat="46.39424" lon="5.61288">
        <ele>736</ele>
        <time>2019-05-01T08:54:01Z</time>
      </trkpt>
      <trkpt lat="46.39431" lon="5.61298">
        <ele>736</ele>
        <time>2019-05-01T08:55:01Z</time>
      </trkpt>
      <trkpt lat="46.39442" lon="5.61314">
        <ele>735</ele>
        <time>2019-05-01T08:56:01Z</time>
      </trkpt>
      <trkpt lat="46.39455" lon="5.61331">
        <ele>734</ele>
        <time>2019-05-01T08:57:01Z</time>
      </trkpt>
      <trkpt lat="46.39466" lon="5.61346">
        <ele>734</ele>
        <time>2019-05-01T08:58:01Z</time>
      </trkpt>
      <trkpt lat="46.39476" lon="5.61367">
        <ele>732</ele>
        <time>2019-05-01T08:59:01Z</time>
      </trkpt>
      <trkpt lat="46.3949" lon="5.61396">
        <ele>731</ele>
        <time>2019-05-01T09:00:01Z</time>
      </trkpt>
      <trkpt lat="46.39497" lon="5.61409">
        <ele>730</ele>
        <time>2019-05-01T09:01:01Z</time>
      </trkpt>
      <trkpt lat="46.39504" lon="5.61417">
        <ele>731</ele>
        <time>2019-05-01T09:02:01Z</time>
      </trkpt>
      <trkpt lat="46.39517" lon="5.61428">
        <ele>731</ele>
        <time>2019-05-01T09:03:01Z</time>
      </trkpt>
      <trkpt lat="46.3953" lon="5.61442">
        <ele>731</ele>
        <time>2019-05-01T09:04:01Z</time>
      </trkpt>
      <trkpt lat="46.39552" lon="5.61463">
        <ele>731</ele>
        <time>2019-05-01T09:05:01Z</time>
      </trkpt>
      <trkpt lat="46.39559" lon="5.61472">
        <ele>731</ele>
        <time>2019-05-01T09:06:01Z</time>
      </trkpt>
      <trkpt lat="46.39571" lon="5.61487">
        <ele>730</ele>
        <time>2019-05-01T09:07:01Z</time>
      </trkpt>
      <trkpt lat="46.39587" lon="5.6151">
        <ele>729</ele>
        <time>2019-05-01T09:08:01Z</time>
      </trkpt>
      <trkpt lat="46.39622" lon="5.61557">
        <ele>728</ele>
        <time>2019-05-01T09:09:01Z</time>
      </trkpt>
      <trkpt lat="46.39633" lon="5.61575">
        <ele>727</ele>
        <time>2019-05-01T09:10:01Z</time>
      </trkpt>
      <trkpt lat="46.39649" lon="5.61603">
        <ele>726</ele>
        <time>2019-05-01T09:11:01Z</time>
      </trkpt>
      <trkpt lat="46.39655" lon="5.61614">
        <ele>725</ele>
        <time>2019-05-01T09:12:01Z</time>
      </trkpt>
      <trkpt lat="46.39663" lon="5.61624">
        <ele>725</ele>
        <time>2019-05-01T09:13:01Z</time>
      </trkpt>
      <trkpt lat="46.39674" lon="5.61634">
        <ele>726</ele>
        <time>2019-05-01T09:14:01Z</time>
      </trkpt>
      <trkpt lat="46.39684" lon="5.61642">
        <ele>726</ele>
        <time>2019-05-01T09:15:01Z</time>
      </trkpt>
      <trkpt lat="46.39691" lon="5.61647">
        <ele>727</ele>
        <time>2019-05-01T09:16:01Z</time>
      </trkpt>
      <trkpt lat="46.39701" lon="5.61656">
        <ele>727</ele>
        <time>2019-05-01T09:17:01Z</time>
      </trkpt>
      <trkpt lat="46.3971" lon="5.61665">
        <ele>727</ele>
        <time>2019-05-01T09:18:01Z</time>
      </trkpt>
      <trkpt lat="46.39721" lon="5.61682">
        <ele>726</ele>
        <time>2019-05-01T09:19:01Z</time>
      </trkpt>
      <trkpt lat="46.3974" lon="5.61718">
        <ele>724</ele>
        <time>2019-05-01T09:20:01Z</time>
      </trkpt>
      <trkpt lat="46.39759" lon="5.61753">
        <ele>721</ele>
        <time>2019-05-01T09:21:01Z</time>
      </trkpt>
      <trkpt lat="46.39776" lon="5.61784">
        <ele>720</ele>
        <time>2019-05-01T09:22:01Z</time>
      </trkpt>
      <trkpt lat="46.39789" lon="5.61809">
        <ele>720</ele>
        <time>2019-05-01T09:23:01Z</time>
      </trkpt>
      <trkpt lat="46.39797" lon="5.61824">
        <ele>719</ele>
        <time>2019-05-01T09:24:01Z</time>
      </trkpt>
      <trkpt lat="46.39803" lon="5.61836">
        <ele>718</ele>
        <time>2019-05-01T09:25:01Z</time>
      </trkpt>
      <trkpt lat="46.39812" lon="5.6185">
        <ele>717</ele>
        <time>2019-05-01T09:26:01Z</time>
      </trkpt>
      <trkpt lat="46.39826" lon="5.61867">
        <ele>716</ele>
        <time>2019-05-01T09:27:01Z</time>
      </trkpt>
      <trkpt lat="46.39844" lon="5.61881">
        <ele>715</ele>
        <time>2019-05-01T09:28:01Z</time>
      </trkpt>
      <trkpt lat="46.39857" lon="5.6189">
        <ele>714</ele>
        <time>2019-05-01T09:29:01Z</time>
      </trkpt>
      <trkpt lat="46.3987" lon="5.61898">
        <ele>713</ele>
        <time>2019-05-01T09:30:01Z</time>
      </trkpt>
      <trkpt lat="46.39885" lon="5.61901">
        <ele>713</ele>
        <time>2019-05-01T09:31:01Z</time>
      </trkpt>
      <trkpt lat="46.39899" lon="5.61902">
        <ele>714</ele>
        <time>2019-05-01T09:32:01Z</time>
      </trkpt>
      <trkpt lat="46.39909" lon="5.61904">
        <ele>714</ele>
        <time>2019-05-01T09:33:01Z</time>
      </trkpt>
      <trkpt lat="46.39924" lon="5.61906">
        <ele>715</ele>
        <time>2019-05-01T09:34:01Z</time>
      </trkpt>
      <trkpt lat="46.39939" lon="5.61918">
        <ele>714</ele>
        <time>2019-05-01T09:35:01Z</time>
      </trkpt>
      <trkpt lat="46.3997" lon="5.61942">
        <ele>712</ele>
        <time>2019-05-01T09:36:01Z</time>
      </trkpt>
      <trkpt lat="46.39997" lon="5.61962">
        <ele>711</ele>
        <time>2019-05-01T09:37:01Z</time>
      </trkpt>
      <trkpt lat="46.40017" lon="5.61979">
        <ele>710</ele>
        <time>2019-05-01T09:38:01Z</time>
      </trkpt>
      <trkpt lat="46.40021" lon="5.61984">
        <ele>709</ele>
        <time>2019-05-01T09:39:01Z</time>
      </trkpt>
      <trkpt lat="46.40032" lon="5.61999">
        <ele>708</ele>
        <time>2019-05-01T09:40:01Z</time>
      </trkpt>
      <trkpt lat="46.40042" lon="5.62019">
        <ele>708</ele>
        <time>2019-05-01T09:41:01Z</time>
      </trkpt>
      <trkpt lat="46.40047" lon="5.62033">
        <ele>707</ele>
        <time>2019-05-01T09:42:01Z</time>
      </trkpt>
      <trkpt lat="46.40051" lon="5.62049">
        <ele>706</ele>
        <time>2019-05-01T09:43:01Z</time>
      </trkpt>
      <trkpt lat="46.40054" lon="5.6206">
        <ele>706</ele>
        <time>2019-05-01T09:44:01Z</time>
      </trkpt>
      <trkpt lat="46.40055" lon="5.62064">
        <ele>706</ele>
        <time>2019-05-01T09:45:01Z</time>
      </trkpt>
      <trkpt lat="46.40058" lon="5.62083">
        <ele>705</ele>
        <time>2019-05-01T09:46:01Z</time>
      </trkpt>
      <trkpt lat="46.40064" lon="5.62111">
        <ele>704</ele>
        <time>2019-05-01T09:47:01Z</time>
      </trkpt>
      <trkpt lat="46.40068" lon="5.62126">
        <ele>703</ele>
        <time>2019-05-01T09:48:01Z</time>
      </trkpt>
      <trkpt lat="46.40072" lon="5.62135">
        <ele>702</ele>
        <time>2019-05-01T09:49:01Z</time>
      </trkpt>
      <trkpt lat="46.40087" lon="5.62159">
        <ele>702</ele>
        <time>2019-05-01T09:50:01Z</time>
      </trkpt>
      <trkpt lat="46.4011" lon="5.62193">
        <ele>703</ele>
        <time>2019-05-01T09:51:01Z</time>
      </trkpt>
      <trkpt lat="46.40123" lon="5.62214">
        <ele>703</ele>
        <time>2019-05-01T09:52:01Z</time>
      </trkpt>
      <trkpt lat="46.40129" lon="5.62225">
        <ele>703</ele>
        <time>2019-05-01T09:53:01Z</time>
      </trkpt>
      <trkpt lat="46.40146" lon="5.62262">
        <ele>703</ele>
        <time>2019-05-01T09:54:01Z</time>
      </trkpt>
      <trkpt lat="46.40161" lon="5.62294">
        <ele>703</ele>
        <time>2019-05-01T09:55:01Z</time>
      </trkpt>
      <trkpt lat="46.40173" lon="5.62314">
        <ele>703</ele>
        <time>2019-05-01T09:56:01Z</time>
      </trkpt>
      <trkpt lat="46.40186" lon="5.6233">
        <ele>705</ele>
        <time>2019-05-01T09:57:01Z</time>
      </trkpt>
      <trkpt lat="46.402" lon="5.62345">
        <ele>706</ele>
        <time>2019-05-01T09:58:01Z</time>
      </trkpt>
      <trkpt lat="46.4021" lon="5.62356">
        <ele>707</ele>
        <time>2019-05-01T09:59:01Z</time>
      </trkpt>
      <trkpt lat="46.40216" lon="5.62362">
        <ele>707</ele>
        <time>2019-05-01T10:00:01Z</time>
      </trkpt>
      <trkpt lat="46.40229" lon="5.62378">
        <ele>707</ele>
        <time>2019-05-01T10:01:01Z</time>
      </trkpt>
      <trkpt lat="46.40238" lon="5.6239">
        <ele>706</ele>
        <time>2019-05-01T10:02:01Z</time>
      </trkpt>
      <trkpt lat="46.40246" lon="5.62401">
        <ele>705</ele>
        <time>2019-05-01T10:03:01Z</time>
      </trkpt>
      <trkpt lat="46.40258" lon="5.62414">
        <ele>705</ele>
        <time>2019-05-01T10:04:01Z</time>
      </trkpt>
      <trkpt lat="46.40267" lon="5.62422">
        <ele>705</ele>
        <time>2019-05-01T10:05:01Z</time>
      </trkpt>
      <trkpt lat="46.40275" lon="5.62429">
        <ele>706</ele>
        <time>2019-05-01T10:06:01Z</time>
      </trkpt>
      <trkpt lat="46.40289" lon="5.6244">
        <ele>707</ele>
        <time>2019-05-01T10:07:01Z</time>
      </trkpt>
      <trkpt lat="46.40316" lon="5.62459">
        <ele>710</ele>
        <time>2019-05-01T10:08:01Z</time>
      </trkpt>
      <trkpt lat="46.40332" lon="5.62471">
        <ele>712</ele>
        <time>2019-05-01T10:09:01Z</time>
      </trkpt>
      <trkpt lat="46.40352" lon="5.62485">
        <ele>711</ele>
        <time>2019-05-01T10:10:01Z</time>
      </trkpt>
      <trkpt lat="46.40382" lon="5.6251">
        <ele>712</ele>
        <time>2019-05-01T10:11:01Z</time>
      </trkpt>
      <trkpt lat="46.40408" lon="5.6253">
        <ele>713</ele>
        <time>2019-05-01T10:12:01Z</time>
      </trkpt>
      <trkpt lat="46.40419" lon="5.6254">
        <ele>713</ele>
        <time>2019-05-01T10:13:01Z</time>
      </trkpt>
      <trkpt lat="46.40428" lon="5.6255">
        <ele>713</ele>
        <time>2019-05-01T10:14:01Z</time>
      </trkpt>
      <trkpt lat="46.40437" lon="5.62564">
        <ele>712</ele>
        <time>2019-05-01T10:15:01Z</time>
      </trkpt>
      <trkpt lat="46.40443" lon="5.62579">
        <ele>712</ele>
        <time>2019-05-01T10:16:01Z</time>
      </trkpt>
      <trkpt lat="46.40446" lon="5.62593">
        <ele>711</ele>
        <time>2019-05-01T10:17:01Z</time>
      </trkpt>
      <trkpt lat="46.40449" lon="5.62612">
        <ele>710</ele>
        <time>2019-05-01T10:18:01Z</time>
      </trkpt>
      <trkpt lat="46.40452" lon="5.62632">
        <ele>709</ele>
        <time>2019-05-01T10:19:01Z</time>
      </trkpt>
      <trkpt lat="46.40458" lon="5.62649">
        <ele>708</ele>
        <time>2019-05-01T10:20:01Z</time>
      </trkpt>
      <trkpt lat="46.40466" lon="5.62662">
        <ele>708</ele>
        <time>2019-05-01T10:21:01Z</time>
      </trkpt>
      <trkpt lat="46.40475" lon="5.62675">
        <ele>706</ele>
        <time>2019-05-01T10:22:01Z</time>
      </trkpt>
      <trkpt lat="46.40489" lon="5.62693">
        <ele>705</ele>
        <time>2019-05-01T10:23:01Z</time>
      </trkpt>
      <trkpt lat="46.40504" lon="5.62709">
        <ele>705</ele>
        <time>2019-05-01T10:24:01Z</time>
      </trkpt>
      <trkpt lat="46.40523" lon="5.62722">
        <ele>706</ele>
        <time>2019-05-01T10:25:01Z</time>
      </trkpt>
      <trkpt lat="46.4054" lon="5.62732">
        <ele>707</ele>
        <time>2019-05-01T10:26:01Z</time>
      </trkpt>
      <trkpt lat="46.40558" lon="5.62738">
        <ele>709</ele>
        <time>2019-05-01T10:27:01Z</time>
      </trkpt>
      <trkpt lat="46.40568" lon="5.62742">
        <ele>710</ele>
        <time>2019-05-01T10:28:01Z</time>
      </trkpt>
      <trkpt lat="46.40584" lon="5.62749">
        <ele>711</ele>
        <time>2019-05-01T10:29:01Z</time>
      </trkpt>
      <trkpt lat="46.40597" lon="5.62754">
        <ele>711</ele>
        <time>2019-05-01T10:30:01Z</time>
      </trkpt>
      <trkpt lat="46.40608" lon="5.6276">
        <ele>711</ele>
        <time>2019-05-01T10:31:01Z</time>
      </trkpt>
      <trkpt lat="46.4062" lon="5.62767">
        <ele>711</ele>
        <time>2019-05-01T10:32:01Z</time>
      </trkpt>
      <trkpt lat="46.40635" lon="5.62779">
        <ele>712</ele>
        <time>2019-05-01T10:33:01Z</time>
      </trkpt>
      <trkpt lat="46.40647" lon="5.62791">
        <ele>712</ele>
        <time>2019-05-01T10:34:01Z</time>
      </trkpt>
      <trkpt lat="46.40655" lon="5.62798">
        <ele>713</ele>
        <time>2019-05-01T10:35:01Z</time>
      </trkpt>
      <trkpt lat="46.40661" lon="5.62806">
        <ele>713</ele>
        <time>2019-05-01T10:36:01Z</time>
      </trkpt>
      <trkpt lat="46.40667" lon="5.62814">
        <ele>713</ele>
        <time>2019-05-01T10:37:01Z</time>
      </trkpt>
      <trkpt lat="46.40675" lon="5.6283">
        <ele>714</ele>
        <time>2019-05-01T10:38:01Z</time>
      </trkpt>
      <trkpt lat="46.40681" lon="5.62845">
        <ele>714</ele>
        <time>2019-05-01T10:39:01Z</time>
      </trkpt>
      <trkpt lat="46.40693" lon="5.62872">
        <ele>713</ele>
        <time>2019-05-01T10:40:01Z</time>
      </trkpt>
      <trkpt lat="46.407" lon="5.62879">
        <ele>713</ele>
        <time>2019-05-01T10:41:01Z</time>
      </trkpt>
      <trkpt lat="46.40705" lon="5.62886">
        <ele>713</ele>
        <time>2019-05-01T10:42:01Z</time>
      </trkpt>
      <trkpt lat="46.4071" lon="5.62892">
        <ele>712</ele>
        <time>2019-05-01T10:43:01Z</time>
      </trkpt>
      <trkpt lat="46.40722" lon="5.629">
        <ele>712</ele>
        <time>2019-05-01T10:44:01Z</time>
      </trkpt>
      <trkpt lat="46.40735" lon="5.62907">
        <ele>711</ele>
        <time>2019-05-01T10:45:01Z</time>
      </trkpt>
      <trkpt lat="46.40741" lon="5.6291">
        <ele>711</ele>
        <time>2019-05-01T10:46:01Z</time>
      </trkpt>
      <trkpt lat="46.40748" lon="5.62911">
        <ele>710</ele>
        <time>2019-05-01T10:47:01Z</time>
      </trkpt>
      <trkpt lat="46.40764" lon="5.62915">
        <ele>709</ele>
        <time>2019-05-01T10:48:01Z</time>
      </trkpt>
      <trkpt lat="46.40787" lon="5.62919">
        <ele>708</ele>
        <time>2019-05-01T10:49:01Z</time>
      </trkpt>
      <trkpt lat="46.40815" lon="5.6292">
        <ele>707</ele>
        <time>2019-05-01T10:50:01Z</time>
      </trkpt>
      <trkpt lat="46.40835" lon="5.62923">
        <ele>706</ele>
        <time>2019-05-01T10:51:01Z</time>
      </trkpt>
      <trkpt lat="46.40848" lon="5.62927">
        <ele>707</ele>
        <time>2019-05-01T10:52:01Z</time>
      </trkpt>
      <trkpt lat="46.40856" lon="5.6293">
        <ele>708</ele>
        <time>2019-05-01T10:53:01Z</time>
      </trkpt>
      <trkpt lat="46.40872" lon="5.6294">
        <ele>708</ele>
        <time>2019-05-01T10:54:01Z</time>
      </trkpt>
      <trkpt lat="46.40906" lon="5.62968">
        <ele>707</ele>
        <time>2019-05-01T10:55:01Z</time>
      </trkpt>
      <trkpt lat="46.40918" lon="5.62976">
        <ele>706</ele>
        <time>2019-05-01T10:56:01Z</time>
      </trkpt>
      <trkpt lat="46.40935" lon="5.62985">
        <ele>706</ele>
        <time>2019-05-01T10:57:01Z</time>
      </trkpt>
      <trkpt lat="46.40964" lon="5.63004">
        <ele>706</ele>
        <time>2019-05-01T10:58:01Z</time>
      </trkpt>
      <trkpt lat="46.41001" lon="5.63036">
        <ele>703</ele>
        <time>2019-05-01T10:59:01Z</time>
      </trkpt>
      <trkpt lat="46.41022" lon="5.63061">
        <ele>702</ele>
        <time>2019-05-01T11:00:01Z</time>
      </trkpt>
      <trkpt lat="46.41027" lon="5.6307">
        <ele>701</ele>
        <time>2019-05-01T11:01:01Z</time>
      </trkpt>
      <trkpt lat="46.41035" lon="5.63087">
        <ele>700</ele>
        <time>2019-05-01T11:02:01Z</time>
      </trkpt>
      <trkpt lat="46.41041" lon="5.63101">
        <ele>699</ele>
        <time>2019-05-01T11:03:01Z</time>
      </trkpt>
      <trkpt lat="46.41046" lon="5.63111">
        <ele>699</ele>
        <time>2019-05-01T11:04:01Z</time>
      </trkpt>
      <trkpt lat="46.41051" lon="5.63118">
        <ele>699</ele>
        <time>2019-05-01T11:05:01Z</time>
      </trkpt>
      <trkpt lat="46.41056" lon="5.63123">
        <ele>699</ele>
        <time>2019-05-01T11:06:01Z</time>
      </trkpt>
      <trkpt lat="46.41067" lon="5.63132">
        <ele>699</ele>
        <time>2019-05-01T11:07:01Z</time>
      </trkpt>
      <trkpt lat="46.41088" lon="5.63144">
        <ele>699</ele>
        <time>2019-05-01T11:08:01Z</time>
      </trkpt>
      <trkpt lat="46.41118" lon="5.63163">
        <ele>699</ele>
        <time>2019-05-01T11:09:01Z</time>
      </trkpt>
      <trkpt lat="46.41166" lon="5.63189">
        <ele>700</ele>
        <time>2019-05-01T11:10:01Z</time>
      </trkpt>
      <trkpt lat="46.41196" lon="5.63202">
        <ele>701</ele>
        <time>2019-05-01T11:11:01Z</time>
      </trkpt>
      <trkpt lat="46.41251" lon="5.63231">
        <ele>698</ele>
        <time>2019-05-01T11:12:01Z</time>
      </trkpt>
      <trkpt lat="46.41282" lon="5.63247">
        <ele>698</ele>
        <time>2019-05-01T11:13:01Z</time>
      </trkpt>
      <trkpt lat="46.41342" lon="5.63281">
        <ele>699</ele>
        <time>2019-05-01T11:14:01Z</time>
      </trkpt>
      <trkpt lat="46.414" lon="5.6331">
        <ele>697</ele>
        <time>2019-05-01T11:15:01Z</time>
      </trkpt>
      <trkpt lat="46.41453" lon="5.63337">
        <ele>697</ele>
        <time>2019-05-01T11:16:01Z</time>
      </trkpt>
      <trkpt lat="46.41475" lon="5.63347">
        <ele>698</ele>
        <time>2019-05-01T11:17:01Z</time>
      </trkpt>
      <trkpt lat="46.41522" lon="5.63366">
        <ele>699</ele>
        <time>2019-05-01T11:18:01Z</time>
      </trkpt>
      <trkpt lat="46.41553" lon="5.63379">
        <ele>698</ele>
        <time>2019-05-01T11:19:01Z</time>
      </trkpt>
      <trkpt lat="46.41572" lon="5.63387">
        <ele>698</ele>
        <time>2019-05-01T11:20:01Z</time>
      </trkpt>
      <trkpt lat="46.41598" lon="5.63399">
        <ele>697</ele>
        <time>2019-05-01T11:21:01Z</time>
      </trkpt>
      <trkpt lat="46.41619" lon="5.6341">
        <ele>697</ele>
        <time>2019-05-01T11:22:01Z</time>
      </trkpt>
      <trkpt lat="46.41641" lon="5.63421">
        <ele>697</ele>
        <time>2019-05-01T11:23:01Z</time>
      </trkpt>
      <trkpt lat="46.41648" lon="5.63427">
        <ele>697</ele>
        <time>2019-05-01T11:24:01Z</time>
      </trkpt>
      <trkpt lat="46.41653" lon="5.63432">
        <ele>698</ele>
        <time>2019-05-01T11:25:01Z</time>
      </trkpt>
      <trkpt lat="46.41658" lon="5.63442">
        <ele>697</ele>
        <time>2019-05-01T11:26:01Z</time>
      </trkpt>
      <trkpt lat="46.41659" lon="5.63443">
        <ele>697</ele>
        <time>2019-05-01T11:27:01Z</time>
      </trkpt>
      <trkpt lat="46.4166" lon="5.63445">
        <ele>697</ele>
        <time>2019-05-01T11:28:01Z</time>
      </trkpt>
      <trkpt lat="46.41663" lon="5.63457">
        <ele>696</ele>
        <time>2019-05-01T11:29:01Z</time>
      </trkpt>
      <trkpt lat="46.41661" lon="5.6347">
        <ele>695</ele>
        <time>2019-05-01T11:30:01Z</time>
      </trkpt>
      <trkpt lat="46.41656" lon="5.63496">
        <ele>693</ele>
        <time>2019-05-01T11:31:01Z</time>
      </trkpt>
      <trkpt lat="46.41655" lon="5.63507">
        <ele>693</ele>
        <time>2019-05-01T11:32:01Z</time>
      </trkpt>
      <trkpt lat="46.41655" lon="5.6352">
        <ele>693</ele>
        <time>2019-05-01T11:33:01Z</time>
      </trkpt>
      <trkpt lat="46.41656" lon="5.63528">
        <ele>693</ele>
        <time>2019-05-01T11:34:01Z</time>
      </trkpt>
      <trkpt lat="46.41658" lon="5.63533">
        <ele>694</ele>
        <time>2019-05-01T11:35:01Z</time>
      </trkpt>
      <trkpt lat="46.4167" lon="5.63546">
        <ele>695</ele>
        <time>2019-05-01T11:36:01Z</time>
      </trkpt>
      <trkpt lat="46.41707" lon="5.63577">
        <ele>693</ele>
        <time>2019-05-01T11:37:01Z</time>
      </trkpt>
      <trkpt lat="46.41784" lon="5.63639">
        <ele>687</ele>
        <time>2019-05-01T11:38:01Z</time>
      </trkpt>
      <trkpt lat="46.41824" lon="5.63669">
        <ele>682</ele>
        <time>2019-05-01T11:39:01Z</time>
      </trkpt>
      <trkpt lat="46.41852" lon="5.63692">
        <ele>679</ele>
        <time>2019-05-01T11:40:01Z</time>
      </trkpt>
      <trkpt lat="46.41884" lon="5.63716">
        <ele>676</ele>
        <time>2019-05-01T11:41:01Z</time>
      </trkpt>
      <trkpt lat="46.41901" lon="5.63729">
        <ele>673</ele>
        <time>2019-05-01T11:42:01Z</time>
      </trkpt>
      <trkpt lat="46.41909" lon="5.63735">
        <ele>672</ele>
        <time>2019-05-01T11:43:01Z</time>
      </trkpt>
      <trkpt lat="46.41941" lon="5.63758">
        <ele>669</ele>
        <time>2019-05-01T11:44:01Z</time>
      </trkpt>
      <trkpt lat="46.41966" lon="5.63775">
        <ele>669</ele>
        <time>2019-05-01T11:45:01Z</time>
      </trkpt>
      <trkpt lat="46.41989" lon="5.63792">
        <ele>668</ele>
        <time>2019-05-01T11:46:01Z</time>
      </trkpt>
      <trkpt lat="46.42022" lon="5.63815">
        <ele>666</ele>
        <time>2019-05-01T11:47:01Z</time>
      </trkpt>
      <trkpt lat="46.4206" lon="5.63842">
        <ele>663</ele>
        <time>2019-05-01T11:48:01Z</time>
      </trkpt>
      <trkpt lat="46.42096" lon="5.63866">
        <ele>660</ele>
        <time>2019-05-01T11:49:01Z</time>
      </trkpt>
      <trkpt lat="46.42112" lon="5.63878">
        <ele>659</ele>
        <time>2019-05-01T11:50:01Z</time>
      </trkpt>
      <trkpt lat="46.42134" lon="5.63897">
        <ele>657</ele>
        <time>2019-05-01T11:51:01Z</time>
      </trkpt>
      <trkpt lat="46.42146" lon="5.6391">
        <ele>657</ele>
        <time>2019-05-01T11:52:01Z</time>
      </trkpt>
      <trkpt lat="46.42152" lon="5.63919">
        <ele>656</ele>
        <time>2019-05-01T11:53:01Z</time>
      </trkpt>
      <trkpt lat="46.42157" lon="5.63931">
        <ele>655</ele>
        <time>2019-05-01T11:54:01Z</time>
      </trkpt>
      <trkpt lat="46.42159" lon="5.63939">
        <ele>655</ele>
        <time>2019-05-01T11:55:01Z</time>
      </trkpt>
      <trkpt lat="46.4216" lon="5.63947">
        <ele>654</ele>
        <time>2019-05-01T11:56:01Z</time>
      </trkpt>
      <trkpt lat="46.4216" lon="5.63961">
        <ele>654</ele>
        <time>2019-05-01T11:57:01Z</time>
      </trkpt>
      <trkpt lat="46.42158" lon="5.64015">
        <ele>651</ele>
        <time>2019-05-01T11:58:01Z</time>
      </trkpt>
      <trkpt lat="46.42155" lon="5.64036">
        <ele>651</ele>
        <time>2019-05-01T11:59:01Z</time>
      </trkpt>
      <trkpt lat="46.42152" lon="5.64055">
        <ele>650</ele>
        <time>2019-05-01T12:00:01Z</time>
      </trkpt>
      <trkpt lat="46.42151" lon="5.64066">
        <ele>650</ele>
        <time>2019-05-01T12:01:01Z</time>
      </trkpt>
      <trkpt lat="46.42151" lon="5.64081">
        <ele>649</ele>
        <time>2019-05-01T12:02:01Z</time>
      </trkpt>
      <trkpt lat="46.42153" lon="5.64093">
        <ele>649</ele>
        <time>2019-05-01T12:03:01Z</time>
      </trkpt>
      <trkpt lat="46.42158" lon="5.6411">
        <ele>650</ele>
        <time>2019-05-01T12:04:01Z</time>
      </trkpt>
      <trkpt lat="46.42167" lon="5.64127">
        <ele>650</ele>
        <time>2019-05-01T12:05:01Z</time>
      </trkpt>
      <trkpt lat="46.42171" lon="5.64136">
        <ele>650</ele>
        <time>2019-05-01T12:06:01Z</time>
      </trkpt>
      <trkpt lat="46.42176" lon="5.64146">
        <ele>650</ele>
        <time>2019-05-01T12:07:01Z</time>
      </trkpt>
      <trkpt lat="46.42184" lon="5.64155">
        <ele>650</ele>
        <time>2019-05-01T12:08:01Z</time>
      </trkpt>
      <trkpt lat="46.42191" lon="5.64162">
        <ele>650</ele>
        <time>2019-05-01T12:09:01Z</time>
      </trkpt>
      <trkpt lat="46.422" lon="5.64169">
        <ele>650</ele>
        <time>2019-05-01T12:10:01Z</time>
      </trkpt>
      <trkpt lat="46.4221" lon="5.64173">
        <ele>651</ele>
        <time>2019-05-01T12:11:01Z</time>
      </trkpt>
      <trkpt lat="46.42227" lon="5.64175">
        <ele>650</ele>
        <time>2019-05-01T12:12:01Z</time>
      </trkpt>
      <trkpt lat="46.42244" lon="5.64179">
        <ele>650</ele>
        <time>2019-05-01T12:13:01Z</time>
      </trkpt>
      <trkpt lat="46.42258" lon="5.64184">
        <ele>649</ele>
        <time>2019-05-01T12:14:01Z</time>
      </trkpt>
      <trkpt lat="46.42272" lon="5.6419">
        <ele>648</ele>
        <time>2019-05-01T12:15:01Z</time>
      </trkpt>
      <trkpt lat="46.4228" lon="5.64195">
        <ele>647</ele>
        <time>2019-05-01T12:16:01Z</time>
      </trkpt>
      <trkpt lat="46.42293" lon="5.64201">
        <ele>646</ele>
        <time>2019-05-01T12:17:01Z</time>
      </trkpt>
      <trkpt lat="46.42305" lon="5.64208">
        <ele>644</ele>
        <time>2019-05-01T12:18:01Z</time>
      </trkpt>
      <trkpt lat="46.42317" lon="5.64218">
        <ele>642</ele>
        <time>2019-05-01T12:19:01Z</time>
      </trkpt>
      <trkpt lat="46.42325" lon="5.64226">
        <ele>641</ele>
        <time>2019-05-01T12:20:01Z</time>
      </trkpt>
      <trkpt lat="46.42333" lon="5.6424">
        <ele>640</ele>
        <time>2019-05-01T12:21:01Z</time>
      </trkpt>
      <trkpt lat="46.4234" lon="5.64255">
        <ele>639</ele>
        <time>2019-05-01T12:22:01Z</time>
      </trkpt>
      <trkpt lat="46.42346" lon="5.64269">
        <ele>639</ele>
        <time>2019-05-01T12:23:01Z</time>
      </trkpt>
      <trkpt lat="46.42353" lon="5.64294">
        <ele>639</ele>
        <time>2019-05-01T12:24:01Z</time>
      </trkpt>
      <trkpt lat="46.42359" lon="5.64319">
        <ele>639</ele>
        <time>2019-05-01T12:25:01Z</time>
      </trkpt>
      <trkpt lat="46.42364" lon="5.64337">
        <ele>637</ele>
        <time>2019-05-01T12:26:01Z</time>
      </trkpt>
      <trkpt lat="46.42366" lon="5.6435">
        <ele>635</ele>
        <time>2019-05-01T12:27:01Z</time>
      </trkpt>
      <trkpt lat="46.42368" lon="5.64368">
        <ele>632</ele>
        <time>2019-05-01T12:28:01Z</time>
      </trkpt>
      <trkpt lat="46.42367" lon="5.64389">
        <ele>630</ele>
        <time>2019-05-01T12:29:01Z</time>
      </trkpt>
      <trkpt lat="46.42363" lon="5.64413">
        <ele>630</ele>
        <time>2019-05-01T12:30:01Z</time>
      </trkpt>
      <trkpt lat="46.42356" lon="5.64435">
        <ele>630</ele>
        <time>2019-05-01T12:31:01Z</time>
      </trkpt>
      <trkpt lat="46.42346" lon="5.64464">
        <ele>629</ele>
        <time>2019-05-01T12:32:01Z</time>
      </trkpt>
      <trkpt lat="46.42338" lon="5.6449">
        <ele>627</ele>
        <time>2019-05-01T12:33:01Z</time>
      </trkpt>
      <trkpt lat="46.42331" lon="5.64515">
        <ele>625</ele>
        <time>2019-05-01T12:34:01Z</time>
      </trkpt>
      <trkpt lat="46.42324" lon="5.6454">
        <ele>625</ele>
        <time>2019-05-01T12:35:01Z</time>
      </trkpt>
      <trkpt lat="46.42319" lon="5.64552">
        <ele>625</ele>
        <time>2019-05-01T12:36:01Z</time>
      </trkpt>
      <trkpt lat="46.42311" lon="5.64566">
        <ele>625</ele>
        <time>2019-05-01T12:37:01Z</time>
      </trkpt>
      <trkpt lat="46.42302" lon="5.64581">
        <ele>624</ele>
        <time>2019-05-01T12:38:01Z</time>
      </trkpt>
      <trkpt lat="46.423" lon="5.64586">
        <ele>624</ele>
        <time>2019-05-01T12:39:01Z</time>
      </trkpt>
      <trkpt lat="46.42298" lon="5.64594">
        <ele>623</ele>
        <time>2019-05-01T12:40:01Z</time>
      </trkpt>
      <trkpt lat="46.42298" lon="5.646">
        <ele>622</ele>
        <time>2019-05-01T12:41:01Z</time>
      </trkpt>
      <trkpt lat="46.42297" lon="5.64607">
        <ele>622</ele>
        <time>2019-05-01T12:42:01Z</time>
      </trkpt>
      <trkpt lat="46.42299" lon="5.64614">
        <ele>620</ele>
        <time>2019-05-01T12:43:01Z</time>
      </trkpt>
      <trkpt lat="46.423" lon="5.64621">
        <ele>619</ele>
        <time>2019-05-01T12:44:01Z</time>
      </trkpt>
      <trkpt lat="46.42305" lon="5.64631">
        <ele>616</ele>
        <time>2019-05-01T12:45:01Z</time>
      </trkpt>
      <trkpt lat="46.4231" lon="5.64636">
        <ele>615</ele>
        <time>2019-05-01T12:46:01Z</time>
      </trkpt>
      <trkpt lat="46.42315" lon="5.64642">
        <ele>613</ele>
        <time>2019-05-01T12:47:01Z</time>
      </trkpt>
      <trkpt lat="46.42328" lon="5.64652">
        <ele>610</ele>
        <time>2019-05-01T12:48:01Z</time>
      </trkpt>
      <trkpt lat="46.42335" lon="5.6466">
        <ele>608</ele>
        <time>2019-05-01T12:49:01Z</time>
      </trkpt>
      <trkpt lat="46.42338" lon="5.64663">
        <ele>607</ele>
        <time>2019-05-01T12:50:01Z</time>
      </trkpt>
      <trkpt lat="46.4234" lon="5.64668">
        <ele>606</ele>
        <time>2019-05-01T12:51:01Z</time>
      </trkpt>
      <trkpt lat="46.42341" lon="5.64674">
        <ele>606</ele>
        <time>2019-05-01T12:52:01Z</time>
      </trkpt>
      <trkpt lat="46.42341" lon="5.6468">
        <ele>605</ele>
        <time>2019-05-01T12:53:01Z</time>
      </trkpt>
      <trkpt lat="46.4234" lon="5.64685">
        <ele>605</ele>
        <time>2019-05-01T12:54:01Z</time>
      </trkpt>
      <trkpt lat="46.42338" lon="5.6469">
        <ele>605</ele>
        <time>2019-05-01T12:55:01Z</time>
      </trkpt>
      <trkpt lat="46.42332" lon="5.647">
        <ele>606</ele>
        <time>2019-05-01T12:56:01Z</time>
      </trkpt>
      <trkpt lat="46.42324" lon="5.64714">
        <ele>606</ele>
        <time>2019-05-01T12:57:01Z</time>
      </trkpt>
      <trkpt lat="46.42314" lon="5.6473">
        <ele>606</ele>
        <time>2019-05-01T12:58:01Z</time>
      </trkpt>
      <trkpt lat="46.42304" lon="5.64747">
        <ele>606</ele>
        <time>2019-05-01T12:59:01Z</time>
      </trkpt>
      <trkpt lat="46.42286" lon="5.6478">
        <ele>607</ele>
        <time>2019-05-01T13:00:01Z</time>
      </trkpt>
      <trkpt lat="46.4227" lon="5.64807">
        <ele>608</ele>
        <time>2019-05-01T13:01:01Z</time>
      </trkpt>
      <trkpt lat="46.42267" lon="5.64814">
        <ele>608</ele>
        <time>2019-05-01T13:02:01Z</time>
      </trkpt>
      <trkpt lat="46.42266" lon="5.64816">
        <ele>608</ele>
        <time>2019-05-01T13:03:01Z</time>
      </trkpt>
      <trkpt lat="46.42265" lon="5.64822">
        <ele>608</ele>
        <time>2019-05-01T13:04:01Z</time>
      </trkpt>
      <trkpt lat="46.42264" lon="5.64831">
        <ele>608</ele>
        <time>2019-05-01T13:05:01Z</time>
      </trkpt>
      <trkpt lat="46.42265" lon="5.64839">
        <ele>607</ele>
        <time>2019-05-01T13:06:01Z</time>
      </trkpt>
      <trkpt lat="46.42268" lon="5.64847">
        <ele>607</ele>
        <time>2019-05-01T13:07:01Z</time>
      </trkpt>
      <trkpt lat="46.42271" lon="5.64854">
        <ele>606</ele>
        <time>2019-05-01T13:08:01Z</time>
      </trkpt>
      <trkpt lat="46.42284" lon="5.64869">
        <ele>604</ele>
        <time>2019-05-01T13:09:01Z</time>
      </trkpt>
      <trkpt lat="46.42295" lon="5.64881">
        <ele>603</ele>
        <time>2019-05-01T13:10:01Z</time>
      </trkpt>
      <trkpt lat="46.42314" lon="5.64896">
        <ele>600</ele>
        <time>2019-05-01T13:11:01Z</time>
      </trkpt>
      <trkpt lat="46.42329" lon="5.6491">
        <ele>597</ele>
        <time>2019-05-01T13:12:01Z</time>
      </trkpt>
      <trkpt lat="46.42333" lon="5.64916">
        <ele>596</ele>
        <time>2019-05-01T13:13:01Z</time>
      </trkpt>
      <trkpt lat="46.42336" lon="5.64922">
        <ele>596</ele>
        <time>2019-05-01T13:14:01Z</time>
      </trkpt>
      <trkpt lat="46.42338" lon="5.64928">
        <ele>595</ele>
        <time>2019-05-01T13:15:01Z</time>
      </trkpt>
      <trkpt lat="46.42341" lon="5.6494">
        <ele>595</ele>
        <time>2019-05-01T13:16:01Z</time>
      </trkpt>
      <trkpt lat="46.42341" lon="5.6494">
        <ele>595</ele>
        <time>2019-05-01T13:17:01Z</time>
      </trkpt>
      <trkpt lat="46.42318" lon="5.64957">
        <ele>594</ele>
        <time>2019-05-01T13:18:01Z</time>
      </trkpt>
      <trkpt lat="46.42307" lon="5.64965">
        <ele>594</ele>
        <time>2019-05-01T13:19:01Z</time>
      </trkpt>
      <trkpt lat="46.42296" lon="5.64971">
        <ele>593</ele>
        <time>2019-05-01T13:20:01Z</time>
      </trkpt>
      <trkpt lat="46.42286" lon="5.64974">
        <ele>593</ele>
        <time>2019-05-01T13:21:01Z</time>
      </trkpt>
      <trkpt lat="46.42273" lon="5.64978">
        <ele>592</ele>
        <time>2019-05-01T13:22:01Z</time>
      </trkpt>
      <trkpt lat="46.42258" lon="5.64982">
        <ele>591</ele>
        <time>2019-05-01T13:23:01Z</time>
      </trkpt>
      <trkpt lat="46.42242" lon="5.64985">
        <ele>589</ele>
        <time>2019-05-01T13:24:01Z</time>
      </trkpt>
      <trkpt lat="46.42228" lon="5.64987">
        <ele>588</ele>
        <time>2019-05-01T13:25:01Z</time>
      </trkpt>
      <trkpt lat="46.42214" lon="5.64988">
        <ele>587</ele>
        <time>2019-05-01T13:26:01Z</time>
      </trkpt>
      <trkpt lat="46.42204" lon="5.64988">
        <ele>587</ele>
        <time>2019-05-01T13:27:01Z</time>
      </trkpt>
      <trkpt lat="46.42189" lon="5.64986">
        <ele>586</ele>
        <time>2019-05-01T13:28:01Z</time>
      </trkpt>
      <trkpt lat="46.42174" lon="5.64985">
        <ele>586</ele>
        <time>2019-05-01T13:29:01Z</time>
      </trkpt>
      <trkpt lat="46.42157" lon="5.64983">
        <ele>585</ele>
        <time>2019-05-01T13:30:01Z</time>
      </trkpt>
      <trkpt lat="46.42146" lon="5.64982">
        <ele>584</ele>
        <time>2019-05-01T13:31:01Z</time>
      </trkpt>
      <trkpt lat="46.4213" lon="5.64981">
        <ele>583</ele>
        <time>2019-05-01T13:32:01Z</time>
      </trkpt>
      <trkpt lat="46.42114" lon="5.6498">
        <ele>581</ele>
        <time>2019-05-01T13:33:01Z</time>
      </trkpt>
      <trkpt lat="46.42098" lon="5.64978">
        <ele>580</ele>
        <time>2019-05-01T13:34:01Z</time>
      </trkpt>
      <trkpt lat="46.42083" lon="5.64977">
        <ele>578</ele>
        <time>2019-05-01T13:35:01Z</time>
      </trkpt>
      <trkpt lat="46.4207" lon="5.64974">
        <ele>578</ele>
        <time>2019-05-01T13:36:01Z</time>
      </trkpt>
      <trkpt lat="46.42057" lon="5.64971">
        <ele>577</ele>
        <time>2019-05-01T13:37:01Z</time>
      </trkpt>
      <trkpt lat="46.42043" lon="5.64967">
        <ele>576</ele>
        <time>2019-05-01T13:38:01Z</time>
      </trkpt>
      <trkpt lat="46.42027" lon="5.64963">
        <ele>575</ele>
        <time>2019-05-01T13:39:01Z</time>
      </trkpt>
      <trkpt lat="46.42011" lon="5.64958">
        <ele>575</ele>
        <time>2019-05-01T13:40:01Z</time>
      </trkpt>
      <trkpt lat="46.41995" lon="5.64954">
        <ele>574</ele>
        <time>2019-05-01T13:41:01Z</time>
      </trkpt>
      <trkpt lat="46.41984" lon="5.64949">
        <ele>574</ele>
        <time>2019-05-01T13:42:01Z</time>
      </trkpt>
      <trkpt lat="46.4197" lon="5.64942">
        <ele>574</ele>
        <time>2019-05-01T13:43:01Z</time>
      </trkpt>
      <trkpt lat="46.41959" lon="5.64936">
        <ele>574</ele>
        <time>2019-05-01T13:44:01Z</time>
      </trkpt>
      <trkpt lat="46.41949" lon="5.64934">
        <ele>574</ele>
        <time>2019-05-01T13:45:01Z</time>
      </trkpt>
      <trkpt lat="46.41939" lon="5.64933">
        <ele>573</ele>
        <time>2019-05-01T13:46:01Z</time>
      </trkpt>
      <trkpt lat="46.41927" lon="5.64932">
        <ele>572</ele>
        <time>2019-05-01T13:47:01Z</time>
      </trkpt>
      <trkpt lat="46.41896" lon="5.64932">
        <ele>569</ele>
        <time>2019-05-01T13:48:01Z</time>
      </trkpt>
      <trkpt lat="46.4188" lon="5.64932">
        <ele>568</ele>
        <time>2019-05-01T13:49:01Z</time>
      </trkpt>
      <trkpt lat="46.41868" lon="5.64932">
        <ele>567</ele>
        <time>2019-05-01T13:50:01Z</time>
      </trkpt>
      <trkpt lat="46.41854" lon="5.64932">
        <ele>566</ele>
        <time>2019-05-01T13:51:01Z</time>
      </trkpt>
      <trkpt lat="46.41841" lon="5.64931">
        <ele>565</ele>
        <time>2019-05-01T13:52:01Z</time>
      </trkpt>
      <trkpt lat="46.41828" lon="5.64929">
        <ele>564</ele>
        <time>2019-05-01T13:53:01Z</time>
      </trkpt>
      <trkpt lat="46.41816" lon="5.64927">
        <ele>563</ele>
        <time>2019-05-01T13:54:01Z</time>
      </trkpt>
      <trkpt lat="46.41803" lon="5.64925">
        <ele>562</ele>
        <time>2019-05-01T13:55:01Z</time>
      </trkpt>
      <trkpt lat="46.4179" lon="5.64922">
        <ele>561</ele>
        <time>2019-05-01T13:56:01Z</time>
      </trkpt>
      <trkpt lat="46.41779" lon="5.64918">
        <ele>560</ele>
        <time>2019-05-01T13:57:01Z</time>
      </trkpt>
      <trkpt lat="46.4177" lon="5.64913">
        <ele>560</ele>
        <time>2019-05-01T13:58:01Z</time>
      </trkpt>
      <trkpt lat="46.4176" lon="5.64908">
        <ele>560</ele>
        <time>2019-05-01T13:59:01Z</time>
      </trkpt>
      <trkpt lat="46.41748" lon="5.64902">
        <ele>560</ele>
        <time>2019-05-01T14:00:01Z</time>
      </trkpt>
      <trkpt lat="46.41738" lon="5.64898">
        <ele>559</ele>
        <time>2019-05-01T14:01:01Z</time>
      </trkpt>
      <trkpt lat="46.41726" lon="5.64896">
        <ele>559</ele>
        <time>2019-05-01T14:02:01Z</time>
      </trkpt>
      <trkpt lat="46.41715" lon="5.64894">
        <ele>558</ele>
        <time>2019-05-01T14:03:01Z</time>
      </trkpt>
      <trkpt lat="46.41702" lon="5.64893">
        <ele>557</ele>
        <time>2019-05-01T14:04:01Z</time>
      </trkpt>
      <trkpt lat="46.41689" lon="5.64891">
        <ele>556</ele>
        <time>2019-05-01T14:05:01Z</time>
      </trkpt>
      <trkpt lat="46.41674" lon="5.6489">
        <ele>554</ele>
        <time>2019-05-01T14:06:01Z</time>
      </trkpt>
      <trkpt lat="46.4166" lon="5.64889">
        <ele>554</ele>
        <time>2019-05-01T14:07:01Z</time>
      </trkpt>
      <trkpt lat="46.41629" lon="5.64888">
        <ele>553</ele>
        <time>2019-05-01T14:08:01Z</time>
      </trkpt>
      <trkpt lat="46.41614" lon="5.64888">
        <ele>552</ele>
        <time>2019-05-01T14:09:01Z</time>
      </trkpt>
      <trkpt lat="46.41602" lon="5.64891">
        <ele>551</ele>
        <time>2019-05-01T14:10:01Z</time>
      </trkpt>
      <trkpt lat="46.4159" lon="5.64897">
        <ele>549</ele>
        <time>2019-05-01T14:11:01Z</time>
      </trkpt>
      <trkpt lat="46.41578" lon="5.64901">
        <ele>548</ele>
        <time>2019-05-01T14:12:01Z</time>
      </trkpt>
      <trkpt lat="46.41568" lon="5.64902">
        <ele>548</ele>
        <time>2019-05-01T14:13:01Z</time>
      </trkpt>
      <trkpt lat="46.41557" lon="5.649">
        <ele>547</ele>
        <time>2019-05-01T14:14:01Z</time>
      </trkpt>
      <trkpt lat="46.41547" lon="5.649">
        <ele>547</ele>
        <time>2019-05-01T14:15:01Z</time>
      </trkpt>
      <trkpt lat="46.41518" lon="5.64895">
        <ele>546</ele>
        <time>2019-05-01T14:16:01Z</time>
      </trkpt>
      <trkpt lat="46.41504" lon="5.64893">
        <ele>546</ele>
        <time>2019-05-01T14:17:01Z</time>
      </trkpt>
      <trkpt lat="46.41491" lon="5.64893">
        <ele>546</ele>
        <time>2019-05-01T14:18:01Z</time>
      </trkpt>
      <trkpt lat="46.41464" lon="5.64893">
        <ele>544</ele>
        <time>2019-05-01T14:19:01Z</time>
      </trkpt>
      <trkpt lat="46.41455" lon="5.64894">
        <ele>544</ele>
        <time>2019-05-01T14:20:01Z</time>
      </trkpt>
      <trkpt lat="46.4144" lon="5.64897">
        <ele>543</ele>
        <time>2019-05-01T14:21:01Z</time>
      </trkpt>
      <trkpt lat="46.41429" lon="5.64901">
        <ele>542</ele>
        <time>2019-05-01T14:22:01Z</time>
      </trkpt>
      <trkpt lat="46.41417" lon="5.64907">
        <ele>541</ele>
        <time>2019-05-01T14:23:01Z</time>
      </trkpt>
      <trkpt lat="46.41405" lon="5.64913">
        <ele>539</ele>
        <time>2019-05-01T14:24:01Z</time>
      </trkpt>
      <trkpt lat="46.41394" lon="5.64916">
        <ele>538</ele>
        <time>2019-05-01T14:25:01Z</time>
      </trkpt>
      <trkpt lat="46.41385" lon="5.64918">
        <ele>537</ele>
        <time>2019-05-01T14:26:01Z</time>
      </trkpt>
      <trkpt lat="46.41373" lon="5.64917">
        <ele>536</ele>
        <time>2019-05-01T14:27:01Z</time>
      </trkpt>
      <trkpt lat="46.41361" lon="5.64915">
        <ele>536</ele>
        <time>2019-05-01T14:28:01Z</time>
      </trkpt>
      <trkpt lat="46.41349" lon="5.64913">
        <ele>536</ele>
        <time>2019-05-01T14:29:01Z</time>
      </trkpt>
      <trkpt lat="46.41333" lon="5.64909">
        <ele>535</ele>
        <time>2019-05-01T14:30:01Z</time>
      </trkpt>
      <trkpt lat="46.4132" lon="5.64907">
        <ele>536</ele>
        <time>2019-05-01T14:31:01Z</time>
      </trkpt>
      <trkpt lat="46.41306" lon="5.64904">
        <ele>536</ele>
        <time>2019-05-01T14:32:01Z</time>
      </trkpt>
      <trkpt lat="46.41293" lon="5.64904">
        <ele>536</ele>
        <time>2019-05-01T14:33:01Z</time>
      </trkpt>
      <trkpt lat="46.41274" lon="5.64904">
        <ele>535</ele>
        <time>2019-05-01T14:34:01Z</time>
      </trkpt>
      <trkpt lat="46.41255" lon="5.64903">
        <ele>535</ele>
        <time>2019-05-01T14:35:01Z</time>
      </trkpt>
      <trkpt lat="46.41237" lon="5.64901">
        <ele>535</ele>
        <time>2019-05-01T14:36:01Z</time>
      </trkpt>
      <trkpt lat="46.41216" lon="5.64898">
        <ele>535</ele>
        <time>2019-05-01T14:37:01Z</time>
      </trkpt>
      <trkpt lat="46.41198" lon="5.64896">
        <ele>535</ele>
        <time>2019-05-01T14:38:01Z</time>
      </trkpt>
      <trkpt lat="46.41177" lon="5.64893">
        <ele>535</ele>
        <time>2019-05-01T14:39:01Z</time>
      </trkpt>
      <trkpt lat="46.41163" lon="5.64891">
        <ele>535</ele>
        <time>2019-05-01T14:40:01Z</time>
      </trkpt>
      <trkpt lat="46.41156" lon="5.6489">
        <ele>535</ele>
        <time>2019-05-01T14:41:01Z</time>
      </trkpt>
      <trkpt lat="46.41148" lon="5.64887">
        <ele>535</ele>
        <time>2019-05-01T14:42:01Z</time>
      </trkpt>
      <trkpt lat="46.41137" lon="5.64883">
        <ele>535</ele>
        <time>2019-05-01T14:43:01Z</time>
      </trkpt>
      <trkpt lat="46.41123" lon="5.64878">
        <ele>535</ele>
        <time>2019-05-01T14:44:01Z</time>
      </trkpt>
      <trkpt lat="46.4111" lon="5.64874">
        <ele>535</ele>
        <time>2019-05-01T14:45:01Z</time>
      </trkpt>
      <trkpt lat="46.41093" lon="5.64871">
        <ele>535</ele>
        <time>2019-05-01T14:46:01Z</time>
      </trkpt>
      <trkpt lat="46.41074" lon="5.64868">
        <ele>534</ele>
        <time>2019-05-01T14:47:01Z</time>
      </trkpt>
      <trkpt lat="46.41054" lon="5.64863">
        <ele>533</ele>
        <time>2019-05-01T14:48:01Z</time>
      </trkpt>
      <trkpt lat="46.41031" lon="5.64858">
        <ele>532</ele>
        <time>2019-05-01T14:49:01Z</time>
      </trkpt>
      <trkpt lat="46.40986" lon="5.64849">
        <ele>528</ele>
        <time>2019-05-01T14:50:01Z</time>
      </trkpt>
      <trkpt lat="46.40965" lon="5.64845">
        <ele>527</ele>
        <time>2019-05-01T14:51:01Z</time>
      </trkpt>
      <trkpt lat="46.40939" lon="5.6484">
        <ele>525</ele>
        <time>2019-05-01T14:52:01Z</time>
      </trkpt>
      <trkpt lat="46.40923" lon="5.64838">
        <ele>524</ele>
        <time>2019-05-01T14:53:01Z</time>
      </trkpt>
      <trkpt lat="46.40906" lon="5.64837">
        <ele>522</ele>
        <time>2019-05-01T14:54:01Z</time>
      </trkpt>
      <trkpt lat="46.40892" lon="5.64838">
        <ele>521</ele>
        <time>2019-05-01T14:55:01Z</time>
      </trkpt>
      <trkpt lat="46.40872" lon="5.64841">
        <ele>519</ele>
        <time>2019-05-01T14:56:01Z</time>
      </trkpt>
      <trkpt lat="46.40855" lon="5.64844">
        <ele>518</ele>
        <time>2019-05-01T14:57:01Z</time>
      </trkpt>
      <trkpt lat="46.40836" lon="5.64845">
        <ele>516</ele>
        <time>2019-05-01T14:58:01Z</time>
      </trkpt>
      <trkpt lat="46.40818" lon="5.64843">
        <ele>515</ele>
        <time>2019-05-01T14:59:01Z</time>
      </trkpt>
      <trkpt lat="46.40803" lon="5.64839">
        <ele>514</ele>
        <time>2019-05-01T15:00:01Z</time>
      </trkpt>
      <trkpt lat="46.40786" lon="5.64837">
        <ele>513</ele>
        <time>2019-05-01T15:01:01Z</time>
      </trkpt>
      <trkpt lat="46.40768" lon="5.64836">
        <ele>513</ele>
        <time>2019-05-01T15:02:01Z</time>
      </trkpt>
      <trkpt lat="46.40745" lon="5.64836">
        <ele>512</ele>
        <time>2019-05-01T15:03:01Z</time>
      </trkpt>
      <trkpt lat="46.40723" lon="5.64836">
        <ele>512</ele>
        <time>2019-05-01T15:04:01Z</time>
      </trkpt>
      <trkpt lat="46.40699" lon="5.64836">
        <ele>512</ele>
        <time>2019-05-01T15:05:01Z</time>
      </trkpt>
      <trkpt lat="46.40688" lon="5.64837">
        <ele>512</ele>
        <time>2019-05-01T15:06:01Z</time>
      </trkpt>
      <trkpt lat="46.4067" lon="5.64839">
        <ele>512</ele>
        <time>2019-05-01T15:07:01Z</time>
      </trkpt>
      <trkpt lat="46.40627" lon="5.64848">
        <ele>513</ele>
        <time>2019-05-01T15:08:01Z</time>
      </trkpt>
      <trkpt lat="46.40602" lon="5.64853">
        <ele>513</ele>
        <time>2019-05-01T15:09:01Z</time>
      </trkpt>
      <trkpt lat="46.40579" lon="5.64856">
        <ele>513</ele>
        <time>2019-05-01T15:10:01Z</time>
      </trkpt>
      <trkpt lat="46.40571" lon="5.64858">
        <ele>513</ele>
        <time>2019-05-01T15:11:01Z</time>
      </trkpt>
      <trkpt lat="46.40559" lon="5.6486">
        <ele>513</ele>
        <time>2019-05-01T15:12:01Z</time>
      </trkpt>
      <trkpt lat="46.40536" lon="5.64864">
        <ele>512</ele>
        <time>2019-05-01T15:13:01Z</time>
      </trkpt>
      <trkpt lat="46.40524" lon="5.64863">
        <ele>512</ele>
        <time>2019-05-01T15:14:01Z</time>
      </trkpt>
      <trkpt lat="46.40505" lon="5.64861">
        <ele>512</ele>
        <time>2019-05-01T15:15:01Z</time>
      </trkpt>
      <trkpt lat="46.40485" lon="5.64858">
        <ele>512</ele>
        <time>2019-05-01T15:16:01Z</time>
      </trkpt>
      <trkpt lat="46.40464" lon="5.64854">
        <ele>513</ele>
        <time>2019-05-01T15:17:01Z</time>
      </trkpt>
      <trkpt lat="46.4042" lon="5.64847">
        <ele>515</ele>
        <time>2019-05-01T15:18:01Z</time>
      </trkpt>
      <trkpt lat="46.40399" lon="5.64846">
        <ele>516</ele>
        <time>2019-05-01T15:19:01Z</time>
      </trkpt>
      <trkpt lat="46.40384" lon="5.64849">
        <ele>516</ele>
        <time>2019-05-01T15:20:01Z</time>
      </trkpt>
      <trkpt lat="46.4037" lon="5.64856">
        <ele>515</ele>
        <time>2019-05-01T15:21:01Z</time>
      </trkpt>
      <trkpt lat="46.40358" lon="5.64868">
        <ele>515</ele>
        <time>2019-05-01T15:22:01Z</time>
      </trkpt>
      <trkpt lat="46.40352" lon="5.64875">
        <ele>515</ele>
        <time>2019-05-01T15:23:01Z</time>
      </trkpt>
      <trkpt lat="46.40346" lon="5.64888">
        <ele>515</ele>
        <time>2019-05-01T15:24:01Z</time>
      </trkpt>
      <trkpt lat="46.4034" lon="5.64906">
        <ele>515</ele>
        <time>2019-05-01T15:25:01Z</time>
      </trkpt>
      <trkpt lat="46.40337" lon="5.64921">
        <ele>515</ele>
        <time>2019-05-01T15:26:01Z</time>
      </trkpt>
      <trkpt lat="46.40334" lon="5.64931">
        <ele>515</ele>
        <time>2019-05-01T15:27:01Z</time>
      </trkpt>
      <trkpt lat="46.40324" lon="5.64958">
        <ele>516</ele>
        <time>2019-05-01T15:28:01Z</time>
      </trkpt>
      <trkpt lat="46.40313" lon="5.64988">
        <ele>516</ele>
        <time>2019-05-01T15:29:01Z</time>
      </trkpt>
      <trkpt lat="46.40302" lon="5.65012">
        <ele>516</ele>
        <time>2019-05-01T15:30:01Z</time>
      </trkpt>
      <trkpt lat="46.40297" lon="5.65025">
        <ele>516</ele>
        <time>2019-05-01T15:31:01Z</time>
      </trkpt>
      <trkpt lat="46.40292" lon="5.65045">
        <ele>515</ele>
        <time>2019-05-01T15:32:01Z</time>
      </trkpt>
      <trkpt lat="46.40288" lon="5.65063">
        <ele>515</ele>
        <time>2019-05-01T15:33:01Z</time>
      </trkpt>
      <trkpt lat="46.40283" lon="5.65089">
        <ele>514</ele>
        <time>2019-05-01T15:34:01Z</time>
      </trkpt>
      <trkpt lat="46.4028" lon="5.65104">
        <ele>514</ele>
        <time>2019-05-01T15:35:01Z</time>
      </trkpt>
      <trkpt lat="46.40273" lon="5.65139">
        <ele>513</ele>
        <time>2019-05-01T15:36:01Z</time>
      </trkpt>
      <trkpt lat="46.4027" lon="5.65156">
        <ele>513</ele>
        <time>2019-05-01T15:37:01Z</time>
      </trkpt>
      <trkpt lat="46.40265" lon="5.65172">
        <ele>512</ele>
        <time>2019-05-01T15:38:01Z</time>
      </trkpt>
      <trkpt lat="46.40263" lon="5.65188">
        <ele>512</ele>
        <time>2019-05-01T15:39:01Z</time>
      </trkpt>
      <trkpt lat="46.40263" lon="5.65209">
        <ele>512</ele>
        <time>2019-05-01T15:40:01Z</time>
      </trkpt>
      <trkpt lat="46.40263" lon="5.65235">
        <ele>512</ele>
        <time>2019-05-01T15:41:01Z</time>
      </trkpt>
      <trkpt lat="46.40262" lon="5.65248">
        <ele>512</ele>
        <time>2019-05-01T15:42:01Z</time>
      </trkpt>
      <trkpt lat="46.4026" lon="5.65261">
        <ele>511</ele>
        <time>2019-05-01T15:43:01Z</time>
      </trkpt>
      <trkpt lat="46.40255" lon="5.65281">
        <ele>511</ele>
        <time>2019-05-01T15:44:01Z</time>
      </trkpt>
      <trkpt lat="46.40251" lon="5.65295">
        <ele>511</ele>
        <time>2019-05-01T15:45:01Z</time>
      </trkpt>
      <trkpt lat="46.40246" lon="5.65313">
        <ele>511</ele>
        <time>2019-05-01T15:46:01Z</time>
      </trkpt>
      <trkpt lat="46.40241" lon="5.65328">
        <ele>511</ele>
        <time>2019-05-01T15:47:01Z</time>
      </trkpt>
      <trkpt lat="46.40236" lon="5.65337">
        <ele>511</ele>
        <time>2019-05-01T15:48:01Z</time>
      </trkpt>
      <trkpt lat="46.40233" lon="5.65343">
        <ele>511</ele>
        <time>2019-05-01T15:49:01Z</time>
      </trkpt>
      <trkpt lat="46.40225" lon="5.65355">
        <ele>511</ele>
        <time>2019-05-01T15:50:01Z</time>
      </trkpt>
      <trkpt lat="46.40215" lon="5.65371">
        <ele>510</ele>
        <time>2019-05-01T15:51:01Z</time>
      </trkpt>
      <trkpt lat="46.40201" lon="5.65395">
        <ele>509</ele>
        <time>2019-05-01T15:52:01Z</time>
      </trkpt>
      <trkpt lat="46.4019" lon="5.65413">
        <ele>508</ele>
        <time>2019-05-01T15:53:01Z</time>
      </trkpt>
      <trkpt lat="46.40181" lon="5.65428">
        <ele>508</ele>
        <time>2019-05-01T15:54:01Z</time>
      </trkpt>
      <trkpt lat="46.40172" lon="5.65441">
        <ele>508</ele>
        <time>2019-05-01T15:55:01Z</time>
      </trkpt>
      <trkpt lat="46.40161" lon="5.65457">
        <ele>508</ele>
        <time>2019-05-01T15:56:01Z</time>
      </trkpt>
      <trkpt lat="46.40147" lon="5.65472">
        <ele>508</ele>
        <time>2019-05-01T15:57:01Z</time>
      </trkpt>
      <trkpt lat="46.40134" lon="5.65487">
        <ele>507</ele>
        <time>2019-05-01T15:58:01Z</time>
      </trkpt>
      <trkpt lat="46.40119" lon="5.65503">
        <ele>507</ele>
        <time>2019-05-01T15:59:01Z</time>
      </trkpt>
      <trkpt lat="46.40106" lon="5.65518">
        <ele>507</ele>
        <time>2019-05-01T16:00:01Z</time>
      </trkpt>
      <trkpt lat="46.40093" lon="5.65534">
        <ele>507</ele>
        <time>2019-05-01T16:01:01Z</time>
      </trkpt>
      <trkpt lat="46.40078" lon="5.65555">
        <ele>507</ele>
        <time>2019-05-01T16:02:01Z</time>
      </trkpt>
      <trkpt lat="46.40044" lon="5.65603">
        <ele>509</ele>
        <time>2019-05-01T16:03:01Z</time>
      </trkpt>
      <trkpt lat="46.40027" lon="5.65626">
        <ele>510</ele>
        <time>2019-05-01T16:04:01Z</time>
      </trkpt>
      <trkpt lat="46.40013" lon="5.65645">
        <ele>509</ele>
        <time>2019-05-01T16:05:01Z</time>
      </trkpt>
      <trkpt lat="46.40006" lon="5.65659">
        <ele>509</ele>
        <time>2019-05-01T16:06:01Z</time>
      </trkpt>
      <trkpt lat="46.4" lon="5.65675">
        <ele>509</ele>
        <time>2019-05-01T16:07:01Z</time>
      </trkpt>
      <trkpt lat="46.39994" lon="5.65694">
        <ele>509</ele>
        <time>2019-05-01T16:08:01Z</time>
      </trkpt>
      <trkpt lat="46.39988" lon="5.65717">
        <ele>509</ele>
        <time>2019-05-01T16:09:01Z</time>
      </trkpt>
      <trkpt lat="46.39983" lon="5.65741">
        <ele>508</ele>
        <time>2019-05-01T16:10:01Z</time>
      </trkpt>
      <trkpt lat="46.39978" lon="5.65759">
        <ele>508</ele>
        <time>2019-05-01T16:11:01Z</time>
      </trkpt>
      <trkpt lat="46.3997" lon="5.65776">
        <ele>507</ele>
        <time>2019-05-01T16:12:01Z</time>
      </trkpt>
      <trkpt lat="46.39962" lon="5.65789">
        <ele>506</ele>
        <time>2019-05-01T16:13:01Z</time>
      </trkpt>
      <trkpt lat="46.39952" lon="5.65803">
        <ele>505</ele>
        <time>2019-05-01T16:14:01Z</time>
      </trkpt>
      <trkpt lat="46.39942" lon="5.65816">
        <ele>505</ele>
        <time>2019-05-01T16:15:01Z</time>
      </trkpt>
      <trkpt lat="46.3993" lon="5.65829">
        <ele>504</ele>
        <time>2019-05-01T16:16:01Z</time>
      </trkpt>
      <trkpt lat="46.39919" lon="5.6584">
        <ele>503</ele>
        <time>2019-05-01T16:17:01Z</time>
      </trkpt>
      <trkpt lat="46.39909" lon="5.65849">
        <ele>501</ele>
        <time>2019-05-01T16:18:01Z</time>
      </trkpt>
      <trkpt lat="46.39894" lon="5.65863">
        <ele>499</ele>
        <time>2019-05-01T16:19:01Z</time>
      </trkpt>
      <trkpt lat="46.39882" lon="5.65877">
        <ele>497</ele>
        <time>2019-05-01T16:20:01Z</time>
      </trkpt>
      <trkpt lat="46.39871" lon="5.65898">
        <ele>495</ele>
        <time>2019-05-01T16:21:01Z</time>
      </trkpt>
      <trkpt lat="46.39867" lon="5.65914">
        <ele>493</ele>
        <time>2019-05-01T16:22:01Z</time>
      </trkpt>
      <trkpt lat="46.39863" lon="5.65937">
        <ele>492</ele>
        <time>2019-05-01T16:23:01Z</time>
      </trkpt>
      <trkpt lat="46.3986" lon="5.6596">
        <ele>491</ele>
        <time>2019-05-01T16:24:01Z</time>
      </trkpt>
      <trkpt lat="46.39859" lon="5.65972">
        <ele>490</ele>
        <time>2019-05-01T16:25:01Z</time>
      </trkpt>
      <trkpt lat="46.39857" lon="5.65995">
        <ele>489</ele>
        <time>2019-05-01T16:26:01Z</time>
      </trkpt>
      <trkpt lat="46.39855" lon="5.66023">
        <ele>489</ele>
        <time>2019-05-01T16:27:01Z</time>
      </trkpt>
      <trkpt lat="46.39853" lon="5.66048">
        <ele>488</ele>
        <time>2019-05-01T16:28:01Z</time>
      </trkpt>
      <trkpt lat="46.39853" lon="5.66066">
        <ele>488</ele>
        <time>2019-05-01T16:29:01Z</time>
      </trkpt>
      <trkpt lat="46.39853" lon="5.66092">
        <ele>488</ele>
        <time>2019-05-01T16:30:01Z</time>
      </trkpt>
      <trkpt lat="46.39855" lon="5.66111">
        <ele>489</ele>
        <time>2019-05-01T16:31:01Z</time>
      </trkpt>
      <trkpt lat="46.39858" lon="5.66132">
        <ele>491</ele>
        <time>2019-05-01T16:32:01Z</time>
      </trkpt>
      <trkpt lat="46.39864" lon="5.66152">
        <ele>493</ele>
        <time>2019-05-01T16:33:01Z</time>
      </trkpt>
      <trkpt lat="46.39871" lon="5.66173">
        <ele>494</ele>
        <time>2019-05-01T16:34:01Z</time>
      </trkpt>
      <trkpt lat="46.39879" lon="5.66191">
        <ele>495</ele>
        <time>2019-05-01T16:35:01Z</time>
      </trkpt>
      <trkpt lat="46.39889" lon="5.66209">
        <ele>495</ele>
        <time>2019-05-01T16:36:01Z</time>
      </trkpt>
      <trkpt lat="46.39898" lon="5.66226">
        <ele>496</ele>
        <time>2019-05-01T16:37:01Z</time>
      </trkpt>
      <trkpt lat="46.39906" lon="5.66243">
        <ele>496</ele>
        <time>2019-05-01T16:38:01Z</time>
      </trkpt>
      <trkpt lat="46.39915" lon="5.66268">
        <ele>495</ele>
        <time>2019-05-01T16:39:01Z</time>
      </trkpt>
      <trkpt lat="46.39925" lon="5.66292">
        <ele>494</ele>
        <time>2019-05-01T16:40:01Z</time>
      </trkpt>
      <trkpt lat="46.39925" lon="5.66293">
        <ele>494</ele>
        <time>2019-05-01T16:41:01Z</time>
      </trkpt>
      <trkpt lat="46.39933" lon="5.66311">
        <ele>494</ele>
        <time>2019-05-01T16:42:01Z</time>
      </trkpt>
      <trkpt lat="46.39958" lon="5.66368">
        <ele>490</ele>
        <time>2019-05-01T16:43:01Z</time>
      </trkpt>
      <trkpt lat="46.39977" lon="5.66407">
        <ele>489</ele>
        <time>2019-05-01T16:44:01Z</time>
      </trkpt>
      <trkpt lat="46.39985" lon="5.66424">
        <ele>488</ele>
        <time>2019-05-01T16:45:01Z</time>
      </trkpt>
      <trkpt lat="46.39992" lon="5.66437">
        <ele>488</ele>
        <time>2019-05-01T16:46:01Z</time>
      </trkpt>
      <trkpt lat="46.40014" lon="5.66472">
        <ele>488</ele>
        <time>2019-05-01T16:47:01Z</time>
      </trkpt>
      <trkpt lat="46.40025" lon="5.66489">
        <ele>488</ele>
        <time>2019-05-01T16:48:01Z</time>
      </trkpt>
      <trkpt lat="46.40039" lon="5.66509">
        <ele>489</ele>
        <time>2019-05-01T16:49:01Z</time>
      </trkpt>
      <trkpt lat="46.40052" lon="5.66528">
        <ele>489</ele>
        <time>2019-05-01T16:50:01Z</time>
      </trkpt>
      <trkpt lat="46.40064" lon="5.66546">
        <ele>491</ele>
        <time>2019-05-01T16:51:01Z</time>
      </trkpt>
      <trkpt lat="46.40074" lon="5.66561">
        <ele>492</ele>
        <time>2019-05-01T16:52:01Z</time>
      </trkpt>
      <trkpt lat="46.40133" lon="5.66648">
        <ele>485</ele>
        <time>2019-05-01T16:53:01Z</time>
      </trkpt>
      <trkpt lat="46.40149" lon="5.66673">
        <ele>483</ele>
        <time>2019-05-01T16:54:01Z</time>
      </trkpt>
      <trkpt lat="46.40178" lon="5.66716">
        <ele>482</ele>
        <time>2019-05-01T16:55:01Z</time>
      </trkpt>
      <trkpt lat="46.40204" lon="5.66753">
        <ele>483</ele>
        <time>2019-05-01T16:56:01Z</time>
      </trkpt>
      <trkpt lat="46.40216" lon="5.66768">
        <ele>483</ele>
        <time>2019-05-01T16:57:01Z</time>
      </trkpt>
      <trkpt lat="46.40228" lon="5.66778">
        <ele>484</ele>
        <time>2019-05-01T16:58:01Z</time>
      </trkpt>
      <trkpt lat="46.40241" lon="5.66786">
        <ele>485</ele>
        <time>2019-05-01T16:59:01Z</time>
      </trkpt>
      <trkpt lat="46.40253" lon="5.66793">
        <ele>487</ele>
        <time>2019-05-01T17:00:01Z</time>
      </trkpt>
      <trkpt lat="46.40264" lon="5.66796">
        <ele>487</ele>
        <time>2019-05-01T17:01:01Z</time>
      </trkpt>
      <trkpt lat="46.40265" lon="5.66797">
        <ele>487</ele>
        <time>2019-05-01T17:02:01Z</time>
      </trkpt>
      <trkpt lat="46.40266" lon="5.66797">
        <ele>487</ele>
        <time>2019-05-01T17:03:01Z</time>
      </trkpt>
      <trkpt lat="46.40279" lon="5.66797">
        <ele>488</ele>
        <time>2019-05-01T17:04:01Z</time>
      </trkpt>
      <trkpt lat="46.40293" lon="5.66798">
        <ele>489</ele>
        <time>2019-05-01T17:05:01Z</time>
      </trkpt>
      <trkpt lat="46.40304" lon="5.668">
        <ele>490</ele>
        <time>2019-05-01T17:06:01Z</time>
      </trkpt>
      <trkpt lat="46.40306" lon="5.66801">
        <ele>490</ele>
        <time>2019-05-01T17:07:01Z</time>
      </trkpt>
      <trkpt lat="46.40314" lon="5.66806">
        <ele>490</ele>
        <time>2019-05-01T17:08:01Z</time>
      </trkpt>
      <trkpt lat="46.40323" lon="5.66818">
        <ele>490</ele>
        <time>2019-05-01T17:09:01Z</time>
      </trkpt>
      <trkpt lat="46.40326" lon="5.66826">
        <ele>490</ele>
        <time>2019-05-01T17:10:01Z</time>
      </trkpt>
      <trkpt lat="46.40329" lon="5.66835">
        <ele>489</ele>
        <time>2019-05-01T17:11:01Z</time>
      </trkpt>
      <trkpt lat="46.4033" lon="5.66843">
        <ele>488</ele>
        <time>2019-05-01T17:12:01Z</time>
      </trkpt>
      <trkpt lat="46.40329" lon="5.66851">
        <ele>487</ele>
        <time>2019-05-01T17:13:01Z</time>
      </trkpt>
      <trkpt lat="46.40328" lon="5.6686">
        <ele>486</ele>
        <time>2019-05-01T17:14:01Z</time>
      </trkpt>
      <trkpt lat="46.40326" lon="5.66867">
        <ele>485</ele>
        <time>2019-05-01T17:15:01Z</time>
      </trkpt>
      <trkpt lat="46.40323" lon="5.66875">
        <ele>483</ele>
        <time>2019-05-01T17:16:01Z</time>
      </trkpt>
      <trkpt lat="46.4032" lon="5.66881">
        <ele>482</ele>
        <time>2019-05-01T17:17:01Z</time>
      </trkpt>
      <trkpt lat="46.40317" lon="5.66886">
        <ele>481</ele>
        <time>2019-05-01T17:18:01Z</time>
      </trkpt>
      <trkpt lat="46.40309" lon="5.66892">
        <ele>478</ele>
        <time>2019-05-01T17:19:01Z</time>
      </trkpt>
      <trkpt lat="46.40304" lon="5.66894">
        <ele>477</ele>
        <time>2019-05-01T17:20:01Z</time>
      </trkpt>
      <trkpt lat="46.40299" lon="5.66896">
        <ele>476</ele>
        <time>2019-05-01T17:21:01Z</time>
      </trkpt>
      <trkpt lat="46.40285" lon="5.66893">
        <ele>474</ele>
        <time>2019-05-01T17:22:01Z</time>
      </trkpt>
      <trkpt lat="46.40272" lon="5.66885">
        <ele>473</ele>
        <time>2019-05-01T17:23:01Z</time>
      </trkpt>
      <trkpt lat="46.40261" lon="5.66875">
        <ele>473</ele>
        <time>2019-05-01T17:24:01Z</time>
      </trkpt>
      <trkpt lat="46.4025" lon="5.66863">
        <ele>474</ele>
        <time>2019-05-01T17:25:01Z</time>
      </trkpt>
      <trkpt lat="46.40235" lon="5.6685">
        <ele>473</ele>
        <time>2019-05-01T17:26:01Z</time>
      </trkpt>
      <trkpt lat="46.40221" lon="5.66835">
        <ele>472</ele>
        <time>2019-05-01T17:27:01Z</time>
      </trkpt>
      <trkpt lat="46.40134" lon="5.6674">
        <ele>467</ele>
        <time>2019-05-01T17:28:01Z</time>
      </trkpt>
      <trkpt lat="46.40119" lon="5.66724">
        <ele>466</ele>
        <time>2019-05-01T17:29:01Z</time>
      </trkpt>
      <trkpt lat="46.40092" lon="5.66695">
        <ele>467</ele>
        <time>2019-05-01T17:30:01Z</time>
      </trkpt>
      <trkpt lat="46.40062" lon="5.66663">
        <ele>466</ele>
        <time>2019-05-01T17:31:01Z</time>
      </trkpt>
      <trkpt lat="46.40043" lon="5.66644">
        <ele>464</ele>
        <time>2019-05-01T17:32:01Z</time>
      </trkpt>
      <trkpt lat="46.40027" lon="5.66627">
        <ele>463</ele>
        <time>2019-05-01T17:33:01Z</time>
      </trkpt>
      <trkpt lat="46.40015" lon="5.66615">
        <ele>461</ele>
        <time>2019-05-01T17:34:01Z</time>
      </trkpt>
      <trkpt lat="46.39998" lon="5.66601">
        <ele>458</ele>
        <time>2019-05-01T17:35:01Z</time>
      </trkpt>
      <trkpt lat="46.39984" lon="5.66589">
        <ele>456</ele>
        <time>2019-05-01T17:36:01Z</time>
      </trkpt>
      <trkpt lat="46.39971" lon="5.66574">
        <ele>454</ele>
        <time>2019-05-01T17:37:01Z</time>
      </trkpt>
      <trkpt lat="46.39961" lon="5.66559">
        <ele>454</ele>
        <time>2019-05-01T17:38:01Z</time>
      </trkpt>
      <trkpt lat="46.39949" lon="5.6654">
        <ele>453</ele>
        <time>2019-05-01T17:39:01Z</time>
      </trkpt>
      <trkpt lat="46.39939" lon="5.66524">
        <ele>452</ele>
        <time>2019-05-01T17:40:01Z</time>
      </trkpt>
      <trkpt lat="46.39928" lon="5.66504">
        <ele>450</ele>
        <time>2019-05-01T17:41:01Z</time>
      </trkpt>
      <trkpt lat="46.39918" lon="5.66487">
        <ele>450</ele>
        <time>2019-05-01T17:42:01Z</time>
      </trkpt>
      <trkpt lat="46.39907" lon="5.66471">
        <ele>451</ele>
        <time>2019-05-01T17:43:01Z</time>
      </trkpt>
      <trkpt lat="46.39896" lon="5.66454">
        <ele>452</ele>
        <time>2019-05-01T17:44:01Z</time>
      </trkpt>
      <trkpt lat="46.39883" lon="5.66435">
        <ele>451</ele>
        <time>2019-05-01T17:45:01Z</time>
      </trkpt>
      <trkpt lat="46.39868" lon="5.66414">
        <ele>449</ele>
        <time>2019-05-01T17:46:01Z</time>
      </trkpt>
      <trkpt lat="46.39854" lon="5.66395">
        <ele>448</ele>
        <time>2019-05-01T17:47:01Z</time>
      </trkpt>
      <trkpt lat="46.39838" lon="5.66377">
        <ele>446</ele>
        <time>2019-05-01T17:48:01Z</time>
      </trkpt>
      <trkpt lat="46.39822" lon="5.66359">
        <ele>445</ele>
        <time>2019-05-01T17:49:01Z</time>
      </trkpt>
      <trkpt lat="46.39803" lon="5.66338">
        <ele>442</ele>
        <time>2019-05-01T17:50:01Z</time>
      </trkpt>
      <trkpt lat="46.39772" lon="5.66305">
        <ele>441</ele>
        <time>2019-05-01T17:51:01Z</time>
      </trkpt>
      <trkpt lat="46.39739" lon="5.66272">
        <ele>438</ele>
        <time>2019-05-01T17:52:01Z</time>
      </trkpt>
      <trkpt lat="46.39717" lon="5.6625">
        <ele>435</ele>
        <time>2019-05-01T17:53:01Z</time>
      </trkpt>
      <trkpt lat="46.39704" lon="5.66239">
        <ele>429</ele>
        <time>2019-05-01T17:54:01Z</time>
      </trkpt>
      <trkpt lat="46.39692" lon="5.66229">
        <ele>424</ele>
        <time>2019-05-01T17:55:01Z</time>
      </trkpt>
      <trkpt lat="46.39688" lon="5.66224">
        <ele>422</ele>
        <time>2019-05-01T17:56:01Z</time>
      </trkpt>
      <trkpt lat="46.39682" lon="5.66215">
        <ele>421</ele>
        <time>2019-05-01T17:57:01Z</time>
      </trkpt>
      <trkpt lat="46.39675" lon="5.66199">
        <ele>420</ele>
        <time>2019-05-01T17:58:01Z</time>
      </trkpt>
      <trkpt lat="46.39671" lon="5.66183">
        <ele>421</ele>
        <time>2019-05-01T17:59:01Z</time>
      </trkpt>
      <trkpt lat="46.39669" lon="5.66164">
        <ele>423</ele>
        <time>2019-05-01T18:00:01Z</time>
      </trkpt>
      <trkpt lat="46.39669" lon="5.66118">
        <ele>424</ele>
        <time>2019-05-01T18:01:01Z</time>
      </trkpt>
      <trkpt lat="46.39667" lon="5.66098">
        <ele>423</ele>
        <time>2019-05-01T18:02:01Z</time>
      </trkpt>
      <trkpt lat="46.39661" lon="5.66079">
        <ele>422</ele>
        <time>2019-05-01T18:03:01Z</time>
      </trkpt>
      <trkpt lat="46.39657" lon="5.66068">
        <ele>422</ele>
        <time>2019-05-01T18:04:01Z</time>
      </trkpt>
      <trkpt lat="46.39652" lon="5.66059">
        <ele>422</ele>
        <time>2019-05-01T18:05:01Z</time>
      </trkpt>
      <trkpt lat="46.39639" lon="5.66038">
        <ele>421</ele>
        <time>2019-05-01T18:06:01Z</time>
      </trkpt>
      <trkpt lat="46.39598" lon="5.65978">
        <ele>416</ele>
        <time>2019-05-01T18:07:01Z</time>
      </trkpt>
      <trkpt lat="46.39583" lon="5.65957">
        <ele>415</ele>
        <time>2019-05-01T18:08:01Z</time>
      </trkpt>
      <trkpt lat="46.39571" lon="5.65939">
        <ele>414</ele>
        <time>2019-05-01T18:09:01Z</time>
      </trkpt>
      <trkpt lat="46.39558" lon="5.65919">
        <ele>413</ele>
        <time>2019-05-01T18:10:01Z</time>
      </trkpt>
      <trkpt lat="46.39546" lon="5.659">
        <ele>411</ele>
        <time>2019-05-01T18:11:01Z</time>
      </trkpt>
      <trkpt lat="46.39538" lon="5.65884">
        <ele>409</ele>
        <time>2019-05-01T18:12:01Z</time>
      </trkpt>
      <trkpt lat="46.39532" lon="5.65869">
        <ele>408</ele>
        <time>2019-05-01T18:13:01Z</time>
      </trkpt>
      <trkpt lat="46.39527" lon="5.65852">
        <ele>408</ele>
        <time>2019-05-01T18:14:01Z</time>
      </trkpt>
      <trkpt lat="46.39522" lon="5.65831">
        <ele>408</ele>
        <time>2019-05-01T18:15:01Z</time>
      </trkpt>
      <trkpt lat="46.3951" lon="5.6578">
        <ele>405</ele>
        <time>2019-05-01T18:16:01Z</time>
      </trkpt>
      <trkpt lat="46.39504" lon="5.65756">
        <ele>404</ele>
        <time>2019-05-01T18:17:01Z</time>
      </trkpt>
      <trkpt lat="46.39498" lon="5.65732">
        <ele>402</ele>
        <time>2019-05-01T18:18:01Z</time>
      </trkpt>
      <trkpt lat="46.39494" lon="5.6571">
        <ele>401</ele>
        <time>2019-05-01T18:19:01Z</time>
      </trkpt>
      <trkpt lat="46.39492" lon="5.6569">
        <ele>400</ele>
        <time>2019-05-01T18:20:01Z</time>
      </trkpt>
      <trkpt lat="46.39492" lon="5.65671">
        <ele>400</ele>
        <time>2019-05-01T18:21:01Z</time>
      </trkpt>
      <trkpt lat="46.39494" lon="5.65647">
        <ele>401</ele>
        <time>2019-05-01T18:22:01Z</time>
      </trkpt>
      <trkpt lat="46.39496" lon="5.65619">
        <ele>401</ele>
        <time>2019-05-01T18:23:01Z</time>
      </trkpt>
      <trkpt lat="46.39497" lon="5.65591">
        <ele>401</ele>
        <time>2019-05-01T18:24:01Z</time>
      </trkpt>
      <trkpt lat="46.39497" lon="5.65567">
        <ele>401</ele>
        <time>2019-05-01T18:25:01Z</time>
      </trkpt>
      <trkpt lat="46.39495" lon="5.65547">
        <ele>400</ele>
        <time>2019-05-01T18:26:01Z</time>
      </trkpt>
      <trkpt lat="46.39491" lon="5.65514">
        <ele>398</ele>
        <time>2019-05-01T18:27:01Z</time>
      </trkpt>
      <trkpt lat="46.39487" lon="5.65476">
        <ele>397</ele>
        <time>2019-05-01T18:28:01Z</time>
      </trkpt>
      <trkpt lat="46.39483" lon="5.65443">
        <ele>397</ele>
        <time>2019-05-01T18:29:01Z</time>
      </trkpt>
      <trkpt lat="46.3948" lon="5.65407">
        <ele>397</ele>
        <time>2019-05-01T18:30:01Z</time>
      </trkpt>
      <trkpt lat="46.39476" lon="5.65375">
        <ele>395</ele>
        <time>2019-05-01T18:31:01Z</time>
      </trkpt>
      <trkpt lat="46.39472" lon="5.65343">
        <ele>394</ele>
        <time>2019-05-01T18:32:01Z</time>
      </trkpt>
      <trkpt lat="46.39469" lon="5.65314">
        <ele>393</ele>
        <time>2019-05-01T18:33:01Z</time>
      </trkpt>
      <trkpt lat="46.39466" lon="5.65287">
        <ele>392</ele>
        <time>2019-05-01T18:34:01Z</time>
      </trkpt>
      <trkpt lat="46.39461" lon="5.65253">
        <ele>390</ele>
        <time>2019-05-01T18:35:01Z</time>
      </trkpt>
      <trkpt lat="46.39456" lon="5.65224">
        <ele>389</ele>
        <time>2019-05-01T18:36:01Z</time>
      </trkpt>
      <trkpt lat="46.39451" lon="5.65203">
        <ele>389</ele>
        <time>2019-05-01T18:37:01Z</time>
      </trkpt>
      <trkpt lat="46.39444" lon="5.65182">
        <ele>387</ele>
        <time>2019-05-01T18:38:01Z</time>
      </trkpt>
      <trkpt lat="46.39438" lon="5.65163">
        <ele>385</ele>
        <time>2019-05-01T18:39:01Z</time>
      </trkpt>
      <trkpt lat="46.39431" lon="5.65146">
        <ele>383</ele>
        <time>2019-05-01T18:40:01Z</time>
      </trkpt>
      <trkpt lat="46.39424" lon="5.6513">
        <ele>381</ele>
        <time>2019-05-01T18:41:01Z</time>
      </trkpt>
      <trkpt lat="46.39423" lon="5.65127">
        <ele>381</ele>
        <time>2019-05-01T18:42:01Z</time>
      </trkpt>
      <trkpt lat="46.39416" lon="5.65114">
        <ele>379</ele>
        <time>2019-05-01T18:43:01Z</time>
      </trkpt>
      <trkpt lat="46.39403" lon="5.65086">
        <ele>378</ele>
        <time>2019-05-01T18:44:01Z</time>
      </trkpt>
      <trkpt lat="46.39391" lon="5.65062">
        <ele>376</ele>
        <time>2019-05-01T18:45:01Z</time>
      </trkpt>
      <trkpt lat="46.39378" lon="5.65036">
        <ele>375</ele>
        <time>2019-05-01T18:46:01Z</time>
      </trkpt>
      <trkpt lat="46.39352" lon="5.64982">
        <ele>371</ele>
        <time>2019-05-01T18:47:01Z</time>
      </trkpt>
      <trkpt lat="46.39318" lon="5.6491">
        <ele>368</ele>
        <time>2019-05-01T18:48:01Z</time>
      </trkpt>
      <trkpt lat="46.39295" lon="5.64864">
        <ele>368</ele>
        <time>2019-05-01T18:49:01Z</time>
      </trkpt>
      <trkpt lat="46.39262" lon="5.64795">
        <ele>365</ele>
        <time>2019-05-01T18:50:01Z</time>
      </trkpt>
      <trkpt lat="46.39252" lon="5.64775">
        <ele>364</ele>
        <time>2019-05-01T18:51:01Z</time>
      </trkpt>
      <trkpt lat="46.39246" lon="5.64761">
        <ele>365</ele>
        <time>2019-05-01T18:52:01Z</time>
      </trkpt>
      <trkpt lat="46.39239" lon="5.64741">
        <ele>365</ele>
        <time>2019-05-01T18:53:01Z</time>
      </trkpt>
      <trkpt lat="46.39235" lon="5.64729">
        <ele>365</ele>
        <time>2019-05-01T18:54:01Z</time>
      </trkpt>
      <trkpt lat="46.3923" lon="5.6471">
        <ele>365</ele>
        <time>2019-05-01T18:55:01Z</time>
      </trkpt>
      <trkpt lat="46.39223" lon="5.64681">
        <ele>365</ele>
        <time>2019-05-01T18:56:01Z</time>
      </trkpt>
      <trkpt lat="46.39215" lon="5.64655">
        <ele>365</ele>
        <time>2019-05-01T18:57:01Z</time>
      </trkpt>
      <trkpt lat="46.39207" lon="5.64636">
        <ele>365</ele>
        <time>2019-05-01T18:58:01Z</time>
      </trkpt>
      <trkpt lat="46.39197" lon="5.64618">
        <ele>365</ele>
        <time>2019-05-01T18:59:01Z</time>
      </trkpt>
      <trkpt lat="46.39183" lon="5.64601">
        <ele>364</ele>
        <time>2019-05-01T19:00:01Z</time>
      </trkpt>
      <trkpt lat="46.39178" lon="5.64596">
        <ele>364</ele>
        <time>2019-05-01T19:01:01Z</time>
      </trkpt>
      <trkpt lat="46.39178" lon="5.64596">
        <ele>364</ele>
        <time>2019-05-01T19:02:01Z</time>
      </trkpt>
      <trkpt lat="46.3917" lon="5.64589">
        <ele>363</ele>
        <time>2019-05-01T19:03:01Z</time>
      </trkpt>
      <trkpt lat="46.39149" lon="5.64576">
        <ele>362</ele>
        <time>2019-05-01T19:04:01Z</time>
      </trkpt>
      <trkpt lat="46.3913" lon="5.64568">
        <ele>361</ele>
        <time>2019-05-01T19:05:01Z</time>
      </trkpt>
      <trkpt lat="46.39057" lon="5.64535">
        <ele>359</ele>
        <time>2019-05-01T19:06:01Z</time>
      </trkpt>
      <trkpt lat="46.39035" lon="5.64526">
        <ele>359</ele>
        <time>2019-05-01T19:07:01Z</time>
      </trkpt>
      <trkpt lat="46.39015" lon="5.64517">
        <ele>359</ele>
        <time>2019-05-01T19:08:01Z</time>
      </trkpt>
      <trkpt lat="46.39008" lon="5.64514">
        <ele>359</ele>
        <time>2019-05-01T19:09:01Z</time>
      </trkpt>
      <trkpt lat="46.38999" lon="5.64511">
        <ele>359</ele>
        <time>2019-05-01T19:10:01Z</time>
      </trkpt>
      <trkpt lat="46.38981" lon="5.64506">
        <ele>359</ele>
        <time>2019-05-01T19:11:01Z</time>
      </trkpt>
      <trkpt lat="46.38967" lon="5.64503">
        <ele>359</ele>
        <time>2019-05-01T19:12:01Z</time>
      </trkpt>
      <trkpt lat="46.38955" lon="5.64501">
        <ele>358</ele>
        <time>2019-05-01T19:13:01Z</time>
      </trkpt>
      <trkpt lat="46.38853" lon="5.64489">
        <ele>357</ele>
        <time>2019-05-01T19:14:01Z</time>
      </trkpt>
      <trkpt lat="46.38853" lon="5.64489">
        <ele>357</ele>
        <time>2019-05-01T19:15:01Z</time>
      </trkpt>
      <trkpt lat="46.38858" lon="5.64505">
        <ele>356</ele>
        <time>2019-05-01T19:16:01Z</time>
      </trkpt>
      <trkpt lat="46.38861" lon="5.64521">
        <ele>356</ele>
        <time>2019-05-01T19:17:01Z</time>
      </trkpt>
      <trkpt lat="46.38862" lon="5.64533">
        <ele>356</ele>
        <time>2019-05-01T19:18:01Z</time>
      </trkpt>
      <trkpt lat="46.38864" lon="5.64557">
        <ele>355</ele>
        <time>2019-05-01T19:19:01Z</time>
      </trkpt>
      <trkpt lat="46.38866" lon="5.64569">
        <ele>355</ele>
        <time>2019-05-01T19:20:01Z</time>
      </trkpt>
      <trkpt lat="46.38868" lon="5.64577">
        <ele>355</ele>
        <time>2019-05-01T19:21:01Z</time>
      </trkpt>
      <trkpt lat="46.38873" lon="5.64593">
        <ele>355</ele>
        <time>2019-05-01T19:22:01Z</time>
      </trkpt>
      <trkpt lat="46.38877" lon="5.64612">
        <ele>356</ele>
        <time>2019-05-01T19:23:01Z</time>
      </trkpt>
      <trkpt lat="46.3888" lon="5.64628">
        <ele>356</ele>
        <time>2019-05-01T19:24:01Z</time>
      </trkpt>
      <trkpt lat="46.38883" lon="5.64645">
        <ele>356</ele>
        <time>2019-05-01T19:25:01Z</time>
      </trkpt>
      <trkpt lat="46.38886" lon="5.64665">
        <ele>357</ele>
        <time>2019-05-01T19:26:01Z</time>
      </trkpt>
      <trkpt lat="46.38888" lon="5.64692">
        <ele>357</ele>
        <time>2019-05-01T19:27:01Z</time>
      </trkpt>
      <trkpt lat="46.38888" lon="5.64715">
        <ele>357</ele>
        <time>2019-05-01T19:28:01Z</time>
      </trkpt>
      <trkpt lat="46.38888" lon="5.64728">
        <ele>357</ele>
        <time>2019-05-01T19:29:01Z</time>
      </trkpt>
      <trkpt lat="46.38888" lon="5.64734">
        <ele>357</ele>
        <time>2019-05-01T19:30:01Z</time>
      </trkpt>
      <trkpt lat="46.38884" lon="5.64748">
        <ele>356</ele>
        <time>2019-05-01T19:31:01Z</time>
      </trkpt>
      <trkpt lat="46.38883" lon="5.6475">
        <ele>356</ele>
        <time>2019-05-01T19:32:01Z</time>
      </trkpt>
      <trkpt lat="46.38868" lon="5.64778">
        <ele>356</ele>
        <time>2019-05-01T19:33:01Z</time>
      </trkpt>
      <trkpt lat="46.38861" lon="5.64786">
        <ele>355</ele>
        <time>2019-05-01T19:34:01Z</time>
      </trkpt>
      <trkpt lat="46.38854" lon="5.64795">
        <ele>355</ele>
        <time>2019-05-01T19:35:01Z</time>
      </trkpt>
      <trkpt lat="46.3885" lon="5.64802">
        <ele>355</ele>
        <time>2019-05-01T19:36:01Z</time>
      </trkpt>
      <trkpt lat="46.38842" lon="5.64819">
        <ele>354</ele>
        <time>2019-05-01T19:37:01Z</time>
      </trkpt>
      <trkpt lat="46.38835" lon="5.64835">
        <ele>353</ele>
        <time>2019-05-01T19:38:01Z</time>
      </trkpt>
      <trkpt lat="46.38829" lon="5.64845">
        <ele>352</ele>
        <time>2019-05-01T19:39:01Z</time>
      </trkpt>
      <trkpt lat="46.38822" lon="5.64854">
        <ele>352</ele>
        <time>2019-05-01T19:40:01Z</time>
      </trkpt>
      <trkpt lat="46.38815" lon="5.64859">
        <ele>351</ele>
        <time>2019-05-01T19:41:01Z</time>
      </trkpt>
      <trkpt lat="46.38807" lon="5.64863">
        <ele>350</ele>
        <time>2019-05-01T19:42:01Z</time>
      </trkpt>
      <trkpt lat="46.38798" lon="5.64866">
        <ele>349</ele>
        <time>2019-05-01T19:43:01Z</time>
      </trkpt>
      <trkpt lat="46.38791" lon="5.6487">
        <ele>349</ele>
        <time>2019-05-01T19:44:01Z</time>
      </trkpt>
      <trkpt lat="46.38784" lon="5.64874">
        <ele>348</ele>
        <time>2019-05-01T19:45:01Z</time>
      </trkpt>
      <trkpt lat="46.38778" lon="5.6488">
        <ele>347</ele>
        <time>2019-05-01T19:46:01Z</time>
      </trkpt>
      <trkpt lat="46.38772" lon="5.64887">
        <ele>347</ele>
        <time>2019-05-01T19:47:01Z</time>
      </trkpt>
      <trkpt lat="46.38767" lon="5.64897">
        <ele>346</ele>
        <time>2019-05-01T19:48:01Z</time>
      </trkpt>
      <trkpt lat="46.38762" lon="5.64909">
        <ele>345</ele>
        <time>2019-05-01T19:49:01Z</time>
      </trkpt>
      <trkpt lat="46.38758" lon="5.64925">
        <ele>344</ele>
        <time>2019-05-01T19:50:01Z</time>
      </trkpt>
      <trkpt lat="46.38755" lon="5.64943">
        <ele>343</ele>
        <time>2019-05-01T19:51:01Z</time>
      </trkpt>
      <trkpt lat="46.38753" lon="5.64975">
        <ele>342</ele>
        <time>2019-05-01T19:52:01Z</time>
      </trkpt>
      <trkpt lat="46.38752" lon="5.64988">
        <ele>341</ele>
        <time>2019-05-01T19:53:01Z</time>
      </trkpt>
      <trkpt lat="46.38754" lon="5.65">
        <ele>340</ele>
        <time>2019-05-01T19:54:01Z</time>
      </trkpt>
      <trkpt lat="46.38755" lon="5.65015">
        <ele>340</ele>
        <time>2019-05-01T19:55:01Z</time>
      </trkpt>
      <trkpt lat="46.38758" lon="5.65023">
        <ele>339</ele>
        <time>2019-05-01T19:56:01Z</time>
      </trkpt>
      <trkpt lat="46.38764" lon="5.65031">
        <ele>339</ele>
        <time>2019-05-01T19:57:01Z</time>
      </trkpt>
      <trkpt lat="46.3877" lon="5.65036">
        <ele>339</ele>
        <time>2019-05-01T19:58:01Z</time>
      </trkpt>
      <trkpt lat="46.38778" lon="5.65041">
        <ele>340</ele>
        <time>2019-05-01T19:59:01Z</time>
      </trkpt>
      <trkpt lat="46.38795" lon="5.65047">
        <ele>340</ele>
        <time>2019-05-01T20:00:01Z</time>
      </trkpt>
      <trkpt lat="46.38816" lon="5.65055">
        <ele>341</ele>
        <time>2019-05-01T20:01:01Z</time>
      </trkpt>
      <trkpt lat="46.38835" lon="5.65064">
        <ele>341</ele>
        <time>2019-05-01T20:02:01Z</time>
      </trkpt>
      <trkpt lat="46.38853" lon="5.65074">
        <ele>342</ele>
        <time>2019-05-01T20:03:01Z</time>
      </trkpt>
      <trkpt lat="46.38865" lon="5.65082">
        <ele>342</ele>
        <time>2019-05-01T20:04:01Z</time>
      </trkpt>
      <trkpt lat="46.38875" lon="5.65089">
        <ele>343</ele>
        <time>2019-05-01T20:05:01Z</time>
      </trkpt>
      <trkpt lat="46.3888" lon="5.65095">
        <ele>343</ele>
        <time>2019-05-01T20:06:01Z</time>
      </trkpt>
      <trkpt lat="46.38886" lon="5.65107">
        <ele>343</ele>
        <time>2019-05-01T20:07:01Z</time>
      </trkpt>
      <trkpt lat="46.38889" lon="5.65115">
        <ele>343</ele>
        <time>2019-05-01T20:08:01Z</time>
      </trkpt>
      <trkpt lat="46.38893" lon="5.65125">
        <ele>342</ele>
        <time>2019-05-01T20:09:01Z</time>
      </trkpt>
      <trkpt lat="46.38901" lon="5.65146">
        <ele>342</ele>
        <time>2019-05-01T20:10:01Z</time>
      </trkpt>
      <trkpt lat="46.38912" lon="5.65171">
        <ele>341</ele>
        <time>2019-05-01T20:11:01Z</time>
      </trkpt>
      <trkpt lat="46.3893" lon="5.65203">
        <ele>342</ele>
        <time>2019-05-01T20:12:01Z</time>
      </trkpt>
      <trkpt lat="46.38941" lon="5.65218">
        <ele>342</ele>
        <time>2019-05-01T20:13:01Z</time>
      </trkpt>
      <trkpt lat="46.38951" lon="5.65233">
        <ele>343</ele>
        <time>2019-05-01T20:14:01Z</time>
      </trkpt>
      <trkpt lat="46.38957" lon="5.65247">
        <ele>343</ele>
        <time>2019-05-01T20:15:01Z</time>
      </trkpt>
      <trkpt lat="46.38959" lon="5.65254">
        <ele>343</ele>
        <time>2019-05-01T20:16:01Z</time>
      </trkpt>
      <trkpt lat="46.38961" lon="5.65262">
        <ele>343</ele>
        <time>2019-05-01T20:17:01Z</time>
      </trkpt>
      <trkpt lat="46.38962" lon="5.65273">
        <ele>343</ele>
        <time>2019-05-01T20:18:01Z</time>
      </trkpt>
      <trkpt lat="46.38961" lon="5.65279">
        <ele>343</ele>
        <time>2019-05-01T20:19:01Z</time>
      </trkpt>
      <trkpt lat="46.3896" lon="5.65284">
        <ele>343</ele>
        <time>2019-05-01T20:20:01Z</time>
      </trkpt>
      <trkpt lat="46.38957" lon="5.6529">
        <ele>342</ele>
        <time>2019-05-01T20:21:01Z</time>
      </trkpt>
      <trkpt lat="46.38953" lon="5.65294">
        <ele>342</ele>
        <time>2019-05-01T20:22:01Z</time>
      </trkpt>
      <trkpt lat="46.38928" lon="5.65323">
        <ele>338</ele>
        <time>2019-05-01T20:23:01Z</time>
      </trkpt>
      <trkpt lat="46.38904" lon="5.65353">
        <ele>340</ele>
        <time>2019-05-01T20:24:01Z</time>
      </trkpt>
      <trkpt lat="46.38898" lon="5.65364">
        <ele>341</ele>
        <time>2019-05-01T20:25:01Z</time>
      </trkpt>
      <trkpt lat="46.38895" lon="5.65375">
        <ele>342</ele>
        <time>2019-05-01T20:26:01Z</time>
      </trkpt>
      <trkpt lat="46.38894" lon="5.65378">
        <ele>343</ele>
        <time>2019-05-01T20:27:01Z</time>
      </trkpt>
      <trkpt lat="46.38894" lon="5.65391">
        <ele>344</ele>
        <time>2019-05-01T20:28:01Z</time>
      </trkpt>
      <trkpt lat="46.38895" lon="5.654">
        <ele>344</ele>
        <time>2019-05-01T20:29:01Z</time>
      </trkpt>
      <trkpt lat="46.38898" lon="5.65409">
        <ele>344</ele>
        <time>2019-05-01T20:30:01Z</time>
      </trkpt>
      <trkpt lat="46.38905" lon="5.65423">
        <ele>344</ele>
        <time>2019-05-01T20:31:01Z</time>
      </trkpt>
      <trkpt lat="46.38912" lon="5.65439">
        <ele>345</ele>
        <time>2019-05-01T20:32:01Z</time>
      </trkpt>
      <trkpt lat="46.38917" lon="5.65454">
        <ele>346</ele>
        <time>2019-05-01T20:33:01Z</time>
      </trkpt>
      <trkpt lat="46.38921" lon="5.65476">
        <ele>348</ele>
        <time>2019-05-01T20:34:01Z</time>
      </trkpt>
      <trkpt lat="46.38925" lon="5.65494">
        <ele>349</ele>
        <time>2019-05-01T20:35:01Z</time>
      </trkpt>
      <trkpt lat="46.38928" lon="5.65511">
        <ele>351</ele>
        <time>2019-05-01T20:36:01Z</time>
      </trkpt>
      <trkpt lat="46.38933" lon="5.65539">
        <ele>353</ele>
        <time>2019-05-01T20:37:01Z</time>
      </trkpt>
      <trkpt lat="46.38938" lon="5.6556">
        <ele>354</ele>
        <time>2019-05-01T20:38:01Z</time>
      </trkpt>
      <trkpt lat="46.38944" lon="5.65579">
        <ele>354</ele>
        <time>2019-05-01T20:39:01Z</time>
      </trkpt>
      <trkpt lat="46.38957" lon="5.65616">
        <ele>354</ele>
        <time>2019-05-01T20:40:01Z</time>
      </trkpt>
      <trkpt lat="46.38962" lon="5.65633">
        <ele>354</ele>
        <time>2019-05-01T20:41:01Z</time>
      </trkpt>
      <trkpt lat="46.38967" lon="5.65651">
        <ele>354</ele>
        <time>2019-05-01T20:42:01Z</time>
      </trkpt>
      <trkpt lat="46.38972" lon="5.65671">
        <ele>355</ele>
        <time>2019-05-01T20:43:01Z</time>
      </trkpt>
      <trkpt lat="46.38976" lon="5.65688">
        <ele>355</ele>
        <time>2019-05-01T20:44:01Z</time>
      </trkpt>
      <trkpt lat="46.38978" lon="5.657">
        <ele>355</ele>
        <time>2019-05-01T20:45:01Z</time>
      </trkpt>
      <trkpt lat="46.3898" lon="5.65724">
        <ele>355</ele>
        <time>2019-05-01T20:46:01Z</time>
      </trkpt>
      <trkpt lat="46.38979" lon="5.65741">
        <ele>356</ele>
        <time>2019-05-01T20:47:01Z</time>
      </trkpt>
      <trkpt lat="46.38976" lon="5.65764">
        <ele>357</ele>
        <time>2019-05-01T20:48:01Z</time>
      </trkpt>
      <trkpt lat="46.38972" lon="5.65781">
        <ele>359</ele>
        <time>2019-05-01T20:49:01Z</time>
      </trkpt>
      <trkpt lat="46.3897" lon="5.65792">
        <ele>359</ele>
        <time>2019-05-01T20:50:01Z</time>
      </trkpt>
      <trkpt lat="46.38968" lon="5.6581">
        <ele>361</ele>
        <time>2019-05-01T20:51:01Z</time>
      </trkpt>
      <trkpt lat="46.38968" lon="5.65822">
        <ele>361</ele>
        <time>2019-05-01T20:52:01Z</time>
      </trkpt>
      <trkpt lat="46.3897" lon="5.65838">
        <ele>362</ele>
        <time>2019-05-01T20:53:01Z</time>
      </trkpt>
      <trkpt lat="46.38971" lon="5.65851">
        <ele>363</ele>
        <time>2019-05-01T20:54:01Z</time>
      </trkpt>
      <trkpt lat="46.38974" lon="5.65867">
        <ele>363</ele>
        <time>2019-05-01T20:55:01Z</time>
      </trkpt>
      <trkpt lat="46.38977" lon="5.65879">
        <ele>364</ele>
        <time>2019-05-01T20:56:01Z</time>
      </trkpt>
      <trkpt lat="46.38982" lon="5.65896">
        <ele>365</ele>
        <time>2019-05-01T20:57:01Z</time>
      </trkpt>
      <trkpt lat="46.38987" lon="5.65908">
        <ele>366</ele>
        <time>2019-05-01T20:58:01Z</time>
      </trkpt>
      <trkpt lat="46.38989" lon="5.65924">
        <ele>366</ele>
        <time>2019-05-01T20:59:01Z</time>
      </trkpt>
      <trkpt lat="46.38991" lon="5.65934">
        <ele>366</ele>
        <time>2019-05-01T21:00:01Z</time>
      </trkpt>
      <trkpt lat="46.38991" lon="5.65949">
        <ele>366</ele>
        <time>2019-05-01T21:01:01Z</time>
      </trkpt>
      <trkpt lat="46.3899" lon="5.65967">
        <ele>367</ele>
        <time>2019-05-01T21:02:01Z</time>
      </trkpt>
      <trkpt lat="46.38988" lon="5.65987">
        <ele>367</ele>
        <time>2019-05-01T21:03:01Z</time>
      </trkpt>
      <trkpt lat="46.38985" lon="5.66017">
        <ele>367</ele>
        <time>2019-05-01T21:04:01Z</time>
      </trkpt>
      <trkpt lat="46.3898" lon="5.66046">
        <ele>368</ele>
        <time>2019-05-01T21:05:01Z</time>
      </trkpt>
      <trkpt lat="46.38979" lon="5.66056">
        <ele>368</ele>
        <time>2019-05-01T21:06:01Z</time>
      </trkpt>
      <trkpt lat="46.38977" lon="5.66074">
        <ele>368</ele>
        <time>2019-05-01T21:07:01Z</time>
      </trkpt>
      <trkpt lat="46.38976" lon="5.66096">
        <ele>369</ele>
        <time>2019-05-01T21:08:01Z</time>
      </trkpt>
      <trkpt lat="46.38975" lon="5.66114">
        <ele>370</ele>
        <time>2019-05-01T21:09:01Z</time>
      </trkpt>
      <trkpt lat="46.38975" lon="5.6613">
        <ele>371</ele>
        <time>2019-05-01T21:10:01Z</time>
      </trkpt>
      <trkpt lat="46.38975" lon="5.66146">
        <ele>373</ele>
        <time>2019-05-01T21:11:01Z</time>
      </trkpt>
      <trkpt lat="46.38974" lon="5.66155">
        <ele>373</ele>
        <time>2019-05-01T21:12:01Z</time>
      </trkpt>
      <trkpt lat="46.38972" lon="5.66161">
        <ele>374</ele>
        <time>2019-05-01T21:13:01Z</time>
      </trkpt>
      <trkpt lat="46.3897" lon="5.66167">
        <ele>374</ele>
        <time>2019-05-01T21:14:01Z</time>
      </trkpt>
      <trkpt lat="46.38964" lon="5.66176">
        <ele>375</ele>
        <time>2019-05-01T21:15:01Z</time>
      </trkpt>
      <trkpt lat="46.3896" lon="5.6618">
        <ele>375</ele>
        <time>2019-05-01T21:16:01Z</time>
      </trkpt>
      <trkpt lat="46.38957" lon="5.66183">
        <ele>376</ele>
        <time>2019-05-01T21:17:01Z</time>
      </trkpt>
      <trkpt lat="46.3895" lon="5.66188">
        <ele>376</ele>
        <time>2019-05-01T21:18:01Z</time>
      </trkpt>
      <trkpt lat="46.3894" lon="5.66194">
        <ele>377</ele>
        <time>2019-05-01T21:19:01Z</time>
      </trkpt>
      <trkpt lat="46.38932" lon="5.66199">
        <ele>377</ele>
        <time>2019-05-01T21:20:01Z</time>
      </trkpt>
      <trkpt lat="46.38924" lon="5.66204">
        <ele>378</ele>
        <time>2019-05-01T21:21:01Z</time>
      </trkpt>
      <trkpt lat="46.38914" lon="5.66212">
        <ele>378</ele>
        <time>2019-05-01T21:22:01Z</time>
      </trkpt>
      <trkpt lat="46.38907" lon="5.66222">
        <ele>379</ele>
        <time>2019-05-01T21:23:01Z</time>
      </trkpt>
      <trkpt lat="46.38901" lon="5.66232">
        <ele>380</ele>
        <time>2019-05-01T21:24:01Z</time>
      </trkpt>
      <trkpt lat="46.38894" lon="5.66248">
        <ele>382</ele>
        <time>2019-05-01T21:25:01Z</time>
      </trkpt>
      <trkpt lat="46.3889" lon="5.66259">
        <ele>384</ele>
        <time>2019-05-01T21:26:01Z</time>
      </trkpt>
      <trkpt lat="46.38884" lon="5.66268">
        <ele>385</ele>
        <time>2019-05-01T21:27:01Z</time>
      </trkpt>
      <trkpt lat="46.3888" lon="5.66273">
        <ele>385</ele>
        <time>2019-05-01T21:28:01Z</time>
      </trkpt>
      <trkpt lat="46.38865" lon="5.6628">
        <ele>385</ele>
        <time>2019-05-01T21:29:01Z</time>
      </trkpt>
      <trkpt lat="46.38855" lon="5.66284">
        <ele>385</ele>
        <time>2019-05-01T21:30:01Z</time>
      </trkpt>
      <trkpt lat="46.38838" lon="5.66295">
        <ele>385</ele>
        <time>2019-05-01T21:31:01Z</time>
      </trkpt>
      <trkpt lat="46.38819" lon="5.66305">
        <ele>385</ele>
        <time>2019-05-01T21:32:01Z</time>
      </trkpt>
      <trkpt lat="46.38813" lon="5.6631">
        <ele>385</ele>
        <time>2019-05-01T21:33:01Z</time>
      </trkpt>
      <trkpt lat="46.38809" lon="5.66317">
        <ele>386</ele>
        <time>2019-05-01T21:34:01Z</time>
      </trkpt>
      <trkpt lat="46.38804" lon="5.66329">
        <ele>388</ele>
        <time>2019-05-01T21:35:01Z</time>
      </trkpt>
      <trkpt lat="46.38799" lon="5.66341">
        <ele>389</ele>
        <time>2019-05-01T21:36:01Z</time>
      </trkpt>
      <trkpt lat="46.38793" lon="5.6635">
        <ele>390</ele>
        <time>2019-05-01T21:37:01Z</time>
      </trkpt>
      <trkpt lat="46.38791" lon="5.66351">
        <ele>391</ele>
        <time>2019-05-01T21:38:01Z</time>
      </trkpt>
      <trkpt lat="46.38782" lon="5.66357">
        <ele>391</ele>
        <time>2019-05-01T21:39:01Z</time>
      </trkpt>
      <trkpt lat="46.38775" lon="5.66361">
        <ele>391</ele>
        <time>2019-05-01T21:40:01Z</time>
      </trkpt>
      <trkpt lat="46.38771" lon="5.66366">
        <ele>391</ele>
        <time>2019-05-01T21:41:01Z</time>
      </trkpt>
      <trkpt lat="46.38767" lon="5.66373">
        <ele>392</ele>
        <time>2019-05-01T21:42:01Z</time>
      </trkpt>
      <trkpt lat="46.38765" lon="5.66375">
        <ele>392</ele>
        <time>2019-05-01T21:43:01Z</time>
      </trkpt>
      <trkpt lat="46.38759" lon="5.66381">
        <ele>392</ele>
        <time>2019-05-01T21:44:01Z</time>
      </trkpt>
      <trkpt lat="46.38758" lon="5.66382">
        <ele>392</ele>
        <time>2019-05-01T21:45:01Z</time>
      </trkpt>
      <trkpt lat="46.38756" lon="5.66383">
        <ele>392</ele>
        <time>2019-05-01T21:46:01Z</time>
      </trkpt>
      <trkpt lat="46.3875" lon="5.66386">
        <ele>392</ele>
        <time>2019-05-01T21:47:01Z</time>
      </trkpt>
      <trkpt lat="46.38738" lon="5.66392">
        <ele>392</ele>
        <time>2019-05-01T21:48:01Z</time>
      </trkpt>
      <trkpt lat="46.3871" lon="5.66414">
        <ele>392</ele>
        <time>2019-05-01T21:49:01Z</time>
      </trkpt>
      <trkpt lat="46.3869" lon="5.66427">
        <ele>393</ele>
        <time>2019-05-01T21:50:01Z</time>
      </trkpt>
      <trkpt lat="46.38687" lon="5.66429">
        <ele>393</ele>
        <time>2019-05-01T21:51:01Z</time>
      </trkpt>
      <trkpt lat="46.38674" lon="5.66439">
        <ele>395</ele>
        <time>2019-05-01T21:52:01Z</time>
      </trkpt>
      <trkpt lat="46.38658" lon="5.66452">
        <ele>397</ele>
        <time>2019-05-01T21:53:01Z</time>
      </trkpt>
      <trkpt lat="46.38635" lon="5.66469">
        <ele>401</ele>
        <time>2019-05-01T21:54:01Z</time>
      </trkpt>
      <trkpt lat="46.38626" lon="5.66475">
        <ele>403</ele>
        <time>2019-05-01T21:55:01Z</time>
      </trkpt>
      <trkpt lat="46.38615" lon="5.66482">
        <ele>404</ele>
        <time>2019-05-01T21:56:01Z</time>
      </trkpt>
      <trkpt lat="46.38605" lon="5.66486">
        <ele>405</ele>
        <time>2019-05-01T21:57:01Z</time>
      </trkpt>
      <trkpt lat="46.38596" lon="5.66489">
        <ele>406</ele>
        <time>2019-05-01T21:58:01Z</time>
      </trkpt>
      <trkpt lat="46.38573" lon="5.66493">
        <ele>406</ele>
        <time>2019-05-01T21:59:01Z</time>
      </trkpt>
      <trkpt lat="46.3856" lon="5.66496">
        <ele>405</ele>
        <time>2019-05-01T22:00:01Z</time>
      </trkpt>
      <trkpt lat="46.38538" lon="5.66504">
        <ele>406</ele>
        <time>2019-05-01T22:01:01Z</time>
      </trkpt>
      <trkpt lat="46.38527" lon="5.66508">
        <ele>407</ele>
        <time>2019-05-01T22:02:01Z</time>
      </trkpt>
      <trkpt lat="46.38512" lon="5.66515">
        <ele>408</ele>
        <time>2019-05-01T22:03:01Z</time>
      </trkpt>
      <trkpt lat="46.38486" lon="5.66527">
        <ele>411</ele>
        <time>2019-05-01T22:04:01Z</time>
      </trkpt>
      <trkpt lat="46.38473" lon="5.66533">
        <ele>413</ele>
        <time>2019-05-01T22:05:01Z</time>
      </trkpt>
      <trkpt lat="46.38459" lon="5.66538">
        <ele>414</ele>
        <time>2019-05-01T22:06:01Z</time>
      </trkpt>
      <trkpt lat="46.38447" lon="5.66542">
        <ele>414</ele>
        <time>2019-05-01T22:07:01Z</time>
      </trkpt>
      <trkpt lat="46.38433" lon="5.66548">
        <ele>415</ele>
        <time>2019-05-01T22:08:01Z</time>
      </trkpt>
      <trkpt lat="46.38417" lon="5.66554">
        <ele>416</ele>
        <time>2019-05-01T22:09:01Z</time>
      </trkpt>
      <trkpt lat="46.38402" lon="5.6656">
        <ele>416</ele>
        <time>2019-05-01T22:10:01Z</time>
      </trkpt>
      <trkpt lat="46.38386" lon="5.66565">
        <ele>415</ele>
        <time>2019-05-01T22:11:01Z</time>
      </trkpt>
      <trkpt lat="46.38375" lon="5.66571">
        <ele>416</ele>
        <time>2019-05-01T22:12:01Z</time>
      </trkpt>
      <trkpt lat="46.38362" lon="5.66577">
        <ele>416</ele>
        <time>2019-05-01T22:13:01Z</time>
      </trkpt>
      <trkpt lat="46.38347" lon="5.66586">
        <ele>417</ele>
        <time>2019-05-01T22:14:01Z</time>
      </trkpt>
      <trkpt lat="46.38336" lon="5.66593">
        <ele>417</ele>
        <time>2019-05-01T22:15:01Z</time>
      </trkpt>
      <trkpt lat="46.38321" lon="5.66603">
        <ele>418</ele>
        <time>2019-05-01T22:16:01Z</time>
      </trkpt>
      <trkpt lat="46.38308" lon="5.66611">
        <ele>418</ele>
        <time>2019-05-01T22:17:01Z</time>
      </trkpt>
      <trkpt lat="46.38284" lon="5.66626">
        <ele>418</ele>
        <time>2019-05-01T22:18:01Z</time>
      </trkpt>
      <trkpt lat="46.38273" lon="5.66634">
        <ele>419</ele>
        <time>2019-05-01T22:19:01Z</time>
      </trkpt>
      <trkpt lat="46.38264" lon="5.6664">
        <ele>419</ele>
        <time>2019-05-01T22:20:01Z</time>
      </trkpt>
      <trkpt lat="46.38255" lon="5.66649">
        <ele>420</ele>
        <time>2019-05-01T22:21:01Z</time>
      </trkpt>
      <trkpt lat="46.38249" lon="5.66657">
        <ele>422</ele>
        <time>2019-05-01T22:22:01Z</time>
      </trkpt>
      <trkpt lat="46.38228" lon="5.66695">
        <ele>427</ele>
        <time>2019-05-01T22:23:01Z</time>
      </trkpt>
      <trkpt lat="46.38223" lon="5.66705">
        <ele>428</ele>
        <time>2019-05-01T22:24:01Z</time>
      </trkpt>
      <trkpt lat="46.38218" lon="5.66714">
        <ele>429</ele>
        <time>2019-05-01T22:25:01Z</time>
      </trkpt>
      <trkpt lat="46.38212" lon="5.66725">
        <ele>430</ele>
        <time>2019-05-01T22:26:01Z</time>
      </trkpt>
      <trkpt lat="46.38208" lon="5.66734">
        <ele>431</ele>
        <time>2019-05-01T22:27:01Z</time>
      </trkpt>
      <trkpt lat="46.38205" lon="5.66744">
        <ele>433</ele>
        <time>2019-05-01T22:28:01Z</time>
      </trkpt>
      <trkpt lat="46.38205" lon="5.6675">
        <ele>434</ele>
        <time>2019-05-01T22:29:01Z</time>
      </trkpt>
      <trkpt lat="46.38206" lon="5.66756">
        <ele>434</ele>
        <time>2019-05-01T22:30:01Z</time>
      </trkpt>
      <trkpt lat="46.38208" lon="5.66764">
        <ele>435</ele>
        <time>2019-05-01T22:31:01Z</time>
      </trkpt>
      <trkpt lat="46.38216" lon="5.66775">
        <ele>436</ele>
        <time>2019-05-01T22:32:01Z</time>
      </trkpt>
      <trkpt lat="46.38224" lon="5.66781">
        <ele>437</ele>
        <time>2019-05-01T22:33:01Z</time>
      </trkpt>
      <trkpt lat="46.38242" lon="5.66794">
        <ele>438</ele>
        <time>2019-05-01T22:34:01Z</time>
      </trkpt>
      <trkpt lat="46.38257" lon="5.66804">
        <ele>440</ele>
        <time>2019-05-01T22:35:01Z</time>
      </trkpt>
      <trkpt lat="46.38307" lon="5.6684">
        <ele>445</ele>
        <time>2019-05-01T22:36:01Z</time>
      </trkpt>
      <trkpt lat="46.38319" lon="5.6685">
        <ele>447</ele>
        <time>2019-05-01T22:37:01Z</time>
      </trkpt>
      <trkpt lat="46.38324" lon="5.66856">
        <ele>448</ele>
        <time>2019-05-01T22:38:01Z</time>
      </trkpt>
      <trkpt lat="46.38326" lon="5.6686">
        <ele>448</ele>
        <time>2019-05-01T22:39:01Z</time>
      </trkpt>
      <trkpt lat="46.38327" lon="5.66864">
        <ele>448</ele>
        <time>2019-05-01T22:40:01Z</time>
      </trkpt>
      <trkpt lat="46.38329" lon="5.66874">
        <ele>449</ele>
        <time>2019-05-01T22:41:01Z</time>
      </trkpt>
      <trkpt lat="46.38328" lon="5.66882">
        <ele>449</ele>
        <time>2019-05-01T22:42:01Z</time>
      </trkpt>
      <trkpt lat="46.38326" lon="5.6689">
        <ele>450</ele>
        <time>2019-05-01T22:43:01Z</time>
      </trkpt>
      <trkpt lat="46.3832" lon="5.66901">
        <ele>450</ele>
        <time>2019-05-01T22:44:01Z</time>
      </trkpt>
      <trkpt lat="46.38314" lon="5.6691">
        <ele>450</ele>
        <time>2019-05-01T22:45:01Z</time>
      </trkpt>
      <trkpt lat="46.38299" lon="5.66932">
        <ele>450</ele>
        <time>2019-05-01T22:46:01Z</time>
      </trkpt>
      <trkpt lat="46.38293" lon="5.66944">
        <ele>450</ele>
        <time>2019-05-01T22:47:01Z</time>
      </trkpt>
      <trkpt lat="46.38289" lon="5.66955">
        <ele>451</ele>
        <time>2019-05-01T22:48:01Z</time>
      </trkpt>
      <trkpt lat="46.38284" lon="5.66971">
        <ele>451</ele>
        <time>2019-05-01T22:49:01Z</time>
      </trkpt>
      <trkpt lat="46.3828" lon="5.66992">
        <ele>452</ele>
        <time>2019-05-01T22:50:01Z</time>
      </trkpt>
      <trkpt lat="46.38274" lon="5.67017">
        <ele>452</ele>
        <time>2019-05-01T22:51:01Z</time>
      </trkpt>
      <trkpt lat="46.38272" lon="5.67029">
        <ele>452</ele>
        <time>2019-05-01T22:52:01Z</time>
      </trkpt>
      <trkpt lat="46.38272" lon="5.67039">
        <ele>452</ele>
        <time>2019-05-01T22:53:01Z</time>
      </trkpt>
      <trkpt lat="46.38273" lon="5.67051">
        <ele>453</ele>
        <time>2019-05-01T22:54:01Z</time>
      </trkpt>
      <trkpt lat="46.38275" lon="5.6706">
        <ele>453</ele>
        <time>2019-05-01T22:55:01Z</time>
      </trkpt>
      <trkpt lat="46.38277" lon="5.67066">
        <ele>454</ele>
        <time>2019-05-01T22:56:01Z</time>
      </trkpt>
      <trkpt lat="46.38281" lon="5.67075">
        <ele>454</ele>
        <time>2019-05-01T22:57:01Z</time>
      </trkpt>
      <trkpt lat="46.38286" lon="5.67082">
        <ele>455</ele>
        <time>2019-05-01T22:58:01Z</time>
      </trkpt>
      <trkpt lat="46.38291" lon="5.6709">
        <ele>456</ele>
        <time>2019-05-01T22:59:01Z</time>
      </trkpt>
      <trkpt lat="46.38295" lon="5.67099">
        <ele>457</ele>
        <time>2019-05-01T23:00:01Z</time>
      </trkpt>
      <trkpt lat="46.38296" lon="5.67105">
        <ele>457</ele>
        <time>2019-05-01T23:01:01Z</time>
      </trkpt>
      <trkpt lat="46.38299" lon="5.67118">
        <ele>457</ele>
        <time>2019-05-01T23:02:01Z</time>
      </trkpt>
      <trkpt lat="46.383" lon="5.67128">
        <ele>457</ele>
        <time>2019-05-01T23:03:01Z</time>
      </trkpt>
      <trkpt lat="46.38302" lon="5.67145">
        <ele>458</ele>
        <time>2019-05-01T23:04:01Z</time>
      </trkpt>
      <trkpt lat="46.38304" lon="5.67164">
        <ele>458</ele>
        <time>2019-05-01T23:05:01Z</time>
      </trkpt>
      <trkpt lat="46.38306" lon="5.67181">
        <ele>458</ele>
        <time>2019-05-01T23:06:01Z</time>
      </trkpt>
      <trkpt lat="46.38307" lon="5.67195">
        <ele>459</ele>
        <time>2019-05-01T23:07:01Z</time>
      </trkpt>
      <trkpt lat="46.38308" lon="5.6721">
        <ele>459</ele>
        <time>2019-05-01T23:08:01Z</time>
      </trkpt>
      <trkpt lat="46.38309" lon="5.67223">
        <ele>459</ele>
        <time>2019-05-01T23:09:01Z</time>
      </trkpt>
      <trkpt lat="46.38311" lon="5.67233">
        <ele>459</ele>
        <time>2019-05-01T23:10:01Z</time>
      </trkpt>
      <trkpt lat="46.38314" lon="5.67246">
        <ele>459</ele>
        <time>2019-05-01T23:11:01Z</time>
      </trkpt>
      <trkpt lat="46.38319" lon="5.6726">
        <ele>459</ele>
        <time>2019-05-01T23:12:01Z</time>
      </trkpt>
      <trkpt lat="46.3833" lon="5.67285">
        <ele>460</ele>
        <time>2019-05-01T23:13:01Z</time>
      </trkpt>
      <trkpt lat="46.38335" lon="5.67299">
        <ele>460</ele>
        <time>2019-05-01T23:14:01Z</time>
      </trkpt>
      <trkpt lat="46.38344" lon="5.67319">
        <ele>461</ele>
        <time>2019-05-01T23:15:01Z</time>
      </trkpt>
      <trkpt lat="46.38349" lon="5.67329">
        <ele>462</ele>
        <time>2019-05-01T23:16:01Z</time>
      </trkpt>
      <trkpt lat="46.38357" lon="5.67342">
        <ele>463</ele>
        <time>2019-05-01T23:17:01Z</time>
      </trkpt>
      <trkpt lat="46.38377" lon="5.67369">
        <ele>466</ele>
        <time>2019-05-01T23:18:01Z</time>
      </trkpt>
      <trkpt lat="46.3839" lon="5.67388">
        <ele>468</ele>
        <time>2019-05-01T23:19:01Z</time>
      </trkpt>
      <trkpt lat="46.38397" lon="5.67396">
        <ele>468</ele>
        <time>2019-05-01T23:20:01Z</time>
      </trkpt>
      <trkpt lat="46.38406" lon="5.67405">
        <ele>469</ele>
        <time>2019-05-01T23:21:01Z</time>
      </trkpt>
      <trkpt lat="46.38414" lon="5.67412">
        <ele>470</ele>
        <time>2019-05-01T23:22:01Z</time>
      </trkpt>
      <trkpt lat="46.38423" lon="5.67419">
        <ele>471</ele>
        <time>2019-05-01T23:23:01Z</time>
      </trkpt>
      <trkpt lat="46.3843" lon="5.67425">
        <ele>472</ele>
        <time>2019-05-01T23:24:01Z</time>
      </trkpt>
      <trkpt lat="46.38435" lon="5.67431">
        <ele>473</ele>
        <time>2019-05-01T23:25:01Z</time>
      </trkpt>
      <trkpt lat="46.38438" lon="5.67434">
        <ele>473</ele>
        <time>2019-05-01T23:26:01Z</time>
      </trkpt>
      <trkpt lat="46.38443" lon="5.67444">
        <ele>474</ele>
        <time>2019-05-01T23:27:01Z</time>
      </trkpt>
      <trkpt lat="46.38448" lon="5.67453">
        <ele>475</ele>
        <time>2019-05-01T23:28:01Z</time>
      </trkpt>
      <trkpt lat="46.38459" lon="5.67484">
        <ele>477</ele>
        <time>2019-05-01T23:29:01Z</time>
      </trkpt>
      <trkpt lat="46.38464" lon="5.67495">
        <ele>478</ele>
        <time>2019-05-01T23:30:01Z</time>
      </trkpt>
      <trkpt lat="46.3847" lon="5.67505">
        <ele>479</ele>
        <time>2019-05-01T23:31:01Z</time>
      </trkpt>
      <trkpt lat="46.38477" lon="5.67517">
        <ele>481</ele>
        <time>2019-05-01T23:32:01Z</time>
      </trkpt>
      <trkpt lat="46.38482" lon="5.67527">
        <ele>481</ele>
        <time>2019-05-01T23:33:01Z</time>
      </trkpt>
      <trkpt lat="46.38486" lon="5.67538">
        <ele>482</ele>
        <time>2019-05-01T23:34:01Z</time>
      </trkpt>
      <trkpt lat="46.38488" lon="5.67546">
        <ele>483</ele>
        <time>2019-05-01T23:35:01Z</time>
      </trkpt>
      <trkpt lat="46.3849" lon="5.67555">
        <ele>483</ele>
        <time>2019-05-01T23:36:01Z</time>
      </trkpt>
      <trkpt lat="46.3849" lon="5.67564">
        <ele>484</ele>
        <time>2019-05-01T23:37:01Z</time>
      </trkpt>
      <trkpt lat="46.38489" lon="5.67571">
        <ele>484</ele>
        <time>2019-05-01T23:38:01Z</time>
      </trkpt>
      <trkpt lat="46.38487" lon="5.67584">
        <ele>484</ele>
        <time>2019-05-01T23:39:01Z</time>
      </trkpt>
      <trkpt lat="46.38486" lon="5.67592">
        <ele>484</ele>
        <time>2019-05-01T23:40:01Z</time>
      </trkpt>
      <trkpt lat="46.38486" lon="5.676">
        <ele>485</ele>
        <time>2019-05-01T23:41:01Z</time>
      </trkpt>
      <trkpt lat="46.38488" lon="5.6761">
        <ele>485</ele>
        <time>2019-05-01T23:42:01Z</time>
      </trkpt>
      <trkpt lat="46.38492" lon="5.67617">
        <ele>486</ele>
        <time>2019-05-01T23:43:01Z</time>
      </trkpt>
      <trkpt lat="46.38495" lon="5.67622">
        <ele>487</ele>
        <time>2019-05-01T23:44:01Z</time>
      </trkpt>
      <trkpt lat="46.38499" lon="5.67624">
        <ele>487</ele>
        <time>2019-05-01T23:45:01Z</time>
      </trkpt>
      <trkpt lat="46.38506" lon="5.67623">
        <ele>488</ele>
        <time>2019-05-01T23:46:01Z</time>
      </trkpt>
      <trkpt lat="46.38512" lon="5.6762">
        <ele>488</ele>
        <time>2019-05-01T23:47:01Z</time>
      </trkpt>
      <trkpt lat="46.38516" lon="5.67615">
        <ele>488</ele>
        <time>2019-05-01T23:48:01Z</time>
      </trkpt>
      <trkpt lat="46.38521" lon="5.6761">
        <ele>488</ele>
        <time>2019-05-01T23:49:01Z</time>
      </trkpt>
      <trkpt lat="46.38528" lon="5.67604">
        <ele>489</ele>
        <time>2019-05-01T23:50:01Z</time>
      </trkpt>
      <trkpt lat="46.38536" lon="5.67599">
        <ele>490</ele>
        <time>2019-05-01T23:51:01Z</time>
      </trkpt>
      <trkpt lat="46.38545" lon="5.67596">
        <ele>490</ele>
        <time>2019-05-01T23:52:01Z</time>
      </trkpt>
      <trkpt lat="46.38556" lon="5.67593">
        <ele>491</ele>
        <time>2019-05-01T23:53:01Z</time>
      </trkpt>
      <trkpt lat="46.38568" lon="5.67589">
        <ele>493</ele>
        <time>2019-05-01T23:54:01Z</time>
      </trkpt>
      <trkpt lat="46.3858" lon="5.67586">
        <ele>494</ele>
        <time>2019-05-01T23:55:01Z</time>
      </trkpt>
      <trkpt lat="46.38594" lon="5.67582">
        <ele>495</ele>
        <time>2019-05-01T23:56:01Z</time>
      </trkpt>
      <trkpt lat="46.38604" lon="5.6758">
        <ele>496</ele>
        <time>2019-05-01T23:57:01Z</time>
      </trkpt>
      <trkpt lat="46.38615" lon="5.67578">
        <ele>497</ele>
        <time>2019-05-01T23:58:01Z</time>
      </trkpt>
      <trkpt lat="46.3863" lon="5.67576">
        <ele>498</ele>
        <time>2019-05-01T23:59:01Z</time>
      </trkpt>
      <trkpt lat="46.38639" lon="5.67576">
        <ele>499</ele>
        <time>2019-05-02T00:00:01Z</time>
      </trkpt>
      <trkpt lat="46.3865" lon="5.67574">
        <ele>500</ele>
        <time>2019-05-02T00:01:01Z</time>
      </trkpt>
      <trkpt lat="46.38655" lon="5.67574">
        <ele>501</ele>
        <time>2019-05-02T00:02:01Z</time>
      </trkpt>
      <trkpt lat="46.38659" lon="5.67572">
        <ele>501</ele>
        <time>2019-05-02T00:03:01Z</time>
      </trkpt>
      <trkpt lat="46.38668" lon="5.67568">
        <ele>502</ele>
        <time>2019-05-02T00:04:01Z</time>
      </trkpt>
      <trkpt lat="46.38674" lon="5.67565">
        <ele>503</ele>
        <time>2019-05-02T00:05:01Z</time>
      </trkpt>
      <trkpt lat="46.38683" lon="5.6756">
        <ele>504</ele>
        <time>2019-05-02T00:06:01Z</time>
      </trkpt>
      <trkpt lat="46.38689" lon="5.67557">
        <ele>504</ele>
        <time>2019-05-02T00:07:01Z</time>
      </trkpt>
      <trkpt lat="46.38694" lon="5.67556">
        <ele>505</ele>
        <time>2019-05-02T00:08:01Z</time>
      </trkpt>
      <trkpt lat="46.38705" lon="5.67555">
        <ele>506</ele>
        <time>2019-05-02T00:09:01Z</time>
      </trkpt>
      <trkpt lat="46.38725" lon="5.67556">
        <ele>508</ele>
        <time>2019-05-02T00:10:01Z</time>
      </trkpt>
      <trkpt lat="46.38736" lon="5.67557">
        <ele>509</ele>
        <time>2019-05-02T00:11:01Z</time>
      </trkpt>
      <trkpt lat="46.38744" lon="5.67557">
        <ele>510</ele>
        <time>2019-05-02T00:12:01Z</time>
      </trkpt>
      <trkpt lat="46.38753" lon="5.67556">
        <ele>511</ele>
        <time>2019-05-02T00:13:01Z</time>
      </trkpt>
      <trkpt lat="46.38766" lon="5.67557">
        <ele>512</ele>
        <time>2019-05-02T00:14:01Z</time>
      </trkpt>
      <trkpt lat="46.38774" lon="5.6756">
        <ele>513</ele>
        <time>2019-05-02T00:15:01Z</time>
      </trkpt>
      <trkpt lat="46.38783" lon="5.67563">
        <ele>514</ele>
        <time>2019-05-02T00:16:01Z</time>
      </trkpt>
      <trkpt lat="46.38789" lon="5.67567">
        <ele>515</ele>
        <time>2019-05-02T00:17:01Z</time>
      </trkpt>
      <trkpt lat="46.38795" lon="5.67572">
        <ele>515</ele>
        <time>2019-05-02T00:18:01Z</time>
      </trkpt>
      <trkpt lat="46.38801" lon="5.67579">
        <ele>516</ele>
        <time>2019-05-02T00:19:01Z</time>
      </trkpt>
      <trkpt lat="46.38811" lon="5.67589">
        <ele>518</ele>
        <time>2019-05-02T00:20:01Z</time>
      </trkpt>
      <trkpt lat="46.3882" lon="5.67599">
        <ele>519</ele>
        <time>2019-05-02T00:21:01Z</time>
      </trkpt>
      <trkpt lat="46.38822" lon="5.67602">
        <ele>520</ele>
        <time>2019-05-02T00:22:01Z</time>
      </trkpt>
      <trkpt lat="46.38824" lon="5.67602">
        <ele>520</ele>
        <time>2019-05-02T00:23:01Z</time>
      </trkpt>
      <trkpt lat="46.38825" lon="5.67603">
        <ele>520</ele>
        <time>2019-05-02T00:24:01Z</time>
      </trkpt>
      <trkpt lat="46.38826" lon="5.67602">
        <ele>520</ele>
        <time>2019-05-02T00:25:01Z</time>
      </trkpt>
      <trkpt lat="46.38828" lon="5.67601">
        <ele>520</ele>
        <time>2019-05-02T00:26:01Z</time>
      </trkpt>
      <trkpt lat="46.38831" lon="5.67598">
        <ele>520</ele>
        <time>2019-05-02T00:27:01Z</time>
      </trkpt>
      <trkpt lat="46.38839" lon="5.67589">
        <ele>520</ele>
        <time>2019-05-02T00:28:01Z</time>
      </trkpt>
      <trkpt lat="46.38843" lon="5.67585">
        <ele>520</ele>
        <time>2019-05-02T00:29:01Z</time>
      </trkpt>
      <trkpt lat="46.38848" lon="5.67579">
        <ele>520</ele>
        <time>2019-05-02T00:30:01Z</time>
      </trkpt>
      <trkpt lat="46.38854" lon="5.67577">
        <ele>521</ele>
        <time>2019-05-02T00:31:01Z</time>
      </trkpt>
      <trkpt lat="46.38857" lon="5.67575">
        <ele>521</ele>
        <time>2019-05-02T00:32:01Z</time>
      </trkpt>
      <trkpt lat="46.38865" lon="5.67569">
        <ele>522</ele>
        <time>2019-05-02T00:33:01Z</time>
      </trkpt>
      <trkpt lat="46.38871" lon="5.67563">
        <ele>523</ele>
        <time>2019-05-02T00:34:01Z</time>
      </trkpt>
      <trkpt lat="46.38878" lon="5.67557">
        <ele>523</ele>
        <time>2019-05-02T00:35:01Z</time>
      </trkpt>
      <trkpt lat="46.38885" lon="5.67551">
        <ele>524</ele>
        <time>2019-05-02T00:36:01Z</time>
      </trkpt>
      <trkpt lat="46.3889" lon="5.67548">
        <ele>524</ele>
        <time>2019-05-02T00:37:01Z</time>
      </trkpt>
      <trkpt lat="46.38894" lon="5.67547">
        <ele>525</ele>
        <time>2019-05-02T00:38:01Z</time>
      </trkpt>
      <trkpt lat="46.38898" lon="5.67546">
        <ele>525</ele>
        <time>2019-05-02T00:39:01Z</time>
      </trkpt>
      <trkpt lat="46.38899" lon="5.67546">
        <ele>525</ele>
        <time>2019-05-02T00:40:01Z</time>
      </trkpt>
      <trkpt lat="46.38901" lon="5.67546">
        <ele>525</ele>
        <time>2019-05-02T00:41:01Z</time>
      </trkpt>
      <trkpt lat="46.38906" lon="5.67549">
        <ele>526</ele>
        <time>2019-05-02T00:42:01Z</time>
      </trkpt>
      <trkpt lat="46.38909" lon="5.67552">
        <ele>526</ele>
        <time>2019-05-02T00:43:01Z</time>
      </trkpt>
      <trkpt lat="46.38911" lon="5.67554">
        <ele>527</ele>
        <time>2019-05-02T00:44:01Z</time>
      </trkpt>
      <trkpt lat="46.38916" lon="5.67559">
        <ele>527</ele>
        <time>2019-05-02T00:45:01Z</time>
      </trkpt>
      <trkpt lat="46.38923" lon="5.67571">
        <ele>528</ele>
        <time>2019-05-02T00:46:01Z</time>
      </trkpt>
      <trkpt lat="46.38932" lon="5.67586">
        <ele>529</ele>
        <time>2019-05-02T00:47:01Z</time>
      </trkpt>
      <trkpt lat="46.3894" lon="5.67604">
        <ele>530</ele>
        <time>2019-05-02T00:48:01Z</time>
      </trkpt>
      <trkpt lat="46.38946" lon="5.67617">
        <ele>531</ele>
        <time>2019-05-02T00:49:01Z</time>
      </trkpt>
      <trkpt lat="46.3895" lon="5.67625">
        <ele>531</ele>
        <time>2019-05-02T00:50:01Z</time>
      </trkpt>
      <trkpt lat="46.38952" lon="5.67629">
        <ele>532</ele>
        <time>2019-05-02T00:51:01Z</time>
      </trkpt>
      <trkpt lat="46.38958" lon="5.67635">
        <ele>532</ele>
        <time>2019-05-02T00:52:01Z</time>
      </trkpt>
      <trkpt lat="46.38964" lon="5.67643">
        <ele>533</ele>
        <time>2019-05-02T00:53:01Z</time>
      </trkpt>
      <trkpt lat="46.38975" lon="5.67652">
        <ele>534</ele>
        <time>2019-05-02T00:54:01Z</time>
      </trkpt>
      <trkpt lat="46.38982" lon="5.67657">
        <ele>534</ele>
        <time>2019-05-02T00:55:01Z</time>
      </trkpt>
      <trkpt lat="46.38988" lon="5.6766">
        <ele>534</ele>
        <time>2019-05-02T00:56:01Z</time>
      </trkpt>
      <trkpt lat="46.38993" lon="5.67663">
        <ele>535</ele>
        <time>2019-05-02T00:57:01Z</time>
      </trkpt>
      <trkpt lat="46.39009" lon="5.6767">
        <ele>536</ele>
        <time>2019-05-02T00:58:01Z</time>
      </trkpt>
      <trkpt lat="46.3904" lon="5.67685">
        <ele>538</ele>
        <time>2019-05-02T00:59:01Z</time>
      </trkpt>
      <trkpt lat="46.3907" lon="5.67701">
        <ele>541</ele>
        <time>2019-05-02T01:00:01Z</time>
      </trkpt>
      <trkpt lat="46.39074" lon="5.67703">
        <ele>541</ele>
        <time>2019-05-02T01:01:01Z</time>
      </trkpt>
      <trkpt lat="46.39077" lon="5.67705">
        <ele>541</ele>
        <time>2019-05-02T01:02:01Z</time>
      </trkpt>
      <trkpt lat="46.39086" lon="5.67712">
        <ele>542</ele>
        <time>2019-05-02T01:03:01Z</time>
      </trkpt>
      <trkpt lat="46.39097" lon="5.67722">
        <ele>542</ele>
        <time>2019-05-02T01:04:01Z</time>
      </trkpt>
      <trkpt lat="46.39109" lon="5.67732">
        <ele>543</ele>
        <time>2019-05-02T01:05:01Z</time>
      </trkpt>
      <trkpt lat="46.39125" lon="5.67744">
        <ele>544</ele>
        <time>2019-05-02T01:06:01Z</time>
      </trkpt>
      <trkpt lat="46.39139" lon="5.67753">
        <ele>545</ele>
        <time>2019-05-02T01:07:01Z</time>
      </trkpt>
      <trkpt lat="46.39159" lon="5.67763">
        <ele>547</ele>
        <time>2019-05-02T01:08:01Z</time>
      </trkpt>
      <trkpt lat="46.39177" lon="5.67772">
        <ele>548</ele>
        <time>2019-05-02T01:09:01Z</time>
      </trkpt>
      <trkpt lat="46.39193" lon="5.67779">
        <ele>549</ele>
        <time>2019-05-02T01:10:01Z</time>
      </trkpt>
      <trkpt lat="46.3921" lon="5.67788">
        <ele>551</ele>
        <time>2019-05-02T01:11:01Z</time>
      </trkpt>
      <trkpt lat="46.39231" lon="5.67798">
        <ele>553</ele>
        <time>2019-05-02T01:12:01Z</time>
      </trkpt>
      <trkpt lat="46.39252" lon="5.67806">
        <ele>555</ele>
        <time>2019-05-02T01:13:01Z</time>
      </trkpt>
      <trkpt lat="46.39265" lon="5.6781">
        <ele>556</ele>
        <time>2019-05-02T01:14:01Z</time>
      </trkpt>
      <trkpt lat="46.39277" lon="5.67811">
        <ele>557</ele>
        <time>2019-05-02T01:15:01Z</time>
      </trkpt>
      <trkpt lat="46.39302" lon="5.6781">
        <ele>558</ele>
        <time>2019-05-02T01:16:01Z</time>
      </trkpt>
      <trkpt lat="46.39314" lon="5.67811">
        <ele>559</ele>
        <time>2019-05-02T01:17:01Z</time>
      </trkpt>
      <trkpt lat="46.39324" lon="5.67812">
        <ele>559</ele>
        <time>2019-05-02T01:18:01Z</time>
      </trkpt>
      <trkpt lat="46.39332" lon="5.67815">
        <ele>560</ele>
        <time>2019-05-02T01:19:01Z</time>
      </trkpt>
      <trkpt lat="46.3934" lon="5.67821">
        <ele>561</ele>
        <time>2019-05-02T01:20:01Z</time>
      </trkpt>
      <trkpt lat="46.39347" lon="5.67828">
        <ele>561</ele>
        <time>2019-05-02T01:21:01Z</time>
      </trkpt>
      <trkpt lat="46.39353" lon="5.67836">
        <ele>562</ele>
        <time>2019-05-02T01:22:01Z</time>
      </trkpt>
      <trkpt lat="46.3936" lon="5.67848">
        <ele>562</ele>
        <time>2019-05-02T01:23:01Z</time>
      </trkpt>
      <trkpt lat="46.39367" lon="5.67864">
        <ele>563</ele>
        <time>2019-05-02T01:24:01Z</time>
      </trkpt>
      <trkpt lat="46.39376" lon="5.67883">
        <ele>564</ele>
        <time>2019-05-02T01:25:01Z</time>
      </trkpt>
      <trkpt lat="46.39386" lon="5.67906">
        <ele>565</ele>
        <time>2019-05-02T01:26:01Z</time>
      </trkpt>
      <trkpt lat="46.39396" lon="5.67929">
        <ele>567</ele>
        <time>2019-05-02T01:27:01Z</time>
      </trkpt>
      <trkpt lat="46.39405" lon="5.67949">
        <ele>567</ele>
        <time>2019-05-02T01:28:01Z</time>
      </trkpt>
      <trkpt lat="46.3941" lon="5.67959">
        <ele>568</ele>
        <time>2019-05-02T01:29:01Z</time>
      </trkpt>
      <trkpt lat="46.39416" lon="5.67967">
        <ele>568</ele>
        <time>2019-05-02T01:30:01Z</time>
      </trkpt>
      <trkpt lat="46.39424" lon="5.67976">
        <ele>569</ele>
        <time>2019-05-02T01:31:01Z</time>
      </trkpt>
      <trkpt lat="46.39432" lon="5.67985">
        <ele>569</ele>
        <time>2019-05-02T01:32:01Z</time>
      </trkpt>
      <trkpt lat="46.39447" lon="5.68001">
        <ele>570</ele>
        <time>2019-05-02T01:33:01Z</time>
      </trkpt>
      <trkpt lat="46.39467" lon="5.68024">
        <ele>572</ele>
        <time>2019-05-02T01:34:01Z</time>
      </trkpt>
      <trkpt lat="46.39477" lon="5.68035">
        <ele>572</ele>
        <time>2019-05-02T01:35:01Z</time>
      </trkpt>
      <trkpt lat="46.39486" lon="5.68049">
        <ele>572</ele>
        <time>2019-05-02T01:36:01Z</time>
      </trkpt>
      <trkpt lat="46.39496" lon="5.68065">
        <ele>573</ele>
        <time>2019-05-02T01:37:01Z</time>
      </trkpt>
      <trkpt lat="46.39506" lon="5.68078">
        <ele>573</ele>
        <time>2019-05-02T01:38:01Z</time>
      </trkpt>
      <trkpt lat="46.39514" lon="5.68089">
        <ele>574</ele>
        <time>2019-05-02T01:39:01Z</time>
      </trkpt>
      <trkpt lat="46.39523" lon="5.68098">
        <ele>575</ele>
        <time>2019-05-02T01:40:01Z</time>
      </trkpt>
      <trkpt lat="46.39535" lon="5.68109">
        <ele>576</ele>
        <time>2019-05-02T01:41:01Z</time>
      </trkpt>
      <trkpt lat="46.39547" lon="5.6812">
        <ele>577</ele>
        <time>2019-05-02T01:42:01Z</time>
      </trkpt>
      <trkpt lat="46.39573" lon="5.68142">
        <ele>580</ele>
        <time>2019-05-02T01:43:01Z</time>
      </trkpt>
      <trkpt lat="46.39589" lon="5.68158">
        <ele>581</ele>
        <time>2019-05-02T01:44:01Z</time>
      </trkpt>
      <trkpt lat="46.39597" lon="5.68167">
        <ele>581</ele>
        <time>2019-05-02T01:45:01Z</time>
      </trkpt>
      <trkpt lat="46.39604" lon="5.68176">
        <ele>582</ele>
        <time>2019-05-02T01:46:01Z</time>
      </trkpt>
      <trkpt lat="46.39611" lon="5.68188">
        <ele>583</ele>
        <time>2019-05-02T01:47:01Z</time>
      </trkpt>
      <trkpt lat="46.39618" lon="5.68201">
        <ele>584</ele>
        <time>2019-05-02T01:48:01Z</time>
      </trkpt>
      <trkpt lat="46.39625" lon="5.68218">
        <ele>585</ele>
        <time>2019-05-02T01:49:01Z</time>
      </trkpt>
      <trkpt lat="46.39631" lon="5.68233">
        <ele>586</ele>
        <time>2019-05-02T01:50:01Z</time>
      </trkpt>
      <trkpt lat="46.39637" lon="5.68246">
        <ele>587</ele>
        <time>2019-05-02T01:51:01Z</time>
      </trkpt>
      <trkpt lat="46.39646" lon="5.68261">
        <ele>590</ele>
        <time>2019-05-02T01:52:01Z</time>
      </trkpt>
      <trkpt lat="46.39652" lon="5.68269">
        <ele>591</ele>
        <time>2019-05-02T01:53:01Z</time>
      </trkpt>
      <trkpt lat="46.39661" lon="5.68277">
        <ele>593</ele>
        <time>2019-05-02T01:54:01Z</time>
      </trkpt>
      <trkpt lat="46.39671" lon="5.68284">
        <ele>594</ele>
        <time>2019-05-02T01:55:01Z</time>
      </trkpt>
      <trkpt lat="46.397" lon="5.68293">
        <ele>596</ele>
        <time>2019-05-02T01:56:01Z</time>
      </trkpt>
      <trkpt lat="46.39716" lon="5.68298">
        <ele>597</ele>
        <time>2019-05-02T01:57:01Z</time>
      </trkpt>
      <trkpt lat="46.39733" lon="5.68303">
        <ele>598</ele>
        <time>2019-05-02T01:58:01Z</time>
      </trkpt>
      <trkpt lat="46.39748" lon="5.68307">
        <ele>599</ele>
        <time>2019-05-02T01:59:01Z</time>
      </trkpt>
      <trkpt lat="46.39765" lon="5.68312">
        <ele>600</ele>
        <time>2019-05-02T02:00:01Z</time>
      </trkpt>
      <trkpt lat="46.39779" lon="5.68314">
        <ele>600</ele>
        <time>2019-05-02T02:01:01Z</time>
      </trkpt>
      <trkpt lat="46.39802" lon="5.6832">
        <ele>601</ele>
        <time>2019-05-02T02:02:01Z</time>
      </trkpt>
      <trkpt lat="46.39827" lon="5.68326">
        <ele>602</ele>
        <time>2019-05-02T02:03:01Z</time>
      </trkpt>
      <trkpt lat="46.39841" lon="5.68329">
        <ele>603</ele>
        <time>2019-05-02T02:04:01Z</time>
      </trkpt>
      <trkpt lat="46.3986" lon="5.6833">
        <ele>604</ele>
        <time>2019-05-02T02:05:01Z</time>
      </trkpt>
      <trkpt lat="46.39877" lon="5.68332">
        <ele>604</ele>
        <time>2019-05-02T02:06:01Z</time>
      </trkpt>
      <trkpt lat="46.39896" lon="5.68335">
        <ele>606</ele>
        <time>2019-05-02T02:07:01Z</time>
      </trkpt>
      <trkpt lat="46.3991" lon="5.68336">
        <ele>606</ele>
        <time>2019-05-02T02:08:01Z</time>
      </trkpt>
      <trkpt lat="46.39923" lon="5.68338">
        <ele>607</ele>
        <time>2019-05-02T02:09:01Z</time>
      </trkpt>
      <trkpt lat="46.39935" lon="5.68342">
        <ele>608</ele>
        <time>2019-05-02T02:10:01Z</time>
      </trkpt>
      <trkpt lat="46.39947" lon="5.68349">
        <ele>609</ele>
        <time>2019-05-02T02:11:01Z</time>
      </trkpt>
      <trkpt lat="46.39962" lon="5.68357">
        <ele>610</ele>
        <time>2019-05-02T02:12:01Z</time>
      </trkpt>
      <trkpt lat="46.39975" lon="5.68364">
        <ele>612</ele>
        <time>2019-05-02T02:13:01Z</time>
      </trkpt>
      <trkpt lat="46.39986" lon="5.68369">
        <ele>613</ele>
        <time>2019-05-02T02:14:01Z</time>
      </trkpt>
      <trkpt lat="46.39999" lon="5.68377">
        <ele>614</ele>
        <time>2019-05-02T02:15:01Z</time>
      </trkpt>
      <trkpt lat="46.40011" lon="5.68387">
        <ele>615</ele>
        <time>2019-05-02T02:16:01Z</time>
      </trkpt>
      <trkpt lat="46.40023" lon="5.68395">
        <ele>615</ele>
        <time>2019-05-02T02:17:01Z</time>
      </trkpt>
      <trkpt lat="46.40036" lon="5.68403">
        <ele>616</ele>
        <time>2019-05-02T02:18:01Z</time>
      </trkpt>
      <trkpt lat="46.4005" lon="5.6841">
        <ele>615</ele>
        <time>2019-05-02T02:19:01Z</time>
      </trkpt>
      <trkpt lat="46.40061" lon="5.68418">
        <ele>616</ele>
        <time>2019-05-02T02:20:01Z</time>
      </trkpt>
      <trkpt lat="46.4007" lon="5.68428">
        <ele>616</ele>
        <time>2019-05-02T02:21:01Z</time>
      </trkpt>
      <trkpt lat="46.40077" lon="5.68438">
        <ele>617</ele>
        <time>2019-05-02T02:22:01Z</time>
      </trkpt>
      <trkpt lat="46.40085" lon="5.6845">
        <ele>618</ele>
        <time>2019-05-02T02:23:01Z</time>
      </trkpt>
      <trkpt lat="46.40095" lon="5.68463">
        <ele>620</ele>
        <time>2019-05-02T02:24:01Z</time>
      </trkpt>
      <trkpt lat="46.40105" lon="5.68474">
        <ele>621</ele>
        <time>2019-05-02T02:25:01Z</time>
      </trkpt>
      <trkpt lat="46.40114" lon="5.68484">
        <ele>623</ele>
        <time>2019-05-02T02:26:01Z</time>
      </trkpt>
      <trkpt lat="46.40129" lon="5.68495">
        <ele>624</ele>
        <time>2019-05-02T02:27:01Z</time>
      </trkpt>
      <trkpt lat="46.4014" lon="5.68505">
        <ele>625</ele>
        <time>2019-05-02T02:28:01Z</time>
      </trkpt>
      <trkpt lat="46.40146" lon="5.68514">
        <ele>626</ele>
        <time>2019-05-02T02:29:01Z</time>
      </trkpt>
      <trkpt lat="46.40149" lon="5.68522">
        <ele>626</ele>
        <time>2019-05-02T02:30:01Z</time>
      </trkpt>
      <trkpt lat="46.40153" lon="5.68538">
        <ele>628</ele>
        <time>2019-05-02T02:31:01Z</time>
      </trkpt>
      <trkpt lat="46.40157" lon="5.68555">
        <ele>630</ele>
        <time>2019-05-02T02:32:01Z</time>
      </trkpt>
      <trkpt lat="46.40159" lon="5.68565">
        <ele>631</ele>
        <time>2019-05-02T02:33:01Z</time>
      </trkpt>
      <trkpt lat="46.40166" lon="5.68582">
        <ele>632</ele>
        <time>2019-05-02T02:34:01Z</time>
      </trkpt>
      <trkpt lat="46.4017" lon="5.6859">
        <ele>633</ele>
        <time>2019-05-02T02:35:01Z</time>
      </trkpt>
      <trkpt lat="46.40174" lon="5.68595">
        <ele>633</ele>
        <time>2019-05-02T02:36:01Z</time>
      </trkpt>
      <trkpt lat="46.40183" lon="5.68606">
        <ele>634</ele>
        <time>2019-05-02T02:37:01Z</time>
      </trkpt>
      <trkpt lat="46.40192" lon="5.68611">
        <ele>634</ele>
        <time>2019-05-02T02:38:01Z</time>
      </trkpt>
      <trkpt lat="46.402" lon="5.68615">
        <ele>634</ele>
        <time>2019-05-02T02:39:01Z</time>
      </trkpt>
      <trkpt lat="46.40212" lon="5.68617">
        <ele>634</ele>
        <time>2019-05-02T02:40:01Z</time>
      </trkpt>
      <trkpt lat="46.4022" lon="5.68621">
        <ele>634</ele>
        <time>2019-05-02T02:41:01Z</time>
      </trkpt>
      <trkpt lat="46.40232" lon="5.68627">
        <ele>634</ele>
        <time>2019-05-02T02:42:01Z</time>
      </trkpt>
      <trkpt lat="46.4024" lon="5.68633">
        <ele>634</ele>
        <time>2019-05-02T02:43:01Z</time>
      </trkpt>
      <trkpt lat="46.40253" lon="5.68643">
        <ele>635</ele>
        <time>2019-05-02T02:44:01Z</time>
      </trkpt>
      <trkpt lat="46.40268" lon="5.68655">
        <ele>635</ele>
        <time>2019-05-02T02:45:01Z</time>
      </trkpt>
      <trkpt lat="46.40303" lon="5.68686">
        <ele>637</ele>
        <time>2019-05-02T02:46:01Z</time>
      </trkpt>
      <trkpt lat="46.40313" lon="5.68696">
        <ele>637</ele>
        <time>2019-05-02T02:47:01Z</time>
      </trkpt>
      <trkpt lat="46.40336" lon="5.68718">
        <ele>638</ele>
        <time>2019-05-02T02:48:01Z</time>
      </trkpt>
      <trkpt lat="46.40354" lon="5.68735">
        <ele>640</ele>
        <time>2019-05-02T02:49:01Z</time>
      </trkpt>
      <trkpt lat="46.40378" lon="5.68758">
        <ele>642</ele>
        <time>2019-05-02T02:50:01Z</time>
      </trkpt>
      <trkpt lat="46.40382" lon="5.68762">
        <ele>643</ele>
        <time>2019-05-02T02:51:01Z</time>
      </trkpt>
      <trkpt lat="46.404" lon="5.68786">
        <ele>646</ele>
        <time>2019-05-02T02:52:01Z</time>
      </trkpt>
      <trkpt lat="46.40408" lon="5.68795">
        <ele>647</ele>
        <time>2019-05-02T02:53:01Z</time>
      </trkpt>
      <trkpt lat="46.40417" lon="5.68803">
        <ele>648</ele>
        <time>2019-05-02T02:54:01Z</time>
      </trkpt>
      <trkpt lat="46.40426" lon="5.6881">
        <ele>649</ele>
        <time>2019-05-02T02:55:01Z</time>
      </trkpt>
      <trkpt lat="46.40437" lon="5.68816">
        <ele>649</ele>
        <time>2019-05-02T02:56:01Z</time>
      </trkpt>
      <trkpt lat="46.40445" lon="5.6882">
        <ele>649</ele>
        <time>2019-05-02T02:57:01Z</time>
      </trkpt>
      <trkpt lat="46.40457" lon="5.68824">
        <ele>649</ele>
        <time>2019-05-02T02:58:01Z</time>
      </trkpt>
      <trkpt lat="46.40468" lon="5.68826">
        <ele>649</ele>
        <time>2019-05-02T02:59:01Z</time>
      </trkpt>
      <trkpt lat="46.40486" lon="5.68829">
        <ele>648</ele>
        <time>2019-05-02T03:00:01Z</time>
      </trkpt>
      <trkpt lat="46.40506" lon="5.68833">
        <ele>648</ele>
        <time>2019-05-02T03:01:01Z</time>
      </trkpt>
      <trkpt lat="46.40524" lon="5.68837">
        <ele>648</ele>
        <time>2019-05-02T03:02:01Z</time>
      </trkpt>
      <trkpt lat="46.4054" lon="5.68843">
        <ele>648</ele>
        <time>2019-05-02T03:03:01Z</time>
      </trkpt>
      <trkpt lat="46.40553" lon="5.6885">
        <ele>649</ele>
        <time>2019-05-02T03:04:01Z</time>
      </trkpt>
      <trkpt lat="46.40564" lon="5.68859">
        <ele>650</ele>
        <time>2019-05-02T03:05:01Z</time>
      </trkpt>
      <trkpt lat="46.40573" lon="5.68876">
        <ele>652</ele>
        <time>2019-05-02T03:06:01Z</time>
      </trkpt>
      <trkpt lat="46.40582" lon="5.68894">
        <ele>654</ele>
        <time>2019-05-02T03:07:01Z</time>
      </trkpt>
      <trkpt lat="46.40593" lon="5.68914">
        <ele>656</ele>
        <time>2019-05-02T03:08:01Z</time>
      </trkpt>
      <trkpt lat="46.40604" lon="5.68935">
        <ele>659</ele>
        <time>2019-05-02T03:09:01Z</time>
      </trkpt>
      <trkpt lat="46.40613" lon="5.6895">
        <ele>661</ele>
        <time>2019-05-02T03:10:01Z</time>
      </trkpt>
      <trkpt lat="46.40621" lon="5.68964">
        <ele>663</ele>
        <time>2019-05-02T03:11:01Z</time>
      </trkpt>
      <trkpt lat="46.4063" lon="5.68978">
        <ele>665</ele>
        <time>2019-05-02T03:12:01Z</time>
      </trkpt>
      <trkpt lat="46.40638" lon="5.68988">
        <ele>666</ele>
        <time>2019-05-02T03:13:01Z</time>
      </trkpt>
      <trkpt lat="46.40646" lon="5.68994">
        <ele>666</ele>
        <time>2019-05-02T03:14:01Z</time>
      </trkpt>
      <trkpt lat="46.40657" lon="5.69001">
        <ele>666</ele>
        <time>2019-05-02T03:15:01Z</time>
      </trkpt>
      <trkpt lat="46.40672" lon="5.69004">
        <ele>665</ele>
        <time>2019-05-02T03:16:01Z</time>
      </trkpt>
      <trkpt lat="46.40683" lon="5.69003">
        <ele>664</ele>
        <time>2019-05-02T03:17:01Z</time>
      </trkpt>
      <trkpt lat="46.40697" lon="5.69002">
        <ele>664</ele>
        <time>2019-05-02T03:18:01Z</time>
      </trkpt>
      <trkpt lat="46.40704" lon="5.69003">
        <ele>664</ele>
        <time>2019-05-02T03:19:01Z</time>
      </trkpt>
      <trkpt lat="46.40711" lon="5.69004">
        <ele>664</ele>
        <time>2019-05-02T03:20:01Z</time>
      </trkpt>
      <trkpt lat="46.40724" lon="5.69008">
        <ele>664</ele>
        <time>2019-05-02T03:21:01Z</time>
      </trkpt>
      <trkpt lat="46.40738" lon="5.69014">
        <ele>665</ele>
        <time>2019-05-02T03:22:01Z</time>
      </trkpt>
      <trkpt lat="46.40751" lon="5.69019">
        <ele>665</ele>
        <time>2019-05-02T03:23:01Z</time>
      </trkpt>
      <trkpt lat="46.40759" lon="5.69021">
        <ele>666</ele>
        <time>2019-05-02T03:24:01Z</time>
      </trkpt>
      <trkpt lat="46.40767" lon="5.69022">
        <ele>666</ele>
        <time>2019-05-02T03:25:01Z</time>
      </trkpt>
      <trkpt lat="46.40778" lon="5.6902">
        <ele>667</ele>
        <time>2019-05-02T03:26:01Z</time>
      </trkpt>
      <trkpt lat="46.40792" lon="5.69016">
        <ele>666</ele>
        <time>2019-05-02T03:27:01Z</time>
      </trkpt>
      <trkpt lat="46.40804" lon="5.69013">
        <ele>666</ele>
        <time>2019-05-02T03:28:01Z</time>
      </trkpt>
      <trkpt lat="46.40818" lon="5.69013">
        <ele>667</ele>
        <time>2019-05-02T03:29:01Z</time>
      </trkpt>
      <trkpt lat="46.40828" lon="5.69017">
        <ele>668</ele>
        <time>2019-05-02T03:30:01Z</time>
      </trkpt>
      <trkpt lat="46.40834" lon="5.69021">
        <ele>669</ele>
        <time>2019-05-02T03:31:01Z</time>
      </trkpt>
      <trkpt lat="46.4084" lon="5.69028">
        <ele>669</ele>
        <time>2019-05-02T03:32:01Z</time>
      </trkpt>
      <trkpt lat="46.40851" lon="5.69044">
        <ele>670</ele>
        <time>2019-05-02T03:33:01Z</time>
      </trkpt>
      <trkpt lat="46.40863" lon="5.69061">
        <ele>671</ele>
        <time>2019-05-02T03:34:01Z</time>
      </trkpt>
      <trkpt lat="46.40873" lon="5.69076">
        <ele>672</ele>
        <time>2019-05-02T03:35:01Z</time>
      </trkpt>
      <trkpt lat="46.40876" lon="5.69083">
        <ele>672</ele>
        <time>2019-05-02T03:36:01Z</time>
      </trkpt>
      <trkpt lat="46.40879" lon="5.69089">
        <ele>672</ele>
        <time>2019-05-02T03:37:01Z</time>
      </trkpt>
      <trkpt lat="46.40881" lon="5.69096">
        <ele>673</ele>
        <time>2019-05-02T03:38:01Z</time>
      </trkpt>
      <trkpt lat="46.40883" lon="5.69102">
        <ele>673</ele>
        <time>2019-05-02T03:39:01Z</time>
      </trkpt>
      <trkpt lat="46.40884" lon="5.69118">
        <ele>674</ele>
        <time>2019-05-02T03:40:01Z</time>
      </trkpt>
      <trkpt lat="46.40885" lon="5.69153">
        <ele>678</ele>
        <time>2019-05-02T03:41:01Z</time>
      </trkpt>
      <trkpt lat="46.40887" lon="5.69176">
        <ele>679</ele>
        <time>2019-05-02T03:42:01Z</time>
      </trkpt>
      <trkpt lat="46.40887" lon="5.69189">
        <ele>680</ele>
        <time>2019-05-02T03:43:01Z</time>
      </trkpt>
      <trkpt lat="46.40887" lon="5.69206">
        <ele>681</ele>
        <time>2019-05-02T03:44:01Z</time>
      </trkpt>
      <trkpt lat="46.40885" lon="5.6922">
        <ele>682</ele>
        <time>2019-05-02T03:45:01Z</time>
      </trkpt>
      <trkpt lat="46.40881" lon="5.69238">
        <ele>683</ele>
        <time>2019-05-02T03:46:01Z</time>
      </trkpt>
      <trkpt lat="46.40875" lon="5.69263">
        <ele>685</ele>
        <time>2019-05-02T03:47:01Z</time>
      </trkpt>
      <trkpt lat="46.40869" lon="5.69295">
        <ele>687</ele>
        <time>2019-05-02T03:48:01Z</time>
      </trkpt>
      <trkpt lat="46.40864" lon="5.6933">
        <ele>689</ele>
        <time>2019-05-02T03:49:01Z</time>
      </trkpt>
      <trkpt lat="46.40863" lon="5.69362">
        <ele>691</ele>
        <time>2019-05-02T03:50:01Z</time>
      </trkpt>
      <trkpt lat="46.40866" lon="5.69378">
        <ele>691</ele>
        <time>2019-05-02T03:51:01Z</time>
      </trkpt>
      <trkpt lat="46.40869" lon="5.69385">
        <ele>691</ele>
        <time>2019-05-02T03:52:01Z</time>
      </trkpt>
      <trkpt lat="46.40876" lon="5.69397">
        <ele>691</ele>
        <time>2019-05-02T03:53:01Z</time>
      </trkpt>
      <trkpt lat="46.40886" lon="5.6941">
        <ele>690</ele>
        <time>2019-05-02T03:54:01Z</time>
      </trkpt>
      <trkpt lat="46.40897" lon="5.69421">
        <ele>690</ele>
        <time>2019-05-02T03:55:01Z</time>
      </trkpt>
      <trkpt lat="46.40903" lon="5.69432">
        <ele>690</ele>
        <time>2019-05-02T03:56:01Z</time>
      </trkpt>
      <trkpt lat="46.40907" lon="5.69451">
        <ele>691</ele>
        <time>2019-05-02T03:57:01Z</time>
      </trkpt>
      <trkpt lat="46.40908" lon="5.69465">
        <ele>692</ele>
        <time>2019-05-02T03:58:01Z</time>
      </trkpt>
      <trkpt lat="46.40907" lon="5.69497">
        <ele>695</ele>
        <time>2019-05-02T03:59:01Z</time>
      </trkpt>
      <trkpt lat="46.40907" lon="5.69529">
        <ele>697</ele>
        <time>2019-05-02T04:00:01Z</time>
      </trkpt>
      <trkpt lat="46.40907" lon="5.6954">
        <ele>697</ele>
        <time>2019-05-02T04:01:01Z</time>
      </trkpt>
      <trkpt lat="46.40909" lon="5.69556">
        <ele>698</ele>
        <time>2019-05-02T04:02:01Z</time>
      </trkpt>
      <trkpt lat="46.40915" lon="5.69572">
        <ele>698</ele>
        <time>2019-05-02T04:03:01Z</time>
      </trkpt>
      <trkpt lat="46.40925" lon="5.6959">
        <ele>698</ele>
        <time>2019-05-02T04:04:01Z</time>
      </trkpt>
      <trkpt lat="46.40929" lon="5.696">
        <ele>698</ele>
        <time>2019-05-02T04:05:01Z</time>
      </trkpt>
      <trkpt lat="46.40931" lon="5.69615">
        <ele>699</ele>
        <time>2019-05-02T04:06:01Z</time>
      </trkpt>
      <trkpt lat="46.40935" lon="5.69636">
        <ele>700</ele>
        <time>2019-05-02T04:07:01Z</time>
      </trkpt>
      <trkpt lat="46.40938" lon="5.69649">
        <ele>701</ele>
        <time>2019-05-02T04:08:01Z</time>
      </trkpt>
      <trkpt lat="46.40943" lon="5.69665">
        <ele>702</ele>
        <time>2019-05-02T04:09:01Z</time>
      </trkpt>
      <trkpt lat="46.40948" lon="5.69674">
        <ele>702</ele>
        <time>2019-05-02T04:10:01Z</time>
      </trkpt>
      <trkpt lat="46.40956" lon="5.69683">
        <ele>703</ele>
        <time>2019-05-02T04:11:01Z</time>
      </trkpt>
      <trkpt lat="46.40967" lon="5.69692">
        <ele>703</ele>
        <time>2019-05-02T04:12:01Z</time>
      </trkpt>
      <trkpt lat="46.40976" lon="5.69702">
        <ele>703</ele>
        <time>2019-05-02T04:13:01Z</time>
      </trkpt>
      <trkpt lat="46.40985" lon="5.69718">
        <ele>704</ele>
        <time>2019-05-02T04:14:01Z</time>
      </trkpt>
      <trkpt lat="46.40995" lon="5.69739">
        <ele>706</ele>
        <time>2019-05-02T04:15:01Z</time>
      </trkpt>
      <trkpt lat="46.41001" lon="5.69755">
        <ele>708</ele>
        <time>2019-05-02T04:16:01Z</time>
      </trkpt>
      <trkpt lat="46.41009" lon="5.69775">
        <ele>711</ele>
        <time>2019-05-02T04:17:01Z</time>
      </trkpt>
      <trkpt lat="46.41023" lon="5.69808">
        <ele>716</ele>
        <time>2019-05-02T04:18:01Z</time>
      </trkpt>
      <trkpt lat="46.41033" lon="5.69831">
        <ele>718</ele>
        <time>2019-05-02T04:19:01Z</time>
      </trkpt>
      <trkpt lat="46.41042" lon="5.69845">
        <ele>718</ele>
        <time>2019-05-02T04:20:01Z</time>
      </trkpt>
      <trkpt lat="46.41052" lon="5.69857">
        <ele>719</ele>
        <time>2019-05-02T04:21:01Z</time>
      </trkpt>
      <trkpt lat="46.41073" lon="5.6987">
        <ele>718</ele>
        <time>2019-05-02T04:22:01Z</time>
      </trkpt>
      <trkpt lat="46.41084" lon="5.69872">
        <ele>717</ele>
        <time>2019-05-02T04:23:01Z</time>
      </trkpt>
      <trkpt lat="46.41095" lon="5.69873">
        <ele>715</ele>
        <time>2019-05-02T04:24:01Z</time>
      </trkpt>
      <trkpt lat="46.41112" lon="5.69876">
        <ele>714</ele>
        <time>2019-05-02T04:25:01Z</time>
      </trkpt>
      <trkpt lat="46.4112" lon="5.69882">
        <ele>713</ele>
        <time>2019-05-02T04:26:01Z</time>
      </trkpt>
      <trkpt lat="46.41126" lon="5.69891">
        <ele>713</ele>
        <time>2019-05-02T04:27:01Z</time>
      </trkpt>
      <trkpt lat="46.41133" lon="5.69919">
        <ele>714</ele>
        <time>2019-05-02T04:28:01Z</time>
      </trkpt>
      <trkpt lat="46.41134" lon="5.69933">
        <ele>715</ele>
        <time>2019-05-02T04:29:01Z</time>
      </trkpt>
      <trkpt lat="46.41134" lon="5.69951">
        <ele>717</ele>
        <time>2019-05-02T04:30:01Z</time>
      </trkpt>
      <trkpt lat="46.41134" lon="5.69979">
        <ele>719</ele>
        <time>2019-05-02T04:31:01Z</time>
      </trkpt>
      <trkpt lat="46.41134" lon="5.69999">
        <ele>721</ele>
        <time>2019-05-02T04:32:01Z</time>
      </trkpt>
      <trkpt lat="46.41136" lon="5.70017">
        <ele>721</ele>
        <time>2019-05-02T04:33:01Z</time>
      </trkpt>
      <trkpt lat="46.41139" lon="5.70042">
        <ele>721</ele>
        <time>2019-05-02T04:34:01Z</time>
      </trkpt>
      <trkpt lat="46.41142" lon="5.7006">
        <ele>720</ele>
        <time>2019-05-02T04:35:01Z</time>
      </trkpt>
      <trkpt lat="46.41148" lon="5.70095">
        <ele>720</ele>
        <time>2019-05-02T04:36:01Z</time>
      </trkpt>
      <trkpt lat="46.41152" lon="5.70117">
        <ele>720</ele>
        <time>2019-05-02T04:37:01Z</time>
      </trkpt>
      <trkpt lat="46.41154" lon="5.7014">
        <ele>720</ele>
        <time>2019-05-02T04:38:01Z</time>
      </trkpt>
      <trkpt lat="46.41155" lon="5.70174">
        <ele>720</ele>
        <time>2019-05-02T04:39:01Z</time>
      </trkpt>
      <trkpt lat="46.41155" lon="5.70195">
        <ele>720</ele>
        <time>2019-05-02T04:40:01Z</time>
      </trkpt>
      <trkpt lat="46.41154" lon="5.70213">
        <ele>720</ele>
        <time>2019-05-02T04:41:01Z</time>
      </trkpt>
      <trkpt lat="46.41156" lon="5.70237">
        <ele>720</ele>
        <time>2019-05-02T04:42:01Z</time>
      </trkpt>
      <trkpt lat="46.41159" lon="5.70245">
        <ele>719</ele>
        <time>2019-05-02T04:43:01Z</time>
      </trkpt>
      <trkpt lat="46.41162" lon="5.70254">
        <ele>718</ele>
        <time>2019-05-02T04:44:01Z</time>
      </trkpt>
      <trkpt lat="46.41171" lon="5.70264">
        <ele>718</ele>
        <time>2019-05-02T04:45:01Z</time>
      </trkpt>
      <trkpt lat="46.4118" lon="5.70276">
        <ele>719</ele>
        <time>2019-05-02T04:46:01Z</time>
      </trkpt>
      <trkpt lat="46.41186" lon="5.70287">
        <ele>720</ele>
        <time>2019-05-02T04:47:01Z</time>
      </trkpt>
      <trkpt lat="46.41188" lon="5.70298">
        <ele>720</ele>
        <time>2019-05-02T04:48:01Z</time>
      </trkpt>
      <trkpt lat="46.41191" lon="5.7031">
        <ele>721</ele>
        <time>2019-05-02T04:49:01Z</time>
      </trkpt>
      <trkpt lat="46.41193" lon="5.7032">
        <ele>721</ele>
        <time>2019-05-02T04:50:01Z</time>
      </trkpt>
      <trkpt lat="46.41197" lon="5.70344">
        <ele>721</ele>
        <time>2019-05-02T04:51:01Z</time>
      </trkpt>
      <trkpt lat="46.41201" lon="5.70363">
        <ele>721</ele>
        <time>2019-05-02T04:52:01Z</time>
      </trkpt>
      <trkpt lat="46.41203" lon="5.70373">
        <ele>721</ele>
        <time>2019-05-02T04:53:01Z</time>
      </trkpt>
      <trkpt lat="46.41211" lon="5.70405">
        <ele>722</ele>
        <time>2019-05-02T04:54:01Z</time>
      </trkpt>
      <trkpt lat="46.41222" lon="5.70449">
        <ele>722</ele>
        <time>2019-05-02T04:55:01Z</time>
      </trkpt>
      <trkpt lat="46.41224" lon="5.70458">
        <ele>722</ele>
        <time>2019-05-02T04:56:01Z</time>
      </trkpt>
      <trkpt lat="46.41226" lon="5.70474">
        <ele>722</ele>
        <time>2019-05-02T04:57:01Z</time>
      </trkpt>
      <trkpt lat="46.41227" lon="5.70497">
        <ele>722</ele>
        <time>2019-05-02T04:58:01Z</time>
      </trkpt>
      <trkpt lat="46.41227" lon="5.70516">
        <ele>722</ele>
        <time>2019-05-02T04:59:01Z</time>
      </trkpt>
      <trkpt lat="46.41227" lon="5.70532">
        <ele>722</ele>
        <time>2019-05-02T05:00:01Z</time>
      </trkpt>
      <trkpt lat="46.41227" lon="5.70546">
        <ele>722</ele>
        <time>2019-05-02T05:01:01Z</time>
      </trkpt>
      <trkpt lat="46.41226" lon="5.70569">
        <ele>722</ele>
        <time>2019-05-02T05:02:01Z</time>
      </trkpt>
      <trkpt lat="46.41226" lon="5.70585">
        <ele>722</ele>
        <time>2019-05-02T05:03:01Z</time>
      </trkpt>
      <trkpt lat="46.41225" lon="5.70604">
        <ele>722</ele>
        <time>2019-05-02T05:04:01Z</time>
      </trkpt>
      <trkpt lat="46.41224" lon="5.7063">
        <ele>722</ele>
        <time>2019-05-02T05:05:01Z</time>
      </trkpt>
      <trkpt lat="46.41222" lon="5.7065">
        <ele>723</ele>
        <time>2019-05-02T05:06:01Z</time>
      </trkpt>
      <trkpt lat="46.4122" lon="5.70669">
        <ele>723</ele>
        <time>2019-05-02T05:07:01Z</time>
      </trkpt>
      <trkpt lat="46.41216" lon="5.70693">
        <ele>723</ele>
        <time>2019-05-02T05:08:01Z</time>
      </trkpt>
      <trkpt lat="46.41211" lon="5.70713">
        <ele>723</ele>
        <time>2019-05-02T05:09:01Z</time>
      </trkpt>
      <trkpt lat="46.41204" lon="5.70731">
        <ele>723</ele>
        <time>2019-05-02T05:10:01Z</time>
      </trkpt>
      <trkpt lat="46.41195" lon="5.70751">
        <ele>724</ele>
        <time>2019-05-02T05:11:01Z</time>
      </trkpt>
      <trkpt lat="46.41186" lon="5.7077">
        <ele>724</ele>
        <time>2019-05-02T05:12:01Z</time>
      </trkpt>
      <trkpt lat="46.41168" lon="5.70811">
        <ele>726</ele>
        <time>2019-05-02T05:13:01Z</time>
      </trkpt>
      <trkpt lat="46.41163" lon="5.70828">
        <ele>725</ele>
        <time>2019-05-02T05:14:01Z</time>
      </trkpt>
      <trkpt lat="46.4116" lon="5.70839">
        <ele>725</ele>
        <time>2019-05-02T05:15:01Z</time>
      </trkpt>
      <trkpt lat="46.41157" lon="5.70853">
        <ele>725</ele>
        <time>2019-05-02T05:16:01Z</time>
      </trkpt>
      <trkpt lat="46.41155" lon="5.7087">
        <ele>725</ele>
        <time>2019-05-02T05:17:01Z</time>
      </trkpt>
      <trkpt lat="46.41153" lon="5.70884">
        <ele>725</ele>
        <time>2019-05-02T05:18:01Z</time>
      </trkpt>
      <trkpt lat="46.41148" lon="5.70899">
        <ele>725</ele>
        <time>2019-05-02T05:19:01Z</time>
      </trkpt>
      <trkpt lat="46.41144" lon="5.70908">
        <ele>725</ele>
        <time>2019-05-02T05:20:01Z</time>
      </trkpt>
      <trkpt lat="46.41135" lon="5.70925">
        <ele>726</ele>
        <time>2019-05-02T05:21:01Z</time>
      </trkpt>
      <trkpt lat="46.41127" lon="5.70939">
        <ele>726</ele>
        <time>2019-05-02T05:22:01Z</time>
      </trkpt>
      <trkpt lat="46.41122" lon="5.70952">
        <ele>726</ele>
        <time>2019-05-02T05:23:01Z</time>
      </trkpt>
      <trkpt lat="46.41116" lon="5.70967">
        <ele>727</ele>
        <time>2019-05-02T05:24:01Z</time>
      </trkpt>
      <trkpt lat="46.41109" lon="5.70988">
        <ele>727</ele>
        <time>2019-05-02T05:25:01Z</time>
      </trkpt>
      <trkpt lat="46.41102" lon="5.71008">
        <ele>727</ele>
        <time>2019-05-02T05:26:01Z</time>
      </trkpt>
      <trkpt lat="46.41094" lon="5.71029">
        <ele>726</ele>
        <time>2019-05-02T05:27:01Z</time>
      </trkpt>
      <trkpt lat="46.41081" lon="5.71067">
        <ele>725</ele>
        <time>2019-05-02T05:28:01Z</time>
      </trkpt>
      <trkpt lat="46.41076" lon="5.71081">
        <ele>725</ele>
        <time>2019-05-02T05:29:01Z</time>
      </trkpt>
      <trkpt lat="46.41074" lon="5.71092">
        <ele>724</ele>
        <time>2019-05-02T05:30:01Z</time>
      </trkpt>
      <trkpt lat="46.41071" lon="5.71103">
        <ele>723</ele>
        <time>2019-05-02T05:31:01Z</time>
      </trkpt>
      <trkpt lat="46.41069" lon="5.71113">
        <ele>722</ele>
        <time>2019-05-02T05:32:01Z</time>
      </trkpt>
      <trkpt lat="46.41066" lon="5.71124">
        <ele>721</ele>
        <time>2019-05-02T05:33:01Z</time>
      </trkpt>
      <trkpt lat="46.4106" lon="5.7114">
        <ele>720</ele>
        <time>2019-05-02T05:34:01Z</time>
      </trkpt>
      <trkpt lat="46.41053" lon="5.71154">
        <ele>718</ele>
        <time>2019-05-02T05:35:01Z</time>
      </trkpt>
      <trkpt lat="46.41046" lon="5.71167">
        <ele>718</ele>
        <time>2019-05-02T05:36:01Z</time>
      </trkpt>
      <trkpt lat="46.41039" lon="5.71178">
        <ele>716</ele>
        <time>2019-05-02T05:37:01Z</time>
      </trkpt>
      <trkpt lat="46.41022" lon="5.71204">
        <ele>712</ele>
        <time>2019-05-02T05:38:01Z</time>
      </trkpt>
      <trkpt lat="46.41012" lon="5.71217">
        <ele>711</ele>
        <time>2019-05-02T05:39:01Z</time>
      </trkpt>
      <trkpt lat="46.41002" lon="5.71227">
        <ele>709</ele>
        <time>2019-05-02T05:40:01Z</time>
      </trkpt>
      <trkpt lat="46.40986" lon="5.71238">
        <ele>708</ele>
        <time>2019-05-02T05:41:01Z</time>
      </trkpt>
      <trkpt lat="46.40974" lon="5.71247">
        <ele>706</ele>
        <time>2019-05-02T05:42:01Z</time>
      </trkpt>
      <trkpt lat="46.40957" lon="5.71258">
        <ele>705</ele>
        <time>2019-05-02T05:43:01Z</time>
      </trkpt>
      <trkpt lat="46.40948" lon="5.71263">
        <ele>704</ele>
        <time>2019-05-02T05:44:01Z</time>
      </trkpt>
      <trkpt lat="46.40938" lon="5.71265">
        <ele>704</ele>
        <time>2019-05-02T05:45:01Z</time>
      </trkpt>
      <trkpt lat="46.40928" lon="5.71264">
        <ele>705</ele>
        <time>2019-05-02T05:46:01Z</time>
      </trkpt>
      <trkpt lat="46.4092" lon="5.71262">
        <ele>705</ele>
        <time>2019-05-02T05:47:01Z</time>
      </trkpt>
      <trkpt lat="46.40909" lon="5.71257">
        <ele>706</ele>
        <time>2019-05-02T05:48:01Z</time>
      </trkpt>
      <trkpt lat="46.40897" lon="5.71252">
        <ele>707</ele>
        <time>2019-05-02T05:49:01Z</time>
      </trkpt>
      <trkpt lat="46.40894" lon="5.71251">
        <ele>707</ele>
        <time>2019-05-02T05:50:01Z</time>
      </trkpt>
      <trkpt lat="46.40888" lon="5.71248">
        <ele>707</ele>
        <time>2019-05-02T05:51:01Z</time>
      </trkpt>
      <trkpt lat="46.40886" lon="5.71248">
        <ele>707</ele>
        <time>2019-05-02T05:52:01Z</time>
      </trkpt>
      <trkpt lat="46.40876" lon="5.71255">
        <ele>706</ele>
        <time>2019-05-02T05:53:01Z</time>
      </trkpt>
      <trkpt lat="46.4087" lon="5.71263">
        <ele>706</ele>
        <time>2019-05-02T05:54:01Z</time>
      </trkpt>
      <trkpt lat="46.40868" lon="5.71271">
        <ele>705</ele>
        <time>2019-05-02T05:55:01Z</time>
      </trkpt>
      <trkpt lat="46.40868" lon="5.71275">
        <ele>705</ele>
        <time>2019-05-02T05:56:01Z</time>
      </trkpt>
      <trkpt lat="46.40868" lon="5.71275">
        <ele>705</ele>
        <time>2019-05-02T05:57:01Z</time>
      </trkpt>
      <trkpt lat="46.40863" lon="5.71274">
        <ele>705</ele>
        <time>2019-05-02T05:58:01Z</time>
      </trkpt>
      <trkpt lat="46.40856" lon="5.71272">
        <ele>705</ele>
        <time>2019-05-02T05:59:01Z</time>
      </trkpt>
      <trkpt lat="46.40849" lon="5.7127">
        <ele>705</ele>
        <time>2019-05-02T06:00:01Z</time>
      </trkpt>
      <trkpt lat="46.4084" lon="5.71267">
        <ele>706</ele>
        <time>2019-05-02T06:01:01Z</time>
      </trkpt>
      <trkpt lat="46.40828" lon="5.71265">
        <ele>706</ele>
        <time>2019-05-02T06:02:01Z</time>
      </trkpt>
      <trkpt lat="46.40816" lon="5.71266">
        <ele>706</ele>
        <time>2019-05-02T06:03:01Z</time>
      </trkpt>
      <trkpt lat="46.40805" lon="5.71268">
        <ele>706</ele>
        <time>2019-05-02T06:04:01Z</time>
      </trkpt>
      <trkpt lat="46.40794" lon="5.71273">
        <ele>706</ele>
        <time>2019-05-02T06:05:01Z</time>
      </trkpt>
      <trkpt lat="46.40788" lon="5.71277">
        <ele>706</ele>
        <time>2019-05-02T06:06:01Z</time>
      </trkpt>
      <trkpt lat="46.40786" lon="5.71277">
        <ele>706</ele>
        <time>2019-05-02T06:07:01Z</time>
      </trkpt>
      <trkpt lat="46.40785" lon="5.71278">
        <ele>706</ele>
        <time>2019-05-02T06:08:01Z</time>
      </trkpt>
      <trkpt lat="46.40773" lon="5.71286">
        <ele>706</ele>
        <time>2019-05-02T06:09:01Z</time>
      </trkpt>
      <trkpt lat="46.40761" lon="5.71291">
        <ele>707</ele>
        <time>2019-05-02T06:10:01Z</time>
      </trkpt>
      <trkpt lat="46.40748" lon="5.71295">
        <ele>707</ele>
        <time>2019-05-02T06:11:01Z</time>
      </trkpt>
      <trkpt lat="46.40734" lon="5.71296">
        <ele>706</ele>
        <time>2019-05-02T06:12:01Z</time>
      </trkpt>
      <trkpt lat="46.40716" lon="5.71296">
        <ele>706</ele>
        <time>2019-05-02T06:13:01Z</time>
      </trkpt>
      <trkpt lat="46.40701" lon="5.71297">
        <ele>705</ele>
        <time>2019-05-02T06:14:01Z</time>
      </trkpt>
      <trkpt lat="46.40689" lon="5.71296">
        <ele>705</ele>
        <time>2019-05-02T06:15:01Z</time>
      </trkpt>
      <trkpt lat="46.40678" lon="5.71292">
        <ele>704</ele>
        <time>2019-05-02T06:16:01Z</time>
      </trkpt>
      <trkpt lat="46.40667" lon="5.71286">
        <ele>704</ele>
        <time>2019-05-02T06:17:01Z</time>
      </trkpt>
      <trkpt lat="46.40656" lon="5.71278">
        <ele>704</ele>
        <time>2019-05-02T06:18:01Z</time>
      </trkpt>
      <trkpt lat="46.40643" lon="5.71268">
        <ele>704</ele>
        <time>2019-05-02T06:19:01Z</time>
      </trkpt>
      <trkpt lat="46.40641" lon="5.71266">
        <ele>704</ele>
        <time>2019-05-02T06:20:01Z</time>
      </trkpt>
      <trkpt lat="46.40628" lon="5.71255">
        <ele>704</ele>
        <time>2019-05-02T06:21:01Z</time>
      </trkpt>
      <trkpt lat="46.40614" lon="5.71241">
        <ele>704</ele>
        <time>2019-05-02T06:22:01Z</time>
      </trkpt>
      <trkpt lat="46.406" lon="5.71224">
        <ele>703</ele>
        <time>2019-05-02T06:23:01Z</time>
      </trkpt>
      <trkpt lat="46.40587" lon="5.71208">
        <ele>702</ele>
        <time>2019-05-02T06:24:01Z</time>
      </trkpt>
      <trkpt lat="46.40574" lon="5.71193">
        <ele>701</ele>
        <time>2019-05-02T06:25:01Z</time>
      </trkpt>
      <trkpt lat="46.40559" lon="5.71177">
        <ele>701</ele>
        <time>2019-05-02T06:26:01Z</time>
      </trkpt>
      <trkpt lat="46.40546" lon="5.71164">
        <ele>701</ele>
        <time>2019-05-02T06:27:01Z</time>
      </trkpt>
      <trkpt lat="46.40531" lon="5.71149">
        <ele>701</ele>
        <time>2019-05-02T06:28:01Z</time>
      </trkpt>
      <trkpt lat="46.40512" lon="5.7113">
        <ele>702</ele>
        <time>2019-05-02T06:29:01Z</time>
      </trkpt>
      <trkpt lat="46.40494" lon="5.71113">
        <ele>703</ele>
        <time>2019-05-02T06:30:01Z</time>
      </trkpt>
      <trkpt lat="46.40476" lon="5.71095">
        <ele>705</ele>
        <time>2019-05-02T06:31:01Z</time>
      </trkpt>
      <trkpt lat="46.40459" lon="5.71078">
        <ele>707</ele>
        <time>2019-05-02T06:32:01Z</time>
      </trkpt>
      <trkpt lat="46.40443" lon="5.71062">
        <ele>708</ele>
        <time>2019-05-02T06:33:01Z</time>
      </trkpt>
      <trkpt lat="46.40431" lon="5.71048">
        <ele>707</ele>
        <time>2019-05-02T06:34:01Z</time>
      </trkpt>
      <trkpt lat="46.40423" lon="5.71039">
        <ele>706</ele>
        <time>2019-05-02T06:35:01Z</time>
      </trkpt>
      <trkpt lat="46.40419" lon="5.71034">
        <ele>706</ele>
        <time>2019-05-02T06:36:01Z</time>
      </trkpt>
      <trkpt lat="46.40409" lon="5.71025">
        <ele>705</ele>
        <time>2019-05-02T06:37:01Z</time>
      </trkpt>
      <trkpt lat="46.4039" lon="5.71011">
        <ele>704</ele>
        <time>2019-05-02T06:38:01Z</time>
      </trkpt>
      <trkpt lat="46.40372" lon="5.70999">
        <ele>703</ele>
        <time>2019-05-02T06:39:01Z</time>
      </trkpt>
      <trkpt lat="46.4036" lon="5.70991">
        <ele>702</ele>
        <time>2019-05-02T06:40:01Z</time>
      </trkpt>
      <trkpt lat="46.40352" lon="5.70988">
        <ele>702</ele>
        <time>2019-05-02T06:41:01Z</time>
      </trkpt>
      <trkpt lat="46.40336" lon="5.70979">
        <ele>700</ele>
        <time>2019-05-02T06:42:01Z</time>
      </trkpt>
      <trkpt lat="46.40318" lon="5.70967">
        <ele>700</ele>
        <time>2019-05-02T06:43:01Z</time>
      </trkpt>
      <trkpt lat="46.403" lon="5.70956">
        <ele>699</ele>
        <time>2019-05-02T06:44:01Z</time>
      </trkpt>
      <trkpt lat="46.40284" lon="5.70944">
        <ele>698</ele>
        <time>2019-05-02T06:45:01Z</time>
      </trkpt>
      <trkpt lat="46.40265" lon="5.70926">
        <ele>696</ele>
        <time>2019-05-02T06:46:01Z</time>
      </trkpt>
      <trkpt lat="46.40247" lon="5.70908">
        <ele>695</ele>
        <time>2019-05-02T06:47:01Z</time>
      </trkpt>
      <trkpt lat="46.40228" lon="5.70888">
        <ele>694</ele>
        <time>2019-05-02T06:48:01Z</time>
      </trkpt>
      <trkpt lat="46.4022" lon="5.70877">
        <ele>693</ele>
        <time>2019-05-02T06:49:01Z</time>
      </trkpt>
      <trkpt lat="46.4021" lon="5.70858">
        <ele>690</ele>
        <time>2019-05-02T06:50:01Z</time>
      </trkpt>
      <trkpt lat="46.40187" lon="5.70811">
        <ele>684</ele>
        <time>2019-05-02T06:51:01Z</time>
      </trkpt>
      <trkpt lat="46.40173" lon="5.70784">
        <ele>682</ele>
        <time>2019-05-02T06:52:01Z</time>
      </trkpt>
      <trkpt lat="46.40158" lon="5.70762">
        <ele>680</ele>
        <time>2019-05-02T06:53:01Z</time>
      </trkpt>
      <trkpt lat="46.40136" lon="5.7074">
        <ele>680</ele>
        <time>2019-05-02T06:54:01Z</time>
      </trkpt>
      <trkpt lat="46.40113" lon="5.7072">
        <ele>680</ele>
        <time>2019-05-02T06:55:01Z</time>
      </trkpt>
      <trkpt lat="46.4009" lon="5.70701">
        <ele>680</ele>
        <time>2019-05-02T06:56:01Z</time>
      </trkpt>
      <trkpt lat="46.4007" lon="5.70689">
        <ele>680</ele>
        <time>2019-05-02T06:57:01Z</time>
      </trkpt>
      <trkpt lat="46.4005" lon="5.70678">
        <ele>680</ele>
        <time>2019-05-02T06:58:01Z</time>
      </trkpt>
      <trkpt lat="46.40032" lon="5.70669">
        <ele>680</ele>
        <time>2019-05-02T06:59:01Z</time>
      </trkpt>
      <trkpt lat="46.40013" lon="5.70659">
        <ele>681</ele>
        <time>2019-05-02T07:00:01Z</time>
      </trkpt>
      <trkpt lat="46.39987" lon="5.70645">
        <ele>681</ele>
        <time>2019-05-02T07:01:01Z</time>
      </trkpt>
      <trkpt lat="46.39958" lon="5.7063">
        <ele>680</ele>
        <time>2019-05-02T07:02:01Z</time>
      </trkpt>
      <trkpt lat="46.39932" lon="5.70618">
        <ele>680</ele>
        <time>2019-05-02T07:03:01Z</time>
      </trkpt>
      <trkpt lat="46.39907" lon="5.70605">
        <ele>680</ele>
        <time>2019-05-02T07:04:01Z</time>
      </trkpt>
      <trkpt lat="46.39888" lon="5.70598">
        <ele>680</ele>
        <time>2019-05-02T07:05:01Z</time>
      </trkpt>
      <trkpt lat="46.39872" lon="5.70596">
        <ele>680</ele>
        <time>2019-05-02T07:06:01Z</time>
      </trkpt>
      <trkpt lat="46.3983" lon="5.70597">
        <ele>679</ele>
        <time>2019-05-02T07:07:01Z</time>
      </trkpt>
      <trkpt lat="46.3981" lon="5.70598">
        <ele>679</ele>
        <time>2019-05-02T07:08:01Z</time>
      </trkpt>
      <trkpt lat="46.39793" lon="5.70602">
        <ele>679</ele>
        <time>2019-05-02T07:09:01Z</time>
      </trkpt>
      <trkpt lat="46.3977" lon="5.70611">
        <ele>679</ele>
        <time>2019-05-02T07:10:01Z</time>
      </trkpt>
      <trkpt lat="46.39756" lon="5.70614">
        <ele>679</ele>
        <time>2019-05-02T07:11:01Z</time>
      </trkpt>
      <trkpt lat="46.39742" lon="5.70612">
        <ele>679</ele>
        <time>2019-05-02T07:12:01Z</time>
      </trkpt>
      <trkpt lat="46.39732" lon="5.70607">
        <ele>679</ele>
        <time>2019-05-02T07:13:01Z</time>
      </trkpt>
      <trkpt lat="46.39715" lon="5.70595">
        <ele>679</ele>
        <time>2019-05-02T07:14:01Z</time>
      </trkpt>
      <trkpt lat="46.39696" lon="5.70582">
        <ele>678</ele>
        <time>2019-05-02T07:15:01Z</time>
      </trkpt>
      <trkpt lat="46.39675" lon="5.70571">
        <ele>678</ele>
        <time>2019-05-02T07:16:01Z</time>
      </trkpt>
      <trkpt lat="46.39653" lon="5.70559">
        <ele>678</ele>
        <time>2019-05-02T07:17:01Z</time>
      </trkpt>
      <trkpt lat="46.39615" lon="5.70536">
        <ele>676</ele>
        <time>2019-05-02T07:18:01Z</time>
      </trkpt>
      <trkpt lat="46.396" lon="5.70525">
        <ele>675</ele>
        <time>2019-05-02T07:19:01Z</time>
      </trkpt>
      <trkpt lat="46.39586" lon="5.70512">
        <ele>674</ele>
        <time>2019-05-02T07:20:01Z</time>
      </trkpt>
      <trkpt lat="46.39577" lon="5.70503">
        <ele>673</ele>
        <time>2019-05-02T07:21:01Z</time>
      </trkpt>
      <trkpt lat="46.39561" lon="5.70488">
        <ele>672</ele>
        <time>2019-05-02T07:22:01Z</time>
      </trkpt>
      <trkpt lat="46.39545" lon="5.70467">
        <ele>673</ele>
        <time>2019-05-02T07:23:01Z</time>
      </trkpt>
      <trkpt lat="46.39534" lon="5.70452">
        <ele>673</ele>
        <time>2019-05-02T07:24:01Z</time>
      </trkpt>
      <trkpt lat="46.39523" lon="5.70439">
        <ele>674</ele>
        <time>2019-05-02T07:25:01Z</time>
      </trkpt>
      <trkpt lat="46.39507" lon="5.70425">
        <ele>674</ele>
        <time>2019-05-02T07:26:01Z</time>
      </trkpt>
      <trkpt lat="46.39492" lon="5.70413">
        <ele>674</ele>
        <time>2019-05-02T07:27:01Z</time>
      </trkpt>
      <trkpt lat="46.39478" lon="5.70406">
        <ele>674</ele>
        <time>2019-05-02T07:28:01Z</time>
      </trkpt>
      <trkpt lat="46.39433" lon="5.70387">
        <ele>674</ele>
        <time>2019-05-02T07:29:01Z</time>
      </trkpt>
      <trkpt lat="46.39422" lon="5.70382">
        <ele>674</ele>
        <time>2019-05-02T07:30:01Z</time>
      </trkpt>
      <trkpt lat="46.39405" lon="5.70378">
        <ele>675</ele>
        <time>2019-05-02T07:31:01Z</time>
      </trkpt>
      <trkpt lat="46.3938" lon="5.70375">
        <ele>676</ele>
        <time>2019-05-02T07:32:01Z</time>
      </trkpt>
      <trkpt lat="46.39358" lon="5.70374">
        <ele>676</ele>
        <time>2019-05-02T07:33:01Z</time>
      </trkpt>
      <trkpt lat="46.39332" lon="5.70371">
        <ele>677</ele>
        <time>2019-05-02T07:34:01Z</time>
      </trkpt>
      <trkpt lat="46.39311" lon="5.70367">
        <ele>677</ele>
        <time>2019-05-02T07:35:01Z</time>
      </trkpt>
      <trkpt lat="46.39292" lon="5.70361">
        <ele>677</ele>
        <time>2019-05-02T07:36:01Z</time>
      </trkpt>
      <trkpt lat="46.39277" lon="5.70353">
        <ele>678</ele>
        <time>2019-05-02T07:37:01Z</time>
      </trkpt>
      <trkpt lat="46.39264" lon="5.70342">
        <ele>679</ele>
        <time>2019-05-02T07:38:01Z</time>
      </trkpt>
      <trkpt lat="46.3925" lon="5.70328">
        <ele>679</ele>
        <time>2019-05-02T07:39:01Z</time>
      </trkpt>
      <trkpt lat="46.39234" lon="5.70304">
        <ele>676</ele>
        <time>2019-05-02T07:40:01Z</time>
      </trkpt>
      <trkpt lat="46.3922" lon="5.7028">
        <ele>674</ele>
        <time>2019-05-02T07:41:01Z</time>
      </trkpt>
      <trkpt lat="46.39202" lon="5.7025">
        <ele>672</ele>
        <time>2019-05-02T07:42:01Z</time>
      </trkpt>
      <trkpt lat="46.39182" lon="5.70214">
        <ele>672</ele>
        <time>2019-05-02T07:43:01Z</time>
      </trkpt>
      <trkpt lat="46.39171" lon="5.70191">
        <ele>671</ele>
        <time>2019-05-02T07:44:01Z</time>
      </trkpt>
      <trkpt lat="46.3916" lon="5.70173">
        <ele>671</ele>
        <time>2019-05-02T07:45:01Z</time>
      </trkpt>
      <trkpt lat="46.39148" lon="5.70146">
        <ele>671</ele>
        <time>2019-05-02T07:46:01Z</time>
      </trkpt>
      <trkpt lat="46.39131" lon="5.70113">
        <ele>671</ele>
        <time>2019-05-02T07:47:01Z</time>
      </trkpt>
      <trkpt lat="46.3912" lon="5.70088">
        <ele>670</ele>
        <time>2019-05-02T07:48:01Z</time>
      </trkpt>
      <trkpt lat="46.39108" lon="5.70054">
        <ele>670</ele>
        <time>2019-05-02T07:49:01Z</time>
      </trkpt>
      <trkpt lat="46.39102" lon="5.70038">
        <ele>670</ele>
        <time>2019-05-02T07:50:01Z</time>
      </trkpt>
      <trkpt lat="46.39096" lon="5.7002">
        <ele>670</ele>
        <time>2019-05-02T07:51:01Z</time>
      </trkpt>
      <trkpt lat="46.39082" lon="5.69995">
        <ele>667</ele>
        <time>2019-05-02T07:52:01Z</time>
      </trkpt>
      <trkpt lat="46.39067" lon="5.69972">
        <ele>668</ele>
        <time>2019-05-02T07:53:01Z</time>
      </trkpt>
      <trkpt lat="46.39058" lon="5.69957">
        <ele>669</ele>
        <time>2019-05-02T07:54:01Z</time>
      </trkpt>
      <trkpt lat="46.39043" lon="5.69942">
        <ele>668</ele>
        <time>2019-05-02T07:55:01Z</time>
      </trkpt>
      <trkpt lat="46.39026" lon="5.69928">
        <ele>666</ele>
        <time>2019-05-02T07:56:01Z</time>
      </trkpt>
      <trkpt lat="46.39013" lon="5.69919">
        <ele>665</ele>
        <time>2019-05-02T07:57:01Z</time>
      </trkpt>
      <trkpt lat="46.38997" lon="5.69913">
        <ele>664</ele>
        <time>2019-05-02T07:58:01Z</time>
      </trkpt>
      <trkpt lat="46.38973" lon="5.69908">
        <ele>665</ele>
        <time>2019-05-02T07:59:01Z</time>
      </trkpt>
      <trkpt lat="46.3897" lon="5.69906">
        <ele>666</ele>
        <time>2019-05-02T08:00:01Z</time>
      </trkpt>
      <trkpt lat="46.38964" lon="5.69906">
        <ele>666</ele>
        <time>2019-05-02T08:01:01Z</time>
      </trkpt>
      <trkpt lat="46.3896" lon="5.69906">
        <ele>666</ele>
        <time>2019-05-02T08:02:01Z</time>
      </trkpt>
      <trkpt lat="46.38956" lon="5.69906">
        <ele>666</ele>
        <time>2019-05-02T08:03:01Z</time>
      </trkpt>
      <trkpt lat="46.38952" lon="5.69909">
        <ele>665</ele>
        <time>2019-05-02T08:04:01Z</time>
      </trkpt>
      <trkpt lat="46.38948" lon="5.69912">
        <ele>665</ele>
        <time>2019-05-02T08:05:01Z</time>
      </trkpt>
      <trkpt lat="46.38947" lon="5.69914">
        <ele>664</ele>
        <time>2019-05-02T08:06:01Z</time>
      </trkpt>
      <trkpt lat="46.38946" lon="5.69915">
        <ele>664</ele>
        <time>2019-05-02T08:07:01Z</time>
      </trkpt>
      <trkpt lat="46.38943" lon="5.69917">
        <ele>664</ele>
        <time>2019-05-02T08:08:01Z</time>
      </trkpt>
      <trkpt lat="46.38936" lon="5.69919">
        <ele>664</ele>
        <time>2019-05-02T08:09:01Z</time>
      </trkpt>
      <trkpt lat="46.38913" lon="5.69921">
        <ele>664</ele>
        <time>2019-05-02T08:10:01Z</time>
      </trkpt>
      <trkpt lat="46.38874" lon="5.69925">
        <ele>663</ele>
        <time>2019-05-02T08:11:01Z</time>
      </trkpt>
      <trkpt lat="46.38856" lon="5.69928">
        <ele>662</ele>
        <time>2019-05-02T08:12:01Z</time>
      </trkpt>
      <trkpt lat="46.38842" lon="5.69928">
        <ele>662</ele>
        <time>2019-05-02T08:13:01Z</time>
      </trkpt>
      <trkpt lat="46.38834" lon="5.6993">
        <ele>661</ele>
        <time>2019-05-02T08:14:01Z</time>
      </trkpt>
      <trkpt lat="46.38826" lon="5.69929">
        <ele>661</ele>
        <time>2019-05-02T08:15:01Z</time>
      </trkpt>
      <trkpt lat="46.3882" lon="5.69924">
        <ele>661</ele>
        <time>2019-05-02T08:16:01Z</time>
      </trkpt>
      <trkpt lat="46.38806" lon="5.6991">
        <ele>662</ele>
        <time>2019-05-02T08:17:01Z</time>
      </trkpt>
      <trkpt lat="46.38788" lon="5.69894">
        <ele>663</ele>
        <time>2019-05-02T08:18:01Z</time>
      </trkpt>
      <trkpt lat="46.38769" lon="5.69879">
        <ele>663</ele>
        <time>2019-05-02T08:19:01Z</time>
      </trkpt>
      <trkpt lat="46.38754" lon="5.69868">
        <ele>661</ele>
        <time>2019-05-02T08:20:01Z</time>
      </trkpt>
      <trkpt lat="46.38747" lon="5.69864">
        <ele>660</ele>
        <time>2019-05-02T08:21:01Z</time>
      </trkpt>
      <trkpt lat="46.3874" lon="5.69859">
        <ele>660</ele>
        <time>2019-05-02T08:22:01Z</time>
      </trkpt>
      <trkpt lat="46.38729" lon="5.6985">
        <ele>658</ele>
        <time>2019-05-02T08:23:01Z</time>
      </trkpt>
      <trkpt lat="46.38718" lon="5.69836">
        <ele>657</ele>
        <time>2019-05-02T08:24:01Z</time>
      </trkpt>
      <trkpt lat="46.38708" lon="5.69823">
        <ele>658</ele>
        <time>2019-05-02T08:25:01Z</time>
      </trkpt>
      <trkpt lat="46.38699" lon="5.69813">
        <ele>657</ele>
        <time>2019-05-02T08:26:01Z</time>
      </trkpt>
      <trkpt lat="46.38688" lon="5.69803">
        <ele>657</ele>
        <time>2019-05-02T08:27:01Z</time>
      </trkpt>
      <trkpt lat="46.38675" lon="5.69796">
        <ele>656</ele>
        <time>2019-05-02T08:28:01Z</time>
      </trkpt>
      <trkpt lat="46.38659" lon="5.69789">
        <ele>654</ele>
        <time>2019-05-02T08:29:01Z</time>
      </trkpt>
      <trkpt lat="46.38643" lon="5.69785">
        <ele>652</ele>
        <time>2019-05-02T08:30:01Z</time>
      </trkpt>
      <trkpt lat="46.38634" lon="5.69784">
        <ele>650</ele>
        <time>2019-05-02T08:31:01Z</time>
      </trkpt>
      <trkpt lat="46.38621" lon="5.69783">
        <ele>648</ele>
        <time>2019-05-02T08:32:01Z</time>
      </trkpt>
      <trkpt lat="46.38605" lon="5.69784">
        <ele>646</ele>
        <time>2019-05-02T08:33:01Z</time>
      </trkpt>
      <trkpt lat="46.3859" lon="5.69786">
        <ele>643</ele>
        <time>2019-05-02T08:34:01Z</time>
      </trkpt>
      <trkpt lat="46.38573" lon="5.69788">
        <ele>641</ele>
        <time>2019-05-02T08:35:01Z</time>
      </trkpt>
      <trkpt lat="46.38555" lon="5.69789">
        <ele>639</ele>
        <time>2019-05-02T08:36:01Z</time>
      </trkpt>
      <trkpt lat="46.38541" lon="5.69787">
        <ele>637</ele>
        <time>2019-05-02T08:37:01Z</time>
      </trkpt>
      <trkpt lat="46.38529" lon="5.69783">
        <ele>636</ele>
        <time>2019-05-02T08:38:01Z</time>
      </trkpt>
      <trkpt lat="46.38517" lon="5.69776">
        <ele>635</ele>
        <time>2019-05-02T08:39:01Z</time>
      </trkpt>
      <trkpt lat="46.385" lon="5.69762">
        <ele>634</ele>
        <time>2019-05-02T08:40:01Z</time>
      </trkpt>
      <trkpt lat="46.38478" lon="5.69743">
        <ele>632</ele>
        <time>2019-05-02T08:41:01Z</time>
      </trkpt>
      <trkpt lat="46.38456" lon="5.69724">
        <ele>629</ele>
        <time>2019-05-02T08:42:01Z</time>
      </trkpt>
      <trkpt lat="46.3844" lon="5.69709">
        <ele>628</ele>
        <time>2019-05-02T08:43:01Z</time>
      </trkpt>
      <trkpt lat="46.38423" lon="5.69692">
        <ele>626</ele>
        <time>2019-05-02T08:44:01Z</time>
      </trkpt>
      <trkpt lat="46.38408" lon="5.69677">
        <ele>624</ele>
        <time>2019-05-02T08:45:01Z</time>
      </trkpt>
      <trkpt lat="46.38397" lon="5.69663">
        <ele>623</ele>
        <time>2019-05-02T08:46:01Z</time>
      </trkpt>
      <trkpt lat="46.38386" lon="5.69647">
        <ele>621</ele>
        <time>2019-05-02T08:47:01Z</time>
      </trkpt>
      <trkpt lat="46.38377" lon="5.6963">
        <ele>620</ele>
        <time>2019-05-02T08:48:01Z</time>
      </trkpt>
      <trkpt lat="46.38368" lon="5.69613">
        <ele>618</ele>
        <time>2019-05-02T08:49:01Z</time>
      </trkpt>
      <trkpt lat="46.38359" lon="5.6959">
        <ele>617</ele>
        <time>2019-05-02T08:50:01Z</time>
      </trkpt>
      <trkpt lat="46.38352" lon="5.69567">
        <ele>617</ele>
        <time>2019-05-02T08:51:01Z</time>
      </trkpt>
      <trkpt lat="46.38348" lon="5.69555">
        <ele>618</ele>
        <time>2019-05-02T08:52:01Z</time>
      </trkpt>
      <trkpt lat="46.38342" lon="5.69537">
        <ele>618</ele>
        <time>2019-05-02T08:53:01Z</time>
      </trkpt>
      <trkpt lat="46.38334" lon="5.69518">
        <ele>617</ele>
        <time>2019-05-02T08:54:01Z</time>
      </trkpt>
      <trkpt lat="46.38325" lon="5.69499">
        <ele>617</ele>
        <time>2019-05-02T08:55:01Z</time>
      </trkpt>
      <trkpt lat="46.38315" lon="5.69482">
        <ele>618</ele>
        <time>2019-05-02T08:56:01Z</time>
      </trkpt>
      <trkpt lat="46.38303" lon="5.69468">
        <ele>618</ele>
        <time>2019-05-02T08:57:01Z</time>
      </trkpt>
      <trkpt lat="46.38291" lon="5.69459">
        <ele>617</ele>
        <time>2019-05-02T08:58:01Z</time>
      </trkpt>
      <trkpt lat="46.38274" lon="5.69449">
        <ele>614</ele>
        <time>2019-05-02T08:59:01Z</time>
      </trkpt>
      <trkpt lat="46.38262" lon="5.69444">
        <ele>612</ele>
        <time>2019-05-02T09:00:01Z</time>
      </trkpt>
      <trkpt lat="46.3825" lon="5.6944">
        <ele>609</ele>
        <time>2019-05-02T09:01:01Z</time>
      </trkpt>
      <trkpt lat="46.3824" lon="5.6944">
        <ele>608</ele>
        <time>2019-05-02T09:02:01Z</time>
      </trkpt>
      <trkpt lat="46.38233" lon="5.69441">
        <ele>607</ele>
        <time>2019-05-02T09:03:01Z</time>
      </trkpt>
      <trkpt lat="46.38226" lon="5.69446">
        <ele>606</ele>
        <time>2019-05-02T09:04:01Z</time>
      </trkpt>
      <trkpt lat="46.3822" lon="5.69454">
        <ele>604</ele>
        <time>2019-05-02T09:05:01Z</time>
      </trkpt>
      <trkpt lat="46.38215" lon="5.69465">
        <ele>602</ele>
        <time>2019-05-02T09:06:01Z</time>
      </trkpt>
      <trkpt lat="46.3821" lon="5.69477">
        <ele>601</ele>
        <time>2019-05-02T09:07:01Z</time>
      </trkpt>
      <trkpt lat="46.38186" lon="5.69499">
        <ele>597</ele>
        <time>2019-05-02T09:08:01Z</time>
      </trkpt>
      <trkpt lat="46.38162" lon="5.695">
        <ele>595</ele>
        <time>2019-05-02T09:09:01Z</time>
      </trkpt>
      <trkpt lat="46.38127" lon="5.695">
        <ele>595</ele>
        <time>2019-05-02T09:10:01Z</time>
      </trkpt>
      <trkpt lat="46.38106" lon="5.695">
        <ele>596</ele>
        <time>2019-05-02T09:11:01Z</time>
      </trkpt>
      <trkpt lat="46.38088" lon="5.69503">
        <ele>596</ele>
        <time>2019-05-02T09:12:01Z</time>
      </trkpt>
      <trkpt lat="46.38075" lon="5.69507">
        <ele>598</ele>
        <time>2019-05-02T09:13:01Z</time>
      </trkpt>
      <trkpt lat="46.38066" lon="5.69513">
        <ele>600</ele>
        <time>2019-05-02T09:14:01Z</time>
      </trkpt>
      <trkpt lat="46.38056" lon="5.69523">
        <ele>602</ele>
        <time>2019-05-02T09:15:01Z</time>
      </trkpt>
      <trkpt lat="46.38047" lon="5.69536">
        <ele>604</ele>
        <time>2019-05-02T09:16:01Z</time>
      </trkpt>
      <trkpt lat="46.38041" lon="5.69548">
        <ele>604</ele>
        <time>2019-05-02T09:17:01Z</time>
      </trkpt>
      <trkpt lat="46.38034" lon="5.69562">
        <ele>605</ele>
        <time>2019-05-02T09:18:01Z</time>
      </trkpt>
      <trkpt lat="46.38028" lon="5.69577">
        <ele>605</ele>
        <time>2019-05-02T09:19:01Z</time>
      </trkpt>
      <trkpt lat="46.38022" lon="5.69587">
        <ele>605</ele>
        <time>2019-05-02T09:20:01Z</time>
      </trkpt>
      <trkpt lat="46.38016" lon="5.69595">
        <ele>605</ele>
        <time>2019-05-02T09:21:01Z</time>
      </trkpt>
      <trkpt lat="46.37999" lon="5.69611">
        <ele>606</ele>
        <time>2019-05-02T09:22:01Z</time>
      </trkpt>
      <trkpt lat="46.37982" lon="5.69627">
        <ele>607</ele>
        <time>2019-05-02T09:23:01Z</time>
      </trkpt>
      <trkpt lat="46.37969" lon="5.69638">
        <ele>607</ele>
        <time>2019-05-02T09:24:01Z</time>
      </trkpt>
      <trkpt lat="46.37958" lon="5.69644">
        <ele>608</ele>
        <time>2019-05-02T09:25:01Z</time>
      </trkpt>
      <trkpt lat="46.37945" lon="5.69648">
        <ele>610</ele>
        <time>2019-05-02T09:26:01Z</time>
      </trkpt>
      <trkpt lat="46.37935" lon="5.6965">
        <ele>611</ele>
        <time>2019-05-02T09:27:01Z</time>
      </trkpt>
      <trkpt lat="46.37928" lon="5.6965">
        <ele>612</ele>
        <time>2019-05-02T09:28:01Z</time>
      </trkpt>
      <trkpt lat="46.37909" lon="5.69654">
        <ele>613</ele>
        <time>2019-05-02T09:29:01Z</time>
      </trkpt>
      <trkpt lat="46.37892" lon="5.6966">
        <ele>612</ele>
        <time>2019-05-02T09:30:01Z</time>
      </trkpt>
      <trkpt lat="46.37878" lon="5.69665">
        <ele>611</ele>
        <time>2019-05-02T09:31:01Z</time>
      </trkpt>
      <trkpt lat="46.37864" lon="5.69667">
        <ele>611</ele>
        <time>2019-05-02T09:32:01Z</time>
      </trkpt>
      <trkpt lat="46.37853" lon="5.69666">
        <ele>611</ele>
        <time>2019-05-02T09:33:01Z</time>
      </trkpt>
      <trkpt lat="46.3784" lon="5.6966">
        <ele>612</ele>
        <time>2019-05-02T09:34:01Z</time>
      </trkpt>
      <trkpt lat="46.37826" lon="5.69651">
        <ele>612</ele>
        <time>2019-05-02T09:35:01Z</time>
      </trkpt>
      <trkpt lat="46.37803" lon="5.69639">
        <ele>612</ele>
        <time>2019-05-02T09:36:01Z</time>
      </trkpt>
      <trkpt lat="46.3778" lon="5.69632">
        <ele>612</ele>
        <time>2019-05-02T09:37:01Z</time>
      </trkpt>
      <trkpt lat="46.3776" lon="5.69625">
        <ele>611</ele>
        <time>2019-05-02T09:38:01Z</time>
      </trkpt>
      <trkpt lat="46.37749" lon="5.69619">
        <ele>611</ele>
        <time>2019-05-02T09:39:01Z</time>
      </trkpt>
      <trkpt lat="46.37739" lon="5.69613">
        <ele>611</ele>
        <time>2019-05-02T09:40:01Z</time>
      </trkpt>
      <trkpt lat="46.37719" lon="5.69602">
        <ele>610</ele>
        <time>2019-05-02T09:41:01Z</time>
      </trkpt>
      <trkpt lat="46.37718" lon="5.69601">
        <ele>610</ele>
        <time>2019-05-02T09:42:01Z</time>
      </trkpt>
      <trkpt lat="46.37701" lon="5.69587">
        <ele>610</ele>
        <time>2019-05-02T09:43:01Z</time>
      </trkpt>
      <trkpt lat="46.37685" lon="5.69576">
        <ele>610</ele>
        <time>2019-05-02T09:44:01Z</time>
      </trkpt>
      <trkpt lat="46.37669" lon="5.69564">
        <ele>612</ele>
        <time>2019-05-02T09:45:01Z</time>
      </trkpt>
      <trkpt lat="46.37654" lon="5.69551">
        <ele>612</ele>
        <time>2019-05-02T09:46:01Z</time>
      </trkpt>
      <trkpt lat="46.37645" lon="5.69538">
        <ele>612</ele>
        <time>2019-05-02T09:47:01Z</time>
      </trkpt>
      <trkpt lat="46.37632" lon="5.69514">
        <ele>614</ele>
        <time>2019-05-02T09:48:01Z</time>
      </trkpt>
      <trkpt lat="46.37625" lon="5.69499">
        <ele>615</ele>
        <time>2019-05-02T09:49:01Z</time>
      </trkpt>
      <trkpt lat="46.37607" lon="5.69453">
        <ele>618</ele>
        <time>2019-05-02T09:50:01Z</time>
      </trkpt>
      <trkpt lat="46.37599" lon="5.69423">
        <ele>620</ele>
        <time>2019-05-02T09:51:01Z</time>
      </trkpt>
      <trkpt lat="46.37594" lon="5.69399">
        <ele>621</ele>
        <time>2019-05-02T09:52:01Z</time>
      </trkpt>
      <trkpt lat="46.37588" lon="5.69371">
        <ele>622</ele>
        <time>2019-05-02T09:53:01Z</time>
      </trkpt>
      <trkpt lat="46.37584" lon="5.69348">
        <ele>623</ele>
        <time>2019-05-02T09:54:01Z</time>
      </trkpt>
      <trkpt lat="46.3758" lon="5.6932">
        <ele>626</ele>
        <time>2019-05-02T09:55:01Z</time>
      </trkpt>
      <trkpt lat="46.37578" lon="5.69299">
        <ele>628</ele>
        <time>2019-05-02T09:56:01Z</time>
      </trkpt>
      <trkpt lat="46.37576" lon="5.69272">
        <ele>630</ele>
        <time>2019-05-02T09:57:01Z</time>
      </trkpt>
      <trkpt lat="46.37573" lon="5.6925">
        <ele>632</ele>
        <time>2019-05-02T09:58:01Z</time>
      </trkpt>
      <trkpt lat="46.37567" lon="5.69221">
        <ele>633</ele>
        <time>2019-05-02T09:59:01Z</time>
      </trkpt>
      <trkpt lat="46.37563" lon="5.692">
        <ele>634</ele>
        <time>2019-05-02T10:00:01Z</time>
      </trkpt>
      <trkpt lat="46.37557" lon="5.69159">
        <ele>636</ele>
        <time>2019-05-02T10:01:01Z</time>
      </trkpt>
      <trkpt lat="46.37554" lon="5.69117">
        <ele>639</ele>
        <time>2019-05-02T10:02:01Z</time>
      </trkpt>
      <trkpt lat="46.37552" lon="5.69096">
        <ele>640</ele>
        <time>2019-05-02T10:03:01Z</time>
      </trkpt>
      <trkpt lat="46.37546" lon="5.69076">
        <ele>641</ele>
        <time>2019-05-02T10:04:01Z</time>
      </trkpt>
      <trkpt lat="46.37538" lon="5.69061">
        <ele>642</ele>
        <time>2019-05-02T10:05:01Z</time>
      </trkpt>
      <trkpt lat="46.37527" lon="5.6905">
        <ele>642</ele>
        <time>2019-05-02T10:06:01Z</time>
      </trkpt>
      <trkpt lat="46.37513" lon="5.69039">
        <ele>643</ele>
        <time>2019-05-02T10:07:01Z</time>
      </trkpt>
      <trkpt lat="46.37489" lon="5.69025">
        <ele>643</ele>
        <time>2019-05-02T10:08:01Z</time>
      </trkpt>
      <trkpt lat="46.37473" lon="5.69015">
        <ele>643</ele>
        <time>2019-05-02T10:09:01Z</time>
      </trkpt>
      <trkpt lat="46.37459" lon="5.69005">
        <ele>644</ele>
        <time>2019-05-02T10:10:01Z</time>
      </trkpt>
      <trkpt lat="46.37443" lon="5.68998">
        <ele>644</ele>
        <time>2019-05-02T10:11:01Z</time>
      </trkpt>
      <trkpt lat="46.3743" lon="5.68993">
        <ele>644</ele>
        <time>2019-05-02T10:12:01Z</time>
      </trkpt>
      <trkpt lat="46.37409" lon="5.68986">
        <ele>644</ele>
        <time>2019-05-02T10:13:01Z</time>
      </trkpt>
      <trkpt lat="46.37379" lon="5.68974">
        <ele>647</ele>
        <time>2019-05-02T10:14:01Z</time>
      </trkpt>
      <trkpt lat="46.37356" lon="5.68966">
        <ele>649</ele>
        <time>2019-05-02T10:15:01Z</time>
      </trkpt>
      <trkpt lat="46.37335" lon="5.68964">
        <ele>649</ele>
        <time>2019-05-02T10:16:01Z</time>
      </trkpt>
      <trkpt lat="46.37313" lon="5.68963">
        <ele>648</ele>
        <time>2019-05-02T10:17:01Z</time>
      </trkpt>
      <trkpt lat="46.37301" lon="5.6896">
        <ele>648</ele>
        <time>2019-05-02T10:18:01Z</time>
      </trkpt>
      <trkpt lat="46.37285" lon="5.68953">
        <ele>650</ele>
        <time>2019-05-02T10:19:01Z</time>
      </trkpt>
      <trkpt lat="46.37268" lon="5.68943">
        <ele>652</ele>
        <time>2019-05-02T10:20:01Z</time>
      </trkpt>
      <trkpt lat="46.37241" lon="5.68927">
        <ele>655</ele>
        <time>2019-05-02T10:21:01Z</time>
      </trkpt>
      <trkpt lat="46.37216" lon="5.68912">
        <ele>655</ele>
        <time>2019-05-02T10:22:01Z</time>
      </trkpt>
      <trkpt lat="46.37198" lon="5.68897">
        <ele>656</ele>
        <time>2019-05-02T10:23:01Z</time>
      </trkpt>
      <trkpt lat="46.37183" lon="5.68882">
        <ele>658</ele>
        <time>2019-05-02T10:24:01Z</time>
      </trkpt>
      <trkpt lat="46.37166" lon="5.68865">
        <ele>661</ele>
        <time>2019-05-02T10:25:01Z</time>
      </trkpt>
      <trkpt lat="46.37144" lon="5.68838">
        <ele>665</ele>
        <time>2019-05-02T10:26:01Z</time>
      </trkpt>
      <trkpt lat="46.37119" lon="5.68809">
        <ele>667</ele>
        <time>2019-05-02T10:27:01Z</time>
      </trkpt>
      <trkpt lat="46.37098" lon="5.68786">
        <ele>668</ele>
        <time>2019-05-02T10:28:01Z</time>
      </trkpt>
      <trkpt lat="46.37071" lon="5.68759">
        <ele>670</ele>
        <time>2019-05-02T10:29:01Z</time>
      </trkpt>
      <trkpt lat="46.37025" lon="5.68716">
        <ele>672</ele>
        <time>2019-05-02T10:30:01Z</time>
      </trkpt>
      <trkpt lat="46.37013" lon="5.68701">
        <ele>674</ele>
        <time>2019-05-02T10:31:01Z</time>
      </trkpt>
      <trkpt lat="46.37006" lon="5.68685">
        <ele>677</ele>
        <time>2019-05-02T10:32:01Z</time>
      </trkpt>
      <trkpt lat="46.37001" lon="5.68668">
        <ele>681</ele>
        <time>2019-05-02T10:33:01Z</time>
      </trkpt>
      <trkpt lat="46.36999" lon="5.68652">
        <ele>681</ele>
        <time>2019-05-02T10:34:01Z</time>
      </trkpt>
      <trkpt lat="46.36998" lon="5.68636">
        <ele>681</ele>
        <time>2019-05-02T10:35:01Z</time>
      </trkpt>
      <trkpt lat="46.36997" lon="5.6861">
        <ele>681</ele>
        <time>2019-05-02T10:36:01Z</time>
      </trkpt>
      <trkpt lat="46.36992" lon="5.68588">
        <ele>681</ele>
        <time>2019-05-02T10:37:01Z</time>
      </trkpt>
      <trkpt lat="46.36986" lon="5.68567">
        <ele>681</ele>
        <time>2019-05-02T10:38:01Z</time>
      </trkpt>
      <trkpt lat="46.36979" lon="5.68551">
        <ele>680</ele>
        <time>2019-05-02T10:39:01Z</time>
      </trkpt>
      <trkpt lat="46.36964" lon="5.68535">
        <ele>680</ele>
        <time>2019-05-02T10:40:01Z</time>
      </trkpt>
      <trkpt lat="46.36952" lon="5.68525">
        <ele>680</ele>
        <time>2019-05-02T10:41:01Z</time>
      </trkpt>
      <trkpt lat="46.3693" lon="5.68507">
        <ele>680</ele>
        <time>2019-05-02T10:42:01Z</time>
      </trkpt>
      <trkpt lat="46.36906" lon="5.68488">
        <ele>680</ele>
        <time>2019-05-02T10:43:01Z</time>
      </trkpt>
      <trkpt lat="46.36885" lon="5.68472">
        <ele>679</ele>
        <time>2019-05-02T10:44:01Z</time>
      </trkpt>
      <trkpt lat="46.36868" lon="5.68459">
        <ele>678</ele>
        <time>2019-05-02T10:45:01Z</time>
      </trkpt>
      <trkpt lat="46.36866" lon="5.68458">
        <ele>678</ele>
        <time>2019-05-02T10:46:01Z</time>
      </trkpt>
      <trkpt lat="46.36856" lon="5.68447">
        <ele>677</ele>
        <time>2019-05-02T10:47:01Z</time>
      </trkpt>
      <trkpt lat="46.3685" lon="5.6844">
        <ele>676</ele>
        <time>2019-05-02T10:48:01Z</time>
      </trkpt>
      <trkpt lat="46.36844" lon="5.68428">
        <ele>675</ele>
        <time>2019-05-02T10:49:01Z</time>
      </trkpt>
      <trkpt lat="46.36833" lon="5.68409">
        <ele>674</ele>
        <time>2019-05-02T10:50:01Z</time>
      </trkpt>
      <trkpt lat="46.36815" lon="5.68379">
        <ele>675</ele>
        <time>2019-05-02T10:51:01Z</time>
      </trkpt>
      <trkpt lat="46.368" lon="5.68355">
        <ele>675</ele>
        <time>2019-05-02T10:52:01Z</time>
      </trkpt>
      <trkpt lat="46.36794" lon="5.68342">
        <ele>675</ele>
        <time>2019-05-02T10:53:01Z</time>
      </trkpt>
      <trkpt lat="46.36787" lon="5.68325">
        <ele>676</ele>
        <time>2019-05-02T10:54:01Z</time>
      </trkpt>
      <trkpt lat="46.36782" lon="5.68309">
        <ele>677</ele>
        <time>2019-05-02T10:55:01Z</time>
      </trkpt>
      <trkpt lat="46.3677" lon="5.68291">
        <ele>678</ele>
        <time>2019-05-02T10:56:01Z</time>
      </trkpt>
      <trkpt lat="46.36746" lon="5.68274">
        <ele>679</ele>
        <time>2019-05-02T10:57:01Z</time>
      </trkpt>
      <trkpt lat="46.36672" lon="5.68246">
        <ele>674</ele>
        <time>2019-05-02T10:58:01Z</time>
      </trkpt>
      <trkpt lat="46.36656" lon="5.6824">
        <ele>676</ele>
        <time>2019-05-02T10:59:01Z</time>
      </trkpt>
      <trkpt lat="46.3664" lon="5.68228">
        <ele>678</ele>
        <time>2019-05-02T11:00:01Z</time>
      </trkpt>
      <trkpt lat="46.36624" lon="5.68215">
        <ele>681</ele>
        <time>2019-05-02T11:01:01Z</time>
      </trkpt>
      <trkpt lat="46.3658" lon="5.68175">
        <ele>684</ele>
        <time>2019-05-02T11:02:01Z</time>
      </trkpt>
      <trkpt lat="46.36559" lon="5.68161">
        <ele>685</ele>
        <time>2019-05-02T11:03:01Z</time>
      </trkpt>
      <trkpt lat="46.36549" lon="5.68157">
        <ele>686</ele>
        <time>2019-05-02T11:04:01Z</time>
      </trkpt>
      <trkpt lat="46.36514" lon="5.68139">
        <ele>686</ele>
        <time>2019-05-02T11:05:01Z</time>
      </trkpt>
      <trkpt lat="46.36488" lon="5.68129">
        <ele>686</ele>
        <time>2019-05-02T11:06:01Z</time>
      </trkpt>
      <trkpt lat="46.36469" lon="5.68119">
        <ele>685</ele>
        <time>2019-05-02T11:07:01Z</time>
      </trkpt>
      <trkpt lat="46.36451" lon="5.68107">
        <ele>684</ele>
        <time>2019-05-02T11:08:01Z</time>
      </trkpt>
      <trkpt lat="46.36434" lon="5.68092">
        <ele>682</ele>
        <time>2019-05-02T11:09:01Z</time>
      </trkpt>
      <trkpt lat="46.3642" lon="5.68076">
        <ele>680</ele>
        <time>2019-05-02T11:10:01Z</time>
      </trkpt>
      <trkpt lat="46.36411" lon="5.68065">
        <ele>680</ele>
        <time>2019-05-02T11:11:01Z</time>
      </trkpt>
      <trkpt lat="46.36399" lon="5.68047">
        <ele>679</ele>
        <time>2019-05-02T11:12:01Z</time>
      </trkpt>
      <trkpt lat="46.36393" lon="5.68032">
        <ele>679</ele>
        <time>2019-05-02T11:13:01Z</time>
      </trkpt>
      <trkpt lat="46.36381" lon="5.68004">
        <ele>678</ele>
        <time>2019-05-02T11:14:01Z</time>
      </trkpt>
      <trkpt lat="46.36373" lon="5.67988">
        <ele>678</ele>
        <time>2019-05-02T11:15:01Z</time>
      </trkpt>
      <trkpt lat="46.36355" lon="5.67961">
        <ele>676</ele>
        <time>2019-05-02T11:16:01Z</time>
      </trkpt>
      <trkpt lat="46.36345" lon="5.6795">
        <ele>675</ele>
        <time>2019-05-02T11:17:01Z</time>
      </trkpt>
      <trkpt lat="46.36335" lon="5.67934">
        <ele>673</ele>
        <time>2019-05-02T11:18:01Z</time>
      </trkpt>
      <trkpt lat="46.36327" lon="5.67914">
        <ele>671</ele>
        <time>2019-05-02T11:19:01Z</time>
      </trkpt>
      <trkpt lat="46.36317" lon="5.67883">
        <ele>671</ele>
        <time>2019-05-02T11:20:01Z</time>
      </trkpt>
      <trkpt lat="46.3631" lon="5.67863">
        <ele>670</ele>
        <time>2019-05-02T11:21:01Z</time>
      </trkpt>
      <trkpt lat="46.36304" lon="5.67847">
        <ele>669</ele>
        <time>2019-05-02T11:22:01Z</time>
      </trkpt>
      <trkpt lat="46.36298" lon="5.67832">
        <ele>668</ele>
        <time>2019-05-02T11:23:01Z</time>
      </trkpt>
      <trkpt lat="46.36287" lon="5.6781">
        <ele>668</ele>
        <time>2019-05-02T11:24:01Z</time>
      </trkpt>
      <trkpt lat="46.36277" lon="5.67784">
        <ele>667</ele>
        <time>2019-05-02T11:25:01Z</time>
      </trkpt>
      <trkpt lat="46.36266" lon="5.6776">
        <ele>665</ele>
        <time>2019-05-02T11:26:01Z</time>
      </trkpt>
      <trkpt lat="46.36247" lon="5.67721">
        <ele>665</ele>
        <time>2019-05-02T11:27:01Z</time>
      </trkpt>
      <trkpt lat="46.36238" lon="5.67701">
        <ele>665</ele>
        <time>2019-05-02T11:28:01Z</time>
      </trkpt>
      <trkpt lat="46.36226" lon="5.67677">
        <ele>665</ele>
        <time>2019-05-02T11:29:01Z</time>
      </trkpt>
      <trkpt lat="46.36198" lon="5.67647">
        <ele>664</ele>
        <time>2019-05-02T11:30:01Z</time>
      </trkpt>
      <trkpt lat="46.36156" lon="5.67603">
        <ele>663</ele>
        <time>2019-05-02T11:31:01Z</time>
      </trkpt>
      <trkpt lat="46.36135" lon="5.67581">
        <ele>662</ele>
        <time>2019-05-02T11:32:01Z</time>
      </trkpt>
      <trkpt lat="46.36125" lon="5.67568">
        <ele>662</ele>
        <time>2019-05-02T11:33:01Z</time>
      </trkpt>
      <trkpt lat="46.36114" lon="5.67547">
        <ele>662</ele>
        <time>2019-05-02T11:34:01Z</time>
      </trkpt>
      <trkpt lat="46.36102" lon="5.67516">
        <ele>662</ele>
        <time>2019-05-02T11:35:01Z</time>
      </trkpt>
      <trkpt lat="46.3609" lon="5.67479">
        <ele>662</ele>
        <time>2019-05-02T11:36:01Z</time>
      </trkpt>
      <trkpt lat="46.36072" lon="5.67425">
        <ele>664</ele>
        <time>2019-05-02T11:37:01Z</time>
      </trkpt>
      <trkpt lat="46.36054" lon="5.67377">
        <ele>667</ele>
        <time>2019-05-02T11:38:01Z</time>
      </trkpt>
      <trkpt lat="46.36033" lon="5.67328">
        <ele>669</ele>
        <time>2019-05-02T11:39:01Z</time>
      </trkpt>
      <trkpt lat="46.36015" lon="5.67293">
        <ele>668</ele>
        <time>2019-05-02T11:40:01Z</time>
      </trkpt>
      <trkpt lat="46.36009" lon="5.67279">
        <ele>668</ele>
        <time>2019-05-02T11:41:01Z</time>
      </trkpt>
      <trkpt lat="46.35987" lon="5.67237">
        <ele>669</ele>
        <time>2019-05-02T11:42:01Z</time>
      </trkpt>
      <trkpt lat="46.35978" lon="5.67218">
        <ele>670</ele>
        <time>2019-05-02T11:43:01Z</time>
      </trkpt>
      <trkpt lat="46.35971" lon="5.67199">
        <ele>672</ele>
        <time>2019-05-02T11:44:01Z</time>
      </trkpt>
      <trkpt lat="46.35965" lon="5.6716">
        <ele>674</ele>
        <time>2019-05-02T11:45:01Z</time>
      </trkpt>
      <trkpt lat="46.35952" lon="5.67085">
        <ele>677</ele>
        <time>2019-05-02T11:46:01Z</time>
      </trkpt>
      <trkpt lat="46.35946" lon="5.67047">
        <ele>677</ele>
        <time>2019-05-02T11:47:01Z</time>
      </trkpt>
      <trkpt lat="46.3594" lon="5.67025">
        <ele>677</ele>
        <time>2019-05-02T11:48:01Z</time>
      </trkpt>
      <trkpt lat="46.35935" lon="5.67013">
        <ele>677</ele>
        <time>2019-05-02T11:49:01Z</time>
      </trkpt>
      <trkpt lat="46.35922" lon="5.66991">
        <ele>676</ele>
        <time>2019-05-02T11:50:01Z</time>
      </trkpt>
      <trkpt lat="46.35909" lon="5.66975">
        <ele>677</ele>
        <time>2019-05-02T11:51:01Z</time>
      </trkpt>
      <trkpt lat="46.35899" lon="5.66957">
        <ele>678</ele>
        <time>2019-05-02T11:52:01Z</time>
      </trkpt>
      <trkpt lat="46.35895" lon="5.6694">
        <ele>678</ele>
        <time>2019-05-02T11:53:01Z</time>
      </trkpt>
      <trkpt lat="46.35893" lon="5.66918">
        <ele>678</ele>
        <time>2019-05-02T11:54:01Z</time>
      </trkpt>
      <trkpt lat="46.35894" lon="5.66888">
        <ele>677</ele>
        <time>2019-05-02T11:55:01Z</time>
      </trkpt>
      <trkpt lat="46.35899" lon="5.66847">
        <ele>676</ele>
        <time>2019-05-02T11:56:01Z</time>
      </trkpt>
      <trkpt lat="46.35906" lon="5.66805">
        <ele>675</ele>
        <time>2019-05-02T11:57:01Z</time>
      </trkpt>
      <trkpt lat="46.35906" lon="5.6678">
        <ele>676</ele>
        <time>2019-05-02T11:58:01Z</time>
      </trkpt>
      <trkpt lat="46.35906" lon="5.66745">
        <ele>677</ele>
        <time>2019-05-02T11:59:01Z</time>
      </trkpt>
      <trkpt lat="46.35904" lon="5.66713">
        <ele>678</ele>
        <time>2019-05-02T12:00:01Z</time>
      </trkpt>
      <trkpt lat="46.35899" lon="5.66696">
        <ele>678</ele>
        <time>2019-05-02T12:01:01Z</time>
      </trkpt>
      <trkpt lat="46.3589" lon="5.66684">
        <ele>679</ele>
        <time>2019-05-02T12:02:01Z</time>
      </trkpt>
      <trkpt lat="46.3587" lon="5.66668">
        <ele>680</ele>
        <time>2019-05-02T12:03:01Z</time>
      </trkpt>
      <trkpt lat="46.35848" lon="5.66655">
        <ele>682</ele>
        <time>2019-05-02T12:04:01Z</time>
      </trkpt>
      <trkpt lat="46.35821" lon="5.66641">
        <ele>683</ele>
        <time>2019-05-02T12:05:01Z</time>
      </trkpt>
      <trkpt lat="46.35812" lon="5.66637">
        <ele>683</ele>
        <time>2019-05-02T12:06:01Z</time>
      </trkpt>
      <trkpt lat="46.3579" lon="5.66628">
        <ele>683</ele>
        <time>2019-05-02T12:07:01Z</time>
      </trkpt>
      <trkpt lat="46.35762" lon="5.66614">
        <ele>682</ele>
        <time>2019-05-02T12:08:01Z</time>
      </trkpt>
      <trkpt lat="46.35746" lon="5.66608">
        <ele>681</ele>
        <time>2019-05-02T12:09:01Z</time>
      </trkpt>
      <trkpt lat="46.35733" lon="5.66601">
        <ele>680</ele>
        <time>2019-05-02T12:10:01Z</time>
      </trkpt>
      <trkpt lat="46.35721" lon="5.66587">
        <ele>679</ele>
        <time>2019-05-02T12:11:01Z</time>
      </trkpt>
      <trkpt lat="46.3571" lon="5.6657">
        <ele>677</ele>
        <time>2019-05-02T12:12:01Z</time>
      </trkpt>
      <trkpt lat="46.35699" lon="5.66555">
        <ele>675</ele>
        <time>2019-05-02T12:13:01Z</time>
      </trkpt>
      <trkpt lat="46.35688" lon="5.66538">
        <ele>673</ele>
        <time>2019-05-02T12:14:01Z</time>
      </trkpt>
      <trkpt lat="46.3568" lon="5.6652">
        <ele>671</ele>
        <time>2019-05-02T12:15:01Z</time>
      </trkpt>
      <trkpt lat="46.35675" lon="5.66507">
        <ele>669</ele>
        <time>2019-05-02T12:16:01Z</time>
      </trkpt>
      <trkpt lat="46.3567" lon="5.66494">
        <ele>667</ele>
        <time>2019-05-02T12:17:01Z</time>
      </trkpt>
      <trkpt lat="46.35667" lon="5.66485">
        <ele>667</ele>
        <time>2019-05-02T12:18:01Z</time>
      </trkpt>
      <trkpt lat="46.35654" lon="5.66452">
        <ele>664</ele>
        <time>2019-05-02T12:19:01Z</time>
      </trkpt>
      <trkpt lat="46.35636" lon="5.66416">
        <ele>660</ele>
        <time>2019-05-02T12:20:01Z</time>
      </trkpt>
      <trkpt lat="46.35622" lon="5.66391">
        <ele>659</ele>
        <time>2019-05-02T12:21:01Z</time>
      </trkpt>
      <trkpt lat="46.35613" lon="5.66372">
        <ele>658</ele>
        <time>2019-05-02T12:22:01Z</time>
      </trkpt>
      <trkpt lat="46.35606" lon="5.66354">
        <ele>657</ele>
        <time>2019-05-02T12:23:01Z</time>
      </trkpt>
      <trkpt lat="46.35598" lon="5.66336">
        <ele>657</ele>
        <time>2019-05-02T12:24:01Z</time>
      </trkpt>
      <trkpt lat="46.35589" lon="5.66319">
        <ele>655</ele>
        <time>2019-05-02T12:25:01Z</time>
      </trkpt>
      <trkpt lat="46.35572" lon="5.66296">
        <ele>654</ele>
        <time>2019-05-02T12:26:01Z</time>
      </trkpt>
      <trkpt lat="46.35558" lon="5.66282">
        <ele>652</ele>
        <time>2019-05-02T12:27:01Z</time>
      </trkpt>
      <trkpt lat="46.35544" lon="5.66267">
        <ele>650</ele>
        <time>2019-05-02T12:28:01Z</time>
      </trkpt>
      <trkpt lat="46.3553" lon="5.66252">
        <ele>648</ele>
        <time>2019-05-02T12:29:01Z</time>
      </trkpt>
      <trkpt lat="46.35499" lon="5.66219">
        <ele>646</ele>
        <time>2019-05-02T12:30:01Z</time>
      </trkpt>
      <trkpt lat="46.35488" lon="5.66205">
        <ele>646</ele>
        <time>2019-05-02T12:31:01Z</time>
      </trkpt>
      <trkpt lat="46.35474" lon="5.66189">
        <ele>646</ele>
        <time>2019-05-02T12:32:01Z</time>
      </trkpt>
      <trkpt lat="46.35457" lon="5.66169">
        <ele>645</ele>
        <time>2019-05-02T12:33:01Z</time>
      </trkpt>
      <trkpt lat="46.35444" lon="5.6615">
        <ele>644</ele>
        <time>2019-05-02T12:34:01Z</time>
      </trkpt>
      <trkpt lat="46.35439" lon="5.66143">
        <ele>643</ele>
        <time>2019-05-02T12:35:01Z</time>
      </trkpt>
      <trkpt lat="46.35426" lon="5.66129">
        <ele>642</ele>
        <time>2019-05-02T12:36:01Z</time>
      </trkpt>
      <trkpt lat="46.35404" lon="5.66109">
        <ele>640</ele>
        <time>2019-05-02T12:37:01Z</time>
      </trkpt>
      <trkpt lat="46.35377" lon="5.66086">
        <ele>637</ele>
        <time>2019-05-02T12:38:01Z</time>
      </trkpt>
      <trkpt lat="46.35354" lon="5.66066">
        <ele>634</ele>
        <time>2019-05-02T12:39:01Z</time>
      </trkpt>
      <trkpt lat="46.35334" lon="5.66048">
        <ele>631</ele>
        <time>2019-05-02T12:40:01Z</time>
      </trkpt>
      <trkpt lat="46.35316" lon="5.66029">
        <ele>629</ele>
        <time>2019-05-02T12:41:01Z</time>
      </trkpt>
      <trkpt lat="46.35303" lon="5.66016">
        <ele>628</ele>
        <time>2019-05-02T12:42:01Z</time>
      </trkpt>
      <trkpt lat="46.35288" lon="5.66003">
        <ele>626</ele>
        <time>2019-05-02T12:43:01Z</time>
      </trkpt>
      <trkpt lat="46.35274" lon="5.65988">
        <ele>624</ele>
        <time>2019-05-02T12:44:01Z</time>
      </trkpt>
      <trkpt lat="46.35264" lon="5.65974">
        <ele>622</ele>
        <time>2019-05-02T12:45:01Z</time>
      </trkpt>
      <trkpt lat="46.35255" lon="5.65958">
        <ele>620</ele>
        <time>2019-05-02T12:46:01Z</time>
      </trkpt>
      <trkpt lat="46.35247" lon="5.65945">
        <ele>618</ele>
        <time>2019-05-02T12:47:01Z</time>
      </trkpt>
      <trkpt lat="46.35243" lon="5.65934">
        <ele>617</ele>
        <time>2019-05-02T12:48:01Z</time>
      </trkpt>
      <trkpt lat="46.35236" lon="5.65924">
        <ele>617</ele>
        <time>2019-05-02T12:49:01Z</time>
      </trkpt>
      <trkpt lat="46.35222" lon="5.65907">
        <ele>617</ele>
        <time>2019-05-02T12:50:01Z</time>
      </trkpt>
      <trkpt lat="46.35214" lon="5.65898">
        <ele>617</ele>
        <time>2019-05-02T12:51:01Z</time>
      </trkpt>
      <trkpt lat="46.35205" lon="5.65891">
        <ele>618</ele>
        <time>2019-05-02T12:52:01Z</time>
      </trkpt>
      <trkpt lat="46.35177" lon="5.65863">
        <ele>617</ele>
        <time>2019-05-02T12:53:01Z</time>
      </trkpt>
      <trkpt lat="46.35158" lon="5.65848">
        <ele>617</ele>
        <time>2019-05-02T12:54:01Z</time>
      </trkpt>
      <trkpt lat="46.35145" lon="5.6584">
        <ele>616</ele>
        <time>2019-05-02T12:55:01Z</time>
      </trkpt>
      <trkpt lat="46.35143" lon="5.65839">
        <ele>616</ele>
        <time>2019-05-02T12:56:01Z</time>
      </trkpt>
      <trkpt lat="46.35136" lon="5.65838">
        <ele>616</ele>
        <time>2019-05-02T12:57:01Z</time>
      </trkpt>
      <trkpt lat="46.35123" lon="5.65834">
        <ele>616</ele>
        <time>2019-05-02T12:58:01Z</time>
      </trkpt>
      <trkpt lat="46.35113" lon="5.65833">
        <ele>616</ele>
        <time>2019-05-02T12:59:01Z</time>
      </trkpt>
      <trkpt lat="46.35102" lon="5.65827">
        <ele>616</ele>
        <time>2019-05-02T13:00:01Z</time>
      </trkpt>
      <trkpt lat="46.35087" lon="5.65822">
        <ele>616</ele>
        <time>2019-05-02T13:01:01Z</time>
      </trkpt>
      <trkpt lat="46.35086" lon="5.65822">
        <ele>616</ele>
        <time>2019-05-02T13:02:01Z</time>
      </trkpt>
      <trkpt lat="46.3508" lon="5.65823">
        <ele>616</ele>
        <time>2019-05-02T13:03:01Z</time>
      </trkpt>
      <trkpt lat="46.35075" lon="5.6583">
        <ele>616</ele>
        <time>2019-05-02T13:04:01Z</time>
      </trkpt>
      <trkpt lat="46.35067" lon="5.6584">
        <ele>616</ele>
        <time>2019-05-02T13:05:01Z</time>
      </trkpt>
      <trkpt lat="46.35057" lon="5.65853">
        <ele>617</ele>
        <time>2019-05-02T13:06:01Z</time>
      </trkpt>
      <trkpt lat="46.35051" lon="5.6586">
        <ele>617</ele>
        <time>2019-05-02T13:07:01Z</time>
      </trkpt>
      <trkpt lat="46.35046" lon="5.65864">
        <ele>617</ele>
        <time>2019-05-02T13:08:01Z</time>
      </trkpt>
      <trkpt lat="46.3504" lon="5.65868">
        <ele>617</ele>
        <time>2019-05-02T13:09:01Z</time>
      </trkpt>
      <trkpt lat="46.35033" lon="5.65869">
        <ele>617</ele>
        <time>2019-05-02T13:10:01Z</time>
      </trkpt>
      <trkpt lat="46.35027" lon="5.65868">
        <ele>617</ele>
        <time>2019-05-02T13:11:01Z</time>
      </trkpt>
      <trkpt lat="46.35019" lon="5.65864">
        <ele>616</ele>
        <time>2019-05-02T13:12:01Z</time>
      </trkpt>
      <trkpt lat="46.35005" lon="5.65853">
        <ele>614</ele>
        <time>2019-05-02T13:13:01Z</time>
      </trkpt>
      <trkpt lat="46.34992" lon="5.65842">
        <ele>612</ele>
        <time>2019-05-02T13:14:01Z</time>
      </trkpt>
      <trkpt lat="46.34982" lon="5.65835">
        <ele>611</ele>
        <time>2019-05-02T13:15:01Z</time>
      </trkpt>
      <trkpt lat="46.34973" lon="5.65833">
        <ele>611</ele>
        <time>2019-05-02T13:16:01Z</time>
      </trkpt>
      <trkpt lat="46.34963" lon="5.65836">
        <ele>611</ele>
        <time>2019-05-02T13:17:01Z</time>
      </trkpt>
      <trkpt lat="46.34952" lon="5.65841">
        <ele>613</ele>
        <time>2019-05-02T13:18:01Z</time>
      </trkpt>
      <trkpt lat="46.34944" lon="5.65842">
        <ele>613</ele>
        <time>2019-05-02T13:19:01Z</time>
      </trkpt>
      <trkpt lat="46.34928" lon="5.65838">
        <ele>612</ele>
        <time>2019-05-02T13:20:01Z</time>
      </trkpt>
      <trkpt lat="46.34921" lon="5.65833">
        <ele>611</ele>
        <time>2019-05-02T13:21:01Z</time>
      </trkpt>
      <trkpt lat="46.34911" lon="5.65817">
        <ele>610</ele>
        <time>2019-05-02T13:22:01Z</time>
      </trkpt>
      <trkpt lat="46.34901" lon="5.65797">
        <ele>608</ele>
        <time>2019-05-02T13:23:01Z</time>
      </trkpt>
      <trkpt lat="46.34886" lon="5.65772">
        <ele>606</ele>
        <time>2019-05-02T13:24:01Z</time>
      </trkpt>
      <trkpt lat="46.34873" lon="5.65751">
        <ele>603</ele>
        <time>2019-05-02T13:25:01Z</time>
      </trkpt>
      <trkpt lat="46.34863" lon="5.65736">
        <ele>602</ele>
        <time>2019-05-02T13:26:01Z</time>
      </trkpt>
      <trkpt lat="46.34857" lon="5.6573">
        <ele>601</ele>
        <time>2019-05-02T13:27:01Z</time>
      </trkpt>
      <trkpt lat="46.3485" lon="5.65727">
        <ele>601</ele>
        <time>2019-05-02T13:28:01Z</time>
      </trkpt>
      <trkpt lat="46.34838" lon="5.65727">
        <ele>602</ele>
        <time>2019-05-02T13:29:01Z</time>
      </trkpt>
      <trkpt lat="46.34831" lon="5.65727">
        <ele>603</ele>
        <time>2019-05-02T13:30:01Z</time>
      </trkpt>
      <trkpt lat="46.34822" lon="5.65727">
        <ele>603</ele>
        <time>2019-05-02T13:31:01Z</time>
      </trkpt>
      <trkpt lat="46.34814" lon="5.65725">
        <ele>603</ele>
        <time>2019-05-02T13:32:01Z</time>
      </trkpt>
      <trkpt lat="46.34807" lon="5.6572">
        <ele>602</ele>
        <time>2019-05-02T13:33:01Z</time>
      </trkpt>
      <trkpt lat="46.34797" lon="5.65708">
        <ele>600</ele>
        <time>2019-05-02T13:34:01Z</time>
      </trkpt>
      <trkpt lat="46.34777" lon="5.65682">
        <ele>595</ele>
        <time>2019-05-02T13:35:01Z</time>
      </trkpt>
      <trkpt lat="46.34766" lon="5.65666">
        <ele>593</ele>
        <time>2019-05-02T13:36:01Z</time>
      </trkpt>
      <trkpt lat="46.34762" lon="5.65659">
        <ele>592</ele>
        <time>2019-05-02T13:37:01Z</time>
      </trkpt>
      <trkpt lat="46.3476" lon="5.65654">
        <ele>592</ele>
        <time>2019-05-02T13:38:01Z</time>
      </trkpt>
      <trkpt lat="46.34758" lon="5.65645">
        <ele>591</ele>
        <time>2019-05-02T13:39:01Z</time>
      </trkpt>
      <trkpt lat="46.34758" lon="5.65636">
        <ele>590</ele>
        <time>2019-05-02T13:40:01Z</time>
      </trkpt>
      <trkpt lat="46.3476" lon="5.65626">
        <ele>590</ele>
        <time>2019-05-02T13:41:01Z</time>
      </trkpt>
      <trkpt lat="46.34765" lon="5.65614">
        <ele>589</ele>
        <time>2019-05-02T13:42:01Z</time>
      </trkpt>
      <trkpt lat="46.3477" lon="5.656">
        <ele>587</ele>
        <time>2019-05-02T13:43:01Z</time>
      </trkpt>
      <trkpt lat="46.34773" lon="5.65593">
        <ele>587</ele>
        <time>2019-05-02T13:44:01Z</time>
      </trkpt>
      <trkpt lat="46.34774" lon="5.65587">
        <ele>587</ele>
        <time>2019-05-02T13:45:01Z</time>
      </trkpt>
      <trkpt lat="46.34775" lon="5.65579">
        <ele>586</ele>
        <time>2019-05-02T13:46:01Z</time>
      </trkpt>
      <trkpt lat="46.3477" lon="5.65566">
        <ele>587</ele>
        <time>2019-05-02T13:47:01Z</time>
      </trkpt>
      <trkpt lat="46.34767" lon="5.65558">
        <ele>587</ele>
        <time>2019-05-02T13:48:01Z</time>
      </trkpt>
      <trkpt lat="46.3476" lon="5.65548">
        <ele>587</ele>
        <time>2019-05-02T13:49:01Z</time>
      </trkpt>
      <trkpt lat="46.34751" lon="5.65539">
        <ele>587</ele>
        <time>2019-05-02T13:50:01Z</time>
      </trkpt>
      <trkpt lat="46.34742" lon="5.65534">
        <ele>587</ele>
        <time>2019-05-02T13:51:01Z</time>
      </trkpt>
      <trkpt lat="46.34727" lon="5.65529">
        <ele>586</ele>
        <time>2019-05-02T13:52:01Z</time>
      </trkpt>
      <trkpt lat="46.3472" lon="5.65527">
        <ele>585</ele>
        <time>2019-05-02T13:53:01Z</time>
      </trkpt>
      <trkpt lat="46.3471" lon="5.65518">
        <ele>584</ele>
        <time>2019-05-02T13:54:01Z</time>
      </trkpt>
      <trkpt lat="46.34699" lon="5.6551">
        <ele>582</ele>
        <time>2019-05-02T13:55:01Z</time>
      </trkpt>
      <trkpt lat="46.34688" lon="5.65506">
        <ele>581</ele>
        <time>2019-05-02T13:56:01Z</time>
      </trkpt>
      <trkpt lat="46.3468" lon="5.65505">
        <ele>580</ele>
        <time>2019-05-02T13:57:01Z</time>
      </trkpt>
      <trkpt lat="46.34667" lon="5.655">
        <ele>578</ele>
        <time>2019-05-02T13:58:01Z</time>
      </trkpt>
      <trkpt lat="46.34658" lon="5.65495">
        <ele>578</ele>
        <time>2019-05-02T13:59:01Z</time>
      </trkpt>
      <trkpt lat="46.34649" lon="5.65489">
        <ele>578</ele>
        <time>2019-05-02T14:00:01Z</time>
      </trkpt>
      <trkpt lat="46.34642" lon="5.65486">
        <ele>578</ele>
        <time>2019-05-02T14:01:01Z</time>
      </trkpt>
      <trkpt lat="46.34629" lon="5.65482">
        <ele>577</ele>
        <time>2019-05-02T14:02:01Z</time>
      </trkpt>
      <trkpt lat="46.3462" lon="5.65477">
        <ele>577</ele>
        <time>2019-05-02T14:03:01Z</time>
      </trkpt>
      <trkpt lat="46.34613" lon="5.65471">
        <ele>576</ele>
        <time>2019-05-02T14:04:01Z</time>
      </trkpt>
      <trkpt lat="46.34608" lon="5.65466">
        <ele>575</ele>
        <time>2019-05-02T14:05:01Z</time>
      </trkpt>
      <trkpt lat="46.34604" lon="5.6546">
        <ele>574</ele>
        <time>2019-05-02T14:06:01Z</time>
      </trkpt>
      <trkpt lat="46.34601" lon="5.65456">
        <ele>573</ele>
        <time>2019-05-02T14:07:01Z</time>
      </trkpt>
      <trkpt lat="46.34596" lon="5.65448">
        <ele>571</ele>
        <time>2019-05-02T14:08:01Z</time>
      </trkpt>
      <trkpt lat="46.3459" lon="5.6544">
        <ele>569</ele>
        <time>2019-05-02T14:09:01Z</time>
      </trkpt>
      <trkpt lat="46.34581" lon="5.65421">
        <ele>565</ele>
        <time>2019-05-02T14:10:01Z</time>
      </trkpt>
      <trkpt lat="46.34574" lon="5.65405">
        <ele>565</ele>
        <time>2019-05-02T14:11:01Z</time>
      </trkpt>
      <trkpt lat="46.34568" lon="5.65391">
        <ele>565</ele>
        <time>2019-05-02T14:12:01Z</time>
      </trkpt>
      <trkpt lat="46.34557" lon="5.65367">
        <ele>564</ele>
        <time>2019-05-02T14:13:01Z</time>
      </trkpt>
      <trkpt lat="46.34547" lon="5.65349">
        <ele>563</ele>
        <time>2019-05-02T14:14:01Z</time>
      </trkpt>
      <trkpt lat="46.34539" lon="5.65337">
        <ele>562</ele>
        <time>2019-05-02T14:15:01Z</time>
      </trkpt>
      <trkpt lat="46.3453" lon="5.65325">
        <ele>561</ele>
        <time>2019-05-02T14:16:01Z</time>
      </trkpt>
      <trkpt lat="46.3452" lon="5.65315">
        <ele>559</ele>
        <time>2019-05-02T14:17:01Z</time>
      </trkpt>
      <trkpt lat="46.3451" lon="5.65305">
        <ele>557</ele>
        <time>2019-05-02T14:18:01Z</time>
      </trkpt>
      <trkpt lat="46.34502" lon="5.65297">
        <ele>554</ele>
        <time>2019-05-02T14:19:01Z</time>
      </trkpt>
      <trkpt lat="46.34493" lon="5.65287">
        <ele>549</ele>
        <time>2019-05-02T14:20:01Z</time>
      </trkpt>
      <trkpt lat="46.34484" lon="5.65273">
        <ele>542</ele>
        <time>2019-05-02T14:21:01Z</time>
      </trkpt>
      <trkpt lat="46.34477" lon="5.65266">
        <ele>537</ele>
        <time>2019-05-02T14:22:01Z</time>
      </trkpt>
      <trkpt lat="46.34471" lon="5.65262">
        <ele>533</ele>
        <time>2019-05-02T14:23:01Z</time>
      </trkpt>
      <trkpt lat="46.34465" lon="5.65262">
        <ele>531</ele>
        <time>2019-05-02T14:24:01Z</time>
      </trkpt>
      <trkpt lat="46.3446" lon="5.65262">
        <ele>529</ele>
        <time>2019-05-02T14:25:01Z</time>
      </trkpt>
      <trkpt lat="46.34453" lon="5.65268">
        <ele>530</ele>
        <time>2019-05-02T14:26:01Z</time>
      </trkpt>
      <trkpt lat="46.34443" lon="5.65278">
        <ele>532</ele>
        <time>2019-05-02T14:27:01Z</time>
      </trkpt>
      <trkpt lat="46.34434" lon="5.65285">
        <ele>533</ele>
        <time>2019-05-02T14:28:01Z</time>
      </trkpt>
      <trkpt lat="46.34424" lon="5.65293">
        <ele>535</ele>
        <time>2019-05-02T14:29:01Z</time>
      </trkpt>
      <trkpt lat="46.34412" lon="5.65301">
        <ele>535</ele>
        <time>2019-05-02T14:30:01Z</time>
      </trkpt>
      <trkpt lat="46.34402" lon="5.65308">
        <ele>533</ele>
        <time>2019-05-02T14:31:01Z</time>
      </trkpt>
      <trkpt lat="46.34378" lon="5.65324">
        <ele>529</ele>
        <time>2019-05-02T14:32:01Z</time>
      </trkpt>
      <trkpt lat="46.3436" lon="5.65337">
        <ele>528</ele>
        <time>2019-05-02T14:33:01Z</time>
      </trkpt>
      <trkpt lat="46.34346" lon="5.65349">
        <ele>528</ele>
        <time>2019-05-02T14:34:01Z</time>
      </trkpt>
      <trkpt lat="46.34338" lon="5.65357">
        <ele>530</ele>
        <time>2019-05-02T14:35:01Z</time>
      </trkpt>
      <trkpt lat="46.34313" lon="5.65383">
        <ele>536</ele>
        <time>2019-05-02T14:36:01Z</time>
      </trkpt>
      <trkpt lat="46.34304" lon="5.65391">
        <ele>537</ele>
        <time>2019-05-02T14:37:01Z</time>
      </trkpt>
      <trkpt lat="46.34297" lon="5.65396">
        <ele>537</ele>
        <time>2019-05-02T14:38:01Z</time>
      </trkpt>
      <trkpt lat="46.34289" lon="5.65399">
        <ele>535</ele>
        <time>2019-05-02T14:39:01Z</time>
      </trkpt>
      <trkpt lat="46.34266" lon="5.65403">
        <ele>527</ele>
        <time>2019-05-02T14:40:01Z</time>
      </trkpt>
      <trkpt lat="46.34246" lon="5.65402">
        <ele>517</ele>
        <time>2019-05-02T14:41:01Z</time>
      </trkpt>
      <trkpt lat="46.34234" lon="5.65401">
        <ele>511</ele>
        <time>2019-05-02T14:42:01Z</time>
      </trkpt>
      <trkpt lat="46.34228" lon="5.65401">
        <ele>509</ele>
        <time>2019-05-02T14:43:01Z</time>
      </trkpt>
      <trkpt lat="46.34218" lon="5.65399">
        <ele>503</ele>
        <time>2019-05-02T14:44:01Z</time>
      </trkpt>
      <trkpt lat="46.34211" lon="5.65398">
        <ele>500</ele>
        <time>2019-05-02T14:45:01Z</time>
      </trkpt>
      <trkpt lat="46.34204" lon="5.65397">
        <ele>496</ele>
        <time>2019-05-02T14:46:01Z</time>
      </trkpt>
      <trkpt lat="46.34199" lon="5.65398">
        <ele>495</ele>
        <time>2019-05-02T14:47:01Z</time>
      </trkpt>
      <trkpt lat="46.34195" lon="5.65399">
        <ele>494</ele>
        <time>2019-05-02T14:48:01Z</time>
      </trkpt>
      <trkpt lat="46.34191" lon="5.65401">
        <ele>493</ele>
        <time>2019-05-02T14:49:01Z</time>
      </trkpt>
      <trkpt lat="46.34188" lon="5.65404">
        <ele>493</ele>
        <time>2019-05-02T14:50:01Z</time>
      </trkpt>
      <trkpt lat="46.34184" lon="5.6541">
        <ele>495</ele>
        <time>2019-05-02T14:51:01Z</time>
      </trkpt>
      <trkpt lat="46.34181" lon="5.65415">
        <ele>496</ele>
        <time>2019-05-02T14:52:01Z</time>
      </trkpt>
      <trkpt lat="46.34176" lon="5.65422">
        <ele>498</ele>
        <time>2019-05-02T14:53:01Z</time>
      </trkpt>
      <trkpt lat="46.3417" lon="5.65427">
        <ele>498</ele>
        <time>2019-05-02T14:54:01Z</time>
      </trkpt>
      <trkpt lat="46.34165" lon="5.65431">
        <ele>498</ele>
        <time>2019-05-02T14:55:01Z</time>
      </trkpt>
      <trkpt lat="46.34159" lon="5.65433">
        <ele>497</ele>
        <time>2019-05-02T14:56:01Z</time>
      </trkpt>
      <trkpt lat="46.34154" lon="5.65437">
        <ele>497</ele>
        <time>2019-05-02T14:57:01Z</time>
      </trkpt>
      <trkpt lat="46.34148" lon="5.65441">
        <ele>496</ele>
        <time>2019-05-02T14:58:01Z</time>
      </trkpt>
      <trkpt lat="46.34143" lon="5.65448">
        <ele>498</ele>
        <time>2019-05-02T14:59:01Z</time>
      </trkpt>
      <trkpt lat="46.34138" lon="5.65456">
        <ele>500</ele>
        <time>2019-05-02T15:00:01Z</time>
      </trkpt>
      <trkpt lat="46.34134" lon="5.65463">
        <ele>502</ele>
        <time>2019-05-02T15:01:01Z</time>
      </trkpt>
      <trkpt lat="46.34125" lon="5.65476">
        <ele>505</ele>
        <time>2019-05-02T15:02:01Z</time>
      </trkpt>
      <trkpt lat="46.34119" lon="5.65483">
        <ele>506</ele>
        <time>2019-05-02T15:03:01Z</time>
      </trkpt>
      <trkpt lat="46.34113" lon="5.65489">
        <ele>507</ele>
        <time>2019-05-02T15:04:01Z</time>
      </trkpt>
      <trkpt lat="46.34106" lon="5.65493">
        <ele>506</ele>
        <time>2019-05-02T15:05:01Z</time>
      </trkpt>
      <trkpt lat="46.34093" lon="5.65498">
        <ele>503</ele>
        <time>2019-05-02T15:06:01Z</time>
      </trkpt>
      <trkpt lat="46.34073" lon="5.65504">
        <ele>499</ele>
        <time>2019-05-02T15:07:01Z</time>
      </trkpt>
      <trkpt lat="46.34007" lon="5.65529">
        <ele>491</ele>
        <time>2019-05-02T15:08:01Z</time>
      </trkpt>
      <trkpt lat="46.33977" lon="5.65538">
        <ele>487</ele>
        <time>2019-05-02T15:09:01Z</time>
      </trkpt>
      <trkpt lat="46.33952" lon="5.65545">
        <ele>485</ele>
        <time>2019-05-02T15:10:01Z</time>
      </trkpt>
      <trkpt lat="46.33932" lon="5.65547">
        <ele>482</ele>
        <time>2019-05-02T15:11:01Z</time>
      </trkpt>
      <trkpt lat="46.33903" lon="5.6555">
        <ele>478</ele>
        <time>2019-05-02T15:12:01Z</time>
      </trkpt>
      <trkpt lat="46.33879" lon="5.65552">
        <ele>475</ele>
        <time>2019-05-02T15:13:01Z</time>
      </trkpt>
      <trkpt lat="46.33858" lon="5.65553">
        <ele>472</ele>
        <time>2019-05-02T15:14:01Z</time>
      </trkpt>
      <trkpt lat="46.33845" lon="5.65557">
        <ele>472</ele>
        <time>2019-05-02T15:15:01Z</time>
      </trkpt>
      <trkpt lat="46.33832" lon="5.65563">
        <ele>473</ele>
        <time>2019-05-02T15:16:01Z</time>
      </trkpt>
      <trkpt lat="46.33826" lon="5.65565">
        <ele>474</ele>
        <time>2019-05-02T15:17:01Z</time>
      </trkpt>
      <trkpt lat="46.33817" lon="5.65567">
        <ele>474</ele>
        <time>2019-05-02T15:18:01Z</time>
      </trkpt>
      <trkpt lat="46.33807" lon="5.65569">
        <ele>473</ele>
        <time>2019-05-02T15:19:01Z</time>
      </trkpt>
      <trkpt lat="46.33796" lon="5.65569">
        <ele>472</ele>
        <time>2019-05-02T15:20:01Z</time>
      </trkpt>
      <trkpt lat="46.33786" lon="5.65568">
        <ele>470</ele>
        <time>2019-05-02T15:21:01Z</time>
      </trkpt>
      <trkpt lat="46.3378" lon="5.65567">
        <ele>469</ele>
        <time>2019-05-02T15:22:01Z</time>
      </trkpt>
      <trkpt lat="46.33776" lon="5.65566">
        <ele>468</ele>
        <time>2019-05-02T15:23:01Z</time>
      </trkpt>
      <trkpt lat="46.33774" lon="5.65563">
        <ele>466</ele>
        <time>2019-05-02T15:24:01Z</time>
      </trkpt>
      <trkpt lat="46.33773" lon="5.65559">
        <ele>464</ele>
        <time>2019-05-02T15:25:01Z</time>
      </trkpt>
      <trkpt lat="46.33774" lon="5.65554">
        <ele>462</ele>
        <time>2019-05-02T15:26:01Z</time>
      </trkpt>
      <trkpt lat="46.33776" lon="5.65551">
        <ele>461</ele>
        <time>2019-05-02T15:27:01Z</time>
      </trkpt>
      <trkpt lat="46.33781" lon="5.6555">
        <ele>461</ele>
        <time>2019-05-02T15:28:01Z</time>
      </trkpt>
      <trkpt lat="46.33788" lon="5.65551">
        <ele>462</ele>
        <time>2019-05-02T15:29:01Z</time>
      </trkpt>
      <trkpt lat="46.33794" lon="5.65552">
        <ele>463</ele>
        <time>2019-05-02T15:30:01Z</time>
      </trkpt>
      <trkpt lat="46.33805" lon="5.65551">
        <ele>464</ele>
        <time>2019-05-02T15:31:01Z</time>
      </trkpt>
      <trkpt lat="46.33814" lon="5.65548">
        <ele>463</ele>
        <time>2019-05-02T15:32:01Z</time>
      </trkpt>
      <trkpt lat="46.33827" lon="5.65538">
        <ele>458</ele>
        <time>2019-05-02T15:33:01Z</time>
      </trkpt>
      <trkpt lat="46.33872" lon="5.65508">
        <ele>449</ele>
        <time>2019-05-02T15:34:01Z</time>
      </trkpt>
      <trkpt lat="46.33925" lon="5.65475">
        <ele>443</ele>
        <time>2019-05-02T15:35:01Z</time>
      </trkpt>
      <trkpt lat="46.33952" lon="5.65461">
        <ele>442</ele>
        <time>2019-05-02T15:36:01Z</time>
      </trkpt>
      <trkpt lat="46.3398" lon="5.6544">
        <ele>438</ele>
        <time>2019-05-02T15:37:01Z</time>
      </trkpt>
      <trkpt lat="46.34007" lon="5.6542">
        <ele>434</ele>
        <time>2019-05-02T15:38:01Z</time>
      </trkpt>
      <trkpt lat="46.34028" lon="5.65403">
        <ele>431</ele>
        <time>2019-05-02T15:39:01Z</time>
      </trkpt>
      <trkpt lat="46.3405" lon="5.65385">
        <ele>429</ele>
        <time>2019-05-02T15:40:01Z</time>
      </trkpt>
      <trkpt lat="46.34072" lon="5.65364">
        <ele>424</ele>
        <time>2019-05-02T15:41:01Z</time>
      </trkpt>
      <trkpt lat="46.34091" lon="5.65344">
        <ele>420</ele>
        <time>2019-05-02T15:42:01Z</time>
      </trkpt>
      <trkpt lat="46.34109" lon="5.65324">
        <ele>418</ele>
        <time>2019-05-02T15:43:01Z</time>
      </trkpt>
      <trkpt lat="46.34125" lon="5.65305">
        <ele>415</ele>
        <time>2019-05-02T15:44:01Z</time>
      </trkpt>
      <trkpt lat="46.34143" lon="5.65287">
        <ele>412</ele>
        <time>2019-05-02T15:45:01Z</time>
      </trkpt>
      <trkpt lat="46.34156" lon="5.65275">
        <ele>410</ele>
        <time>2019-05-02T15:46:01Z</time>
      </trkpt>
      <trkpt lat="46.34171" lon="5.65261">
        <ele>407</ele>
        <time>2019-05-02T15:47:01Z</time>
      </trkpt>
      <trkpt lat="46.34185" lon="5.6525">
        <ele>405</ele>
        <time>2019-05-02T15:48:01Z</time>
      </trkpt>
      <trkpt lat="46.34204" lon="5.65235">
        <ele>403</ele>
        <time>2019-05-02T15:49:01Z</time>
      </trkpt>
      <trkpt lat="46.34237" lon="5.65211">
        <ele>400</ele>
        <time>2019-05-02T15:50:01Z</time>
      </trkpt>
      <trkpt lat="46.34259" lon="5.65195">
        <ele>398</ele>
        <time>2019-05-02T15:51:01Z</time>
      </trkpt>
      <trkpt lat="46.3428" lon="5.65181">
        <ele>397</ele>
        <time>2019-05-02T15:52:01Z</time>
      </trkpt>
      <trkpt lat="46.3429" lon="5.65177">
        <ele>398</ele>
        <time>2019-05-02T15:53:01Z</time>
      </trkpt>
      <trkpt lat="46.34301" lon="5.65174">
        <ele>399</ele>
        <time>2019-05-02T15:54:01Z</time>
      </trkpt>
      <trkpt lat="46.34314" lon="5.65174">
        <ele>403</ele>
        <time>2019-05-02T15:55:01Z</time>
      </trkpt>
      <trkpt lat="46.34321" lon="5.65173">
        <ele>404</ele>
        <time>2019-05-02T15:56:01Z</time>
      </trkpt>
      <trkpt lat="46.3433" lon="5.65169">
        <ele>405</ele>
        <time>2019-05-02T15:57:01Z</time>
      </trkpt>
      <trkpt lat="46.3434" lon="5.65162">
        <ele>408</ele>
        <time>2019-05-02T15:58:01Z</time>
      </trkpt>
      <trkpt lat="46.3435" lon="5.65156">
        <ele>415</ele>
        <time>2019-05-02T15:59:01Z</time>
      </trkpt>
      <trkpt lat="46.34359" lon="5.65148">
        <ele>419</ele>
        <time>2019-05-02T16:00:01Z</time>
      </trkpt>
      <trkpt lat="46.34363" lon="5.65144">
        <ele>421</ele>
        <time>2019-05-02T16:01:01Z</time>
      </trkpt>
      <trkpt lat="46.34365" lon="5.65138">
        <ele>420</ele>
        <time>2019-05-02T16:02:01Z</time>
      </trkpt>
      <trkpt lat="46.34367" lon="5.65132">
        <ele>419</ele>
        <time>2019-05-02T16:03:01Z</time>
      </trkpt>
      <trkpt lat="46.34367" lon="5.65125">
        <ele>416</ele>
        <time>2019-05-02T16:04:01Z</time>
      </trkpt>
      <trkpt lat="46.34366" lon="5.65117">
        <ele>411</ele>
        <time>2019-05-02T16:05:01Z</time>
      </trkpt>
      <trkpt lat="46.34365" lon="5.65108">
        <ele>406</ele>
        <time>2019-05-02T16:06:01Z</time>
      </trkpt>
      <trkpt lat="46.34366" lon="5.65092">
        <ele>399</ele>
        <time>2019-05-02T16:07:01Z</time>
      </trkpt>
      <trkpt lat="46.34369" lon="5.65073">
        <ele>394</ele>
        <time>2019-05-02T16:08:01Z</time>
      </trkpt>
      <trkpt lat="46.34372" lon="5.6505">
        <ele>389</ele>
        <time>2019-05-02T16:09:01Z</time>
      </trkpt>
      <trkpt lat="46.34377" lon="5.65026">
        <ele>384</ele>
        <time>2019-05-02T16:10:01Z</time>
      </trkpt>
      <trkpt lat="46.34382" lon="5.65004">
        <ele>379</ele>
        <time>2019-05-02T16:11:01Z</time>
      </trkpt>
      <trkpt lat="46.34387" lon="5.64983">
        <ele>375</ele>
        <time>2019-05-02T16:12:01Z</time>
      </trkpt>
      <trkpt lat="46.34392" lon="5.64966">
        <ele>372</ele>
        <time>2019-05-02T16:13:01Z</time>
      </trkpt>
      <trkpt lat="46.34398" lon="5.64951">
        <ele>370</ele>
        <time>2019-05-02T16:14:01Z</time>
      </trkpt>
      <trkpt lat="46.34407" lon="5.64934">
        <ele>369</ele>
        <time>2019-05-02T16:15:01Z</time>
      </trkpt>
      <trkpt lat="46.34414" lon="5.64918">
        <ele>366</ele>
        <time>2019-05-02T16:16:01Z</time>
      </trkpt>
      <trkpt lat="46.34419" lon="5.64902">
        <ele>364</ele>
        <time>2019-05-02T16:17:01Z</time>
      </trkpt>
      <trkpt lat="46.34424" lon="5.64884">
        <ele>362</ele>
        <time>2019-05-02T16:18:01Z</time>
      </trkpt>
      <trkpt lat="46.34432" lon="5.64859">
        <ele>358</ele>
        <time>2019-05-02T16:19:01Z</time>
      </trkpt>
      <trkpt lat="46.34442" lon="5.64833">
        <ele>356</ele>
        <time>2019-05-02T16:20:01Z</time>
      </trkpt>
      <trkpt lat="46.3445" lon="5.64808">
        <ele>353</ele>
        <time>2019-05-02T16:21:01Z</time>
      </trkpt>
      <trkpt lat="46.34469" lon="5.64759">
        <ele>346</ele>
        <time>2019-05-02T16:22:01Z</time>
      </trkpt>
      <trkpt lat="46.34479" lon="5.64736">
        <ele>345</ele>
        <time>2019-05-02T16:23:01Z</time>
      </trkpt>
      <trkpt lat="46.34486" lon="5.64718">
        <ele>343</ele>
        <time>2019-05-02T16:24:01Z</time>
      </trkpt>
      <trkpt lat="46.34495" lon="5.64697">
        <ele>341</ele>
        <time>2019-05-02T16:25:01Z</time>
      </trkpt>
      <trkpt lat="46.34502" lon="5.64679">
        <ele>339</ele>
        <time>2019-05-02T16:26:01Z</time>
      </trkpt>
      <trkpt lat="46.34509" lon="5.64663">
        <ele>338</ele>
        <time>2019-05-02T16:27:01Z</time>
      </trkpt>
      <trkpt lat="46.34537" lon="5.64601">
        <ele>335</ele>
        <time>2019-05-02T16:28:01Z</time>
      </trkpt>
      <trkpt lat="46.34551" lon="5.64566">
        <ele>334</ele>
        <time>2019-05-02T16:29:01Z</time>
      </trkpt>
      <trkpt lat="46.34552" lon="5.64554">
        <ele>333</ele>
        <time>2019-05-02T16:30:01Z</time>
      </trkpt>
      <trkpt lat="46.34552" lon="5.64543">
        <ele>332</ele>
        <time>2019-05-02T16:31:01Z</time>
      </trkpt>
      <trkpt lat="46.34554" lon="5.64535">
        <ele>332</ele>
        <time>2019-05-02T16:32:01Z</time>
      </trkpt>
      <trkpt lat="46.34554" lon="5.64535">
        <ele>332</ele>
        <time>2019-05-02T16:33:01Z</time>
      </trkpt>
      <trkpt lat="46.34546" lon="5.64528">
        <ele>329</ele>
        <time>2019-05-02T16:34:01Z</time>
      </trkpt>
      <trkpt lat="46.34542" lon="5.64524">
        <ele>328</ele>
        <time>2019-05-02T16:35:01Z</time>
      </trkpt>
      <trkpt lat="46.34539" lon="5.64516">
        <ele>327</ele>
        <time>2019-05-02T16:36:01Z</time>
      </trkpt>
      <trkpt lat="46.34538" lon="5.64507">
        <ele>326</ele>
        <time>2019-05-02T16:37:01Z</time>
      </trkpt>
      <trkpt lat="46.34536" lon="5.64491">
        <ele>324</ele>
        <time>2019-05-02T16:38:01Z</time>
      </trkpt>
      <trkpt lat="46.34533" lon="5.64474">
        <ele>322</ele>
        <time>2019-05-02T16:39:01Z</time>
      </trkpt>
      <trkpt lat="46.34531" lon="5.64466">
        <ele>321</ele>
        <time>2019-05-02T16:40:01Z</time>
      </trkpt>
      <trkpt lat="46.34531" lon="5.64466">
        <ele>321</ele>
        <time>2019-05-02T16:41:01Z</time>
      </trkpt>
      <trkpt lat="46.34536" lon="5.64456">
        <ele>321</ele>
        <time>2019-05-02T16:42:01Z</time>
      </trkpt>
      <trkpt lat="46.34539" lon="5.64448">
        <ele>321</ele>
        <time>2019-05-02T16:43:01Z</time>
      </trkpt>
      <trkpt lat="46.34541" lon="5.64438">
        <ele>321</ele>
        <time>2019-05-02T16:44:01Z</time>
      </trkpt>
      <trkpt lat="46.34545" lon="5.64421">
        <ele>320</ele>
        <time>2019-05-02T16:45:01Z</time>
      </trkpt>
      <trkpt lat="46.34551" lon="5.644">
        <ele>320</ele>
        <time>2019-05-02T16:46:01Z</time>
      </trkpt>
      <trkpt lat="46.34558" lon="5.64387">
        <ele>321</ele>
        <time>2019-05-02T16:47:01Z</time>
      </trkpt>
      <trkpt lat="46.34567" lon="5.64377">
        <ele>322</ele>
        <time>2019-05-02T16:48:01Z</time>
      </trkpt>
      <trkpt lat="46.34582" lon="5.64356">
        <ele>322</ele>
        <time>2019-05-02T16:49:01Z</time>
      </trkpt>
      <trkpt lat="46.34589" lon="5.64342">
        <ele>323</ele>
        <time>2019-05-02T16:50:01Z</time>
      </trkpt>
      <trkpt lat="46.34597" lon="5.64322">
        <ele>324</ele>
        <time>2019-05-02T16:51:01Z</time>
      </trkpt>
      <trkpt lat="46.34604" lon="5.64301">
        <ele>324</ele>
        <time>2019-05-02T16:52:01Z</time>
      </trkpt>
      <trkpt lat="46.3461" lon="5.6428">
        <ele>324</ele>
        <time>2019-05-02T16:53:01Z</time>
      </trkpt>
      <trkpt lat="46.34618" lon="5.64258">
        <ele>325</ele>
        <time>2019-05-02T16:54:01Z</time>
      </trkpt>
      <trkpt lat="46.34626" lon="5.64232">
        <ele>326</ele>
        <time>2019-05-02T16:55:01Z</time>
      </trkpt>
      <trkpt lat="46.34633" lon="5.64211">
        <ele>327</ele>
        <time>2019-05-02T16:56:01Z</time>
      </trkpt>
      <trkpt lat="46.34637" lon="5.64198">
        <ele>327</ele>
        <time>2019-05-02T16:57:01Z</time>
      </trkpt>
      <trkpt lat="46.34639" lon="5.64181">
        <ele>327</ele>
        <time>2019-05-02T16:58:01Z</time>
      </trkpt>
      <trkpt lat="46.3464" lon="5.64155">
        <ele>328</ele>
        <time>2019-05-02T16:59:01Z</time>
      </trkpt>
      <trkpt lat="46.3464" lon="5.64133">
        <ele>328</ele>
        <time>2019-05-02T17:00:01Z</time>
      </trkpt>
      <trkpt lat="46.3464" lon="5.6412">
        <ele>329</ele>
        <time>2019-05-02T17:01:01Z</time>
      </trkpt>
      <trkpt lat="46.34643" lon="5.64094">
        <ele>330</ele>
        <time>2019-05-02T17:02:01Z</time>
      </trkpt>
      <trkpt lat="46.34644" lon="5.6408">
        <ele>331</ele>
        <time>2019-05-02T17:03:01Z</time>
      </trkpt>
      <trkpt lat="46.34643" lon="5.64071">
        <ele>333</ele>
        <time>2019-05-02T17:04:01Z</time>
      </trkpt>
      <trkpt lat="46.34639" lon="5.6406">
        <ele>335</ele>
        <time>2019-05-02T17:05:01Z</time>
      </trkpt>
      <trkpt lat="46.34636" lon="5.64054">
        <ele>337</ele>
        <time>2019-05-02T17:06:01Z</time>
      </trkpt>
      <trkpt lat="46.34632" lon="5.64049">
        <ele>338</ele>
        <time>2019-05-02T17:07:01Z</time>
      </trkpt>
      <trkpt lat="46.34624" lon="5.64047">
        <ele>338</ele>
        <time>2019-05-02T17:08:01Z</time>
      </trkpt>
      <trkpt lat="46.34616" lon="5.64048">
        <ele>338</ele>
        <time>2019-05-02T17:09:01Z</time>
      </trkpt>
      <trkpt lat="46.34606" lon="5.64052">
        <ele>337</ele>
        <time>2019-05-02T17:10:01Z</time>
      </trkpt>
      <trkpt lat="46.34598" lon="5.64053">
        <ele>336</ele>
        <time>2019-05-02T17:11:01Z</time>
      </trkpt>
      <trkpt lat="46.34575" lon="5.64053">
        <ele>336</ele>
        <time>2019-05-02T17:12:01Z</time>
      </trkpt>
      <trkpt lat="46.34546" lon="5.6405">
        <ele>337</ele>
        <time>2019-05-02T17:13:01Z</time>
      </trkpt>
      <trkpt lat="46.34528" lon="5.64052">
        <ele>336</ele>
        <time>2019-05-02T17:14:01Z</time>
      </trkpt>
      <trkpt lat="46.3452" lon="5.64052">
        <ele>336</ele>
        <time>2019-05-02T17:15:01Z</time>
      </trkpt>
      <trkpt lat="46.34511" lon="5.64053">
        <ele>336</ele>
        <time>2019-05-02T17:16:01Z</time>
      </trkpt>
      <trkpt lat="46.345" lon="5.64053">
        <ele>336</ele>
        <time>2019-05-02T17:17:01Z</time>
      </trkpt>
      <trkpt lat="46.34486" lon="5.6405">
        <ele>334</ele>
        <time>2019-05-02T17:18:01Z</time>
      </trkpt>
      <trkpt lat="46.34474" lon="5.64045">
        <ele>333</ele>
        <time>2019-05-02T17:19:01Z</time>
      </trkpt>
      <trkpt lat="46.34461" lon="5.64037">
        <ele>332</ele>
        <time>2019-05-02T17:20:01Z</time>
      </trkpt>
      <trkpt lat="46.34451" lon="5.64026">
        <ele>331</ele>
        <time>2019-05-02T17:21:01Z</time>
      </trkpt>
      <trkpt lat="46.34436" lon="5.64005">
        <ele>330</ele>
        <time>2019-05-02T17:22:01Z</time>
      </trkpt>
      <trkpt lat="46.34421" lon="5.63984">
        <ele>329</ele>
        <time>2019-05-02T17:23:01Z</time>
      </trkpt>
      <trkpt lat="46.34406" lon="5.63966">
        <ele>328</ele>
        <time>2019-05-02T17:24:01Z</time>
      </trkpt>
      <trkpt lat="46.34392" lon="5.63947">
        <ele>326</ele>
        <time>2019-05-02T17:25:01Z</time>
      </trkpt>
      <trkpt lat="46.3438" lon="5.63924">
        <ele>325</ele>
        <time>2019-05-02T17:26:01Z</time>
      </trkpt>
      <trkpt lat="46.3437" lon="5.639">
        <ele>324</ele>
        <time>2019-05-02T17:27:01Z</time>
      </trkpt>
      <trkpt lat="46.34362" lon="5.63878">
        <ele>324</ele>
        <time>2019-05-02T17:28:01Z</time>
      </trkpt>
      <trkpt lat="46.34355" lon="5.63855">
        <ele>324</ele>
        <time>2019-05-02T17:29:01Z</time>
      </trkpt>
      <trkpt lat="46.34351" lon="5.63835">
        <ele>324</ele>
        <time>2019-05-02T17:30:01Z</time>
      </trkpt>
      <trkpt lat="46.3435" lon="5.63819">
        <ele>325</ele>
        <time>2019-05-02T17:31:01Z</time>
      </trkpt>
      <trkpt lat="46.3435" lon="5.63796">
        <ele>326</ele>
        <time>2019-05-02T17:32:01Z</time>
      </trkpt>
      <trkpt lat="46.34352" lon="5.63773">
        <ele>329</ele>
        <time>2019-05-02T17:33:01Z</time>
      </trkpt>
      <trkpt lat="46.34352" lon="5.63753">
        <ele>331</ele>
        <time>2019-05-02T17:34:01Z</time>
      </trkpt>
      <trkpt lat="46.3435" lon="5.63729">
        <ele>329</ele>
        <time>2019-05-02T17:35:01Z</time>
      </trkpt>
      <trkpt lat="46.34348" lon="5.63709">
        <ele>326</ele>
        <time>2019-05-02T17:36:01Z</time>
      </trkpt>
      <trkpt lat="46.34348" lon="5.63683">
        <ele>324</ele>
        <time>2019-05-02T17:37:01Z</time>
      </trkpt>
      <trkpt lat="46.34349" lon="5.63663">
        <ele>324</ele>
        <time>2019-05-02T17:38:01Z</time>
      </trkpt>
      <trkpt lat="46.34354" lon="5.63645">
        <ele>326</ele>
        <time>2019-05-02T17:39:01Z</time>
      </trkpt>
      <trkpt lat="46.34359" lon="5.6362">
        <ele>327</ele>
        <time>2019-05-02T17:40:01Z</time>
      </trkpt>
      <trkpt lat="46.34361" lon="5.63602">
        <ele>326</ele>
        <time>2019-05-02T17:41:01Z</time>
      </trkpt>
      <trkpt lat="46.34361" lon="5.63588">
        <ele>325</ele>
        <time>2019-05-02T17:42:01Z</time>
      </trkpt>
      <trkpt lat="46.34362" lon="5.6357">
        <ele>323</ele>
        <time>2019-05-02T17:43:01Z</time>
      </trkpt>
      <trkpt lat="46.34364" lon="5.63552">
        <ele>322</ele>
        <time>2019-05-02T17:44:01Z</time>
      </trkpt>
      <trkpt lat="46.34369" lon="5.63533">
        <ele>322</ele>
        <time>2019-05-02T17:45:01Z</time>
      </trkpt>
      <trkpt lat="46.34375" lon="5.63509">
        <ele>321</ele>
        <time>2019-05-02T17:46:01Z</time>
      </trkpt>
      <trkpt lat="46.3438" lon="5.63486">
        <ele>321</ele>
        <time>2019-05-02T17:47:01Z</time>
      </trkpt>
      <trkpt lat="46.34386" lon="5.63455">
        <ele>320</ele>
        <time>2019-05-02T17:48:01Z</time>
      </trkpt>
      <trkpt lat="46.34388" lon="5.63439">
        <ele>319</ele>
        <time>2019-05-02T17:49:01Z</time>
      </trkpt>
      <trkpt lat="46.34392" lon="5.6342">
        <ele>319</ele>
        <time>2019-05-02T17:50:01Z</time>
      </trkpt>
      <trkpt lat="46.34396" lon="5.63406">
        <ele>319</ele>
        <time>2019-05-02T17:51:01Z</time>
      </trkpt>
      <trkpt lat="46.34401" lon="5.63394">
        <ele>319</ele>
        <time>2019-05-02T17:52:01Z</time>
      </trkpt>
      <trkpt lat="46.34405" lon="5.63385">
        <ele>318</ele>
        <time>2019-05-02T17:53:01Z</time>
      </trkpt>
      <trkpt lat="46.34418" lon="5.63365">
        <ele>318</ele>
        <time>2019-05-02T17:54:01Z</time>
      </trkpt>
      <trkpt lat="46.34432" lon="5.63341">
        <ele>317</ele>
        <time>2019-05-02T17:55:01Z</time>
      </trkpt>
      <trkpt lat="46.34441" lon="5.63326">
        <ele>317</ele>
        <time>2019-05-02T17:56:01Z</time>
      </trkpt>
      <trkpt lat="46.34452" lon="5.6331">
        <ele>316</ele>
        <time>2019-05-02T17:57:01Z</time>
      </trkpt>
      <trkpt lat="46.34459" lon="5.63301">
        <ele>316</ele>
        <time>2019-05-02T17:58:01Z</time>
      </trkpt>
      <trkpt lat="46.34466" lon="5.63292">
        <ele>315</ele>
        <time>2019-05-02T17:59:01Z</time>
      </trkpt>
      <trkpt lat="46.34474" lon="5.63286">
        <ele>315</ele>
        <time>2019-05-02T18:00:01Z</time>
      </trkpt>
      <trkpt lat="46.34479" lon="5.63283">
        <ele>315</ele>
        <time>2019-05-02T18:01:01Z</time>
      </trkpt>
      <trkpt lat="46.34486" lon="5.63278">
        <ele>314</ele>
        <time>2019-05-02T18:02:01Z</time>
      </trkpt>
      <trkpt lat="46.34504" lon="5.63275">
        <ele>314</ele>
        <time>2019-05-02T18:03:01Z</time>
      </trkpt>
      <trkpt lat="46.34523" lon="5.63272">
        <ele>314</ele>
        <time>2019-05-02T18:04:01Z</time>
      </trkpt>
      <trkpt lat="46.34563" lon="5.63269">
        <ele>314</ele>
        <time>2019-05-02T18:05:01Z</time>
      </trkpt>
      <trkpt lat="46.34606" lon="5.63268">
        <ele>315</ele>
        <time>2019-05-02T18:06:01Z</time>
      </trkpt>
      <trkpt lat="46.34626" lon="5.63268">
        <ele>316</ele>
        <time>2019-05-02T18:07:01Z</time>
      </trkpt>
      <trkpt lat="46.34649" lon="5.63269">
        <ele>317</ele>
        <time>2019-05-02T18:08:01Z</time>
      </trkpt>
      <trkpt lat="46.34669" lon="5.63271">
        <ele>318</ele>
        <time>2019-05-02T18:09:01Z</time>
      </trkpt>
      <trkpt lat="46.34698" lon="5.63276">
        <ele>318</ele>
        <time>2019-05-02T18:10:01Z</time>
      </trkpt>
      <trkpt lat="46.34709" lon="5.63278">
        <ele>319</ele>
        <time>2019-05-02T18:11:01Z</time>
      </trkpt>
      <trkpt lat="46.34751" lon="5.63287">
        <ele>320</ele>
        <time>2019-05-02T18:12:01Z</time>
      </trkpt>
      <trkpt lat="46.34791" lon="5.63296">
        <ele>320</ele>
        <time>2019-05-02T18:13:01Z</time>
      </trkpt>
      <trkpt lat="46.34809" lon="5.633">
        <ele>320</ele>
        <time>2019-05-02T18:14:01Z</time>
      </trkpt>
      <trkpt lat="46.34833" lon="5.63303">
        <ele>320</ele>
        <time>2019-05-02T18:15:01Z</time>
      </trkpt>
      <trkpt lat="46.34848" lon="5.63298">
        <ele>318</ele>
        <time>2019-05-02T18:16:01Z</time>
      </trkpt>
      <trkpt lat="46.34859" lon="5.63287">
        <ele>316</ele>
        <time>2019-05-02T18:17:01Z</time>
      </trkpt>
      <trkpt lat="46.34868" lon="5.63276">
        <ele>313</ele>
        <time>2019-05-02T18:18:01Z</time>
      </trkpt>
      <trkpt lat="46.34887" lon="5.63248">
        <ele>307</ele>
        <time>2019-05-02T18:19:01Z</time>
      </trkpt>
      <trkpt lat="46.34921" lon="5.63199">
        <ele>306</ele>
        <time>2019-05-02T18:20:01Z</time>
      </trkpt>
      <trkpt lat="46.34928" lon="5.63189">
        <ele>307</ele>
        <time>2019-05-02T18:21:01Z</time>
      </trkpt>
      <trkpt lat="46.3493" lon="5.63184">
        <ele>307</ele>
        <time>2019-05-02T18:22:01Z</time>
      </trkpt>
      <trkpt lat="46.34932" lon="5.63178">
        <ele>308</ele>
        <time>2019-05-02T18:23:01Z</time>
      </trkpt>
      <trkpt lat="46.34934" lon="5.6317">
        <ele>308</ele>
        <time>2019-05-02T18:24:01Z</time>
      </trkpt>
      <trkpt lat="46.34934" lon="5.6317">
        <ele>308</ele>
        <time>2019-05-02T18:25:01Z</time>
      </trkpt>
      <trkpt lat="46.34946" lon="5.63159">
        <ele>312</ele>
        <time>2019-05-02T18:26:01Z</time>
      </trkpt>
      <trkpt lat="46.34952" lon="5.63155">
        <ele>313</ele>
        <time>2019-05-02T18:27:01Z</time>
      </trkpt>
      <trkpt lat="46.34959" lon="5.63153">
        <ele>315</ele>
        <time>2019-05-02T18:28:01Z</time>
      </trkpt>
      <trkpt lat="46.34965" lon="5.63152">
        <ele>316</ele>
        <time>2019-05-02T18:29:01Z</time>
      </trkpt>
      <trkpt lat="46.3497" lon="5.63152">
        <ele>316</ele>
        <time>2019-05-02T18:30:01Z</time>
      </trkpt>
      <trkpt lat="46.34974" lon="5.63152">
        <ele>317</ele>
        <time>2019-05-02T18:31:01Z</time>
      </trkpt>
      <trkpt lat="46.34977" lon="5.63152">
        <ele>317</ele>
        <time>2019-05-02T18:32:01Z</time>
      </trkpt>
      <trkpt lat="46.34978" lon="5.63152">
        <ele>317</ele>
        <time>2019-05-02T18:33:01Z</time>
      </trkpt>
      <trkpt lat="46.34979" lon="5.63151">
        <ele>318</ele>
        <time>2019-05-02T18:34:01Z</time>
      </trkpt>
      <trkpt lat="46.34979" lon="5.63151">
        <ele>318</ele>
        <time>2019-05-02T18:35:01Z</time>
      </trkpt>
      <trkpt lat="46.34973" lon="5.63146">
        <ele>318</ele>
        <time>2019-05-02T18:36:01Z</time>
      </trkpt>
      <trkpt lat="46.3497" lon="5.63144">
        <ele>318</ele>
        <time>2019-05-02T18:37:01Z</time>
      </trkpt>
      <trkpt lat="46.34968" lon="5.63142">
        <ele>318</ele>
        <time>2019-05-02T18:38:01Z</time>
      </trkpt>
      <trkpt lat="46.34965" lon="5.6314">
        <ele>318</ele>
        <time>2019-05-02T18:39:01Z</time>
      </trkpt>
      <trkpt lat="46.34962" lon="5.63138">
        <ele>318</ele>
        <time>2019-05-02T18:40:01Z</time>
      </trkpt>
      <trkpt lat="46.34959" lon="5.63136">
        <ele>318</ele>
        <time>2019-05-02T18:41:01Z</time>
      </trkpt>
      <trkpt lat="46.34954" lon="5.63133">
        <ele>318</ele>
        <time>2019-05-02T18:42:01Z</time>
      </trkpt>
      <trkpt lat="46.34942" lon="5.63128">
        <ele>318</ele>
        <time>2019-05-02T18:43:01Z</time>
      </trkpt>
      <trkpt lat="46.34935" lon="5.63124">
        <ele>317</ele>
        <time>2019-05-02T18:44:01Z</time>
      </trkpt>
      <trkpt lat="46.34928" lon="5.63121">
        <ele>317</ele>
        <time>2019-05-02T18:45:01Z</time>
      </trkpt>
      <trkpt lat="46.34923" lon="5.6312">
        <ele>316</ele>
        <time>2019-05-02T18:46:01Z</time>
      </trkpt>
      <trkpt lat="46.34921" lon="5.63119">
        <ele>316</ele>
        <time>2019-05-02T18:47:01Z</time>
      </trkpt>
      <trkpt lat="46.34902" lon="5.63111">
        <ele>317</ele>
        <time>2019-05-02T18:48:01Z</time>
      </trkpt>
      <trkpt lat="46.34875" lon="5.63101">
        <ele>318</ele>
        <time>2019-05-02T18:49:01Z</time>
      </trkpt>
      <trkpt lat="46.34842" lon="5.6309">
        <ele>318</ele>
        <time>2019-05-02T18:50:01Z</time>
      </trkpt>
      <trkpt lat="46.34807" lon="5.63078">
        <ele>320</ele>
        <time>2019-05-02T18:51:01Z</time>
      </trkpt>
      <trkpt lat="46.34782" lon="5.63074">
        <ele>322</ele>
        <time>2019-05-02T18:52:01Z</time>
      </trkpt>
      <trkpt lat="46.34713" lon="5.63061">
        <ele>328</ele>
        <time>2019-05-02T18:53:01Z</time>
      </trkpt>
      <trkpt lat="46.34676" lon="5.63056">
        <ele>329</ele>
        <time>2019-05-02T18:54:01Z</time>
      </trkpt>
      <trkpt lat="46.34653" lon="5.63051">
        <ele>328</ele>
        <time>2019-05-02T18:55:01Z</time>
      </trkpt>
      <trkpt lat="46.34636" lon="5.63048">
        <ele>327</ele>
        <time>2019-05-02T18:56:01Z</time>
      </trkpt>
      <trkpt lat="46.34621" lon="5.63041">
        <ele>327</ele>
        <time>2019-05-02T18:57:01Z</time>
      </trkpt>
      <trkpt lat="46.3461" lon="5.63033">
        <ele>328</ele>
        <time>2019-05-02T18:58:01Z</time>
      </trkpt>
      <trkpt lat="46.34595" lon="5.63021">
        <ele>329</ele>
        <time>2019-05-02T18:59:01Z</time>
      </trkpt>
      <trkpt lat="46.34582" lon="5.63008">
        <ele>330</ele>
        <time>2019-05-02T19:00:01Z</time>
      </trkpt>
      <trkpt lat="46.34572" lon="5.62994">
        <ele>333</ele>
        <time>2019-05-02T19:01:01Z</time>
      </trkpt>
      <trkpt lat="46.34559" lon="5.62975">
        <ele>338</ele>
        <time>2019-05-02T19:02:01Z</time>
      </trkpt>
      <trkpt lat="46.34549" lon="5.62957">
        <ele>342</ele>
        <time>2019-05-02T19:03:01Z</time>
      </trkpt>
      <trkpt lat="46.34537" lon="5.62938">
        <ele>344</ele>
        <time>2019-05-02T19:04:01Z</time>
      </trkpt>
      <trkpt lat="46.34526" lon="5.62919">
        <ele>345</ele>
        <time>2019-05-02T19:05:01Z</time>
      </trkpt>
      <trkpt lat="46.34513" lon="5.629">
        <ele>344</ele>
        <time>2019-05-02T19:06:01Z</time>
      </trkpt>
      <trkpt lat="46.34503" lon="5.62886">
        <ele>343</ele>
        <time>2019-05-02T19:07:01Z</time>
      </trkpt>
      <trkpt lat="46.34495" lon="5.62873">
        <ele>343</ele>
        <time>2019-05-02T19:08:01Z</time>
      </trkpt>
      <trkpt lat="46.34486" lon="5.62855">
        <ele>346</ele>
        <time>2019-05-02T19:09:01Z</time>
      </trkpt>
      <trkpt lat="46.34472" lon="5.62836">
        <ele>345</ele>
        <time>2019-05-02T19:10:01Z</time>
      </trkpt>
      <trkpt lat="46.3446" lon="5.62821">
        <ele>344</ele>
        <time>2019-05-02T19:11:01Z</time>
      </trkpt>
      <trkpt lat="46.34447" lon="5.62804">
        <ele>344</ele>
        <time>2019-05-02T19:12:01Z</time>
      </trkpt>
      <trkpt lat="46.34441" lon="5.62795">
        <ele>343</ele>
        <time>2019-05-02T19:13:01Z</time>
      </trkpt>
      <trkpt lat="46.34436" lon="5.62788">
        <ele>343</ele>
        <time>2019-05-02T19:14:01Z</time>
      </trkpt>
      <trkpt lat="46.34413" lon="5.62763">
        <ele>340</ele>
        <time>2019-05-02T19:15:01Z</time>
      </trkpt>
      <trkpt lat="46.3439" lon="5.62741">
        <ele>340</ele>
        <time>2019-05-02T19:16:01Z</time>
      </trkpt>
      <trkpt lat="46.34367" lon="5.62722">
        <ele>340</ele>
        <time>2019-05-02T19:17:01Z</time>
      </trkpt>
      <trkpt lat="46.34351" lon="5.62711">
        <ele>339</ele>
        <time>2019-05-02T19:18:01Z</time>
      </trkpt>
      <trkpt lat="46.34337" lon="5.62703">
        <ele>337</ele>
        <time>2019-05-02T19:19:01Z</time>
      </trkpt>
      <trkpt lat="46.34327" lon="5.627">
        <ele>336</ele>
        <time>2019-05-02T19:20:01Z</time>
      </trkpt>
      <trkpt lat="46.34323" lon="5.62698">
        <ele>336</ele>
        <time>2019-05-02T19:21:01Z</time>
      </trkpt>
      <trkpt lat="46.34318" lon="5.62696">
        <ele>336</ele>
        <time>2019-05-02T19:22:01Z</time>
      </trkpt>
      <trkpt lat="46.34313" lon="5.62696">
        <ele>335</ele>
        <time>2019-05-02T19:23:01Z</time>
      </trkpt>
      <trkpt lat="46.34295" lon="5.62695">
        <ele>333</ele>
        <time>2019-05-02T19:24:01Z</time>
      </trkpt>
      <trkpt lat="46.34282" lon="5.62692">
        <ele>332</ele>
        <time>2019-05-02T19:25:01Z</time>
      </trkpt>
      <trkpt lat="46.34269" lon="5.62686">
        <ele>332</ele>
        <time>2019-05-02T19:26:01Z</time>
      </trkpt>
      <trkpt lat="46.34255" lon="5.62678">
        <ele>333</ele>
        <time>2019-05-02T19:27:01Z</time>
      </trkpt>
      <trkpt lat="46.34246" lon="5.6267">
        <ele>334</ele>
        <time>2019-05-02T19:28:01Z</time>
      </trkpt>
      <trkpt lat="46.34232" lon="5.6266">
        <ele>334</ele>
        <time>2019-05-02T19:29:01Z</time>
      </trkpt>
      <trkpt lat="46.34227" lon="5.62656">
        <ele>333</ele>
        <time>2019-05-02T19:30:01Z</time>
      </trkpt>
      <trkpt lat="46.3422" lon="5.62651">
        <ele>333</ele>
        <time>2019-05-02T19:31:01Z</time>
      </trkpt>
      <trkpt lat="46.34212" lon="5.62645">
        <ele>332</ele>
        <time>2019-05-02T19:32:01Z</time>
      </trkpt>
      <trkpt lat="46.34199" lon="5.62639">
        <ele>331</ele>
        <time>2019-05-02T19:33:01Z</time>
      </trkpt>
      <trkpt lat="46.34186" lon="5.62632">
        <ele>330</ele>
        <time>2019-05-02T19:34:01Z</time>
      </trkpt>
      <trkpt lat="46.34174" lon="5.62625">
        <ele>329</ele>
        <time>2019-05-02T19:35:01Z</time>
      </trkpt>
      <trkpt lat="46.34162" lon="5.62614">
        <ele>330</ele>
        <time>2019-05-02T19:36:01Z</time>
      </trkpt>
      <trkpt lat="46.34161" lon="5.62612">
        <ele>330</ele>
        <time>2019-05-02T19:37:01Z</time>
      </trkpt>
      <trkpt lat="46.34152" lon="5.62603">
        <ele>330</ele>
        <time>2019-05-02T19:38:01Z</time>
      </trkpt>
      <trkpt lat="46.34141" lon="5.62586">
        <ele>331</ele>
        <time>2019-05-02T19:39:01Z</time>
      </trkpt>
      <trkpt lat="46.34129" lon="5.62566">
        <ele>332</ele>
        <time>2019-05-02T19:40:01Z</time>
      </trkpt>
      <trkpt lat="46.34118" lon="5.62547">
        <ele>333</ele>
        <time>2019-05-02T19:41:01Z</time>
      </trkpt>
      <trkpt lat="46.3411" lon="5.62531">
        <ele>334</ele>
        <time>2019-05-02T19:42:01Z</time>
      </trkpt>
      <trkpt lat="46.34103" lon="5.62517">
        <ele>335</ele>
        <time>2019-05-02T19:43:01Z</time>
      </trkpt>
      <trkpt lat="46.34098" lon="5.62508">
        <ele>335</ele>
        <time>2019-05-02T19:44:01Z</time>
      </trkpt>
      <trkpt lat="46.34092" lon="5.62497">
        <ele>336</ele>
        <time>2019-05-02T19:45:01Z</time>
      </trkpt>
      <trkpt lat="46.34082" lon="5.62482">
        <ele>338</ele>
        <time>2019-05-02T19:46:01Z</time>
      </trkpt>
      <trkpt lat="46.34069" lon="5.62468">
        <ele>340</ele>
        <time>2019-05-02T19:47:01Z</time>
      </trkpt>
      <trkpt lat="46.34059" lon="5.62457">
        <ele>341</ele>
        <time>2019-05-02T19:48:01Z</time>
      </trkpt>
      <trkpt lat="46.34043" lon="5.62441">
        <ele>341</ele>
        <time>2019-05-02T19:49:01Z</time>
      </trkpt>
      <trkpt lat="46.34035" lon="5.62432">
        <ele>340</ele>
        <time>2019-05-02T19:50:01Z</time>
      </trkpt>
      <trkpt lat="46.34017" lon="5.62416">
        <ele>338</ele>
        <time>2019-05-02T19:51:01Z</time>
      </trkpt>
      <trkpt lat="46.34009" lon="5.6241">
        <ele>337</ele>
        <time>2019-05-02T19:52:01Z</time>
      </trkpt>
      <trkpt lat="46.34001" lon="5.62405">
        <ele>336</ele>
        <time>2019-05-02T19:53:01Z</time>
      </trkpt>
      <trkpt lat="46.33993" lon="5.62401">
        <ele>336</ele>
        <time>2019-05-02T19:54:01Z</time>
      </trkpt>
      <trkpt lat="46.33989" lon="5.62399">
        <ele>336</ele>
        <time>2019-05-02T19:55:01Z</time>
      </trkpt>
      <trkpt lat="46.33983" lon="5.62397">
        <ele>336</ele>
        <time>2019-05-02T19:56:01Z</time>
      </trkpt>
      <trkpt lat="46.33976" lon="5.62396">
        <ele>336</ele>
        <time>2019-05-02T19:57:01Z</time>
      </trkpt>
      <trkpt lat="46.33964" lon="5.62396">
        <ele>335</ele>
        <time>2019-05-02T19:58:01Z</time>
      </trkpt>
      <trkpt lat="46.33945" lon="5.62399">
        <ele>332</ele>
        <time>2019-05-02T19:59:01Z</time>
      </trkpt>
      <trkpt lat="46.33933" lon="5.62405">
        <ele>330</ele>
        <time>2019-05-02T20:00:01Z</time>
      </trkpt>
      <trkpt lat="46.33915" lon="5.62417">
        <ele>328</ele>
        <time>2019-05-02T20:01:01Z</time>
      </trkpt>
      <trkpt lat="46.33905" lon="5.62427">
        <ele>327</ele>
        <time>2019-05-02T20:02:01Z</time>
      </trkpt>
      <trkpt lat="46.33892" lon="5.62438">
        <ele>326</ele>
        <time>2019-05-02T20:03:01Z</time>
      </trkpt>
      <trkpt lat="46.33878" lon="5.62453">
        <ele>325</ele>
        <time>2019-05-02T20:04:01Z</time>
      </trkpt>
      <trkpt lat="46.33862" lon="5.62465">
        <ele>323</ele>
        <time>2019-05-02T20:05:01Z</time>
      </trkpt>
      <trkpt lat="46.33847" lon="5.62473">
        <ele>322</ele>
        <time>2019-05-02T20:06:01Z</time>
      </trkpt>
      <trkpt lat="46.33832" lon="5.62479">
        <ele>322</ele>
        <time>2019-05-02T20:07:01Z</time>
      </trkpt>
      <trkpt lat="46.33817" lon="5.62482">
        <ele>321</ele>
        <time>2019-05-02T20:08:01Z</time>
      </trkpt>
      <trkpt lat="46.33803" lon="5.62484">
        <ele>321</ele>
        <time>2019-05-02T20:09:01Z</time>
      </trkpt>
      <trkpt lat="46.33791" lon="5.62484">
        <ele>321</ele>
        <time>2019-05-02T20:10:01Z</time>
      </trkpt>
      <trkpt lat="46.33781" lon="5.62483">
        <ele>322</ele>
        <time>2019-05-02T20:11:01Z</time>
      </trkpt>
      <trkpt lat="46.3377" lon="5.6248">
        <ele>322</ele>
        <time>2019-05-02T20:12:01Z</time>
      </trkpt>
      <trkpt lat="46.33762" lon="5.62474">
        <ele>323</ele>
        <time>2019-05-02T20:13:01Z</time>
      </trkpt>
      <trkpt lat="46.33754" lon="5.62465">
        <ele>324</ele>
        <time>2019-05-02T20:14:01Z</time>
      </trkpt>
      <trkpt lat="46.33742" lon="5.62447">
        <ele>324</ele>
        <time>2019-05-02T20:15:01Z</time>
      </trkpt>
      <trkpt lat="46.33728" lon="5.62419">
        <ele>325</ele>
        <time>2019-05-02T20:16:01Z</time>
      </trkpt>
      <trkpt lat="46.33726" lon="5.62415">
        <ele>325</ele>
        <time>2019-05-02T20:17:01Z</time>
      </trkpt>
      <trkpt lat="46.33722" lon="5.62405">
        <ele>325</ele>
        <time>2019-05-02T20:18:01Z</time>
      </trkpt>
      <trkpt lat="46.3372" lon="5.62396">
        <ele>326</ele>
        <time>2019-05-02T20:19:01Z</time>
      </trkpt>
      <trkpt lat="46.33716" lon="5.62385">
        <ele>326</ele>
        <time>2019-05-02T20:20:01Z</time>
      </trkpt>
      <trkpt lat="46.3371" lon="5.62377">
        <ele>326</ele>
        <time>2019-05-02T20:21:01Z</time>
      </trkpt>
      <trkpt lat="46.33703" lon="5.62369">
        <ele>326</ele>
        <time>2019-05-02T20:22:01Z</time>
      </trkpt>
      <trkpt lat="46.33696" lon="5.62362">
        <ele>326</ele>
        <time>2019-05-02T20:23:01Z</time>
      </trkpt>
      <trkpt lat="46.33689" lon="5.62357">
        <ele>326</ele>
        <time>2019-05-02T20:24:01Z</time>
      </trkpt>
      <trkpt lat="46.33681" lon="5.62351">
        <ele>326</ele>
        <time>2019-05-02T20:25:01Z</time>
      </trkpt>
      <trkpt lat="46.33673" lon="5.62346">
        <ele>326</ele>
        <time>2019-05-02T20:26:01Z</time>
      </trkpt>
      <trkpt lat="46.33662" lon="5.62339">
        <ele>325</ele>
        <time>2019-05-02T20:27:01Z</time>
      </trkpt>
      <trkpt lat="46.33642" lon="5.62326">
        <ele>325</ele>
        <time>2019-05-02T20:28:01Z</time>
      </trkpt>
      <trkpt lat="46.33629" lon="5.62313">
        <ele>326</ele>
        <time>2019-05-02T20:29:01Z</time>
      </trkpt>
      <trkpt lat="46.3361" lon="5.62291">
        <ele>327</ele>
        <time>2019-05-02T20:30:01Z</time>
      </trkpt>
      <trkpt lat="46.33599" lon="5.62278">
        <ele>327</ele>
        <time>2019-05-02T20:31:01Z</time>
      </trkpt>
      <trkpt lat="46.33578" lon="5.62251">
        <ele>326</ele>
        <time>2019-05-02T20:32:01Z</time>
      </trkpt>
      <trkpt lat="46.33554" lon="5.6222">
        <ele>327</ele>
        <time>2019-05-02T20:33:01Z</time>
      </trkpt>
      <trkpt lat="46.33537" lon="5.62203">
        <ele>326</ele>
        <time>2019-05-02T20:34:01Z</time>
      </trkpt>
      <trkpt lat="46.33517" lon="5.62187">
        <ele>323</ele>
        <time>2019-05-02T20:35:01Z</time>
      </trkpt>
      <trkpt lat="46.33504" lon="5.62178">
        <ele>321</ele>
        <time>2019-05-02T20:36:01Z</time>
      </trkpt>
      <trkpt lat="46.33487" lon="5.6217">
        <ele>320</ele>
        <time>2019-05-02T20:37:01Z</time>
      </trkpt>
      <trkpt lat="46.33471" lon="5.62167">
        <ele>319</ele>
        <time>2019-05-02T20:38:01Z</time>
      </trkpt>
      <trkpt lat="46.33445" lon="5.62162">
        <ele>317</ele>
        <time>2019-05-02T20:39:01Z</time>
      </trkpt>
      <trkpt lat="46.33426" lon="5.62154">
        <ele>315</ele>
        <time>2019-05-02T20:40:01Z</time>
      </trkpt>
      <trkpt lat="46.33406" lon="5.62143">
        <ele>314</ele>
        <time>2019-05-02T20:41:01Z</time>
      </trkpt>
      <trkpt lat="46.33384" lon="5.62125">
        <ele>313</ele>
        <time>2019-05-02T20:42:01Z</time>
      </trkpt>
      <trkpt lat="46.33362" lon="5.62098">
        <ele>313</ele>
        <time>2019-05-02T20:43:01Z</time>
      </trkpt>
      <trkpt lat="46.33343" lon="5.62071">
        <ele>314</ele>
        <time>2019-05-02T20:44:01Z</time>
      </trkpt>
      <trkpt lat="46.33324" lon="5.62041">
        <ele>314</ele>
        <time>2019-05-02T20:45:01Z</time>
      </trkpt>
      <trkpt lat="46.33295" lon="5.61993">
        <ele>314</ele>
        <time>2019-05-02T20:46:01Z</time>
      </trkpt>
      <trkpt lat="46.33277" lon="5.61962">
        <ele>316</ele>
        <time>2019-05-02T20:47:01Z</time>
      </trkpt>
      <trkpt lat="46.33256" lon="5.61931">
        <ele>317</ele>
        <time>2019-05-02T20:48:01Z</time>
      </trkpt>
      <trkpt lat="46.33234" lon="5.61902">
        <ele>318</ele>
        <time>2019-05-02T20:49:01Z</time>
      </trkpt>
      <trkpt lat="46.33216" lon="5.61876">
        <ele>318</ele>
        <time>2019-05-02T20:50:01Z</time>
      </trkpt>
      <trkpt lat="46.33204" lon="5.61856">
        <ele>319</ele>
        <time>2019-05-02T20:51:01Z</time>
      </trkpt>
      <trkpt lat="46.33178" lon="5.61815">
        <ele>319</ele>
        <time>2019-05-02T20:52:01Z</time>
      </trkpt>
      <trkpt lat="46.33146" lon="5.61777">
        <ele>317</ele>
        <time>2019-05-02T20:53:01Z</time>
      </trkpt>
      <trkpt lat="46.33118" lon="5.61739">
        <ele>317</ele>
        <time>2019-05-02T20:54:01Z</time>
      </trkpt>
      <trkpt lat="46.33099" lon="5.61712">
        <ele>317</ele>
        <time>2019-05-02T20:55:01Z</time>
      </trkpt>
      <trkpt lat="46.33073" lon="5.61671">
        <ele>318</ele>
        <time>2019-05-02T20:56:01Z</time>
      </trkpt>
      <trkpt lat="46.33048" lon="5.61629">
        <ele>319</ele>
        <time>2019-05-02T20:57:01Z</time>
      </trkpt>
      <trkpt lat="46.33022" lon="5.6159">
        <ele>319</ele>
        <time>2019-05-02T20:58:01Z</time>
      </trkpt>
      <trkpt lat="46.32996" lon="5.61555">
        <ele>318</ele>
        <time>2019-05-02T20:59:01Z</time>
      </trkpt>
      <trkpt lat="46.32967" lon="5.6152">
        <ele>317</ele>
        <time>2019-05-02T21:00:01Z</time>
      </trkpt>
      <trkpt lat="46.32947" lon="5.61493">
        <ele>315</ele>
        <time>2019-05-02T21:01:01Z</time>
      </trkpt>
      <trkpt lat="46.32926" lon="5.61454">
        <ele>314</ele>
        <time>2019-05-02T21:02:01Z</time>
      </trkpt>
      <trkpt lat="46.32909" lon="5.61422">
        <ele>314</ele>
        <time>2019-05-02T21:03:01Z</time>
      </trkpt>
      <trkpt lat="46.32887" lon="5.61378">
        <ele>316</ele>
        <time>2019-05-02T21:04:01Z</time>
      </trkpt>
      <trkpt lat="46.32868" lon="5.61346">
        <ele>316</ele>
        <time>2019-05-02T21:05:01Z</time>
      </trkpt>
      <trkpt lat="46.32848" lon="5.61313">
        <ele>315</ele>
        <time>2019-05-02T21:06:01Z</time>
      </trkpt>
      <trkpt lat="46.32827" lon="5.61279">
        <ele>315</ele>
        <time>2019-05-02T21:07:01Z</time>
      </trkpt>
      <trkpt lat="46.32796" lon="5.61232">
        <ele>317</ele>
        <time>2019-05-02T21:08:01Z</time>
      </trkpt>
      <trkpt lat="46.32764" lon="5.6119">
        <ele>316</ele>
        <time>2019-05-02T21:09:01Z</time>
      </trkpt>
      <trkpt lat="46.32744" lon="5.61168">
        <ele>314</ele>
        <time>2019-05-02T21:10:01Z</time>
      </trkpt>
      <trkpt lat="46.32714" lon="5.61132">
        <ele>318</ele>
        <time>2019-05-02T21:11:01Z</time>
      </trkpt>
      <trkpt lat="46.3268" lon="5.61089">
        <ele>321</ele>
        <time>2019-05-02T21:12:01Z</time>
      </trkpt>
      <trkpt lat="46.32661" lon="5.61065">
        <ele>321</ele>
        <time>2019-05-02T21:13:01Z</time>
      </trkpt>
      <trkpt lat="46.32636" lon="5.61039">
        <ele>321</ele>
        <time>2019-05-02T21:14:01Z</time>
      </trkpt>
      <trkpt lat="46.3262" lon="5.61023">
        <ele>320</ele>
        <time>2019-05-02T21:15:01Z</time>
      </trkpt>
      <trkpt lat="46.32596" lon="5.60996">
        <ele>318</ele>
        <time>2019-05-02T21:16:01Z</time>
      </trkpt>
      <trkpt lat="46.32563" lon="5.60958">
        <ele>318</ele>
        <time>2019-05-02T21:17:01Z</time>
      </trkpt>
      <trkpt lat="46.32551" lon="5.60945">
        <ele>318</ele>
        <time>2019-05-02T21:18:01Z</time>
      </trkpt>
      <trkpt lat="46.32541" lon="5.60932">
        <ele>318</ele>
        <time>2019-05-02T21:19:01Z</time>
      </trkpt>
      <trkpt lat="46.32532" lon="5.60919">
        <ele>318</ele>
        <time>2019-05-02T21:20:01Z</time>
      </trkpt>
      <trkpt lat="46.3252" lon="5.60906">
        <ele>318</ele>
        <time>2019-05-02T21:21:01Z</time>
      </trkpt>
      <trkpt lat="46.32503" lon="5.60891">
        <ele>318</ele>
        <time>2019-05-02T21:22:01Z</time>
      </trkpt>
      <trkpt lat="46.32478" lon="5.60871">
        <ele>317</ele>
        <time>2019-05-02T21:23:01Z</time>
      </trkpt>
      <trkpt lat="46.32462" lon="5.60854">
        <ele>317</ele>
        <time>2019-05-02T21:24:01Z</time>
      </trkpt>
      <trkpt lat="46.32409" lon="5.60795">
        <ele>319</ele>
        <time>2019-05-02T21:25:01Z</time>
      </trkpt>
      <trkpt lat="46.32384" lon="5.60773">
        <ele>320</ele>
        <time>2019-05-02T21:26:01Z</time>
      </trkpt>
      <trkpt lat="46.32336" lon="5.60734">
        <ele>315</ele>
        <time>2019-05-02T21:27:01Z</time>
      </trkpt>
      <trkpt lat="46.3231" lon="5.60712">
        <ele>316</ele>
        <time>2019-05-02T21:28:01Z</time>
      </trkpt>
      <trkpt lat="46.32293" lon="5.60696">
        <ele>317</ele>
        <time>2019-05-02T21:29:01Z</time>
      </trkpt>
      <trkpt lat="46.32274" lon="5.60672">
        <ele>318</ele>
        <time>2019-05-02T21:30:01Z</time>
      </trkpt>
      <trkpt lat="46.32257" lon="5.60657">
        <ele>318</ele>
        <time>2019-05-02T21:31:01Z</time>
      </trkpt>
      <trkpt lat="46.32232" lon="5.60636">
        <ele>320</ele>
        <time>2019-05-02T21:32:01Z</time>
      </trkpt>
      <trkpt lat="46.32218" lon="5.60624">
        <ele>321</ele>
        <time>2019-05-02T21:33:01Z</time>
      </trkpt>
      <trkpt lat="46.32197" lon="5.60609">
        <ele>321</ele>
        <time>2019-05-02T21:34:01Z</time>
      </trkpt>
      <trkpt lat="46.32182" lon="5.60597">
        <ele>320</ele>
        <time>2019-05-02T21:35:01Z</time>
      </trkpt>
      <trkpt lat="46.32161" lon="5.60582">
        <ele>319</ele>
        <time>2019-05-02T21:36:01Z</time>
      </trkpt>
      <trkpt lat="46.32145" lon="5.60571">
        <ele>319</ele>
        <time>2019-05-02T21:37:01Z</time>
      </trkpt>
      <trkpt lat="46.32119" lon="5.60553">
        <ele>318</ele>
        <time>2019-05-02T21:38:01Z</time>
      </trkpt>
      <trkpt lat="46.32092" lon="5.60533">
        <ele>317</ele>
        <time>2019-05-02T21:39:01Z</time>
      </trkpt>
      <trkpt lat="46.32071" lon="5.60517">
        <ele>317</ele>
        <time>2019-05-02T21:40:01Z</time>
      </trkpt>
      <trkpt lat="46.32057" lon="5.60505">
        <ele>317</ele>
        <time>2019-05-02T21:41:01Z</time>
      </trkpt>
      <trkpt lat="46.3204" lon="5.60492">
        <ele>317</ele>
        <time>2019-05-02T21:42:01Z</time>
      </trkpt>
      <trkpt lat="46.32028" lon="5.60482">
        <ele>317</ele>
        <time>2019-05-02T21:43:01Z</time>
      </trkpt>
      <trkpt lat="46.32018" lon="5.60474">
        <ele>317</ele>
        <time>2019-05-02T21:44:01Z</time>
      </trkpt>
      <trkpt lat="46.32006" lon="5.60466">
        <ele>316</ele>
        <time>2019-05-02T21:45:01Z</time>
      </trkpt>
      <trkpt lat="46.31992" lon="5.60455">
        <ele>316</ele>
        <time>2019-05-02T21:46:01Z</time>
      </trkpt>
      <trkpt lat="46.31976" lon="5.60443">
        <ele>316</ele>
        <time>2019-05-02T21:47:01Z</time>
      </trkpt>
      <trkpt lat="46.31964" lon="5.60434">
        <ele>316</ele>
        <time>2019-05-02T21:48:01Z</time>
      </trkpt>
      <trkpt lat="46.31949" lon="5.60424">
        <ele>315</ele>
        <time>2019-05-02T21:49:01Z</time>
      </trkpt>
      <trkpt lat="46.31936" lon="5.60413">
        <ele>315</ele>
        <time>2019-05-02T21:50:01Z</time>
      </trkpt>
      <trkpt lat="46.31925" lon="5.60404">
        <ele>315</ele>
        <time>2019-05-02T21:51:01Z</time>
      </trkpt>
      <trkpt lat="46.31911" lon="5.60393">
        <ele>315</ele>
        <time>2019-05-02T21:52:01Z</time>
      </trkpt>
      <trkpt lat="46.31897" lon="5.60382">
        <ele>315</ele>
        <time>2019-05-02T21:53:01Z</time>
      </trkpt>
      <trkpt lat="46.31882" lon="5.6037">
        <ele>315</ele>
        <time>2019-05-02T21:54:01Z</time>
      </trkpt>
      <trkpt lat="46.31866" lon="5.60358">
        <ele>315</ele>
        <time>2019-05-02T21:55:01Z</time>
      </trkpt>
      <trkpt lat="46.31845" lon="5.60342">
        <ele>314</ele>
        <time>2019-05-02T21:56:01Z</time>
      </trkpt>
      <trkpt lat="46.31831" lon="5.6033">
        <ele>313</ele>
        <time>2019-05-02T21:57:01Z</time>
      </trkpt>
      <trkpt lat="46.31813" lon="5.60315">
        <ele>314</ele>
        <time>2019-05-02T21:58:01Z</time>
      </trkpt>
      <trkpt lat="46.31791" lon="5.60296">
        <ele>314</ele>
        <time>2019-05-02T21:59:01Z</time>
      </trkpt>
      <trkpt lat="46.31776" lon="5.60281">
        <ele>314</ele>
        <time>2019-05-02T22:00:01Z</time>
      </trkpt>
      <trkpt lat="46.31761" lon="5.60266">
        <ele>314</ele>
        <time>2019-05-02T22:01:01Z</time>
      </trkpt>
      <trkpt lat="46.31746" lon="5.60251">
        <ele>314</ele>
        <time>2019-05-02T22:02:01Z</time>
      </trkpt>
      <trkpt lat="46.31728" lon="5.60237">
        <ele>316</ele>
        <time>2019-05-02T22:03:01Z</time>
      </trkpt>
      <trkpt lat="46.31711" lon="5.60224">
        <ele>318</ele>
        <time>2019-05-02T22:04:01Z</time>
      </trkpt>
      <trkpt lat="46.31693" lon="5.60211">
        <ele>319</ele>
        <time>2019-05-02T22:05:01Z</time>
      </trkpt>
      <trkpt lat="46.31676" lon="5.602">
        <ele>319</ele>
        <time>2019-05-02T22:06:01Z</time>
      </trkpt>
      <trkpt lat="46.31657" lon="5.60187">
        <ele>320</ele>
        <time>2019-05-02T22:07:01Z</time>
      </trkpt>
      <trkpt lat="46.3163" lon="5.6017">
        <ele>320</ele>
        <time>2019-05-02T22:08:01Z</time>
      </trkpt>
      <trkpt lat="46.3161" lon="5.60157">
        <ele>319</ele>
        <time>2019-05-02T22:09:01Z</time>
      </trkpt>
      <trkpt lat="46.31585" lon="5.60143">
        <ele>318</ele>
        <time>2019-05-02T22:10:01Z</time>
      </trkpt>
      <trkpt lat="46.31567" lon="5.60134">
        <ele>319</ele>
        <time>2019-05-02T22:11:01Z</time>
      </trkpt>
      <trkpt lat="46.31551" lon="5.60128">
        <ele>319</ele>
        <time>2019-05-02T22:12:01Z</time>
      </trkpt>
      <trkpt lat="46.31532" lon="5.60123">
        <ele>318</ele>
        <time>2019-05-02T22:13:01Z</time>
      </trkpt>
      <trkpt lat="46.31517" lon="5.60122">
        <ele>317</ele>
        <time>2019-05-02T22:14:01Z</time>
      </trkpt>
      <trkpt lat="46.31491" lon="5.60123">
        <ele>316</ele>
        <time>2019-05-02T22:15:01Z</time>
      </trkpt>
      <trkpt lat="46.31461" lon="5.60126">
        <ele>317</ele>
        <time>2019-05-02T22:16:01Z</time>
      </trkpt>
      <trkpt lat="46.31442" lon="5.6013">
        <ele>317</ele>
        <time>2019-05-02T22:17:01Z</time>
      </trkpt>
      <trkpt lat="46.31418" lon="5.60134">
        <ele>318</ele>
        <time>2019-05-02T22:18:01Z</time>
      </trkpt>
      <trkpt lat="46.314" lon="5.60143">
        <ele>319</ele>
        <time>2019-05-02T22:19:01Z</time>
      </trkpt>
      <trkpt lat="46.31377" lon="5.60163">
        <ele>320</ele>
        <time>2019-05-02T22:20:01Z</time>
      </trkpt>
      <trkpt lat="46.3135" lon="5.60188">
        <ele>320</ele>
        <time>2019-05-02T22:21:01Z</time>
      </trkpt>
      <trkpt lat="46.31329" lon="5.60209">
        <ele>319</ele>
        <time>2019-05-02T22:22:01Z</time>
      </trkpt>
      <trkpt lat="46.3131" lon="5.60221">
        <ele>320</ele>
        <time>2019-05-02T22:23:01Z</time>
      </trkpt>
      <trkpt lat="46.31294" lon="5.60226">
        <ele>321</ele>
        <time>2019-05-02T22:24:01Z</time>
      </trkpt>
      <trkpt lat="46.31275" lon="5.60233">
        <ele>322</ele>
        <time>2019-05-02T22:25:01Z</time>
      </trkpt>
      <trkpt lat="46.31255" lon="5.60248">
        <ele>320</ele>
        <time>2019-05-02T22:26:01Z</time>
      </trkpt>
      <trkpt lat="46.31248" lon="5.60253">
        <ele>319</ele>
        <time>2019-05-02T22:27:01Z</time>
      </trkpt>
      <trkpt lat="46.31235" lon="5.6026">
        <ele>318</ele>
        <time>2019-05-02T22:28:01Z</time>
      </trkpt>
      <trkpt lat="46.31213" lon="5.60266">
        <ele>316</ele>
        <time>2019-05-02T22:29:01Z</time>
      </trkpt>
      <trkpt lat="46.31197" lon="5.60267">
        <ele>316</ele>
        <time>2019-05-02T22:30:01Z</time>
      </trkpt>
      <trkpt lat="46.31182" lon="5.60262">
        <ele>316</ele>
        <time>2019-05-02T22:31:01Z</time>
      </trkpt>
      <trkpt lat="46.3111" lon="5.60228">
        <ele>319</ele>
        <time>2019-05-02T22:32:01Z</time>
      </trkpt>
      <trkpt lat="46.311" lon="5.60221">
        <ele>320</ele>
        <time>2019-05-02T22:33:01Z</time>
      </trkpt>
      <trkpt lat="46.31073" lon="5.60206">
        <ele>321</ele>
        <time>2019-05-02T22:34:01Z</time>
      </trkpt>
      <trkpt lat="46.31045" lon="5.60186">
        <ele>322</ele>
        <time>2019-05-02T22:35:01Z</time>
      </trkpt>
      <trkpt lat="46.31015" lon="5.60166">
        <ele>323</ele>
        <time>2019-05-02T22:36:01Z</time>
      </trkpt>
      <trkpt lat="46.30981" lon="5.60147">
        <ele>327</ele>
        <time>2019-05-02T22:37:01Z</time>
      </trkpt>
      <trkpt lat="46.30962" lon="5.60139">
        <ele>330</ele>
        <time>2019-05-02T22:38:01Z</time>
      </trkpt>
      <trkpt lat="46.30938" lon="5.60128">
        <ele>334</ele>
        <time>2019-05-02T22:39:01Z</time>
      </trkpt>
      <trkpt lat="46.30916" lon="5.60119">
        <ele>337</ele>
        <time>2019-05-02T22:40:01Z</time>
      </trkpt>
      <trkpt lat="46.30899" lon="5.60115">
        <ele>338</ele>
        <time>2019-05-02T22:41:01Z</time>
      </trkpt>
      <trkpt lat="46.30881" lon="5.60112">
        <ele>338</ele>
        <time>2019-05-02T22:42:01Z</time>
      </trkpt>
      <trkpt lat="46.30854" lon="5.60112">
        <ele>337</ele>
        <time>2019-05-02T22:43:01Z</time>
      </trkpt>
      <trkpt lat="46.30832" lon="5.60115">
        <ele>335</ele>
        <time>2019-05-02T22:44:01Z</time>
      </trkpt>
      <trkpt lat="46.30813" lon="5.60115">
        <ele>334</ele>
        <time>2019-05-02T22:45:01Z</time>
      </trkpt>
      <trkpt lat="46.30795" lon="5.60113">
        <ele>333</ele>
        <time>2019-05-02T22:46:01Z</time>
      </trkpt>
      <trkpt lat="46.30779" lon="5.60108">
        <ele>333</ele>
        <time>2019-05-02T22:47:01Z</time>
      </trkpt>
      <trkpt lat="46.30764" lon="5.60101">
        <ele>334</ele>
        <time>2019-05-02T22:48:01Z</time>
      </trkpt>
      <trkpt lat="46.30747" lon="5.6009">
        <ele>335</ele>
        <time>2019-05-02T22:49:01Z</time>
      </trkpt>
      <trkpt lat="46.3073" lon="5.60077">
        <ele>335</ele>
        <time>2019-05-02T22:50:01Z</time>
      </trkpt>
      <trkpt lat="46.30711" lon="5.60063">
        <ele>334</ele>
        <time>2019-05-02T22:51:01Z</time>
      </trkpt>
      <trkpt lat="46.30674" lon="5.60034">
        <ele>331</ele>
        <time>2019-05-02T22:52:01Z</time>
      </trkpt>
      <trkpt lat="46.30652" lon="5.60021">
        <ele>329</ele>
        <time>2019-05-02T22:53:01Z</time>
      </trkpt>
      <trkpt lat="46.30633" lon="5.60011">
        <ele>327</ele>
        <time>2019-05-02T22:54:01Z</time>
      </trkpt>
      <trkpt lat="46.3061" lon="5.60001">
        <ele>324</ele>
        <time>2019-05-02T22:55:01Z</time>
      </trkpt>
      <trkpt lat="46.30593" lon="5.59996">
        <ele>323</ele>
        <time>2019-05-02T22:56:01Z</time>
      </trkpt>
      <trkpt lat="46.3056" lon="5.59987">
        <ele>324</ele>
        <time>2019-05-02T22:57:01Z</time>
      </trkpt>
      <trkpt lat="46.30493" lon="5.59971">
        <ele>325</ele>
        <time>2019-05-02T22:58:01Z</time>
      </trkpt>
      <trkpt lat="46.30471" lon="5.59966">
        <ele>325</ele>
        <time>2019-05-02T22:59:01Z</time>
      </trkpt>
      <trkpt lat="46.30455" lon="5.59961">
        <ele>326</ele>
        <time>2019-05-02T23:00:01Z</time>
      </trkpt>
      <trkpt lat="46.30432" lon="5.59951">
        <ele>328</ele>
        <time>2019-05-02T23:01:01Z</time>
      </trkpt>
      <trkpt lat="46.30415" lon="5.59943">
        <ele>329</ele>
        <time>2019-05-02T23:02:01Z</time>
      </trkpt>
      <trkpt lat="46.30399" lon="5.59935">
        <ele>331</ele>
        <time>2019-05-02T23:03:01Z</time>
      </trkpt>
      <trkpt lat="46.30372" lon="5.59921">
        <ele>333</ele>
        <time>2019-05-02T23:04:01Z</time>
      </trkpt>
      <trkpt lat="46.30351" lon="5.5991">
        <ele>335</ele>
        <time>2019-05-02T23:05:01Z</time>
      </trkpt>
      <trkpt lat="46.30337" lon="5.59903">
        <ele>336</ele>
        <time>2019-05-02T23:06:01Z</time>
      </trkpt>
      <trkpt lat="46.30323" lon="5.59896">
        <ele>337</ele>
        <time>2019-05-02T23:07:01Z</time>
      </trkpt>
      <trkpt lat="46.30306" lon="5.59888">
        <ele>338</ele>
        <time>2019-05-02T23:08:01Z</time>
      </trkpt>
      <trkpt lat="46.30288" lon="5.5988">
        <ele>339</ele>
        <time>2019-05-02T23:09:01Z</time>
      </trkpt>
      <trkpt lat="46.3025" lon="5.59865">
        <ele>339</ele>
        <time>2019-05-02T23:10:01Z</time>
      </trkpt>
      <trkpt lat="46.30237" lon="5.59861">
        <ele>339</ele>
        <time>2019-05-02T23:11:01Z</time>
      </trkpt>
      <trkpt lat="46.30217" lon="5.59854">
        <ele>338</ele>
        <time>2019-05-02T23:12:01Z</time>
      </trkpt>
      <trkpt lat="46.30197" lon="5.59847">
        <ele>337</ele>
        <time>2019-05-02T23:13:01Z</time>
      </trkpt>
      <trkpt lat="46.30171" lon="5.59839">
        <ele>334</ele>
        <time>2019-05-02T23:14:01Z</time>
      </trkpt>
      <trkpt lat="46.30124" lon="5.59824">
        <ele>333</ele>
        <time>2019-05-02T23:15:01Z</time>
      </trkpt>
      <trkpt lat="46.30098" lon="5.59815">
        <ele>332</ele>
        <time>2019-05-02T23:16:01Z</time>
      </trkpt>
      <trkpt lat="46.30078" lon="5.59808">
        <ele>332</ele>
        <time>2019-05-02T23:17:01Z</time>
      </trkpt>
      <trkpt lat="46.30059" lon="5.598">
        <ele>331</ele>
        <time>2019-05-02T23:18:01Z</time>
      </trkpt>
      <trkpt lat="46.30049" lon="5.59795">
        <ele>331</ele>
        <time>2019-05-02T23:19:01Z</time>
      </trkpt>
      <trkpt lat="46.30037" lon="5.59789">
        <ele>331</ele>
        <time>2019-05-02T23:20:01Z</time>
      </trkpt>
      <trkpt lat="46.30021" lon="5.5978">
        <ele>330</ele>
        <time>2019-05-02T23:21:01Z</time>
      </trkpt>
      <trkpt lat="46.30004" lon="5.5977">
        <ele>329</ele>
        <time>2019-05-02T23:22:01Z</time>
      </trkpt>
      <trkpt lat="46.29991" lon="5.59762">
        <ele>328</ele>
        <time>2019-05-02T23:23:01Z</time>
      </trkpt>
      <trkpt lat="46.29982" lon="5.59756">
        <ele>327</ele>
        <time>2019-05-02T23:24:01Z</time>
      </trkpt>
      <trkpt lat="46.29964" lon="5.59743">
        <ele>327</ele>
        <time>2019-05-02T23:25:01Z</time>
      </trkpt>
      <trkpt lat="46.29952" lon="5.59733">
        <ele>327</ele>
        <time>2019-05-02T23:26:01Z</time>
      </trkpt>
      <trkpt lat="46.29941" lon="5.59724">
        <ele>327</ele>
        <time>2019-05-02T23:27:01Z</time>
      </trkpt>
      <trkpt lat="46.2992" lon="5.59704">
        <ele>328</ele>
        <time>2019-05-02T23:28:01Z</time>
      </trkpt>
      <trkpt lat="46.29901" lon="5.59686">
        <ele>328</ele>
        <time>2019-05-02T23:29:01Z</time>
      </trkpt>
      <trkpt lat="46.29882" lon="5.59667">
        <ele>327</ele>
        <time>2019-05-02T23:30:01Z</time>
      </trkpt>
      <trkpt lat="46.2985" lon="5.59634">
        <ele>325</ele>
        <time>2019-05-02T23:31:01Z</time>
      </trkpt>
      <trkpt lat="46.29826" lon="5.59609">
        <ele>323</ele>
        <time>2019-05-02T23:32:01Z</time>
      </trkpt>
      <trkpt lat="46.29804" lon="5.59586">
        <ele>323</ele>
        <time>2019-05-02T23:33:01Z</time>
      </trkpt>
      <trkpt lat="46.29784" lon="5.59566">
        <ele>322</ele>
        <time>2019-05-02T23:34:01Z</time>
      </trkpt>
      <trkpt lat="46.29776" lon="5.59556">
        <ele>322</ele>
        <time>2019-05-02T23:35:01Z</time>
      </trkpt>
      <trkpt lat="46.29769" lon="5.59548">
        <ele>322</ele>
        <time>2019-05-02T23:36:01Z</time>
      </trkpt>
      <trkpt lat="46.29752" lon="5.5953">
        <ele>321</ele>
        <time>2019-05-02T23:37:01Z</time>
      </trkpt>
      <trkpt lat="46.29723" lon="5.59499">
        <ele>319</ele>
        <time>2019-05-02T23:38:01Z</time>
      </trkpt>
      <trkpt lat="46.29708" lon="5.59483">
        <ele>319</ele>
        <time>2019-05-02T23:39:01Z</time>
      </trkpt>
      <trkpt lat="46.29692" lon="5.59463">
        <ele>319</ele>
        <time>2019-05-02T23:40:01Z</time>
      </trkpt>
      <trkpt lat="46.29679" lon="5.59447">
        <ele>318</ele>
        <time>2019-05-02T23:41:01Z</time>
      </trkpt>
      <trkpt lat="46.29664" lon="5.59428">
        <ele>316</ele>
        <time>2019-05-02T23:42:01Z</time>
      </trkpt>
      <trkpt lat="46.29651" lon="5.59411">
        <ele>317</ele>
        <time>2019-05-02T23:43:01Z</time>
      </trkpt>
      <trkpt lat="46.29638" lon="5.59394">
        <ele>318</ele>
        <time>2019-05-02T23:44:01Z</time>
      </trkpt>
      <trkpt lat="46.29624" lon="5.59375">
        <ele>319</ele>
        <time>2019-05-02T23:45:01Z</time>
      </trkpt>
      <trkpt lat="46.29607" lon="5.59353">
        <ele>319</ele>
        <time>2019-05-02T23:46:01Z</time>
      </trkpt>
      <trkpt lat="46.29592" lon="5.59331">
        <ele>318</ele>
        <time>2019-05-02T23:47:01Z</time>
      </trkpt>
      <trkpt lat="46.29574" lon="5.59309">
        <ele>320</ele>
        <time>2019-05-02T23:48:01Z</time>
      </trkpt>
      <trkpt lat="46.29551" lon="5.59281">
        <ele>322</ele>
        <time>2019-05-02T23:49:01Z</time>
      </trkpt>
      <trkpt lat="46.29537" lon="5.59265">
        <ele>321</ele>
        <time>2019-05-02T23:50:01Z</time>
      </trkpt>
      <trkpt lat="46.29521" lon="5.59248">
        <ele>318</ele>
        <time>2019-05-02T23:51:01Z</time>
      </trkpt>
      <trkpt lat="46.29514" lon="5.5924">
        <ele>317</ele>
        <time>2019-05-02T23:52:01Z</time>
      </trkpt>
      <trkpt lat="46.29498" lon="5.59219">
        <ele>315</ele>
        <time>2019-05-02T23:53:01Z</time>
      </trkpt>
      <trkpt lat="46.29491" lon="5.59206">
        <ele>315</ele>
        <time>2019-05-02T23:54:01Z</time>
      </trkpt>
      <trkpt lat="46.29484" lon="5.5919">
        <ele>315</ele>
        <time>2019-05-02T23:55:01Z</time>
      </trkpt>
      <trkpt lat="46.29474" lon="5.59169">
        <ele>314</ele>
        <time>2019-05-02T23:56:01Z</time>
      </trkpt>
      <trkpt lat="46.29456" lon="5.59126">
        <ele>313</ele>
        <time>2019-05-02T23:57:01Z</time>
      </trkpt>
      <trkpt lat="46.29441" lon="5.59094">
        <ele>310</ele>
        <time>2019-05-02T23:58:01Z</time>
      </trkpt>
      <trkpt lat="46.29429" lon="5.59069">
        <ele>308</ele>
        <time>2019-05-02T23:59:01Z</time>
      </trkpt>
      <trkpt lat="46.29421" lon="5.59049">
        <ele>307</ele>
        <time>2019-05-03T00:00:01Z</time>
      </trkpt>
      <trkpt lat="46.29414" lon="5.59027">
        <ele>308</ele>
        <time>2019-05-03T00:01:01Z</time>
      </trkpt>
      <trkpt lat="46.29409" lon="5.59006">
        <ele>309</ele>
        <time>2019-05-03T00:02:01Z</time>
      </trkpt>
      <trkpt lat="46.29409" lon="5.58986">
        <ele>310</ele>
        <time>2019-05-03T00:03:01Z</time>
      </trkpt>
      <trkpt lat="46.29412" lon="5.58968">
        <ele>310</ele>
        <time>2019-05-03T00:04:01Z</time>
      </trkpt>
      <trkpt lat="46.29418" lon="5.58942">
        <ele>310</ele>
        <time>2019-05-03T00:05:01Z</time>
      </trkpt>
      <trkpt lat="46.29426" lon="5.58919">
        <ele>311</ele>
        <time>2019-05-03T00:06:01Z</time>
      </trkpt>
      <trkpt lat="46.2943" lon="5.58907">
        <ele>311</ele>
        <time>2019-05-03T00:07:01Z</time>
      </trkpt>
      <trkpt lat="46.29441" lon="5.58893">
        <ele>312</ele>
        <time>2019-05-03T00:08:01Z</time>
      </trkpt>
      <trkpt lat="46.29446" lon="5.58888">
        <ele>312</ele>
        <time>2019-05-03T00:09:01Z</time>
      </trkpt>
      <trkpt lat="46.29453" lon="5.58882">
        <ele>313</ele>
        <time>2019-05-03T00:10:01Z</time>
      </trkpt>
      <trkpt lat="46.29471" lon="5.58868">
        <ele>314</ele>
        <time>2019-05-03T00:11:01Z</time>
      </trkpt>
      <trkpt lat="46.29484" lon="5.58859">
        <ele>314</ele>
        <time>2019-05-03T00:12:01Z</time>
      </trkpt>
      <trkpt lat="46.29494" lon="5.58852">
        <ele>314</ele>
        <time>2019-05-03T00:13:01Z</time>
      </trkpt>
      <trkpt lat="46.29519" lon="5.5884">
        <ele>314</ele>
        <time>2019-05-03T00:14:01Z</time>
      </trkpt>
      <trkpt lat="46.2953" lon="5.58835">
        <ele>313</ele>
        <time>2019-05-03T00:15:01Z</time>
      </trkpt>
      <trkpt lat="46.2955" lon="5.58828">
        <ele>314</ele>
        <time>2019-05-03T00:16:01Z</time>
      </trkpt>
      <trkpt lat="46.29555" lon="5.58825">
        <ele>314</ele>
        <time>2019-05-03T00:17:01Z</time>
      </trkpt>
      <trkpt lat="46.2956" lon="5.58821">
        <ele>314</ele>
        <time>2019-05-03T00:18:01Z</time>
      </trkpt>
      <trkpt lat="46.29571" lon="5.58807">
        <ele>314</ele>
        <time>2019-05-03T00:19:01Z</time>
      </trkpt>
      <trkpt lat="46.29577" lon="5.588">
        <ele>314</ele>
        <time>2019-05-03T00:20:01Z</time>
      </trkpt>
      <trkpt lat="46.29583" lon="5.58789">
        <ele>314</ele>
        <time>2019-05-03T00:21:01Z</time>
      </trkpt>
      <trkpt lat="46.2959" lon="5.58775">
        <ele>314</ele>
        <time>2019-05-03T00:22:01Z</time>
      </trkpt>
      <trkpt lat="46.29595" lon="5.58762">
        <ele>313</ele>
        <time>2019-05-03T00:23:01Z</time>
      </trkpt>
      <trkpt lat="46.2961" lon="5.58731">
        <ele>312</ele>
        <time>2019-05-03T00:24:01Z</time>
      </trkpt>
      <trkpt lat="46.29623" lon="5.58702">
        <ele>312</ele>
        <time>2019-05-03T00:25:01Z</time>
      </trkpt>
      <trkpt lat="46.29634" lon="5.58676">
        <ele>311</ele>
        <time>2019-05-03T00:26:01Z</time>
      </trkpt>
      <trkpt lat="46.29645" lon="5.58648">
        <ele>311</ele>
        <time>2019-05-03T00:27:01Z</time>
      </trkpt>
      <trkpt lat="46.29654" lon="5.58626">
        <ele>311</ele>
        <time>2019-05-03T00:28:01Z</time>
      </trkpt>
      <trkpt lat="46.29662" lon="5.58609">
        <ele>311</ele>
        <time>2019-05-03T00:29:01Z</time>
      </trkpt>
      <trkpt lat="46.29667" lon="5.58598">
        <ele>311</ele>
        <time>2019-05-03T00:30:01Z</time>
      </trkpt>
      <trkpt lat="46.29671" lon="5.58586">
        <ele>311</ele>
        <time>2019-05-03T00:31:01Z</time>
      </trkpt>
      <trkpt lat="46.29678" lon="5.58571">
        <ele>312</ele>
        <time>2019-05-03T00:32:01Z</time>
      </trkpt>
      <trkpt lat="46.29684" lon="5.58559">
        <ele>312</ele>
        <time>2019-05-03T00:33:01Z</time>
      </trkpt>
      <trkpt lat="46.2969" lon="5.58548">
        <ele>312</ele>
        <time>2019-05-03T00:34:01Z</time>
      </trkpt>
      <trkpt lat="46.29698" lon="5.58537">
        <ele>312</ele>
        <time>2019-05-03T00:35:01Z</time>
      </trkpt>
      <trkpt lat="46.29705" lon="5.58528">
        <ele>312</ele>
        <time>2019-05-03T00:36:01Z</time>
      </trkpt>
      <trkpt lat="46.29713" lon="5.5852">
        <ele>312</ele>
        <time>2019-05-03T00:37:01Z</time>
      </trkpt>
      <trkpt lat="46.29722" lon="5.58511">
        <ele>312</ele>
        <time>2019-05-03T00:38:01Z</time>
      </trkpt>
      <trkpt lat="46.29737" lon="5.58496">
        <ele>312</ele>
        <time>2019-05-03T00:39:01Z</time>
      </trkpt>
      <trkpt lat="46.29779" lon="5.58457">
        <ele>310</ele>
        <time>2019-05-03T00:40:01Z</time>
      </trkpt>
      <trkpt lat="46.29809" lon="5.58428">
        <ele>308</ele>
        <time>2019-05-03T00:41:01Z</time>
      </trkpt>
      <trkpt lat="46.29818" lon="5.58419">
        <ele>308</ele>
        <time>2019-05-03T00:42:01Z</time>
      </trkpt>
      <trkpt lat="46.29828" lon="5.5841">
        <ele>308</ele>
        <time>2019-05-03T00:43:01Z</time>
      </trkpt>
      <trkpt lat="46.29835" lon="5.58404">
        <ele>308</ele>
        <time>2019-05-03T00:44:01Z</time>
      </trkpt>
      <trkpt lat="46.29848" lon="5.58395">
        <ele>308</ele>
        <time>2019-05-03T00:45:01Z</time>
      </trkpt>
      <trkpt lat="46.2986" lon="5.58386">
        <ele>309</ele>
        <time>2019-05-03T00:46:01Z</time>
      </trkpt>
      <trkpt lat="46.29873" lon="5.58379">
        <ele>309</ele>
        <time>2019-05-03T00:47:01Z</time>
      </trkpt>
      <trkpt lat="46.29889" lon="5.5837">
        <ele>309</ele>
        <time>2019-05-03T00:48:01Z</time>
      </trkpt>
      <trkpt lat="46.29901" lon="5.58364">
        <ele>309</ele>
        <time>2019-05-03T00:49:01Z</time>
      </trkpt>
      <trkpt lat="46.29909" lon="5.58359">
        <ele>309</ele>
        <time>2019-05-03T00:50:01Z</time>
      </trkpt>
      <trkpt lat="46.29929" lon="5.58348">
        <ele>309</ele>
        <time>2019-05-03T00:51:01Z</time>
      </trkpt>
      <trkpt lat="46.2994" lon="5.58341">
        <ele>309</ele>
        <time>2019-05-03T00:52:01Z</time>
      </trkpt>
      <trkpt lat="46.2996" lon="5.58327">
        <ele>308</ele>
        <time>2019-05-03T00:53:01Z</time>
      </trkpt>
      <trkpt lat="46.29974" lon="5.58315">
        <ele>308</ele>
        <time>2019-05-03T00:54:01Z</time>
      </trkpt>
      <trkpt lat="46.29981" lon="5.58307">
        <ele>308</ele>
        <time>2019-05-03T00:55:01Z</time>
      </trkpt>
      <trkpt lat="46.2999" lon="5.58296">
        <ele>308</ele>
        <time>2019-05-03T00:56:01Z</time>
      </trkpt>
      <trkpt lat="46.29997" lon="5.58285">
        <ele>308</ele>
        <time>2019-05-03T00:57:01Z</time>
      </trkpt>
      <trkpt lat="46.30003" lon="5.58272">
        <ele>308</ele>
        <time>2019-05-03T00:58:01Z</time>
      </trkpt>
      <trkpt lat="46.30009" lon="5.58258">
        <ele>308</ele>
        <time>2019-05-03T00:59:01Z</time>
      </trkpt>
      <trkpt lat="46.30016" lon="5.58241">
        <ele>308</ele>
        <time>2019-05-03T01:00:01Z</time>
      </trkpt>
      <trkpt lat="46.30021" lon="5.58225">
        <ele>308</ele>
        <time>2019-05-03T01:01:01Z</time>
      </trkpt>
      <trkpt lat="46.30028" lon="5.58203">
        <ele>308</ele>
        <time>2019-05-03T01:02:01Z</time>
      </trkpt>
      <trkpt lat="46.30055" lon="5.5812">
        <ele>307</ele>
        <time>2019-05-03T01:03:01Z</time>
      </trkpt>
      <trkpt lat="46.30079" lon="5.58043">
        <ele>308</ele>
        <time>2019-05-03T01:04:01Z</time>
      </trkpt>
      <trkpt lat="46.30095" lon="5.5799">
        <ele>310</ele>
        <time>2019-05-03T01:05:01Z</time>
      </trkpt>
      <trkpt lat="46.30101" lon="5.57972">
        <ele>311</ele>
        <time>2019-05-03T01:06:01Z</time>
      </trkpt>
      <trkpt lat="46.30104" lon="5.5796">
        <ele>312</ele>
        <time>2019-05-03T01:07:01Z</time>
      </trkpt>
      <trkpt lat="46.30105" lon="5.57949">
        <ele>312</ele>
        <time>2019-05-03T01:08:01Z</time>
      </trkpt>
      <trkpt lat="46.30106" lon="5.57939">
        <ele>312</ele>
        <time>2019-05-03T01:09:01Z</time>
      </trkpt>
      <trkpt lat="46.30107" lon="5.57929">
        <ele>313</ele>
        <time>2019-05-03T01:10:01Z</time>
      </trkpt>
      <trkpt lat="46.30106" lon="5.57913">
        <ele>313</ele>
        <time>2019-05-03T01:11:01Z</time>
      </trkpt>
      <trkpt lat="46.30104" lon="5.57897">
        <ele>313</ele>
        <time>2019-05-03T01:12:01Z</time>
      </trkpt>
      <trkpt lat="46.30102" lon="5.57886">
        <ele>313</ele>
        <time>2019-05-03T01:13:01Z</time>
      </trkpt>
      <trkpt lat="46.30099" lon="5.57876">
        <ele>313</ele>
        <time>2019-05-03T01:14:01Z</time>
      </trkpt>
      <trkpt lat="46.30095" lon="5.57863">
        <ele>313</ele>
        <time>2019-05-03T01:15:01Z</time>
      </trkpt>
      <trkpt lat="46.30083" lon="5.57833">
        <ele>313</ele>
        <time>2019-05-03T01:16:01Z</time>
      </trkpt>
      <trkpt lat="46.30077" lon="5.57822">
        <ele>313</ele>
        <time>2019-05-03T01:17:01Z</time>
      </trkpt>
      <trkpt lat="46.30065" lon="5.57808">
        <ele>313</ele>
        <time>2019-05-03T01:18:01Z</time>
      </trkpt>
      <trkpt lat="46.30054" lon="5.57796">
        <ele>314</ele>
        <time>2019-05-03T01:19:01Z</time>
      </trkpt>
      <trkpt lat="46.30047" lon="5.57789">
        <ele>314</ele>
        <time>2019-05-03T01:20:01Z</time>
      </trkpt>
      <trkpt lat="46.30037" lon="5.5778">
        <ele>314</ele>
        <time>2019-05-03T01:21:01Z</time>
      </trkpt>
      <trkpt lat="46.30029" lon="5.57772">
        <ele>314</ele>
        <time>2019-05-03T01:22:01Z</time>
      </trkpt>
      <trkpt lat="46.30018" lon="5.57762">
        <ele>315</ele>
        <time>2019-05-03T01:23:01Z</time>
      </trkpt>
      <trkpt lat="46.30009" lon="5.57753">
        <ele>315</ele>
        <time>2019-05-03T01:24:01Z</time>
      </trkpt>
      <trkpt lat="46.29999" lon="5.57742">
        <ele>314</ele>
        <time>2019-05-03T01:25:01Z</time>
      </trkpt>
      <trkpt lat="46.29986" lon="5.57726">
        <ele>314</ele>
        <time>2019-05-03T01:26:01Z</time>
      </trkpt>
      <trkpt lat="46.29977" lon="5.57712">
        <ele>314</ele>
        <time>2019-05-03T01:27:01Z</time>
      </trkpt>
      <trkpt lat="46.2997" lon="5.57701">
        <ele>314</ele>
        <time>2019-05-03T01:28:01Z</time>
      </trkpt>
      <trkpt lat="46.29963" lon="5.57686">
        <ele>314</ele>
        <time>2019-05-03T01:29:01Z</time>
      </trkpt>
      <trkpt lat="46.29957" lon="5.57672">
        <ele>313</ele>
        <time>2019-05-03T01:30:01Z</time>
      </trkpt>
      <trkpt lat="46.29946" lon="5.57637">
        <ele>313</ele>
        <time>2019-05-03T01:31:01Z</time>
      </trkpt>
      <trkpt lat="46.29941" lon="5.57624">
        <ele>313</ele>
        <time>2019-05-03T01:32:01Z</time>
      </trkpt>
      <trkpt lat="46.2993" lon="5.57591">
        <ele>311</ele>
        <time>2019-05-03T01:33:01Z</time>
      </trkpt>
      <trkpt lat="46.29922" lon="5.57568">
        <ele>310</ele>
        <time>2019-05-03T01:34:01Z</time>
      </trkpt>
      <trkpt lat="46.29916" lon="5.57551">
        <ele>310</ele>
        <time>2019-05-03T01:35:01Z</time>
      </trkpt>
      <trkpt lat="46.29911" lon="5.57537">
        <ele>310</ele>
        <time>2019-05-03T01:36:01Z</time>
      </trkpt>
      <trkpt lat="46.29899" lon="5.57504">
        <ele>309</ele>
        <time>2019-05-03T01:37:01Z</time>
      </trkpt>
      <trkpt lat="46.29894" lon="5.57489">
        <ele>309</ele>
        <time>2019-05-03T01:38:01Z</time>
      </trkpt>
      <trkpt lat="46.29891" lon="5.57481">
        <ele>309</ele>
        <time>2019-05-03T01:39:01Z</time>
      </trkpt>
      <trkpt lat="46.29886" lon="5.57466">
        <ele>309</ele>
        <time>2019-05-03T01:40:01Z</time>
      </trkpt>
      <trkpt lat="46.29881" lon="5.57452">
        <ele>309</ele>
        <time>2019-05-03T01:41:01Z</time>
      </trkpt>
      <trkpt lat="46.29875" lon="5.57433">
        <ele>309</ele>
        <time>2019-05-03T01:42:01Z</time>
      </trkpt>
      <trkpt lat="46.29864" lon="5.574">
        <ele>309</ele>
        <time>2019-05-03T01:43:01Z</time>
      </trkpt>
      <trkpt lat="46.29859" lon="5.57387">
        <ele>309</ele>
        <time>2019-05-03T01:44:01Z</time>
      </trkpt>
      <trkpt lat="46.29854" lon="5.57372">
        <ele>308</ele>
        <time>2019-05-03T01:45:01Z</time>
      </trkpt>
      <trkpt lat="46.29849" lon="5.57357">
        <ele>308</ele>
        <time>2019-05-03T01:46:01Z</time>
      </trkpt>
      <trkpt lat="46.29839" lon="5.57332">
        <ele>307</ele>
        <time>2019-05-03T01:47:01Z</time>
      </trkpt>
      <trkpt lat="46.29832" lon="5.57315">
        <ele>306</ele>
        <time>2019-05-03T01:48:01Z</time>
      </trkpt>
      <trkpt lat="46.29826" lon="5.57302">
        <ele>306</ele>
        <time>2019-05-03T01:49:01Z</time>
      </trkpt>
      <trkpt lat="46.2982" lon="5.57291">
        <ele>306</ele>
        <time>2019-05-03T01:50:01Z</time>
      </trkpt>
      <trkpt lat="46.29807" lon="5.57271">
        <ele>306</ele>
        <time>2019-05-03T01:51:01Z</time>
      </trkpt>
      <trkpt lat="46.29799" lon="5.57261">
        <ele>306</ele>
        <time>2019-05-03T01:52:01Z</time>
      </trkpt>
      <trkpt lat="46.29779" lon="5.57235">
        <ele>306</ele>
        <time>2019-05-03T01:53:01Z</time>
      </trkpt>
      <trkpt lat="46.29769" lon="5.5722">
        <ele>307</ele>
        <time>2019-05-03T01:54:01Z</time>
      </trkpt>
      <trkpt lat="46.29761" lon="5.57209">
        <ele>307</ele>
        <time>2019-05-03T01:55:01Z</time>
      </trkpt>
      <trkpt lat="46.29754" lon="5.57195">
        <ele>307</ele>
        <time>2019-05-03T01:56:01Z</time>
      </trkpt>
      <trkpt lat="46.29747" lon="5.57183">
        <ele>307</ele>
        <time>2019-05-03T01:57:01Z</time>
      </trkpt>
      <trkpt lat="46.29736" lon="5.57157">
        <ele>307</ele>
        <time>2019-05-03T01:58:01Z</time>
      </trkpt>
      <trkpt lat="46.29725" lon="5.57129">
        <ele>306</ele>
        <time>2019-05-03T01:59:01Z</time>
      </trkpt>
      <trkpt lat="46.29714" lon="5.57098">
        <ele>304</ele>
        <time>2019-05-03T02:00:01Z</time>
      </trkpt>
      <trkpt lat="46.29707" lon="5.57078">
        <ele>303</ele>
        <time>2019-05-03T02:01:01Z</time>
      </trkpt>
      <trkpt lat="46.29703" lon="5.57064">
        <ele>303</ele>
        <time>2019-05-03T02:02:01Z</time>
      </trkpt>
      <trkpt lat="46.29699" lon="5.57049">
        <ele>303</ele>
        <time>2019-05-03T02:03:01Z</time>
      </trkpt>
      <trkpt lat="46.29696" lon="5.57035">
        <ele>302</ele>
        <time>2019-05-03T02:04:01Z</time>
      </trkpt>
      <trkpt lat="46.29689" lon="5.57003">
        <ele>301</ele>
        <time>2019-05-03T02:05:01Z</time>
      </trkpt>
      <trkpt lat="46.29688" lon="5.56994">
        <ele>301</ele>
        <time>2019-05-03T02:06:01Z</time>
      </trkpt>
      <trkpt lat="46.29687" lon="5.56988">
        <ele>301</ele>
        <time>2019-05-03T02:07:01Z</time>
      </trkpt>
      <trkpt lat="46.29685" lon="5.56978">
        <ele>301</ele>
        <time>2019-05-03T02:08:01Z</time>
      </trkpt>
      <trkpt lat="46.29683" lon="5.56968">
        <ele>301</ele>
        <time>2019-05-03T02:09:01Z</time>
      </trkpt>
      <trkpt lat="46.29679" lon="5.56947">
        <ele>301</ele>
        <time>2019-05-03T02:10:01Z</time>
      </trkpt>
      <trkpt lat="46.29675" lon="5.5692">
        <ele>300</ele>
        <time>2019-05-03T02:11:01Z</time>
      </trkpt>
      <trkpt lat="46.29674" lon="5.56906">
        <ele>300</ele>
        <time>2019-05-03T02:12:01Z</time>
      </trkpt>
      <trkpt lat="46.29673" lon="5.56894">
        <ele>300</ele>
        <time>2019-05-03T02:13:01Z</time>
      </trkpt>
      <trkpt lat="46.29672" lon="5.56878">
        <ele>300</ele>
        <time>2019-05-03T02:14:01Z</time>
      </trkpt>
      <trkpt lat="46.29673" lon="5.56866">
        <ele>300</ele>
        <time>2019-05-03T02:15:01Z</time>
      </trkpt>
      <trkpt lat="46.29674" lon="5.56853">
        <ele>300</ele>
        <time>2019-05-03T02:16:01Z</time>
      </trkpt>
      <trkpt lat="46.29676" lon="5.5684">
        <ele>300</ele>
        <time>2019-05-03T02:17:01Z</time>
      </trkpt>
      <trkpt lat="46.29678" lon="5.56826">
        <ele>300</ele>
        <time>2019-05-03T02:18:01Z</time>
      </trkpt>
      <trkpt lat="46.2968" lon="5.56816">
        <ele>300</ele>
        <time>2019-05-03T02:19:01Z</time>
      </trkpt>
      <trkpt lat="46.29682" lon="5.56808">
        <ele>300</ele>
        <time>2019-05-03T02:20:01Z</time>
      </trkpt>
      <trkpt lat="46.29689" lon="5.5678">
        <ele>301</ele>
        <time>2019-05-03T02:21:01Z</time>
      </trkpt>
      <trkpt lat="46.29692" lon="5.56767">
        <ele>302</ele>
        <time>2019-05-03T02:22:01Z</time>
      </trkpt>
      <trkpt lat="46.29696" lon="5.56752">
        <ele>302</ele>
        <time>2019-05-03T02:23:01Z</time>
      </trkpt>
      <trkpt lat="46.297" lon="5.56732">
        <ele>305</ele>
        <time>2019-05-03T02:24:01Z</time>
      </trkpt>
      <trkpt lat="46.29701" lon="5.5672">
        <ele>307</ele>
        <time>2019-05-03T02:25:01Z</time>
      </trkpt>
      <trkpt lat="46.29701" lon="5.56712">
        <ele>308</ele>
        <time>2019-05-03T02:26:01Z</time>
      </trkpt>
      <trkpt lat="46.297" lon="5.56703">
        <ele>309</ele>
        <time>2019-05-03T02:27:01Z</time>
      </trkpt>
      <trkpt lat="46.29698" lon="5.56693">
        <ele>310</ele>
        <time>2019-05-03T02:28:01Z</time>
      </trkpt>
      <trkpt lat="46.29694" lon="5.56684">
        <ele>311</ele>
        <time>2019-05-03T02:29:01Z</time>
      </trkpt>
      <trkpt lat="46.29686" lon="5.56672">
        <ele>311</ele>
        <time>2019-05-03T02:30:01Z</time>
      </trkpt>
      <trkpt lat="46.29682" lon="5.56667">
        <ele>310</ele>
        <time>2019-05-03T02:31:01Z</time>
      </trkpt>
      <trkpt lat="46.29676" lon="5.5666">
        <ele>311</ele>
        <time>2019-05-03T02:32:01Z</time>
      </trkpt>
      <trkpt lat="46.29668" lon="5.56652">
        <ele>311</ele>
        <time>2019-05-03T02:33:01Z</time>
      </trkpt>
      <trkpt lat="46.29653" lon="5.56637">
        <ele>313</ele>
        <time>2019-05-03T02:34:01Z</time>
      </trkpt>
      <trkpt lat="46.29619" lon="5.56605">
        <ele>316</ele>
        <time>2019-05-03T02:35:01Z</time>
      </trkpt>
      <trkpt lat="46.29595" lon="5.56586">
        <ele>316</ele>
        <time>2019-05-03T02:36:01Z</time>
      </trkpt>
      <trkpt lat="46.29584" lon="5.56579">
        <ele>315</ele>
        <time>2019-05-03T02:37:01Z</time>
      </trkpt>
      <trkpt lat="46.2957" lon="5.56569">
        <ele>315</ele>
        <time>2019-05-03T02:38:01Z</time>
      </trkpt>
      <trkpt lat="46.29553" lon="5.56556">
        <ele>315</ele>
        <time>2019-05-03T02:39:01Z</time>
      </trkpt>
      <trkpt lat="46.2954" lon="5.56545">
        <ele>315</ele>
        <time>2019-05-03T02:40:01Z</time>
      </trkpt>
      <trkpt lat="46.29528" lon="5.56535">
        <ele>315</ele>
        <time>2019-05-03T02:41:01Z</time>
      </trkpt>
      <trkpt lat="46.29517" lon="5.56524">
        <ele>315</ele>
        <time>2019-05-03T02:42:01Z</time>
      </trkpt>
      <trkpt lat="46.29506" lon="5.56513">
        <ele>315</ele>
        <time>2019-05-03T02:43:01Z</time>
      </trkpt>
      <trkpt lat="46.29495" lon="5.56503">
        <ele>315</ele>
        <time>2019-05-03T02:44:01Z</time>
      </trkpt>
      <trkpt lat="46.29485" lon="5.56493">
        <ele>316</ele>
        <time>2019-05-03T02:45:01Z</time>
      </trkpt>
      <trkpt lat="46.29474" lon="5.56484">
        <ele>316</ele>
        <time>2019-05-03T02:46:01Z</time>
      </trkpt>
      <trkpt lat="46.2946" lon="5.56474">
        <ele>316</ele>
        <time>2019-05-03T02:47:01Z</time>
      </trkpt>
      <trkpt lat="46.29446" lon="5.56466">
        <ele>315</ele>
        <time>2019-05-03T02:48:01Z</time>
      </trkpt>
      <trkpt lat="46.29434" lon="5.5646">
        <ele>314</ele>
        <time>2019-05-03T02:49:01Z</time>
      </trkpt>
      <trkpt lat="46.29422" lon="5.56453">
        <ele>314</ele>
        <time>2019-05-03T02:50:01Z</time>
      </trkpt>
      <trkpt lat="46.29411" lon="5.56445">
        <ele>314</ele>
        <time>2019-05-03T02:51:01Z</time>
      </trkpt>
      <trkpt lat="46.294" lon="5.56437">
        <ele>314</ele>
        <time>2019-05-03T02:52:01Z</time>
      </trkpt>
      <trkpt lat="46.29389" lon="5.56427">
        <ele>315</ele>
        <time>2019-05-03T02:53:01Z</time>
      </trkpt>
      <trkpt lat="46.29376" lon="5.56414">
        <ele>315</ele>
        <time>2019-05-03T02:54:01Z</time>
      </trkpt>
      <trkpt lat="46.2936" lon="5.56398">
        <ele>316</ele>
        <time>2019-05-03T02:55:01Z</time>
      </trkpt>
      <trkpt lat="46.29347" lon="5.56385">
        <ele>316</ele>
        <time>2019-05-03T02:56:01Z</time>
      </trkpt>
      <trkpt lat="46.29329" lon="5.56367">
        <ele>316</ele>
        <time>2019-05-03T02:57:01Z</time>
      </trkpt>
      <trkpt lat="46.29314" lon="5.56354">
        <ele>316</ele>
        <time>2019-05-03T02:58:01Z</time>
      </trkpt>
      <trkpt lat="46.29296" lon="5.56338">
        <ele>315</ele>
        <time>2019-05-03T02:59:01Z</time>
      </trkpt>
      <trkpt lat="46.29282" lon="5.56324">
        <ele>316</ele>
        <time>2019-05-03T03:00:01Z</time>
      </trkpt>
      <trkpt lat="46.29267" lon="5.5631">
        <ele>317</ele>
        <time>2019-05-03T03:01:01Z</time>
      </trkpt>
      <trkpt lat="46.29252" lon="5.56295">
        <ele>318</ele>
        <time>2019-05-03T03:02:01Z</time>
      </trkpt>
      <trkpt lat="46.29235" lon="5.56279">
        <ele>319</ele>
        <time>2019-05-03T03:03:01Z</time>
      </trkpt>
      <trkpt lat="46.29224" lon="5.5627">
        <ele>319</ele>
        <time>2019-05-03T03:04:01Z</time>
      </trkpt>
      <trkpt lat="46.29208" lon="5.56258">
        <ele>318</ele>
        <time>2019-05-03T03:05:01Z</time>
      </trkpt>
      <trkpt lat="46.29193" lon="5.56245">
        <ele>317</ele>
        <time>2019-05-03T03:06:01Z</time>
      </trkpt>
      <trkpt lat="46.29164" lon="5.56222">
        <ele>316</ele>
        <time>2019-05-03T03:07:01Z</time>
      </trkpt>
      <trkpt lat="46.29151" lon="5.56212">
        <ele>315</ele>
        <time>2019-05-03T03:08:01Z</time>
      </trkpt>
      <trkpt lat="46.29128" lon="5.56192">
        <ele>315</ele>
        <time>2019-05-03T03:09:01Z</time>
      </trkpt>
      <trkpt lat="46.29107" lon="5.56174">
        <ele>314</ele>
        <time>2019-05-03T03:10:01Z</time>
      </trkpt>
      <trkpt lat="46.29089" lon="5.56156">
        <ele>313</ele>
        <time>2019-05-03T03:11:01Z</time>
      </trkpt>
      <trkpt lat="46.29078" lon="5.56142">
        <ele>313</ele>
        <time>2019-05-03T03:12:01Z</time>
      </trkpt>
      <trkpt lat="46.29072" lon="5.56133">
        <ele>314</ele>
        <time>2019-05-03T03:13:01Z</time>
      </trkpt>
      <trkpt lat="46.29064" lon="5.56118">
        <ele>316</ele>
        <time>2019-05-03T03:14:01Z</time>
      </trkpt>
      <trkpt lat="46.29056" lon="5.56106">
        <ele>316</ele>
        <time>2019-05-03T03:15:01Z</time>
      </trkpt>
      <trkpt lat="46.29042" lon="5.56082">
        <ele>317</ele>
        <time>2019-05-03T03:16:01Z</time>
      </trkpt>
      <trkpt lat="46.29035" lon="5.56072">
        <ele>318</ele>
        <time>2019-05-03T03:17:01Z</time>
      </trkpt>
      <trkpt lat="46.29024" lon="5.5606">
        <ele>319</ele>
        <time>2019-05-03T03:18:01Z</time>
      </trkpt>
      <trkpt lat="46.29015" lon="5.5605">
        <ele>319</ele>
        <time>2019-05-03T03:19:01Z</time>
      </trkpt>
      <trkpt lat="46.29003" lon="5.56038">
        <ele>319</ele>
        <time>2019-05-03T03:20:01Z</time>
      </trkpt>
      <trkpt lat="46.2899" lon="5.56026">
        <ele>319</ele>
        <time>2019-05-03T03:21:01Z</time>
      </trkpt>
      <trkpt lat="46.28971" lon="5.56008">
        <ele>318</ele>
        <time>2019-05-03T03:22:01Z</time>
      </trkpt>
      <trkpt lat="46.2896" lon="5.55998">
        <ele>317</ele>
        <time>2019-05-03T03:23:01Z</time>
      </trkpt>
      <trkpt lat="46.2895" lon="5.55989">
        <ele>317</ele>
        <time>2019-05-03T03:24:01Z</time>
      </trkpt>
      <trkpt lat="46.28939" lon="5.55978">
        <ele>316</ele>
        <time>2019-05-03T03:25:01Z</time>
      </trkpt>
      <trkpt lat="46.28928" lon="5.55966">
        <ele>315</ele>
        <time>2019-05-03T03:26:01Z</time>
      </trkpt>
      <trkpt lat="46.28917" lon="5.55953">
        <ele>314</ele>
        <time>2019-05-03T03:27:01Z</time>
      </trkpt>
      <trkpt lat="46.28908" lon="5.55941">
        <ele>315</ele>
        <time>2019-05-03T03:28:01Z</time>
      </trkpt>
      <trkpt lat="46.28898" lon="5.55929">
        <ele>315</ele>
        <time>2019-05-03T03:29:01Z</time>
      </trkpt>
      <trkpt lat="46.28883" lon="5.55908">
        <ele>317</ele>
        <time>2019-05-03T03:30:01Z</time>
      </trkpt>
      <trkpt lat="46.28864" lon="5.55886">
        <ele>318</ele>
        <time>2019-05-03T03:31:01Z</time>
      </trkpt>
      <trkpt lat="46.28852" lon="5.55874">
        <ele>317</ele>
        <time>2019-05-03T03:32:01Z</time>
      </trkpt>
      <trkpt lat="46.2884" lon="5.55863">
        <ele>314</ele>
        <time>2019-05-03T03:33:01Z</time>
      </trkpt>
      <trkpt lat="46.28823" lon="5.55844">
        <ele>314</ele>
        <time>2019-05-03T03:34:01Z</time>
      </trkpt>
      <trkpt lat="46.28808" lon="5.5583">
        <ele>314</ele>
        <time>2019-05-03T03:35:01Z</time>
      </trkpt>
      <trkpt lat="46.28794" lon="5.55816">
        <ele>316</ele>
        <time>2019-05-03T03:36:01Z</time>
      </trkpt>
      <trkpt lat="46.28775" lon="5.558">
        <ele>315</ele>
        <time>2019-05-03T03:37:01Z</time>
      </trkpt>
      <trkpt lat="46.28761" lon="5.55787">
        <ele>313</ele>
        <time>2019-05-03T03:38:01Z</time>
      </trkpt>
      <trkpt lat="46.28751" lon="5.55779">
        <ele>311</ele>
        <time>2019-05-03T03:39:01Z</time>
      </trkpt>
      <trkpt lat="46.28737" lon="5.55767">
        <ele>311</ele>
        <time>2019-05-03T03:40:01Z</time>
      </trkpt>
      <trkpt lat="46.28723" lon="5.55754">
        <ele>311</ele>
        <time>2019-05-03T03:41:01Z</time>
      </trkpt>
      <trkpt lat="46.28715" lon="5.55746">
        <ele>312</ele>
        <time>2019-05-03T03:42:01Z</time>
      </trkpt>
      <trkpt lat="46.28698" lon="5.55732">
        <ele>314</ele>
        <time>2019-05-03T03:43:01Z</time>
      </trkpt>
      <trkpt lat="46.28682" lon="5.55716">
        <ele>315</ele>
        <time>2019-05-03T03:44:01Z</time>
      </trkpt>
      <trkpt lat="46.28676" lon="5.5571">
        <ele>315</ele>
        <time>2019-05-03T03:45:01Z</time>
      </trkpt>
      <trkpt lat="46.28667" lon="5.55702">
        <ele>314</ele>
        <time>2019-05-03T03:46:01Z</time>
      </trkpt>
      <trkpt lat="46.28655" lon="5.55691">
        <ele>314</ele>
        <time>2019-05-03T03:47:01Z</time>
      </trkpt>
      <trkpt lat="46.28643" lon="5.55678">
        <ele>313</ele>
        <time>2019-05-03T03:48:01Z</time>
      </trkpt>
      <trkpt lat="46.28631" lon="5.55667">
        <ele>312</ele>
        <time>2019-05-03T03:49:01Z</time>
      </trkpt>
      <trkpt lat="46.28619" lon="5.55655">
        <ele>312</ele>
        <time>2019-05-03T03:50:01Z</time>
      </trkpt>
      <trkpt lat="46.28609" lon="5.55644">
        <ele>312</ele>
        <time>2019-05-03T03:51:01Z</time>
      </trkpt>
      <trkpt lat="46.28601" lon="5.55635">
        <ele>311</ele>
        <time>2019-05-03T03:52:01Z</time>
      </trkpt>
      <trkpt lat="46.28588" lon="5.55621">
        <ele>310</ele>
        <time>2019-05-03T03:53:01Z</time>
      </trkpt>
      <trkpt lat="46.28579" lon="5.5561">
        <ele>310</ele>
        <time>2019-05-03T03:54:01Z</time>
      </trkpt>
      <trkpt lat="46.28571" lon="5.556">
        <ele>310</ele>
        <time>2019-05-03T03:55:01Z</time>
      </trkpt>
      <trkpt lat="46.28564" lon="5.55594">
        <ele>310</ele>
        <time>2019-05-03T03:56:01Z</time>
      </trkpt>
      <trkpt lat="46.28556" lon="5.55587">
        <ele>309</ele>
        <time>2019-05-03T03:57:01Z</time>
      </trkpt>
      <trkpt lat="46.28542" lon="5.55575">
        <ele>309</ele>
        <time>2019-05-03T03:58:01Z</time>
      </trkpt>
      <trkpt lat="46.28528" lon="5.55564">
        <ele>309</ele>
        <time>2019-05-03T03:59:01Z</time>
      </trkpt>
      <trkpt lat="46.28509" lon="5.55549">
        <ele>308</ele>
        <time>2019-05-03T04:00:01Z</time>
      </trkpt>
      <trkpt lat="46.28495" lon="5.55538">
        <ele>308</ele>
        <time>2019-05-03T04:01:01Z</time>
      </trkpt>
      <trkpt lat="46.28479" lon="5.55526">
        <ele>308</ele>
        <time>2019-05-03T04:02:01Z</time>
      </trkpt>
      <trkpt lat="46.28467" lon="5.55517">
        <ele>308</ele>
        <time>2019-05-03T04:03:01Z</time>
      </trkpt>
      <trkpt lat="46.28451" lon="5.55504">
        <ele>307</ele>
        <time>2019-05-03T04:04:01Z</time>
      </trkpt>
      <trkpt lat="46.28439" lon="5.55494">
        <ele>307</ele>
        <time>2019-05-03T04:05:01Z</time>
      </trkpt>
      <trkpt lat="46.28423" lon="5.55484">
        <ele>306</ele>
        <time>2019-05-03T04:06:01Z</time>
      </trkpt>
      <trkpt lat="46.28402" lon="5.55471">
        <ele>306</ele>
        <time>2019-05-03T04:07:01Z</time>
      </trkpt>
      <trkpt lat="46.28384" lon="5.55459">
        <ele>307</ele>
        <time>2019-05-03T04:08:01Z</time>
      </trkpt>
      <trkpt lat="46.28369" lon="5.5545">
        <ele>307</ele>
        <time>2019-05-03T04:09:01Z</time>
      </trkpt>
      <trkpt lat="46.28349" lon="5.55438">
        <ele>306</ele>
        <time>2019-05-03T04:10:01Z</time>
      </trkpt>
      <trkpt lat="46.28332" lon="5.55429">
        <ele>305</ele>
        <time>2019-05-03T04:11:01Z</time>
      </trkpt>
      <trkpt lat="46.28321" lon="5.55424">
        <ele>304</ele>
        <time>2019-05-03T04:12:01Z</time>
      </trkpt>
      <trkpt lat="46.28304" lon="5.55416">
        <ele>303</ele>
        <time>2019-05-03T04:13:01Z</time>
      </trkpt>
      <trkpt lat="46.28291" lon="5.55409">
        <ele>304</ele>
        <time>2019-05-03T04:14:01Z</time>
      </trkpt>
      <trkpt lat="46.28276" lon="5.55402">
        <ele>304</ele>
        <time>2019-05-03T04:15:01Z</time>
      </trkpt>
      <trkpt lat="46.28262" lon="5.55395">
        <ele>305</ele>
        <time>2019-05-03T04:16:01Z</time>
      </trkpt>
      <trkpt lat="46.28248" lon="5.55389">
        <ele>305</ele>
        <time>2019-05-03T04:17:01Z</time>
      </trkpt>
      <trkpt lat="46.28231" lon="5.55386">
        <ele>304</ele>
        <time>2019-05-03T04:18:01Z</time>
      </trkpt>
      <trkpt lat="46.28212" lon="5.55384">
        <ele>301</ele>
        <time>2019-05-03T04:19:01Z</time>
      </trkpt>
      <trkpt lat="46.28197" lon="5.55383">
        <ele>299</ele>
        <time>2019-05-03T04:20:01Z</time>
      </trkpt>
      <trkpt lat="46.28185" lon="5.55377">
        <ele>299</ele>
        <time>2019-05-03T04:21:01Z</time>
      </trkpt>
      <trkpt lat="46.28178" lon="5.55371">
        <ele>300</ele>
        <time>2019-05-03T04:22:01Z</time>
      </trkpt>
      <trkpt lat="46.28171" lon="5.55362">
        <ele>301</ele>
        <time>2019-05-03T04:23:01Z</time>
      </trkpt>
      <trkpt lat="46.28163" lon="5.55351">
        <ele>302</ele>
        <time>2019-05-03T04:24:01Z</time>
      </trkpt>
      <trkpt lat="46.28153" lon="5.55336">
        <ele>304</ele>
        <time>2019-05-03T04:25:01Z</time>
      </trkpt>
      <trkpt lat="46.28146" lon="5.55328">
        <ele>305</ele>
        <time>2019-05-03T04:26:01Z</time>
      </trkpt>
      <trkpt lat="46.28138" lon="5.55319">
        <ele>305</ele>
        <time>2019-05-03T04:27:01Z</time>
      </trkpt>
      <trkpt lat="46.28117" lon="5.55301">
        <ele>305</ele>
        <time>2019-05-03T04:28:01Z</time>
      </trkpt>
      <trkpt lat="46.28107" lon="5.55294">
        <ele>304</ele>
        <time>2019-05-03T04:29:01Z</time>
      </trkpt>
      <trkpt lat="46.28091" lon="5.55282">
        <ele>301</ele>
        <time>2019-05-03T04:30:01Z</time>
      </trkpt>
      <trkpt lat="46.28079" lon="5.55273">
        <ele>300</ele>
        <time>2019-05-03T04:31:01Z</time>
      </trkpt>
      <trkpt lat="46.2807" lon="5.55264">
        <ele>301</ele>
        <time>2019-05-03T04:32:01Z</time>
      </trkpt>
      <trkpt lat="46.28063" lon="5.55255">
        <ele>301</ele>
        <time>2019-05-03T04:33:01Z</time>
      </trkpt>
      <trkpt lat="46.28053" lon="5.55242">
        <ele>303</ele>
        <time>2019-05-03T04:34:01Z</time>
      </trkpt>
      <trkpt lat="46.28042" lon="5.55224">
        <ele>306</ele>
        <time>2019-05-03T04:35:01Z</time>
      </trkpt>
      <trkpt lat="46.2803" lon="5.55205">
        <ele>308</ele>
        <time>2019-05-03T04:36:01Z</time>
      </trkpt>
      <trkpt lat="46.28017" lon="5.55187">
        <ele>307</ele>
        <time>2019-05-03T04:37:01Z</time>
      </trkpt>
      <trkpt lat="46.28007" lon="5.55176">
        <ele>304</ele>
        <time>2019-05-03T04:38:01Z</time>
      </trkpt>
      <trkpt lat="46.27997" lon="5.55165">
        <ele>302</ele>
        <time>2019-05-03T04:39:01Z</time>
      </trkpt>
      <trkpt lat="46.27987" lon="5.55155">
        <ele>305</ele>
        <time>2019-05-03T04:40:01Z</time>
      </trkpt>
      <trkpt lat="46.27977" lon="5.55144">
        <ele>307</ele>
        <time>2019-05-03T04:41:01Z</time>
      </trkpt>
      <trkpt lat="46.27962" lon="5.55127">
        <ele>309</ele>
        <time>2019-05-03T04:42:01Z</time>
      </trkpt>
      <trkpt lat="46.27945" lon="5.55103">
        <ele>308</ele>
        <time>2019-05-03T04:43:01Z</time>
      </trkpt>
      <trkpt lat="46.27928" lon="5.5508">
        <ele>304</ele>
        <time>2019-05-03T04:44:01Z</time>
      </trkpt>
      <trkpt lat="46.27917" lon="5.55063">
        <ele>303</ele>
        <time>2019-05-03T04:45:01Z</time>
      </trkpt>
      <trkpt lat="46.27901" lon="5.5504">
        <ele>304</ele>
        <time>2019-05-03T04:46:01Z</time>
      </trkpt>
      <trkpt lat="46.27888" lon="5.55021">
        <ele>305</ele>
        <time>2019-05-03T04:47:01Z</time>
      </trkpt>
      <trkpt lat="46.27875" lon="5.55003">
        <ele>305</ele>
        <time>2019-05-03T04:48:01Z</time>
      </trkpt>
      <trkpt lat="46.27859" lon="5.54982">
        <ele>306</ele>
        <time>2019-05-03T04:49:01Z</time>
      </trkpt>
      <trkpt lat="46.2784" lon="5.54956">
        <ele>306</ele>
        <time>2019-05-03T04:50:01Z</time>
      </trkpt>
      <trkpt lat="46.27818" lon="5.54929">
        <ele>306</ele>
        <time>2019-05-03T04:51:01Z</time>
      </trkpt>
      <trkpt lat="46.27798" lon="5.54905">
        <ele>307</ele>
        <time>2019-05-03T04:52:01Z</time>
      </trkpt>
      <trkpt lat="46.27777" lon="5.54882">
        <ele>307</ele>
        <time>2019-05-03T04:53:01Z</time>
      </trkpt>
      <trkpt lat="46.27757" lon="5.54856">
        <ele>306</ele>
        <time>2019-05-03T04:54:01Z</time>
      </trkpt>
      <trkpt lat="46.27742" lon="5.54838">
        <ele>304</ele>
        <time>2019-05-03T04:55:01Z</time>
      </trkpt>
      <trkpt lat="46.2772" lon="5.54813">
        <ele>306</ele>
        <time>2019-05-03T04:56:01Z</time>
      </trkpt>
      <trkpt lat="46.27703" lon="5.54792">
        <ele>306</ele>
        <time>2019-05-03T04:57:01Z</time>
      </trkpt>
      <trkpt lat="46.27682" lon="5.54761">
        <ele>303</ele>
        <time>2019-05-03T04:58:01Z</time>
      </trkpt>
      <trkpt lat="46.27671" lon="5.54742">
        <ele>303</ele>
        <time>2019-05-03T04:59:01Z</time>
      </trkpt>
      <trkpt lat="46.2766" lon="5.54724">
        <ele>307</ele>
        <time>2019-05-03T05:00:01Z</time>
      </trkpt>
      <trkpt lat="46.27649" lon="5.54711">
        <ele>309</ele>
        <time>2019-05-03T05:01:01Z</time>
      </trkpt>
      <trkpt lat="46.27637" lon="5.547">
        <ele>309</ele>
        <time>2019-05-03T05:02:01Z</time>
      </trkpt>
      <trkpt lat="46.27622" lon="5.54688">
        <ele>307</ele>
        <time>2019-05-03T05:03:01Z</time>
      </trkpt>
      <trkpt lat="46.27606" lon="5.54676">
        <ele>304</ele>
        <time>2019-05-03T05:04:01Z</time>
      </trkpt>
      <trkpt lat="46.27588" lon="5.54662">
        <ele>301</ele>
        <time>2019-05-03T05:05:01Z</time>
      </trkpt>
      <trkpt lat="46.27565" lon="5.54643">
        <ele>304</ele>
        <time>2019-05-03T05:06:01Z</time>
      </trkpt>
      <trkpt lat="46.27539" lon="5.54622">
        <ele>306</ele>
        <time>2019-05-03T05:07:01Z</time>
      </trkpt>
      <trkpt lat="46.27529" lon="5.54614">
        <ele>306</ele>
        <time>2019-05-03T05:08:01Z</time>
      </trkpt>
      <trkpt lat="46.27517" lon="5.54603">
        <ele>306</ele>
        <time>2019-05-03T05:09:01Z</time>
      </trkpt>
      <trkpt lat="46.27505" lon="5.54595">
        <ele>305</ele>
        <time>2019-05-03T05:10:01Z</time>
      </trkpt>
      <trkpt lat="46.27492" lon="5.5459">
        <ele>304</ele>
        <time>2019-05-03T05:11:01Z</time>
      </trkpt>
      <trkpt lat="46.27469" lon="5.54583">
        <ele>303</ele>
        <time>2019-05-03T05:12:01Z</time>
      </trkpt>
      <trkpt lat="46.27456" lon="5.54579">
        <ele>303</ele>
        <time>2019-05-03T05:13:01Z</time>
      </trkpt>
      <trkpt lat="46.27444" lon="5.54573">
        <ele>303</ele>
        <time>2019-05-03T05:14:01Z</time>
      </trkpt>
      <trkpt lat="46.27433" lon="5.54566">
        <ele>304</ele>
        <time>2019-05-03T05:15:01Z</time>
      </trkpt>
      <trkpt lat="46.27419" lon="5.54556">
        <ele>304</ele>
        <time>2019-05-03T05:16:01Z</time>
      </trkpt>
      <trkpt lat="46.27405" lon="5.54544">
        <ele>304</ele>
        <time>2019-05-03T05:17:01Z</time>
      </trkpt>
      <trkpt lat="46.2739" lon="5.54527">
        <ele>305</ele>
        <time>2019-05-03T05:18:01Z</time>
      </trkpt>
      <trkpt lat="46.27369" lon="5.54503">
        <ele>303</ele>
        <time>2019-05-03T05:19:01Z</time>
      </trkpt>
      <trkpt lat="46.27352" lon="5.54483">
        <ele>303</ele>
        <time>2019-05-03T05:20:01Z</time>
      </trkpt>
      <trkpt lat="46.27336" lon="5.54463">
        <ele>303</ele>
        <time>2019-05-03T05:21:01Z</time>
      </trkpt>
      <trkpt lat="46.27314" lon="5.54433">
        <ele>305</ele>
        <time>2019-05-03T05:22:01Z</time>
      </trkpt>
      <trkpt lat="46.273" lon="5.54414">
        <ele>306</ele>
        <time>2019-05-03T05:23:01Z</time>
      </trkpt>
      <trkpt lat="46.27288" lon="5.54393">
        <ele>308</ele>
        <time>2019-05-03T05:24:01Z</time>
      </trkpt>
      <trkpt lat="46.27275" lon="5.54373">
        <ele>309</ele>
        <time>2019-05-03T05:25:01Z</time>
      </trkpt>
      <trkpt lat="46.27264" lon="5.54356">
        <ele>309</ele>
        <time>2019-05-03T05:26:01Z</time>
      </trkpt>
      <trkpt lat="46.27254" lon="5.54343">
        <ele>308</ele>
        <time>2019-05-03T05:27:01Z</time>
      </trkpt>
      <trkpt lat="46.27242" lon="5.54329">
        <ele>309</ele>
        <time>2019-05-03T05:28:01Z</time>
      </trkpt>
      <trkpt lat="46.27227" lon="5.54314">
        <ele>309</ele>
        <time>2019-05-03T05:29:01Z</time>
      </trkpt>
      <trkpt lat="46.27207" lon="5.54298">
        <ele>307</ele>
        <time>2019-05-03T05:30:01Z</time>
      </trkpt>
      <trkpt lat="46.27193" lon="5.54289">
        <ele>304</ele>
        <time>2019-05-03T05:31:01Z</time>
      </trkpt>
      <trkpt lat="46.27182" lon="5.54282">
        <ele>302</ele>
        <time>2019-05-03T05:32:01Z</time>
      </trkpt>
      <trkpt lat="46.27171" lon="5.54273">
        <ele>299</ele>
        <time>2019-05-03T05:33:01Z</time>
      </trkpt>
      <trkpt lat="46.27161" lon="5.54265">
        <ele>298</ele>
        <time>2019-05-03T05:34:01Z</time>
      </trkpt>
      <trkpt lat="46.27139" lon="5.54233">
        <ele>299</ele>
        <time>2019-05-03T05:35:01Z</time>
      </trkpt>
      <trkpt lat="46.27132" lon="5.54222">
        <ele>299</ele>
        <time>2019-05-03T05:36:01Z</time>
      </trkpt>
      <trkpt lat="46.27127" lon="5.54212">
        <ele>300</ele>
        <time>2019-05-03T05:37:01Z</time>
      </trkpt>
      <trkpt lat="46.27102" lon="5.54156">
        <ele>299</ele>
        <time>2019-05-03T05:38:01Z</time>
      </trkpt>
      <trkpt lat="46.27094" lon="5.54141">
        <ele>298</ele>
        <time>2019-05-03T05:39:01Z</time>
      </trkpt>
      <trkpt lat="46.27086" lon="5.54127">
        <ele>297</ele>
        <time>2019-05-03T05:40:01Z</time>
      </trkpt>
      <trkpt lat="46.27078" lon="5.54114">
        <ele>296</ele>
        <time>2019-05-03T05:41:01Z</time>
      </trkpt>
      <trkpt lat="46.27072" lon="5.54104">
        <ele>296</ele>
        <time>2019-05-03T05:42:01Z</time>
      </trkpt>
      <trkpt lat="46.27062" lon="5.54087">
        <ele>295</ele>
        <time>2019-05-03T05:43:01Z</time>
      </trkpt>
      <trkpt lat="46.27055" lon="5.54072">
        <ele>295</ele>
        <time>2019-05-03T05:44:01Z</time>
      </trkpt>
      <trkpt lat="46.27049" lon="5.54059">
        <ele>295</ele>
        <time>2019-05-03T05:45:01Z</time>
      </trkpt>
      <trkpt lat="46.27028" lon="5.54018">
        <ele>292</ele>
        <time>2019-05-03T05:46:01Z</time>
      </trkpt>
      <trkpt lat="46.27017" lon="5.53994">
        <ele>291</ele>
        <time>2019-05-03T05:47:01Z</time>
      </trkpt>
      <trkpt lat="46.27005" lon="5.53972">
        <ele>290</ele>
        <time>2019-05-03T05:48:01Z</time>
      </trkpt>
      <trkpt lat="46.26994" lon="5.53949">
        <ele>290</ele>
        <time>2019-05-03T05:49:01Z</time>
      </trkpt>
      <trkpt lat="46.26982" lon="5.53919">
        <ele>291</ele>
        <time>2019-05-03T05:50:01Z</time>
      </trkpt>
      <trkpt lat="46.2697" lon="5.53889">
        <ele>292</ele>
        <time>2019-05-03T05:51:01Z</time>
      </trkpt>
      <trkpt lat="46.26959" lon="5.53858">
        <ele>293</ele>
        <time>2019-05-03T05:52:01Z</time>
      </trkpt>
      <trkpt lat="46.26948" lon="5.53829">
        <ele>293</ele>
        <time>2019-05-03T05:53:01Z</time>
      </trkpt>
      <trkpt lat="46.26942" lon="5.53814">
        <ele>292</ele>
        <time>2019-05-03T05:54:01Z</time>
      </trkpt>
      <trkpt lat="46.26935" lon="5.53795">
        <ele>292</ele>
        <time>2019-05-03T05:55:01Z</time>
      </trkpt>
      <trkpt lat="46.26921" lon="5.53761">
        <ele>290</ele>
        <time>2019-05-03T05:56:01Z</time>
      </trkpt>
      <trkpt lat="46.26911" lon="5.53738">
        <ele>290</ele>
        <time>2019-05-03T05:57:01Z</time>
      </trkpt>
      <trkpt lat="46.26903" lon="5.53719">
        <ele>290</ele>
        <time>2019-05-03T05:58:01Z</time>
      </trkpt>
      <trkpt lat="46.269" lon="5.53708">
        <ele>290</ele>
        <time>2019-05-03T05:59:01Z</time>
      </trkpt>
      <trkpt lat="46.26898" lon="5.537">
        <ele>290</ele>
        <time>2019-05-03T06:00:01Z</time>
      </trkpt>
      <trkpt lat="46.26898" lon="5.53695">
        <ele>290</ele>
        <time>2019-05-03T06:01:01Z</time>
      </trkpt>
      <trkpt lat="46.26898" lon="5.53684">
        <ele>290</ele>
        <time>2019-05-03T06:02:01Z</time>
      </trkpt>
      <trkpt lat="46.26898" lon="5.53671">
        <ele>291</ele>
        <time>2019-05-03T06:03:01Z</time>
      </trkpt>
      <trkpt lat="46.26898" lon="5.53671">
        <ele>291</ele>
        <time>2019-05-03T06:04:01Z</time>
      </trkpt>
      <trkpt lat="46.26896" lon="5.53658">
        <ele>291</ele>
        <time>2019-05-03T06:05:01Z</time>
      </trkpt>
      <trkpt lat="46.26894" lon="5.53641">
        <ele>291</ele>
        <time>2019-05-03T06:06:01Z</time>
      </trkpt>
      <trkpt lat="46.26893" lon="5.53628">
        <ele>291</ele>
        <time>2019-05-03T06:07:01Z</time>
      </trkpt>
      <trkpt lat="46.26894" lon="5.53606">
        <ele>291</ele>
        <time>2019-05-03T06:08:01Z</time>
      </trkpt>
      <trkpt lat="46.26894" lon="5.53606">
        <ele>291</ele>
        <time>2019-05-03T06:09:01Z</time>
      </trkpt>
      <trkpt lat="46.26894" lon="5.53605">
        <ele>291</ele>
        <time>2019-05-03T06:10:01Z</time>
      </trkpt>
      <trkpt lat="46.26895" lon="5.53605">
        <ele>291</ele>
        <time>2019-05-03T06:11:01Z</time>
      </trkpt>
      <trkpt lat="46.26896" lon="5.53604">
        <ele>291</ele>
        <time>2019-05-03T06:12:01Z</time>
      </trkpt>
      <trkpt lat="46.26897" lon="5.53603">
        <ele>291</ele>
        <time>2019-05-03T06:13:01Z</time>
      </trkpt>
      <trkpt lat="46.26897" lon="5.53602">
        <ele>291</ele>
        <time>2019-05-03T06:14:01Z</time>
      </trkpt>
      <trkpt lat="46.26898" lon="5.53602">
        <ele>291</ele>
        <time>2019-05-03T06:15:01Z</time>
      </trkpt>
      <trkpt lat="46.26898" lon="5.53601">
        <ele>291</ele>
        <time>2019-05-03T06:16:01Z</time>
      </trkpt>
      <trkpt lat="46.26898" lon="5.536">
        <ele>291</ele>
        <time>2019-05-03T06:17:01Z</time>
      </trkpt>
      <trkpt lat="46.26899" lon="5.53599">
        <ele>291</ele>
        <time>2019-05-03T06:18:01Z</time>
      </trkpt>
      <trkpt lat="46.26899" lon="5.53598">
        <ele>291</ele>
        <time>2019-05-03T06:19:01Z</time>
      </trkpt>
      <trkpt lat="46.26899" lon="5.53597">
        <ele>291</ele>
        <time>2019-05-03T06:20:01Z</time>
      </trkpt>
      <trkpt lat="46.26899" lon="5.53596">
        <ele>291</ele>
        <time>2019-05-03T06:21:01Z</time>
      </trkpt>
      <trkpt lat="46.26899" lon="5.53595">
        <ele>291</ele>
        <time>2019-05-03T06:22:01Z</time>
      </trkpt>
      <trkpt lat="46.26899" lon="5.53594">
        <ele>291</ele>
        <time>2019-05-03T06:23:01Z</time>
      </trkpt>
      <trkpt lat="46.26899" lon="5.53593">
        <ele>291</ele>
        <time>2019-05-03T06:24:01Z</time>
      </trkpt>
      <trkpt lat="46.26899" lon="5.53592">
        <ele>291</ele>
        <time>2019-05-03T06:25:01Z</time>
      </trkpt>
      <trkpt lat="46.26899" lon="5.53591">
        <ele>291</ele>
        <time>2019-05-03T06:26:01Z</time>
      </trkpt>
      <trkpt lat="46.26898" lon="5.53591">
        <ele>291</ele>
        <time>2019-05-03T06:27:01Z</time>
      </trkpt>
      <trkpt lat="46.26898" lon="5.5359">
        <ele>291</ele>
        <time>2019-05-03T06:28:01Z</time>
      </trkpt>
      <trkpt lat="46.26898" lon="5.53589">
        <ele>291</ele>
        <time>2019-05-03T06:29:01Z</time>
      </trkpt>
      <trkpt lat="46.26897" lon="5.53588">
        <ele>291</ele>
        <time>2019-05-03T06:30:01Z</time>
      </trkpt>
      <trkpt lat="46.26897" lon="5.53587">
        <ele>291</ele>
        <time>2019-05-03T06:31:01Z</time>
      </trkpt>
      <trkpt lat="46.26896" lon="5.53586">
        <ele>291</ele>
        <time>2019-05-03T06:32:01Z</time>
      </trkpt>
      <trkpt lat="46.26895" lon="5.53585">
        <ele>291</ele>
        <time>2019-05-03T06:33:01Z</time>
      </trkpt>
      <trkpt lat="46.26894" lon="5.53585">
        <ele>291</ele>
        <time>2019-05-03T06:34:01Z</time>
      </trkpt>
      <trkpt lat="46.26894" lon="5.53584">
        <ele>291</ele>
        <time>2019-05-03T06:35:01Z</time>
      </trkpt>
      <trkpt lat="46.26893" lon="5.53584">
        <ele>291</ele>
        <time>2019-05-03T06:36:01Z</time>
      </trkpt>
      <trkpt lat="46.269" lon="5.53566">
        <ele>292</ele>
        <time>2019-05-03T06:37:01Z</time>
      </trkpt>
      <trkpt lat="46.26903" lon="5.53554">
        <ele>292</ele>
        <time>2019-05-03T06:38:01Z</time>
      </trkpt>
      <trkpt lat="46.26912" lon="5.53515">
        <ele>294</ele>
        <time>2019-05-03T06:39:01Z</time>
      </trkpt>
      <trkpt lat="46.2692" lon="5.5347">
        <ele>293</ele>
        <time>2019-05-03T06:40:01Z</time>
      </trkpt>
      <trkpt lat="46.26925" lon="5.53442">
        <ele>293</ele>
        <time>2019-05-03T06:41:01Z</time>
      </trkpt>
      <trkpt lat="46.26927" lon="5.53427">
        <ele>293</ele>
        <time>2019-05-03T06:42:01Z</time>
      </trkpt>
      <trkpt lat="46.26935" lon="5.53384">
        <ele>293</ele>
        <time>2019-05-03T06:43:01Z</time>
      </trkpt>
      <trkpt lat="46.26943" lon="5.53339">
        <ele>294</ele>
        <time>2019-05-03T06:44:01Z</time>
      </trkpt>
      <trkpt lat="46.26949" lon="5.53308">
        <ele>294</ele>
        <time>2019-05-03T06:45:01Z</time>
      </trkpt>
      <trkpt lat="46.26953" lon="5.5328">
        <ele>294</ele>
        <time>2019-05-03T06:46:01Z</time>
      </trkpt>
      <trkpt lat="46.26954" lon="5.53271">
        <ele>294</ele>
        <time>2019-05-03T06:47:01Z</time>
      </trkpt>
      <trkpt lat="46.26956" lon="5.53258">
        <ele>294</ele>
        <time>2019-05-03T06:48:01Z</time>
      </trkpt>
      <trkpt lat="46.26959" lon="5.53244">
        <ele>294</ele>
        <time>2019-05-03T06:49:01Z</time>
      </trkpt>
      <trkpt lat="46.26963" lon="5.53224">
        <ele>294</ele>
        <time>2019-05-03T06:50:01Z</time>
      </trkpt>
      <trkpt lat="46.26966" lon="5.5321">
        <ele>294</ele>
        <time>2019-05-03T06:51:01Z</time>
      </trkpt>
      <trkpt lat="46.26969" lon="5.53191">
        <ele>294</ele>
        <time>2019-05-03T06:52:01Z</time>
      </trkpt>
      <trkpt lat="46.26972" lon="5.53174">
        <ele>293</ele>
        <time>2019-05-03T06:53:01Z</time>
      </trkpt>
      <trkpt lat="46.26973" lon="5.53159">
        <ele>293</ele>
        <time>2019-05-03T06:54:01Z</time>
      </trkpt>
      <trkpt lat="46.26974" lon="5.53145">
        <ele>293</ele>
        <time>2019-05-03T06:55:01Z</time>
      </trkpt>
      <trkpt lat="46.26974" lon="5.53114">
        <ele>292</ele>
        <time>2019-05-03T06:56:01Z</time>
      </trkpt>
      <trkpt lat="46.26975" lon="5.53083">
        <ele>291</ele>
        <time>2019-05-03T06:57:01Z</time>
      </trkpt>
      <trkpt lat="46.26976" lon="5.53057">
        <ele>291</ele>
        <time>2019-05-03T06:58:01Z</time>
      </trkpt>
      <trkpt lat="46.26976" lon="5.53038">
        <ele>291</ele>
        <time>2019-05-03T06:59:01Z</time>
      </trkpt>
      <trkpt lat="46.26976" lon="5.53007">
        <ele>292</ele>
        <time>2019-05-03T07:00:01Z</time>
      </trkpt>
      <trkpt lat="46.26976" lon="5.52957">
        <ele>292</ele>
        <time>2019-05-03T07:01:01Z</time>
      </trkpt>
      <trkpt lat="46.26976" lon="5.52952">
        <ele>292</ele>
        <time>2019-05-03T07:02:01Z</time>
      </trkpt>
      <trkpt lat="46.26977" lon="5.52918">
        <ele>292</ele>
        <time>2019-05-03T07:03:01Z</time>
      </trkpt>
      <trkpt lat="46.26978" lon="5.52876">
        <ele>291</ele>
        <time>2019-05-03T07:04:01Z</time>
      </trkpt>
      <trkpt lat="46.26979" lon="5.52798">
        <ele>291</ele>
        <time>2019-05-03T07:05:01Z</time>
      </trkpt>
      <trkpt lat="46.26978" lon="5.52761">
        <ele>291</ele>
        <time>2019-05-03T07:06:01Z</time>
      </trkpt>
      <trkpt lat="46.26977" lon="5.52735">
        <ele>292</ele>
        <time>2019-05-03T07:07:01Z</time>
      </trkpt>
      <trkpt lat="46.26974" lon="5.5271">
        <ele>294</ele>
        <time>2019-05-03T07:08:01Z</time>
      </trkpt>
      <trkpt lat="46.26974" lon="5.52709">
        <ele>294</ele>
        <time>2019-05-03T07:09:01Z</time>
      </trkpt>
      <trkpt lat="46.26974" lon="5.52707">
        <ele>294</ele>
        <time>2019-05-03T07:10:01Z</time>
      </trkpt>
      <trkpt lat="46.26973" lon="5.52706">
        <ele>294</ele>
        <time>2019-05-03T07:11:01Z</time>
      </trkpt>
      <trkpt lat="46.26971" lon="5.527">
        <ele>294</ele>
        <time>2019-05-03T07:12:01Z</time>
      </trkpt>
      <trkpt lat="46.26971" lon="5.52699">
        <ele>294</ele>
        <time>2019-05-03T07:13:01Z</time>
      </trkpt>
      <trkpt lat="46.26968" lon="5.52692">
        <ele>295</ele>
        <time>2019-05-03T07:14:01Z</time>
      </trkpt>
      <trkpt lat="46.26966" lon="5.5269">
        <ele>295</ele>
        <time>2019-05-03T07:15:01Z</time>
      </trkpt>
      <trkpt lat="46.26961" lon="5.52683">
        <ele>295</ele>
        <time>2019-05-03T07:16:01Z</time>
      </trkpt>
      <trkpt lat="46.26949" lon="5.52668">
        <ele>295</ele>
        <time>2019-05-03T07:17:01Z</time>
      </trkpt>
      <trkpt lat="46.26932" lon="5.52651">
        <ele>298</ele>
        <time>2019-05-03T07:18:01Z</time>
      </trkpt>
      <trkpt lat="46.26922" lon="5.5264">
        <ele>300</ele>
        <time>2019-05-03T07:19:01Z</time>
      </trkpt>
      <trkpt lat="46.26909" lon="5.52626">
        <ele>302</ele>
        <time>2019-05-03T07:20:01Z</time>
      </trkpt>
      <trkpt lat="46.26893" lon="5.5261">
        <ele>302</ele>
        <time>2019-05-03T07:21:01Z</time>
      </trkpt>
      <trkpt lat="46.26875" lon="5.52591">
        <ele>302</ele>
        <time>2019-05-03T07:22:01Z</time>
      </trkpt>
      <trkpt lat="46.26862" lon="5.52576">
        <ele>303</ele>
        <time>2019-05-03T07:23:01Z</time>
      </trkpt>
      <trkpt lat="46.26846" lon="5.5256">
        <ele>305</ele>
        <time>2019-05-03T07:24:01Z</time>
      </trkpt>
      <trkpt lat="46.26827" lon="5.5254">
        <ele>307</ele>
        <time>2019-05-03T07:25:01Z</time>
      </trkpt>
      <trkpt lat="46.26814" lon="5.52527">
        <ele>307</ele>
        <time>2019-05-03T07:26:01Z</time>
      </trkpt>
      <trkpt lat="46.26802" lon="5.52515">
        <ele>306</ele>
        <time>2019-05-03T07:27:01Z</time>
      </trkpt>
      <trkpt lat="46.26786" lon="5.52498">
        <ele>305</ele>
        <time>2019-05-03T07:28:01Z</time>
      </trkpt>
      <trkpt lat="46.26772" lon="5.52482">
        <ele>305</ele>
        <time>2019-05-03T07:29:01Z</time>
      </trkpt>
      <trkpt lat="46.26757" lon="5.52467">
        <ele>305</ele>
        <time>2019-05-03T07:30:01Z</time>
      </trkpt>
      <trkpt lat="46.26744" lon="5.52453">
        <ele>305</ele>
        <time>2019-05-03T07:31:01Z</time>
      </trkpt>
      <trkpt lat="46.26739" lon="5.52446">
        <ele>306</ele>
        <time>2019-05-03T07:32:01Z</time>
      </trkpt>
      <trkpt lat="46.2671" lon="5.52415">
        <ele>304</ele>
        <time>2019-05-03T07:33:01Z</time>
      </trkpt>
      <trkpt lat="46.26684" lon="5.52387">
        <ele>301</ele>
        <time>2019-05-03T07:34:01Z</time>
      </trkpt>
      <trkpt lat="46.26671" lon="5.52371">
        <ele>299</ele>
        <time>2019-05-03T07:35:01Z</time>
      </trkpt>
      <trkpt lat="46.26655" lon="5.52351">
        <ele>299</ele>
        <time>2019-05-03T07:36:01Z</time>
      </trkpt>
      <trkpt lat="46.26636" lon="5.52331">
        <ele>299</ele>
        <time>2019-05-03T07:37:01Z</time>
      </trkpt>
      <trkpt lat="46.26623" lon="5.52318">
        <ele>298</ele>
        <time>2019-05-03T07:38:01Z</time>
      </trkpt>
      <trkpt lat="46.26614" lon="5.52309">
        <ele>298</ele>
        <time>2019-05-03T07:39:01Z</time>
      </trkpt>
      <trkpt lat="46.26607" lon="5.52302">
        <ele>297</ele>
        <time>2019-05-03T07:40:01Z</time>
      </trkpt>
      <trkpt lat="46.26597" lon="5.52283">
        <ele>296</ele>
        <time>2019-05-03T07:41:01Z</time>
      </trkpt>
      <trkpt lat="46.26592" lon="5.52271">
        <ele>295</ele>
        <time>2019-05-03T07:42:01Z</time>
      </trkpt>
      <trkpt lat="46.26589" lon="5.52259">
        <ele>295</ele>
        <time>2019-05-03T07:43:01Z</time>
      </trkpt>
      <trkpt lat="46.26585" lon="5.52242">
        <ele>295</ele>
        <time>2019-05-03T07:44:01Z</time>
      </trkpt>
      <trkpt lat="46.26581" lon="5.52213">
        <ele>296</ele>
        <time>2019-05-03T07:45:01Z</time>
      </trkpt>
      <trkpt lat="46.26578" lon="5.52189">
        <ele>298</ele>
        <time>2019-05-03T07:46:01Z</time>
      </trkpt>
      <trkpt lat="46.26573" lon="5.52168">
        <ele>299</ele>
        <time>2019-05-03T07:47:01Z</time>
      </trkpt>
      <trkpt lat="46.26566" lon="5.52145">
        <ele>299</ele>
        <time>2019-05-03T07:48:01Z</time>
      </trkpt>
      <trkpt lat="46.26558" lon="5.52124">
        <ele>299</ele>
        <time>2019-05-03T07:49:01Z</time>
      </trkpt>
      <trkpt lat="46.26549" lon="5.52098">
        <ele>298</ele>
        <time>2019-05-03T07:50:01Z</time>
      </trkpt>
      <trkpt lat="46.2654" lon="5.52071">
        <ele>298</ele>
        <time>2019-05-03T07:51:01Z</time>
      </trkpt>
      <trkpt lat="46.26534" lon="5.52051">
        <ele>297</ele>
        <time>2019-05-03T07:52:01Z</time>
      </trkpt>
      <trkpt lat="46.26531" lon="5.52039">
        <ele>297</ele>
        <time>2019-05-03T07:53:01Z</time>
      </trkpt>
      <trkpt lat="46.26528" lon="5.52027">
        <ele>296</ele>
        <time>2019-05-03T07:54:01Z</time>
      </trkpt>
      <trkpt lat="46.26527" lon="5.52017">
        <ele>296</ele>
        <time>2019-05-03T07:55:01Z</time>
      </trkpt>
      <trkpt lat="46.26525" lon="5.52">
        <ele>296</ele>
        <time>2019-05-03T07:56:01Z</time>
      </trkpt>
      <trkpt lat="46.26525" lon="5.51975">
        <ele>297</ele>
        <time>2019-05-03T07:57:01Z</time>
      </trkpt>
      <trkpt lat="46.26527" lon="5.51924">
        <ele>299</ele>
        <time>2019-05-03T07:58:01Z</time>
      </trkpt>
      <trkpt lat="46.26527" lon="5.51912">
        <ele>299</ele>
        <time>2019-05-03T07:59:01Z</time>
      </trkpt>
      <trkpt lat="46.26528" lon="5.51893">
        <ele>298</ele>
        <time>2019-05-03T08:00:01Z</time>
      </trkpt>
      <trkpt lat="46.26531" lon="5.51861">
        <ele>298</ele>
        <time>2019-05-03T08:01:01Z</time>
      </trkpt>
      <trkpt lat="46.26534" lon="5.51825">
        <ele>298</ele>
        <time>2019-05-03T08:02:01Z</time>
      </trkpt>
      <trkpt lat="46.26534" lon="5.51811">
        <ele>297</ele>
        <time>2019-05-03T08:03:01Z</time>
      </trkpt>
      <trkpt lat="46.26535" lon="5.51798">
        <ele>297</ele>
        <time>2019-05-03T08:04:01Z</time>
      </trkpt>
      <trkpt lat="46.26538" lon="5.51783">
        <ele>297</ele>
        <time>2019-05-03T08:05:01Z</time>
      </trkpt>
      <trkpt lat="46.26544" lon="5.5176">
        <ele>297</ele>
        <time>2019-05-03T08:06:01Z</time>
      </trkpt>
      <trkpt lat="46.26554" lon="5.51737">
        <ele>298</ele>
        <time>2019-05-03T08:07:01Z</time>
      </trkpt>
      <trkpt lat="46.26563" lon="5.51716">
        <ele>299</ele>
        <time>2019-05-03T08:08:01Z</time>
      </trkpt>
      <trkpt lat="46.26574" lon="5.51693">
        <ele>299</ele>
        <time>2019-05-03T08:09:01Z</time>
      </trkpt>
      <trkpt lat="46.2658" lon="5.51674">
        <ele>299</ele>
        <time>2019-05-03T08:10:01Z</time>
      </trkpt>
      <trkpt lat="46.26582" lon="5.51653">
        <ele>299</ele>
        <time>2019-05-03T08:11:01Z</time>
      </trkpt>
      <trkpt lat="46.26582" lon="5.51633">
        <ele>298</ele>
        <time>2019-05-03T08:12:01Z</time>
      </trkpt>
      <trkpt lat="46.2658" lon="5.5161">
        <ele>298</ele>
        <time>2019-05-03T08:13:01Z</time>
      </trkpt>
      <trkpt lat="46.26577" lon="5.5159">
        <ele>297</ele>
        <time>2019-05-03T08:14:01Z</time>
      </trkpt>
      <trkpt lat="46.26574" lon="5.51572">
        <ele>297</ele>
        <time>2019-05-03T08:15:01Z</time>
      </trkpt>
      <trkpt lat="46.26569" lon="5.51556">
        <ele>298</ele>
        <time>2019-05-03T08:16:01Z</time>
      </trkpt>
      <trkpt lat="46.26563" lon="5.51542">
        <ele>297</ele>
        <time>2019-05-03T08:17:01Z</time>
      </trkpt>
      <trkpt lat="46.2655" lon="5.51517">
        <ele>296</ele>
        <time>2019-05-03T08:18:01Z</time>
      </trkpt>
      <trkpt lat="46.26536" lon="5.5149">
        <ele>295</ele>
        <time>2019-05-03T08:19:01Z</time>
      </trkpt>
      <trkpt lat="46.2653" lon="5.51477">
        <ele>294</ele>
        <time>2019-05-03T08:20:01Z</time>
      </trkpt>
      <trkpt lat="46.26526" lon="5.51462">
        <ele>294</ele>
        <time>2019-05-03T08:21:01Z</time>
      </trkpt>
      <trkpt lat="46.26525" lon="5.51451">
        <ele>294</ele>
        <time>2019-05-03T08:22:01Z</time>
      </trkpt>
      <trkpt lat="46.26525" lon="5.51427">
        <ele>294</ele>
        <time>2019-05-03T08:23:01Z</time>
      </trkpt>
      <trkpt lat="46.26526" lon="5.514">
        <ele>295</ele>
        <time>2019-05-03T08:24:01Z</time>
      </trkpt>
      <trkpt lat="46.26528" lon="5.51365">
        <ele>296</ele>
        <time>2019-05-03T08:25:01Z</time>
      </trkpt>
      <trkpt lat="46.26529" lon="5.5134">
        <ele>297</ele>
        <time>2019-05-03T08:26:01Z</time>
      </trkpt>
      <trkpt lat="46.2653" lon="5.51304">
        <ele>297</ele>
        <time>2019-05-03T08:27:01Z</time>
      </trkpt>
      <trkpt lat="46.26528" lon="5.51234">
        <ele>296</ele>
        <time>2019-05-03T08:28:01Z</time>
      </trkpt>
      <trkpt lat="46.26528" lon="5.51192">
        <ele>297</ele>
        <time>2019-05-03T08:29:01Z</time>
      </trkpt>
      <trkpt lat="46.26526" lon="5.51175">
        <ele>296</ele>
        <time>2019-05-03T08:30:01Z</time>
      </trkpt>
      <trkpt lat="46.26522" lon="5.51158">
        <ele>296</ele>
        <time>2019-05-03T08:31:01Z</time>
      </trkpt>
      <trkpt lat="46.26513" lon="5.51136">
        <ele>296</ele>
        <time>2019-05-03T08:32:01Z</time>
      </trkpt>
      <trkpt lat="46.26506" lon="5.51119">
        <ele>295</ele>
        <time>2019-05-03T08:33:01Z</time>
      </trkpt>
      <trkpt lat="46.26497" lon="5.51094">
        <ele>295</ele>
        <time>2019-05-03T08:34:01Z</time>
      </trkpt>
      <trkpt lat="46.26488" lon="5.51067">
        <ele>295</ele>
        <time>2019-05-03T08:35:01Z</time>
      </trkpt>
      <trkpt lat="46.26476" lon="5.51032">
        <ele>295</ele>
        <time>2019-05-03T08:36:01Z</time>
      </trkpt>
      <trkpt lat="46.26471" lon="5.51016">
        <ele>295</ele>
        <time>2019-05-03T08:37:01Z</time>
      </trkpt>
      <trkpt lat="46.26465" lon="5.51003">
        <ele>294</ele>
        <time>2019-05-03T08:38:01Z</time>
      </trkpt>
      <trkpt lat="46.26458" lon="5.5099">
        <ele>294</ele>
        <time>2019-05-03T08:39:01Z</time>
      </trkpt>
      <trkpt lat="46.26451" lon="5.50981">
        <ele>293</ele>
        <time>2019-05-03T08:40:01Z</time>
      </trkpt>
      <trkpt lat="46.26444" lon="5.50972">
        <ele>292</ele>
        <time>2019-05-03T08:41:01Z</time>
      </trkpt>
      <trkpt lat="46.26438" lon="5.50967">
        <ele>291</ele>
        <time>2019-05-03T08:42:01Z</time>
      </trkpt>
      <trkpt lat="46.26428" lon="5.5096">
        <ele>290</ele>
        <time>2019-05-03T08:43:01Z</time>
      </trkpt>
      <trkpt lat="46.26415" lon="5.50953">
        <ele>288</ele>
        <time>2019-05-03T08:44:01Z</time>
      </trkpt>
      <trkpt lat="46.26399" lon="5.50944">
        <ele>288</ele>
        <time>2019-05-03T08:45:01Z</time>
      </trkpt>
      <trkpt lat="46.26382" lon="5.50935">
        <ele>287</ele>
        <time>2019-05-03T08:46:01Z</time>
      </trkpt>
      <trkpt lat="46.26361" lon="5.50925">
        <ele>286</ele>
        <time>2019-05-03T08:47:01Z</time>
      </trkpt>
      <trkpt lat="46.26325" lon="5.50905">
        <ele>285</ele>
        <time>2019-05-03T08:48:01Z</time>
      </trkpt>
      <trkpt lat="46.2627" lon="5.50876">
        <ele>286</ele>
        <time>2019-05-03T08:49:01Z</time>
      </trkpt>
      <trkpt lat="46.26248" lon="5.50863">
        <ele>286</ele>
        <time>2019-05-03T08:50:01Z</time>
      </trkpt>
      <trkpt lat="46.26232" lon="5.50857">
        <ele>287</ele>
        <time>2019-05-03T08:51:01Z</time>
      </trkpt>
      <trkpt lat="46.26223" lon="5.50856">
        <ele>287</ele>
        <time>2019-05-03T08:52:01Z</time>
      </trkpt>
      <trkpt lat="46.26215" lon="5.50855">
        <ele>288</ele>
        <time>2019-05-03T08:53:01Z</time>
      </trkpt>
      <trkpt lat="46.26207" lon="5.50856">
        <ele>288</ele>
        <time>2019-05-03T08:54:01Z</time>
      </trkpt>
      <trkpt lat="46.26198" lon="5.50858">
        <ele>288</ele>
        <time>2019-05-03T08:55:01Z</time>
      </trkpt>
      <trkpt lat="46.26185" lon="5.50863">
        <ele>289</ele>
        <time>2019-05-03T08:56:01Z</time>
      </trkpt>
      <trkpt lat="46.26173" lon="5.50867">
        <ele>289</ele>
        <time>2019-05-03T08:57:01Z</time>
      </trkpt>
      <trkpt lat="46.26163" lon="5.50873">
        <ele>289</ele>
        <time>2019-05-03T08:58:01Z</time>
      </trkpt>
      <trkpt lat="46.26153" lon="5.50878">
        <ele>289</ele>
        <time>2019-05-03T08:59:01Z</time>
      </trkpt>
      <trkpt lat="46.26145" lon="5.50883">
        <ele>288</ele>
        <time>2019-05-03T09:00:01Z</time>
      </trkpt>
      <trkpt lat="46.26139" lon="5.50885">
        <ele>288</ele>
        <time>2019-05-03T09:01:01Z</time>
      </trkpt>
      <trkpt lat="46.26126" lon="5.50886">
        <ele>289</ele>
        <time>2019-05-03T09:02:01Z</time>
      </trkpt>
      <trkpt lat="46.26114" lon="5.50882">
        <ele>289</ele>
        <time>2019-05-03T09:03:01Z</time>
      </trkpt>
      <trkpt lat="46.26106" lon="5.50879">
        <ele>289</ele>
        <time>2019-05-03T09:04:01Z</time>
      </trkpt>
      <trkpt lat="46.26101" lon="5.50876">
        <ele>289</ele>
        <time>2019-05-03T09:05:01Z</time>
      </trkpt>
      <trkpt lat="46.26093" lon="5.50871">
        <ele>289</ele>
        <time>2019-05-03T09:06:01Z</time>
      </trkpt>
      <trkpt lat="46.26084" lon="5.50865">
        <ele>290</ele>
        <time>2019-05-03T09:07:01Z</time>
      </trkpt>
      <trkpt lat="46.26075" lon="5.50858">
        <ele>290</ele>
        <time>2019-05-03T09:08:01Z</time>
      </trkpt>
      <trkpt lat="46.26038" lon="5.50835">
        <ele>289</ele>
        <time>2019-05-03T09:09:01Z</time>
      </trkpt>
      <trkpt lat="46.26015" lon="5.50819">
        <ele>288</ele>
        <time>2019-05-03T09:10:01Z</time>
      </trkpt>
      <trkpt lat="46.25996" lon="5.50806">
        <ele>288</ele>
        <time>2019-05-03T09:11:01Z</time>
      </trkpt>
      <trkpt lat="46.25989" lon="5.50801">
        <ele>288</ele>
        <time>2019-05-03T09:12:01Z</time>
      </trkpt>
      <trkpt lat="46.25976" lon="5.50792">
        <ele>289</ele>
        <time>2019-05-03T09:13:01Z</time>
      </trkpt>
      <trkpt lat="46.25964" lon="5.50784">
        <ele>290</ele>
        <time>2019-05-03T09:14:01Z</time>
      </trkpt>
      <trkpt lat="46.25952" lon="5.50777">
        <ele>291</ele>
        <time>2019-05-03T09:15:01Z</time>
      </trkpt>
      <trkpt lat="46.25936" lon="5.50765">
        <ele>292</ele>
        <time>2019-05-03T09:16:01Z</time>
      </trkpt>
      <trkpt lat="46.25923" lon="5.50757">
        <ele>292</ele>
        <time>2019-05-03T09:17:01Z</time>
      </trkpt>
      <trkpt lat="46.25864" lon="5.50716">
        <ele>297</ele>
        <time>2019-05-03T09:18:01Z</time>
      </trkpt>
      <trkpt lat="46.25821" lon="5.50685">
        <ele>300</ele>
        <time>2019-05-03T09:19:01Z</time>
      </trkpt>
      <trkpt lat="46.25766" lon="5.50648">
        <ele>300</ele>
        <time>2019-05-03T09:20:01Z</time>
      </trkpt>
      <trkpt lat="46.25715" lon="5.50614">
        <ele>303</ele>
        <time>2019-05-03T09:21:01Z</time>
      </trkpt>
      <trkpt lat="46.25683" lon="5.50592">
        <ele>305</ele>
        <time>2019-05-03T09:22:01Z</time>
      </trkpt>
      <trkpt lat="46.25668" lon="5.50582">
        <ele>306</ele>
        <time>2019-05-03T09:23:01Z</time>
      </trkpt>
      <trkpt lat="46.25654" lon="5.50575">
        <ele>307</ele>
        <time>2019-05-03T09:24:01Z</time>
      </trkpt>
      <trkpt lat="46.25634" lon="5.50569">
        <ele>308</ele>
        <time>2019-05-03T09:25:01Z</time>
      </trkpt>
      <trkpt lat="46.25611" lon="5.50564">
        <ele>309</ele>
        <time>2019-05-03T09:26:01Z</time>
      </trkpt>
      <trkpt lat="46.25594" lon="5.50561">
        <ele>309</ele>
        <time>2019-05-03T09:27:01Z</time>
      </trkpt>
      <trkpt lat="46.25568" lon="5.50557">
        <ele>311</ele>
        <time>2019-05-03T09:28:01Z</time>
      </trkpt>
      <trkpt lat="46.25546" lon="5.50555">
        <ele>313</ele>
        <time>2019-05-03T09:29:01Z</time>
      </trkpt>
      <trkpt lat="46.25523" lon="5.50555">
        <ele>315</ele>
        <time>2019-05-03T09:30:01Z</time>
      </trkpt>
      <trkpt lat="46.25496" lon="5.5056">
        <ele>316</ele>
        <time>2019-05-03T09:31:01Z</time>
      </trkpt>
      <trkpt lat="46.25477" lon="5.50564">
        <ele>317</ele>
        <time>2019-05-03T09:32:01Z</time>
      </trkpt>
      <trkpt lat="46.25462" lon="5.50568">
        <ele>317</ele>
        <time>2019-05-03T09:33:01Z</time>
      </trkpt>
      <trkpt lat="46.2545" lon="5.5057">
        <ele>317</ele>
        <time>2019-05-03T09:34:01Z</time>
      </trkpt>
      <trkpt lat="46.25437" lon="5.50571">
        <ele>318</ele>
        <time>2019-05-03T09:35:01Z</time>
      </trkpt>
      <trkpt lat="46.25423" lon="5.50571">
        <ele>318</ele>
        <time>2019-05-03T09:36:01Z</time>
      </trkpt>
      <trkpt lat="46.25411" lon="5.50568">
        <ele>319</ele>
        <time>2019-05-03T09:37:01Z</time>
      </trkpt>
      <trkpt lat="46.254" lon="5.50563">
        <ele>319</ele>
        <time>2019-05-03T09:38:01Z</time>
      </trkpt>
      <trkpt lat="46.25318" lon="5.5053">
        <ele>322</ele>
        <time>2019-05-03T09:39:01Z</time>
      </trkpt>
      <trkpt lat="46.25288" lon="5.50516">
        <ele>323</ele>
        <time>2019-05-03T09:40:01Z</time>
      </trkpt>
      <trkpt lat="46.25272" lon="5.50505">
        <ele>324</ele>
        <time>2019-05-03T09:41:01Z</time>
      </trkpt>
      <trkpt lat="46.25259" lon="5.50492">
        <ele>325</ele>
        <time>2019-05-03T09:42:01Z</time>
      </trkpt>
      <trkpt lat="46.2525" lon="5.50484">
        <ele>325</ele>
        <time>2019-05-03T09:43:01Z</time>
      </trkpt>
      <trkpt lat="46.25242" lon="5.50473">
        <ele>325</ele>
        <time>2019-05-03T09:44:01Z</time>
      </trkpt>
      <trkpt lat="46.25199" lon="5.50424">
        <ele>326</ele>
        <time>2019-05-03T09:45:01Z</time>
      </trkpt>
      <trkpt lat="46.25156" lon="5.50374">
        <ele>326</ele>
        <time>2019-05-03T09:46:01Z</time>
      </trkpt>
      <trkpt lat="46.25122" lon="5.50334">
        <ele>328</ele>
        <time>2019-05-03T09:47:01Z</time>
      </trkpt>
      <trkpt lat="46.25079" lon="5.50282">
        <ele>333</ele>
        <time>2019-05-03T09:48:01Z</time>
      </trkpt>
      <trkpt lat="46.25066" lon="5.50268">
        <ele>333</ele>
        <time>2019-05-03T09:49:01Z</time>
      </trkpt>
      <trkpt lat="46.25018" lon="5.5021">
        <ele>335</ele>
        <time>2019-05-03T09:50:01Z</time>
      </trkpt>
      <trkpt lat="46.24983" lon="5.5017">
        <ele>335</ele>
        <time>2019-05-03T09:51:01Z</time>
      </trkpt>
      <trkpt lat="46.24957" lon="5.50137">
        <ele>337</ele>
        <time>2019-05-03T09:52:01Z</time>
      </trkpt>
      <trkpt lat="46.24917" lon="5.50093">
        <ele>337</ele>
        <time>2019-05-03T09:53:01Z</time>
      </trkpt>
      <trkpt lat="46.24903" lon="5.50076">
        <ele>338</ele>
        <time>2019-05-03T09:54:01Z</time>
      </trkpt>
      <trkpt lat="46.24877" lon="5.50046">
        <ele>341</ele>
        <time>2019-05-03T09:55:01Z</time>
      </trkpt>
      <trkpt lat="46.24871" lon="5.5004">
        <ele>341</ele>
        <time>2019-05-03T09:56:01Z</time>
      </trkpt>
      <trkpt lat="46.24831" lon="5.49995">
        <ele>342</ele>
        <time>2019-05-03T09:57:01Z</time>
      </trkpt>
      <trkpt lat="46.24814" lon="5.49976">
        <ele>346</ele>
        <time>2019-05-03T09:58:01Z</time>
      </trkpt>
      <trkpt lat="46.24787" lon="5.49948">
        <ele>349</ele>
        <time>2019-05-03T09:59:01Z</time>
      </trkpt>
      <trkpt lat="46.24744" lon="5.49912">
        <ele>345</ele>
        <time>2019-05-03T10:00:01Z</time>
      </trkpt>
      <trkpt lat="46.24723" lon="5.49896">
        <ele>346</ele>
        <time>2019-05-03T10:01:01Z</time>
      </trkpt>
      <trkpt lat="46.24706" lon="5.49882">
        <ele>347</ele>
        <time>2019-05-03T10:02:01Z</time>
      </trkpt>
      <trkpt lat="46.24681" lon="5.4986">
        <ele>347</ele>
        <time>2019-05-03T10:03:01Z</time>
      </trkpt>
      <trkpt lat="46.24661" lon="5.49835">
        <ele>347</ele>
        <time>2019-05-03T10:04:01Z</time>
      </trkpt>
      <trkpt lat="46.24645" lon="5.49815">
        <ele>350</ele>
        <time>2019-05-03T10:05:01Z</time>
      </trkpt>
      <trkpt lat="46.24638" lon="5.49804">
        <ele>352</ele>
        <time>2019-05-03T10:06:01Z</time>
      </trkpt>
      <trkpt lat="46.2461" lon="5.49766">
        <ele>352</ele>
        <time>2019-05-03T10:07:01Z</time>
      </trkpt>
      <trkpt lat="46.24587" lon="5.49735">
        <ele>351</ele>
        <time>2019-05-03T10:08:01Z</time>
      </trkpt>
      <trkpt lat="46.24575" lon="5.49715">
        <ele>352</ele>
        <time>2019-05-03T10:09:01Z</time>
      </trkpt>
      <trkpt lat="46.24565" lon="5.49695">
        <ele>353</ele>
        <time>2019-05-03T10:10:01Z</time>
      </trkpt>
      <trkpt lat="46.24555" lon="5.49671">
        <ele>354</ele>
        <time>2019-05-03T10:11:01Z</time>
      </trkpt>
      <trkpt lat="46.24545" lon="5.49649">
        <ele>356</ele>
        <time>2019-05-03T10:12:01Z</time>
      </trkpt>
      <trkpt lat="46.24537" lon="5.49627">
        <ele>359</ele>
        <time>2019-05-03T10:13:01Z</time>
      </trkpt>
      <trkpt lat="46.24533" lon="5.49613">
        <ele>362</ele>
        <time>2019-05-03T10:14:01Z</time>
      </trkpt>
      <trkpt lat="46.24525" lon="5.49597">
        <ele>362</ele>
        <time>2019-05-03T10:15:01Z</time>
      </trkpt>
      <trkpt lat="46.24513" lon="5.49579">
        <ele>360</ele>
        <time>2019-05-03T10:16:01Z</time>
      </trkpt>
      <trkpt lat="46.24501" lon="5.4956">
        <ele>358</ele>
        <time>2019-05-03T10:17:01Z</time>
      </trkpt>
      <trkpt lat="46.24485" lon="5.49529">
        <ele>361</ele>
        <time>2019-05-03T10:18:01Z</time>
      </trkpt>
      <trkpt lat="46.24466" lon="5.49495">
        <ele>361</ele>
        <time>2019-05-03T10:19:01Z</time>
      </trkpt>
      <trkpt lat="46.24452" lon="5.49458">
        <ele>360</ele>
        <time>2019-05-03T10:20:01Z</time>
      </trkpt>
      <trkpt lat="46.24443" lon="5.49427">
        <ele>361</ele>
        <time>2019-05-03T10:21:01Z</time>
      </trkpt>
      <trkpt lat="46.24439" lon="5.49411">
        <ele>361</ele>
        <time>2019-05-03T10:22:01Z</time>
      </trkpt>
      <trkpt lat="46.24437" lon="5.49397">
        <ele>360</ele>
        <time>2019-05-03T10:23:01Z</time>
      </trkpt>
      <trkpt lat="46.24437" lon="5.49387">
        <ele>360</ele>
        <time>2019-05-03T10:24:01Z</time>
      </trkpt>
      <trkpt lat="46.24436" lon="5.49363">
        <ele>359</ele>
        <time>2019-05-03T10:25:01Z</time>
      </trkpt>
      <trkpt lat="46.24437" lon="5.49346">
        <ele>360</ele>
        <time>2019-05-03T10:26:01Z</time>
      </trkpt>
      <trkpt lat="46.24439" lon="5.49323">
        <ele>360</ele>
        <time>2019-05-03T10:27:01Z</time>
      </trkpt>
      <trkpt lat="46.24441" lon="5.49307">
        <ele>361</ele>
        <time>2019-05-03T10:28:01Z</time>
      </trkpt>
      <trkpt lat="46.24443" lon="5.49292">
        <ele>361</ele>
        <time>2019-05-03T10:29:01Z</time>
      </trkpt>
      <trkpt lat="46.24443" lon="5.49272">
        <ele>361</ele>
        <time>2019-05-03T10:30:01Z</time>
      </trkpt>
      <trkpt lat="46.24443" lon="5.49256">
        <ele>361</ele>
        <time>2019-05-03T10:31:01Z</time>
      </trkpt>
      <trkpt lat="46.24442" lon="5.49241">
        <ele>362</ele>
        <time>2019-05-03T10:32:01Z</time>
      </trkpt>
      <trkpt lat="46.24439" lon="5.49226">
        <ele>364</ele>
        <time>2019-05-03T10:33:01Z</time>
      </trkpt>
      <trkpt lat="46.24435" lon="5.4921">
        <ele>366</ele>
        <time>2019-05-03T10:34:01Z</time>
      </trkpt>
      <trkpt lat="46.24428" lon="5.49186">
        <ele>368</ele>
        <time>2019-05-03T10:35:01Z</time>
      </trkpt>
      <trkpt lat="46.24423" lon="5.49173">
        <ele>369</ele>
        <time>2019-05-03T10:36:01Z</time>
      </trkpt>
      <trkpt lat="46.24416" lon="5.4916">
        <ele>370</ele>
        <time>2019-05-03T10:37:01Z</time>
      </trkpt>
      <trkpt lat="46.24408" lon="5.49146">
        <ele>372</ele>
        <time>2019-05-03T10:38:01Z</time>
      </trkpt>
      <trkpt lat="46.244" lon="5.49135">
        <ele>373</ele>
        <time>2019-05-03T10:39:01Z</time>
      </trkpt>
      <trkpt lat="46.24389" lon="5.49122">
        <ele>375</ele>
        <time>2019-05-03T10:40:01Z</time>
      </trkpt>
      <trkpt lat="46.2438" lon="5.49113">
        <ele>376</ele>
        <time>2019-05-03T10:41:01Z</time>
      </trkpt>
      <trkpt lat="46.24369" lon="5.49105">
        <ele>376</ele>
        <time>2019-05-03T10:42:01Z</time>
      </trkpt>
      <trkpt lat="46.24354" lon="5.49092">
        <ele>378</ele>
        <time>2019-05-03T10:43:01Z</time>
      </trkpt>
      <trkpt lat="46.24336" lon="5.4908">
        <ele>380</ele>
        <time>2019-05-03T10:44:01Z</time>
      </trkpt>
      <trkpt lat="46.24323" lon="5.4907">
        <ele>379</ele>
        <time>2019-05-03T10:45:01Z</time>
      </trkpt>
      <trkpt lat="46.24304" lon="5.49056">
        <ele>378</ele>
        <time>2019-05-03T10:46:01Z</time>
      </trkpt>
      <trkpt lat="46.24287" lon="5.49041">
        <ele>378</ele>
        <time>2019-05-03T10:47:01Z</time>
      </trkpt>
      <trkpt lat="46.24273" lon="5.49025">
        <ele>381</ele>
        <time>2019-05-03T10:48:01Z</time>
      </trkpt>
      <trkpt lat="46.24263" lon="5.49014">
        <ele>382</ele>
        <time>2019-05-03T10:49:01Z</time>
      </trkpt>
      <trkpt lat="46.24254" lon="5.49005">
        <ele>384</ele>
        <time>2019-05-03T10:50:01Z</time>
      </trkpt>
      <trkpt lat="46.24244" lon="5.48995">
        <ele>385</ele>
        <time>2019-05-03T10:51:01Z</time>
      </trkpt>
      <trkpt lat="46.24229" lon="5.48983">
        <ele>386</ele>
        <time>2019-05-03T10:52:01Z</time>
      </trkpt>
      <trkpt lat="46.24205" lon="5.48963">
        <ele>387</ele>
        <time>2019-05-03T10:53:01Z</time>
      </trkpt>
      <trkpt lat="46.24176" lon="5.4894">
        <ele>390</ele>
        <time>2019-05-03T10:54:01Z</time>
      </trkpt>
      <trkpt lat="46.24166" lon="5.48932">
        <ele>391</ele>
        <time>2019-05-03T10:55:01Z</time>
      </trkpt>
      <trkpt lat="46.24149" lon="5.48919">
        <ele>394</ele>
        <time>2019-05-03T10:56:01Z</time>
      </trkpt>
      <trkpt lat="46.24132" lon="5.48907">
        <ele>397</ele>
        <time>2019-05-03T10:57:01Z</time>
      </trkpt>
      <trkpt lat="46.24119" lon="5.48896">
        <ele>401</ele>
        <time>2019-05-03T10:58:01Z</time>
      </trkpt>
      <trkpt lat="46.24106" lon="5.48888">
        <ele>403</ele>
        <time>2019-05-03T10:59:01Z</time>
      </trkpt>
      <trkpt lat="46.24096" lon="5.48882">
        <ele>405</ele>
        <time>2019-05-03T11:00:01Z</time>
      </trkpt>
      <trkpt lat="46.24086" lon="5.48877">
        <ele>406</ele>
        <time>2019-05-03T11:01:01Z</time>
      </trkpt>
      <trkpt lat="46.24064" lon="5.48868">
        <ele>407</ele>
        <time>2019-05-03T11:02:01Z</time>
      </trkpt>
      <trkpt lat="46.24039" lon="5.48856">
        <ele>410</ele>
        <time>2019-05-03T11:03:01Z</time>
      </trkpt>
      <trkpt lat="46.24016" lon="5.48847">
        <ele>411</ele>
        <time>2019-05-03T11:04:01Z</time>
      </trkpt>
      <trkpt lat="46.24001" lon="5.48843">
        <ele>410</ele>
        <time>2019-05-03T11:05:01Z</time>
      </trkpt>
      <trkpt lat="46.23988" lon="5.48841">
        <ele>409</ele>
        <time>2019-05-03T11:06:01Z</time>
      </trkpt>
      <trkpt lat="46.23971" lon="5.48839">
        <ele>408</ele>
        <time>2019-05-03T11:07:01Z</time>
      </trkpt>
      <trkpt lat="46.23961" lon="5.48837">
        <ele>407</ele>
        <time>2019-05-03T11:08:01Z</time>
      </trkpt>
      <trkpt lat="46.23944" lon="5.48832">
        <ele>407</ele>
        <time>2019-05-03T11:09:01Z</time>
      </trkpt>
      <trkpt lat="46.23929" lon="5.48827">
        <ele>407</ele>
        <time>2019-05-03T11:10:01Z</time>
      </trkpt>
      <trkpt lat="46.23913" lon="5.48822">
        <ele>405</ele>
        <time>2019-05-03T11:11:01Z</time>
      </trkpt>
      <trkpt lat="46.23899" lon="5.48814">
        <ele>405</ele>
        <time>2019-05-03T11:12:01Z</time>
      </trkpt>
      <trkpt lat="46.23881" lon="5.48805">
        <ele>403</ele>
        <time>2019-05-03T11:13:01Z</time>
      </trkpt>
      <trkpt lat="46.23864" lon="5.48795">
        <ele>401</ele>
        <time>2019-05-03T11:14:01Z</time>
      </trkpt>
      <trkpt lat="46.23852" lon="5.48785">
        <ele>401</ele>
        <time>2019-05-03T11:15:01Z</time>
      </trkpt>
      <trkpt lat="46.23841" lon="5.48773">
        <ele>400</ele>
        <time>2019-05-03T11:16:01Z</time>
      </trkpt>
      <trkpt lat="46.23832" lon="5.48759">
        <ele>401</ele>
        <time>2019-05-03T11:17:01Z</time>
      </trkpt>
      <trkpt lat="46.23827" lon="5.48746">
        <ele>400</ele>
        <time>2019-05-03T11:18:01Z</time>
      </trkpt>
      <trkpt lat="46.23822" lon="5.48731">
        <ele>396</ele>
        <time>2019-05-03T11:19:01Z</time>
      </trkpt>
      <trkpt lat="46.2382" lon="5.48717">
        <ele>393</ele>
        <time>2019-05-03T11:20:01Z</time>
      </trkpt>
      <trkpt lat="46.23822" lon="5.48701">
        <ele>393</ele>
        <time>2019-05-03T11:21:01Z</time>
      </trkpt>
      <trkpt lat="46.23826" lon="5.48688">
        <ele>393</ele>
        <time>2019-05-03T11:22:01Z</time>
      </trkpt>
      <trkpt lat="46.23833" lon="5.48677">
        <ele>395</ele>
        <time>2019-05-03T11:23:01Z</time>
      </trkpt>
      <trkpt lat="46.23839" lon="5.48669">
        <ele>396</ele>
        <time>2019-05-03T11:24:01Z</time>
      </trkpt>
      <trkpt lat="46.23847" lon="5.48665">
        <ele>398</ele>
        <time>2019-05-03T11:25:01Z</time>
      </trkpt>
      <trkpt lat="46.23861" lon="5.48661">
        <ele>402</ele>
        <time>2019-05-03T11:26:01Z</time>
      </trkpt>
      <trkpt lat="46.23874" lon="5.48659">
        <ele>405</ele>
        <time>2019-05-03T11:27:01Z</time>
      </trkpt>
      <trkpt lat="46.23886" lon="5.48658">
        <ele>409</ele>
        <time>2019-05-03T11:28:01Z</time>
      </trkpt>
      <trkpt lat="46.23893" lon="5.48656">
        <ele>411</ele>
        <time>2019-05-03T11:29:01Z</time>
      </trkpt>
      <trkpt lat="46.23901" lon="5.48653">
        <ele>412</ele>
        <time>2019-05-03T11:30:01Z</time>
      </trkpt>
      <trkpt lat="46.23908" lon="5.48649">
        <ele>413</ele>
        <time>2019-05-03T11:31:01Z</time>
      </trkpt>
      <trkpt lat="46.23914" lon="5.48645">
        <ele>413</ele>
        <time>2019-05-03T11:32:01Z</time>
      </trkpt>
      <trkpt lat="46.23924" lon="5.48637">
        <ele>413</ele>
        <time>2019-05-03T11:33:01Z</time>
      </trkpt>
      <trkpt lat="46.23933" lon="5.48631">
        <ele>413</ele>
        <time>2019-05-03T11:34:01Z</time>
      </trkpt>
      <trkpt lat="46.23942" lon="5.48627">
        <ele>414</ele>
        <time>2019-05-03T11:35:01Z</time>
      </trkpt>
      <trkpt lat="46.23953" lon="5.48622">
        <ele>415</ele>
        <time>2019-05-03T11:36:01Z</time>
      </trkpt>
      <trkpt lat="46.23962" lon="5.48618">
        <ele>416</ele>
        <time>2019-05-03T11:37:01Z</time>
      </trkpt>
      <trkpt lat="46.23971" lon="5.48611">
        <ele>415</ele>
        <time>2019-05-03T11:38:01Z</time>
      </trkpt>
      <trkpt lat="46.23979" lon="5.48603">
        <ele>414</ele>
        <time>2019-05-03T11:39:01Z</time>
      </trkpt>
      <trkpt lat="46.23989" lon="5.48594">
        <ele>413</ele>
        <time>2019-05-03T11:40:01Z</time>
      </trkpt>
      <trkpt lat="46.23998" lon="5.48588">
        <ele>413</ele>
        <time>2019-05-03T11:41:01Z</time>
      </trkpt>
      <trkpt lat="46.24007" lon="5.48584">
        <ele>415</ele>
        <time>2019-05-03T11:42:01Z</time>
      </trkpt>
      <trkpt lat="46.24016" lon="5.48581">
        <ele>418</ele>
        <time>2019-05-03T11:43:01Z</time>
      </trkpt>
      <trkpt lat="46.24032" lon="5.48579">
        <ele>424</ele>
        <time>2019-05-03T11:44:01Z</time>
      </trkpt>
      <trkpt lat="46.24046" lon="5.48576">
        <ele>428</ele>
        <time>2019-05-03T11:45:01Z</time>
      </trkpt>
      <trkpt lat="46.24056" lon="5.48573">
        <ele>431</ele>
        <time>2019-05-03T11:46:01Z</time>
      </trkpt>
      <trkpt lat="46.24063" lon="5.48569">
        <ele>431</ele>
        <time>2019-05-03T11:47:01Z</time>
      </trkpt>
      <trkpt lat="46.24074" lon="5.48564">
        <ele>433</ele>
        <time>2019-05-03T11:48:01Z</time>
      </trkpt>
      <trkpt lat="46.24082" lon="5.48558">
        <ele>433</ele>
        <time>2019-05-03T11:49:01Z</time>
      </trkpt>
      <trkpt lat="46.2409" lon="5.48551">
        <ele>432</ele>
        <time>2019-05-03T11:50:01Z</time>
      </trkpt>
      <trkpt lat="46.24099" lon="5.48544">
        <ele>430</ele>
        <time>2019-05-03T11:51:01Z</time>
      </trkpt>
      <trkpt lat="46.24112" lon="5.48536">
        <ele>430</ele>
        <time>2019-05-03T11:52:01Z</time>
      </trkpt>
      <trkpt lat="46.24124" lon="5.48531">
        <ele>431</ele>
        <time>2019-05-03T11:53:01Z</time>
      </trkpt>
      <trkpt lat="46.24141" lon="5.48524">
        <ele>432</ele>
        <time>2019-05-03T11:54:01Z</time>
      </trkpt>
      <trkpt lat="46.24155" lon="5.48518">
        <ele>434</ele>
        <time>2019-05-03T11:55:01Z</time>
      </trkpt>
      <trkpt lat="46.24173" lon="5.48512">
        <ele>437</ele>
        <time>2019-05-03T11:56:01Z</time>
      </trkpt>
      <trkpt lat="46.24185" lon="5.48505">
        <ele>438</ele>
        <time>2019-05-03T11:57:01Z</time>
      </trkpt>
      <trkpt lat="46.24193" lon="5.485">
        <ele>439</ele>
        <time>2019-05-03T11:58:01Z</time>
      </trkpt>
      <trkpt lat="46.24201" lon="5.48495">
        <ele>440</ele>
        <time>2019-05-03T11:59:01Z</time>
      </trkpt>
      <trkpt lat="46.2421" lon="5.48487">
        <ele>441</ele>
        <time>2019-05-03T12:00:01Z</time>
      </trkpt>
      <trkpt lat="46.24217" lon="5.4848">
        <ele>440</ele>
        <time>2019-05-03T12:01:01Z</time>
      </trkpt>
      <trkpt lat="46.24222" lon="5.48474">
        <ele>440</ele>
        <time>2019-05-03T12:02:01Z</time>
      </trkpt>
      <trkpt lat="46.24226" lon="5.48467">
        <ele>439</ele>
        <time>2019-05-03T12:03:01Z</time>
      </trkpt>
      <trkpt lat="46.24231" lon="5.48457">
        <ele>436</ele>
        <time>2019-05-03T12:04:01Z</time>
      </trkpt>
      <trkpt lat="46.24239" lon="5.48442">
        <ele>433</ele>
        <time>2019-05-03T12:05:01Z</time>
      </trkpt>
      <trkpt lat="46.24247" lon="5.48429">
        <ele>431</ele>
        <time>2019-05-03T12:06:01Z</time>
      </trkpt>
      <trkpt lat="46.24256" lon="5.48421">
        <ele>431</ele>
        <time>2019-05-03T12:07:01Z</time>
      </trkpt>
      <trkpt lat="46.24264" lon="5.48416">
        <ele>433</ele>
        <time>2019-05-03T12:08:01Z</time>
      </trkpt>
      <trkpt lat="46.24271" lon="5.48411">
        <ele>434</ele>
        <time>2019-05-03T12:09:01Z</time>
      </trkpt>
      <trkpt lat="46.24278" lon="5.48406">
        <ele>436</ele>
        <time>2019-05-03T12:10:01Z</time>
      </trkpt>
      <trkpt lat="46.24285" lon="5.484">
        <ele>438</ele>
        <time>2019-05-03T12:11:01Z</time>
      </trkpt>
      <trkpt lat="46.24291" lon="5.48392">
        <ele>439</ele>
        <time>2019-05-03T12:12:01Z</time>
      </trkpt>
      <trkpt lat="46.24297" lon="5.48381">
        <ele>440</ele>
        <time>2019-05-03T12:13:01Z</time>
      </trkpt>
      <trkpt lat="46.24301" lon="5.4837">
        <ele>440</ele>
        <time>2019-05-03T12:14:01Z</time>
      </trkpt>
      <trkpt lat="46.24304" lon="5.48357">
        <ele>440</ele>
        <time>2019-05-03T12:15:01Z</time>
      </trkpt>
      <trkpt lat="46.24307" lon="5.48346">
        <ele>440</ele>
        <time>2019-05-03T12:16:01Z</time>
      </trkpt>
      <trkpt lat="46.24308" lon="5.48333">
        <ele>438</ele>
        <time>2019-05-03T12:17:01Z</time>
      </trkpt>
      <trkpt lat="46.24308" lon="5.48319">
        <ele>439</ele>
        <time>2019-05-03T12:18:01Z</time>
      </trkpt>
      <trkpt lat="46.24307" lon="5.48305">
        <ele>439</ele>
        <time>2019-05-03T12:19:01Z</time>
      </trkpt>
      <trkpt lat="46.24304" lon="5.48291">
        <ele>437</ele>
        <time>2019-05-03T12:20:01Z</time>
      </trkpt>
      <trkpt lat="46.24301" lon="5.48282">
        <ele>436</ele>
        <time>2019-05-03T12:21:01Z</time>
      </trkpt>
      <trkpt lat="46.24296" lon="5.48273">
        <ele>435</ele>
        <time>2019-05-03T12:22:01Z</time>
      </trkpt>
      <trkpt lat="46.2429" lon="5.48263">
        <ele>433</ele>
        <time>2019-05-03T12:23:01Z</time>
      </trkpt>
      <trkpt lat="46.24283" lon="5.48254">
        <ele>430</ele>
        <time>2019-05-03T12:24:01Z</time>
      </trkpt>
      <trkpt lat="46.24269" lon="5.4824">
        <ele>428</ele>
        <time>2019-05-03T12:25:01Z</time>
      </trkpt>
      <trkpt lat="46.24258" lon="5.48229">
        <ele>427</ele>
        <time>2019-05-03T12:26:01Z</time>
      </trkpt>
      <trkpt lat="46.2425" lon="5.48218">
        <ele>428</ele>
        <time>2019-05-03T12:27:01Z</time>
      </trkpt>
      <trkpt lat="46.24243" lon="5.48205">
        <ele>429</ele>
        <time>2019-05-03T12:28:01Z</time>
      </trkpt>
      <trkpt lat="46.24237" lon="5.48191">
        <ele>432</ele>
        <time>2019-05-03T12:29:01Z</time>
      </trkpt>
      <trkpt lat="46.24233" lon="5.4818">
        <ele>435</ele>
        <time>2019-05-03T12:30:01Z</time>
      </trkpt>
      <trkpt lat="46.24229" lon="5.48174">
        <ele>436</ele>
        <time>2019-05-03T12:31:01Z</time>
      </trkpt>
      <trkpt lat="46.24226" lon="5.48167">
        <ele>438</ele>
        <time>2019-05-03T12:32:01Z</time>
      </trkpt>
      <trkpt lat="46.24217" lon="5.48158">
        <ele>439</ele>
        <time>2019-05-03T12:33:01Z</time>
      </trkpt>
      <trkpt lat="46.2421" lon="5.4815">
        <ele>439</ele>
        <time>2019-05-03T12:34:01Z</time>
      </trkpt>
      <trkpt lat="46.24198" lon="5.4814">
        <ele>440</ele>
        <time>2019-05-03T12:35:01Z</time>
      </trkpt>
      <trkpt lat="46.24185" lon="5.48128">
        <ele>441</ele>
        <time>2019-05-03T12:36:01Z</time>
      </trkpt>
      <trkpt lat="46.24177" lon="5.4812">
        <ele>442</ele>
        <time>2019-05-03T12:37:01Z</time>
      </trkpt>
      <trkpt lat="46.24168" lon="5.48107">
        <ele>445</ele>
        <time>2019-05-03T12:38:01Z</time>
      </trkpt>
      <trkpt lat="46.24161" lon="5.48094">
        <ele>449</ele>
        <time>2019-05-03T12:39:01Z</time>
      </trkpt>
      <trkpt lat="46.24156" lon="5.48082">
        <ele>452</ele>
        <time>2019-05-03T12:40:01Z</time>
      </trkpt>
      <trkpt lat="46.2415" lon="5.4807">
        <ele>452</ele>
        <time>2019-05-03T12:41:01Z</time>
      </trkpt>
      <trkpt lat="46.24142" lon="5.48058">
        <ele>452</ele>
        <time>2019-05-03T12:42:01Z</time>
      </trkpt>
      <trkpt lat="46.24132" lon="5.48043">
        <ele>453</ele>
        <time>2019-05-03T12:43:01Z</time>
      </trkpt>
      <trkpt lat="46.24115" lon="5.48022">
        <ele>453</ele>
        <time>2019-05-03T12:44:01Z</time>
      </trkpt>
      <trkpt lat="46.24086" lon="5.47985">
        <ele>453</ele>
        <time>2019-05-03T12:45:01Z</time>
      </trkpt>
      <trkpt lat="46.24073" lon="5.47968">
        <ele>453</ele>
        <time>2019-05-03T12:46:01Z</time>
      </trkpt>
      <trkpt lat="46.24057" lon="5.47948">
        <ele>454</ele>
        <time>2019-05-03T12:47:01Z</time>
      </trkpt>
      <trkpt lat="46.24056" lon="5.47946">
        <ele>454</ele>
        <time>2019-05-03T12:48:01Z</time>
      </trkpt>
      <trkpt lat="46.24046" lon="5.47931">
        <ele>455</ele>
        <time>2019-05-03T12:49:01Z</time>
      </trkpt>
      <trkpt lat="46.24035" lon="5.47918">
        <ele>456</ele>
        <time>2019-05-03T12:50:01Z</time>
      </trkpt>
      <trkpt lat="46.24026" lon="5.47903">
        <ele>456</ele>
        <time>2019-05-03T12:51:01Z</time>
      </trkpt>
      <trkpt lat="46.24016" lon="5.47882">
        <ele>456</ele>
        <time>2019-05-03T12:52:01Z</time>
      </trkpt>
      <trkpt lat="46.2401" lon="5.47868">
        <ele>456</ele>
        <time>2019-05-03T12:53:01Z</time>
      </trkpt>
      <trkpt lat="46.24004" lon="5.47851">
        <ele>456</ele>
        <time>2019-05-03T12:54:01Z</time>
      </trkpt>
      <trkpt lat="46.23997" lon="5.47824">
        <ele>456</ele>
        <time>2019-05-03T12:55:01Z</time>
      </trkpt>
      <trkpt lat="46.23987" lon="5.47788">
        <ele>457</ele>
        <time>2019-05-03T12:56:01Z</time>
      </trkpt>
      <trkpt lat="46.23982" lon="5.47769">
        <ele>457</ele>
        <time>2019-05-03T12:57:01Z</time>
      </trkpt>
      <trkpt lat="46.23971" lon="5.4773">
        <ele>458</ele>
        <time>2019-05-03T12:58:01Z</time>
      </trkpt>
      <trkpt lat="46.23958" lon="5.47685">
        <ele>460</ele>
        <time>2019-05-03T12:59:01Z</time>
      </trkpt>
      <trkpt lat="46.23941" lon="5.47629">
        <ele>461</ele>
        <time>2019-05-03T13:00:01Z</time>
      </trkpt>
      <trkpt lat="46.23933" lon="5.47598">
        <ele>461</ele>
        <time>2019-05-03T13:01:01Z</time>
      </trkpt>
      <trkpt lat="46.2392" lon="5.47553">
        <ele>462</ele>
        <time>2019-05-03T13:02:01Z</time>
      </trkpt>
      <trkpt lat="46.2391" lon="5.47515">
        <ele>463</ele>
        <time>2019-05-03T13:03:01Z</time>
      </trkpt>
      <trkpt lat="46.23908" lon="5.4751">
        <ele>463</ele>
        <time>2019-05-03T13:04:01Z</time>
      </trkpt>
      <trkpt lat="46.23885" lon="5.47426">
        <ele>464</ele>
        <time>2019-05-03T13:05:01Z</time>
      </trkpt>
      <trkpt lat="46.23874" lon="5.47388">
        <ele>464</ele>
        <time>2019-05-03T13:06:01Z</time>
      </trkpt>
      <trkpt lat="46.23865" lon="5.47356">
        <ele>464</ele>
        <time>2019-05-03T13:07:01Z</time>
      </trkpt>
      <trkpt lat="46.23859" lon="5.47335">
        <ele>465</ele>
        <time>2019-05-03T13:08:01Z</time>
      </trkpt>
      <trkpt lat="46.23846" lon="5.47293">
        <ele>468</ele>
        <time>2019-05-03T13:09:01Z</time>
      </trkpt>
      <trkpt lat="46.23844" lon="5.47284">
        <ele>468</ele>
        <time>2019-05-03T13:10:01Z</time>
      </trkpt>
      <trkpt lat="46.2384" lon="5.4727">
        <ele>470</ele>
        <time>2019-05-03T13:11:01Z</time>
      </trkpt>
      <trkpt lat="46.23834" lon="5.47253">
        <ele>471</ele>
        <time>2019-05-03T13:12:01Z</time>
      </trkpt>
      <trkpt lat="46.23829" lon="5.4724">
        <ele>471</ele>
        <time>2019-05-03T13:13:01Z</time>
      </trkpt>
      <trkpt lat="46.23821" lon="5.47225">
        <ele>472</ele>
        <time>2019-05-03T13:14:01Z</time>
      </trkpt>
      <trkpt lat="46.23812" lon="5.4721">
        <ele>472</ele>
        <time>2019-05-03T13:15:01Z</time>
      </trkpt>
      <trkpt lat="46.238" lon="5.47188">
        <ele>474</ele>
        <time>2019-05-03T13:16:01Z</time>
      </trkpt>
      <trkpt lat="46.23791" lon="5.47174">
        <ele>475</ele>
        <time>2019-05-03T13:17:01Z</time>
      </trkpt>
      <trkpt lat="46.23781" lon="5.47154">
        <ele>476</ele>
        <time>2019-05-03T13:18:01Z</time>
      </trkpt>
      <trkpt lat="46.23776" lon="5.47145">
        <ele>476</ele>
        <time>2019-05-03T13:19:01Z</time>
      </trkpt>
      <trkpt lat="46.23773" lon="5.47134">
        <ele>477</ele>
        <time>2019-05-03T13:20:01Z</time>
      </trkpt>
      <trkpt lat="46.2377" lon="5.47117">
        <ele>478</ele>
        <time>2019-05-03T13:21:01Z</time>
      </trkpt>
      <trkpt lat="46.2377" lon="5.47099">
        <ele>479</ele>
        <time>2019-05-03T13:22:01Z</time>
      </trkpt>
      <trkpt lat="46.23771" lon="5.47083">
        <ele>480</ele>
        <time>2019-05-03T13:23:01Z</time>
      </trkpt>
      <trkpt lat="46.23775" lon="5.47064">
        <ele>480</ele>
        <time>2019-05-03T13:24:01Z</time>
      </trkpt>
      <trkpt lat="46.23781" lon="5.47049">
        <ele>481</ele>
        <time>2019-05-03T13:25:01Z</time>
      </trkpt>
      <trkpt lat="46.23787" lon="5.47038">
        <ele>481</ele>
        <time>2019-05-03T13:26:01Z</time>
      </trkpt>
      <trkpt lat="46.23795" lon="5.47028">
        <ele>482</ele>
        <time>2019-05-03T13:27:01Z</time>
      </trkpt>
      <trkpt lat="46.23804" lon="5.47016">
        <ele>482</ele>
        <time>2019-05-03T13:28:01Z</time>
      </trkpt>
      <trkpt lat="46.23815" lon="5.47004">
        <ele>483</ele>
        <time>2019-05-03T13:29:01Z</time>
      </trkpt>
      <trkpt lat="46.23836" lon="5.46985">
        <ele>485</ele>
        <time>2019-05-03T13:30:01Z</time>
      </trkpt>
      <trkpt lat="46.23856" lon="5.46965">
        <ele>487</ele>
        <time>2019-05-03T13:31:01Z</time>
      </trkpt>
      <trkpt lat="46.23873" lon="5.46948">
        <ele>489</ele>
        <time>2019-05-03T13:32:01Z</time>
      </trkpt>
      <trkpt lat="46.23889" lon="5.46934">
        <ele>491</ele>
        <time>2019-05-03T13:33:01Z</time>
      </trkpt>
      <trkpt lat="46.23905" lon="5.46924">
        <ele>492</ele>
        <time>2019-05-03T13:34:01Z</time>
      </trkpt>
      <trkpt lat="46.23922" lon="5.46919">
        <ele>493</ele>
        <time>2019-05-03T13:35:01Z</time>
      </trkpt>
      <trkpt lat="46.2394" lon="5.46916">
        <ele>494</ele>
        <time>2019-05-03T13:36:01Z</time>
      </trkpt>
      <trkpt lat="46.23961" lon="5.46912">
        <ele>495</ele>
        <time>2019-05-03T13:37:01Z</time>
      </trkpt>
      <trkpt lat="46.23974" lon="5.46907">
        <ele>496</ele>
        <time>2019-05-03T13:38:01Z</time>
      </trkpt>
      <trkpt lat="46.23988" lon="5.46898">
        <ele>497</ele>
        <time>2019-05-03T13:39:01Z</time>
      </trkpt>
      <trkpt lat="46.24" lon="5.46886">
        <ele>499</ele>
        <time>2019-05-03T13:40:01Z</time>
      </trkpt>
      <trkpt lat="46.24013" lon="5.46872">
        <ele>500</ele>
        <time>2019-05-03T13:41:01Z</time>
      </trkpt>
      <trkpt lat="46.24025" lon="5.46859">
        <ele>501</ele>
        <time>2019-05-03T13:42:01Z</time>
      </trkpt>
      <trkpt lat="46.24036" lon="5.46846">
        <ele>503</ele>
        <time>2019-05-03T13:43:01Z</time>
      </trkpt>
      <trkpt lat="46.24046" lon="5.46837">
        <ele>504</ele>
        <time>2019-05-03T13:44:01Z</time>
      </trkpt>
      <trkpt lat="46.2406" lon="5.46829">
        <ele>505</ele>
        <time>2019-05-03T13:45:01Z</time>
      </trkpt>
      <trkpt lat="46.24069" lon="5.46824">
        <ele>505</ele>
        <time>2019-05-03T13:46:01Z</time>
      </trkpt>
      <trkpt lat="46.24081" lon="5.46822">
        <ele>505</ele>
        <time>2019-05-03T13:47:01Z</time>
      </trkpt>
      <trkpt lat="46.24094" lon="5.4682">
        <ele>506</ele>
        <time>2019-05-03T13:48:01Z</time>
      </trkpt>
      <trkpt lat="46.24109" lon="5.46821">
        <ele>507</ele>
        <time>2019-05-03T13:49:01Z</time>
      </trkpt>
      <trkpt lat="46.24131" lon="5.46823">
        <ele>507</ele>
        <time>2019-05-03T13:50:01Z</time>
      </trkpt>
      <trkpt lat="46.24153" lon="5.46826">
        <ele>508</ele>
        <time>2019-05-03T13:51:01Z</time>
      </trkpt>
      <trkpt lat="46.24175" lon="5.46827">
        <ele>509</ele>
        <time>2019-05-03T13:52:01Z</time>
      </trkpt>
      <trkpt lat="46.24197" lon="5.46828">
        <ele>510</ele>
        <time>2019-05-03T13:53:01Z</time>
      </trkpt>
      <trkpt lat="46.24235" lon="5.46829">
        <ele>510</ele>
        <time>2019-05-03T13:54:01Z</time>
      </trkpt>
      <trkpt lat="46.24256" lon="5.46827">
        <ele>511</ele>
        <time>2019-05-03T13:55:01Z</time>
      </trkpt>
      <trkpt lat="46.24272" lon="5.46823">
        <ele>511</ele>
        <time>2019-05-03T13:56:01Z</time>
      </trkpt>
      <trkpt lat="46.24286" lon="5.46814">
        <ele>512</ele>
        <time>2019-05-03T13:57:01Z</time>
      </trkpt>
      <trkpt lat="46.24299" lon="5.46804">
        <ele>513</ele>
        <time>2019-05-03T13:58:01Z</time>
      </trkpt>
      <trkpt lat="46.24315" lon="5.4679">
        <ele>515</ele>
        <time>2019-05-03T13:59:01Z</time>
      </trkpt>
      <trkpt lat="46.2434" lon="5.46764">
        <ele>519</ele>
        <time>2019-05-03T14:00:01Z</time>
      </trkpt>
      <trkpt lat="46.24404" lon="5.46699">
        <ele>525</ele>
        <time>2019-05-03T14:01:01Z</time>
      </trkpt>
      <trkpt lat="46.24421" lon="5.46684">
        <ele>525</ele>
        <time>2019-05-03T14:02:01Z</time>
      </trkpt>
      <trkpt lat="46.24439" lon="5.46667">
        <ele>527</ele>
        <time>2019-05-03T14:03:01Z</time>
      </trkpt>
      <trkpt lat="46.24442" lon="5.46664">
        <ele>527</ele>
        <time>2019-05-03T14:04:01Z</time>
      </trkpt>
      <trkpt lat="46.24455" lon="5.46652">
        <ele>529</ele>
        <time>2019-05-03T14:05:01Z</time>
      </trkpt>
      <trkpt lat="46.24473" lon="5.46636">
        <ele>531</ele>
        <time>2019-05-03T14:06:01Z</time>
      </trkpt>
      <trkpt lat="46.24492" lon="5.46619">
        <ele>533</ele>
        <time>2019-05-03T14:07:01Z</time>
      </trkpt>
      <trkpt lat="46.24515" lon="5.46601">
        <ele>535</ele>
        <time>2019-05-03T14:08:01Z</time>
      </trkpt>
      <trkpt lat="46.24527" lon="5.46595">
        <ele>535</ele>
        <time>2019-05-03T14:09:01Z</time>
      </trkpt>
      <trkpt lat="46.24541" lon="5.46594">
        <ele>534</ele>
        <time>2019-05-03T14:10:01Z</time>
      </trkpt>
      <trkpt lat="46.2455" lon="5.46591">
        <ele>534</ele>
        <time>2019-05-03T14:11:01Z</time>
      </trkpt>
      <trkpt lat="46.24561" lon="5.46587">
        <ele>533</ele>
        <time>2019-05-03T14:12:01Z</time>
      </trkpt>
      <trkpt lat="46.24571" lon="5.46579">
        <ele>534</ele>
        <time>2019-05-03T14:13:01Z</time>
      </trkpt>
      <trkpt lat="46.24582" lon="5.46568">
        <ele>535</ele>
        <time>2019-05-03T14:14:01Z</time>
      </trkpt>
      <trkpt lat="46.24596" lon="5.46548">
        <ele>539</ele>
        <time>2019-05-03T14:15:01Z</time>
      </trkpt>
      <trkpt lat="46.24601" lon="5.46538">
        <ele>540</ele>
        <time>2019-05-03T14:16:01Z</time>
      </trkpt>
      <trkpt lat="46.2461" lon="5.46526">
        <ele>542</ele>
        <time>2019-05-03T14:17:01Z</time>
      </trkpt>
      <trkpt lat="46.24618" lon="5.46514">
        <ele>543</ele>
        <time>2019-05-03T14:18:01Z</time>
      </trkpt>
      <trkpt lat="46.2463" lon="5.46502">
        <ele>544</ele>
        <time>2019-05-03T14:19:01Z</time>
      </trkpt>
      <trkpt lat="46.24653" lon="5.46485">
        <ele>544</ele>
        <time>2019-05-03T14:20:01Z</time>
      </trkpt>
      <trkpt lat="46.24661" lon="5.4648">
        <ele>544</ele>
        <time>2019-05-03T14:21:01Z</time>
      </trkpt>
      <trkpt lat="46.24666" lon="5.46478">
        <ele>544</ele>
        <time>2019-05-03T14:22:01Z</time>
      </trkpt>
      <trkpt lat="46.2468" lon="5.46471">
        <ele>545</ele>
        <time>2019-05-03T14:23:01Z</time>
      </trkpt>
      <trkpt lat="46.24686" lon="5.46467">
        <ele>546</ele>
        <time>2019-05-03T14:24:01Z</time>
      </trkpt>
      <trkpt lat="46.24712" lon="5.46449">
        <ele>547</ele>
        <time>2019-05-03T14:25:01Z</time>
      </trkpt>
      <trkpt lat="46.24748" lon="5.46419">
        <ele>545</ele>
        <time>2019-05-03T14:26:01Z</time>
      </trkpt>
      <trkpt lat="46.24781" lon="5.46387">
        <ele>543</ele>
        <time>2019-05-03T14:27:01Z</time>
      </trkpt>
      <trkpt lat="46.24808" lon="5.46368">
        <ele>538</ele>
        <time>2019-05-03T14:28:01Z</time>
      </trkpt>
      <trkpt lat="46.24822" lon="5.46364">
        <ele>536</ele>
        <time>2019-05-03T14:29:01Z</time>
      </trkpt>
      <trkpt lat="46.24835" lon="5.46364">
        <ele>535</ele>
        <time>2019-05-03T14:30:01Z</time>
      </trkpt>
      <trkpt lat="46.24846" lon="5.46364">
        <ele>535</ele>
        <time>2019-05-03T14:31:01Z</time>
      </trkpt>
      <trkpt lat="46.24848" lon="5.46364">
        <ele>535</ele>
        <time>2019-05-03T14:32:01Z</time>
      </trkpt>
      <trkpt lat="46.24872" lon="5.46369">
        <ele>535</ele>
        <time>2019-05-03T14:33:01Z</time>
      </trkpt>
      <trkpt lat="46.24895" lon="5.46375">
        <ele>536</ele>
        <time>2019-05-03T14:34:01Z</time>
      </trkpt>
      <trkpt lat="46.24937" lon="5.46391">
        <ele>539</ele>
        <time>2019-05-03T14:35:01Z</time>
      </trkpt>
      <trkpt lat="46.24988" lon="5.46405">
        <ele>539</ele>
        <time>2019-05-03T14:36:01Z</time>
      </trkpt>
      <trkpt lat="46.25022" lon="5.46413">
        <ele>538</ele>
        <time>2019-05-03T14:37:01Z</time>
      </trkpt>
      <trkpt lat="46.25084" lon="5.4642">
        <ele>532</ele>
        <time>2019-05-03T14:38:01Z</time>
      </trkpt>
      <trkpt lat="46.25136" lon="5.46422">
        <ele>530</ele>
        <time>2019-05-03T14:39:01Z</time>
      </trkpt>
      <trkpt lat="46.25171" lon="5.46422">
        <ele>528</ele>
        <time>2019-05-03T14:40:01Z</time>
      </trkpt>
      <trkpt lat="46.25189" lon="5.46422">
        <ele>529</ele>
        <time>2019-05-03T14:41:01Z</time>
      </trkpt>
      <trkpt lat="46.25213" lon="5.46418">
        <ele>529</ele>
        <time>2019-05-03T14:42:01Z</time>
      </trkpt>
      <trkpt lat="46.25235" lon="5.46413">
        <ele>528</ele>
        <time>2019-05-03T14:43:01Z</time>
      </trkpt>
      <trkpt lat="46.2526" lon="5.46403">
        <ele>524</ele>
        <time>2019-05-03T14:44:01Z</time>
      </trkpt>
      <trkpt lat="46.25302" lon="5.46397">
        <ele>520</ele>
        <time>2019-05-03T14:45:01Z</time>
      </trkpt>
      <trkpt lat="46.25325" lon="5.46401">
        <ele>522</ele>
        <time>2019-05-03T14:46:01Z</time>
      </trkpt>
      <trkpt lat="46.25331" lon="5.46404">
        <ele>523</ele>
        <time>2019-05-03T14:47:01Z</time>
      </trkpt>
      <trkpt lat="46.25338" lon="5.46406">
        <ele>524</ele>
        <time>2019-05-03T14:48:01Z</time>
      </trkpt>
      <trkpt lat="46.25347" lon="5.46406">
        <ele>525</ele>
        <time>2019-05-03T14:49:01Z</time>
      </trkpt>
      <trkpt lat="46.25358" lon="5.46404">
        <ele>525</ele>
        <time>2019-05-03T14:50:01Z</time>
      </trkpt>
      <trkpt lat="46.25367" lon="5.46401">
        <ele>524</ele>
        <time>2019-05-03T14:51:01Z</time>
      </trkpt>
      <trkpt lat="46.25375" lon="5.46396">
        <ele>522</ele>
        <time>2019-05-03T14:52:01Z</time>
      </trkpt>
      <trkpt lat="46.25381" lon="5.4639">
        <ele>520</ele>
        <time>2019-05-03T14:53:01Z</time>
      </trkpt>
      <trkpt lat="46.25386" lon="5.46384">
        <ele>518</ele>
        <time>2019-05-03T14:54:01Z</time>
      </trkpt>
      <trkpt lat="46.25394" lon="5.46376">
        <ele>516</ele>
        <time>2019-05-03T14:55:01Z</time>
      </trkpt>
      <trkpt lat="46.25403" lon="5.4637">
        <ele>514</ele>
        <time>2019-05-03T14:56:01Z</time>
      </trkpt>
      <trkpt lat="46.25419" lon="5.46362">
        <ele>512</ele>
        <time>2019-05-03T14:57:01Z</time>
      </trkpt>
      <trkpt lat="46.25445" lon="5.46351">
        <ele>510</ele>
        <time>2019-05-03T14:58:01Z</time>
      </trkpt>
      <trkpt lat="46.25479" lon="5.46338">
        <ele>508</ele>
        <time>2019-05-03T14:59:01Z</time>
      </trkpt>
      <trkpt lat="46.25489" lon="5.46334">
        <ele>507</ele>
        <time>2019-05-03T15:00:01Z</time>
      </trkpt>
      <trkpt lat="46.255" lon="5.46331">
        <ele>507</ele>
        <time>2019-05-03T15:01:01Z</time>
      </trkpt>
      <trkpt lat="46.25553" lon="5.46309">
        <ele>503</ele>
        <time>2019-05-03T15:02:01Z</time>
      </trkpt>
      <trkpt lat="46.25592" lon="5.46293">
        <ele>499</ele>
        <time>2019-05-03T15:03:01Z</time>
      </trkpt>
      <trkpt lat="46.25614" lon="5.46289">
        <ele>498</ele>
        <time>2019-05-03T15:04:01Z</time>
      </trkpt>
      <trkpt lat="46.25632" lon="5.46288">
        <ele>498</ele>
        <time>2019-05-03T15:05:01Z</time>
      </trkpt>
      <trkpt lat="46.25646" lon="5.46286">
        <ele>497</ele>
        <time>2019-05-03T15:06:01Z</time>
      </trkpt>
      <trkpt lat="46.25655" lon="5.46285">
        <ele>497</ele>
        <time>2019-05-03T15:07:01Z</time>
      </trkpt>
      <trkpt lat="46.25661" lon="5.46282">
        <ele>496</ele>
        <time>2019-05-03T15:08:01Z</time>
      </trkpt>
      <trkpt lat="46.25667" lon="5.46279">
        <ele>495</ele>
        <time>2019-05-03T15:09:01Z</time>
      </trkpt>
      <trkpt lat="46.25678" lon="5.46272">
        <ele>493</ele>
        <time>2019-05-03T15:10:01Z</time>
      </trkpt>
      <trkpt lat="46.25689" lon="5.46265">
        <ele>491</ele>
        <time>2019-05-03T15:11:01Z</time>
      </trkpt>
      <trkpt lat="46.25702" lon="5.4626">
        <ele>489</ele>
        <time>2019-05-03T15:12:01Z</time>
      </trkpt>
      <trkpt lat="46.25709" lon="5.46257">
        <ele>487</ele>
        <time>2019-05-03T15:13:01Z</time>
      </trkpt>
      <trkpt lat="46.25719" lon="5.46257">
        <ele>487</ele>
        <time>2019-05-03T15:14:01Z</time>
      </trkpt>
      <trkpt lat="46.25731" lon="5.46258">
        <ele>487</ele>
        <time>2019-05-03T15:15:01Z</time>
      </trkpt>
      <trkpt lat="46.25743" lon="5.4626">
        <ele>487</ele>
        <time>2019-05-03T15:16:01Z</time>
      </trkpt>
      <trkpt lat="46.25756" lon="5.46262">
        <ele>488</ele>
        <time>2019-05-03T15:17:01Z</time>
      </trkpt>
      <trkpt lat="46.25768" lon="5.46263">
        <ele>489</ele>
        <time>2019-05-03T15:18:01Z</time>
      </trkpt>
      <trkpt lat="46.25779" lon="5.46264">
        <ele>490</ele>
        <time>2019-05-03T15:19:01Z</time>
      </trkpt>
      <trkpt lat="46.25785" lon="5.46263">
        <ele>490</ele>
        <time>2019-05-03T15:20:01Z</time>
      </trkpt>
      <trkpt lat="46.25792" lon="5.46257">
        <ele>489</ele>
        <time>2019-05-03T15:21:01Z</time>
      </trkpt>
      <trkpt lat="46.25794" lon="5.4625">
        <ele>488</ele>
        <time>2019-05-03T15:22:01Z</time>
      </trkpt>
      <trkpt lat="46.25795" lon="5.46245">
        <ele>488</ele>
        <time>2019-05-03T15:23:01Z</time>
      </trkpt>
      <trkpt lat="46.25794" lon="5.46241">
        <ele>489</ele>
        <time>2019-05-03T15:24:01Z</time>
      </trkpt>
      <trkpt lat="46.2579" lon="5.46235">
        <ele>489</ele>
        <time>2019-05-03T15:25:01Z</time>
      </trkpt>
      <trkpt lat="46.25782" lon="5.46228">
        <ele>489</ele>
        <time>2019-05-03T15:26:01Z</time>
      </trkpt>
      <trkpt lat="46.2575" lon="5.46207">
        <ele>487</ele>
        <time>2019-05-03T15:27:01Z</time>
      </trkpt>
      <trkpt lat="46.2573" lon="5.46194">
        <ele>487</ele>
        <time>2019-05-03T15:28:01Z</time>
      </trkpt>
      <trkpt lat="46.25711" lon="5.46179">
        <ele>485</ele>
        <time>2019-05-03T15:29:01Z</time>
      </trkpt>
      <trkpt lat="46.25696" lon="5.46169">
        <ele>484</ele>
        <time>2019-05-03T15:30:01Z</time>
      </trkpt>
      <trkpt lat="46.25684" lon="5.46162">
        <ele>483</ele>
        <time>2019-05-03T15:31:01Z</time>
      </trkpt>
      <trkpt lat="46.25673" lon="5.46158">
        <ele>483</ele>
        <time>2019-05-03T15:32:01Z</time>
      </trkpt>
      <trkpt lat="46.25663" lon="5.46157">
        <ele>482</ele>
        <time>2019-05-03T15:33:01Z</time>
      </trkpt>
      <trkpt lat="46.2565" lon="5.46158">
        <ele>482</ele>
        <time>2019-05-03T15:34:01Z</time>
      </trkpt>
      <trkpt lat="46.25645" lon="5.46159">
        <ele>481</ele>
        <time>2019-05-03T15:35:01Z</time>
      </trkpt>
      <trkpt lat="46.25631" lon="5.46163">
        <ele>480</ele>
        <time>2019-05-03T15:36:01Z</time>
      </trkpt>
      <trkpt lat="46.25602" lon="5.46168">
        <ele>479</ele>
        <time>2019-05-03T15:37:01Z</time>
      </trkpt>
      <trkpt lat="46.25573" lon="5.46172">
        <ele>479</ele>
        <time>2019-05-03T15:38:01Z</time>
      </trkpt>
      <trkpt lat="46.25544" lon="5.46176">
        <ele>480</ele>
        <time>2019-05-03T15:39:01Z</time>
      </trkpt>
      <trkpt lat="46.25517" lon="5.4618">
        <ele>480</ele>
        <time>2019-05-03T15:40:01Z</time>
      </trkpt>
      <trkpt lat="46.25495" lon="5.46182">
        <ele>479</ele>
        <time>2019-05-03T15:41:01Z</time>
      </trkpt>
      <trkpt lat="46.25476" lon="5.46185">
        <ele>478</ele>
        <time>2019-05-03T15:42:01Z</time>
      </trkpt>
      <trkpt lat="46.25447" lon="5.46189">
        <ele>475</ele>
        <time>2019-05-03T15:43:01Z</time>
      </trkpt>
      <trkpt lat="46.25431" lon="5.46191">
        <ele>474</ele>
        <time>2019-05-03T15:44:01Z</time>
      </trkpt>
      <trkpt lat="46.25415" lon="5.46195">
        <ele>472</ele>
        <time>2019-05-03T15:45:01Z</time>
      </trkpt>
      <trkpt lat="46.25394" lon="5.46196">
        <ele>471</ele>
        <time>2019-05-03T15:46:01Z</time>
      </trkpt>
      <trkpt lat="46.25373" lon="5.46193">
        <ele>470</ele>
        <time>2019-05-03T15:47:01Z</time>
      </trkpt>
      <trkpt lat="46.25347" lon="5.46187">
        <ele>468</ele>
        <time>2019-05-03T15:48:01Z</time>
      </trkpt>
      <trkpt lat="46.2533" lon="5.4618">
        <ele>467</ele>
        <time>2019-05-03T15:49:01Z</time>
      </trkpt>
      <trkpt lat="46.25309" lon="5.46174">
        <ele>465</ele>
        <time>2019-05-03T15:50:01Z</time>
      </trkpt>
      <trkpt lat="46.25286" lon="5.46172">
        <ele>464</ele>
        <time>2019-05-03T15:51:01Z</time>
      </trkpt>
      <trkpt lat="46.25262" lon="5.46174">
        <ele>462</ele>
        <time>2019-05-03T15:52:01Z</time>
      </trkpt>
      <trkpt lat="46.25239" lon="5.46175">
        <ele>460</ele>
        <time>2019-05-03T15:53:01Z</time>
      </trkpt>
      <trkpt lat="46.25213" lon="5.46176">
        <ele>457</ele>
        <time>2019-05-03T15:54:01Z</time>
      </trkpt>
      <trkpt lat="46.25191" lon="5.46175">
        <ele>455</ele>
        <time>2019-05-03T15:55:01Z</time>
      </trkpt>
      <trkpt lat="46.25161" lon="5.46169">
        <ele>451</ele>
        <time>2019-05-03T15:56:01Z</time>
      </trkpt>
      <trkpt lat="46.25133" lon="5.46163">
        <ele>450</ele>
        <time>2019-05-03T15:57:01Z</time>
      </trkpt>
      <trkpt lat="46.25108" lon="5.46156">
        <ele>450</ele>
        <time>2019-05-03T15:58:01Z</time>
      </trkpt>
      <trkpt lat="46.25083" lon="5.46151">
        <ele>449</ele>
        <time>2019-05-03T15:59:01Z</time>
      </trkpt>
      <trkpt lat="46.25046" lon="5.46141">
        <ele>447</ele>
        <time>2019-05-03T16:00:01Z</time>
      </trkpt>
      <trkpt lat="46.25031" lon="5.46135">
        <ele>446</ele>
        <time>2019-05-03T16:01:01Z</time>
      </trkpt>
      <trkpt lat="46.25022" lon="5.46129">
        <ele>445</ele>
        <time>2019-05-03T16:02:01Z</time>
      </trkpt>
      <trkpt lat="46.25" lon="5.46105">
        <ele>443</ele>
        <time>2019-05-03T16:03:01Z</time>
      </trkpt>
      <trkpt lat="46.24983" lon="5.4608">
        <ele>441</ele>
        <time>2019-05-03T16:04:01Z</time>
      </trkpt>
      <trkpt lat="46.24966" lon="5.46055">
        <ele>441</ele>
        <time>2019-05-03T16:05:01Z</time>
      </trkpt>
      <trkpt lat="46.24947" lon="5.46031">
        <ele>439</ele>
        <time>2019-05-03T16:06:01Z</time>
      </trkpt>
      <trkpt lat="46.24923" lon="5.46002">
        <ele>436</ele>
        <time>2019-05-03T16:07:01Z</time>
      </trkpt>
      <trkpt lat="46.24915" lon="5.45991">
        <ele>437</ele>
        <time>2019-05-03T16:08:01Z</time>
      </trkpt>
      <trkpt lat="46.24907" lon="5.45983">
        <ele>437</ele>
        <time>2019-05-03T16:09:01Z</time>
      </trkpt>
      <trkpt lat="46.24898" lon="5.45977">
        <ele>437</ele>
        <time>2019-05-03T16:10:01Z</time>
      </trkpt>
      <trkpt lat="46.24884" lon="5.45966">
        <ele>437</ele>
        <time>2019-05-03T16:11:01Z</time>
      </trkpt>
      <trkpt lat="46.24865" lon="5.45956">
        <ele>436</ele>
        <time>2019-05-03T16:12:01Z</time>
      </trkpt>
      <trkpt lat="46.2486" lon="5.45954">
        <ele>435</ele>
        <time>2019-05-03T16:13:01Z</time>
      </trkpt>
      <trkpt lat="46.24847" lon="5.45946">
        <ele>434</ele>
        <time>2019-05-03T16:14:01Z</time>
      </trkpt>
      <trkpt lat="46.24833" lon="5.45936">
        <ele>434</ele>
        <time>2019-05-03T16:15:01Z</time>
      </trkpt>
      <trkpt lat="46.24816" lon="5.45921">
        <ele>433</ele>
        <time>2019-05-03T16:16:01Z</time>
      </trkpt>
      <trkpt lat="46.248" lon="5.45903">
        <ele>432</ele>
        <time>2019-05-03T16:17:01Z</time>
      </trkpt>
      <trkpt lat="46.24786" lon="5.45885">
        <ele>430</ele>
        <time>2019-05-03T16:18:01Z</time>
      </trkpt>
      <trkpt lat="46.24779" lon="5.45872">
        <ele>429</ele>
        <time>2019-05-03T16:19:01Z</time>
      </trkpt>
      <trkpt lat="46.24776" lon="5.45865">
        <ele>428</ele>
        <time>2019-05-03T16:20:01Z</time>
      </trkpt>
      <trkpt lat="46.24773" lon="5.45855">
        <ele>427</ele>
        <time>2019-05-03T16:21:01Z</time>
      </trkpt>
      <trkpt lat="46.2477" lon="5.45843">
        <ele>427</ele>
        <time>2019-05-03T16:22:01Z</time>
      </trkpt>
      <trkpt lat="46.24769" lon="5.45834">
        <ele>427</ele>
        <time>2019-05-03T16:23:01Z</time>
      </trkpt>
      <trkpt lat="46.2477" lon="5.45812">
        <ele>428</ele>
        <time>2019-05-03T16:24:01Z</time>
      </trkpt>
      <trkpt lat="46.24771" lon="5.45792">
        <ele>429</ele>
        <time>2019-05-03T16:25:01Z</time>
      </trkpt>
      <trkpt lat="46.24772" lon="5.45779">
        <ele>429</ele>
        <time>2019-05-03T16:26:01Z</time>
      </trkpt>
      <trkpt lat="46.24772" lon="5.45769">
        <ele>430</ele>
        <time>2019-05-03T16:27:01Z</time>
      </trkpt>
      <trkpt lat="46.2477" lon="5.45759">
        <ele>429</ele>
        <time>2019-05-03T16:28:01Z</time>
      </trkpt>
      <trkpt lat="46.24767" lon="5.45755">
        <ele>427</ele>
        <time>2019-05-03T16:29:01Z</time>
      </trkpt>
      <trkpt lat="46.24765" lon="5.4575">
        <ele>427</ele>
        <time>2019-05-03T16:30:01Z</time>
      </trkpt>
      <trkpt lat="46.24756" lon="5.4574">
        <ele>423</ele>
        <time>2019-05-03T16:31:01Z</time>
      </trkpt>
      <trkpt lat="46.24751" lon="5.45737">
        <ele>420</ele>
        <time>2019-05-03T16:32:01Z</time>
      </trkpt>
      <trkpt lat="46.24735" lon="5.45728">
        <ele>426</ele>
        <time>2019-05-03T16:33:01Z</time>
      </trkpt>
      <trkpt lat="46.24732" lon="5.45726">
        <ele>427</ele>
        <time>2019-05-03T16:34:01Z</time>
      </trkpt>
      <trkpt lat="46.24719" lon="5.45719">
        <ele>431</ele>
        <time>2019-05-03T16:35:01Z</time>
      </trkpt>
      <trkpt lat="46.24712" lon="5.45714">
        <ele>434</ele>
        <time>2019-05-03T16:36:01Z</time>
      </trkpt>
      <trkpt lat="46.24708" lon="5.4571">
        <ele>435</ele>
        <time>2019-05-03T16:37:01Z</time>
      </trkpt>
      <trkpt lat="46.24705" lon="5.45704">
        <ele>436</ele>
        <time>2019-05-03T16:38:01Z</time>
      </trkpt>
      <trkpt lat="46.24703" lon="5.45695">
        <ele>437</ele>
        <time>2019-05-03T16:39:01Z</time>
      </trkpt>
      <trkpt lat="46.24702" lon="5.4568">
        <ele>438</ele>
        <time>2019-05-03T16:40:01Z</time>
      </trkpt>
      <trkpt lat="46.24697" lon="5.45612">
        <ele>436</ele>
        <time>2019-05-03T16:41:01Z</time>
      </trkpt>
      <trkpt lat="46.24693" lon="5.45557">
        <ele>431</ele>
        <time>2019-05-03T16:42:01Z</time>
      </trkpt>
      <trkpt lat="46.24693" lon="5.45533">
        <ele>427</ele>
        <time>2019-05-03T16:43:01Z</time>
      </trkpt>
      <trkpt lat="46.24695" lon="5.45508">
        <ele>423</ele>
        <time>2019-05-03T16:44:01Z</time>
      </trkpt>
      <trkpt lat="46.24695" lon="5.45495">
        <ele>421</ele>
        <time>2019-05-03T16:45:01Z</time>
      </trkpt>
      <trkpt lat="46.24695" lon="5.45485">
        <ele>420</ele>
        <time>2019-05-03T16:46:01Z</time>
      </trkpt>
      <trkpt lat="46.24693" lon="5.45475">
        <ele>419</ele>
        <time>2019-05-03T16:47:01Z</time>
      </trkpt>
      <trkpt lat="46.24688" lon="5.45461">
        <ele>418</ele>
        <time>2019-05-03T16:48:01Z</time>
      </trkpt>
      <trkpt lat="46.2468" lon="5.45444">
        <ele>418</ele>
        <time>2019-05-03T16:49:01Z</time>
      </trkpt>
      <trkpt lat="46.24673" lon="5.45428">
        <ele>417</ele>
        <time>2019-05-03T16:50:01Z</time>
      </trkpt>
      <trkpt lat="46.24666" lon="5.4541">
        <ele>416</ele>
        <time>2019-05-03T16:51:01Z</time>
      </trkpt>
      <trkpt lat="46.24658" lon="5.4538">
        <ele>415</ele>
        <time>2019-05-03T16:52:01Z</time>
      </trkpt>
      <trkpt lat="46.24653" lon="5.45352">
        <ele>412</ele>
        <time>2019-05-03T16:53:01Z</time>
      </trkpt>
      <trkpt lat="46.24651" lon="5.45332">
        <ele>409</ele>
        <time>2019-05-03T16:54:01Z</time>
      </trkpt>
      <trkpt lat="46.24649" lon="5.45316">
        <ele>407</ele>
        <time>2019-05-03T16:55:01Z</time>
      </trkpt>
      <trkpt lat="46.24647" lon="5.45305">
        <ele>406</ele>
        <time>2019-05-03T16:56:01Z</time>
      </trkpt>
      <trkpt lat="46.24639" lon="5.45261">
        <ele>403</ele>
        <time>2019-05-03T16:57:01Z</time>
      </trkpt>
      <trkpt lat="46.24634" lon="5.45211">
        <ele>398</ele>
        <time>2019-05-03T16:58:01Z</time>
      </trkpt>
      <trkpt lat="46.24632" lon="5.452">
        <ele>397</ele>
        <time>2019-05-03T16:59:01Z</time>
      </trkpt>
      <trkpt lat="46.24627" lon="5.45185">
        <ele>397</ele>
        <time>2019-05-03T17:00:01Z</time>
      </trkpt>
      <trkpt lat="46.24619" lon="5.45166">
        <ele>397</ele>
        <time>2019-05-03T17:01:01Z</time>
      </trkpt>
      <trkpt lat="46.24607" lon="5.45141">
        <ele>395</ele>
        <time>2019-05-03T17:02:01Z</time>
      </trkpt>
      <trkpt lat="46.24595" lon="5.45121">
        <ele>393</ele>
        <time>2019-05-03T17:03:01Z</time>
      </trkpt>
      <trkpt lat="46.24591" lon="5.45116">
        <ele>392</ele>
        <time>2019-05-03T17:04:01Z</time>
      </trkpt>
      <trkpt lat="46.24574" lon="5.45092">
        <ele>389</ele>
        <time>2019-05-03T17:05:01Z</time>
      </trkpt>
      <trkpt lat="46.24554" lon="5.45071">
        <ele>391</ele>
        <time>2019-05-03T17:06:01Z</time>
      </trkpt>
      <trkpt lat="46.24532" lon="5.4505">
        <ele>393</ele>
        <time>2019-05-03T17:07:01Z</time>
      </trkpt>
      <trkpt lat="46.2452" lon="5.45037">
        <ele>394</ele>
        <time>2019-05-03T17:08:01Z</time>
      </trkpt>
      <trkpt lat="46.24514" lon="5.45028">
        <ele>394</ele>
        <time>2019-05-03T17:09:01Z</time>
      </trkpt>
      <trkpt lat="46.24508" lon="5.45015">
        <ele>393</ele>
        <time>2019-05-03T17:10:01Z</time>
      </trkpt>
      <trkpt lat="46.24503" lon="5.44998">
        <ele>391</ele>
        <time>2019-05-03T17:11:01Z</time>
      </trkpt>
      <trkpt lat="46.24498" lon="5.44968">
        <ele>389</ele>
        <time>2019-05-03T17:12:01Z</time>
      </trkpt>
      <trkpt lat="46.24494" lon="5.44953">
        <ele>388</ele>
        <time>2019-05-03T17:13:01Z</time>
      </trkpt>
      <trkpt lat="46.24484" lon="5.44922">
        <ele>388</ele>
        <time>2019-05-03T17:14:01Z</time>
      </trkpt>
      <trkpt lat="46.24478" lon="5.449">
        <ele>388</ele>
        <time>2019-05-03T17:15:01Z</time>
      </trkpt>
      <trkpt lat="46.24476" lon="5.44891">
        <ele>388</ele>
        <time>2019-05-03T17:16:01Z</time>
      </trkpt>
      <trkpt lat="46.24474" lon="5.44884">
        <ele>388</ele>
        <time>2019-05-03T17:17:01Z</time>
      </trkpt>
      <trkpt lat="46.24469" lon="5.44854">
        <ele>388</ele>
        <time>2019-05-03T17:18:01Z</time>
      </trkpt>
      <trkpt lat="46.24465" lon="5.44819">
        <ele>387</ele>
        <time>2019-05-03T17:19:01Z</time>
      </trkpt>
      <trkpt lat="46.24459" lon="5.44783">
        <ele>387</ele>
        <time>2019-05-03T17:20:01Z</time>
      </trkpt>
      <trkpt lat="46.24453" lon="5.44759">
        <ele>387</ele>
        <time>2019-05-03T17:21:01Z</time>
      </trkpt>
      <trkpt lat="46.24446" lon="5.44735">
        <ele>388</ele>
        <time>2019-05-03T17:22:01Z</time>
      </trkpt>
      <trkpt lat="46.2444" lon="5.44717">
        <ele>388</ele>
        <time>2019-05-03T17:23:01Z</time>
      </trkpt>
      <trkpt lat="46.24432" lon="5.44691">
        <ele>387</ele>
        <time>2019-05-03T17:24:01Z</time>
      </trkpt>
      <trkpt lat="46.24426" lon="5.44668">
        <ele>386</ele>
        <time>2019-05-03T17:25:01Z</time>
      </trkpt>
      <trkpt lat="46.2442" lon="5.44636">
        <ele>383</ele>
        <time>2019-05-03T17:26:01Z</time>
      </trkpt>
      <trkpt lat="46.24412" lon="5.44603">
        <ele>380</ele>
        <time>2019-05-03T17:27:01Z</time>
      </trkpt>
      <trkpt lat="46.24404" lon="5.44576">
        <ele>381</ele>
        <time>2019-05-03T17:28:01Z</time>
      </trkpt>
      <trkpt lat="46.24398" lon="5.44549">
        <ele>381</ele>
        <time>2019-05-03T17:29:01Z</time>
      </trkpt>
      <trkpt lat="46.24395" lon="5.44523">
        <ele>379</ele>
        <time>2019-05-03T17:30:01Z</time>
      </trkpt>
      <trkpt lat="46.24395" lon="5.44509">
        <ele>377</ele>
        <time>2019-05-03T17:31:01Z</time>
      </trkpt>
      <trkpt lat="46.24395" lon="5.44495">
        <ele>376</ele>
        <time>2019-05-03T17:32:01Z</time>
      </trkpt>
      <trkpt lat="46.24391" lon="5.44467">
        <ele>375</ele>
        <time>2019-05-03T17:33:01Z</time>
      </trkpt>
      <trkpt lat="46.24385" lon="5.44442">
        <ele>375</ele>
        <time>2019-05-03T17:34:01Z</time>
      </trkpt>
      <trkpt lat="46.24373" lon="5.44391">
        <ele>374</ele>
        <time>2019-05-03T17:35:01Z</time>
      </trkpt>
      <trkpt lat="46.24365" lon="5.44359">
        <ele>373</ele>
        <time>2019-05-03T17:36:01Z</time>
      </trkpt>
      <trkpt lat="46.2436" lon="5.44336">
        <ele>372</ele>
        <time>2019-05-03T17:37:01Z</time>
      </trkpt>
      <trkpt lat="46.24358" lon="5.44322">
        <ele>373</ele>
        <time>2019-05-03T17:38:01Z</time>
      </trkpt>
      <trkpt lat="46.24357" lon="5.44307">
        <ele>374</ele>
        <time>2019-05-03T17:39:01Z</time>
      </trkpt>
      <trkpt lat="46.24358" lon="5.44292">
        <ele>374</ele>
        <time>2019-05-03T17:40:01Z</time>
      </trkpt>
      <trkpt lat="46.24363" lon="5.44268">
        <ele>374</ele>
        <time>2019-05-03T17:41:01Z</time>
      </trkpt>
      <trkpt lat="46.24369" lon="5.44238">
        <ele>374</ele>
        <time>2019-05-03T17:42:01Z</time>
      </trkpt>
      <trkpt lat="46.24372" lon="5.44224">
        <ele>375</ele>
        <time>2019-05-03T17:43:01Z</time>
      </trkpt>
      <trkpt lat="46.24375" lon="5.44199">
        <ele>377</ele>
        <time>2019-05-03T17:44:01Z</time>
      </trkpt>
      <trkpt lat="46.24376" lon="5.4418">
        <ele>378</ele>
        <time>2019-05-03T17:45:01Z</time>
      </trkpt>
      <trkpt lat="46.24377" lon="5.44158">
        <ele>380</ele>
        <time>2019-05-03T17:46:01Z</time>
      </trkpt>
      <trkpt lat="46.24379" lon="5.44143">
        <ele>380</ele>
        <time>2019-05-03T17:47:01Z</time>
      </trkpt>
      <trkpt lat="46.24382" lon="5.44115">
        <ele>380</ele>
        <time>2019-05-03T17:48:01Z</time>
      </trkpt>
      <trkpt lat="46.24391" lon="5.4407">
        <ele>377</ele>
        <time>2019-05-03T17:49:01Z</time>
      </trkpt>
      <trkpt lat="46.24394" lon="5.44056">
        <ele>376</ele>
        <time>2019-05-03T17:50:01Z</time>
      </trkpt>
      <trkpt lat="46.24398" lon="5.44031">
        <ele>373</ele>
        <time>2019-05-03T17:51:01Z</time>
      </trkpt>
      <trkpt lat="46.24402" lon="5.44014">
        <ele>371</ele>
        <time>2019-05-03T17:52:01Z</time>
      </trkpt>
      <trkpt lat="46.24403" lon="5.44">
        <ele>370</ele>
        <time>2019-05-03T17:53:01Z</time>
      </trkpt>
      <trkpt lat="46.24403" lon="5.43989">
        <ele>371</ele>
        <time>2019-05-03T17:54:01Z</time>
      </trkpt>
      <trkpt lat="46.24403" lon="5.43971">
        <ele>371</ele>
        <time>2019-05-03T17:55:01Z</time>
      </trkpt>
      <trkpt lat="46.244" lon="5.43948">
        <ele>372</ele>
        <time>2019-05-03T17:56:01Z</time>
      </trkpt>
      <trkpt lat="46.24397" lon="5.43918">
        <ele>374</ele>
        <time>2019-05-03T17:57:01Z</time>
      </trkpt>
      <trkpt lat="46.24397" lon="5.43891">
        <ele>372</ele>
        <time>2019-05-03T17:58:01Z</time>
      </trkpt>
      <trkpt lat="46.24399" lon="5.43866">
        <ele>368</ele>
        <time>2019-05-03T17:59:01Z</time>
      </trkpt>
      <trkpt lat="46.24401" lon="5.43849">
        <ele>366</ele>
        <time>2019-05-03T18:00:01Z</time>
      </trkpt>
      <trkpt lat="46.24404" lon="5.43837">
        <ele>363</ele>
        <time>2019-05-03T18:01:01Z</time>
      </trkpt>
      <trkpt lat="46.24408" lon="5.43824">
        <ele>360</ele>
        <time>2019-05-03T18:02:01Z</time>
      </trkpt>
      <trkpt lat="46.24418" lon="5.43803">
        <ele>353</ele>
        <time>2019-05-03T18:03:01Z</time>
      </trkpt>
      <trkpt lat="46.24424" lon="5.43789">
        <ele>352</ele>
        <time>2019-05-03T18:04:01Z</time>
      </trkpt>
      <trkpt lat="46.24427" lon="5.43783">
        <ele>352</ele>
        <time>2019-05-03T18:05:01Z</time>
      </trkpt>
      <trkpt lat="46.24432" lon="5.43769">
        <ele>351</ele>
        <time>2019-05-03T18:06:01Z</time>
      </trkpt>
      <trkpt lat="46.24435" lon="5.43756">
        <ele>350</ele>
        <time>2019-05-03T18:07:01Z</time>
      </trkpt>
      <trkpt lat="46.24439" lon="5.43729">
        <ele>347</ele>
        <time>2019-05-03T18:08:01Z</time>
      </trkpt>
      <trkpt lat="46.24446" lon="5.43693">
        <ele>343</ele>
        <time>2019-05-03T18:09:01Z</time>
      </trkpt>
      <trkpt lat="46.2445" lon="5.43665">
        <ele>340</ele>
        <time>2019-05-03T18:10:01Z</time>
      </trkpt>
      <trkpt lat="46.24456" lon="5.4362">
        <ele>337</ele>
        <time>2019-05-03T18:11:01Z</time>
      </trkpt>
      <trkpt lat="46.24468" lon="5.43549">
        <ele>333</ele>
        <time>2019-05-03T18:12:01Z</time>
      </trkpt>
      <trkpt lat="46.24474" lon="5.43513">
        <ele>332</ele>
        <time>2019-05-03T18:13:01Z</time>
      </trkpt>
      <trkpt lat="46.24481" lon="5.43474">
        <ele>331</ele>
        <time>2019-05-03T18:14:01Z</time>
      </trkpt>
      <trkpt lat="46.24494" lon="5.43383">
        <ele>329</ele>
        <time>2019-05-03T18:15:01Z</time>
      </trkpt>
      <trkpt lat="46.24504" lon="5.43325">
        <ele>329</ele>
        <time>2019-05-03T18:16:01Z</time>
      </trkpt>
      <trkpt lat="46.24509" lon="5.43289">
        <ele>327</ele>
        <time>2019-05-03T18:17:01Z</time>
      </trkpt>
      <trkpt lat="46.24522" lon="5.43208">
        <ele>326</ele>
        <time>2019-05-03T18:18:01Z</time>
      </trkpt>
      <trkpt lat="46.24532" lon="5.43141">
        <ele>325</ele>
        <time>2019-05-03T18:19:01Z</time>
      </trkpt>
      <trkpt lat="46.24542" lon="5.43074">
        <ele>323</ele>
        <time>2019-05-03T18:20:01Z</time>
      </trkpt>
      <trkpt lat="46.24552" lon="5.43007">
        <ele>322</ele>
        <time>2019-05-03T18:21:01Z</time>
      </trkpt>
      <trkpt lat="46.24559" lon="5.42966">
        <ele>321</ele>
        <time>2019-05-03T18:22:01Z</time>
      </trkpt>
      <trkpt lat="46.24566" lon="5.42917">
        <ele>320</ele>
        <time>2019-05-03T18:23:01Z</time>
      </trkpt>
      <trkpt lat="46.24576" lon="5.42855">
        <ele>319</ele>
        <time>2019-05-03T18:24:01Z</time>
      </trkpt>
      <trkpt lat="46.24582" lon="5.42821">
        <ele>319</ele>
        <time>2019-05-03T18:25:01Z</time>
      </trkpt>
      <trkpt lat="46.24586" lon="5.42798">
        <ele>319</ele>
        <time>2019-05-03T18:26:01Z</time>
      </trkpt>
      <trkpt lat="46.24594" lon="5.42751">
        <ele>319</ele>
        <time>2019-05-03T18:27:01Z</time>
      </trkpt>
      <trkpt lat="46.24602" lon="5.42699">
        <ele>317</ele>
        <time>2019-05-03T18:28:01Z</time>
      </trkpt>
      <trkpt lat="46.24608" lon="5.42664">
        <ele>316</ele>
        <time>2019-05-03T18:29:01Z</time>
      </trkpt>
      <trkpt lat="46.24615" lon="5.42617">
        <ele>315</ele>
        <time>2019-05-03T18:30:01Z</time>
      </trkpt>
      <trkpt lat="46.24623" lon="5.42571">
        <ele>313</ele>
        <time>2019-05-03T18:31:01Z</time>
      </trkpt>
      <trkpt lat="46.2463" lon="5.42528">
        <ele>313</ele>
        <time>2019-05-03T18:32:01Z</time>
      </trkpt>
      <trkpt lat="46.24638" lon="5.42485">
        <ele>313</ele>
        <time>2019-05-03T18:33:01Z</time>
      </trkpt>
      <trkpt lat="46.2464" lon="5.42466">
        <ele>314</ele>
        <time>2019-05-03T18:34:01Z</time>
      </trkpt>
      <trkpt lat="46.24641" lon="5.42456">
        <ele>314</ele>
        <time>2019-05-03T18:35:01Z</time>
      </trkpt>
      <trkpt lat="46.24642" lon="5.4244">
        <ele>314</ele>
        <time>2019-05-03T18:36:01Z</time>
      </trkpt>
      <trkpt lat="46.24643" lon="5.42412">
        <ele>315</ele>
        <time>2019-05-03T18:37:01Z</time>
      </trkpt>
      <trkpt lat="46.24644" lon="5.42397">
        <ele>315</ele>
        <time>2019-05-03T18:38:01Z</time>
      </trkpt>
      <trkpt lat="46.24645" lon="5.42333">
        <ele>316</ele>
        <time>2019-05-03T18:39:01Z</time>
      </trkpt>
      <trkpt lat="46.24645" lon="5.42333">
        <ele>316</ele>
        <time>2019-05-03T18:40:01Z</time>
      </trkpt>
      <trkpt lat="46.24651" lon="5.42334">
        <ele>316</ele>
        <time>2019-05-03T18:41:01Z</time>
      </trkpt>
      <trkpt lat="46.24671" lon="5.42339">
        <ele>316</ele>
        <time>2019-05-03T18:42:01Z</time>
      </trkpt>
      <trkpt lat="46.24696" lon="5.42343">
        <ele>316</ele>
        <time>2019-05-03T18:43:01Z</time>
      </trkpt>
      <trkpt lat="46.24699" lon="5.42343">
        <ele>316</ele>
        <time>2019-05-03T18:44:01Z</time>
      </trkpt>
      <trkpt lat="46.24704" lon="5.42342">
        <ele>316</ele>
        <time>2019-05-03T18:45:01Z</time>
      </trkpt>
      <trkpt lat="46.2475" lon="5.42348">
        <ele>316</ele>
        <time>2019-05-03T18:46:01Z</time>
      </trkpt>
      <trkpt lat="46.2481" lon="5.42356">
        <ele>315</ele>
        <time>2019-05-03T18:47:01Z</time>
      </trkpt>
      <trkpt lat="46.2485" lon="5.42362">
        <ele>314</ele>
        <time>2019-05-03T18:48:01Z</time>
      </trkpt>
      <trkpt lat="46.24897" lon="5.42367">
        <ele>313</ele>
        <time>2019-05-03T18:49:01Z</time>
      </trkpt>
      <trkpt lat="46.24945" lon="5.42373">
        <ele>313</ele>
        <time>2019-05-03T18:50:01Z</time>
      </trkpt>
      <trkpt lat="46.24991" lon="5.42379">
        <ele>314</ele>
        <time>2019-05-03T18:51:01Z</time>
      </trkpt>
      <trkpt lat="46.25036" lon="5.42384">
        <ele>314</ele>
        <time>2019-05-03T18:52:01Z</time>
      </trkpt>
      <trkpt lat="46.25085" lon="5.4239">
        <ele>315</ele>
        <time>2019-05-03T18:53:01Z</time>
      </trkpt>
      <trkpt lat="46.25134" lon="5.42395">
        <ele>315</ele>
        <time>2019-05-03T18:54:01Z</time>
      </trkpt>
      <trkpt lat="46.25176" lon="5.42401">
        <ele>315</ele>
        <time>2019-05-03T18:55:01Z</time>
      </trkpt>
      <trkpt lat="46.25211" lon="5.42406">
        <ele>315</ele>
        <time>2019-05-03T18:56:01Z</time>
      </trkpt>
      <trkpt lat="46.25236" lon="5.4241">
        <ele>314</ele>
        <time>2019-05-03T18:57:01Z</time>
      </trkpt>
      <trkpt lat="46.2525" lon="5.42412">
        <ele>314</ele>
        <time>2019-05-03T18:58:01Z</time>
      </trkpt>
      <trkpt lat="46.25292" lon="5.42419">
        <ele>314</ele>
        <time>2019-05-03T18:59:01Z</time>
      </trkpt>
      <trkpt lat="46.25335" lon="5.42426">
        <ele>314</ele>
        <time>2019-05-03T19:00:01Z</time>
      </trkpt>
      <trkpt lat="46.25387" lon="5.42434">
        <ele>315</ele>
        <time>2019-05-03T19:01:01Z</time>
      </trkpt>
      <trkpt lat="46.25432" lon="5.42442">
        <ele>315</ele>
        <time>2019-05-03T19:02:01Z</time>
      </trkpt>
      <trkpt lat="46.25478" lon="5.42449">
        <ele>315</ele>
        <time>2019-05-03T19:03:01Z</time>
      </trkpt>
      <trkpt lat="46.25513" lon="5.42456">
        <ele>316</ele>
        <time>2019-05-03T19:04:01Z</time>
      </trkpt>
      <trkpt lat="46.25547" lon="5.42461">
        <ele>315</ele>
        <time>2019-05-03T19:05:01Z</time>
      </trkpt>
      <trkpt lat="46.25592" lon="5.42468">
        <ele>315</ele>
        <time>2019-05-03T19:06:01Z</time>
      </trkpt>
      <trkpt lat="46.25635" lon="5.42474">
        <ele>315</ele>
        <time>2019-05-03T19:07:01Z</time>
      </trkpt>
      <trkpt lat="46.25676" lon="5.42481">
        <ele>314</ele>
        <time>2019-05-03T19:08:01Z</time>
      </trkpt>
      <trkpt lat="46.25704" lon="5.42485">
        <ele>314</ele>
        <time>2019-05-03T19:09:01Z</time>
      </trkpt>
      <trkpt lat="46.25752" lon="5.42493">
        <ele>314</ele>
        <time>2019-05-03T19:10:01Z</time>
      </trkpt>
      <trkpt lat="46.25797" lon="5.425">
        <ele>315</ele>
        <time>2019-05-03T19:11:01Z</time>
      </trkpt>
      <trkpt lat="46.25849" lon="5.42509">
        <ele>316</ele>
        <time>2019-05-03T19:12:01Z</time>
      </trkpt>
      <trkpt lat="46.25887" lon="5.42515">
        <ele>315</ele>
        <time>2019-05-03T19:13:01Z</time>
      </trkpt>
      <trkpt lat="46.25933" lon="5.42522">
        <ele>315</ele>
        <time>2019-05-03T19:14:01Z</time>
      </trkpt>
      <trkpt lat="46.25978" lon="5.42529">
        <ele>315</ele>
        <time>2019-05-03T19:15:01Z</time>
      </trkpt>
      <trkpt lat="46.25998" lon="5.42532">
        <ele>316</ele>
        <time>2019-05-03T19:16:01Z</time>
      </trkpt>
      <trkpt lat="46.26032" lon="5.42537">
        <ele>316</ele>
        <time>2019-05-03T19:17:01Z</time>
      </trkpt>
      <trkpt lat="46.26073" lon="5.42544">
        <ele>315</ele>
        <time>2019-05-03T19:18:01Z</time>
      </trkpt>
      <trkpt lat="46.26121" lon="5.42552">
        <ele>316</ele>
        <time>2019-05-03T19:19:01Z</time>
      </trkpt>
      <trkpt lat="46.26155" lon="5.42556">
        <ele>316</ele>
        <time>2019-05-03T19:20:01Z</time>
      </trkpt>
      <trkpt lat="46.26192" lon="5.42562">
        <ele>316</ele>
        <time>2019-05-03T19:21:01Z</time>
      </trkpt>
      <trkpt lat="46.2623" lon="5.42567">
        <ele>317</ele>
        <time>2019-05-03T19:22:01Z</time>
      </trkpt>
      <trkpt lat="46.26262" lon="5.42571">
        <ele>317</ele>
        <time>2019-05-03T19:23:01Z</time>
      </trkpt>
      <trkpt lat="46.26272" lon="5.42572">
        <ele>317</ele>
        <time>2019-05-03T19:24:01Z</time>
      </trkpt>
      <trkpt lat="46.26294" lon="5.42575">
        <ele>318</ele>
        <time>2019-05-03T19:25:01Z</time>
      </trkpt>
      <trkpt lat="46.26317" lon="5.42577">
        <ele>318</ele>
        <time>2019-05-03T19:26:01Z</time>
      </trkpt>
      <trkpt lat="46.26337" lon="5.4258">
        <ele>318</ele>
        <time>2019-05-03T19:27:01Z</time>
      </trkpt>
      <trkpt lat="46.26346" lon="5.42581">
        <ele>318</ele>
        <time>2019-05-03T19:28:01Z</time>
      </trkpt>
      <trkpt lat="46.26413" lon="5.42592">
        <ele>319</ele>
        <time>2019-05-03T19:29:01Z</time>
      </trkpt>
      <trkpt lat="46.26436" lon="5.42595">
        <ele>319</ele>
        <time>2019-05-03T19:30:01Z</time>
      </trkpt>
      <trkpt lat="46.26461" lon="5.426">
        <ele>318</ele>
        <time>2019-05-03T19:31:01Z</time>
      </trkpt>
      <trkpt lat="46.26473" lon="5.42604">
        <ele>318</ele>
        <time>2019-05-03T19:32:01Z</time>
      </trkpt>
      <trkpt lat="46.26476" lon="5.42605">
        <ele>318</ele>
        <time>2019-05-03T19:33:01Z</time>
      </trkpt>
      <trkpt lat="46.26483" lon="5.42607">
        <ele>318</ele>
        <time>2019-05-03T19:34:01Z</time>
      </trkpt>
      <trkpt lat="46.26502" lon="5.42612">
        <ele>318</ele>
        <time>2019-05-03T19:35:01Z</time>
      </trkpt>
      <trkpt lat="46.26518" lon="5.42616">
        <ele>318</ele>
        <time>2019-05-03T19:36:01Z</time>
      </trkpt>
      <trkpt lat="46.2654" lon="5.42619">
        <ele>318</ele>
        <time>2019-05-03T19:37:01Z</time>
      </trkpt>
      <trkpt lat="46.26566" lon="5.42622">
        <ele>318</ele>
        <time>2019-05-03T19:38:01Z</time>
      </trkpt>
      <trkpt lat="46.26586" lon="5.42626">
        <ele>318</ele>
        <time>2019-05-03T19:39:01Z</time>
      </trkpt>
      <trkpt lat="46.266" lon="5.42628">
        <ele>318</ele>
        <time>2019-05-03T19:40:01Z</time>
      </trkpt>
      <trkpt lat="46.26614" lon="5.42632">
        <ele>318</ele>
        <time>2019-05-03T19:41:01Z</time>
      </trkpt>
      <trkpt lat="46.26627" lon="5.42636">
        <ele>319</ele>
        <time>2019-05-03T19:42:01Z</time>
      </trkpt>
      <trkpt lat="46.2664" lon="5.42639">
        <ele>319</ele>
        <time>2019-05-03T19:43:01Z</time>
      </trkpt>
      <trkpt lat="46.26672" lon="5.42648">
        <ele>320</ele>
        <time>2019-05-03T19:44:01Z</time>
      </trkpt>
      <trkpt lat="46.26685" lon="5.42651">
        <ele>320</ele>
        <time>2019-05-03T19:45:01Z</time>
      </trkpt>
      <trkpt lat="46.26725" lon="5.42663">
        <ele>321</ele>
        <time>2019-05-03T19:46:01Z</time>
      </trkpt>
      <trkpt lat="46.26752" lon="5.42671">
        <ele>321</ele>
        <time>2019-05-03T19:47:01Z</time>
      </trkpt>
      <trkpt lat="46.26791" lon="5.42681">
        <ele>320</ele>
        <time>2019-05-03T19:48:01Z</time>
      </trkpt>
      <trkpt lat="46.26792" lon="5.42681">
        <ele>320</ele>
        <time>2019-05-03T19:49:01Z</time>
      </trkpt>
      <trkpt lat="46.26815" lon="5.42688">
        <ele>320</ele>
        <time>2019-05-03T19:50:01Z</time>
      </trkpt>
      <trkpt lat="46.26841" lon="5.42696">
        <ele>319</ele>
        <time>2019-05-03T19:51:01Z</time>
      </trkpt>
      <trkpt lat="46.26852" lon="5.42699">
        <ele>319</ele>
        <time>2019-05-03T19:52:01Z</time>
      </trkpt>
      <trkpt lat="46.26858" lon="5.42701">
        <ele>320</ele>
        <time>2019-05-03T19:53:01Z</time>
      </trkpt>
      <trkpt lat="46.26864" lon="5.42703">
        <ele>320</ele>
        <time>2019-05-03T19:54:01Z</time>
      </trkpt>
      <trkpt lat="46.26879" lon="5.4271">
        <ele>320</ele>
        <time>2019-05-03T19:55:01Z</time>
      </trkpt>
      <trkpt lat="46.26906" lon="5.42722">
        <ele>320</ele>
        <time>2019-05-03T19:56:01Z</time>
      </trkpt>
      <trkpt lat="46.26933" lon="5.42732">
        <ele>320</ele>
        <time>2019-05-03T19:57:01Z</time>
      </trkpt>
      <trkpt lat="46.26967" lon="5.42742">
        <ele>320</ele>
        <time>2019-05-03T19:58:01Z</time>
      </trkpt>
      <trkpt lat="46.26996" lon="5.4275">
        <ele>319</ele>
        <time>2019-05-03T19:59:01Z</time>
      </trkpt>
      <trkpt lat="46.27027" lon="5.42757">
        <ele>320</ele>
        <time>2019-05-03T20:00:01Z</time>
      </trkpt>
      <trkpt lat="46.27058" lon="5.42762">
        <ele>322</ele>
        <time>2019-05-03T20:01:01Z</time>
      </trkpt>
      <trkpt lat="46.27088" lon="5.42764">
        <ele>323</ele>
        <time>2019-05-03T20:02:01Z</time>
      </trkpt>
      <trkpt lat="46.27104" lon="5.42766">
        <ele>324</ele>
        <time>2019-05-03T20:03:01Z</time>
      </trkpt>
      <trkpt lat="46.27121" lon="5.42768">
        <ele>324</ele>
        <time>2019-05-03T20:04:01Z</time>
      </trkpt>
      <trkpt lat="46.27136" lon="5.4277">
        <ele>325</ele>
        <time>2019-05-03T20:05:01Z</time>
      </trkpt>
      <trkpt lat="46.2715" lon="5.42774">
        <ele>325</ele>
        <time>2019-05-03T20:06:01Z</time>
      </trkpt>
      <trkpt lat="46.2716" lon="5.42778">
        <ele>325</ele>
        <time>2019-05-03T20:07:01Z</time>
      </trkpt>
      <trkpt lat="46.27171" lon="5.42783">
        <ele>326</ele>
        <time>2019-05-03T20:08:01Z</time>
      </trkpt>
      <trkpt lat="46.2718" lon="5.42789">
        <ele>326</ele>
        <time>2019-05-03T20:09:01Z</time>
      </trkpt>
      <trkpt lat="46.27202" lon="5.42799">
        <ele>326</ele>
        <time>2019-05-03T20:10:01Z</time>
      </trkpt>
      <trkpt lat="46.27223" lon="5.42812">
        <ele>326</ele>
        <time>2019-05-03T20:11:01Z</time>
      </trkpt>
      <trkpt lat="46.27244" lon="5.42825">
        <ele>325</ele>
        <time>2019-05-03T20:12:01Z</time>
      </trkpt>
      <trkpt lat="46.27263" lon="5.42839">
        <ele>325</ele>
        <time>2019-05-03T20:13:01Z</time>
      </trkpt>
      <trkpt lat="46.27283" lon="5.42853">
        <ele>324</ele>
        <time>2019-05-03T20:14:01Z</time>
      </trkpt>
      <trkpt lat="46.27303" lon="5.42866">
        <ele>324</ele>
        <time>2019-05-03T20:15:01Z</time>
      </trkpt>
      <trkpt lat="46.2732" lon="5.42875">
        <ele>323</ele>
        <time>2019-05-03T20:16:01Z</time>
      </trkpt>
      <trkpt lat="46.2734" lon="5.42884">
        <ele>323</ele>
        <time>2019-05-03T20:17:01Z</time>
      </trkpt>
      <trkpt lat="46.27354" lon="5.4289">
        <ele>322</ele>
        <time>2019-05-03T20:18:01Z</time>
      </trkpt>
      <trkpt lat="46.27371" lon="5.42895">
        <ele>322</ele>
        <time>2019-05-03T20:19:01Z</time>
      </trkpt>
      <trkpt lat="46.27419" lon="5.42912">
        <ele>321</ele>
        <time>2019-05-03T20:20:01Z</time>
      </trkpt>
      <trkpt lat="46.27455" lon="5.42924">
        <ele>321</ele>
        <time>2019-05-03T20:21:01Z</time>
      </trkpt>
      <trkpt lat="46.27487" lon="5.42935">
        <ele>322</ele>
        <time>2019-05-03T20:22:01Z</time>
      </trkpt>
      <trkpt lat="46.275" lon="5.42939">
        <ele>322</ele>
        <time>2019-05-03T20:23:01Z</time>
      </trkpt>
      <trkpt lat="46.27533" lon="5.4295">
        <ele>322</ele>
        <time>2019-05-03T20:24:01Z</time>
      </trkpt>
      <trkpt lat="46.27569" lon="5.42962">
        <ele>322</ele>
        <time>2019-05-03T20:25:01Z</time>
      </trkpt>
      <trkpt lat="46.27603" lon="5.42974">
        <ele>322</ele>
        <time>2019-05-03T20:26:01Z</time>
      </trkpt>
      <trkpt lat="46.27634" lon="5.42984">
        <ele>321</ele>
        <time>2019-05-03T20:27:01Z</time>
      </trkpt>
      <trkpt lat="46.27658" lon="5.42991">
        <ele>320</ele>
        <time>2019-05-03T20:28:01Z</time>
      </trkpt>
      <trkpt lat="46.27685" lon="5.43">
        <ele>320</ele>
        <time>2019-05-03T20:29:01Z</time>
      </trkpt>
      <trkpt lat="46.27713" lon="5.43011">
        <ele>321</ele>
        <time>2019-05-03T20:30:01Z</time>
      </trkpt>
      <trkpt lat="46.27737" lon="5.43021">
        <ele>322</ele>
        <time>2019-05-03T20:31:01Z</time>
      </trkpt>
      <trkpt lat="46.27768" lon="5.43034">
        <ele>322</ele>
        <time>2019-05-03T20:32:01Z</time>
      </trkpt>
      <trkpt lat="46.27789" lon="5.43042">
        <ele>322</ele>
        <time>2019-05-03T20:33:01Z</time>
      </trkpt>
      <trkpt lat="46.27804" lon="5.43045">
        <ele>323</ele>
        <time>2019-05-03T20:34:01Z</time>
      </trkpt>
      <trkpt lat="46.27824" lon="5.43046">
        <ele>323</ele>
        <time>2019-05-03T20:35:01Z</time>
      </trkpt>
      <trkpt lat="46.27842" lon="5.43045">
        <ele>323</ele>
        <time>2019-05-03T20:36:01Z</time>
      </trkpt>
      <trkpt lat="46.27871" lon="5.43045">
        <ele>323</ele>
        <time>2019-05-03T20:37:01Z</time>
      </trkpt>
      <trkpt lat="46.2789" lon="5.43047">
        <ele>322</ele>
        <time>2019-05-03T20:38:01Z</time>
      </trkpt>
      <trkpt lat="46.27909" lon="5.4305">
        <ele>322</ele>
        <time>2019-05-03T20:39:01Z</time>
      </trkpt>
      <trkpt lat="46.2794" lon="5.43057">
        <ele>322</ele>
        <time>2019-05-03T20:40:01Z</time>
      </trkpt>
      <trkpt lat="46.27964" lon="5.43062">
        <ele>321</ele>
        <time>2019-05-03T20:41:01Z</time>
      </trkpt>
      <trkpt lat="46.28008" lon="5.43072">
        <ele>321</ele>
        <time>2019-05-03T20:42:01Z</time>
      </trkpt>
      <trkpt lat="46.28044" lon="5.43079">
        <ele>321</ele>
        <time>2019-05-03T20:43:01Z</time>
      </trkpt>
      <trkpt lat="46.2808" lon="5.43086">
        <ele>320</ele>
        <time>2019-05-03T20:44:01Z</time>
      </trkpt>
      <trkpt lat="46.2811" lon="5.43092">
        <ele>320</ele>
        <time>2019-05-03T20:45:01Z</time>
      </trkpt>
      <trkpt lat="46.28141" lon="5.43098">
        <ele>320</ele>
        <time>2019-05-03T20:46:01Z</time>
      </trkpt>
      <trkpt lat="46.28167" lon="5.43104">
        <ele>319</ele>
        <time>2019-05-03T20:47:01Z</time>
      </trkpt>
      <trkpt lat="46.2819" lon="5.43109">
        <ele>320</ele>
        <time>2019-05-03T20:48:01Z</time>
      </trkpt>
      <trkpt lat="46.28218" lon="5.43113">
        <ele>320</ele>
        <time>2019-05-03T20:49:01Z</time>
      </trkpt>
      <trkpt lat="46.28242" lon="5.43118">
        <ele>320</ele>
        <time>2019-05-03T20:50:01Z</time>
      </trkpt>
      <trkpt lat="46.28269" lon="5.43122">
        <ele>321</ele>
        <time>2019-05-03T20:51:01Z</time>
      </trkpt>
      <trkpt lat="46.28292" lon="5.43127">
        <ele>320</ele>
        <time>2019-05-03T20:52:01Z</time>
      </trkpt>
      <trkpt lat="46.28307" lon="5.43129">
        <ele>320</ele>
        <time>2019-05-03T20:53:01Z</time>
      </trkpt>
      <trkpt lat="46.28324" lon="5.43129">
        <ele>320</ele>
        <time>2019-05-03T20:54:01Z</time>
      </trkpt>
      <trkpt lat="46.28346" lon="5.43127">
        <ele>321</ele>
        <time>2019-05-03T20:55:01Z</time>
      </trkpt>
      <trkpt lat="46.28364" lon="5.43125">
        <ele>321</ele>
        <time>2019-05-03T20:56:01Z</time>
      </trkpt>
      <trkpt lat="46.28387" lon="5.43121">
        <ele>321</ele>
        <time>2019-05-03T20:57:01Z</time>
      </trkpt>
      <trkpt lat="46.2842" lon="5.43117">
        <ele>321</ele>
        <time>2019-05-03T20:58:01Z</time>
      </trkpt>
      <trkpt lat="46.28441" lon="5.43114">
        <ele>321</ele>
        <time>2019-05-03T20:59:01Z</time>
      </trkpt>
      <trkpt lat="46.28465" lon="5.43111">
        <ele>321</ele>
        <time>2019-05-03T21:00:01Z</time>
      </trkpt>
      <trkpt lat="46.28492" lon="5.43108">
        <ele>321</ele>
        <time>2019-05-03T21:01:01Z</time>
      </trkpt>
      <trkpt lat="46.2852" lon="5.43106">
        <ele>321</ele>
        <time>2019-05-03T21:02:01Z</time>
      </trkpt>
      <trkpt lat="46.2855" lon="5.43104">
        <ele>322</ele>
        <time>2019-05-03T21:03:01Z</time>
      </trkpt>
      <trkpt lat="46.28575" lon="5.43104">
        <ele>322</ele>
        <time>2019-05-03T21:04:01Z</time>
      </trkpt>
      <trkpt lat="46.28599" lon="5.43105">
        <ele>322</ele>
        <time>2019-05-03T21:05:01Z</time>
      </trkpt>
      <trkpt lat="46.28624" lon="5.43107">
        <ele>322</ele>
        <time>2019-05-03T21:06:01Z</time>
      </trkpt>
      <trkpt lat="46.28663" lon="5.4311">
        <ele>323</ele>
        <time>2019-05-03T21:07:01Z</time>
      </trkpt>
      <trkpt lat="46.28697" lon="5.43113">
        <ele>322</ele>
        <time>2019-05-03T21:08:01Z</time>
      </trkpt>
      <trkpt lat="46.28728" lon="5.43116">
        <ele>322</ele>
        <time>2019-05-03T21:09:01Z</time>
      </trkpt>
      <trkpt lat="46.28752" lon="5.4312">
        <ele>322</ele>
        <time>2019-05-03T21:10:01Z</time>
      </trkpt>
      <trkpt lat="46.28766" lon="5.43122">
        <ele>322</ele>
        <time>2019-05-03T21:11:01Z</time>
      </trkpt>
      <trkpt lat="46.2878" lon="5.43127">
        <ele>322</ele>
        <time>2019-05-03T21:12:01Z</time>
      </trkpt>
      <trkpt lat="46.28795" lon="5.43133">
        <ele>322</ele>
        <time>2019-05-03T21:13:01Z</time>
      </trkpt>
      <trkpt lat="46.28816" lon="5.4314">
        <ele>322</ele>
        <time>2019-05-03T21:14:01Z</time>
      </trkpt>
      <trkpt lat="46.28847" lon="5.43152">
        <ele>322</ele>
        <time>2019-05-03T21:15:01Z</time>
      </trkpt>
      <trkpt lat="46.28869" lon="5.43162">
        <ele>322</ele>
        <time>2019-05-03T21:16:01Z</time>
      </trkpt>
      <trkpt lat="46.2891" lon="5.43179">
        <ele>323</ele>
        <time>2019-05-03T21:17:01Z</time>
      </trkpt>
      <trkpt lat="46.28934" lon="5.43189">
        <ele>323</ele>
        <time>2019-05-03T21:18:01Z</time>
      </trkpt>
      <trkpt lat="46.28953" lon="5.43197">
        <ele>323</ele>
        <time>2019-05-03T21:19:01Z</time>
      </trkpt>
      <trkpt lat="46.28966" lon="5.43204">
        <ele>323</ele>
        <time>2019-05-03T21:20:01Z</time>
      </trkpt>
      <trkpt lat="46.28985" lon="5.43215">
        <ele>323</ele>
        <time>2019-05-03T21:21:01Z</time>
      </trkpt>
      <trkpt lat="46.28995" lon="5.43222">
        <ele>322</ele>
        <time>2019-05-03T21:22:01Z</time>
      </trkpt>
      <trkpt lat="46.29011" lon="5.43235">
        <ele>322</ele>
        <time>2019-05-03T21:23:01Z</time>
      </trkpt>
      <trkpt lat="46.29019" lon="5.43242">
        <ele>322</ele>
        <time>2019-05-03T21:24:01Z</time>
      </trkpt>
      <trkpt lat="46.2903" lon="5.43253">
        <ele>322</ele>
        <time>2019-05-03T21:25:01Z</time>
      </trkpt>
      <trkpt lat="46.29043" lon="5.43266">
        <ele>323</ele>
        <time>2019-05-03T21:26:01Z</time>
      </trkpt>
      <trkpt lat="46.29061" lon="5.43282">
        <ele>323</ele>
        <time>2019-05-03T21:27:01Z</time>
      </trkpt>
      <trkpt lat="46.29082" lon="5.43302">
        <ele>323</ele>
        <time>2019-05-03T21:28:01Z</time>
      </trkpt>
      <trkpt lat="46.29105" lon="5.43322">
        <ele>323</ele>
        <time>2019-05-03T21:29:01Z</time>
      </trkpt>
      <trkpt lat="46.29126" lon="5.4334">
        <ele>323</ele>
        <time>2019-05-03T21:30:01Z</time>
      </trkpt>
      <trkpt lat="46.29144" lon="5.43354">
        <ele>323</ele>
        <time>2019-05-03T21:31:01Z</time>
      </trkpt>
      <trkpt lat="46.29163" lon="5.43367">
        <ele>323</ele>
        <time>2019-05-03T21:32:01Z</time>
      </trkpt>
      <trkpt lat="46.29182" lon="5.4338">
        <ele>323</ele>
        <time>2019-05-03T21:33:01Z</time>
      </trkpt>
      <trkpt lat="46.292" lon="5.4339">
        <ele>323</ele>
        <time>2019-05-03T21:34:01Z</time>
      </trkpt>
      <trkpt lat="46.29218" lon="5.43399">
        <ele>323</ele>
        <time>2019-05-03T21:35:01Z</time>
      </trkpt>
      <trkpt lat="46.29226" lon="5.43404">
        <ele>323</ele>
        <time>2019-05-03T21:36:01Z</time>
      </trkpt>
      <trkpt lat="46.29258" lon="5.43414">
        <ele>323</ele>
        <time>2019-05-03T21:37:01Z</time>
      </trkpt>
      <trkpt lat="46.29282" lon="5.43423">
        <ele>323</ele>
        <time>2019-05-03T21:38:01Z</time>
      </trkpt>
      <trkpt lat="46.29284" lon="5.43424">
        <ele>323</ele>
        <time>2019-05-03T21:39:01Z</time>
      </trkpt>
      <trkpt lat="46.293" lon="5.4343">
        <ele>324</ele>
        <time>2019-05-03T21:40:01Z</time>
      </trkpt>
      <trkpt lat="46.29318" lon="5.43439">
        <ele>324</ele>
        <time>2019-05-03T21:41:01Z</time>
      </trkpt>
      <trkpt lat="46.29332" lon="5.43446">
        <ele>324</ele>
        <time>2019-05-03T21:42:01Z</time>
      </trkpt>
      <trkpt lat="46.29348" lon="5.43455">
        <ele>324</ele>
        <time>2019-05-03T21:43:01Z</time>
      </trkpt>
      <trkpt lat="46.29358" lon="5.43461">
        <ele>324</ele>
        <time>2019-05-03T21:44:01Z</time>
      </trkpt>
      <trkpt lat="46.29376" lon="5.43474">
        <ele>324</ele>
        <time>2019-05-03T21:45:01Z</time>
      </trkpt>
      <trkpt lat="46.29398" lon="5.43488">
        <ele>325</ele>
        <time>2019-05-03T21:46:01Z</time>
      </trkpt>
      <trkpt lat="46.29417" lon="5.435">
        <ele>325</ele>
        <time>2019-05-03T21:47:01Z</time>
      </trkpt>
      <trkpt lat="46.2944" lon="5.43515">
        <ele>326</ele>
        <time>2019-05-03T21:48:01Z</time>
      </trkpt>
      <trkpt lat="46.29459" lon="5.43526">
        <ele>326</ele>
        <time>2019-05-03T21:49:01Z</time>
      </trkpt>
      <trkpt lat="46.2949" lon="5.43544">
        <ele>326</ele>
        <time>2019-05-03T21:50:01Z</time>
      </trkpt>
      <trkpt lat="46.29517" lon="5.43558">
        <ele>326</ele>
        <time>2019-05-03T21:51:01Z</time>
      </trkpt>
      <trkpt lat="46.29552" lon="5.43576">
        <ele>326</ele>
        <time>2019-05-03T21:52:01Z</time>
      </trkpt>
      <trkpt lat="46.29579" lon="5.4359">
        <ele>326</ele>
        <time>2019-05-03T21:53:01Z</time>
      </trkpt>
      <trkpt lat="46.29584" lon="5.43592">
        <ele>326</ele>
        <time>2019-05-03T21:54:01Z</time>
      </trkpt>
      <trkpt lat="46.29607" lon="5.43605">
        <ele>326</ele>
        <time>2019-05-03T21:55:01Z</time>
      </trkpt>
      <trkpt lat="46.29663" lon="5.43634">
        <ele>327</ele>
        <time>2019-05-03T21:56:01Z</time>
      </trkpt>
      <trkpt lat="46.29718" lon="5.43663">
        <ele>327</ele>
        <time>2019-05-03T21:57:01Z</time>
      </trkpt>
      <trkpt lat="46.29751" lon="5.43682">
        <ele>327</ele>
        <time>2019-05-03T21:58:01Z</time>
      </trkpt>
      <trkpt lat="46.29783" lon="5.43698">
        <ele>327</ele>
        <time>2019-05-03T21:59:01Z</time>
      </trkpt>
      <trkpt lat="46.29821" lon="5.43715">
        <ele>327</ele>
        <time>2019-05-03T22:00:01Z</time>
      </trkpt>
      <trkpt lat="46.29846" lon="5.43727">
        <ele>327</ele>
        <time>2019-05-03T22:01:01Z</time>
      </trkpt>
      <trkpt lat="46.29875" lon="5.4374">
        <ele>327</ele>
        <time>2019-05-03T22:02:01Z</time>
      </trkpt>
      <trkpt lat="46.29917" lon="5.43757">
        <ele>327</ele>
        <time>2019-05-03T22:03:01Z</time>
      </trkpt>
      <trkpt lat="46.29964" lon="5.43777">
        <ele>327</ele>
        <time>2019-05-03T22:04:01Z</time>
      </trkpt>
      <trkpt lat="46.30011" lon="5.43798">
        <ele>328</ele>
        <time>2019-05-03T22:05:01Z</time>
      </trkpt>
      <trkpt lat="46.30053" lon="5.4382">
        <ele>328</ele>
        <time>2019-05-03T22:06:01Z</time>
      </trkpt>
      <trkpt lat="46.30097" lon="5.43843">
        <ele>329</ele>
        <time>2019-05-03T22:07:01Z</time>
      </trkpt>
      <trkpt lat="46.30141" lon="5.43866">
        <ele>329</ele>
        <time>2019-05-03T22:08:01Z</time>
      </trkpt>
      <trkpt lat="46.30183" lon="5.43888">
        <ele>329</ele>
        <time>2019-05-03T22:09:01Z</time>
      </trkpt>
      <trkpt lat="46.30227" lon="5.4391">
        <ele>329</ele>
        <time>2019-05-03T22:10:01Z</time>
      </trkpt>
      <trkpt lat="46.3023" lon="5.43912">
        <ele>329</ele>
        <time>2019-05-03T22:11:01Z</time>
      </trkpt>
      <trkpt lat="46.30274" lon="5.43934">
        <ele>329</ele>
        <time>2019-05-03T22:12:01Z</time>
      </trkpt>
      <trkpt lat="46.30317" lon="5.43956">
        <ele>329</ele>
        <time>2019-05-03T22:13:01Z</time>
      </trkpt>
      <trkpt lat="46.30389" lon="5.43991">
        <ele>330</ele>
        <time>2019-05-03T22:14:01Z</time>
      </trkpt>
      <trkpt lat="46.30414" lon="5.44001">
        <ele>330</ele>
        <time>2019-05-03T22:15:01Z</time>
      </trkpt>
      <trkpt lat="46.30428" lon="5.44005">
        <ele>331</ele>
        <time>2019-05-03T22:16:01Z</time>
      </trkpt>
      <trkpt lat="46.30432" lon="5.44006">
        <ele>331</ele>
        <time>2019-05-03T22:17:01Z</time>
      </trkpt>
      <trkpt lat="46.30449" lon="5.44011">
        <ele>332</ele>
        <time>2019-05-03T22:18:01Z</time>
      </trkpt>
      <trkpt lat="46.30474" lon="5.44017">
        <ele>333</ele>
        <time>2019-05-03T22:19:01Z</time>
      </trkpt>
      <trkpt lat="46.30513" lon="5.44027">
        <ele>335</ele>
        <time>2019-05-03T22:20:01Z</time>
      </trkpt>
      <trkpt lat="46.3056" lon="5.44036">
        <ele>337</ele>
        <time>2019-05-03T22:21:01Z</time>
      </trkpt>
      <trkpt lat="46.3058" lon="5.44038">
        <ele>338</ele>
        <time>2019-05-03T22:22:01Z</time>
      </trkpt>
      <trkpt lat="46.30602" lon="5.4404">
        <ele>339</ele>
        <time>2019-05-03T22:23:01Z</time>
      </trkpt>
      <trkpt lat="46.30623" lon="5.44042">
        <ele>340</ele>
        <time>2019-05-03T22:24:01Z</time>
      </trkpt>
      <trkpt lat="46.30642" lon="5.44045">
        <ele>341</ele>
        <time>2019-05-03T22:25:01Z</time>
      </trkpt>
      <trkpt lat="46.3066" lon="5.44049">
        <ele>341</ele>
        <time>2019-05-03T22:26:01Z</time>
      </trkpt>
      <trkpt lat="46.3067" lon="5.44052">
        <ele>341</ele>
        <time>2019-05-03T22:27:01Z</time>
      </trkpt>
      <trkpt lat="46.30677" lon="5.44051">
        <ele>341</ele>
        <time>2019-05-03T22:28:01Z</time>
      </trkpt>
      <trkpt lat="46.30686" lon="5.44051">
        <ele>340</ele>
        <time>2019-05-03T22:29:01Z</time>
      </trkpt>
      <trkpt lat="46.30703" lon="5.44047">
        <ele>341</ele>
        <time>2019-05-03T22:30:01Z</time>
      </trkpt>
      <trkpt lat="46.30718" lon="5.44043">
        <ele>341</ele>
        <time>2019-05-03T22:31:01Z</time>
      </trkpt>
      <trkpt lat="46.30762" lon="5.44027">
        <ele>343</ele>
        <time>2019-05-03T22:32:01Z</time>
      </trkpt>
      <trkpt lat="46.30782" lon="5.4402">
        <ele>344</ele>
        <time>2019-05-03T22:33:01Z</time>
      </trkpt>
      <trkpt lat="46.30802" lon="5.44017">
        <ele>344</ele>
        <time>2019-05-03T22:34:01Z</time>
      </trkpt>
      <trkpt lat="46.30811" lon="5.44018">
        <ele>343</ele>
        <time>2019-05-03T22:35:01Z</time>
      </trkpt>
      <trkpt lat="46.30839" lon="5.44022">
        <ele>342</ele>
        <time>2019-05-03T22:36:01Z</time>
      </trkpt>
      <trkpt lat="46.30854" lon="5.44027">
        <ele>342</ele>
        <time>2019-05-03T22:37:01Z</time>
      </trkpt>
      <trkpt lat="46.30867" lon="5.44031">
        <ele>342</ele>
        <time>2019-05-03T22:38:01Z</time>
      </trkpt>
      <trkpt lat="46.30881" lon="5.44036">
        <ele>342</ele>
        <time>2019-05-03T22:39:01Z</time>
      </trkpt>
      <trkpt lat="46.30899" lon="5.44044">
        <ele>341</ele>
        <time>2019-05-03T22:40:01Z</time>
      </trkpt>
      <trkpt lat="46.30919" lon="5.44055">
        <ele>340</ele>
        <time>2019-05-03T22:41:01Z</time>
      </trkpt>
      <trkpt lat="46.30938" lon="5.44067">
        <ele>338</ele>
        <time>2019-05-03T22:42:01Z</time>
      </trkpt>
      <trkpt lat="46.30964" lon="5.44085">
        <ele>335</ele>
        <time>2019-05-03T22:43:01Z</time>
      </trkpt>
      <trkpt lat="46.30979" lon="5.44095">
        <ele>336</ele>
        <time>2019-05-03T22:44:01Z</time>
      </trkpt>
      <trkpt lat="46.30985" lon="5.441">
        <ele>336</ele>
        <time>2019-05-03T22:45:01Z</time>
      </trkpt>
      <trkpt lat="46.31005" lon="5.44113">
        <ele>336</ele>
        <time>2019-05-03T22:46:01Z</time>
      </trkpt>
      <trkpt lat="46.3102" lon="5.44124">
        <ele>336</ele>
        <time>2019-05-03T22:47:01Z</time>
      </trkpt>
      <trkpt lat="46.31039" lon="5.4414">
        <ele>336</ele>
        <time>2019-05-03T22:48:01Z</time>
      </trkpt>
      <trkpt lat="46.31062" lon="5.4416">
        <ele>336</ele>
        <time>2019-05-03T22:49:01Z</time>
      </trkpt>
      <trkpt lat="46.31083" lon="5.44178">
        <ele>336</ele>
        <time>2019-05-03T22:50:01Z</time>
      </trkpt>
      <trkpt lat="46.3115" lon="5.44237">
        <ele>340</ele>
        <time>2019-05-03T22:51:01Z</time>
      </trkpt>
      <trkpt lat="46.31168" lon="5.44251">
        <ele>340</ele>
        <time>2019-05-03T22:52:01Z</time>
      </trkpt>
      <trkpt lat="46.31181" lon="5.44262">
        <ele>340</ele>
        <time>2019-05-03T22:53:01Z</time>
      </trkpt>
      <trkpt lat="46.3119" lon="5.44268">
        <ele>340</ele>
        <time>2019-05-03T22:54:01Z</time>
      </trkpt>
      <trkpt lat="46.31201" lon="5.44274">
        <ele>340</ele>
        <time>2019-05-03T22:55:01Z</time>
      </trkpt>
      <trkpt lat="46.3122" lon="5.44283">
        <ele>341</ele>
        <time>2019-05-03T22:56:01Z</time>
      </trkpt>
      <trkpt lat="46.31335" lon="5.4433">
        <ele>343</ele>
        <time>2019-05-03T22:57:01Z</time>
      </trkpt>
      <trkpt lat="46.31367" lon="5.44343">
        <ele>341</ele>
        <time>2019-05-03T22:58:01Z</time>
      </trkpt>
      <trkpt lat="46.31386" lon="5.44351">
        <ele>340</ele>
        <time>2019-05-03T22:59:01Z</time>
      </trkpt>
      <trkpt lat="46.31387" lon="5.44351">
        <ele>340</ele>
        <time>2019-05-03T23:00:01Z</time>
      </trkpt>
      <trkpt lat="46.31433" lon="5.44369">
        <ele>338</ele>
        <time>2019-05-03T23:01:01Z</time>
      </trkpt>
      <trkpt lat="46.31518" lon="5.44402">
        <ele>335</ele>
        <time>2019-05-03T23:02:01Z</time>
      </trkpt>
      <trkpt lat="46.3153" lon="5.44406">
        <ele>335</ele>
        <time>2019-05-03T23:03:01Z</time>
      </trkpt>
      <trkpt lat="46.31543" lon="5.4441">
        <ele>334</ele>
        <time>2019-05-03T23:04:01Z</time>
      </trkpt>
      <trkpt lat="46.31576" lon="5.44417">
        <ele>333</ele>
        <time>2019-05-03T23:05:01Z</time>
      </trkpt>
      <trkpt lat="46.316" lon="5.44419">
        <ele>333</ele>
        <time>2019-05-03T23:06:01Z</time>
      </trkpt>
      <trkpt lat="46.31692" lon="5.44428">
        <ele>333</ele>
        <time>2019-05-03T23:07:01Z</time>
      </trkpt>
      <trkpt lat="46.31708" lon="5.44428">
        <ele>334</ele>
        <time>2019-05-03T23:08:01Z</time>
      </trkpt>
      <trkpt lat="46.31721" lon="5.44427">
        <ele>334</ele>
        <time>2019-05-03T23:09:01Z</time>
      </trkpt>
      <trkpt lat="46.31728" lon="5.44425">
        <ele>334</ele>
        <time>2019-05-03T23:10:01Z</time>
      </trkpt>
      <trkpt lat="46.3174" lon="5.44421">
        <ele>335</ele>
        <time>2019-05-03T23:11:01Z</time>
      </trkpt>
      <trkpt lat="46.3174" lon="5.44421">
        <ele>335</ele>
        <time>2019-05-03T23:12:01Z</time>
      </trkpt>
      <trkpt lat="46.31747" lon="5.44417">
        <ele>335</ele>
        <time>2019-05-03T23:13:01Z</time>
      </trkpt>
      <trkpt lat="46.31784" lon="5.44402">
        <ele>337</ele>
        <time>2019-05-03T23:14:01Z</time>
      </trkpt>
      <trkpt lat="46.31787" lon="5.44401">
        <ele>337</ele>
        <time>2019-05-03T23:15:01Z</time>
      </trkpt>
      <trkpt lat="46.31989" lon="5.44315">
        <ele>343</ele>
        <time>2019-05-03T23:16:01Z</time>
      </trkpt>
      <trkpt lat="46.32109" lon="5.44261">
        <ele>345</ele>
        <time>2019-05-03T23:17:01Z</time>
      </trkpt>
      <trkpt lat="46.32126" lon="5.44253">
        <ele>344</ele>
        <time>2019-05-03T23:18:01Z</time>
      </trkpt>
      <trkpt lat="46.32139" lon="5.44246">
        <ele>344</ele>
        <time>2019-05-03T23:19:01Z</time>
      </trkpt>
      <trkpt lat="46.32153" lon="5.44235">
        <ele>345</ele>
        <time>2019-05-03T23:20:01Z</time>
      </trkpt>
      <trkpt lat="46.32166" lon="5.44225">
        <ele>345</ele>
        <time>2019-05-03T23:21:01Z</time>
      </trkpt>
      <trkpt lat="46.32179" lon="5.44212">
        <ele>346</ele>
        <time>2019-05-03T23:22:01Z</time>
      </trkpt>
      <trkpt lat="46.32195" lon="5.44199">
        <ele>347</ele>
        <time>2019-05-03T23:23:01Z</time>
      </trkpt>
      <trkpt lat="46.32223" lon="5.44173">
        <ele>346</ele>
        <time>2019-05-03T23:24:01Z</time>
      </trkpt>
      <trkpt lat="46.32238" lon="5.44159">
        <ele>345</ele>
        <time>2019-05-03T23:25:01Z</time>
      </trkpt>
      <trkpt lat="46.3225" lon="5.44148">
        <ele>344</ele>
        <time>2019-05-03T23:26:01Z</time>
      </trkpt>
      <trkpt lat="46.32264" lon="5.44135">
        <ele>345</ele>
        <time>2019-05-03T23:27:01Z</time>
      </trkpt>
      <trkpt lat="46.32274" lon="5.44126">
        <ele>345</ele>
        <time>2019-05-03T23:28:01Z</time>
      </trkpt>
      <trkpt lat="46.32318" lon="5.44086">
        <ele>346</ele>
        <time>2019-05-03T23:29:01Z</time>
      </trkpt>
      <trkpt lat="46.32329" lon="5.44076">
        <ele>346</ele>
        <time>2019-05-03T23:30:01Z</time>
      </trkpt>
      <trkpt lat="46.32349" lon="5.44057">
        <ele>347</ele>
        <time>2019-05-03T23:31:01Z</time>
      </trkpt>
      <trkpt lat="46.32368" lon="5.4404">
        <ele>347</ele>
        <time>2019-05-03T23:32:01Z</time>
      </trkpt>
      <trkpt lat="46.32395" lon="5.44017">
        <ele>348</ele>
        <time>2019-05-03T23:33:01Z</time>
      </trkpt>
      <trkpt lat="46.3242" lon="5.43993">
        <ele>349</ele>
        <time>2019-05-03T23:34:01Z</time>
      </trkpt>
      <trkpt lat="46.32469" lon="5.43949">
        <ele>352</ele>
        <time>2019-05-03T23:35:01Z</time>
      </trkpt>
      <trkpt lat="46.3249" lon="5.4393">
        <ele>353</ele>
        <time>2019-05-03T23:36:01Z</time>
      </trkpt>
      <trkpt lat="46.32499" lon="5.43922">
        <ele>354</ele>
        <time>2019-05-03T23:37:01Z</time>
      </trkpt>
      <trkpt lat="46.32521" lon="5.43902">
        <ele>356</ele>
        <time>2019-05-03T23:38:01Z</time>
      </trkpt>
      <trkpt lat="46.32541" lon="5.43885">
        <ele>357</ele>
        <time>2019-05-03T23:39:01Z</time>
      </trkpt>
      <trkpt lat="46.32554" lon="5.43876">
        <ele>357</ele>
        <time>2019-05-03T23:40:01Z</time>
      </trkpt>
      <trkpt lat="46.32572" lon="5.43863">
        <ele>357</ele>
        <time>2019-05-03T23:41:01Z</time>
      </trkpt>
      <trkpt lat="46.32585" lon="5.43855">
        <ele>357</ele>
        <time>2019-05-03T23:42:01Z</time>
      </trkpt>
      <trkpt lat="46.326" lon="5.43846">
        <ele>357</ele>
        <time>2019-05-03T23:43:01Z</time>
      </trkpt>
      <trkpt lat="46.32609" lon="5.43842">
        <ele>356</ele>
        <time>2019-05-03T23:44:01Z</time>
      </trkpt>
      <trkpt lat="46.32619" lon="5.43836">
        <ele>356</ele>
        <time>2019-05-03T23:45:01Z</time>
      </trkpt>
      <trkpt lat="46.32639" lon="5.43828">
        <ele>356</ele>
        <time>2019-05-03T23:46:01Z</time>
      </trkpt>
      <trkpt lat="46.32659" lon="5.43822">
        <ele>355</ele>
        <time>2019-05-03T23:47:01Z</time>
      </trkpt>
      <trkpt lat="46.32693" lon="5.43814">
        <ele>356</ele>
        <time>2019-05-03T23:48:01Z</time>
      </trkpt>
      <trkpt lat="46.32719" lon="5.43808">
        <ele>356</ele>
        <time>2019-05-03T23:49:01Z</time>
      </trkpt>
      <trkpt lat="46.32737" lon="5.43804">
        <ele>357</ele>
        <time>2019-05-03T23:50:01Z</time>
      </trkpt>
      <trkpt lat="46.32765" lon="5.43797">
        <ele>357</ele>
        <time>2019-05-03T23:51:01Z</time>
      </trkpt>
      <trkpt lat="46.3283" lon="5.43781">
        <ele>359</ele>
        <time>2019-05-03T23:52:01Z</time>
      </trkpt>
      <trkpt lat="46.32854" lon="5.43774">
        <ele>359</ele>
        <time>2019-05-03T23:53:01Z</time>
      </trkpt>
      <trkpt lat="46.32905" lon="5.43761">
        <ele>360</ele>
        <time>2019-05-03T23:54:01Z</time>
      </trkpt>
      <trkpt lat="46.32926" lon="5.43755">
        <ele>360</ele>
        <time>2019-05-03T23:55:01Z</time>
      </trkpt>
      <trkpt lat="46.32937" lon="5.43752">
        <ele>360</ele>
        <time>2019-05-03T23:56:01Z</time>
      </trkpt>
      <trkpt lat="46.32942" lon="5.43751">
        <ele>360</ele>
        <time>2019-05-03T23:57:01Z</time>
      </trkpt>
      <trkpt lat="46.32957" lon="5.43747">
        <ele>360</ele>
        <time>2019-05-03T23:58:01Z</time>
      </trkpt>
      <trkpt lat="46.3297" lon="5.43745">
        <ele>360</ele>
        <time>2019-05-03T23:59:01Z</time>
      </trkpt>
      <trkpt lat="46.3298" lon="5.43743">
        <ele>360</ele>
        <time>2019-05-04T00:00:01Z</time>
      </trkpt>
      <trkpt lat="46.33001" lon="5.43739">
        <ele>359</ele>
        <time>2019-05-04T00:01:01Z</time>
      </trkpt>
      <trkpt lat="46.33021" lon="5.43735">
        <ele>359</ele>
        <time>2019-05-04T00:02:01Z</time>
      </trkpt>
      <trkpt lat="46.33036" lon="5.43733">
        <ele>359</ele>
        <time>2019-05-04T00:03:01Z</time>
      </trkpt>
      <trkpt lat="46.33056" lon="5.43732">
        <ele>359</ele>
        <time>2019-05-04T00:04:01Z</time>
      </trkpt>
      <trkpt lat="46.33116" lon="5.43729">
        <ele>359</ele>
        <time>2019-05-04T00:05:01Z</time>
      </trkpt>
      <trkpt lat="46.33127" lon="5.43728">
        <ele>359</ele>
        <time>2019-05-04T00:06:01Z</time>
      </trkpt>
      <trkpt lat="46.33141" lon="5.43728">
        <ele>359</ele>
        <time>2019-05-04T00:07:01Z</time>
      </trkpt>
      <trkpt lat="46.33155" lon="5.43728">
        <ele>359</ele>
        <time>2019-05-04T00:08:01Z</time>
      </trkpt>
      <trkpt lat="46.33237" lon="5.43724">
        <ele>357</ele>
        <time>2019-05-04T00:09:01Z</time>
      </trkpt>
      <trkpt lat="46.33327" lon="5.43714">
        <ele>354</ele>
        <time>2019-05-04T00:10:01Z</time>
      </trkpt>
      <trkpt lat="46.3335" lon="5.43711">
        <ele>353</ele>
        <time>2019-05-04T00:11:01Z</time>
      </trkpt>
      <trkpt lat="46.33368" lon="5.43708">
        <ele>352</ele>
        <time>2019-05-04T00:12:01Z</time>
      </trkpt>
      <trkpt lat="46.33408" lon="5.43701">
        <ele>350</ele>
        <time>2019-05-04T00:13:01Z</time>
      </trkpt>
      <trkpt lat="46.33431" lon="5.43695">
        <ele>349</ele>
        <time>2019-05-04T00:14:01Z</time>
      </trkpt>
      <trkpt lat="46.33453" lon="5.43689">
        <ele>347</ele>
        <time>2019-05-04T00:15:01Z</time>
      </trkpt>
      <trkpt lat="46.33467" lon="5.43686">
        <ele>346</ele>
        <time>2019-05-04T00:16:01Z</time>
      </trkpt>
      <trkpt lat="46.33478" lon="5.43684">
        <ele>345</ele>
        <time>2019-05-04T00:17:01Z</time>
      </trkpt>
      <trkpt lat="46.33488" lon="5.43683">
        <ele>343</ele>
        <time>2019-05-04T00:18:01Z</time>
      </trkpt>
      <trkpt lat="46.33501" lon="5.43682">
        <ele>342</ele>
        <time>2019-05-04T00:19:01Z</time>
      </trkpt>
      <trkpt lat="46.33525" lon="5.4368">
        <ele>341</ele>
        <time>2019-05-04T00:20:01Z</time>
      </trkpt>
      <trkpt lat="46.33553" lon="5.43678">
        <ele>339</ele>
        <time>2019-05-04T00:21:01Z</time>
      </trkpt>
      <trkpt lat="46.33572" lon="5.43677">
        <ele>338</ele>
        <time>2019-05-04T00:22:01Z</time>
      </trkpt>
      <trkpt lat="46.33586" lon="5.43676">
        <ele>338</ele>
        <time>2019-05-04T00:23:01Z</time>
      </trkpt>
      <trkpt lat="46.33601" lon="5.43677">
        <ele>337</ele>
        <time>2019-05-04T00:24:01Z</time>
      </trkpt>
      <trkpt lat="46.33617" lon="5.43679">
        <ele>337</ele>
        <time>2019-05-04T00:25:01Z</time>
      </trkpt>
      <trkpt lat="46.33638" lon="5.43683">
        <ele>336</ele>
        <time>2019-05-04T00:26:01Z</time>
      </trkpt>
      <trkpt lat="46.33653" lon="5.43689">
        <ele>336</ele>
        <time>2019-05-04T00:27:01Z</time>
      </trkpt>
      <trkpt lat="46.33667" lon="5.43695">
        <ele>335</ele>
        <time>2019-05-04T00:28:01Z</time>
      </trkpt>
      <trkpt lat="46.33677" lon="5.43699">
        <ele>335</ele>
        <time>2019-05-04T00:29:01Z</time>
      </trkpt>
      <trkpt lat="46.33686" lon="5.43703">
        <ele>335</ele>
        <time>2019-05-04T00:30:01Z</time>
      </trkpt>
      <trkpt lat="46.33702" lon="5.43713">
        <ele>335</ele>
        <time>2019-05-04T00:31:01Z</time>
      </trkpt>
      <trkpt lat="46.3372" lon="5.43724">
        <ele>334</ele>
        <time>2019-05-04T00:32:01Z</time>
      </trkpt>
      <trkpt lat="46.33732" lon="5.43733">
        <ele>334</ele>
        <time>2019-05-04T00:33:01Z</time>
      </trkpt>
      <trkpt lat="46.33744" lon="5.43744">
        <ele>334</ele>
        <time>2019-05-04T00:34:01Z</time>
      </trkpt>
      <trkpt lat="46.33773" lon="5.43772">
        <ele>334</ele>
        <time>2019-05-04T00:35:01Z</time>
      </trkpt>
      <trkpt lat="46.33786" lon="5.43785">
        <ele>335</ele>
        <time>2019-05-04T00:36:01Z</time>
      </trkpt>
      <trkpt lat="46.33809" lon="5.43808">
        <ele>335</ele>
        <time>2019-05-04T00:37:01Z</time>
      </trkpt>
      <trkpt lat="46.33837" lon="5.43836">
        <ele>336</ele>
        <time>2019-05-04T00:38:01Z</time>
      </trkpt>
      <trkpt lat="46.33847" lon="5.43847">
        <ele>336</ele>
        <time>2019-05-04T00:39:01Z</time>
      </trkpt>
      <trkpt lat="46.33858" lon="5.43858">
        <ele>336</ele>
        <time>2019-05-04T00:40:01Z</time>
      </trkpt>
      <trkpt lat="46.33876" lon="5.43876">
        <ele>336</ele>
        <time>2019-05-04T00:41:01Z</time>
      </trkpt>
      <trkpt lat="46.33886" lon="5.43885">
        <ele>336</ele>
        <time>2019-05-04T00:42:01Z</time>
      </trkpt>
      <trkpt lat="46.33896" lon="5.43894">
        <ele>336</ele>
        <time>2019-05-04T00:43:01Z</time>
      </trkpt>
      <trkpt lat="46.33911" lon="5.43908">
        <ele>337</ele>
        <time>2019-05-04T00:44:01Z</time>
      </trkpt>
      <trkpt lat="46.33922" lon="5.43916">
        <ele>337</ele>
        <time>2019-05-04T00:45:01Z</time>
      </trkpt>
      <trkpt lat="46.3393" lon="5.43922">
        <ele>337</ele>
        <time>2019-05-04T00:46:01Z</time>
      </trkpt>
      <trkpt lat="46.3394" lon="5.43926">
        <ele>337</ele>
        <time>2019-05-04T00:47:01Z</time>
      </trkpt>
      <trkpt lat="46.33951" lon="5.43929">
        <ele>337</ele>
        <time>2019-05-04T00:48:01Z</time>
      </trkpt>
      <trkpt lat="46.3396" lon="5.4393">
        <ele>337</ele>
        <time>2019-05-04T00:49:01Z</time>
      </trkpt>
      <trkpt lat="46.33971" lon="5.4393">
        <ele>337</ele>
        <time>2019-05-04T00:50:01Z</time>
      </trkpt>
      <trkpt lat="46.33981" lon="5.4393">
        <ele>337</ele>
        <time>2019-05-04T00:51:01Z</time>
      </trkpt>
      <trkpt lat="46.33996" lon="5.4393">
        <ele>337</ele>
        <time>2019-05-04T00:52:01Z</time>
      </trkpt>
      <trkpt lat="46.34007" lon="5.43929">
        <ele>338</ele>
        <time>2019-05-04T00:53:01Z</time>
      </trkpt>
      <trkpt lat="46.34022" lon="5.43927">
        <ele>338</ele>
        <time>2019-05-04T00:54:01Z</time>
      </trkpt>
      <trkpt lat="46.34055" lon="5.43924">
        <ele>338</ele>
        <time>2019-05-04T00:55:01Z</time>
      </trkpt>
      <trkpt lat="46.34115" lon="5.43917">
        <ele>339</ele>
        <time>2019-05-04T00:56:01Z</time>
      </trkpt>
      <trkpt lat="46.34209" lon="5.43906">
        <ele>340</ele>
        <time>2019-05-04T00:57:01Z</time>
      </trkpt>
      <trkpt lat="46.3423" lon="5.43903">
        <ele>341</ele>
        <time>2019-05-04T00:58:01Z</time>
      </trkpt>
      <trkpt lat="46.34256" lon="5.43899">
        <ele>341</ele>
        <time>2019-05-04T00:59:01Z</time>
      </trkpt>
      <trkpt lat="46.34283" lon="5.43893">
        <ele>342</ele>
        <time>2019-05-04T01:00:01Z</time>
      </trkpt>
      <trkpt lat="46.34312" lon="5.43884">
        <ele>342</ele>
        <time>2019-05-04T01:01:01Z</time>
      </trkpt>
      <trkpt lat="46.34338" lon="5.43873">
        <ele>342</ele>
        <time>2019-05-04T01:02:01Z</time>
      </trkpt>
      <trkpt lat="46.34361" lon="5.43863">
        <ele>342</ele>
        <time>2019-05-04T01:03:01Z</time>
      </trkpt>
      <trkpt lat="46.34384" lon="5.43851">
        <ele>343</ele>
        <time>2019-05-04T01:04:01Z</time>
      </trkpt>
      <trkpt lat="46.34397" lon="5.43843">
        <ele>343</ele>
        <time>2019-05-04T01:05:01Z</time>
      </trkpt>
      <trkpt lat="46.34418" lon="5.4383">
        <ele>343</ele>
        <time>2019-05-04T01:06:01Z</time>
      </trkpt>
      <trkpt lat="46.3444" lon="5.43817">
        <ele>344</ele>
        <time>2019-05-04T01:07:01Z</time>
      </trkpt>
      <trkpt lat="46.34458" lon="5.43805">
        <ele>344</ele>
        <time>2019-05-04T01:08:01Z</time>
      </trkpt>
      <trkpt lat="46.34482" lon="5.43791">
        <ele>344</ele>
        <time>2019-05-04T01:09:01Z</time>
      </trkpt>
      <trkpt lat="46.34509" lon="5.4378">
        <ele>344</ele>
        <time>2019-05-04T01:10:01Z</time>
      </trkpt>
      <trkpt lat="46.34615" lon="5.43738">
        <ele>343</ele>
        <time>2019-05-04T01:11:01Z</time>
      </trkpt>
      <trkpt lat="46.34641" lon="5.4373">
        <ele>343</ele>
        <time>2019-05-04T01:12:01Z</time>
      </trkpt>
      <trkpt lat="46.34665" lon="5.43726">
        <ele>343</ele>
        <time>2019-05-04T01:13:01Z</time>
      </trkpt>
      <trkpt lat="46.3469" lon="5.43726">
        <ele>342</ele>
        <time>2019-05-04T01:14:01Z</time>
      </trkpt>
      <trkpt lat="46.34716" lon="5.43732">
        <ele>342</ele>
        <time>2019-05-04T01:15:01Z</time>
      </trkpt>
      <trkpt lat="46.34738" lon="5.43739">
        <ele>342</ele>
        <time>2019-05-04T01:16:01Z</time>
      </trkpt>
      <trkpt lat="46.34745" lon="5.43742">
        <ele>342</ele>
        <time>2019-05-04T01:17:01Z</time>
      </trkpt>
      <trkpt lat="46.3476" lon="5.43749">
        <ele>342</ele>
        <time>2019-05-04T01:18:01Z</time>
      </trkpt>
      <trkpt lat="46.34789" lon="5.43761">
        <ele>343</ele>
        <time>2019-05-04T01:19:01Z</time>
      </trkpt>
      <trkpt lat="46.34796" lon="5.43765">
        <ele>343</ele>
        <time>2019-05-04T01:20:01Z</time>
      </trkpt>
      <trkpt lat="46.34808" lon="5.43773">
        <ele>344</ele>
        <time>2019-05-04T01:21:01Z</time>
      </trkpt>
      <trkpt lat="46.34828" lon="5.43786">
        <ele>346</ele>
        <time>2019-05-04T01:22:01Z</time>
      </trkpt>
      <trkpt lat="46.34861" lon="5.43806">
        <ele>348</ele>
        <time>2019-05-04T01:23:01Z</time>
      </trkpt>
      <trkpt lat="46.34888" lon="5.4382">
        <ele>348</ele>
        <time>2019-05-04T01:24:01Z</time>
      </trkpt>
      <trkpt lat="46.34912" lon="5.43825">
        <ele>348</ele>
        <time>2019-05-04T01:25:01Z</time>
      </trkpt>
      <trkpt lat="46.34946" lon="5.43831">
        <ele>348</ele>
        <time>2019-05-04T01:26:01Z</time>
      </trkpt>
      <trkpt lat="46.3499" lon="5.43834">
        <ele>348</ele>
        <time>2019-05-04T01:27:01Z</time>
      </trkpt>
      <trkpt lat="46.35028" lon="5.43836">
        <ele>349</ele>
        <time>2019-05-04T01:28:01Z</time>
      </trkpt>
      <trkpt lat="46.35066" lon="5.43835">
        <ele>350</ele>
        <time>2019-05-04T01:29:01Z</time>
      </trkpt>
      <trkpt lat="46.35082" lon="5.43832">
        <ele>350</ele>
        <time>2019-05-04T01:30:01Z</time>
      </trkpt>
      <trkpt lat="46.35094" lon="5.43828">
        <ele>350</ele>
        <time>2019-05-04T01:31:01Z</time>
      </trkpt>
      <trkpt lat="46.35107" lon="5.4382">
        <ele>351</ele>
        <time>2019-05-04T01:32:01Z</time>
      </trkpt>
      <trkpt lat="46.35118" lon="5.43811">
        <ele>350</ele>
        <time>2019-05-04T01:33:01Z</time>
      </trkpt>
      <trkpt lat="46.35132" lon="5.43794">
        <ele>349</ele>
        <time>2019-05-04T01:34:01Z</time>
      </trkpt>
      <trkpt lat="46.35155" lon="5.43769">
        <ele>347</ele>
        <time>2019-05-04T01:35:01Z</time>
      </trkpt>
      <trkpt lat="46.35167" lon="5.43754">
        <ele>345</ele>
        <time>2019-05-04T01:36:01Z</time>
      </trkpt>
      <trkpt lat="46.35176" lon="5.4374">
        <ele>345</ele>
        <time>2019-05-04T01:37:01Z</time>
      </trkpt>
      <trkpt lat="46.3519" lon="5.43723">
        <ele>345</ele>
        <time>2019-05-04T01:38:01Z</time>
      </trkpt>
      <trkpt lat="46.35208" lon="5.43707">
        <ele>346</ele>
        <time>2019-05-04T01:39:01Z</time>
      </trkpt>
      <trkpt lat="46.35224" lon="5.43695">
        <ele>347</ele>
        <time>2019-05-04T01:40:01Z</time>
      </trkpt>
      <trkpt lat="46.35243" lon="5.43684">
        <ele>348</ele>
        <time>2019-05-04T01:41:01Z</time>
      </trkpt>
      <trkpt lat="46.35261" lon="5.43676">
        <ele>348</ele>
        <time>2019-05-04T01:42:01Z</time>
      </trkpt>
      <trkpt lat="46.35281" lon="5.43669">
        <ele>349</ele>
        <time>2019-05-04T01:43:01Z</time>
      </trkpt>
      <trkpt lat="46.35296" lon="5.43666">
        <ele>350</ele>
        <time>2019-05-04T01:44:01Z</time>
      </trkpt>
      <trkpt lat="46.35313" lon="5.43664">
        <ele>351</ele>
        <time>2019-05-04T01:45:01Z</time>
      </trkpt>
      <trkpt lat="46.35337" lon="5.43661">
        <ele>353</ele>
        <time>2019-05-04T01:46:01Z</time>
      </trkpt>
      <trkpt lat="46.35366" lon="5.43658">
        <ele>354</ele>
        <time>2019-05-04T01:47:01Z</time>
      </trkpt>
      <trkpt lat="46.35388" lon="5.43655">
        <ele>354</ele>
        <time>2019-05-04T01:48:01Z</time>
      </trkpt>
      <trkpt lat="46.35414" lon="5.43651">
        <ele>355</ele>
        <time>2019-05-04T01:49:01Z</time>
      </trkpt>
      <trkpt lat="46.35448" lon="5.43647">
        <ele>357</ele>
        <time>2019-05-04T01:50:01Z</time>
      </trkpt>
      <trkpt lat="46.35472" lon="5.43644">
        <ele>359</ele>
        <time>2019-05-04T01:51:01Z</time>
      </trkpt>
      <trkpt lat="46.35508" lon="5.4364">
        <ele>361</ele>
        <time>2019-05-04T01:52:01Z</time>
      </trkpt>
      <trkpt lat="46.35568" lon="5.43633">
        <ele>363</ele>
        <time>2019-05-04T01:53:01Z</time>
      </trkpt>
      <trkpt lat="46.35593" lon="5.4363">
        <ele>363</ele>
        <time>2019-05-04T01:54:01Z</time>
      </trkpt>
      <trkpt lat="46.35629" lon="5.43625">
        <ele>363</ele>
        <time>2019-05-04T01:55:01Z</time>
      </trkpt>
      <trkpt lat="46.35669" lon="5.43619">
        <ele>362</ele>
        <time>2019-05-04T01:56:01Z</time>
      </trkpt>
      <trkpt lat="46.35696" lon="5.43615">
        <ele>361</ele>
        <time>2019-05-04T01:57:01Z</time>
      </trkpt>
      <trkpt lat="46.35721" lon="5.43611">
        <ele>360</ele>
        <time>2019-05-04T01:58:01Z</time>
      </trkpt>
      <trkpt lat="46.35739" lon="5.43608">
        <ele>359</ele>
        <time>2019-05-04T01:59:01Z</time>
      </trkpt>
      <trkpt lat="46.35771" lon="5.43601">
        <ele>358</ele>
        <time>2019-05-04T02:00:01Z</time>
      </trkpt>
      <trkpt lat="46.35803" lon="5.43594">
        <ele>358</ele>
        <time>2019-05-04T02:01:01Z</time>
      </trkpt>
      <trkpt lat="46.35837" lon="5.43586">
        <ele>358</ele>
        <time>2019-05-04T02:02:01Z</time>
      </trkpt>
      <trkpt lat="46.35869" lon="5.43579">
        <ele>358</ele>
        <time>2019-05-04T02:03:01Z</time>
      </trkpt>
      <trkpt lat="46.35891" lon="5.43574">
        <ele>358</ele>
        <time>2019-05-04T02:04:01Z</time>
      </trkpt>
      <trkpt lat="46.35914" lon="5.43569">
        <ele>358</ele>
        <time>2019-05-04T02:05:01Z</time>
      </trkpt>
      <trkpt lat="46.35938" lon="5.43566">
        <ele>357</ele>
        <time>2019-05-04T02:06:01Z</time>
      </trkpt>
      <trkpt lat="46.35955" lon="5.43564">
        <ele>357</ele>
        <time>2019-05-04T02:07:01Z</time>
      </trkpt>
      <trkpt lat="46.35973" lon="5.43563">
        <ele>357</ele>
        <time>2019-05-04T02:08:01Z</time>
      </trkpt>
      <trkpt lat="46.35996" lon="5.43562">
        <ele>357</ele>
        <time>2019-05-04T02:09:01Z</time>
      </trkpt>
      <trkpt lat="46.36018" lon="5.43562">
        <ele>356</ele>
        <time>2019-05-04T02:10:01Z</time>
      </trkpt>
      <trkpt lat="46.36046" lon="5.43564">
        <ele>355</ele>
        <time>2019-05-04T02:11:01Z</time>
      </trkpt>
      <trkpt lat="46.36085" lon="5.43566">
        <ele>353</ele>
        <time>2019-05-04T02:12:01Z</time>
      </trkpt>
      <trkpt lat="46.36098" lon="5.43567">
        <ele>353</ele>
        <time>2019-05-04T02:13:01Z</time>
      </trkpt>
      <trkpt lat="46.36139" lon="5.43571">
        <ele>353</ele>
        <time>2019-05-04T02:14:01Z</time>
      </trkpt>
      <trkpt lat="46.36178" lon="5.43573">
        <ele>353</ele>
        <time>2019-05-04T02:15:01Z</time>
      </trkpt>
      <trkpt lat="46.36205" lon="5.43575">
        <ele>353</ele>
        <time>2019-05-04T02:16:01Z</time>
      </trkpt>
      <trkpt lat="46.36228" lon="5.43577">
        <ele>353</ele>
        <time>2019-05-04T02:17:01Z</time>
      </trkpt>
      <trkpt lat="46.36252" lon="5.43581">
        <ele>353</ele>
        <time>2019-05-04T02:18:01Z</time>
      </trkpt>
      <trkpt lat="46.36271" lon="5.43586">
        <ele>352</ele>
        <time>2019-05-04T02:19:01Z</time>
      </trkpt>
      <trkpt lat="46.36292" lon="5.4359">
        <ele>350</ele>
        <time>2019-05-04T02:20:01Z</time>
      </trkpt>
      <trkpt lat="46.36303" lon="5.43593">
        <ele>350</ele>
        <time>2019-05-04T02:21:01Z</time>
      </trkpt>
      <trkpt lat="46.36324" lon="5.43599">
        <ele>349</ele>
        <time>2019-05-04T02:22:01Z</time>
      </trkpt>
      <trkpt lat="46.36354" lon="5.43604">
        <ele>349</ele>
        <time>2019-05-04T02:23:01Z</time>
      </trkpt>
      <trkpt lat="46.36383" lon="5.43607">
        <ele>349</ele>
        <time>2019-05-04T02:24:01Z</time>
      </trkpt>
      <trkpt lat="46.36405" lon="5.4361">
        <ele>349</ele>
        <time>2019-05-04T02:25:01Z</time>
      </trkpt>
      <trkpt lat="46.36426" lon="5.43611">
        <ele>350</ele>
        <time>2019-05-04T02:26:01Z</time>
      </trkpt>
      <trkpt lat="46.36446" lon="5.43612">
        <ele>351</ele>
        <time>2019-05-04T02:27:01Z</time>
      </trkpt>
      <trkpt lat="46.36456" lon="5.43611">
        <ele>351</ele>
        <time>2019-05-04T02:28:01Z</time>
      </trkpt>
      <trkpt lat="46.36462" lon="5.4361">
        <ele>351</ele>
        <time>2019-05-04T02:29:01Z</time>
      </trkpt>
      <trkpt lat="46.36512" lon="5.43603">
        <ele>351</ele>
        <time>2019-05-04T02:30:01Z</time>
      </trkpt>
      <trkpt lat="46.36553" lon="5.43597">
        <ele>350</ele>
        <time>2019-05-04T02:31:01Z</time>
      </trkpt>
      <trkpt lat="46.36594" lon="5.43593">
        <ele>351</ele>
        <time>2019-05-04T02:32:01Z</time>
      </trkpt>
      <trkpt lat="46.36666" lon="5.43583">
        <ele>354</ele>
        <time>2019-05-04T02:33:01Z</time>
      </trkpt>
      <trkpt lat="46.36693" lon="5.43578">
        <ele>354</ele>
        <time>2019-05-04T02:34:01Z</time>
      </trkpt>
      <trkpt lat="46.36717" lon="5.43574">
        <ele>354</ele>
        <time>2019-05-04T02:35:01Z</time>
      </trkpt>
      <trkpt lat="46.36744" lon="5.4357">
        <ele>354</ele>
        <time>2019-05-04T02:36:01Z</time>
      </trkpt>
      <trkpt lat="46.3677" lon="5.43568">
        <ele>353</ele>
        <time>2019-05-04T02:37:01Z</time>
      </trkpt>
      <trkpt lat="46.36792" lon="5.43567">
        <ele>353</ele>
        <time>2019-05-04T02:38:01Z</time>
      </trkpt>
      <trkpt lat="46.36822" lon="5.43567">
        <ele>352</ele>
        <time>2019-05-04T02:39:01Z</time>
      </trkpt>
      <trkpt lat="46.3685" lon="5.43568">
        <ele>352</ele>
        <time>2019-05-04T02:40:01Z</time>
      </trkpt>
      <trkpt lat="46.36885" lon="5.4357">
        <ele>353</ele>
        <time>2019-05-04T02:41:01Z</time>
      </trkpt>
      <trkpt lat="46.36926" lon="5.43572">
        <ele>354</ele>
        <time>2019-05-04T02:42:01Z</time>
      </trkpt>
      <trkpt lat="46.36948" lon="5.43572">
        <ele>355</ele>
        <time>2019-05-04T02:43:01Z</time>
      </trkpt>
      <trkpt lat="46.36965" lon="5.43573">
        <ele>356</ele>
        <time>2019-05-04T02:44:01Z</time>
      </trkpt>
      <trkpt lat="46.36985" lon="5.43576">
        <ele>357</ele>
        <time>2019-05-04T02:45:01Z</time>
      </trkpt>
      <trkpt lat="46.37001" lon="5.43579">
        <ele>357</ele>
        <time>2019-05-04T02:46:01Z</time>
      </trkpt>
      <trkpt lat="46.37021" lon="5.43585">
        <ele>357</ele>
        <time>2019-05-04T02:47:01Z</time>
      </trkpt>
      <trkpt lat="46.37039" lon="5.43591">
        <ele>357</ele>
        <time>2019-05-04T02:48:01Z</time>
      </trkpt>
      <trkpt lat="46.3706" lon="5.436">
        <ele>358</ele>
        <time>2019-05-04T02:49:01Z</time>
      </trkpt>
      <trkpt lat="46.37086" lon="5.43612">
        <ele>359</ele>
        <time>2019-05-04T02:50:01Z</time>
      </trkpt>
      <trkpt lat="46.37131" lon="5.43634">
        <ele>361</ele>
        <time>2019-05-04T02:51:01Z</time>
      </trkpt>
      <trkpt lat="46.37166" lon="5.43648">
        <ele>361</ele>
        <time>2019-05-04T02:52:01Z</time>
      </trkpt>
      <trkpt lat="46.37196" lon="5.43661">
        <ele>362</ele>
        <time>2019-05-04T02:53:01Z</time>
      </trkpt>
      <trkpt lat="46.37222" lon="5.43674">
        <ele>362</ele>
        <time>2019-05-04T02:54:01Z</time>
      </trkpt>
      <trkpt lat="46.3724" lon="5.43682">
        <ele>362</ele>
        <time>2019-05-04T02:55:01Z</time>
      </trkpt>
      <trkpt lat="46.37255" lon="5.43691">
        <ele>361</ele>
        <time>2019-05-04T02:56:01Z</time>
      </trkpt>
      <trkpt lat="46.37273" lon="5.43704">
        <ele>361</ele>
        <time>2019-05-04T02:57:01Z</time>
      </trkpt>
      <trkpt lat="46.37295" lon="5.43723">
        <ele>362</ele>
        <time>2019-05-04T02:58:01Z</time>
      </trkpt>
      <trkpt lat="46.37325" lon="5.43745">
        <ele>361</ele>
        <time>2019-05-04T02:59:01Z</time>
      </trkpt>
      <trkpt lat="46.37356" lon="5.43767">
        <ele>360</ele>
        <time>2019-05-04T03:00:01Z</time>
      </trkpt>
      <trkpt lat="46.37377" lon="5.43783">
        <ele>359</ele>
        <time>2019-05-04T03:01:01Z</time>
      </trkpt>
      <trkpt lat="46.37393" lon="5.43797">
        <ele>358</ele>
        <time>2019-05-04T03:02:01Z</time>
      </trkpt>
      <trkpt lat="46.37415" lon="5.43819">
        <ele>357</ele>
        <time>2019-05-04T03:03:01Z</time>
      </trkpt>
      <trkpt lat="46.37432" lon="5.43835">
        <ele>356</ele>
        <time>2019-05-04T03:04:01Z</time>
      </trkpt>
      <trkpt lat="46.3744" lon="5.43842">
        <ele>356</ele>
        <time>2019-05-04T03:05:01Z</time>
      </trkpt>
      <trkpt lat="46.37456" lon="5.43855">
        <ele>355</ele>
        <time>2019-05-04T03:06:01Z</time>
      </trkpt>
      <trkpt lat="46.37466" lon="5.43863">
        <ele>355</ele>
        <time>2019-05-04T03:07:01Z</time>
      </trkpt>
      <trkpt lat="46.37476" lon="5.4387">
        <ele>355</ele>
        <time>2019-05-04T03:08:01Z</time>
      </trkpt>
      <trkpt lat="46.37489" lon="5.43876">
        <ele>355</ele>
        <time>2019-05-04T03:09:01Z</time>
      </trkpt>
      <trkpt lat="46.37502" lon="5.43882">
        <ele>355</ele>
        <time>2019-05-04T03:10:01Z</time>
      </trkpt>
      <trkpt lat="46.37519" lon="5.4389">
        <ele>355</ele>
        <time>2019-05-04T03:11:01Z</time>
      </trkpt>
      <trkpt lat="46.37536" lon="5.43897">
        <ele>355</ele>
        <time>2019-05-04T03:12:01Z</time>
      </trkpt>
      <trkpt lat="46.3755" lon="5.43902">
        <ele>355</ele>
        <time>2019-05-04T03:13:01Z</time>
      </trkpt>
      <trkpt lat="46.37576" lon="5.43914">
        <ele>355</ele>
        <time>2019-05-04T03:14:01Z</time>
      </trkpt>
      <trkpt lat="46.37602" lon="5.43926">
        <ele>355</ele>
        <time>2019-05-04T03:15:01Z</time>
      </trkpt>
      <trkpt lat="46.37639" lon="5.43946">
        <ele>353</ele>
        <time>2019-05-04T03:16:01Z</time>
      </trkpt>
      <trkpt lat="46.37665" lon="5.4396">
        <ele>352</ele>
        <time>2019-05-04T03:17:01Z</time>
      </trkpt>
      <trkpt lat="46.3769" lon="5.43973">
        <ele>352</ele>
        <time>2019-05-04T03:18:01Z</time>
      </trkpt>
      <trkpt lat="46.37728" lon="5.43995">
        <ele>351</ele>
        <time>2019-05-04T03:19:01Z</time>
      </trkpt>
      <trkpt lat="46.37761" lon="5.44014">
        <ele>351</ele>
        <time>2019-05-04T03:20:01Z</time>
      </trkpt>
      <trkpt lat="46.37782" lon="5.44028">
        <ele>351</ele>
        <time>2019-05-04T03:21:01Z</time>
      </trkpt>
      <trkpt lat="46.37823" lon="5.44058">
        <ele>351</ele>
        <time>2019-05-04T03:22:01Z</time>
      </trkpt>
      <trkpt lat="46.37845" lon="5.44076">
        <ele>350</ele>
        <time>2019-05-04T03:23:01Z</time>
      </trkpt>
      <trkpt lat="46.37875" lon="5.44101">
        <ele>351</ele>
        <time>2019-05-04T03:24:01Z</time>
      </trkpt>
      <trkpt lat="46.379" lon="5.44121">
        <ele>352</ele>
        <time>2019-05-04T03:25:01Z</time>
      </trkpt>
      <trkpt lat="46.37928" lon="5.44146">
        <ele>352</ele>
        <time>2019-05-04T03:26:01Z</time>
      </trkpt>
      <trkpt lat="46.37962" lon="5.44176">
        <ele>351</ele>
        <time>2019-05-04T03:27:01Z</time>
      </trkpt>
      <trkpt lat="46.38005" lon="5.44214">
        <ele>350</ele>
        <time>2019-05-04T03:28:01Z</time>
      </trkpt>
      <trkpt lat="46.3802" lon="5.44228">
        <ele>350</ele>
        <time>2019-05-04T03:29:01Z</time>
      </trkpt>
      <trkpt lat="46.38039" lon="5.44246">
        <ele>350</ele>
        <time>2019-05-04T03:30:01Z</time>
      </trkpt>
      <trkpt lat="46.38068" lon="5.44273">
        <ele>350</ele>
        <time>2019-05-04T03:31:01Z</time>
      </trkpt>
      <trkpt lat="46.38097" lon="5.44298">
        <ele>350</ele>
        <time>2019-05-04T03:32:01Z</time>
      </trkpt>
      <trkpt lat="46.38119" lon="5.44319">
        <ele>350</ele>
        <time>2019-05-04T03:33:01Z</time>
      </trkpt>
      <trkpt lat="46.38131" lon="5.44329">
        <ele>350</ele>
        <time>2019-05-04T03:34:01Z</time>
      </trkpt>
      <trkpt lat="46.38162" lon="5.44357">
        <ele>352</ele>
        <time>2019-05-04T03:35:01Z</time>
      </trkpt>
      <trkpt lat="46.38192" lon="5.44383">
        <ele>353</ele>
        <time>2019-05-04T03:36:01Z</time>
      </trkpt>
      <trkpt lat="46.38214" lon="5.44403">
        <ele>354</ele>
        <time>2019-05-04T03:37:01Z</time>
      </trkpt>
      <trkpt lat="46.38243" lon="5.4443">
        <ele>355</ele>
        <time>2019-05-04T03:38:01Z</time>
      </trkpt>
      <trkpt lat="46.38274" lon="5.44459">
        <ele>355</ele>
        <time>2019-05-04T03:39:01Z</time>
      </trkpt>
      <trkpt lat="46.38302" lon="5.44486">
        <ele>354</ele>
        <time>2019-05-04T03:40:01Z</time>
      </trkpt>
      <trkpt lat="46.38333" lon="5.44514">
        <ele>352</ele>
        <time>2019-05-04T03:41:01Z</time>
      </trkpt>
      <trkpt lat="46.3836" lon="5.4454">
        <ele>352</ele>
        <time>2019-05-04T03:42:01Z</time>
      </trkpt>
      <trkpt lat="46.38375" lon="5.44553">
        <ele>352</ele>
        <time>2019-05-04T03:43:01Z</time>
      </trkpt>
      <trkpt lat="46.3839" lon="5.44567">
        <ele>352</ele>
        <time>2019-05-04T03:44:01Z</time>
      </trkpt>
      <trkpt lat="46.38409" lon="5.44586">
        <ele>352</ele>
        <time>2019-05-04T03:45:01Z</time>
      </trkpt>
      <trkpt lat="46.3841" lon="5.44587">
        <ele>352</ele>
        <time>2019-05-04T03:46:01Z</time>
      </trkpt>
      <trkpt lat="46.3842" lon="5.44595">
        <ele>353</ele>
        <time>2019-05-04T03:47:01Z</time>
      </trkpt>
      <trkpt lat="46.38426" lon="5.44602">
        <ele>353</ele>
        <time>2019-05-04T03:48:01Z</time>
      </trkpt>
      <trkpt lat="46.38444" lon="5.44619">
        <ele>354</ele>
        <time>2019-05-04T03:49:01Z</time>
      </trkpt>
      <trkpt lat="46.38497" lon="5.44667">
        <ele>354</ele>
        <time>2019-05-04T03:50:01Z</time>
      </trkpt>
      <trkpt lat="46.3851" lon="5.44679">
        <ele>354</ele>
        <time>2019-05-04T03:51:01Z</time>
      </trkpt>
      <trkpt lat="46.38521" lon="5.44692">
        <ele>354</ele>
        <time>2019-05-04T03:52:01Z</time>
      </trkpt>
      <trkpt lat="46.38551" lon="5.44729">
        <ele>354</ele>
        <time>2019-05-04T03:53:01Z</time>
      </trkpt>
      <trkpt lat="46.38586" lon="5.44777">
        <ele>354</ele>
        <time>2019-05-04T03:54:01Z</time>
      </trkpt>
      <trkpt lat="46.38604" lon="5.448">
        <ele>355</ele>
        <time>2019-05-04T03:55:01Z</time>
      </trkpt>
      <trkpt lat="46.3862" lon="5.44821">
        <ele>356</ele>
        <time>2019-05-04T03:56:01Z</time>
      </trkpt>
      <trkpt lat="46.38646" lon="5.44855">
        <ele>356</ele>
        <time>2019-05-04T03:57:01Z</time>
      </trkpt>
      <trkpt lat="46.38664" lon="5.44878">
        <ele>356</ele>
        <time>2019-05-04T03:58:01Z</time>
      </trkpt>
      <trkpt lat="46.38683" lon="5.44904">
        <ele>356</ele>
        <time>2019-05-04T03:59:01Z</time>
      </trkpt>
      <trkpt lat="46.38708" lon="5.44935">
        <ele>356</ele>
        <time>2019-05-04T04:00:01Z</time>
      </trkpt>
      <trkpt lat="46.38736" lon="5.4497">
        <ele>355</ele>
        <time>2019-05-04T04:01:01Z</time>
      </trkpt>
      <trkpt lat="46.38761" lon="5.45005">
        <ele>355</ele>
        <time>2019-05-04T04:02:01Z</time>
      </trkpt>
      <trkpt lat="46.38788" lon="5.45039">
        <ele>357</ele>
        <time>2019-05-04T04:03:01Z</time>
      </trkpt>
      <trkpt lat="46.38816" lon="5.45075">
        <ele>358</ele>
        <time>2019-05-04T04:04:01Z</time>
      </trkpt>
      <trkpt lat="46.38838" lon="5.45102">
        <ele>360</ele>
        <time>2019-05-04T04:05:01Z</time>
      </trkpt>
      <trkpt lat="46.3886" lon="5.4513">
        <ele>364</ele>
        <time>2019-05-04T04:06:01Z</time>
      </trkpt>
      <trkpt lat="46.38872" lon="5.45142">
        <ele>365</ele>
        <time>2019-05-04T04:07:01Z</time>
      </trkpt>
      <trkpt lat="46.389" lon="5.45166">
        <ele>367</ele>
        <time>2019-05-04T04:08:01Z</time>
      </trkpt>
      <trkpt lat="46.38924" lon="5.45183">
        <ele>370</ele>
        <time>2019-05-04T04:09:01Z</time>
      </trkpt>
      <trkpt lat="46.38946" lon="5.45194">
        <ele>372</ele>
        <time>2019-05-04T04:10:01Z</time>
      </trkpt>
      <trkpt lat="46.38964" lon="5.45202">
        <ele>374</ele>
        <time>2019-05-04T04:11:01Z</time>
      </trkpt>
      <trkpt lat="46.38983" lon="5.4521">
        <ele>375</ele>
        <time>2019-05-04T04:12:01Z</time>
      </trkpt>
      <trkpt lat="46.39007" lon="5.45219">
        <ele>376</ele>
        <time>2019-05-04T04:13:01Z</time>
      </trkpt>
      <trkpt lat="46.39037" lon="5.45231">
        <ele>376</ele>
        <time>2019-05-04T04:14:01Z</time>
      </trkpt>
      <trkpt lat="46.39072" lon="5.45245">
        <ele>376</ele>
        <time>2019-05-04T04:15:01Z</time>
      </trkpt>
      <trkpt lat="46.39099" lon="5.45256">
        <ele>377</ele>
        <time>2019-05-04T04:16:01Z</time>
      </trkpt>
      <trkpt lat="46.39121" lon="5.45264">
        <ele>379</ele>
        <time>2019-05-04T04:17:01Z</time>
      </trkpt>
      <trkpt lat="46.39141" lon="5.45269">
        <ele>379</ele>
        <time>2019-05-04T04:18:01Z</time>
      </trkpt>
      <trkpt lat="46.39168" lon="5.45274">
        <ele>380</ele>
        <time>2019-05-04T04:19:01Z</time>
      </trkpt>
      <trkpt lat="46.39189" lon="5.45277">
        <ele>381</ele>
        <time>2019-05-04T04:20:01Z</time>
      </trkpt>
      <trkpt lat="46.3919" lon="5.45278">
        <ele>381</ele>
        <time>2019-05-04T04:21:01Z</time>
      </trkpt>
      <trkpt lat="46.39211" lon="5.45281">
        <ele>382</ele>
        <time>2019-05-04T04:22:01Z</time>
      </trkpt>
      <trkpt lat="46.39236" lon="5.45285">
        <ele>383</ele>
        <time>2019-05-04T04:23:01Z</time>
      </trkpt>
      <trkpt lat="46.3926" lon="5.45288">
        <ele>383</ele>
        <time>2019-05-04T04:24:01Z</time>
      </trkpt>
      <trkpt lat="46.39274" lon="5.45292">
        <ele>384</ele>
        <time>2019-05-04T04:25:01Z</time>
      </trkpt>
      <trkpt lat="46.39295" lon="5.45297">
        <ele>385</ele>
        <time>2019-05-04T04:26:01Z</time>
      </trkpt>
      <trkpt lat="46.39295" lon="5.45297">
        <ele>385</ele>
        <time>2019-05-04T04:27:01Z</time>
      </trkpt>
      <trkpt lat="46.39316" lon="5.45291">
        <ele>384</ele>
        <time>2019-05-04T04:28:01Z</time>
      </trkpt>
      <trkpt lat="46.39326" lon="5.45288">
        <ele>383</ele>
        <time>2019-05-04T04:29:01Z</time>
      </trkpt>
      <trkpt lat="46.3933" lon="5.45286">
        <ele>383</ele>
        <time>2019-05-04T04:30:01Z</time>
      </trkpt>
      <trkpt lat="46.39338" lon="5.45284">
        <ele>383</ele>
        <time>2019-05-04T04:31:01Z</time>
      </trkpt>
      <trkpt lat="46.3936" lon="5.45272">
        <ele>382</ele>
        <time>2019-05-04T04:32:01Z</time>
      </trkpt>
      <trkpt lat="46.39374" lon="5.45266">
        <ele>381</ele>
        <time>2019-05-04T04:33:01Z</time>
      </trkpt>
      <trkpt lat="46.39384" lon="5.45261">
        <ele>380</ele>
        <time>2019-05-04T04:34:01Z</time>
      </trkpt>
      <trkpt lat="46.39384" lon="5.45261">
        <ele>380</ele>
        <time>2019-05-04T04:35:01Z</time>
      </trkpt>
      <trkpt lat="46.39398" lon="5.45255">
        <ele>380</ele>
        <time>2019-05-04T04:36:01Z</time>
      </trkpt>
      <trkpt lat="46.39419" lon="5.45246">
        <ele>378</ele>
        <time>2019-05-04T04:37:01Z</time>
      </trkpt>
      <trkpt lat="46.39449" lon="5.45231">
        <ele>376</ele>
        <time>2019-05-04T04:38:01Z</time>
      </trkpt>
      <trkpt lat="46.39494" lon="5.45211">
        <ele>372</ele>
        <time>2019-05-04T04:39:01Z</time>
      </trkpt>
      <trkpt lat="46.39525" lon="5.45197">
        <ele>370</ele>
        <time>2019-05-04T04:40:01Z</time>
      </trkpt>
      <trkpt lat="46.39538" lon="5.45193">
        <ele>369</ele>
        <time>2019-05-04T04:41:01Z</time>
      </trkpt>
      <trkpt lat="46.3955" lon="5.45191">
        <ele>369</ele>
        <time>2019-05-04T04:42:01Z</time>
      </trkpt>
      <trkpt lat="46.39562" lon="5.4519">
        <ele>369</ele>
        <time>2019-05-04T04:43:01Z</time>
      </trkpt>
      <trkpt lat="46.39574" lon="5.45191">
        <ele>369</ele>
        <time>2019-05-04T04:44:01Z</time>
      </trkpt>
      <trkpt lat="46.39587" lon="5.45194">
        <ele>370</ele>
        <time>2019-05-04T04:45:01Z</time>
      </trkpt>
      <trkpt lat="46.39603" lon="5.45201">
        <ele>371</ele>
        <time>2019-05-04T04:46:01Z</time>
      </trkpt>
      <trkpt lat="46.39618" lon="5.45206">
        <ele>371</ele>
        <time>2019-05-04T04:47:01Z</time>
      </trkpt>
      <trkpt lat="46.39641" lon="5.45218">
        <ele>373</ele>
        <time>2019-05-04T04:48:01Z</time>
      </trkpt>
      <trkpt lat="46.39684" lon="5.45238">
        <ele>373</ele>
        <time>2019-05-04T04:49:01Z</time>
      </trkpt>
      <trkpt lat="46.39723" lon="5.45259">
        <ele>371</ele>
        <time>2019-05-04T04:50:01Z</time>
      </trkpt>
      <trkpt lat="46.39779" lon="5.45287">
        <ele>371</ele>
        <time>2019-05-04T04:51:01Z</time>
      </trkpt>
      <trkpt lat="46.39795" lon="5.45291">
        <ele>370</ele>
        <time>2019-05-04T04:52:01Z</time>
      </trkpt>
      <trkpt lat="46.39812" lon="5.45294">
        <ele>368</ele>
        <time>2019-05-04T04:53:01Z</time>
      </trkpt>
      <trkpt lat="46.39824" lon="5.45295">
        <ele>367</ele>
        <time>2019-05-04T04:54:01Z</time>
      </trkpt>
      <trkpt lat="46.39854" lon="5.45292">
        <ele>364</ele>
        <time>2019-05-04T04:55:01Z</time>
      </trkpt>
      <trkpt lat="46.39883" lon="5.45289">
        <ele>363</ele>
        <time>2019-05-04T04:56:01Z</time>
      </trkpt>
      <trkpt lat="46.39949" lon="5.45279">
        <ele>360</ele>
        <time>2019-05-04T04:57:01Z</time>
      </trkpt>
      <trkpt lat="46.39978" lon="5.45275">
        <ele>360</ele>
        <time>2019-05-04T04:58:01Z</time>
      </trkpt>
      <trkpt lat="46.39987" lon="5.45274">
        <ele>360</ele>
        <time>2019-05-04T04:59:01Z</time>
      </trkpt>
      <trkpt lat="46.40022" lon="5.45271">
        <ele>359</ele>
        <time>2019-05-04T05:00:01Z</time>
      </trkpt>
      <trkpt lat="46.40051" lon="5.45268">
        <ele>359</ele>
        <time>2019-05-04T05:01:01Z</time>
      </trkpt>
      <trkpt lat="46.40068" lon="5.45266">
        <ele>359</ele>
        <time>2019-05-04T05:02:01Z</time>
      </trkpt>
      <trkpt lat="46.40091" lon="5.45263">
        <ele>359</ele>
        <time>2019-05-04T05:03:01Z</time>
      </trkpt>
      <trkpt lat="46.40108" lon="5.45261">
        <ele>358</ele>
        <time>2019-05-04T05:04:01Z</time>
      </trkpt>
      <trkpt lat="46.40122" lon="5.45256">
        <ele>358</ele>
        <time>2019-05-04T05:05:01Z</time>
      </trkpt>
      <trkpt lat="46.40134" lon="5.4525">
        <ele>357</ele>
        <time>2019-05-04T05:06:01Z</time>
      </trkpt>
      <trkpt lat="46.40145" lon="5.45246">
        <ele>357</ele>
        <time>2019-05-04T05:07:01Z</time>
      </trkpt>
      <trkpt lat="46.40158" lon="5.45237">
        <ele>356</ele>
        <time>2019-05-04T05:08:01Z</time>
      </trkpt>
      <trkpt lat="46.40172" lon="5.45233">
        <ele>356</ele>
        <time>2019-05-04T05:09:01Z</time>
      </trkpt>
      <trkpt lat="46.40185" lon="5.45233">
        <ele>356</ele>
        <time>2019-05-04T05:10:01Z</time>
      </trkpt>
      <trkpt lat="46.402" lon="5.45232">
        <ele>356</ele>
        <time>2019-05-04T05:11:01Z</time>
      </trkpt>
      <trkpt lat="46.40226" lon="5.45221">
        <ele>356</ele>
        <time>2019-05-04T05:12:01Z</time>
      </trkpt>
      <trkpt lat="46.4023" lon="5.4522">
        <ele>356</ele>
        <time>2019-05-04T05:13:01Z</time>
      </trkpt>
      <trkpt lat="46.40234" lon="5.45218">
        <ele>356</ele>
        <time>2019-05-04T05:14:01Z</time>
      </trkpt>
      <trkpt lat="46.40253" lon="5.45207">
        <ele>355</ele>
        <time>2019-05-04T05:15:01Z</time>
      </trkpt>
      <trkpt lat="46.4026" lon="5.45203">
        <ele>355</ele>
        <time>2019-05-04T05:16:01Z</time>
      </trkpt>
      <trkpt lat="46.40271" lon="5.45198">
        <ele>355</ele>
        <time>2019-05-04T05:17:01Z</time>
      </trkpt>
      <trkpt lat="46.40274" lon="5.45196">
        <ele>355</ele>
        <time>2019-05-04T05:18:01Z</time>
      </trkpt>
      <trkpt lat="46.40282" lon="5.45192">
        <ele>355</ele>
        <time>2019-05-04T05:19:01Z</time>
      </trkpt>
      <trkpt lat="46.40296" lon="5.45185">
        <ele>355</ele>
        <time>2019-05-04T05:20:01Z</time>
      </trkpt>
      <trkpt lat="46.40304" lon="5.4518">
        <ele>355</ele>
        <time>2019-05-04T05:21:01Z</time>
      </trkpt>
      <trkpt lat="46.40313" lon="5.45176">
        <ele>355</ele>
        <time>2019-05-04T05:22:01Z</time>
      </trkpt>
      <trkpt lat="46.40324" lon="5.45169">
        <ele>355</ele>
        <time>2019-05-04T05:23:01Z</time>
      </trkpt>
      <trkpt lat="46.40344" lon="5.45159">
        <ele>355</ele>
        <time>2019-05-04T05:24:01Z</time>
      </trkpt>
      <trkpt lat="46.4036" lon="5.45152">
        <ele>356</ele>
        <time>2019-05-04T05:25:01Z</time>
      </trkpt>
      <trkpt lat="46.40378" lon="5.45142">
        <ele>356</ele>
        <time>2019-05-04T05:26:01Z</time>
      </trkpt>
      <trkpt lat="46.40398" lon="5.45132">
        <ele>357</ele>
        <time>2019-05-04T05:27:01Z</time>
      </trkpt>
      <trkpt lat="46.40429" lon="5.45116">
        <ele>358</ele>
        <time>2019-05-04T05:28:01Z</time>
      </trkpt>
      <trkpt lat="46.4045" lon="5.45104">
        <ele>358</ele>
        <time>2019-05-04T05:29:01Z</time>
      </trkpt>
      <trkpt lat="46.40492" lon="5.45082">
        <ele>359</ele>
        <time>2019-05-04T05:30:01Z</time>
      </trkpt>
      <trkpt lat="46.40537" lon="5.45058">
        <ele>358</ele>
        <time>2019-05-04T05:31:01Z</time>
      </trkpt>
      <trkpt lat="46.40567" lon="5.45043">
        <ele>358</ele>
        <time>2019-05-04T05:32:01Z</time>
      </trkpt>
      <trkpt lat="46.40605" lon="5.45022">
        <ele>358</ele>
        <time>2019-05-04T05:33:01Z</time>
      </trkpt>
      <trkpt lat="46.40632" lon="5.45008">
        <ele>359</ele>
        <time>2019-05-04T05:34:01Z</time>
      </trkpt>
      <trkpt lat="46.40649" lon="5.45001">
        <ele>360</ele>
        <time>2019-05-04T05:35:01Z</time>
      </trkpt>
      <trkpt lat="46.40667" lon="5.44995">
        <ele>360</ele>
        <time>2019-05-04T05:36:01Z</time>
      </trkpt>
      <trkpt lat="46.40682" lon="5.44993">
        <ele>361</ele>
        <time>2019-05-04T05:37:01Z</time>
      </trkpt>
      <trkpt lat="46.40697" lon="5.44993">
        <ele>361</ele>
        <time>2019-05-04T05:38:01Z</time>
      </trkpt>
      <trkpt lat="46.40714" lon="5.44994">
        <ele>361</ele>
        <time>2019-05-04T05:39:01Z</time>
      </trkpt>
      <trkpt lat="46.40726" lon="5.44997">
        <ele>361</ele>
        <time>2019-05-04T05:40:01Z</time>
      </trkpt>
      <trkpt lat="46.40738" lon="5.45001">
        <ele>361</ele>
        <time>2019-05-04T05:41:01Z</time>
      </trkpt>
      <trkpt lat="46.40765" lon="5.4501">
        <ele>361</ele>
        <time>2019-05-04T05:42:01Z</time>
      </trkpt>
      <trkpt lat="46.40786" lon="5.45018">
        <ele>361</ele>
        <time>2019-05-04T05:43:01Z</time>
      </trkpt>
      <trkpt lat="46.40811" lon="5.45029">
        <ele>362</ele>
        <time>2019-05-04T05:44:01Z</time>
      </trkpt>
      <trkpt lat="46.40832" lon="5.4504">
        <ele>362</ele>
        <time>2019-05-04T05:45:01Z</time>
      </trkpt>
      <trkpt lat="46.40858" lon="5.45059">
        <ele>362</ele>
        <time>2019-05-04T05:46:01Z</time>
      </trkpt>
      <trkpt lat="46.40875" lon="5.45072">
        <ele>362</ele>
        <time>2019-05-04T05:47:01Z</time>
      </trkpt>
      <trkpt lat="46.40895" lon="5.45088">
        <ele>362</ele>
        <time>2019-05-04T05:48:01Z</time>
      </trkpt>
      <trkpt lat="46.40914" lon="5.45104">
        <ele>362</ele>
        <time>2019-05-04T05:49:01Z</time>
      </trkpt>
      <trkpt lat="46.40932" lon="5.45118">
        <ele>362</ele>
        <time>2019-05-04T05:50:01Z</time>
      </trkpt>
      <trkpt lat="46.40949" lon="5.45131">
        <ele>362</ele>
        <time>2019-05-04T05:51:01Z</time>
      </trkpt>
      <trkpt lat="46.40964" lon="5.45142">
        <ele>363</ele>
        <time>2019-05-04T05:52:01Z</time>
      </trkpt>
      <trkpt lat="46.4098" lon="5.45151">
        <ele>363</ele>
        <time>2019-05-04T05:53:01Z</time>
      </trkpt>
      <trkpt lat="46.40997" lon="5.4516">
        <ele>364</ele>
        <time>2019-05-04T05:54:01Z</time>
      </trkpt>
      <trkpt lat="46.41012" lon="5.45168">
        <ele>365</ele>
        <time>2019-05-04T05:55:01Z</time>
      </trkpt>
      <trkpt lat="46.41028" lon="5.45173">
        <ele>366</ele>
        <time>2019-05-04T05:56:01Z</time>
      </trkpt>
      <trkpt lat="46.41046" lon="5.45179">
        <ele>367</ele>
        <time>2019-05-04T05:57:01Z</time>
      </trkpt>
      <trkpt lat="46.41064" lon="5.45184">
        <ele>367</ele>
        <time>2019-05-04T05:58:01Z</time>
      </trkpt>
      <trkpt lat="46.41083" lon="5.45189">
        <ele>368</ele>
        <time>2019-05-04T05:59:01Z</time>
      </trkpt>
      <trkpt lat="46.41108" lon="5.45194">
        <ele>368</ele>
        <time>2019-05-04T06:00:01Z</time>
      </trkpt>
      <trkpt lat="46.41136" lon="5.452">
        <ele>368</ele>
        <time>2019-05-04T06:01:01Z</time>
      </trkpt>
      <trkpt lat="46.41163" lon="5.45206">
        <ele>369</ele>
        <time>2019-05-04T06:02:01Z</time>
      </trkpt>
      <trkpt lat="46.41185" lon="5.45209">
        <ele>369</ele>
        <time>2019-05-04T06:03:01Z</time>
      </trkpt>
      <trkpt lat="46.41222" lon="5.45217">
        <ele>368</ele>
        <time>2019-05-04T06:04:01Z</time>
      </trkpt>
      <trkpt lat="46.41278" lon="5.45228">
        <ele>368</ele>
        <time>2019-05-04T06:05:01Z</time>
      </trkpt>
      <trkpt lat="46.41308" lon="5.45235">
        <ele>368</ele>
        <time>2019-05-04T06:06:01Z</time>
      </trkpt>
      <trkpt lat="46.41332" lon="5.45241">
        <ele>368</ele>
        <time>2019-05-04T06:07:01Z</time>
      </trkpt>
      <trkpt lat="46.41347" lon="5.45245">
        <ele>368</ele>
        <time>2019-05-04T06:08:01Z</time>
      </trkpt>
      <trkpt lat="46.41371" lon="5.4525">
        <ele>369</ele>
        <time>2019-05-04T06:09:01Z</time>
      </trkpt>
      <trkpt lat="46.41411" lon="5.4526">
        <ele>371</ele>
        <time>2019-05-04T06:10:01Z</time>
      </trkpt>
      <trkpt lat="46.41444" lon="5.45267">
        <ele>372</ele>
        <time>2019-05-04T06:11:01Z</time>
      </trkpt>
      <trkpt lat="46.41467" lon="5.45273">
        <ele>371</ele>
        <time>2019-05-04T06:12:01Z</time>
      </trkpt>
      <trkpt lat="46.41521" lon="5.45286">
        <ele>371</ele>
        <time>2019-05-04T06:13:01Z</time>
      </trkpt>
      <trkpt lat="46.41549" lon="5.45292">
        <ele>372</ele>
        <time>2019-05-04T06:14:01Z</time>
      </trkpt>
      <trkpt lat="46.41577" lon="5.453">
        <ele>372</ele>
        <time>2019-05-04T06:15:01Z</time>
      </trkpt>
      <trkpt lat="46.41611" lon="5.45308">
        <ele>374</ele>
        <time>2019-05-04T06:16:01Z</time>
      </trkpt>
      <trkpt lat="46.41642" lon="5.45315">
        <ele>376</ele>
        <time>2019-05-04T06:17:01Z</time>
      </trkpt>
      <trkpt lat="46.41672" lon="5.45322">
        <ele>378</ele>
        <time>2019-05-04T06:18:01Z</time>
      </trkpt>
      <trkpt lat="46.41689" lon="5.45326">
        <ele>378</ele>
        <time>2019-05-04T06:19:01Z</time>
      </trkpt>
      <trkpt lat="46.41734" lon="5.45337">
        <ele>377</ele>
        <time>2019-05-04T06:20:01Z</time>
      </trkpt>
      <trkpt lat="46.41779" lon="5.45348">
        <ele>377</ele>
        <time>2019-05-04T06:21:01Z</time>
      </trkpt>
      <trkpt lat="46.4182" lon="5.45358">
        <ele>378</ele>
        <time>2019-05-04T06:22:01Z</time>
      </trkpt>
      <trkpt lat="46.41851" lon="5.45365">
        <ele>378</ele>
        <time>2019-05-04T06:23:01Z</time>
      </trkpt>
      <trkpt lat="46.4188" lon="5.45372">
        <ele>376</ele>
        <time>2019-05-04T06:24:01Z</time>
      </trkpt>
      <trkpt lat="46.41908" lon="5.4538">
        <ele>374</ele>
        <time>2019-05-04T06:25:01Z</time>
      </trkpt>
      <trkpt lat="46.41938" lon="5.45389">
        <ele>373</ele>
        <time>2019-05-04T06:26:01Z</time>
      </trkpt>
      <trkpt lat="46.4197" lon="5.45401">
        <ele>374</ele>
        <time>2019-05-04T06:27:01Z</time>
      </trkpt>
      <trkpt lat="46.42004" lon="5.45414">
        <ele>374</ele>
        <time>2019-05-04T06:28:01Z</time>
      </trkpt>
      <trkpt lat="46.42005" lon="5.45415">
        <ele>374</ele>
        <time>2019-05-04T06:29:01Z</time>
      </trkpt>
      <trkpt lat="46.4202" lon="5.45422">
        <ele>374</ele>
        <time>2019-05-04T06:30:01Z</time>
      </trkpt>
      <trkpt lat="46.42035" lon="5.4543">
        <ele>374</ele>
        <time>2019-05-04T06:31:01Z</time>
      </trkpt>
      <trkpt lat="46.42061" lon="5.4544">
        <ele>373</ele>
        <time>2019-05-04T06:32:01Z</time>
      </trkpt>
      <trkpt lat="46.42104" lon="5.45458">
        <ele>374</ele>
        <time>2019-05-04T06:33:01Z</time>
      </trkpt>
      <trkpt lat="46.42132" lon="5.45468">
        <ele>374</ele>
        <time>2019-05-04T06:34:01Z</time>
      </trkpt>
      <trkpt lat="46.42133" lon="5.45468">
        <ele>374</ele>
        <time>2019-05-04T06:35:01Z</time>
      </trkpt>
      <trkpt lat="46.42169" lon="5.45483">
        <ele>373</ele>
        <time>2019-05-04T06:36:01Z</time>
      </trkpt>
      <trkpt lat="46.42217" lon="5.45501">
        <ele>373</ele>
        <time>2019-05-04T06:37:01Z</time>
      </trkpt>
      <trkpt lat="46.42298" lon="5.45527">
        <ele>374</ele>
        <time>2019-05-04T06:38:01Z</time>
      </trkpt>
      <trkpt lat="46.42315" lon="5.45533">
        <ele>374</ele>
        <time>2019-05-04T06:39:01Z</time>
      </trkpt>
      <trkpt lat="46.42355" lon="5.45544">
        <ele>375</ele>
        <time>2019-05-04T06:40:01Z</time>
      </trkpt>
      <trkpt lat="46.4239" lon="5.45554">
        <ele>375</ele>
        <time>2019-05-04T06:41:01Z</time>
      </trkpt>
      <trkpt lat="46.42419" lon="5.45563">
        <ele>374</ele>
        <time>2019-05-04T06:42:01Z</time>
      </trkpt>
      <trkpt lat="46.42459" lon="5.45575">
        <ele>372</ele>
        <time>2019-05-04T06:43:01Z</time>
      </trkpt>
      <trkpt lat="46.42489" lon="5.45585">
        <ele>370</ele>
        <time>2019-05-04T06:44:01Z</time>
      </trkpt>
      <trkpt lat="46.42537" lon="5.45601">
        <ele>369</ele>
        <time>2019-05-04T06:45:01Z</time>
      </trkpt>
      <trkpt lat="46.42573" lon="5.45611">
        <ele>369</ele>
        <time>2019-05-04T06:46:01Z</time>
      </trkpt>
      <trkpt lat="46.42625" lon="5.45628">
        <ele>371</ele>
        <time>2019-05-04T06:47:01Z</time>
      </trkpt>
      <trkpt lat="46.42661" lon="5.4564">
        <ele>371</ele>
        <time>2019-05-04T06:48:01Z</time>
      </trkpt>
      <trkpt lat="46.42695" lon="5.45651">
        <ele>372</ele>
        <time>2019-05-04T06:49:01Z</time>
      </trkpt>
      <trkpt lat="46.42719" lon="5.45658">
        <ele>372</ele>
        <time>2019-05-04T06:50:01Z</time>
      </trkpt>
      <trkpt lat="46.42748" lon="5.45666">
        <ele>372</ele>
        <time>2019-05-04T06:51:01Z</time>
      </trkpt>
      <trkpt lat="46.42768" lon="5.45669">
        <ele>372</ele>
        <time>2019-05-04T06:52:01Z</time>
      </trkpt>
      <trkpt lat="46.42791" lon="5.45672">
        <ele>372</ele>
        <time>2019-05-04T06:53:01Z</time>
      </trkpt>
      <trkpt lat="46.42795" lon="5.45673">
        <ele>372</ele>
        <time>2019-05-04T06:54:01Z</time>
      </trkpt>
      <trkpt lat="46.4281" lon="5.45676">
        <ele>372</ele>
        <time>2019-05-04T06:55:01Z</time>
      </trkpt>
      <trkpt lat="46.42846" lon="5.45677">
        <ele>371</ele>
        <time>2019-05-04T06:56:01Z</time>
      </trkpt>
      <trkpt lat="46.42877" lon="5.45678">
        <ele>370</ele>
        <time>2019-05-04T06:57:01Z</time>
      </trkpt>
      <trkpt lat="46.42908" lon="5.45679">
        <ele>368</ele>
        <time>2019-05-04T06:58:01Z</time>
      </trkpt>
      <trkpt lat="46.42941" lon="5.45679">
        <ele>368</ele>
        <time>2019-05-04T06:59:01Z</time>
      </trkpt>
      <trkpt lat="46.42968" lon="5.4568">
        <ele>368</ele>
        <time>2019-05-04T07:00:01Z</time>
      </trkpt>
      <trkpt lat="46.42995" lon="5.4568">
        <ele>368</ele>
        <time>2019-05-04T07:01:01Z</time>
      </trkpt>
      <trkpt lat="46.43031" lon="5.45681">
        <ele>367</ele>
        <time>2019-05-04T07:02:01Z</time>
      </trkpt>
      <trkpt lat="46.43072" lon="5.45681">
        <ele>366</ele>
        <time>2019-05-04T07:03:01Z</time>
      </trkpt>
      <trkpt lat="46.43129" lon="5.45684">
        <ele>363</ele>
        <time>2019-05-04T07:04:01Z</time>
      </trkpt>
      <trkpt lat="46.43177" lon="5.45685">
        <ele>360</ele>
        <time>2019-05-04T07:05:01Z</time>
      </trkpt>
      <trkpt lat="46.43236" lon="5.45685">
        <ele>360</ele>
        <time>2019-05-04T07:06:01Z</time>
      </trkpt>
      <trkpt lat="46.43273" lon="5.45686">
        <ele>360</ele>
        <time>2019-05-04T07:07:01Z</time>
      </trkpt>
      <trkpt lat="46.43315" lon="5.45685">
        <ele>360</ele>
        <time>2019-05-04T07:08:01Z</time>
      </trkpt>
      <trkpt lat="46.43361" lon="5.45687">
        <ele>360</ele>
        <time>2019-05-04T07:09:01Z</time>
      </trkpt>
      <trkpt lat="46.43421" lon="5.4569">
        <ele>360</ele>
        <time>2019-05-04T07:10:01Z</time>
      </trkpt>
      <trkpt lat="46.43486" lon="5.45691">
        <ele>360</ele>
        <time>2019-05-04T07:11:01Z</time>
      </trkpt>
      <trkpt lat="46.43573" lon="5.45693">
        <ele>362</ele>
        <time>2019-05-04T07:12:01Z</time>
      </trkpt>
      <trkpt lat="46.43626" lon="5.45694">
        <ele>361</ele>
        <time>2019-05-04T07:13:01Z</time>
      </trkpt>
      <trkpt lat="46.4368" lon="5.45695">
        <ele>361</ele>
        <time>2019-05-04T07:14:01Z</time>
      </trkpt>
      <trkpt lat="46.43726" lon="5.45696">
        <ele>363</ele>
        <time>2019-05-04T07:15:01Z</time>
      </trkpt>
      <trkpt lat="46.43766" lon="5.45697">
        <ele>364</ele>
        <time>2019-05-04T07:16:01Z</time>
      </trkpt>
      <trkpt lat="46.43805" lon="5.45698">
        <ele>364</ele>
        <time>2019-05-04T07:17:01Z</time>
      </trkpt>
      <trkpt lat="46.43818" lon="5.45698">
        <ele>364</ele>
        <time>2019-05-04T07:18:01Z</time>
      </trkpt>
      <trkpt lat="46.43842" lon="5.45699">
        <ele>364</ele>
        <time>2019-05-04T07:19:01Z</time>
      </trkpt>
      <trkpt lat="46.43852" lon="5.45698">
        <ele>363</ele>
        <time>2019-05-04T07:20:01Z</time>
      </trkpt>
      <trkpt lat="46.43862" lon="5.45697">
        <ele>363</ele>
        <time>2019-05-04T07:21:01Z</time>
      </trkpt>
      <trkpt lat="46.43874" lon="5.45696">
        <ele>363</ele>
        <time>2019-05-04T07:22:01Z</time>
      </trkpt>
      <trkpt lat="46.43882" lon="5.45695">
        <ele>363</ele>
        <time>2019-05-04T07:23:01Z</time>
      </trkpt>
      <trkpt lat="46.43905" lon="5.4569">
        <ele>363</ele>
        <time>2019-05-04T07:24:01Z</time>
      </trkpt>
      <trkpt lat="46.4394" lon="5.45682">
        <ele>363</ele>
        <time>2019-05-04T07:25:01Z</time>
      </trkpt>
      <trkpt lat="46.43976" lon="5.45677">
        <ele>363</ele>
        <time>2019-05-04T07:26:01Z</time>
      </trkpt>
      <trkpt lat="46.44053" lon="5.45662">
        <ele>364</ele>
        <time>2019-05-04T07:27:01Z</time>
      </trkpt>
      <trkpt lat="46.44091" lon="5.45655">
        <ele>364</ele>
        <time>2019-05-04T07:28:01Z</time>
      </trkpt>
      <trkpt lat="46.44156" lon="5.45643">
        <ele>365</ele>
        <time>2019-05-04T07:29:01Z</time>
      </trkpt>
      <trkpt lat="46.44224" lon="5.4563">
        <ele>367</ele>
        <time>2019-05-04T07:30:01Z</time>
      </trkpt>
      <trkpt lat="46.44239" lon="5.45628">
        <ele>367</ele>
        <time>2019-05-04T07:31:01Z</time>
      </trkpt>
      <trkpt lat="46.44258" lon="5.45626">
        <ele>368</ele>
        <time>2019-05-04T07:32:01Z</time>
      </trkpt>
      <trkpt lat="46.44272" lon="5.45627">
        <ele>368</ele>
        <time>2019-05-04T07:33:01Z</time>
      </trkpt>
      <trkpt lat="46.44285" lon="5.45627">
        <ele>368</ele>
        <time>2019-05-04T07:34:01Z</time>
      </trkpt>
      <trkpt lat="46.4433" lon="5.45632">
        <ele>369</ele>
        <time>2019-05-04T07:35:01Z</time>
      </trkpt>
      <trkpt lat="46.44354" lon="5.45634">
        <ele>370</ele>
        <time>2019-05-04T07:36:01Z</time>
      </trkpt>
      <trkpt lat="46.44395" lon="5.45639">
        <ele>371</ele>
        <time>2019-05-04T07:37:01Z</time>
      </trkpt>
      <trkpt lat="46.44439" lon="5.45644">
        <ele>372</ele>
        <time>2019-05-04T07:38:01Z</time>
      </trkpt>
      <trkpt lat="46.44475" lon="5.45647">
        <ele>372</ele>
        <time>2019-05-04T07:39:01Z</time>
      </trkpt>
      <trkpt lat="46.44489" lon="5.45649">
        <ele>372</ele>
        <time>2019-05-04T07:40:01Z</time>
      </trkpt>
      <trkpt lat="46.44501" lon="5.45652">
        <ele>372</ele>
        <time>2019-05-04T07:41:01Z</time>
      </trkpt>
      <trkpt lat="46.44527" lon="5.4566">
        <ele>372</ele>
        <time>2019-05-04T07:42:01Z</time>
      </trkpt>
      <trkpt lat="46.44545" lon="5.45665">
        <ele>372</ele>
        <time>2019-05-04T07:43:01Z</time>
      </trkpt>
      <trkpt lat="46.44584" lon="5.45677">
        <ele>371</ele>
        <time>2019-05-04T07:44:01Z</time>
      </trkpt>
      <trkpt lat="46.44607" lon="5.45684">
        <ele>371</ele>
        <time>2019-05-04T07:45:01Z</time>
      </trkpt>
      <trkpt lat="46.44612" lon="5.45685">
        <ele>371</ele>
        <time>2019-05-04T07:46:01Z</time>
      </trkpt>
      <trkpt lat="46.44618" lon="5.45687">
        <ele>371</ele>
        <time>2019-05-04T07:47:01Z</time>
      </trkpt>
      <trkpt lat="46.44654" lon="5.457">
        <ele>370</ele>
        <time>2019-05-04T07:48:01Z</time>
      </trkpt>
      <trkpt lat="46.44677" lon="5.45708">
        <ele>369</ele>
        <time>2019-05-04T07:49:01Z</time>
      </trkpt>
      <trkpt lat="46.44698" lon="5.45716">
        <ele>370</ele>
        <time>2019-05-04T07:50:01Z</time>
      </trkpt>
      <trkpt lat="46.44708" lon="5.45721">
        <ele>370</ele>
        <time>2019-05-04T07:51:01Z</time>
      </trkpt>
      <trkpt lat="46.44725" lon="5.45728">
        <ele>370</ele>
        <time>2019-05-04T07:52:01Z</time>
      </trkpt>
      <trkpt lat="46.44757" lon="5.45744">
        <ele>370</ele>
        <time>2019-05-04T07:53:01Z</time>
      </trkpt>
      <trkpt lat="46.44774" lon="5.45754">
        <ele>370</ele>
        <time>2019-05-04T07:54:01Z</time>
      </trkpt>
      <trkpt lat="46.44799" lon="5.45768">
        <ele>371</ele>
        <time>2019-05-04T07:55:01Z</time>
      </trkpt>
      <trkpt lat="46.44835" lon="5.45787">
        <ele>372</ele>
        <time>2019-05-04T07:56:01Z</time>
      </trkpt>
      <trkpt lat="46.44846" lon="5.45794">
        <ele>372</ele>
        <time>2019-05-04T07:57:01Z</time>
      </trkpt>
      <trkpt lat="46.44863" lon="5.45804">
        <ele>372</ele>
        <time>2019-05-04T07:58:01Z</time>
      </trkpt>
      <trkpt lat="46.4488" lon="5.45815">
        <ele>372</ele>
        <time>2019-05-04T07:59:01Z</time>
      </trkpt>
      <trkpt lat="46.44905" lon="5.45829">
        <ele>372</ele>
        <time>2019-05-04T08:00:01Z</time>
      </trkpt>
      <trkpt lat="46.44909" lon="5.45833">
        <ele>372</ele>
        <time>2019-05-04T08:01:01Z</time>
      </trkpt>
      <trkpt lat="46.4494" lon="5.4585">
        <ele>372</ele>
        <time>2019-05-04T08:02:01Z</time>
      </trkpt>
      <trkpt lat="46.44942" lon="5.45851">
        <ele>372</ele>
        <time>2019-05-04T08:03:01Z</time>
      </trkpt>
      <trkpt lat="46.44948" lon="5.45854">
        <ele>372</ele>
        <time>2019-05-04T08:04:01Z</time>
      </trkpt>
      <trkpt lat="46.44963" lon="5.45863">
        <ele>371</ele>
        <time>2019-05-04T08:05:01Z</time>
      </trkpt>
      <trkpt lat="46.44978" lon="5.45871">
        <ele>371</ele>
        <time>2019-05-04T08:06:01Z</time>
      </trkpt>
      <trkpt lat="46.45021" lon="5.45898">
        <ele>371</ele>
        <time>2019-05-04T08:07:01Z</time>
      </trkpt>
      <trkpt lat="46.45054" lon="5.45918">
        <ele>370</ele>
        <time>2019-05-04T08:08:01Z</time>
      </trkpt>
      <trkpt lat="46.45062" lon="5.45923">
        <ele>370</ele>
        <time>2019-05-04T08:09:01Z</time>
      </trkpt>
      <trkpt lat="46.45086" lon="5.45934">
        <ele>370</ele>
        <time>2019-05-04T08:10:01Z</time>
      </trkpt>
      <trkpt lat="46.45101" lon="5.4594">
        <ele>370</ele>
        <time>2019-05-04T08:11:01Z</time>
      </trkpt>
      <trkpt lat="46.4511" lon="5.45945">
        <ele>371</ele>
        <time>2019-05-04T08:12:01Z</time>
      </trkpt>
      <trkpt lat="46.45128" lon="5.45957">
        <ele>372</ele>
        <time>2019-05-04T08:13:01Z</time>
      </trkpt>
      <trkpt lat="46.45143" lon="5.45969">
        <ele>373</ele>
        <time>2019-05-04T08:14:01Z</time>
      </trkpt>
      <trkpt lat="46.45155" lon="5.4598">
        <ele>374</ele>
        <time>2019-05-04T08:15:01Z</time>
      </trkpt>
      <trkpt lat="46.45176" lon="5.45996">
        <ele>375</ele>
        <time>2019-05-04T08:16:01Z</time>
      </trkpt>
      <trkpt lat="46.45182" lon="5.45999">
        <ele>375</ele>
        <time>2019-05-04T08:17:01Z</time>
      </trkpt>
      <trkpt lat="46.45198" lon="5.4601">
        <ele>375</ele>
        <time>2019-05-04T08:18:01Z</time>
      </trkpt>
      <trkpt lat="46.4521" lon="5.46021">
        <ele>375</ele>
        <time>2019-05-04T08:19:01Z</time>
      </trkpt>
      <trkpt lat="46.45222" lon="5.4603">
        <ele>375</ele>
        <time>2019-05-04T08:20:01Z</time>
      </trkpt>
      <trkpt lat="46.45232" lon="5.46038">
        <ele>375</ele>
        <time>2019-05-04T08:21:01Z</time>
      </trkpt>
      <trkpt lat="46.45238" lon="5.46042">
        <ele>375</ele>
        <time>2019-05-04T08:22:01Z</time>
      </trkpt>
      <trkpt lat="46.45245" lon="5.46044">
        <ele>375</ele>
        <time>2019-05-04T08:23:01Z</time>
      </trkpt>
      <trkpt lat="46.45245" lon="5.46044">
        <ele>375</ele>
        <time>2019-05-04T08:24:01Z</time>
      </trkpt>
      <trkpt lat="46.4525" lon="5.46028">
        <ele>374</ele>
        <time>2019-05-04T08:25:01Z</time>
      </trkpt>
      <trkpt lat="46.45256" lon="5.46016">
        <ele>374</ele>
        <time>2019-05-04T08:26:01Z</time>
      </trkpt>
      <trkpt lat="46.45263" lon="5.46">
        <ele>373</ele>
        <time>2019-05-04T08:27:01Z</time>
      </trkpt>
      <trkpt lat="46.45269" lon="5.45989">
        <ele>372</ele>
        <time>2019-05-04T08:28:01Z</time>
      </trkpt>
      <trkpt lat="46.45273" lon="5.45968">
        <ele>371</ele>
        <time>2019-05-04T08:29:01Z</time>
      </trkpt>
      <trkpt lat="46.45276" lon="5.45953">
        <ele>371</ele>
        <time>2019-05-04T08:30:01Z</time>
      </trkpt>
      <trkpt lat="46.4528" lon="5.45931">
        <ele>370</ele>
        <time>2019-05-04T08:31:01Z</time>
      </trkpt>
      <trkpt lat="46.45283" lon="5.4592">
        <ele>369</ele>
        <time>2019-05-04T08:32:01Z</time>
      </trkpt>
      <trkpt lat="46.45286" lon="5.45904">
        <ele>369</ele>
        <time>2019-05-04T08:33:01Z</time>
      </trkpt>
      <trkpt lat="46.45291" lon="5.45883">
        <ele>368</ele>
        <time>2019-05-04T08:34:01Z</time>
      </trkpt>
      <trkpt lat="46.45297" lon="5.45864">
        <ele>367</ele>
        <time>2019-05-04T08:35:01Z</time>
      </trkpt>
      <trkpt lat="46.45304" lon="5.45845">
        <ele>366</ele>
        <time>2019-05-04T08:36:01Z</time>
      </trkpt>
      <trkpt lat="46.45308" lon="5.45832">
        <ele>365</ele>
        <time>2019-05-04T08:37:01Z</time>
      </trkpt>
      <trkpt lat="46.45312" lon="5.4582">
        <ele>365</ele>
        <time>2019-05-04T08:38:01Z</time>
      </trkpt>
      <trkpt lat="46.45315" lon="5.4581">
        <ele>365</ele>
        <time>2019-05-04T08:39:01Z</time>
      </trkpt>
      <trkpt lat="46.45318" lon="5.45795">
        <ele>365</ele>
        <time>2019-05-04T08:40:01Z</time>
      </trkpt>
      <trkpt lat="46.4532" lon="5.4578">
        <ele>365</ele>
        <time>2019-05-04T08:41:01Z</time>
      </trkpt>
      <trkpt lat="46.45323" lon="5.45765">
        <ele>366</ele>
        <time>2019-05-04T08:42:01Z</time>
      </trkpt>
      <trkpt lat="46.45327" lon="5.45734">
        <ele>366</ele>
        <time>2019-05-04T08:43:01Z</time>
      </trkpt>
      <trkpt lat="46.4533" lon="5.45717">
        <ele>366</ele>
        <time>2019-05-04T08:44:01Z</time>
      </trkpt>
      <trkpt lat="46.45335" lon="5.45678">
        <ele>365</ele>
        <time>2019-05-04T08:45:01Z</time>
      </trkpt>
      <trkpt lat="46.45338" lon="5.45657">
        <ele>365</ele>
        <time>2019-05-04T08:46:01Z</time>
      </trkpt>
      <trkpt lat="46.45341" lon="5.45642">
        <ele>365</ele>
        <time>2019-05-04T08:47:01Z</time>
      </trkpt>
      <trkpt lat="46.45344" lon="5.45631">
        <ele>365</ele>
        <time>2019-05-04T08:48:01Z</time>
      </trkpt>
      <trkpt lat="46.45347" lon="5.45621">
        <ele>365</ele>
        <time>2019-05-04T08:49:01Z</time>
      </trkpt>
      <trkpt lat="46.45352" lon="5.45612">
        <ele>365</ele>
        <time>2019-05-04T08:50:01Z</time>
      </trkpt>
      <trkpt lat="46.45356" lon="5.45607">
        <ele>365</ele>
        <time>2019-05-04T08:51:01Z</time>
      </trkpt>
      <trkpt lat="46.45364" lon="5.456">
        <ele>365</ele>
        <time>2019-05-04T08:52:01Z</time>
      </trkpt>
      <trkpt lat="46.45374" lon="5.45595">
        <ele>365</ele>
        <time>2019-05-04T08:53:01Z</time>
      </trkpt>
      <trkpt lat="46.45381" lon="5.45593">
        <ele>366</ele>
        <time>2019-05-04T08:54:01Z</time>
      </trkpt>
      <trkpt lat="46.45388" lon="5.45591">
        <ele>366</ele>
        <time>2019-05-04T08:55:01Z</time>
      </trkpt>
      <trkpt lat="46.45396" lon="5.45591">
        <ele>366</ele>
        <time>2019-05-04T08:56:01Z</time>
      </trkpt>
      <trkpt lat="46.45404" lon="5.45593">
        <ele>366</ele>
        <time>2019-05-04T08:57:01Z</time>
      </trkpt>
      <trkpt lat="46.45411" lon="5.45596">
        <ele>366</ele>
        <time>2019-05-04T08:58:01Z</time>
      </trkpt>
      <trkpt lat="46.45424" lon="5.45605">
        <ele>366</ele>
        <time>2019-05-04T08:59:01Z</time>
      </trkpt>
      <trkpt lat="46.4547" lon="5.45643">
        <ele>368</ele>
        <time>2019-05-04T09:00:01Z</time>
      </trkpt>
      <trkpt lat="46.45488" lon="5.45656">
        <ele>369</ele>
        <time>2019-05-04T09:01:01Z</time>
      </trkpt>
      <trkpt lat="46.45526" lon="5.45677">
        <ele>372</ele>
        <time>2019-05-04T09:02:01Z</time>
      </trkpt>
      <trkpt lat="46.45545" lon="5.45686">
        <ele>373</ele>
        <time>2019-05-04T09:03:01Z</time>
      </trkpt>
      <trkpt lat="46.45558" lon="5.45692">
        <ele>373</ele>
        <time>2019-05-04T09:04:01Z</time>
      </trkpt>
      <trkpt lat="46.4557" lon="5.45697">
        <ele>374</ele>
        <time>2019-05-04T09:05:01Z</time>
      </trkpt>
      <trkpt lat="46.45578" lon="5.45698">
        <ele>374</ele>
        <time>2019-05-04T09:06:01Z</time>
      </trkpt>
      <trkpt lat="46.45588" lon="5.457">
        <ele>374</ele>
        <time>2019-05-04T09:07:01Z</time>
      </trkpt>
      <trkpt lat="46.45599" lon="5.45699">
        <ele>375</ele>
        <time>2019-05-04T09:08:01Z</time>
      </trkpt>
      <trkpt lat="46.45609" lon="5.45696">
        <ele>375</ele>
        <time>2019-05-04T09:09:01Z</time>
      </trkpt>
      <trkpt lat="46.45616" lon="5.45694">
        <ele>375</ele>
        <time>2019-05-04T09:10:01Z</time>
      </trkpt>
      <trkpt lat="46.45617" lon="5.45694">
        <ele>375</ele>
        <time>2019-05-04T09:11:01Z</time>
      </trkpt>
      <trkpt lat="46.45626" lon="5.45691">
        <ele>375</ele>
        <time>2019-05-04T09:12:01Z</time>
      </trkpt>
      <trkpt lat="46.45644" lon="5.4568">
        <ele>376</ele>
        <time>2019-05-04T09:13:01Z</time>
      </trkpt>
      <trkpt lat="46.45665" lon="5.45668">
        <ele>376</ele>
        <time>2019-05-04T09:14:01Z</time>
      </trkpt>
      <trkpt lat="46.45686" lon="5.45655">
        <ele>377</ele>
        <time>2019-05-04T09:15:01Z</time>
      </trkpt>
      <trkpt lat="46.45699" lon="5.45646">
        <ele>377</ele>
        <time>2019-05-04T09:16:01Z</time>
      </trkpt>
      <trkpt lat="46.45731" lon="5.45628">
        <ele>378</ele>
        <time>2019-05-04T09:17:01Z</time>
      </trkpt>
      <trkpt lat="46.45766" lon="5.45609">
        <ele>378</ele>
        <time>2019-05-04T09:18:01Z</time>
      </trkpt>
      <trkpt lat="46.45799" lon="5.45591">
        <ele>378</ele>
        <time>2019-05-04T09:19:01Z</time>
      </trkpt>
      <trkpt lat="46.45818" lon="5.45582">
        <ele>378</ele>
        <time>2019-05-04T09:20:01Z</time>
      </trkpt>
      <trkpt lat="46.45831" lon="5.45574">
        <ele>378</ele>
        <time>2019-05-04T09:21:01Z</time>
      </trkpt>
      <trkpt lat="46.45838" lon="5.4557">
        <ele>378</ele>
        <time>2019-05-04T09:22:01Z</time>
      </trkpt>
      <trkpt lat="46.45844" lon="5.45566">
        <ele>378</ele>
        <time>2019-05-04T09:23:01Z</time>
      </trkpt>
      <trkpt lat="46.45858" lon="5.45559">
        <ele>377</ele>
        <time>2019-05-04T09:24:01Z</time>
      </trkpt>
      <trkpt lat="46.45901" lon="5.45535">
        <ele>375</ele>
        <time>2019-05-04T09:25:01Z</time>
      </trkpt>
      <trkpt lat="46.45932" lon="5.45517">
        <ele>374</ele>
        <time>2019-05-04T09:26:01Z</time>
      </trkpt>
      <trkpt lat="46.45935" lon="5.45516">
        <ele>374</ele>
        <time>2019-05-04T09:27:01Z</time>
      </trkpt>
      <trkpt lat="46.45968" lon="5.45498">
        <ele>374</ele>
        <time>2019-05-04T09:28:01Z</time>
      </trkpt>
      <trkpt lat="46.46011" lon="5.45472">
        <ele>373</ele>
        <time>2019-05-04T09:29:01Z</time>
      </trkpt>
      <trkpt lat="46.46027" lon="5.45464">
        <ele>372</ele>
        <time>2019-05-04T09:30:01Z</time>
      </trkpt>
      <trkpt lat="46.46053" lon="5.45448">
        <ele>371</ele>
        <time>2019-05-04T09:31:01Z</time>
      </trkpt>
      <trkpt lat="46.46083" lon="5.4543">
        <ele>370</ele>
        <time>2019-05-04T09:32:01Z</time>
      </trkpt>
      <trkpt lat="46.46115" lon="5.45411">
        <ele>370</ele>
        <time>2019-05-04T09:33:01Z</time>
      </trkpt>
      <trkpt lat="46.46134" lon="5.45399">
        <ele>370</ele>
        <time>2019-05-04T09:34:01Z</time>
      </trkpt>
      <trkpt lat="46.46152" lon="5.45386">
        <ele>370</ele>
        <time>2019-05-04T09:35:01Z</time>
      </trkpt>
      <trkpt lat="46.46168" lon="5.45373">
        <ele>370</ele>
        <time>2019-05-04T09:36:01Z</time>
      </trkpt>
      <trkpt lat="46.46209" lon="5.45344">
        <ele>369</ele>
        <time>2019-05-04T09:37:01Z</time>
      </trkpt>
      <trkpt lat="46.46234" lon="5.45326">
        <ele>370</ele>
        <time>2019-05-04T09:38:01Z</time>
      </trkpt>
      <trkpt lat="46.46244" lon="5.45318">
        <ele>370</ele>
        <time>2019-05-04T09:39:01Z</time>
      </trkpt>
      <trkpt lat="46.46266" lon="5.45301">
        <ele>371</ele>
        <time>2019-05-04T09:40:01Z</time>
      </trkpt>
      <trkpt lat="46.46278" lon="5.45291">
        <ele>372</ele>
        <time>2019-05-04T09:41:01Z</time>
      </trkpt>
      <trkpt lat="46.46298" lon="5.45273">
        <ele>374</ele>
        <time>2019-05-04T09:42:01Z</time>
      </trkpt>
      <trkpt lat="46.46318" lon="5.45255">
        <ele>376</ele>
        <time>2019-05-04T09:43:01Z</time>
      </trkpt>
      <trkpt lat="46.46337" lon="5.45241">
        <ele>378</ele>
        <time>2019-05-04T09:44:01Z</time>
      </trkpt>
      <trkpt lat="46.46358" lon="5.45227">
        <ele>379</ele>
        <time>2019-05-04T09:45:01Z</time>
      </trkpt>
      <trkpt lat="46.46375" lon="5.45219">
        <ele>378</ele>
        <time>2019-05-04T09:46:01Z</time>
      </trkpt>
      <trkpt lat="46.46389" lon="5.45211">
        <ele>377</ele>
        <time>2019-05-04T09:47:01Z</time>
      </trkpt>
      <trkpt lat="46.46389" lon="5.45211">
        <ele>377</ele>
        <time>2019-05-04T09:48:01Z</time>
      </trkpt>
      <trkpt lat="46.46397" lon="5.45205">
        <ele>376</ele>
        <time>2019-05-04T09:49:01Z</time>
      </trkpt>
      <trkpt lat="46.46407" lon="5.45196">
        <ele>376</ele>
        <time>2019-05-04T09:50:01Z</time>
      </trkpt>
      <trkpt lat="46.46418" lon="5.45181">
        <ele>375</ele>
        <time>2019-05-04T09:51:01Z</time>
      </trkpt>
      <trkpt lat="46.46426" lon="5.45165">
        <ele>375</ele>
        <time>2019-05-04T09:52:01Z</time>
      </trkpt>
      <trkpt lat="46.46432" lon="5.45146">
        <ele>376</ele>
        <time>2019-05-04T09:53:01Z</time>
      </trkpt>
      <trkpt lat="46.46432" lon="5.45123">
        <ele>378</ele>
        <time>2019-05-04T09:54:01Z</time>
      </trkpt>
      <trkpt lat="46.4643" lon="5.45112">
        <ele>379</ele>
        <time>2019-05-04T09:55:01Z</time>
      </trkpt>
      <trkpt lat="46.46428" lon="5.45094">
        <ele>381</ele>
        <time>2019-05-04T09:56:01Z</time>
      </trkpt>
      <trkpt lat="46.46426" lon="5.45078">
        <ele>381</ele>
        <time>2019-05-04T09:57:01Z</time>
      </trkpt>
      <trkpt lat="46.46423" lon="5.45062">
        <ele>381</ele>
        <time>2019-05-04T09:58:01Z</time>
      </trkpt>
      <trkpt lat="46.46418" lon="5.45047">
        <ele>381</ele>
        <time>2019-05-04T09:59:01Z</time>
      </trkpt>
      <trkpt lat="46.46412" lon="5.45026">
        <ele>382</ele>
        <time>2019-05-04T10:00:01Z</time>
      </trkpt>
      <trkpt lat="46.46406" lon="5.45008">
        <ele>382</ele>
        <time>2019-05-04T10:01:01Z</time>
      </trkpt>
      <trkpt lat="46.46402" lon="5.44989">
        <ele>382</ele>
        <time>2019-05-04T10:02:01Z</time>
      </trkpt>
      <trkpt lat="46.46401" lon="5.44984">
        <ele>382</ele>
        <time>2019-05-04T10:03:01Z</time>
      </trkpt>
      <trkpt lat="46.46401" lon="5.44984">
        <ele>382</ele>
        <time>2019-05-04T10:04:01Z</time>
      </trkpt>
      <trkpt lat="46.46397" lon="5.44966">
        <ele>381</ele>
        <time>2019-05-04T10:05:01Z</time>
      </trkpt>
      <trkpt lat="46.46394" lon="5.44947">
        <ele>379</ele>
        <time>2019-05-04T10:06:01Z</time>
      </trkpt>
      <trkpt lat="46.46392" lon="5.44936">
        <ele>378</ele>
        <time>2019-05-04T10:07:01Z</time>
      </trkpt>
      <trkpt lat="46.46388" lon="5.44926">
        <ele>378</ele>
        <time>2019-05-04T10:08:01Z</time>
      </trkpt>
      <trkpt lat="46.46382" lon="5.44915">
        <ele>377</ele>
        <time>2019-05-04T10:09:01Z</time>
      </trkpt>
      <trkpt lat="46.46374" lon="5.44902">
        <ele>377</ele>
        <time>2019-05-04T10:10:01Z</time>
      </trkpt>
      <trkpt lat="46.46367" lon="5.44888">
        <ele>377</ele>
        <time>2019-05-04T10:11:01Z</time>
      </trkpt>
      <trkpt lat="46.46364" lon="5.44882">
        <ele>377</ele>
        <time>2019-05-04T10:12:01Z</time>
      </trkpt>
      <trkpt lat="46.46361" lon="5.44875">
        <ele>377</ele>
        <time>2019-05-04T10:13:01Z</time>
      </trkpt>
      <trkpt lat="46.46357" lon="5.44863">
        <ele>376</ele>
        <time>2019-05-04T10:14:01Z</time>
      </trkpt>
      <trkpt lat="46.46355" lon="5.44854">
        <ele>375</ele>
        <time>2019-05-04T10:15:01Z</time>
      </trkpt>
      <trkpt lat="46.46354" lon="5.4485">
        <ele>375</ele>
        <time>2019-05-04T10:16:01Z</time>
      </trkpt>
      <trkpt lat="46.46353" lon="5.4484">
        <ele>374</ele>
        <time>2019-05-04T10:17:01Z</time>
      </trkpt>
      <trkpt lat="46.46352" lon="5.44821">
        <ele>374</ele>
        <time>2019-05-04T10:18:01Z</time>
      </trkpt>
      <trkpt lat="46.46351" lon="5.448">
        <ele>375</ele>
        <time>2019-05-04T10:19:01Z</time>
      </trkpt>
      <trkpt lat="46.46351" lon="5.44786">
        <ele>376</ele>
        <time>2019-05-04T10:20:01Z</time>
      </trkpt>
      <trkpt lat="46.46351" lon="5.44764">
        <ele>377</ele>
        <time>2019-05-04T10:21:01Z</time>
      </trkpt>
      <trkpt lat="46.46352" lon="5.44741">
        <ele>378</ele>
        <time>2019-05-04T10:22:01Z</time>
      </trkpt>
      <trkpt lat="46.46354" lon="5.44719">
        <ele>381</ele>
        <time>2019-05-04T10:23:01Z</time>
      </trkpt>
      <trkpt lat="46.46354" lon="5.44719">
        <ele>381</ele>
        <time>2019-05-04T10:24:01Z</time>
      </trkpt>
      <trkpt lat="46.46343" lon="5.44713">
        <ele>382</ele>
        <time>2019-05-04T10:25:01Z</time>
      </trkpt>
      <trkpt lat="46.4633" lon="5.44706">
        <ele>383</ele>
        <time>2019-05-04T10:26:01Z</time>
      </trkpt>
      <trkpt lat="46.46312" lon="5.44697">
        <ele>384</ele>
        <time>2019-05-04T10:27:01Z</time>
      </trkpt>
      <trkpt lat="46.46289" lon="5.44685">
        <ele>385</ele>
        <time>2019-05-04T10:28:01Z</time>
      </trkpt>
      <trkpt lat="46.46267" lon="5.44674">
        <ele>386</ele>
        <time>2019-05-04T10:29:01Z</time>
      </trkpt>
      <trkpt lat="46.46255" lon="5.44669">
        <ele>387</ele>
        <time>2019-05-04T10:30:01Z</time>
      </trkpt>
      <trkpt lat="46.46246" lon="5.44663">
        <ele>387</ele>
        <time>2019-05-04T10:31:01Z</time>
      </trkpt>
      <trkpt lat="46.46234" lon="5.44655">
        <ele>387</ele>
        <time>2019-05-04T10:32:01Z</time>
      </trkpt>
      <trkpt lat="46.46224" lon="5.44647">
        <ele>388</ele>
        <time>2019-05-04T10:33:01Z</time>
      </trkpt>
      <trkpt lat="46.46214" lon="5.44635">
        <ele>388</ele>
        <time>2019-05-04T10:34:01Z</time>
      </trkpt>
      <trkpt lat="46.46208" lon="5.44623">
        <ele>389</ele>
        <time>2019-05-04T10:35:01Z</time>
      </trkpt>
      <trkpt lat="46.46202" lon="5.44608">
        <ele>390</ele>
        <time>2019-05-04T10:36:01Z</time>
      </trkpt>
      <trkpt lat="46.46197" lon="5.44586">
        <ele>391</ele>
        <time>2019-05-04T10:37:01Z</time>
      </trkpt>
      <trkpt lat="46.46194" lon="5.44563">
        <ele>392</ele>
        <time>2019-05-04T10:38:01Z</time>
      </trkpt>
      <trkpt lat="46.46193" lon="5.44546">
        <ele>394</ele>
        <time>2019-05-04T10:39:01Z</time>
      </trkpt>
      <trkpt lat="46.46192" lon="5.44525">
        <ele>395</ele>
        <time>2019-05-04T10:40:01Z</time>
      </trkpt>
      <trkpt lat="46.46191" lon="5.44484">
        <ele>398</ele>
        <time>2019-05-04T10:41:01Z</time>
      </trkpt>
      <trkpt lat="46.4619" lon="5.44452">
        <ele>399</ele>
        <time>2019-05-04T10:42:01Z</time>
      </trkpt>
      <trkpt lat="46.4619" lon="5.44405">
        <ele>401</ele>
        <time>2019-05-04T10:43:01Z</time>
      </trkpt>
      <trkpt lat="46.4619" lon="5.44365">
        <ele>403</ele>
        <time>2019-05-04T10:44:01Z</time>
      </trkpt>
      <trkpt lat="46.46192" lon="5.44338">
        <ele>405</ele>
        <time>2019-05-04T10:45:01Z</time>
      </trkpt>
      <trkpt lat="46.46193" lon="5.44317">
        <ele>405</ele>
        <time>2019-05-04T10:46:01Z</time>
      </trkpt>
      <trkpt lat="46.46192" lon="5.44297">
        <ele>406</ele>
        <time>2019-05-04T10:47:01Z</time>
      </trkpt>
      <trkpt lat="46.46189" lon="5.44272">
        <ele>407</ele>
        <time>2019-05-04T10:48:01Z</time>
      </trkpt>
      <trkpt lat="46.46188" lon="5.44266">
        <ele>408</ele>
        <time>2019-05-04T10:49:01Z</time>
      </trkpt>
      <trkpt lat="46.46183" lon="5.44248">
        <ele>409</ele>
        <time>2019-05-04T10:50:01Z</time>
      </trkpt>
      <trkpt lat="46.46176" lon="5.44222">
        <ele>409</ele>
        <time>2019-05-04T10:51:01Z</time>
      </trkpt>
      <trkpt lat="46.46169" lon="5.44198">
        <ele>410</ele>
        <time>2019-05-04T10:52:01Z</time>
      </trkpt>
      <trkpt lat="46.4616" lon="5.44174">
        <ele>411</ele>
        <time>2019-05-04T10:53:01Z</time>
      </trkpt>
      <trkpt lat="46.46151" lon="5.4415">
        <ele>412</ele>
        <time>2019-05-04T10:54:01Z</time>
      </trkpt>
      <trkpt lat="46.46145" lon="5.44131">
        <ele>413</ele>
        <time>2019-05-04T10:55:01Z</time>
      </trkpt>
      <trkpt lat="46.46141" lon="5.44116">
        <ele>413</ele>
        <time>2019-05-04T10:56:01Z</time>
      </trkpt>
      <trkpt lat="46.46138" lon="5.44102">
        <ele>413</ele>
        <time>2019-05-04T10:57:01Z</time>
      </trkpt>
      <trkpt lat="46.46135" lon="5.44081">
        <ele>414</ele>
        <time>2019-05-04T10:58:01Z</time>
      </trkpt>
      <trkpt lat="46.46131" lon="5.44064">
        <ele>415</ele>
        <time>2019-05-04T10:59:01Z</time>
      </trkpt>
      <trkpt lat="46.46128" lon="5.44044">
        <ele>415</ele>
        <time>2019-05-04T11:00:01Z</time>
      </trkpt>
      <trkpt lat="46.46126" lon="5.4403">
        <ele>416</ele>
        <time>2019-05-04T11:01:01Z</time>
      </trkpt>
      <trkpt lat="46.46125" lon="5.44014">
        <ele>416</ele>
        <time>2019-05-04T11:02:01Z</time>
      </trkpt>
      <trkpt lat="46.46126" lon="5.43998">
        <ele>416</ele>
        <time>2019-05-04T11:03:01Z</time>
      </trkpt>
      <trkpt lat="46.46129" lon="5.43982">
        <ele>417</ele>
        <time>2019-05-04T11:04:01Z</time>
      </trkpt>
      <trkpt lat="46.46134" lon="5.43961">
        <ele>418</ele>
        <time>2019-05-04T11:05:01Z</time>
      </trkpt>
      <trkpt lat="46.46134" lon="5.43958">
        <ele>418</ele>
        <time>2019-05-04T11:06:01Z</time>
      </trkpt>
      <trkpt lat="46.46143" lon="5.43926">
        <ele>420</ele>
        <time>2019-05-04T11:07:01Z</time>
      </trkpt>
      <trkpt lat="46.46151" lon="5.43893">
        <ele>421</ele>
        <time>2019-05-04T11:08:01Z</time>
      </trkpt>
      <trkpt lat="46.46159" lon="5.43866">
        <ele>422</ele>
        <time>2019-05-04T11:09:01Z</time>
      </trkpt>
      <trkpt lat="46.46163" lon="5.4385">
        <ele>423</ele>
        <time>2019-05-04T11:10:01Z</time>
      </trkpt>
      <trkpt lat="46.46169" lon="5.43825">
        <ele>423</ele>
        <time>2019-05-04T11:11:01Z</time>
      </trkpt>
      <trkpt lat="46.46176" lon="5.43803">
        <ele>424</ele>
        <time>2019-05-04T11:12:01Z</time>
      </trkpt>
      <trkpt lat="46.46176" lon="5.438">
        <ele>424</ele>
        <time>2019-05-04T11:13:01Z</time>
      </trkpt>
      <trkpt lat="46.46181" lon="5.43782">
        <ele>425</ele>
        <time>2019-05-04T11:14:01Z</time>
      </trkpt>
      <trkpt lat="46.46185" lon="5.43763">
        <ele>426</ele>
        <time>2019-05-04T11:15:01Z</time>
      </trkpt>
      <trkpt lat="46.46186" lon="5.43757">
        <ele>426</ele>
        <time>2019-05-04T11:16:01Z</time>
      </trkpt>
      <trkpt lat="46.46188" lon="5.43722">
        <ele>426</ele>
        <time>2019-05-04T11:17:01Z</time>
      </trkpt>
      <trkpt lat="46.46187" lon="5.43707">
        <ele>426</ele>
        <time>2019-05-04T11:18:01Z</time>
      </trkpt>
      <trkpt lat="46.46185" lon="5.43693">
        <ele>427</ele>
        <time>2019-05-04T11:19:01Z</time>
      </trkpt>
      <trkpt lat="46.46182" lon="5.43678">
        <ele>427</ele>
        <time>2019-05-04T11:20:01Z</time>
      </trkpt>
      <trkpt lat="46.46179" lon="5.43664">
        <ele>426</ele>
        <time>2019-05-04T11:21:01Z</time>
      </trkpt>
      <trkpt lat="46.46174" lon="5.43651">
        <ele>425</ele>
        <time>2019-05-04T11:22:01Z</time>
      </trkpt>
      <trkpt lat="46.46168" lon="5.43638">
        <ele>424</ele>
        <time>2019-05-04T11:23:01Z</time>
      </trkpt>
      <trkpt lat="46.46162" lon="5.43626">
        <ele>424</ele>
        <time>2019-05-04T11:24:01Z</time>
      </trkpt>
      <trkpt lat="46.46156" lon="5.43615">
        <ele>423</ele>
        <time>2019-05-04T11:25:01Z</time>
      </trkpt>
      <trkpt lat="46.46149" lon="5.43605">
        <ele>423</ele>
        <time>2019-05-04T11:26:01Z</time>
      </trkpt>
      <trkpt lat="46.46141" lon="5.43597">
        <ele>423</ele>
        <time>2019-05-04T11:27:01Z</time>
      </trkpt>
      <trkpt lat="46.46133" lon="5.4359">
        <ele>423</ele>
        <time>2019-05-04T11:28:01Z</time>
      </trkpt>
      <trkpt lat="46.46128" lon="5.43586">
        <ele>423</ele>
        <time>2019-05-04T11:29:01Z</time>
      </trkpt>
      <trkpt lat="46.46124" lon="5.43583">
        <ele>423</ele>
        <time>2019-05-04T11:30:01Z</time>
      </trkpt>
      <trkpt lat="46.46115" lon="5.43578">
        <ele>422</ele>
        <time>2019-05-04T11:31:01Z</time>
      </trkpt>
      <trkpt lat="46.46105" lon="5.43574">
        <ele>422</ele>
        <time>2019-05-04T11:32:01Z</time>
      </trkpt>
      <trkpt lat="46.46094" lon="5.43572">
        <ele>423</ele>
        <time>2019-05-04T11:33:01Z</time>
      </trkpt>
      <trkpt lat="46.46083" lon="5.4357">
        <ele>423</ele>
        <time>2019-05-04T11:34:01Z</time>
      </trkpt>
      <trkpt lat="46.46073" lon="5.4357">
        <ele>423</ele>
        <time>2019-05-04T11:35:01Z</time>
      </trkpt>
      <trkpt lat="46.46061" lon="5.43569">
        <ele>423</ele>
        <time>2019-05-04T11:36:01Z</time>
      </trkpt>
      <trkpt lat="46.4605" lon="5.43568">
        <ele>423</ele>
        <time>2019-05-04T11:37:01Z</time>
      </trkpt>
      <trkpt lat="46.46039" lon="5.43567">
        <ele>423</ele>
        <time>2019-05-04T11:38:01Z</time>
      </trkpt>
      <trkpt lat="46.46028" lon="5.43565">
        <ele>423</ele>
        <time>2019-05-04T11:39:01Z</time>
      </trkpt>
      <trkpt lat="46.46004" lon="5.43557">
        <ele>422</ele>
        <time>2019-05-04T11:40:01Z</time>
      </trkpt>
      <trkpt lat="46.45981" lon="5.43543">
        <ele>421</ele>
        <time>2019-05-04T11:41:01Z</time>
      </trkpt>
      <trkpt lat="46.45939" lon="5.43509">
        <ele>419</ele>
        <time>2019-05-04T11:42:01Z</time>
      </trkpt>
      <trkpt lat="46.45909" lon="5.43488">
        <ele>418</ele>
        <time>2019-05-04T11:43:01Z</time>
      </trkpt>
      <trkpt lat="46.45888" lon="5.4347">
        <ele>416</ele>
        <time>2019-05-04T11:44:01Z</time>
      </trkpt>
      <trkpt lat="46.45847" lon="5.43438">
        <ele>413</ele>
        <time>2019-05-04T11:45:01Z</time>
      </trkpt>
      <trkpt lat="46.45827" lon="5.43423">
        <ele>412</ele>
        <time>2019-05-04T11:46:01Z</time>
      </trkpt>
      <trkpt lat="46.45805" lon="5.43406">
        <ele>412</ele>
        <time>2019-05-04T11:47:01Z</time>
      </trkpt>
      <trkpt lat="46.45788" lon="5.43393">
        <ele>411</ele>
        <time>2019-05-04T11:48:01Z</time>
      </trkpt>
      <trkpt lat="46.45772" lon="5.4338">
        <ele>410</ele>
        <time>2019-05-04T11:49:01Z</time>
      </trkpt>
      <trkpt lat="46.4576" lon="5.43372">
        <ele>410</ele>
        <time>2019-05-04T11:50:01Z</time>
      </trkpt>
      <trkpt lat="46.4575" lon="5.43364">
        <ele>409</ele>
        <time>2019-05-04T11:51:01Z</time>
      </trkpt>
      <trkpt lat="46.45744" lon="5.4336">
        <ele>409</ele>
        <time>2019-05-04T11:52:01Z</time>
      </trkpt>
      <trkpt lat="46.45738" lon="5.43354">
        <ele>409</ele>
        <time>2019-05-04T11:53:01Z</time>
      </trkpt>
      <trkpt lat="46.45732" lon="5.43346">
        <ele>409</ele>
        <time>2019-05-04T11:54:01Z</time>
      </trkpt>
      <trkpt lat="46.45726" lon="5.43336">
        <ele>408</ele>
        <time>2019-05-04T11:55:01Z</time>
      </trkpt>
      <trkpt lat="46.45719" lon="5.43324">
        <ele>408</ele>
        <time>2019-05-04T11:56:01Z</time>
      </trkpt>
      <trkpt lat="46.45713" lon="5.4331">
        <ele>408</ele>
        <time>2019-05-04T11:57:01Z</time>
      </trkpt>
      <trkpt lat="46.45706" lon="5.43295">
        <ele>408</ele>
        <time>2019-05-04T11:58:01Z</time>
      </trkpt>
      <trkpt lat="46.45698" lon="5.43275">
        <ele>407</ele>
        <time>2019-05-04T11:59:01Z</time>
      </trkpt>
      <trkpt lat="46.45685" lon="5.43245">
        <ele>406</ele>
        <time>2019-05-04T12:00:01Z</time>
      </trkpt>
      <trkpt lat="46.45672" lon="5.43217">
        <ele>406</ele>
        <time>2019-05-04T12:01:01Z</time>
      </trkpt>
      <trkpt lat="46.4566" lon="5.43192">
        <ele>405</ele>
        <time>2019-05-04T12:02:01Z</time>
      </trkpt>
      <trkpt lat="46.45655" lon="5.43179">
        <ele>405</ele>
        <time>2019-05-04T12:03:01Z</time>
      </trkpt>
      <trkpt lat="46.45652" lon="5.43174">
        <ele>404</ele>
        <time>2019-05-04T12:04:01Z</time>
      </trkpt>
      <trkpt lat="46.4565" lon="5.43169">
        <ele>404</ele>
        <time>2019-05-04T12:05:01Z</time>
      </trkpt>
      <trkpt lat="46.45631" lon="5.43126">
        <ele>405</ele>
        <time>2019-05-04T12:06:01Z</time>
      </trkpt>
      <trkpt lat="46.45619" lon="5.43098">
        <ele>405</ele>
        <time>2019-05-04T12:07:01Z</time>
      </trkpt>
      <trkpt lat="46.45608" lon="5.43078">
        <ele>405</ele>
        <time>2019-05-04T12:08:01Z</time>
      </trkpt>
      <trkpt lat="46.45602" lon="5.43064">
        <ele>405</ele>
        <time>2019-05-04T12:09:01Z</time>
      </trkpt>
      <trkpt lat="46.45594" lon="5.43048">
        <ele>406</ele>
        <time>2019-05-04T12:10:01Z</time>
      </trkpt>
      <trkpt lat="46.45587" lon="5.43035">
        <ele>406</ele>
        <time>2019-05-04T12:11:01Z</time>
      </trkpt>
      <trkpt lat="46.45582" lon="5.43026">
        <ele>406</ele>
        <time>2019-05-04T12:12:01Z</time>
      </trkpt>
      <trkpt lat="46.45576" lon="5.43015">
        <ele>406</ele>
        <time>2019-05-04T12:13:01Z</time>
      </trkpt>
      <trkpt lat="46.4557" lon="5.43005">
        <ele>406</ele>
        <time>2019-05-04T12:14:01Z</time>
      </trkpt>
      <trkpt lat="46.45565" lon="5.42996">
        <ele>407</ele>
        <time>2019-05-04T12:15:01Z</time>
      </trkpt>
      <trkpt lat="46.45554" lon="5.42981">
        <ele>408</ele>
        <time>2019-05-04T12:16:01Z</time>
      </trkpt>
      <trkpt lat="46.45541" lon="5.42965">
        <ele>409</ele>
        <time>2019-05-04T12:17:01Z</time>
      </trkpt>
      <trkpt lat="46.4553" lon="5.42951">
        <ele>410</ele>
        <time>2019-05-04T12:18:01Z</time>
      </trkpt>
      <trkpt lat="46.45524" lon="5.42944">
        <ele>410</ele>
        <time>2019-05-04T12:19:01Z</time>
      </trkpt>
      <trkpt lat="46.45521" lon="5.42939">
        <ele>411</ele>
        <time>2019-05-04T12:20:01Z</time>
      </trkpt>
      <trkpt lat="46.4551" lon="5.42925">
        <ele>411</ele>
        <time>2019-05-04T12:21:01Z</time>
      </trkpt>
      <trkpt lat="46.45502" lon="5.42914">
        <ele>412</ele>
        <time>2019-05-04T12:34:01Z</time>
      </trkpt>
      <trkpt lat="46.45495" lon="5.42905">
        <ele>412</ele>
        <time>2019-05-04T12:35:01Z</time>
      </trkpt>
      <trkpt lat="46.45487" lon="5.42894">
        <ele>413</ele>
        <time>2019-05-04T12:36:01Z</time>
      </trkpt>
      <trkpt lat="46.4548" lon="5.42884">
        <ele>413</ele>
        <time>2019-05-04T12:37:01Z</time>
      </trkpt>
      <trkpt lat="46.45471" lon="5.42874">
        <ele>414</ele>
        <time>2019-05-04T12:38:01Z</time>
      </trkpt>
      <trkpt lat="46.45463" lon="5.42864">
        <ele>414</ele>
        <time>2019-05-04T12:39:01Z</time>
      </trkpt>
      <trkpt lat="46.45455" lon="5.42857">
        <ele>414</ele>
        <time>2019-05-04T12:40:01Z</time>
      </trkpt>
      <trkpt lat="46.45449" lon="5.42851">
        <ele>414</ele>
        <time>2019-05-04T12:41:01Z</time>
      </trkpt>
      <trkpt lat="46.45438" lon="5.42838">
        <ele>415</ele>
        <time>2019-05-04T12:42:01Z</time>
      </trkpt>
      <trkpt lat="46.45431" lon="5.42832">
        <ele>415</ele>
        <time>2019-05-04T12:43:01Z</time>
      </trkpt>
      <trkpt lat="46.45423" lon="5.42825">
        <ele>414</ele>
        <time>2019-05-04T12:44:01Z</time>
      </trkpt>
      <trkpt lat="46.45404" lon="5.42805">
        <ele>414</ele>
        <time>2019-05-04T12:45:01Z</time>
      </trkpt>
      <trkpt lat="46.45397" lon="5.42796">
        <ele>414</ele>
        <time>2019-05-04T12:46:01Z</time>
      </trkpt>
      <trkpt lat="46.45387" lon="5.42786">
        <ele>414</ele>
        <time>2019-05-04T12:47:01Z</time>
      </trkpt>
      <trkpt lat="46.45368" lon="5.42762">
        <ele>415</ele>
        <time>2019-05-04T12:48:01Z</time>
      </trkpt>
      <trkpt lat="46.45355" lon="5.42739">
        <ele>416</ele>
        <time>2019-05-04T12:49:01Z</time>
      </trkpt>
      <trkpt lat="46.45345" lon="5.42721">
        <ele>416</ele>
        <time>2019-05-04T12:50:01Z</time>
      </trkpt>
      <trkpt lat="46.45333" lon="5.427">
        <ele>415</ele>
        <time>2019-05-04T12:51:01Z</time>
      </trkpt>
      <trkpt lat="46.45323" lon="5.42683">
        <ele>415</ele>
        <time>2019-05-04T12:52:01Z</time>
      </trkpt>
      <trkpt lat="46.45315" lon="5.42668">
        <ele>415</ele>
        <time>2019-05-04T12:53:01Z</time>
      </trkpt>
      <trkpt lat="46.45302" lon="5.42645">
        <ele>416</ele>
        <time>2019-05-04T12:54:01Z</time>
      </trkpt>
      <trkpt lat="46.45286" lon="5.42616">
        <ele>417</ele>
        <time>2019-05-04T12:55:01Z</time>
      </trkpt>
      <trkpt lat="46.4526" lon="5.42569">
        <ele>418</ele>
        <time>2019-05-04T12:56:01Z</time>
      </trkpt>
      <trkpt lat="46.45251" lon="5.42552">
        <ele>419</ele>
        <time>2019-05-04T12:57:01Z</time>
      </trkpt>
      <trkpt lat="46.45243" lon="5.42536">
        <ele>419</ele>
        <time>2019-05-04T12:58:01Z</time>
      </trkpt>
      <trkpt lat="46.45236" lon="5.42524">
        <ele>419</ele>
        <time>2019-05-04T12:59:01Z</time>
      </trkpt>
      <trkpt lat="46.4522" lon="5.42498">
        <ele>420</ele>
        <time>2019-05-04T13:00:01Z</time>
      </trkpt>
      <trkpt lat="46.452" lon="5.42458">
        <ele>422</ele>
        <time>2019-05-04T13:01:01Z</time>
      </trkpt>
      <trkpt lat="46.45187" lon="5.42436">
        <ele>423</ele>
        <time>2019-05-04T13:02:01Z</time>
      </trkpt>
      <trkpt lat="46.45179" lon="5.42422">
        <ele>423</ele>
        <time>2019-05-04T13:03:01Z</time>
      </trkpt>
      <trkpt lat="46.45174" lon="5.42413">
        <ele>424</ele>
        <time>2019-05-04T13:04:01Z</time>
      </trkpt>
      <trkpt lat="46.45154" lon="5.4238">
        <ele>426</ele>
        <time>2019-05-04T13:05:01Z</time>
      </trkpt>
      <trkpt lat="46.4515" lon="5.42374">
        <ele>427</ele>
        <time>2019-05-04T13:06:01Z</time>
      </trkpt>
      <trkpt lat="46.45143" lon="5.42367">
        <ele>427</ele>
        <time>2019-05-04T13:07:01Z</time>
      </trkpt>
      <trkpt lat="46.45135" lon="5.42359">
        <ele>427</ele>
        <time>2019-05-04T13:08:01Z</time>
      </trkpt>
      <trkpt lat="46.45129" lon="5.42352">
        <ele>428</ele>
        <time>2019-05-04T13:09:01Z</time>
      </trkpt>
      <trkpt lat="46.45124" lon="5.42347">
        <ele>428</ele>
        <time>2019-05-04T13:10:01Z</time>
      </trkpt>
      <trkpt lat="46.45118" lon="5.42336">
        <ele>428</ele>
        <time>2019-05-04T13:11:01Z</time>
      </trkpt>
      <trkpt lat="46.45112" lon="5.42325">
        <ele>429</ele>
        <time>2019-05-04T13:12:01Z</time>
      </trkpt>
      <trkpt lat="46.45107" lon="5.42318">
        <ele>429</ele>
        <time>2019-05-04T13:13:01Z</time>
      </trkpt>
      <trkpt lat="46.45101" lon="5.42311">
        <ele>429</ele>
        <time>2019-05-04T13:14:01Z</time>
      </trkpt>
      <trkpt lat="46.45095" lon="5.42304">
        <ele>429</ele>
        <time>2019-05-04T13:15:01Z</time>
      </trkpt>
      <trkpt lat="46.4509" lon="5.42295">
        <ele>429</ele>
        <time>2019-05-04T13:16:01Z</time>
      </trkpt>
      <trkpt lat="46.45086" lon="5.42285">
        <ele>429</ele>
        <time>2019-05-04T13:17:01Z</time>
      </trkpt>
      <trkpt lat="46.45084" lon="5.42277">
        <ele>429</ele>
        <time>2019-05-04T13:18:01Z</time>
      </trkpt>
      <trkpt lat="46.45083" lon="5.42267">
        <ele>429</ele>
        <time>2019-05-04T13:19:01Z</time>
      </trkpt>
      <trkpt lat="46.45082" lon="5.42259">
        <ele>430</ele>
        <time>2019-05-04T13:20:01Z</time>
      </trkpt>
      <trkpt lat="46.45081" lon="5.42255">
        <ele>430</ele>
        <time>2019-05-04T13:21:01Z</time>
      </trkpt>
      <trkpt lat="46.45079" lon="5.42223">
        <ele>431</ele>
        <time>2019-05-04T13:22:01Z</time>
      </trkpt>
      <trkpt lat="46.45077" lon="5.42206">
        <ele>431</ele>
        <time>2019-05-04T13:23:01Z</time>
      </trkpt>
      <trkpt lat="46.45073" lon="5.42192">
        <ele>432</ele>
        <time>2019-05-04T13:24:01Z</time>
      </trkpt>
      <trkpt lat="46.4507" lon="5.42176">
        <ele>432</ele>
        <time>2019-05-04T13:25:01Z</time>
      </trkpt>
      <trkpt lat="46.45066" lon="5.42164">
        <ele>432</ele>
        <time>2019-05-04T13:26:01Z</time>
      </trkpt>
      <trkpt lat="46.45062" lon="5.42153">
        <ele>433</ele>
        <time>2019-05-04T13:27:01Z</time>
      </trkpt>
      <trkpt lat="46.45055" lon="5.42133">
        <ele>435</ele>
        <time>2019-05-04T13:28:01Z</time>
      </trkpt>
      <trkpt lat="46.45047" lon="5.42105">
        <ele>437</ele>
        <time>2019-05-04T13:29:01Z</time>
      </trkpt>
      <trkpt lat="46.45031" lon="5.4208">
        <ele>437</ele>
        <time>2019-05-04T13:30:01Z</time>
      </trkpt>
      <trkpt lat="46.45026" lon="5.42069">
        <ele>438</ele>
        <time>2019-05-04T13:31:01Z</time>
      </trkpt>
      <trkpt lat="46.45003" lon="5.42032">
        <ele>438</ele>
        <time>2019-05-04T13:32:01Z</time>
      </trkpt>
      <trkpt lat="46.44991" lon="5.42014">
        <ele>438</ele>
        <time>2019-05-04T13:33:01Z</time>
      </trkpt>
      <trkpt lat="46.44983" lon="5.42">
        <ele>439</ele>
        <time>2019-05-04T13:34:01Z</time>
      </trkpt>
      <trkpt lat="46.44973" lon="5.41985">
        <ele>438</ele>
        <time>2019-05-04T13:35:01Z</time>
      </trkpt>
      <trkpt lat="46.44966" lon="5.41973">
        <ele>437</ele>
        <time>2019-05-04T13:36:01Z</time>
      </trkpt>
      <trkpt lat="46.4496" lon="5.41962">
        <ele>436</ele>
        <time>2019-05-04T13:37:01Z</time>
      </trkpt>
      <trkpt lat="46.44956" lon="5.41948">
        <ele>436</ele>
        <time>2019-05-04T13:38:01Z</time>
      </trkpt>
      <trkpt lat="46.44954" lon="5.41934">
        <ele>436</ele>
        <time>2019-05-04T13:39:01Z</time>
      </trkpt>
      <trkpt lat="46.44954" lon="5.41922">
        <ele>436</ele>
        <time>2019-05-04T13:40:01Z</time>
      </trkpt>
      <trkpt lat="46.44955" lon="5.41907">
        <ele>436</ele>
        <time>2019-05-04T13:41:01Z</time>
      </trkpt>
      <trkpt lat="46.44958" lon="5.41892">
        <ele>437</ele>
        <time>2019-05-04T13:42:01Z</time>
      </trkpt>
      <trkpt lat="46.44961" lon="5.41876">
        <ele>437</ele>
        <time>2019-05-04T13:43:01Z</time>
      </trkpt>
      <trkpt lat="46.44966" lon="5.41862">
        <ele>438</ele>
        <time>2019-05-04T13:44:01Z</time>
      </trkpt>
      <trkpt lat="46.44973" lon="5.41845">
        <ele>439</ele>
        <time>2019-05-04T13:45:01Z</time>
      </trkpt>
      <trkpt lat="46.44979" lon="5.41833">
        <ele>439</ele>
        <time>2019-05-04T13:46:01Z</time>
      </trkpt>
      <trkpt lat="46.44985" lon="5.41823">
        <ele>439</ele>
        <time>2019-05-04T13:47:01Z</time>
      </trkpt>
      <trkpt lat="46.44994" lon="5.41814">
        <ele>439</ele>
        <time>2019-05-04T13:48:01Z</time>
      </trkpt>
      <trkpt lat="46.45003" lon="5.41808">
        <ele>439</ele>
        <time>2019-05-04T13:49:01Z</time>
      </trkpt>
      <trkpt lat="46.45013" lon="5.41803">
        <ele>439</ele>
        <time>2019-05-04T13:50:01Z</time>
      </trkpt>
      <trkpt lat="46.45024" lon="5.41801">
        <ele>439</ele>
        <time>2019-05-04T13:51:01Z</time>
      </trkpt>
      <trkpt lat="46.45035" lon="5.41803">
        <ele>440</ele>
        <time>2019-05-04T13:52:01Z</time>
      </trkpt>
      <trkpt lat="46.45049" lon="5.41807">
        <ele>442</ele>
        <time>2019-05-04T13:53:01Z</time>
      </trkpt>
      <trkpt lat="46.45062" lon="5.41811">
        <ele>443</ele>
        <time>2019-05-04T13:54:01Z</time>
      </trkpt>
      <trkpt lat="46.45077" lon="5.41812">
        <ele>445</ele>
        <time>2019-05-04T13:55:01Z</time>
      </trkpt>
      <trkpt lat="46.45094" lon="5.41811">
        <ele>446</ele>
        <time>2019-05-04T13:56:01Z</time>
      </trkpt>
      <trkpt lat="46.45111" lon="5.41809">
        <ele>448</ele>
        <time>2019-05-04T13:57:01Z</time>
      </trkpt>
      <trkpt lat="46.45126" lon="5.41804">
        <ele>449</ele>
        <time>2019-05-04T13:58:01Z</time>
      </trkpt>
      <trkpt lat="46.45137" lon="5.418">
        <ele>449</ele>
        <time>2019-05-04T13:59:01Z</time>
      </trkpt>
      <trkpt lat="46.45151" lon="5.41792">
        <ele>449</ele>
        <time>2019-05-04T14:00:01Z</time>
      </trkpt>
      <trkpt lat="46.45162" lon="5.41784">
        <ele>448</ele>
        <time>2019-05-04T14:01:01Z</time>
      </trkpt>
      <trkpt lat="46.45172" lon="5.41773">
        <ele>447</ele>
        <time>2019-05-04T14:02:01Z</time>
      </trkpt>
      <trkpt lat="46.45182" lon="5.41759">
        <ele>446</ele>
        <time>2019-05-04T14:03:01Z</time>
      </trkpt>
      <trkpt lat="46.4519" lon="5.41745">
        <ele>445</ele>
        <time>2019-05-04T14:04:01Z</time>
      </trkpt>
      <trkpt lat="46.45198" lon="5.41728">
        <ele>445</ele>
        <time>2019-05-04T14:05:01Z</time>
      </trkpt>
      <trkpt lat="46.45206" lon="5.41707">
        <ele>444</ele>
        <time>2019-05-04T14:06:01Z</time>
      </trkpt>
      <trkpt lat="46.45211" lon="5.41693">
        <ele>444</ele>
        <time>2019-05-04T14:07:01Z</time>
      </trkpt>
      <trkpt lat="46.45217" lon="5.41675">
        <ele>443</ele>
        <time>2019-05-04T14:08:01Z</time>
      </trkpt>
      <trkpt lat="46.45222" lon="5.41658">
        <ele>443</ele>
        <time>2019-05-04T14:09:01Z</time>
      </trkpt>
      <trkpt lat="46.45226" lon="5.41641">
        <ele>444</ele>
        <time>2019-05-04T14:10:01Z</time>
      </trkpt>
      <trkpt lat="46.45232" lon="5.41614">
        <ele>445</ele>
        <time>2019-05-04T14:11:01Z</time>
      </trkpt>
      <trkpt lat="46.45234" lon="5.41601">
        <ele>445</ele>
        <time>2019-05-04T14:12:01Z</time>
      </trkpt>
      <trkpt lat="46.45238" lon="5.41584">
        <ele>445</ele>
        <time>2019-05-04T14:13:01Z</time>
      </trkpt>
      <trkpt lat="46.45242" lon="5.41572">
        <ele>445</ele>
        <time>2019-05-04T14:14:01Z</time>
      </trkpt>
      <trkpt lat="46.45246" lon="5.41561">
        <ele>445</ele>
        <time>2019-05-04T14:15:01Z</time>
      </trkpt>
      <trkpt lat="46.45249" lon="5.41556">
        <ele>444</ele>
        <time>2019-05-04T14:16:01Z</time>
      </trkpt>
      <trkpt lat="46.45254" lon="5.4155">
        <ele>444</ele>
        <time>2019-05-04T14:17:01Z</time>
      </trkpt>
      <trkpt lat="46.45261" lon="5.41542">
        <ele>444</ele>
        <time>2019-05-04T14:18:01Z</time>
      </trkpt>
      <trkpt lat="46.4527" lon="5.41534">
        <ele>444</ele>
        <time>2019-05-04T14:19:01Z</time>
      </trkpt>
      <trkpt lat="46.45275" lon="5.41532">
        <ele>443</ele>
        <time>2019-05-04T14:20:01Z</time>
      </trkpt>
      <trkpt lat="46.45281" lon="5.41529">
        <ele>443</ele>
        <time>2019-05-04T14:21:01Z</time>
      </trkpt>
      <trkpt lat="46.45289" lon="5.41527">
        <ele>443</ele>
        <time>2019-05-04T14:22:01Z</time>
      </trkpt>
      <trkpt lat="46.453" lon="5.41526">
        <ele>443</ele>
        <time>2019-05-04T14:23:01Z</time>
      </trkpt>
      <trkpt lat="46.4531" lon="5.41527">
        <ele>444</ele>
        <time>2019-05-04T14:24:01Z</time>
      </trkpt>
      <trkpt lat="46.45319" lon="5.4153">
        <ele>444</ele>
        <time>2019-05-04T14:25:01Z</time>
      </trkpt>
      <trkpt lat="46.4533" lon="5.41533">
        <ele>445</ele>
        <time>2019-05-04T14:26:01Z</time>
      </trkpt>
      <trkpt lat="46.45342" lon="5.41534">
        <ele>446</ele>
        <time>2019-05-04T14:27:01Z</time>
      </trkpt>
      <trkpt lat="46.45353" lon="5.41535">
        <ele>446</ele>
        <time>2019-05-04T14:28:01Z</time>
      </trkpt>
      <trkpt lat="46.45367" lon="5.41535">
        <ele>447</ele>
        <time>2019-05-04T14:29:01Z</time>
      </trkpt>
      <trkpt lat="46.45382" lon="5.41533">
        <ele>448</ele>
        <time>2019-05-04T14:30:01Z</time>
      </trkpt>
      <trkpt lat="46.45398" lon="5.4153">
        <ele>448</ele>
        <time>2019-05-04T14:31:01Z</time>
      </trkpt>
      <trkpt lat="46.45415" lon="5.41523">
        <ele>448</ele>
        <time>2019-05-04T14:32:01Z</time>
      </trkpt>
      <trkpt lat="46.45435" lon="5.41514">
        <ele>449</ele>
        <time>2019-05-04T14:33:01Z</time>
      </trkpt>
      <trkpt lat="46.45461" lon="5.41504">
        <ele>450</ele>
        <time>2019-05-04T14:34:01Z</time>
      </trkpt>
      <trkpt lat="46.45481" lon="5.41496">
        <ele>452</ele>
        <time>2019-05-04T14:35:01Z</time>
      </trkpt>
      <trkpt lat="46.45499" lon="5.41488">
        <ele>453</ele>
        <time>2019-05-04T14:36:01Z</time>
      </trkpt>
      <trkpt lat="46.45518" lon="5.41479">
        <ele>454</ele>
        <time>2019-05-04T14:37:01Z</time>
      </trkpt>
      <trkpt lat="46.45534" lon="5.41469">
        <ele>455</ele>
        <time>2019-05-04T14:38:01Z</time>
      </trkpt>
      <trkpt lat="46.45545" lon="5.41461">
        <ele>455</ele>
        <time>2019-05-04T14:39:01Z</time>
      </trkpt>
      <trkpt lat="46.4556" lon="5.41451">
        <ele>456</ele>
        <time>2019-05-04T14:40:01Z</time>
      </trkpt>
      <trkpt lat="46.45573" lon="5.41443">
        <ele>456</ele>
        <time>2019-05-04T14:41:01Z</time>
      </trkpt>
      <trkpt lat="46.45578" lon="5.41436">
        <ele>455</ele>
        <time>2019-05-04T14:42:01Z</time>
      </trkpt>
      <trkpt lat="46.45587" lon="5.41425">
        <ele>455</ele>
        <time>2019-05-04T14:43:01Z</time>
      </trkpt>
      <trkpt lat="46.45598" lon="5.4141">
        <ele>456</ele>
        <time>2019-05-04T14:44:01Z</time>
      </trkpt>
      <trkpt lat="46.45602" lon="5.41402">
        <ele>456</ele>
        <time>2019-05-04T14:45:01Z</time>
      </trkpt>
      <trkpt lat="46.45611" lon="5.41386">
        <ele>457</ele>
        <time>2019-05-04T14:46:01Z</time>
      </trkpt>
      <trkpt lat="46.45617" lon="5.41373">
        <ele>457</ele>
        <time>2019-05-04T14:47:01Z</time>
      </trkpt>
      <trkpt lat="46.45622" lon="5.41359">
        <ele>456</ele>
        <time>2019-05-04T14:48:01Z</time>
      </trkpt>
      <trkpt lat="46.45628" lon="5.41348">
        <ele>456</ele>
        <time>2019-05-04T14:49:01Z</time>
      </trkpt>
      <trkpt lat="46.45634" lon="5.41336">
        <ele>456</ele>
        <time>2019-05-04T14:50:01Z</time>
      </trkpt>
      <trkpt lat="46.45641" lon="5.41324">
        <ele>456</ele>
        <time>2019-05-04T14:51:01Z</time>
      </trkpt>
      <trkpt lat="46.45649" lon="5.41313">
        <ele>456</ele>
        <time>2019-05-04T14:52:01Z</time>
      </trkpt>
      <trkpt lat="46.45659" lon="5.413">
        <ele>456</ele>
        <time>2019-05-04T14:53:01Z</time>
      </trkpt>
      <trkpt lat="46.45668" lon="5.41288">
        <ele>456</ele>
        <time>2019-05-04T14:54:01Z</time>
      </trkpt>
      <trkpt lat="46.45677" lon="5.41277">
        <ele>456</ele>
        <time>2019-05-04T14:55:01Z</time>
      </trkpt>
      <trkpt lat="46.45705" lon="5.41243">
        <ele>458</ele>
        <time>2019-05-04T14:56:01Z</time>
      </trkpt>
      <trkpt lat="46.45729" lon="5.41214">
        <ele>459</ele>
        <time>2019-05-04T14:57:01Z</time>
      </trkpt>
      <trkpt lat="46.45739" lon="5.41202">
        <ele>459</ele>
        <time>2019-05-04T14:58:01Z</time>
      </trkpt>
      <trkpt lat="46.45748" lon="5.41189">
        <ele>458</ele>
        <time>2019-05-04T14:59:01Z</time>
      </trkpt>
      <trkpt lat="46.45753" lon="5.4118">
        <ele>458</ele>
        <time>2019-05-04T15:00:01Z</time>
      </trkpt>
      <trkpt lat="46.4576" lon="5.41162">
        <ele>458</ele>
        <time>2019-05-04T15:01:01Z</time>
      </trkpt>
      <trkpt lat="46.45765" lon="5.41146">
        <ele>458</ele>
        <time>2019-05-04T15:02:01Z</time>
      </trkpt>
      <trkpt lat="46.45771" lon="5.41122">
        <ele>458</ele>
        <time>2019-05-04T15:03:01Z</time>
      </trkpt>
      <trkpt lat="46.45776" lon="5.41098">
        <ele>458</ele>
        <time>2019-05-04T15:04:01Z</time>
      </trkpt>
      <trkpt lat="46.4578" lon="5.41081">
        <ele>457</ele>
        <time>2019-05-04T15:05:01Z</time>
      </trkpt>
      <trkpt lat="46.45785" lon="5.41062">
        <ele>458</ele>
        <time>2019-05-04T15:06:01Z</time>
      </trkpt>
      <trkpt lat="46.45792" lon="5.41037">
        <ele>458</ele>
        <time>2019-05-04T15:07:01Z</time>
      </trkpt>
      <trkpt lat="46.458" lon="5.4101">
        <ele>457</ele>
        <time>2019-05-04T15:08:01Z</time>
      </trkpt>
      <trkpt lat="46.45808" lon="5.40983">
        <ele>457</ele>
      </trkpt>
      <trkpt lat="46.45813" lon="5.40965">
        <ele>457</ele>
      </trkpt>
      <trkpt lat="46.45817" lon="5.40948">
        <ele>458</ele>
      </trkpt>
      <trkpt lat="46.4582" lon="5.40931">
        <ele>458</ele>
      </trkpt>
      <trkpt lat="46.45825" lon="5.40908">
        <ele>458</ele>
      </trkpt>
      <trkpt lat="46.45829" lon="5.40888">
        <ele>458</ele>
      </trkpt>
      <trkpt lat="46.45833" lon="5.40863">
        <ele>458</ele>
      </trkpt>
      <trkpt lat="46.45838" lon="5.40839">
        <ele>459</ele>
      </trkpt>
      <trkpt lat="46.4584" lon="5.40821">
        <ele>459</ele>
      </trkpt>
      <trkpt lat="46.45841" lon="5.40807">
        <ele>460</ele>
      </trkpt>
      <trkpt lat="46.45843" lon="5.40789">
        <ele>461</ele>
      </trkpt>
      <trkpt lat="46.45845" lon="5.40771">
        <ele>461</ele>
      </trkpt>
      <trkpt lat="46.45846" lon="5.40755">
        <ele>462</ele>
      </trkpt>
      <trkpt lat="46.45848" lon="5.40739">
        <ele>462</ele>
      </trkpt>
      <trkpt lat="46.4585" lon="5.40725">
        <ele>463</ele>
      </trkpt>
      <trkpt lat="46.45854" lon="5.40708">
        <ele>463</ele>
      </trkpt>
      <trkpt lat="46.4586" lon="5.40692">
        <ele>463</ele>
      </trkpt>
      <trkpt lat="46.45866" lon="5.40675">
        <ele>463</ele>
      </trkpt>
      <trkpt lat="46.45878" lon="5.40647">
        <ele>464</ele>
      </trkpt>
      <trkpt lat="46.45892" lon="5.40613">
        <ele>467</ele>
      </trkpt>
      <trkpt lat="46.459" lon="5.4059">
        <ele>470</ele>
      </trkpt>
      <trkpt lat="46.45909" lon="5.4057">
        <ele>471</ele>
      </trkpt>
      <trkpt lat="46.45917" lon="5.40552">
        <ele>470</ele>
      </trkpt>
      <trkpt lat="46.45925" lon="5.40536">
        <ele>471</ele>
      </trkpt>
      <trkpt lat="46.45948" lon="5.40502">
        <ele>473</ele>
      </trkpt>
      <trkpt lat="46.45969" lon="5.40471">
        <ele>476</ele>
      </trkpt>
      <trkpt lat="46.45981" lon="5.4045">
        <ele>478</ele>
      </trkpt>
      <trkpt lat="46.4599" lon="5.40434">
        <ele>479</ele>
      </trkpt>
      <trkpt lat="46.45998" lon="5.40417">
        <ele>480</ele>
      </trkpt>
      <trkpt lat="46.46001" lon="5.40409">
        <ele>481</ele>
      </trkpt>
      <trkpt lat="46.46006" lon="5.404">
        <ele>482</ele>
      </trkpt>
      <trkpt lat="46.46009" lon="5.4039">
        <ele>484</ele>
      </trkpt>
      <trkpt lat="46.46013" lon="5.4038">
        <ele>485</ele>
      </trkpt>
      <trkpt lat="46.46016" lon="5.40371">
        <ele>486</ele>
      </trkpt>
      <trkpt lat="46.46022" lon="5.40358">
        <ele>487</ele>
      </trkpt>
      <trkpt lat="46.46026" lon="5.40352">
        <ele>488</ele>
      </trkpt>
      <trkpt lat="46.46032" lon="5.40342">
        <ele>489</ele>
      </trkpt>
      <trkpt lat="46.4604" lon="5.40334">
        <ele>489</ele>
      </trkpt>
      <trkpt lat="46.4605" lon="5.40326">
        <ele>490</ele>
      </trkpt>
      <trkpt lat="46.4606" lon="5.40321">
        <ele>491</ele>
      </trkpt>
      <trkpt lat="46.46071" lon="5.40315">
        <ele>492</ele>
      </trkpt>
      <trkpt lat="46.46083" lon="5.4031">
        <ele>492</ele>
      </trkpt>
      <trkpt lat="46.46095" lon="5.40306">
        <ele>492</ele>
      </trkpt>
      <trkpt lat="46.4611" lon="5.40298">
        <ele>492</ele>
      </trkpt>
      <trkpt lat="46.46117" lon="5.40292">
        <ele>492</ele>
      </trkpt>
      <trkpt lat="46.46123" lon="5.40285">
        <ele>492</ele>
      </trkpt>
      <trkpt lat="46.4613" lon="5.40274">
        <ele>492</ele>
      </trkpt>
      <trkpt lat="46.4614" lon="5.40258">
        <ele>492</ele>
      </trkpt>
      <trkpt lat="46.46152" lon="5.40236">
        <ele>492</ele>
      </trkpt>
      <trkpt lat="46.46168" lon="5.40206">
        <ele>493</ele>
      </trkpt>
      <trkpt lat="46.46181" lon="5.4018">
        <ele>494</ele>
      </trkpt>
      <trkpt lat="46.46186" lon="5.40166">
        <ele>495</ele>
      </trkpt>
      <trkpt lat="46.46201" lon="5.40135">
        <ele>493</ele>
      </trkpt>
      <trkpt lat="46.46256" lon="5.40091">
        <ele>493</ele>
      </trkpt>
      <trkpt lat="46.46352" lon="5.4009">
        <ele>497.2</ele>
      </trkpt>
      <trkpt lat="46.46445" lon="5.4007">
        <ele>504</ele>
      </trkpt>
      <trkpt lat="46.46494" lon="5.40071">
        <ele>504</ele>
      </trkpt>
      <trkpt lat="46.46519" lon="5.40077">
        <ele>505</ele>
      </trkpt>
      <trkpt lat="46.46647" lon="5.40141">
        <ele>509</ele>
      </trkpt>
      <trkpt lat="46.46914" lon="5.40276">
        <ele>525</ele>
      </trkpt>
      <trkpt lat="46.46987" lon="5.40312">
        <ele>528</ele>
      </trkpt>
      <trkpt lat="46.47034" lon="5.40323">
        <ele>526</ele>
      </trkpt>
      <trkpt lat="46.47088" lon="5.40327">
        <ele>527</ele>
      </trkpt>
      <trkpt lat="46.4714" lon="5.40333">
        <ele>521</ele>
      </trkpt>
      <trkpt lat="46.47189" lon="5.40352">
        <ele>526.8</ele>
      </trkpt>
      <trkpt lat="46.47221" lon="5.40394">
        <ele>528</ele>
      </trkpt>
      <trkpt lat="46.47251" lon="5.4042">
        <ele>526</ele>
      </trkpt>
      <trkpt lat="46.47305" lon="5.40439">
        <ele>524</ele>
      </trkpt>
      <trkpt lat="46.47373" lon="5.40448">
        <ele>518</ele>
      </trkpt>
      <trkpt lat="46.47458" lon="5.40445">
        <ele>512</ele>
      </trkpt>
      <trkpt lat="46.47492" lon="5.40455">
        <ele>511</ele>
      </trkpt>
      <trkpt lat="46.47514" lon="5.40485">
        <ele>513</ele>
      </trkpt>
      <trkpt lat="46.47532" lon="5.40474">
        <ele>513</ele>
      </trkpt>
      <trkpt lat="46.47539" lon="5.40426">
        <ele>512</ele>
      </trkpt>
      <trkpt lat="46.47531" lon="5.40392">
        <ele>507</ele>
      </trkpt>
      <trkpt lat="46.47519" lon="5.40354">
        <ele>504</ele>
      </trkpt>
      <trkpt lat="46.47519" lon="5.40325">
        <ele>498</ele>
      </trkpt>
      <trkpt lat="46.47532" lon="5.40297">
        <ele>497</ele>
      </trkpt>
      <trkpt lat="46.47554" lon="5.40268">
        <ele>496</ele>
      </trkpt>
      <trkpt lat="46.47599" lon="5.40255">
        <ele>497</ele>
      </trkpt>
      <trkpt lat="46.47644" lon="5.40247">
        <ele>489.1</ele>
      </trkpt>
      <trkpt lat="46.47685" lon="5.40243">
        <ele>492</ele>
      </trkpt>
      <trkpt lat="46.477" lon="5.40224">
        <ele>491</ele>
      </trkpt>
      <trkpt lat="46.47709" lon="5.40196">
        <ele>489</ele>
      </trkpt>
      <trkpt lat="46.47716" lon="5.40179">
        <ele>488.8</ele>
      </trkpt>
      <trkpt lat="46.47722" lon="5.40162">
        <ele>483</ele>
      </trkpt>
      <trkpt lat="46.47738" lon="5.40151">
        <ele>484</ele>
      </trkpt>
      <trkpt lat="46.47749" lon="5.40136">
        <ele>483</ele>
      </trkpt>
      <trkpt lat="46.47755" lon="5.40113">
        <ele>486</ele>
      </trkpt>
      <trkpt lat="46.47762" lon="5.40082">
        <ele>480.2</ele>
      </trkpt>
      <trkpt lat="46.4776" lon="5.40051">
        <ele>479</ele>
      </trkpt>
      <trkpt lat="46.47761" lon="5.40015">
        <ele>476</ele>
      </trkpt>
      <trkpt lat="46.47768" lon="5.40006">
        <ele>476</ele>
      </trkpt>
      <trkpt lat="46.47782" lon="5.39996">
        <ele>471</ele>
      </trkpt>
      <trkpt lat="46.47812" lon="5.39977">
        <ele>470</ele>
      </trkpt>
      <trkpt lat="46.47883" lon="5.39942">
        <ele>469</ele>
      </trkpt>
      <trkpt lat="46.47995" lon="5.39882">
        <ele>464</ele>
      </trkpt>
      <trkpt lat="46.4801" lon="5.39881">
        <ele>464</ele>
      </trkpt>
      <trkpt lat="46.48025" lon="5.39883">
        <ele>464</ele>
      </trkpt>
      <trkpt lat="46.48068" lon="5.39907">
        <ele>465</ele>
      </trkpt>
      <trkpt lat="46.48093" lon="5.39908">
        <ele>466</ele>
      </trkpt>
      <trkpt lat="46.48121" lon="5.39901">
        <ele>466</ele>
      </trkpt>
      <trkpt lat="46.48148" lon="5.39889">
        <ele>467</ele>
      </trkpt>
      <trkpt lat="46.48176" lon="5.3987">
        <ele>469</ele>
      </trkpt>
      <trkpt lat="46.48189" lon="5.39859">
        <ele>469</ele>
      </trkpt>
      <trkpt lat="46.48194" lon="5.39844">
        <ele>469</ele>
      </trkpt>
      <trkpt lat="46.48189" lon="5.398">
        <ele>466</ele>
      </trkpt>
      <trkpt lat="46.48181" lon="5.39748">
        <ele>464</ele>
      </trkpt>
      <trkpt lat="46.48176" lon="5.39717">
        <ele>464</ele>
      </trkpt>
      <trkpt lat="46.48172" lon="5.3968">
        <ele>463</ele>
      </trkpt>
      <trkpt lat="46.48179" lon="5.39644">
        <ele>461</ele>
      </trkpt>
      <trkpt lat="46.48187" lon="5.39617">
        <ele>460</ele>
      </trkpt>
      <trkpt lat="46.48206" lon="5.39569">
        <ele>454</ele>
      </trkpt>
      <trkpt lat="46.4822" lon="5.39504">
        <ele>453</ele>
      </trkpt>
      <trkpt lat="46.48234" lon="5.3948">
        <ele>446</ele>
      </trkpt>
      <trkpt lat="46.48245" lon="5.39468">
        <ele>444</ele>
      </trkpt>
      <trkpt lat="46.48263" lon="5.39465">
        <ele>451</ele>
      </trkpt>
      <trkpt lat="46.48285" lon="5.39469">
        <ele>452</ele>
      </trkpt>
      <trkpt lat="46.48294" lon="5.39444">
        <ele>451</ele>
      </trkpt>
      <trkpt lat="46.48305" lon="5.394">
        <ele>440</ele>
      </trkpt>
      <trkpt lat="46.48316" lon="5.39372">
        <ele>437</ele>
      </trkpt>
      <trkpt lat="46.48326" lon="5.39351">
        <ele>436</ele>
      </trkpt>
      <trkpt lat="46.48341" lon="5.3933">
        <ele>434</ele>
      </trkpt>
      <trkpt lat="46.48356" lon="5.39316">
        <ele>430.9</ele>
      </trkpt>
      <trkpt lat="46.48375" lon="5.39314">
        <ele>430</ele>
      </trkpt>
      <trkpt lat="46.48393" lon="5.39319">
        <ele>432</ele>
      </trkpt>
      <trkpt lat="46.48414" lon="5.39322">
        <ele>435</ele>
      </trkpt>
      <trkpt lat="46.48428" lon="5.39321">
        <ele>433.5</ele>
      </trkpt>
      <trkpt lat="46.48473" lon="5.39307">
        <ele>429.6</ele>
      </trkpt>
      <trkpt lat="46.48527" lon="5.39295">
        <ele>424.8</ele>
      </trkpt>
      <trkpt lat="46.48596" lon="5.39282">
        <ele>416.3</ele>
      </trkpt>
      <trkpt lat="46.48654" lon="5.39278">
        <ele>413</ele>
      </trkpt>
      <trkpt lat="46.48694" lon="5.39292">
        <ele>407</ele>
      </trkpt>
      <trkpt lat="46.48711" lon="5.39305">
        <ele>407</ele>
      </trkpt>
      <trkpt lat="46.48718" lon="5.3931">
        <ele>407</ele>
      </trkpt>
      <trkpt lat="46.48728" lon="5.39307">
        <ele>406</ele>
      </trkpt>
      <trkpt lat="46.48731" lon="5.39297">
        <ele>405</ele>
      </trkpt>
      <trkpt lat="46.4873" lon="5.39278">
        <ele>403.6</ele>
      </trkpt>
      <trkpt lat="46.48708" lon="5.39247">
        <ele>397</ele>
      </trkpt>
      <trkpt lat="46.48637" lon="5.39144">
        <ele>389.5</ele>
      </trkpt>
      <trkpt lat="46.4861" lon="5.3912">
        <ele>388</ele>
      </trkpt>
      <trkpt lat="46.4858" lon="5.39102">
        <ele>386.5</ele>
      </trkpt>
      <trkpt lat="46.48528" lon="5.39064">
        <ele>380</ele>
      </trkpt>
      <trkpt lat="46.4851" lon="5.39051">
        <ele>379</ele>
      </trkpt>
      <trkpt lat="46.48502" lon="5.39033">
        <ele>377</ele>
      </trkpt>
      <trkpt lat="46.48491" lon="5.38995">
        <ele>372</ele>
      </trkpt>
      <trkpt lat="46.4848" lon="5.38962">
        <ele>369.2</ele>
      </trkpt>
      <trkpt lat="46.48464" lon="5.38929">
        <ele>368</ele>
      </trkpt>
      <trkpt lat="46.48449" lon="5.38896">
        <ele>365</ele>
      </trkpt>
      <trkpt lat="46.48455" lon="5.38867">
        <ele>365</ele>
      </trkpt>
      <trkpt lat="46.48468" lon="5.38852">
        <ele>364</ele>
      </trkpt>
      <trkpt lat="46.48489" lon="5.38837">
        <ele>363</ele>
      </trkpt>
      <trkpt lat="46.48548" lon="5.38795">
        <ele>358</ele>
      </trkpt>
      <trkpt lat="46.48576" lon="5.38778">
        <ele>357</ele>
      </trkpt>
      <trkpt lat="46.48586" lon="5.38773">
        <ele>353</ele>
      </trkpt>
      <trkpt lat="46.48594" lon="5.38776">
        <ele>353</ele>
      </trkpt>
      <trkpt lat="46.48602" lon="5.38782">
        <ele>352</ele>
      </trkpt>
      <trkpt lat="46.48607" lon="5.38797">
        <ele>352</ele>
      </trkpt>
      <trkpt lat="46.48614" lon="5.38824">
        <ele>352</ele>
      </trkpt>
      <trkpt lat="46.48618" lon="5.38837">
        <ele>355</ele>
      </trkpt>
      <trkpt lat="46.48623" lon="5.38844">
        <ele>354</ele>
      </trkpt>
      <trkpt lat="46.48654" lon="5.38849">
        <ele>352</ele>
      </trkpt>
      <trkpt lat="46.48686" lon="5.38866">
        <ele>347</ele>
      </trkpt>
      <trkpt lat="46.48719" lon="5.38891">
        <ele>345</ele>
      </trkpt>
      <trkpt lat="46.48755" lon="5.38914">
        <ele>341</ele>
      </trkpt>
      <trkpt lat="46.48792" lon="5.38941">
        <ele>341.7</ele>
      </trkpt>
      <trkpt lat="46.48821" lon="5.38974">
        <ele>341</ele>
      </trkpt>
      <trkpt lat="46.48849" lon="5.39014">
        <ele>337</ele>
      </trkpt>
      <trkpt lat="46.48869" lon="5.3904">
        <ele>335</ele>
      </trkpt>
      <trkpt lat="46.4888" lon="5.39056">
        <ele>335</ele>
      </trkpt>
      <trkpt lat="46.48888" lon="5.39076">
        <ele>334</ele>
      </trkpt>
      <trkpt lat="46.48896" lon="5.3909">
        <ele>340</ele>
      </trkpt>
      <trkpt lat="46.48905" lon="5.39095">
        <ele>338</ele>
      </trkpt>
      <trkpt lat="46.48916" lon="5.39087">
        <ele>331</ele>
      </trkpt>
      <trkpt lat="46.48926" lon="5.39077">
        <ele>322</ele>
      </trkpt>
      <trkpt lat="46.48937" lon="5.39073">
        <ele>318</ele>
      </trkpt>
      <trkpt lat="46.48947" lon="5.39078">
        <ele>316.2</ele>
      </trkpt>
      <trkpt lat="46.48967" lon="5.39098">
        <ele>323</ele>
      </trkpt>
      <trkpt lat="46.48986" lon="5.39112">
        <ele>321</ele>
      </trkpt>
      <trkpt lat="46.49037" lon="5.39139">
        <ele>312</ele>
      </trkpt>
      <trkpt lat="46.49075" lon="5.39147">
        <ele>310.2</ele>
      </trkpt>
      <trkpt lat="46.49152" lon="5.39154">
        <ele>297.3</ele>
      </trkpt>
      <trkpt lat="46.49174" lon="5.39152">
        <ele>293</ele>
      </trkpt>
      <trkpt lat="46.49184" lon="5.39143">
        <ele>291</ele>
      </trkpt>
      <trkpt lat="46.49194" lon="5.39124">
        <ele>290</ele>
      </trkpt>
      <trkpt lat="46.49213" lon="5.39078">
        <ele>287</ele>
      </trkpt>
      <trkpt lat="46.49224" lon="5.39062">
        <ele>287</ele>
      </trkpt>
      <trkpt lat="46.49235" lon="5.39053">
        <ele>287</ele>
      </trkpt>
      <trkpt lat="46.49256" lon="5.39047">
        <ele>287</ele>
      </trkpt>
      <trkpt lat="46.49282" lon="5.39044">
        <ele>287.4</ele>
      </trkpt>
      <trkpt lat="46.49346" lon="5.39028">
        <ele>289</ele>
      </trkpt>
      <trkpt lat="46.49374" lon="5.39026">
        <ele>289</ele>
      </trkpt>
      <trkpt lat="46.49402" lon="5.3903">
        <ele>289</ele>
      </trkpt>
      <trkpt lat="46.4944" lon="5.39042">
        <ele>288</ele>
      </trkpt>
      <trkpt lat="46.49454" lon="5.39045">
        <ele>287.4</ele>
      </trkpt>
      <trkpt lat="46.49473" lon="5.39025">
        <ele>287</ele>
      </trkpt>
      <trkpt lat="46.49468" lon="5.38997">
        <ele>285.1</ele>
      </trkpt>
      <trkpt lat="46.49466" lon="5.38963">
        <ele>285</ele>
      </trkpt>
      <trkpt lat="46.49467" lon="5.38933">
        <ele>285</ele>
      </trkpt>
      <trkpt lat="46.49472" lon="5.38898">
        <ele>283</ele>
      </trkpt>
      <trkpt lat="46.49481" lon="5.3886">
        <ele>282</ele>
      </trkpt>
      <trkpt lat="46.49499" lon="5.38846">
        <ele>282</ele>
      </trkpt>
      <trkpt lat="46.49509" lon="5.38835">
        <ele>281</ele>
      </trkpt>
      <trkpt lat="46.49519" lon="5.3881">
        <ele>279</ele>
      </trkpt>
      <trkpt lat="46.49522" lon="5.38793">
        <ele>279</ele>
      </trkpt>
      <trkpt lat="46.49557" lon="5.38799">
        <ele>278.6</ele>
      </trkpt>
    </trkseg>
  </trk>
</gpx>